<?xml version="1.0" encoding="UTF-8" standalone="no" ?>
<gpx xmlns="http://www.topografix.com/GPX/1/1" xmlns:xsi="http://www.w3.org/2001/XMLSchema-instance" xsi:schemaLocation="http://www.topografix.com/GPX/1/1 http://www.topografix.com/GPX/1/1/gpx.xsd" version="1.1" creator="VisuGPX - https://www.visugpx.com">
  <metadata>
    <name>2025 Ronde VTT Montbronn</name>
  </metadata>
  <trk>
    <name><![CDATA[visugpx_rp81kyZJWb_1]]></name>
    <extensions>
      <line xmlns="http://www.topografix.com/GPX/gpx_style/0/2">
        <color>0000FF</color>
        <opacity>0.45</opacity>
        <width>4</width>
          <extensions>
            <sens>1</sens>
          </extensions>
      </line>
    </extensions>
    <trkseg>
      <trkpt lat="48.99318" lon="7.30503">
        <ele>354</ele>
        <time>2025-06-22T06:36:10Z</time>
      </trkpt>
      <trkpt lat="48.99317" lon="7.30503">
        <ele>354</ele>
        <time>2025-06-22T06:36:26Z</time>
      </trkpt>
      <trkpt lat="48.99316" lon="7.30509">
        <ele>354</ele>
        <time>2025-06-22T06:36:29Z</time>
      </trkpt>
      <trkpt lat="48.99316" lon="7.30512">
        <ele>354</ele>
        <time>2025-06-22T06:36:30Z</time>
      </trkpt>
      <trkpt lat="48.99315" lon="7.30517">
        <ele>354</ele>
        <time>2025-06-22T06:36:32Z</time>
      </trkpt>
      <trkpt lat="48.99315" lon="7.3052">
        <ele>354</ele>
        <time>2025-06-22T06:36:34Z</time>
      </trkpt>
      <trkpt lat="48.99317" lon="7.30516">
        <ele>354</ele>
        <time>2025-06-22T06:36:36Z</time>
      </trkpt>
      <trkpt lat="48.99317" lon="7.30512">
        <ele>354</ele>
        <time>2025-06-22T06:36:37Z</time>
      </trkpt>
      <trkpt lat="48.99317" lon="7.30509">
        <ele>354</ele>
        <time>2025-06-22T06:36:38Z</time>
      </trkpt>
      <trkpt lat="48.99318" lon="7.30506">
        <ele>354</ele>
        <time>2025-06-22T06:36:39Z</time>
      </trkpt>
      <trkpt lat="48.99318" lon="7.30503">
        <ele>354</ele>
        <time>2025-06-22T06:36:41Z</time>
      </trkpt>
      <trkpt lat="48.99318" lon="7.30506">
        <ele>354</ele>
        <time>2025-06-22T06:36:46Z</time>
      </trkpt>
      <trkpt lat="48.99319" lon="7.30503">
        <ele>354</ele>
        <time>2025-06-22T06:36:48Z</time>
      </trkpt>
      <trkpt lat="48.99318" lon="7.305">
        <ele>353</ele>
        <time>2025-06-22T06:37:52Z</time>
      </trkpt>
      <trkpt lat="48.99315" lon="7.30501">
        <ele>354</ele>
        <time>2025-06-22T06:39:08Z</time>
      </trkpt>
      <trkpt lat="48.99312" lon="7.30501">
        <ele>354</ele>
        <time>2025-06-22T06:39:10Z</time>
      </trkpt>
      <trkpt lat="48.9931" lon="7.30501">
        <ele>354</ele>
        <time>2025-06-22T06:39:11Z</time>
      </trkpt>
      <trkpt lat="48.99307" lon="7.305">
        <ele>354</ele>
        <time>2025-06-22T06:39:12Z</time>
      </trkpt>
      <trkpt lat="48.99306" lon="7.30497">
        <ele>354</ele>
        <time>2025-06-22T06:39:13Z</time>
      </trkpt>
      <trkpt lat="48.99306" lon="7.30494">
        <ele>354</ele>
        <time>2025-06-22T06:39:14Z</time>
      </trkpt>
      <trkpt lat="48.99306" lon="7.30491">
        <ele>354</ele>
        <time>2025-06-22T06:39:15Z</time>
      </trkpt>
      <trkpt lat="48.99306" lon="7.30487">
        <ele>354</ele>
        <time>2025-06-22T06:39:16Z</time>
      </trkpt>
      <trkpt lat="48.99305" lon="7.30484">
        <ele>354</ele>
        <time>2025-06-22T06:39:17Z</time>
      </trkpt>
      <trkpt lat="48.99304" lon="7.30482">
        <ele>354</ele>
        <time>2025-06-22T06:39:18Z</time>
      </trkpt>
      <trkpt lat="48.99301" lon="7.3048">
        <ele>354</ele>
        <time>2025-06-22T06:39:19Z</time>
      </trkpt>
      <trkpt lat="48.99296" lon="7.30477">
        <ele>354</ele>
        <time>2025-06-22T06:39:20Z</time>
      </trkpt>
      <trkpt lat="48.99293" lon="7.30476">
        <ele>354</ele>
        <time>2025-06-22T06:39:21Z</time>
      </trkpt>
      <trkpt lat="48.9929" lon="7.30475">
        <ele>355</ele>
        <time>2025-06-22T06:39:22Z</time>
      </trkpt>
      <trkpt lat="48.99287" lon="7.30474">
        <ele>355</ele>
        <time>2025-06-22T06:39:23Z</time>
      </trkpt>
      <trkpt lat="48.99284" lon="7.30473">
        <ele>355</ele>
        <time>2025-06-22T06:39:24Z</time>
      </trkpt>
      <trkpt lat="48.99281" lon="7.30473">
        <ele>355</ele>
        <time>2025-06-22T06:39:25Z</time>
      </trkpt>
      <trkpt lat="48.99278" lon="7.30472">
        <ele>355</ele>
        <time>2025-06-22T06:39:26Z</time>
      </trkpt>
      <trkpt lat="48.99275" lon="7.30472">
        <ele>355</ele>
        <time>2025-06-22T06:39:27Z</time>
      </trkpt>
      <trkpt lat="48.99271" lon="7.30472">
        <ele>355</ele>
        <time>2025-06-22T06:39:28Z</time>
      </trkpt>
      <trkpt lat="48.99269" lon="7.30472">
        <ele>355</ele>
        <time>2025-06-22T06:39:29Z</time>
      </trkpt>
      <trkpt lat="48.99265" lon="7.30471">
        <ele>355</ele>
        <time>2025-06-22T06:39:30Z</time>
      </trkpt>
      <trkpt lat="48.99262" lon="7.30471">
        <ele>355</ele>
        <time>2025-06-22T06:39:31Z</time>
      </trkpt>
      <trkpt lat="48.99259" lon="7.30472">
        <ele>355</ele>
        <time>2025-06-22T06:39:32Z</time>
      </trkpt>
      <trkpt lat="48.99253" lon="7.30473">
        <ele>355</ele>
        <time>2025-06-22T06:39:34Z</time>
      </trkpt>
      <trkpt lat="48.99247" lon="7.30473">
        <ele>356</ele>
        <time>2025-06-22T06:39:36Z</time>
      </trkpt>
      <trkpt lat="48.99244" lon="7.30473">
        <ele>356</ele>
        <time>2025-06-22T06:39:37Z</time>
      </trkpt>
      <trkpt lat="48.99241" lon="7.30473">
        <ele>356</ele>
        <time>2025-06-22T06:39:39Z</time>
      </trkpt>
      <trkpt lat="48.99238" lon="7.30473">
        <ele>357</ele>
        <time>2025-06-22T06:39:40Z</time>
      </trkpt>
      <trkpt lat="48.99235" lon="7.30473">
        <ele>357</ele>
        <time>2025-06-22T06:39:41Z</time>
      </trkpt>
      <trkpt lat="48.99232" lon="7.30473">
        <ele>357</ele>
        <time>2025-06-22T06:39:42Z</time>
      </trkpt>
      <trkpt lat="48.99229" lon="7.30473">
        <ele>357</ele>
        <time>2025-06-22T06:39:43Z</time>
      </trkpt>
      <trkpt lat="48.99226" lon="7.30473">
        <ele>357</ele>
        <time>2025-06-22T06:39:44Z</time>
      </trkpt>
      <trkpt lat="48.99222" lon="7.30473">
        <ele>357</ele>
        <time>2025-06-22T06:39:45Z</time>
      </trkpt>
      <trkpt lat="48.99219" lon="7.30473">
        <ele>357</ele>
        <time>2025-06-22T06:39:46Z</time>
      </trkpt>
      <trkpt lat="48.99216" lon="7.30473">
        <ele>358</ele>
        <time>2025-06-22T06:39:47Z</time>
      </trkpt>
      <trkpt lat="48.99214" lon="7.30473">
        <ele>358</ele>
        <time>2025-06-22T06:39:48Z</time>
      </trkpt>
      <trkpt lat="48.99211" lon="7.30473">
        <ele>358</ele>
        <time>2025-06-22T06:39:49Z</time>
      </trkpt>
      <trkpt lat="48.99208" lon="7.30473">
        <ele>358</ele>
        <time>2025-06-22T06:39:50Z</time>
      </trkpt>
      <trkpt lat="48.99205" lon="7.30473">
        <ele>358</ele>
        <time>2025-06-22T06:39:51Z</time>
      </trkpt>
      <trkpt lat="48.99202" lon="7.30474">
        <ele>358</ele>
        <time>2025-06-22T06:39:52Z</time>
      </trkpt>
      <trkpt lat="48.99199" lon="7.30474">
        <ele>358</ele>
        <time>2025-06-22T06:39:53Z</time>
      </trkpt>
      <trkpt lat="48.99196" lon="7.30474">
        <ele>358</ele>
        <time>2025-06-22T06:39:54Z</time>
      </trkpt>
      <trkpt lat="48.99193" lon="7.30473">
        <ele>358</ele>
        <time>2025-06-22T06:39:55Z</time>
      </trkpt>
      <trkpt lat="48.9919" lon="7.30473">
        <ele>358</ele>
        <time>2025-06-22T06:39:56Z</time>
      </trkpt>
      <trkpt lat="48.99187" lon="7.30473">
        <ele>358</ele>
        <time>2025-06-22T06:39:57Z</time>
      </trkpt>
      <trkpt lat="48.99182" lon="7.30473">
        <ele>359</ele>
        <time>2025-06-22T06:39:58Z</time>
      </trkpt>
      <trkpt lat="48.99179" lon="7.30474">
        <ele>360</ele>
        <time>2025-06-22T06:39:59Z</time>
      </trkpt>
      <trkpt lat="48.99176" lon="7.30474">
        <ele>360</ele>
        <time>2025-06-22T06:40:00Z</time>
      </trkpt>
      <trkpt lat="48.99173" lon="7.30474">
        <ele>361</ele>
        <time>2025-06-22T06:40:01Z</time>
      </trkpt>
      <trkpt lat="48.99171" lon="7.30475">
        <ele>361</ele>
        <time>2025-06-22T06:40:02Z</time>
      </trkpt>
      <trkpt lat="48.99168" lon="7.30475">
        <ele>361</ele>
        <time>2025-06-22T06:40:03Z</time>
      </trkpt>
      <trkpt lat="48.99165" lon="7.30475">
        <ele>362</ele>
        <time>2025-06-22T06:40:04Z</time>
      </trkpt>
      <trkpt lat="48.99162" lon="7.30475">
        <ele>362</ele>
        <time>2025-06-22T06:40:05Z</time>
      </trkpt>
      <trkpt lat="48.99159" lon="7.30475">
        <ele>362</ele>
        <time>2025-06-22T06:40:06Z</time>
      </trkpt>
      <trkpt lat="48.99153" lon="7.30475">
        <ele>363</ele>
        <time>2025-06-22T06:40:08Z</time>
      </trkpt>
      <trkpt lat="48.9915" lon="7.30475">
        <ele>364</ele>
        <time>2025-06-22T06:40:09Z</time>
      </trkpt>
      <trkpt lat="48.99148" lon="7.30475">
        <ele>364</ele>
        <time>2025-06-22T06:40:10Z</time>
      </trkpt>
      <trkpt lat="48.99142" lon="7.30474">
        <ele>364</ele>
        <time>2025-06-22T06:40:12Z</time>
      </trkpt>
      <trkpt lat="48.99139" lon="7.30474">
        <ele>364</ele>
        <time>2025-06-22T06:40:13Z</time>
      </trkpt>
      <trkpt lat="48.99137" lon="7.30475">
        <ele>364</ele>
        <time>2025-06-22T06:40:14Z</time>
      </trkpt>
      <trkpt lat="48.99134" lon="7.30475">
        <ele>364</ele>
        <time>2025-06-22T06:40:15Z</time>
      </trkpt>
      <trkpt lat="48.99131" lon="7.30476">
        <ele>364</ele>
        <time>2025-06-22T06:40:17Z</time>
      </trkpt>
      <trkpt lat="48.99129" lon="7.30476">
        <ele>364</ele>
        <time>2025-06-22T06:40:18Z</time>
      </trkpt>
      <trkpt lat="48.99126" lon="7.30477">
        <ele>365</ele>
        <time>2025-06-22T06:40:19Z</time>
      </trkpt>
      <trkpt lat="48.99123" lon="7.30478">
        <ele>365</ele>
        <time>2025-06-22T06:40:20Z</time>
      </trkpt>
      <trkpt lat="48.99121" lon="7.30478">
        <ele>366</ele>
        <time>2025-06-22T06:40:21Z</time>
      </trkpt>
      <trkpt lat="48.99118" lon="7.3048">
        <ele>367</ele>
        <time>2025-06-22T06:40:22Z</time>
      </trkpt>
      <trkpt lat="48.99115" lon="7.30481">
        <ele>367</ele>
        <time>2025-06-22T06:40:23Z</time>
      </trkpt>
      <trkpt lat="48.99112" lon="7.30482">
        <ele>367</ele>
        <time>2025-06-22T06:40:24Z</time>
      </trkpt>
      <trkpt lat="48.99109" lon="7.30483">
        <ele>367</ele>
        <time>2025-06-22T06:40:25Z</time>
      </trkpt>
      <trkpt lat="48.99106" lon="7.30484">
        <ele>367</ele>
        <time>2025-06-22T06:40:26Z</time>
      </trkpt>
      <trkpt lat="48.99103" lon="7.30485">
        <ele>367</ele>
        <time>2025-06-22T06:40:27Z</time>
      </trkpt>
      <trkpt lat="48.991" lon="7.30486">
        <ele>367</ele>
        <time>2025-06-22T06:40:28Z</time>
      </trkpt>
      <trkpt lat="48.99098" lon="7.30488">
        <ele>367</ele>
        <time>2025-06-22T06:40:29Z</time>
      </trkpt>
      <trkpt lat="48.99097" lon="7.3049">
        <ele>367</ele>
        <time>2025-06-22T06:40:30Z</time>
      </trkpt>
      <trkpt lat="48.99096" lon="7.30494">
        <ele>367</ele>
        <time>2025-06-22T06:40:31Z</time>
      </trkpt>
      <trkpt lat="48.99095" lon="7.30498">
        <ele>367</ele>
        <time>2025-06-22T06:40:32Z</time>
      </trkpt>
      <trkpt lat="48.99096" lon="7.30503">
        <ele>367</ele>
        <time>2025-06-22T06:40:33Z</time>
      </trkpt>
      <trkpt lat="48.99096" lon="7.30508">
        <ele>367</ele>
        <time>2025-06-22T06:40:34Z</time>
      </trkpt>
      <trkpt lat="48.99097" lon="7.30513">
        <ele>367</ele>
        <time>2025-06-22T06:40:35Z</time>
      </trkpt>
      <trkpt lat="48.99098" lon="7.30518">
        <ele>368</ele>
        <time>2025-06-22T06:40:36Z</time>
      </trkpt>
      <trkpt lat="48.99099" lon="7.30523">
        <ele>368</ele>
        <time>2025-06-22T06:40:37Z</time>
      </trkpt>
      <trkpt lat="48.99099" lon="7.30528">
        <ele>367</ele>
        <time>2025-06-22T06:40:38Z</time>
      </trkpt>
      <trkpt lat="48.991" lon="7.30533">
        <ele>367</ele>
        <time>2025-06-22T06:40:39Z</time>
      </trkpt>
      <trkpt lat="48.99101" lon="7.30539">
        <ele>367</ele>
        <time>2025-06-22T06:40:40Z</time>
      </trkpt>
      <trkpt lat="48.99102" lon="7.30545">
        <ele>367</ele>
        <time>2025-06-22T06:40:41Z</time>
      </trkpt>
      <trkpt lat="48.99103" lon="7.3055">
        <ele>368</ele>
        <time>2025-06-22T06:40:42Z</time>
      </trkpt>
      <trkpt lat="48.99104" lon="7.30556">
        <ele>368</ele>
        <time>2025-06-22T06:40:43Z</time>
      </trkpt>
      <trkpt lat="48.99105" lon="7.30562">
        <ele>368</ele>
        <time>2025-06-22T06:40:44Z</time>
      </trkpt>
      <trkpt lat="48.99106" lon="7.30567">
        <ele>368</ele>
        <time>2025-06-22T06:40:45Z</time>
      </trkpt>
      <trkpt lat="48.99106" lon="7.30573">
        <ele>368</ele>
        <time>2025-06-22T06:40:46Z</time>
      </trkpt>
      <trkpt lat="48.99107" lon="7.30579">
        <ele>368</ele>
        <time>2025-06-22T06:40:47Z</time>
      </trkpt>
      <trkpt lat="48.99108" lon="7.30585">
        <ele>368</ele>
        <time>2025-06-22T06:40:48Z</time>
      </trkpt>
      <trkpt lat="48.99109" lon="7.30591">
        <ele>368</ele>
        <time>2025-06-22T06:40:49Z</time>
      </trkpt>
      <trkpt lat="48.9911" lon="7.30597">
        <ele>368</ele>
        <time>2025-06-22T06:40:50Z</time>
      </trkpt>
      <trkpt lat="48.99111" lon="7.30603">
        <ele>368</ele>
        <time>2025-06-22T06:40:51Z</time>
      </trkpt>
      <trkpt lat="48.99111" lon="7.3061">
        <ele>368</ele>
        <time>2025-06-22T06:40:52Z</time>
      </trkpt>
      <trkpt lat="48.99112" lon="7.30616">
        <ele>368</ele>
        <time>2025-06-22T06:40:53Z</time>
      </trkpt>
      <trkpt lat="48.99113" lon="7.30623">
        <ele>369</ele>
        <time>2025-06-22T06:40:54Z</time>
      </trkpt>
      <trkpt lat="48.99115" lon="7.30636">
        <ele>369</ele>
        <time>2025-06-22T06:40:55Z</time>
      </trkpt>
      <trkpt lat="48.99116" lon="7.30643">
        <ele>368</ele>
        <time>2025-06-22T06:40:56Z</time>
      </trkpt>
      <trkpt lat="48.99117" lon="7.3065">
        <ele>367</ele>
        <time>2025-06-22T06:40:57Z</time>
      </trkpt>
      <trkpt lat="48.99118" lon="7.30657">
        <ele>367</ele>
        <time>2025-06-22T06:40:58Z</time>
      </trkpt>
      <trkpt lat="48.99119" lon="7.30664">
        <ele>367</ele>
        <time>2025-06-22T06:40:59Z</time>
      </trkpt>
      <trkpt lat="48.9912" lon="7.30671">
        <ele>367</ele>
        <time>2025-06-22T06:41:00Z</time>
      </trkpt>
      <trkpt lat="48.99121" lon="7.30678">
        <ele>367</ele>
        <time>2025-06-22T06:41:01Z</time>
      </trkpt>
      <trkpt lat="48.99122" lon="7.30685">
        <ele>367</ele>
        <time>2025-06-22T06:41:02Z</time>
      </trkpt>
      <trkpt lat="48.99124" lon="7.30692">
        <ele>367</ele>
        <time>2025-06-22T06:41:03Z</time>
      </trkpt>
      <trkpt lat="48.99124" lon="7.30699">
        <ele>367</ele>
        <time>2025-06-22T06:41:05Z</time>
      </trkpt>
      <trkpt lat="48.99121" lon="7.30711">
        <ele>367</ele>
        <time>2025-06-22T06:41:06Z</time>
      </trkpt>
      <trkpt lat="48.99117" lon="7.30714">
        <ele>367</ele>
        <time>2025-06-22T06:41:07Z</time>
      </trkpt>
      <trkpt lat="48.99112" lon="7.30716">
        <ele>367</ele>
        <time>2025-06-22T06:41:08Z</time>
      </trkpt>
      <trkpt lat="48.99108" lon="7.30717">
        <ele>367</ele>
        <time>2025-06-22T06:41:09Z</time>
      </trkpt>
      <trkpt lat="48.99104" lon="7.30718">
        <ele>367</ele>
        <time>2025-06-22T06:41:10Z</time>
      </trkpt>
      <trkpt lat="48.991" lon="7.30719">
        <ele>367</ele>
        <time>2025-06-22T06:41:11Z</time>
      </trkpt>
      <trkpt lat="48.99096" lon="7.3072">
        <ele>367</ele>
        <time>2025-06-22T06:41:12Z</time>
      </trkpt>
      <trkpt lat="48.99093" lon="7.30721">
        <ele>368</ele>
        <time>2025-06-22T06:41:14Z</time>
      </trkpt>
      <trkpt lat="48.99087" lon="7.30723">
        <ele>368</ele>
        <time>2025-06-22T06:41:15Z</time>
      </trkpt>
      <trkpt lat="48.99083" lon="7.30724">
        <ele>368</ele>
        <time>2025-06-22T06:41:17Z</time>
      </trkpt>
      <trkpt lat="48.9908" lon="7.30725">
        <ele>369</ele>
        <time>2025-06-22T06:41:18Z</time>
      </trkpt>
      <trkpt lat="48.99076" lon="7.30726">
        <ele>369</ele>
        <time>2025-06-22T06:41:19Z</time>
      </trkpt>
      <trkpt lat="48.99072" lon="7.30727">
        <ele>369</ele>
        <time>2025-06-22T06:41:20Z</time>
      </trkpt>
      <trkpt lat="48.99068" lon="7.30728">
        <ele>369</ele>
        <time>2025-06-22T06:41:21Z</time>
      </trkpt>
      <trkpt lat="48.99065" lon="7.30729">
        <ele>368</ele>
        <time>2025-06-22T06:41:22Z</time>
      </trkpt>
      <trkpt lat="48.99061" lon="7.3073">
        <ele>368</ele>
        <time>2025-06-22T06:41:23Z</time>
      </trkpt>
      <trkpt lat="48.99058" lon="7.30731">
        <ele>369</ele>
        <time>2025-06-22T06:41:24Z</time>
      </trkpt>
      <trkpt lat="48.99054" lon="7.30732">
        <ele>369</ele>
        <time>2025-06-22T06:41:25Z</time>
      </trkpt>
      <trkpt lat="48.9905" lon="7.30733">
        <ele>369</ele>
        <time>2025-06-22T06:41:26Z</time>
      </trkpt>
      <trkpt lat="48.99046" lon="7.30735">
        <ele>369</ele>
        <time>2025-06-22T06:41:27Z</time>
      </trkpt>
      <trkpt lat="48.99042" lon="7.30736">
        <ele>369</ele>
        <time>2025-06-22T06:41:28Z</time>
      </trkpt>
      <trkpt lat="48.99038" lon="7.30737">
        <ele>369</ele>
        <time>2025-06-22T06:41:29Z</time>
      </trkpt>
      <trkpt lat="48.99033" lon="7.30738">
        <ele>369</ele>
        <time>2025-06-22T06:41:30Z</time>
      </trkpt>
      <trkpt lat="48.99029" lon="7.30739">
        <ele>369</ele>
        <time>2025-06-22T06:41:31Z</time>
      </trkpt>
      <trkpt lat="48.99024" lon="7.30739">
        <ele>369</ele>
        <time>2025-06-22T06:41:32Z</time>
      </trkpt>
      <trkpt lat="48.99015" lon="7.30741">
        <ele>369</ele>
        <time>2025-06-22T06:41:33Z</time>
      </trkpt>
      <trkpt lat="48.9901" lon="7.30743">
        <ele>369</ele>
        <time>2025-06-22T06:41:34Z</time>
      </trkpt>
      <trkpt lat="48.99005" lon="7.30744">
        <ele>368</ele>
        <time>2025-06-22T06:41:36Z</time>
      </trkpt>
      <trkpt lat="48.98995" lon="7.30745">
        <ele>368</ele>
        <time>2025-06-22T06:41:37Z</time>
      </trkpt>
      <trkpt lat="48.98989" lon="7.30746">
        <ele>368</ele>
        <time>2025-06-22T06:41:38Z</time>
      </trkpt>
      <trkpt lat="48.98983" lon="7.30746">
        <ele>367</ele>
        <time>2025-06-22T06:41:39Z</time>
      </trkpt>
      <trkpt lat="48.98971" lon="7.30747">
        <ele>367</ele>
        <time>2025-06-22T06:41:41Z</time>
      </trkpt>
      <trkpt lat="48.98964" lon="7.30748">
        <ele>367</ele>
        <time>2025-06-22T06:41:42Z</time>
      </trkpt>
      <trkpt lat="48.98956" lon="7.30749">
        <ele>366</ele>
        <time>2025-06-22T06:41:43Z</time>
      </trkpt>
      <trkpt lat="48.98938" lon="7.30753">
        <ele>364</ele>
        <time>2025-06-22T06:41:45Z</time>
      </trkpt>
      <trkpt lat="48.9892" lon="7.30759">
        <ele>364</ele>
        <time>2025-06-22T06:41:47Z</time>
      </trkpt>
      <trkpt lat="48.98911" lon="7.30763">
        <ele>364</ele>
        <time>2025-06-22T06:41:48Z</time>
      </trkpt>
      <trkpt lat="48.98903" lon="7.30767">
        <ele>363</ele>
        <time>2025-06-22T06:41:49Z</time>
      </trkpt>
      <trkpt lat="48.98895" lon="7.30771">
        <ele>362</ele>
        <time>2025-06-22T06:41:50Z</time>
      </trkpt>
      <trkpt lat="48.98886" lon="7.30775">
        <ele>361</ele>
        <time>2025-06-22T06:41:52Z</time>
      </trkpt>
      <trkpt lat="48.98878" lon="7.30778">
        <ele>360</ele>
        <time>2025-06-22T06:41:53Z</time>
      </trkpt>
      <trkpt lat="48.9887" lon="7.30781">
        <ele>359</ele>
        <time>2025-06-22T06:41:54Z</time>
      </trkpt>
      <trkpt lat="48.98861" lon="7.30785">
        <ele>358</ele>
        <time>2025-06-22T06:41:55Z</time>
      </trkpt>
      <trkpt lat="48.98853" lon="7.30788">
        <ele>358</ele>
        <time>2025-06-22T06:41:56Z</time>
      </trkpt>
      <trkpt lat="48.98846" lon="7.30792">
        <ele>358</ele>
        <time>2025-06-22T06:41:57Z</time>
      </trkpt>
      <trkpt lat="48.98838" lon="7.30796">
        <ele>358</ele>
        <time>2025-06-22T06:41:58Z</time>
      </trkpt>
      <trkpt lat="48.98822" lon="7.30806">
        <ele>357</ele>
        <time>2025-06-22T06:41:59Z</time>
      </trkpt>
      <trkpt lat="48.98814" lon="7.30811">
        <ele>355</ele>
        <time>2025-06-22T06:42:00Z</time>
      </trkpt>
      <trkpt lat="48.98805" lon="7.30817">
        <ele>355</ele>
        <time>2025-06-22T06:42:01Z</time>
      </trkpt>
      <trkpt lat="48.98797" lon="7.30823">
        <ele>354</ele>
        <time>2025-06-22T06:42:02Z</time>
      </trkpt>
      <trkpt lat="48.98788" lon="7.30829">
        <ele>353</ele>
        <time>2025-06-22T06:42:03Z</time>
      </trkpt>
      <trkpt lat="48.9878" lon="7.30836">
        <ele>352</ele>
        <time>2025-06-22T06:42:05Z</time>
      </trkpt>
      <trkpt lat="48.98764" lon="7.30851">
        <ele>351</ele>
        <time>2025-06-22T06:42:06Z</time>
      </trkpt>
      <trkpt lat="48.98757" lon="7.30858">
        <ele>351</ele>
        <time>2025-06-22T06:42:07Z</time>
      </trkpt>
      <trkpt lat="48.9875" lon="7.30866">
        <ele>351</ele>
        <time>2025-06-22T06:42:09Z</time>
      </trkpt>
      <trkpt lat="48.98743" lon="7.30873">
        <ele>350</ele>
        <time>2025-06-22T06:42:10Z</time>
      </trkpt>
      <trkpt lat="48.98737" lon="7.3088">
        <ele>349</ele>
        <time>2025-06-22T06:42:11Z</time>
      </trkpt>
      <trkpt lat="48.98732" lon="7.30886">
        <ele>348</ele>
        <time>2025-06-22T06:42:12Z</time>
      </trkpt>
      <trkpt lat="48.98728" lon="7.30889">
        <ele>347</ele>
        <time>2025-06-22T06:42:13Z</time>
      </trkpt>
      <trkpt lat="48.98725" lon="7.30891">
        <ele>347</ele>
        <time>2025-06-22T06:42:14Z</time>
      </trkpt>
      <trkpt lat="48.98722" lon="7.30893">
        <ele>347</ele>
        <time>2025-06-22T06:42:15Z</time>
      </trkpt>
      <trkpt lat="48.9872" lon="7.30894">
        <ele>347</ele>
        <time>2025-06-22T06:42:16Z</time>
      </trkpt>
      <trkpt lat="48.98717" lon="7.30896">
        <ele>347</ele>
        <time>2025-06-22T06:42:17Z</time>
      </trkpt>
      <trkpt lat="48.98715" lon="7.30897">
        <ele>346</ele>
        <time>2025-06-22T06:42:18Z</time>
      </trkpt>
      <trkpt lat="48.98706" lon="7.30902">
        <ele>346</ele>
        <time>2025-06-22T06:42:22Z</time>
      </trkpt>
      <trkpt lat="48.98702" lon="7.30904">
        <ele>346</ele>
        <time>2025-06-22T06:42:24Z</time>
      </trkpt>
      <trkpt lat="48.98693" lon="7.30908">
        <ele>345</ele>
        <time>2025-06-22T06:42:28Z</time>
      </trkpt>
      <trkpt lat="48.98684" lon="7.3091">
        <ele>344</ele>
        <time>2025-06-22T06:42:30Z</time>
      </trkpt>
      <trkpt lat="48.98672" lon="7.30914">
        <ele>343</ele>
        <time>2025-06-22T06:42:31Z</time>
      </trkpt>
      <trkpt lat="48.98662" lon="7.30919">
        <ele>343</ele>
        <time>2025-06-22T06:42:33Z</time>
      </trkpt>
      <trkpt lat="48.98652" lon="7.3092">
        <ele>340</ele>
        <time>2025-06-22T06:42:35Z</time>
      </trkpt>
      <trkpt lat="48.98643" lon="7.30922">
        <ele>338</ele>
        <time>2025-06-22T06:42:37Z</time>
      </trkpt>
      <trkpt lat="48.98633" lon="7.30925">
        <ele>336</ele>
        <time>2025-06-22T06:42:39Z</time>
      </trkpt>
      <trkpt lat="48.98621" lon="7.30929">
        <ele>333</ele>
        <time>2025-06-22T06:42:41Z</time>
      </trkpt>
      <trkpt lat="48.98611" lon="7.30933">
        <ele>332</ele>
        <time>2025-06-22T06:42:43Z</time>
      </trkpt>
      <trkpt lat="48.98596" lon="7.30937">
        <ele>328</ele>
        <time>2025-06-22T06:42:46Z</time>
      </trkpt>
      <trkpt lat="48.98583" lon="7.30939">
        <ele>326</ele>
        <time>2025-06-22T06:42:49Z</time>
      </trkpt>
      <trkpt lat="48.9857" lon="7.30941">
        <ele>323</ele>
        <time>2025-06-22T06:42:51Z</time>
      </trkpt>
      <trkpt lat="48.98555" lon="7.30944">
        <ele>323</ele>
        <time>2025-06-22T06:42:53Z</time>
      </trkpt>
      <trkpt lat="48.98537" lon="7.30948">
        <ele>320</ele>
        <time>2025-06-22T06:42:55Z</time>
      </trkpt>
      <trkpt lat="48.9852" lon="7.30952">
        <ele>318</ele>
        <time>2025-06-22T06:42:57Z</time>
      </trkpt>
      <trkpt lat="48.9851" lon="7.30956">
        <ele>318</ele>
        <time>2025-06-22T06:42:58Z</time>
      </trkpt>
      <trkpt lat="48.9849" lon="7.30963">
        <ele>316</ele>
        <time>2025-06-22T06:42:59Z</time>
      </trkpt>
      <trkpt lat="48.98479" lon="7.30967">
        <ele>314</ele>
        <time>2025-06-22T06:43:00Z</time>
      </trkpt>
      <trkpt lat="48.98468" lon="7.3097">
        <ele>314</ele>
        <time>2025-06-22T06:43:01Z</time>
      </trkpt>
      <trkpt lat="48.98459" lon="7.30975">
        <ele>313</ele>
        <time>2025-06-22T06:43:02Z</time>
      </trkpt>
      <trkpt lat="48.98439" lon="7.30983">
        <ele>312</ele>
        <time>2025-06-22T06:43:04Z</time>
      </trkpt>
      <trkpt lat="48.98429" lon="7.30986">
        <ele>311</ele>
        <time>2025-06-22T06:43:05Z</time>
      </trkpt>
      <trkpt lat="48.98419" lon="7.30987">
        <ele>309</ele>
        <time>2025-06-22T06:43:06Z</time>
      </trkpt>
      <trkpt lat="48.98409" lon="7.30988">
        <ele>308</ele>
        <time>2025-06-22T06:43:08Z</time>
      </trkpt>
      <trkpt lat="48.98394" lon="7.30997">
        <ele>305</ele>
        <time>2025-06-22T06:43:10Z</time>
      </trkpt>
      <trkpt lat="48.98378" lon="7.31005">
        <ele>303</ele>
        <time>2025-06-22T06:43:12Z</time>
      </trkpt>
      <trkpt lat="48.98368" lon="7.3101">
        <ele>303</ele>
        <time>2025-06-22T06:43:14Z</time>
      </trkpt>
      <trkpt lat="48.98358" lon="7.31011">
        <ele>299</ele>
        <time>2025-06-22T06:43:16Z</time>
      </trkpt>
      <trkpt lat="48.98347" lon="7.3101">
        <ele>297</ele>
        <time>2025-06-22T06:43:18Z</time>
      </trkpt>
      <trkpt lat="48.98331" lon="7.3101">
        <ele>296</ele>
        <time>2025-06-22T06:43:20Z</time>
      </trkpt>
      <trkpt lat="48.98316" lon="7.31017">
        <ele>296</ele>
        <time>2025-06-22T06:43:22Z</time>
      </trkpt>
      <trkpt lat="48.98303" lon="7.31026">
        <ele>292</ele>
        <time>2025-06-22T06:43:23Z</time>
      </trkpt>
      <trkpt lat="48.98292" lon="7.31034">
        <ele>290</ele>
        <time>2025-06-22T06:43:25Z</time>
      </trkpt>
      <trkpt lat="48.98283" lon="7.31039">
        <ele>289</ele>
        <time>2025-06-22T06:43:28Z</time>
      </trkpt>
      <trkpt lat="48.98268" lon="7.31046">
        <ele>289</ele>
        <time>2025-06-22T06:43:30Z</time>
      </trkpt>
      <trkpt lat="48.98255" lon="7.31053">
        <ele>286</ele>
        <time>2025-06-22T06:43:32Z</time>
      </trkpt>
      <trkpt lat="48.98246" lon="7.31061">
        <ele>284</ele>
        <time>2025-06-22T06:43:34Z</time>
      </trkpt>
      <trkpt lat="48.98234" lon="7.31068">
        <ele>282</ele>
        <time>2025-06-22T06:43:36Z</time>
      </trkpt>
      <trkpt lat="48.98223" lon="7.31076">
        <ele>282</ele>
        <time>2025-06-22T06:43:38Z</time>
      </trkpt>
      <trkpt lat="48.98215" lon="7.31088">
        <ele>278</ele>
        <time>2025-06-22T06:43:40Z</time>
      </trkpt>
      <trkpt lat="48.98207" lon="7.31098">
        <ele>277</ele>
        <time>2025-06-22T06:43:42Z</time>
      </trkpt>
      <trkpt lat="48.98197" lon="7.31104">
        <ele>275</ele>
        <time>2025-06-22T06:43:44Z</time>
      </trkpt>
      <trkpt lat="48.98187" lon="7.31112">
        <ele>272</ele>
        <time>2025-06-22T06:43:46Z</time>
      </trkpt>
      <trkpt lat="48.98174" lon="7.31125">
        <ele>272</ele>
        <time>2025-06-22T06:43:47Z</time>
      </trkpt>
      <trkpt lat="48.98164" lon="7.31135">
        <ele>270</ele>
        <time>2025-06-22T06:43:49Z</time>
      </trkpt>
      <trkpt lat="48.98153" lon="7.31142">
        <ele>268</ele>
        <time>2025-06-22T06:43:51Z</time>
      </trkpt>
      <trkpt lat="48.98142" lon="7.31148">
        <ele>267</ele>
        <time>2025-06-22T06:43:53Z</time>
      </trkpt>
      <trkpt lat="48.98129" lon="7.31153">
        <ele>267</ele>
        <time>2025-06-22T06:43:55Z</time>
      </trkpt>
      <trkpt lat="48.98118" lon="7.31158">
        <ele>266</ele>
        <time>2025-06-22T06:43:57Z</time>
      </trkpt>
      <trkpt lat="48.98107" lon="7.3116">
        <ele>266</ele>
        <time>2025-06-22T06:43:59Z</time>
      </trkpt>
      <trkpt lat="48.98098" lon="7.31166">
        <ele>265</ele>
        <time>2025-06-22T06:44:02Z</time>
      </trkpt>
      <trkpt lat="48.98089" lon="7.31175">
        <ele>265</ele>
        <time>2025-06-22T06:44:03Z</time>
      </trkpt>
      <trkpt lat="48.9808" lon="7.31184">
        <ele>265</ele>
        <time>2025-06-22T06:44:06Z</time>
      </trkpt>
      <trkpt lat="48.98069" lon="7.31195">
        <ele>265</ele>
        <time>2025-06-22T06:44:08Z</time>
      </trkpt>
      <trkpt lat="48.98061" lon="7.31206">
        <ele>265</ele>
        <time>2025-06-22T06:44:10Z</time>
      </trkpt>
      <trkpt lat="48.9805" lon="7.31209">
        <ele>265</ele>
        <time>2025-06-22T06:44:13Z</time>
      </trkpt>
      <trkpt lat="48.98046" lon="7.31194">
        <ele>265</ele>
        <time>2025-06-22T06:44:16Z</time>
      </trkpt>
      <trkpt lat="48.98043" lon="7.31177">
        <ele>265</ele>
        <time>2025-06-22T06:44:19Z</time>
      </trkpt>
      <trkpt lat="48.98042" lon="7.31161">
        <ele>265</ele>
        <time>2025-06-22T06:44:24Z</time>
      </trkpt>
      <trkpt lat="48.98043" lon="7.31146">
        <ele>266</ele>
        <time>2025-06-22T06:44:33Z</time>
      </trkpt>
      <trkpt lat="48.98045" lon="7.31137">
        <ele>266</ele>
        <time>2025-06-22T06:44:38Z</time>
      </trkpt>
      <trkpt lat="48.98044" lon="7.31134">
        <ele>267</ele>
        <time>2025-06-22T06:44:43Z</time>
      </trkpt>
      <trkpt lat="48.98035" lon="7.31122">
        <ele>269</ele>
        <time>2025-06-22T06:44:49Z</time>
      </trkpt>
      <trkpt lat="48.9803" lon="7.3111">
        <ele>270</ele>
        <time>2025-06-22T06:44:53Z</time>
      </trkpt>
      <trkpt lat="48.98028" lon="7.31093">
        <ele>271</ele>
        <time>2025-06-22T06:44:57Z</time>
      </trkpt>
      <trkpt lat="48.98022" lon="7.31076">
        <ele>271</ele>
        <time>2025-06-22T06:44:59Z</time>
      </trkpt>
      <trkpt lat="48.98017" lon="7.31063">
        <ele>271</ele>
        <time>2025-06-22T06:45:03Z</time>
      </trkpt>
      <trkpt lat="48.98011" lon="7.31048">
        <ele>271</ele>
        <time>2025-06-22T06:45:07Z</time>
      </trkpt>
      <trkpt lat="48.98006" lon="7.31036">
        <ele>271</ele>
        <time>2025-06-22T06:45:09Z</time>
      </trkpt>
      <trkpt lat="48.98003" lon="7.31023">
        <ele>271</ele>
        <time>2025-06-22T06:45:10Z</time>
      </trkpt>
      <trkpt lat="48.97998" lon="7.31005">
        <ele>271</ele>
        <time>2025-06-22T06:45:13Z</time>
      </trkpt>
      <trkpt lat="48.97992" lon="7.3099">
        <ele>271</ele>
        <time>2025-06-22T06:45:16Z</time>
      </trkpt>
      <trkpt lat="48.97987" lon="7.30975">
        <ele>271</ele>
        <time>2025-06-22T06:45:18Z</time>
      </trkpt>
      <trkpt lat="48.97982" lon="7.30962">
        <ele>271</ele>
        <time>2025-06-22T06:45:19Z</time>
      </trkpt>
      <trkpt lat="48.97977" lon="7.30948">
        <ele>270</ele>
        <time>2025-06-22T06:45:22Z</time>
      </trkpt>
      <trkpt lat="48.97973" lon="7.30934">
        <ele>270</ele>
        <time>2025-06-22T06:45:24Z</time>
      </trkpt>
      <trkpt lat="48.97968" lon="7.30921">
        <ele>270</ele>
        <time>2025-06-22T06:45:26Z</time>
      </trkpt>
      <trkpt lat="48.97964" lon="7.30906">
        <ele>270</ele>
        <time>2025-06-22T06:45:28Z</time>
      </trkpt>
      <trkpt lat="48.97961" lon="7.30891">
        <ele>271</ele>
        <time>2025-06-22T06:45:30Z</time>
      </trkpt>
      <trkpt lat="48.97956" lon="7.30873">
        <ele>271</ele>
        <time>2025-06-22T06:45:33Z</time>
      </trkpt>
      <trkpt lat="48.97953" lon="7.30858">
        <ele>271</ele>
        <time>2025-06-22T06:45:35Z</time>
      </trkpt>
      <trkpt lat="48.97947" lon="7.30842">
        <ele>272</ele>
        <time>2025-06-22T06:45:38Z</time>
      </trkpt>
      <trkpt lat="48.97944" lon="7.30825">
        <ele>273</ele>
        <time>2025-06-22T06:45:41Z</time>
      </trkpt>
      <trkpt lat="48.9794" lon="7.30812">
        <ele>273</ele>
        <time>2025-06-22T06:45:43Z</time>
      </trkpt>
      <trkpt lat="48.97936" lon="7.30797">
        <ele>273</ele>
        <time>2025-06-22T06:45:45Z</time>
      </trkpt>
      <trkpt lat="48.97933" lon="7.30778">
        <ele>274</ele>
        <time>2025-06-22T06:45:48Z</time>
      </trkpt>
      <trkpt lat="48.97928" lon="7.30765">
        <ele>276</ele>
        <time>2025-06-22T06:45:50Z</time>
      </trkpt>
      <trkpt lat="48.97926" lon="7.30751">
        <ele>276</ele>
        <time>2025-06-22T06:45:54Z</time>
      </trkpt>
      <trkpt lat="48.97925" lon="7.30735">
        <ele>276</ele>
        <time>2025-06-22T06:45:58Z</time>
      </trkpt>
      <trkpt lat="48.97924" lon="7.30719">
        <ele>276</ele>
        <time>2025-06-22T06:46:03Z</time>
      </trkpt>
      <trkpt lat="48.9792" lon="7.30703">
        <ele>280</ele>
        <time>2025-06-22T06:46:06Z</time>
      </trkpt>
      <trkpt lat="48.97916" lon="7.30689">
        <ele>282</ele>
        <time>2025-06-22T06:46:10Z</time>
      </trkpt>
      <trkpt lat="48.97914" lon="7.30675">
        <ele>283</ele>
        <time>2025-06-22T06:46:15Z</time>
      </trkpt>
      <trkpt lat="48.97912" lon="7.30659">
        <ele>284</ele>
        <time>2025-06-22T06:46:20Z</time>
      </trkpt>
      <trkpt lat="48.97907" lon="7.30644">
        <ele>285</ele>
        <time>2025-06-22T06:46:24Z</time>
      </trkpt>
      <trkpt lat="48.97906" lon="7.3063">
        <ele>286</ele>
        <time>2025-06-22T06:46:28Z</time>
      </trkpt>
      <trkpt lat="48.97903" lon="7.30615">
        <ele>287</ele>
        <time>2025-06-22T06:46:32Z</time>
      </trkpt>
      <trkpt lat="48.97901" lon="7.306">
        <ele>287</ele>
        <time>2025-06-22T06:46:37Z</time>
      </trkpt>
      <trkpt lat="48.97898" lon="7.30586">
        <ele>287</ele>
        <time>2025-06-22T06:46:42Z</time>
      </trkpt>
      <trkpt lat="48.97895" lon="7.30573">
        <ele>287</ele>
        <time>2025-06-22T06:46:46Z</time>
      </trkpt>
      <trkpt lat="48.97894" lon="7.30556">
        <ele>288</ele>
        <time>2025-06-22T06:46:52Z</time>
      </trkpt>
      <trkpt lat="48.97897" lon="7.30542">
        <ele>288</ele>
        <time>2025-06-22T06:46:56Z</time>
      </trkpt>
      <trkpt lat="48.97896" lon="7.30528">
        <ele>288</ele>
        <time>2025-06-22T06:47:00Z</time>
      </trkpt>
      <trkpt lat="48.97894" lon="7.30515">
        <ele>288</ele>
        <time>2025-06-22T06:47:12Z</time>
      </trkpt>
      <trkpt lat="48.97896" lon="7.30514">
        <ele>288</ele>
        <time>2025-06-22T06:47:29Z</time>
      </trkpt>
      <trkpt lat="48.97898" lon="7.3051">
        <ele>288</ele>
        <time>2025-06-22T06:47:34Z</time>
      </trkpt>
      <trkpt lat="48.979" lon="7.30494">
        <ele>288</ele>
        <time>2025-06-22T06:47:39Z</time>
      </trkpt>
      <trkpt lat="48.97901" lon="7.3048">
        <ele>290</ele>
        <time>2025-06-22T06:47:42Z</time>
      </trkpt>
      <trkpt lat="48.97903" lon="7.30466">
        <ele>290</ele>
        <time>2025-06-22T06:47:44Z</time>
      </trkpt>
      <trkpt lat="48.97906" lon="7.30447">
        <ele>290</ele>
        <time>2025-06-22T06:47:48Z</time>
      </trkpt>
      <trkpt lat="48.97909" lon="7.30431">
        <ele>290</ele>
        <time>2025-06-22T06:47:51Z</time>
      </trkpt>
      <trkpt lat="48.97915" lon="7.30418">
        <ele>290</ele>
        <time>2025-06-22T06:47:54Z</time>
      </trkpt>
      <trkpt lat="48.97922" lon="7.30406">
        <ele>290</ele>
        <time>2025-06-22T06:47:57Z</time>
      </trkpt>
      <trkpt lat="48.97929" lon="7.30394">
        <ele>290</ele>
        <time>2025-06-22T06:48:00Z</time>
      </trkpt>
      <trkpt lat="48.97939" lon="7.30381">
        <ele>290</ele>
        <time>2025-06-22T06:48:03Z</time>
      </trkpt>
      <trkpt lat="48.97946" lon="7.30371">
        <ele>290</ele>
        <time>2025-06-22T06:48:05Z</time>
      </trkpt>
      <trkpt lat="48.97952" lon="7.30359">
        <ele>290</ele>
        <time>2025-06-22T06:48:07Z</time>
      </trkpt>
      <trkpt lat="48.9796" lon="7.3035">
        <ele>290</ele>
        <time>2025-06-22T06:48:09Z</time>
      </trkpt>
      <trkpt lat="48.97968" lon="7.30341">
        <ele>290</ele>
        <time>2025-06-22T06:48:11Z</time>
      </trkpt>
      <trkpt lat="48.97976" lon="7.30334">
        <ele>290</ele>
        <time>2025-06-22T06:48:13Z</time>
      </trkpt>
      <trkpt lat="48.97986" lon="7.30326">
        <ele>290</ele>
        <time>2025-06-22T06:48:16Z</time>
      </trkpt>
      <trkpt lat="48.97994" lon="7.30318">
        <ele>290</ele>
        <time>2025-06-22T06:48:18Z</time>
      </trkpt>
      <trkpt lat="48.98001" lon="7.30309">
        <ele>290</ele>
        <time>2025-06-22T06:48:20Z</time>
      </trkpt>
      <trkpt lat="48.98009" lon="7.30293">
        <ele>290</ele>
        <time>2025-06-22T06:48:23Z</time>
      </trkpt>
      <trkpt lat="48.98013" lon="7.30276">
        <ele>290</ele>
        <time>2025-06-22T06:48:26Z</time>
      </trkpt>
      <trkpt lat="48.9802" lon="7.30262">
        <ele>291</ele>
        <time>2025-06-22T06:48:28Z</time>
      </trkpt>
      <trkpt lat="48.98026" lon="7.30248">
        <ele>293</ele>
        <time>2025-06-22T06:48:32Z</time>
      </trkpt>
      <trkpt lat="48.98028" lon="7.30234">
        <ele>293</ele>
        <time>2025-06-22T06:48:35Z</time>
      </trkpt>
      <trkpt lat="48.98035" lon="7.30222">
        <ele>294</ele>
        <time>2025-06-22T06:48:39Z</time>
      </trkpt>
      <trkpt lat="48.98042" lon="7.30214">
        <ele>294</ele>
        <time>2025-06-22T06:48:43Z</time>
      </trkpt>
      <trkpt lat="48.98057" lon="7.30209">
        <ele>297</ele>
        <time>2025-06-22T06:48:47Z</time>
      </trkpt>
      <trkpt lat="48.98066" lon="7.30208">
        <ele>297</ele>
        <time>2025-06-22T06:48:49Z</time>
      </trkpt>
      <trkpt lat="48.98073" lon="7.302">
        <ele>297</ele>
        <time>2025-06-22T06:48:53Z</time>
      </trkpt>
      <trkpt lat="48.98081" lon="7.30187">
        <ele>297</ele>
        <time>2025-06-22T06:48:56Z</time>
      </trkpt>
      <trkpt lat="48.98086" lon="7.30175">
        <ele>297</ele>
        <time>2025-06-22T06:48:58Z</time>
      </trkpt>
      <trkpt lat="48.98077" lon="7.3018">
        <ele>297</ele>
        <time>2025-06-22T06:49:07Z</time>
      </trkpt>
      <trkpt lat="48.98068" lon="7.30184">
        <ele>297</ele>
        <time>2025-06-22T06:49:12Z</time>
      </trkpt>
      <trkpt lat="48.98059" lon="7.30185">
        <ele>297</ele>
        <time>2025-06-22T06:49:14Z</time>
      </trkpt>
      <trkpt lat="48.98046" lon="7.30187">
        <ele>295</ele>
        <time>2025-06-22T06:49:16Z</time>
      </trkpt>
      <trkpt lat="48.98029" lon="7.30188">
        <ele>295</ele>
        <time>2025-06-22T06:49:18Z</time>
      </trkpt>
      <trkpt lat="48.98019" lon="7.30191">
        <ele>291</ele>
        <time>2025-06-22T06:49:19Z</time>
      </trkpt>
      <trkpt lat="48.98008" lon="7.30193">
        <ele>290</ele>
        <time>2025-06-22T06:49:20Z</time>
      </trkpt>
      <trkpt lat="48.97997" lon="7.30194">
        <ele>289</ele>
        <time>2025-06-22T06:49:21Z</time>
      </trkpt>
      <trkpt lat="48.97984" lon="7.30197">
        <ele>289</ele>
        <time>2025-06-22T06:49:22Z</time>
      </trkpt>
      <trkpt lat="48.97972" lon="7.302">
        <ele>287</ele>
        <time>2025-06-22T06:49:23Z</time>
      </trkpt>
      <trkpt lat="48.97963" lon="7.30205">
        <ele>285</ele>
        <time>2025-06-22T06:49:24Z</time>
      </trkpt>
      <trkpt lat="48.97952" lon="7.3021">
        <ele>284</ele>
        <time>2025-06-22T06:49:25Z</time>
      </trkpt>
      <trkpt lat="48.97942" lon="7.30215">
        <ele>284</ele>
        <time>2025-06-22T06:49:26Z</time>
      </trkpt>
      <trkpt lat="48.97932" lon="7.30219">
        <ele>284</ele>
        <time>2025-06-22T06:49:27Z</time>
      </trkpt>
      <trkpt lat="48.97923" lon="7.30225">
        <ele>282</ele>
        <time>2025-06-22T06:49:28Z</time>
      </trkpt>
      <trkpt lat="48.97914" lon="7.30233">
        <ele>281</ele>
        <time>2025-06-22T06:49:29Z</time>
      </trkpt>
      <trkpt lat="48.97906" lon="7.30241">
        <ele>281</ele>
        <time>2025-06-22T06:49:30Z</time>
      </trkpt>
      <trkpt lat="48.97896" lon="7.30249">
        <ele>281</ele>
        <time>2025-06-22T06:49:31Z</time>
      </trkpt>
      <trkpt lat="48.97888" lon="7.30257">
        <ele>279</ele>
        <time>2025-06-22T06:49:32Z</time>
      </trkpt>
      <trkpt lat="48.97878" lon="7.30263">
        <ele>279</ele>
        <time>2025-06-22T06:49:33Z</time>
      </trkpt>
      <trkpt lat="48.97869" lon="7.30269">
        <ele>279</ele>
        <time>2025-06-22T06:49:34Z</time>
      </trkpt>
      <trkpt lat="48.97861" lon="7.30275">
        <ele>279</ele>
        <time>2025-06-22T06:49:35Z</time>
      </trkpt>
      <trkpt lat="48.97843" lon="7.30283">
        <ele>279</ele>
        <time>2025-06-22T06:49:37Z</time>
      </trkpt>
      <trkpt lat="48.97833" lon="7.30287">
        <ele>278</ele>
        <time>2025-06-22T06:49:38Z</time>
      </trkpt>
      <trkpt lat="48.97825" lon="7.30292">
        <ele>278</ele>
        <time>2025-06-22T06:49:39Z</time>
      </trkpt>
      <trkpt lat="48.97816" lon="7.30298">
        <ele>277</ele>
        <time>2025-06-22T06:49:40Z</time>
      </trkpt>
      <trkpt lat="48.97802" lon="7.30307">
        <ele>277</ele>
        <time>2025-06-22T06:49:42Z</time>
      </trkpt>
      <trkpt lat="48.9779" lon="7.30312">
        <ele>274</ele>
        <time>2025-06-22T06:49:44Z</time>
      </trkpt>
      <trkpt lat="48.97786" lon="7.30324">
        <ele>272</ele>
        <time>2025-06-22T06:49:47Z</time>
      </trkpt>
      <trkpt lat="48.97784" lon="7.30342">
        <ele>269</ele>
        <time>2025-06-22T06:49:52Z</time>
      </trkpt>
      <trkpt lat="48.97782" lon="7.30356">
        <ele>269</ele>
        <time>2025-06-22T06:49:54Z</time>
      </trkpt>
      <trkpt lat="48.97778" lon="7.30374">
        <ele>266</ele>
        <time>2025-06-22T06:49:56Z</time>
      </trkpt>
      <trkpt lat="48.97769" lon="7.30391">
        <ele>264</ele>
        <time>2025-06-22T06:49:58Z</time>
      </trkpt>
      <trkpt lat="48.97761" lon="7.30398">
        <ele>263</ele>
        <time>2025-06-22T06:49:59Z</time>
      </trkpt>
      <trkpt lat="48.97745" lon="7.30407">
        <ele>263</ele>
        <time>2025-06-22T06:50:01Z</time>
      </trkpt>
      <trkpt lat="48.97729" lon="7.30407">
        <ele>261</ele>
        <time>2025-06-22T06:50:03Z</time>
      </trkpt>
      <trkpt lat="48.97713" lon="7.30401">
        <ele>261</ele>
        <time>2025-06-22T06:50:05Z</time>
      </trkpt>
      <trkpt lat="48.97699" lon="7.30396">
        <ele>260</ele>
        <time>2025-06-22T06:50:07Z</time>
      </trkpt>
      <trkpt lat="48.97691" lon="7.304">
        <ele>260</ele>
        <time>2025-06-22T06:50:09Z</time>
      </trkpt>
      <trkpt lat="48.97686" lon="7.30402">
        <ele>260</ele>
        <time>2025-06-22T06:50:10Z</time>
      </trkpt>
      <trkpt lat="48.97682" lon="7.30405">
        <ele>260</ele>
        <time>2025-06-22T06:50:11Z</time>
      </trkpt>
      <trkpt lat="48.97679" lon="7.30409">
        <ele>259</ele>
        <time>2025-06-22T06:50:12Z</time>
      </trkpt>
      <trkpt lat="48.97676" lon="7.30413">
        <ele>259</ele>
        <time>2025-06-22T06:50:13Z</time>
      </trkpt>
      <trkpt lat="48.97673" lon="7.30416">
        <ele>259</ele>
        <time>2025-06-22T06:50:14Z</time>
      </trkpt>
      <trkpt lat="48.97669" lon="7.30419">
        <ele>259</ele>
        <time>2025-06-22T06:50:15Z</time>
      </trkpt>
      <trkpt lat="48.97662" lon="7.30423">
        <ele>259</ele>
        <time>2025-06-22T06:50:16Z</time>
      </trkpt>
      <trkpt lat="48.97659" lon="7.30426">
        <ele>259</ele>
        <time>2025-06-22T06:50:18Z</time>
      </trkpt>
      <trkpt lat="48.97656" lon="7.3043">
        <ele>259</ele>
        <time>2025-06-22T06:50:19Z</time>
      </trkpt>
      <trkpt lat="48.97653" lon="7.30432">
        <ele>259</ele>
        <time>2025-06-22T06:50:20Z</time>
      </trkpt>
      <trkpt lat="48.9765" lon="7.30435">
        <ele>260</ele>
        <time>2025-06-22T06:50:21Z</time>
      </trkpt>
      <trkpt lat="48.97647" lon="7.30438">
        <ele>260</ele>
        <time>2025-06-22T06:50:22Z</time>
      </trkpt>
      <trkpt lat="48.97646" lon="7.30441">
        <ele>260</ele>
        <time>2025-06-22T06:50:23Z</time>
      </trkpt>
      <trkpt lat="48.97646" lon="7.30445">
        <ele>260</ele>
        <time>2025-06-22T06:50:24Z</time>
      </trkpt>
      <trkpt lat="48.97647" lon="7.30448">
        <ele>260</ele>
        <time>2025-06-22T06:50:25Z</time>
      </trkpt>
      <trkpt lat="48.97649" lon="7.30453">
        <ele>260</ele>
        <time>2025-06-22T06:50:26Z</time>
      </trkpt>
      <trkpt lat="48.97651" lon="7.30458">
        <ele>260</ele>
        <time>2025-06-22T06:50:27Z</time>
      </trkpt>
      <trkpt lat="48.97654" lon="7.30463">
        <ele>260</ele>
        <time>2025-06-22T06:50:28Z</time>
      </trkpt>
      <trkpt lat="48.97656" lon="7.30469">
        <ele>260</ele>
        <time>2025-06-22T06:50:29Z</time>
      </trkpt>
      <trkpt lat="48.97658" lon="7.30476">
        <ele>260</ele>
        <time>2025-06-22T06:50:30Z</time>
      </trkpt>
      <trkpt lat="48.9766" lon="7.30481">
        <ele>260</ele>
        <time>2025-06-22T06:50:31Z</time>
      </trkpt>
      <trkpt lat="48.97662" lon="7.30487">
        <ele>260</ele>
        <time>2025-06-22T06:50:32Z</time>
      </trkpt>
      <trkpt lat="48.97663" lon="7.30493">
        <ele>260</ele>
        <time>2025-06-22T06:50:33Z</time>
      </trkpt>
      <trkpt lat="48.97665" lon="7.30499">
        <ele>261</ele>
        <time>2025-06-22T06:50:34Z</time>
      </trkpt>
      <trkpt lat="48.97667" lon="7.30504">
        <ele>261</ele>
        <time>2025-06-22T06:50:35Z</time>
      </trkpt>
      <trkpt lat="48.97669" lon="7.3051">
        <ele>261</ele>
        <time>2025-06-22T06:50:36Z</time>
      </trkpt>
      <trkpt lat="48.9767" lon="7.30516">
        <ele>261</ele>
        <time>2025-06-22T06:50:37Z</time>
      </trkpt>
      <trkpt lat="48.97672" lon="7.30522">
        <ele>261</ele>
        <time>2025-06-22T06:50:38Z</time>
      </trkpt>
      <trkpt lat="48.97674" lon="7.30528">
        <ele>262</ele>
        <time>2025-06-22T06:50:39Z</time>
      </trkpt>
      <trkpt lat="48.97676" lon="7.30534">
        <ele>262</ele>
        <time>2025-06-22T06:50:40Z</time>
      </trkpt>
      <trkpt lat="48.97678" lon="7.30539">
        <ele>262</ele>
        <time>2025-06-22T06:50:41Z</time>
      </trkpt>
      <trkpt lat="48.97679" lon="7.30545">
        <ele>262</ele>
        <time>2025-06-22T06:50:42Z</time>
      </trkpt>
      <trkpt lat="48.97681" lon="7.30551">
        <ele>262</ele>
        <time>2025-06-22T06:50:43Z</time>
      </trkpt>
      <trkpt lat="48.97682" lon="7.30557">
        <ele>262</ele>
        <time>2025-06-22T06:50:44Z</time>
      </trkpt>
      <trkpt lat="48.97684" lon="7.30563">
        <ele>262</ele>
        <time>2025-06-22T06:50:45Z</time>
      </trkpt>
      <trkpt lat="48.97685" lon="7.3057">
        <ele>262</ele>
        <time>2025-06-22T06:50:46Z</time>
      </trkpt>
      <trkpt lat="48.97686" lon="7.30576">
        <ele>263</ele>
        <time>2025-06-22T06:50:47Z</time>
      </trkpt>
      <trkpt lat="48.97688" lon="7.30582">
        <ele>263</ele>
        <time>2025-06-22T06:50:48Z</time>
      </trkpt>
      <trkpt lat="48.97689" lon="7.30589">
        <ele>263</ele>
        <time>2025-06-22T06:50:49Z</time>
      </trkpt>
      <trkpt lat="48.9769" lon="7.30595">
        <ele>263</ele>
        <time>2025-06-22T06:50:50Z</time>
      </trkpt>
      <trkpt lat="48.97692" lon="7.306">
        <ele>263</ele>
        <time>2025-06-22T06:50:51Z</time>
      </trkpt>
      <trkpt lat="48.97693" lon="7.30607">
        <ele>263</ele>
        <time>2025-06-22T06:50:52Z</time>
      </trkpt>
      <trkpt lat="48.97694" lon="7.30612">
        <ele>263</ele>
        <time>2025-06-22T06:50:53Z</time>
      </trkpt>
      <trkpt lat="48.97695" lon="7.30617">
        <ele>263</ele>
        <time>2025-06-22T06:50:54Z</time>
      </trkpt>
      <trkpt lat="48.97698" lon="7.30629">
        <ele>263</ele>
        <time>2025-06-22T06:50:55Z</time>
      </trkpt>
      <trkpt lat="48.97699" lon="7.30633">
        <ele>264</ele>
        <time>2025-06-22T06:50:57Z</time>
      </trkpt>
      <trkpt lat="48.977" lon="7.30637">
        <ele>264</ele>
        <time>2025-06-22T06:50:58Z</time>
      </trkpt>
      <trkpt lat="48.97703" lon="7.30652">
        <ele>264</ele>
        <time>2025-06-22T06:51:01Z</time>
      </trkpt>
      <trkpt lat="48.97705" lon="7.30657">
        <ele>264</ele>
        <time>2025-06-22T06:51:02Z</time>
      </trkpt>
      <trkpt lat="48.97709" lon="7.30669">
        <ele>265</ele>
        <time>2025-06-22T06:51:05Z</time>
      </trkpt>
      <trkpt lat="48.97711" lon="7.30687">
        <ele>265</ele>
        <time>2025-06-22T06:51:07Z</time>
      </trkpt>
      <trkpt lat="48.97712" lon="7.30707">
        <ele>265</ele>
        <time>2025-06-22T06:51:10Z</time>
      </trkpt>
      <trkpt lat="48.97715" lon="7.30723">
        <ele>266</ele>
        <time>2025-06-22T06:51:13Z</time>
      </trkpt>
      <trkpt lat="48.97718" lon="7.30737">
        <ele>266</ele>
        <time>2025-06-22T06:51:16Z</time>
      </trkpt>
      <trkpt lat="48.97719" lon="7.30752">
        <ele>266</ele>
        <time>2025-06-22T06:51:19Z</time>
      </trkpt>
      <trkpt lat="48.97721" lon="7.3077">
        <ele>266</ele>
        <time>2025-06-22T06:51:22Z</time>
      </trkpt>
      <trkpt lat="48.97723" lon="7.30785">
        <ele>266</ele>
        <time>2025-06-22T06:51:24Z</time>
      </trkpt>
      <trkpt lat="48.97725" lon="7.30802">
        <ele>266</ele>
        <time>2025-06-22T06:51:26Z</time>
      </trkpt>
      <trkpt lat="48.97728" lon="7.30815">
        <ele>266</ele>
        <time>2025-06-22T06:51:28Z</time>
      </trkpt>
      <trkpt lat="48.97729" lon="7.3082">
        <ele>266</ele>
        <time>2025-06-22T06:51:29Z</time>
      </trkpt>
      <trkpt lat="48.97736" lon="7.30835">
        <ele>266</ele>
        <time>2025-06-22T06:51:32Z</time>
      </trkpt>
      <trkpt lat="48.97742" lon="7.30855">
        <ele>266</ele>
        <time>2025-06-22T06:51:34Z</time>
      </trkpt>
      <trkpt lat="48.9775" lon="7.30871">
        <ele>266</ele>
        <time>2025-06-22T06:51:36Z</time>
      </trkpt>
      <trkpt lat="48.97757" lon="7.30885">
        <ele>266</ele>
        <time>2025-06-22T06:51:38Z</time>
      </trkpt>
      <trkpt lat="48.9776" lon="7.30892">
        <ele>266</ele>
        <time>2025-06-22T06:51:39Z</time>
      </trkpt>
      <trkpt lat="48.97763" lon="7.309">
        <ele>266</ele>
        <time>2025-06-22T06:51:40Z</time>
      </trkpt>
      <trkpt lat="48.97767" lon="7.30906">
        <ele>266</ele>
        <time>2025-06-22T06:51:41Z</time>
      </trkpt>
      <trkpt lat="48.97769" lon="7.30913">
        <ele>266</ele>
        <time>2025-06-22T06:51:42Z</time>
      </trkpt>
      <trkpt lat="48.97772" lon="7.30918">
        <ele>266</ele>
        <time>2025-06-22T06:51:43Z</time>
      </trkpt>
      <trkpt lat="48.97779" lon="7.30934">
        <ele>266</ele>
        <time>2025-06-22T06:51:46Z</time>
      </trkpt>
      <trkpt lat="48.97789" lon="7.30944">
        <ele>266</ele>
        <time>2025-06-22T06:51:49Z</time>
      </trkpt>
      <trkpt lat="48.97796" lon="7.30953">
        <ele>266</ele>
        <time>2025-06-22T06:51:51Z</time>
      </trkpt>
      <trkpt lat="48.97803" lon="7.30963">
        <ele>266</ele>
        <time>2025-06-22T06:51:53Z</time>
      </trkpt>
      <trkpt lat="48.9781" lon="7.30973">
        <ele>266</ele>
        <time>2025-06-22T06:51:55Z</time>
      </trkpt>
      <trkpt lat="48.97819" lon="7.30985">
        <ele>266</ele>
        <time>2025-06-22T06:51:57Z</time>
      </trkpt>
      <trkpt lat="48.97821" lon="7.30991">
        <ele>266</ele>
        <time>2025-06-22T06:51:58Z</time>
      </trkpt>
      <trkpt lat="48.97824" lon="7.30997">
        <ele>266</ele>
        <time>2025-06-22T06:51:59Z</time>
      </trkpt>
      <trkpt lat="48.97826" lon="7.31002">
        <ele>266</ele>
        <time>2025-06-22T06:52:00Z</time>
      </trkpt>
      <trkpt lat="48.97828" lon="7.31008">
        <ele>266</ele>
        <time>2025-06-22T06:52:01Z</time>
      </trkpt>
      <trkpt lat="48.97829" lon="7.31013">
        <ele>266</ele>
        <time>2025-06-22T06:52:02Z</time>
      </trkpt>
      <trkpt lat="48.97831" lon="7.31018">
        <ele>267</ele>
        <time>2025-06-22T06:52:03Z</time>
      </trkpt>
      <trkpt lat="48.97832" lon="7.31023">
        <ele>267</ele>
        <time>2025-06-22T06:52:04Z</time>
      </trkpt>
      <trkpt lat="48.97833" lon="7.31027">
        <ele>267</ele>
        <time>2025-06-22T06:52:05Z</time>
      </trkpt>
      <trkpt lat="48.97834" lon="7.3103">
        <ele>267</ele>
        <time>2025-06-22T06:52:06Z</time>
      </trkpt>
      <trkpt lat="48.97836" lon="7.31035">
        <ele>267</ele>
        <time>2025-06-22T06:52:07Z</time>
      </trkpt>
      <trkpt lat="48.97837" lon="7.3104">
        <ele>267</ele>
        <time>2025-06-22T06:52:08Z</time>
      </trkpt>
      <trkpt lat="48.97839" lon="7.31046">
        <ele>267</ele>
        <time>2025-06-22T06:52:09Z</time>
      </trkpt>
      <trkpt lat="48.97841" lon="7.31052">
        <ele>267</ele>
        <time>2025-06-22T06:52:10Z</time>
      </trkpt>
      <trkpt lat="48.97843" lon="7.31059">
        <ele>267</ele>
        <time>2025-06-22T06:52:11Z</time>
      </trkpt>
      <trkpt lat="48.97847" lon="7.31071">
        <ele>267</ele>
        <time>2025-06-22T06:52:12Z</time>
      </trkpt>
      <trkpt lat="48.97849" lon="7.31077">
        <ele>267</ele>
        <time>2025-06-22T06:52:14Z</time>
      </trkpt>
      <trkpt lat="48.97853" lon="7.3109">
        <ele>266</ele>
        <time>2025-06-22T06:52:17Z</time>
      </trkpt>
      <trkpt lat="48.97855" lon="7.31105">
        <ele>266</ele>
        <time>2025-06-22T06:52:20Z</time>
      </trkpt>
      <trkpt lat="48.97857" lon="7.31112">
        <ele>267</ele>
        <time>2025-06-22T06:52:21Z</time>
      </trkpt>
      <trkpt lat="48.97856" lon="7.31125">
        <ele>267</ele>
        <time>2025-06-22T06:52:23Z</time>
      </trkpt>
      <trkpt lat="48.97854" lon="7.31141">
        <ele>268</ele>
        <time>2025-06-22T06:52:27Z</time>
      </trkpt>
      <trkpt lat="48.97852" lon="7.31157">
        <ele>270</ele>
        <time>2025-06-22T06:52:32Z</time>
      </trkpt>
      <trkpt lat="48.97854" lon="7.31175">
        <ele>270</ele>
        <time>2025-06-22T06:52:36Z</time>
      </trkpt>
      <trkpt lat="48.97859" lon="7.3119">
        <ele>271</ele>
        <time>2025-06-22T06:52:40Z</time>
      </trkpt>
      <trkpt lat="48.97862" lon="7.31205">
        <ele>272</ele>
        <time>2025-06-22T06:52:43Z</time>
      </trkpt>
      <trkpt lat="48.97868" lon="7.31218">
        <ele>271</ele>
        <time>2025-06-22T06:52:46Z</time>
      </trkpt>
      <trkpt lat="48.97871" lon="7.31235">
        <ele>272</ele>
        <time>2025-06-22T06:52:49Z</time>
      </trkpt>
      <trkpt lat="48.97871" lon="7.3124">
        <ele>272</ele>
        <time>2025-06-22T06:52:50Z</time>
      </trkpt>
      <trkpt lat="48.97872" lon="7.31245">
        <ele>272</ele>
        <time>2025-06-22T06:52:51Z</time>
      </trkpt>
      <trkpt lat="48.97873" lon="7.3125">
        <ele>272</ele>
        <time>2025-06-22T06:52:52Z</time>
      </trkpt>
      <trkpt lat="48.97873" lon="7.31255">
        <ele>272</ele>
        <time>2025-06-22T06:52:53Z</time>
      </trkpt>
      <trkpt lat="48.97874" lon="7.31261">
        <ele>272</ele>
        <time>2025-06-22T06:52:54Z</time>
      </trkpt>
      <trkpt lat="48.97874" lon="7.31267">
        <ele>272</ele>
        <time>2025-06-22T06:52:55Z</time>
      </trkpt>
      <trkpt lat="48.97873" lon="7.31273">
        <ele>272</ele>
        <time>2025-06-22T06:52:56Z</time>
      </trkpt>
      <trkpt lat="48.97872" lon="7.31279">
        <ele>272</ele>
        <time>2025-06-22T06:52:57Z</time>
      </trkpt>
      <trkpt lat="48.97871" lon="7.31285">
        <ele>272</ele>
        <time>2025-06-22T06:52:58Z</time>
      </trkpt>
      <trkpt lat="48.9787" lon="7.3129">
        <ele>272</ele>
        <time>2025-06-22T06:52:59Z</time>
      </trkpt>
      <trkpt lat="48.97869" lon="7.31296">
        <ele>272</ele>
        <time>2025-06-22T06:53:00Z</time>
      </trkpt>
      <trkpt lat="48.97868" lon="7.31301">
        <ele>272</ele>
        <time>2025-06-22T06:53:01Z</time>
      </trkpt>
      <trkpt lat="48.97868" lon="7.31306">
        <ele>273</ele>
        <time>2025-06-22T06:53:02Z</time>
      </trkpt>
      <trkpt lat="48.97867" lon="7.31311">
        <ele>273</ele>
        <time>2025-06-22T06:53:03Z</time>
      </trkpt>
      <trkpt lat="48.97866" lon="7.31315">
        <ele>273</ele>
        <time>2025-06-22T06:53:04Z</time>
      </trkpt>
      <trkpt lat="48.97865" lon="7.3132">
        <ele>275</ele>
        <time>2025-06-22T06:53:05Z</time>
      </trkpt>
      <trkpt lat="48.97864" lon="7.31324">
        <ele>275</ele>
        <time>2025-06-22T06:53:06Z</time>
      </trkpt>
      <trkpt lat="48.97862" lon="7.31328">
        <ele>275</ele>
        <time>2025-06-22T06:53:07Z</time>
      </trkpt>
      <trkpt lat="48.97861" lon="7.31333">
        <ele>275</ele>
        <time>2025-06-22T06:53:08Z</time>
      </trkpt>
      <trkpt lat="48.97859" lon="7.31338">
        <ele>275</ele>
        <time>2025-06-22T06:53:09Z</time>
      </trkpt>
      <trkpt lat="48.97858" lon="7.31343">
        <ele>275</ele>
        <time>2025-06-22T06:53:10Z</time>
      </trkpt>
      <trkpt lat="48.97856" lon="7.31347">
        <ele>275</ele>
        <time>2025-06-22T06:53:11Z</time>
      </trkpt>
      <trkpt lat="48.97855" lon="7.31352">
        <ele>276</ele>
        <time>2025-06-22T06:53:12Z</time>
      </trkpt>
      <trkpt lat="48.97854" lon="7.31356">
        <ele>276</ele>
        <time>2025-06-22T06:53:13Z</time>
      </trkpt>
      <trkpt lat="48.97853" lon="7.3136">
        <ele>276</ele>
        <time>2025-06-22T06:53:14Z</time>
      </trkpt>
      <trkpt lat="48.97852" lon="7.31364">
        <ele>276</ele>
        <time>2025-06-22T06:53:15Z</time>
      </trkpt>
      <trkpt lat="48.97851" lon="7.31368">
        <ele>276</ele>
        <time>2025-06-22T06:53:16Z</time>
      </trkpt>
      <trkpt lat="48.9785" lon="7.31373">
        <ele>277</ele>
        <time>2025-06-22T06:53:17Z</time>
      </trkpt>
      <trkpt lat="48.97849" lon="7.31377">
        <ele>277</ele>
        <time>2025-06-22T06:53:18Z</time>
      </trkpt>
      <trkpt lat="48.97848" lon="7.31382">
        <ele>278</ele>
        <time>2025-06-22T06:53:19Z</time>
      </trkpt>
      <trkpt lat="48.97846" lon="7.31386">
        <ele>278</ele>
        <time>2025-06-22T06:53:20Z</time>
      </trkpt>
      <trkpt lat="48.97845" lon="7.3139">
        <ele>278</ele>
        <time>2025-06-22T06:53:21Z</time>
      </trkpt>
      <trkpt lat="48.97844" lon="7.31395">
        <ele>278</ele>
        <time>2025-06-22T06:53:22Z</time>
      </trkpt>
      <trkpt lat="48.97843" lon="7.31399">
        <ele>278</ele>
        <time>2025-06-22T06:53:23Z</time>
      </trkpt>
      <trkpt lat="48.97843" lon="7.31404">
        <ele>278</ele>
        <time>2025-06-22T06:53:24Z</time>
      </trkpt>
      <trkpt lat="48.97842" lon="7.31408">
        <ele>278</ele>
        <time>2025-06-22T06:53:25Z</time>
      </trkpt>
      <trkpt lat="48.97842" lon="7.31413">
        <ele>278</ele>
        <time>2025-06-22T06:53:26Z</time>
      </trkpt>
      <trkpt lat="48.97842" lon="7.31418">
        <ele>278</ele>
        <time>2025-06-22T06:53:27Z</time>
      </trkpt>
      <trkpt lat="48.97842" lon="7.31422">
        <ele>278</ele>
        <time>2025-06-22T06:53:28Z</time>
      </trkpt>
      <trkpt lat="48.97842" lon="7.31427">
        <ele>278</ele>
        <time>2025-06-22T06:53:29Z</time>
      </trkpt>
      <trkpt lat="48.97842" lon="7.31432">
        <ele>279</ele>
        <time>2025-06-22T06:53:30Z</time>
      </trkpt>
      <trkpt lat="48.97842" lon="7.31437">
        <ele>279</ele>
        <time>2025-06-22T06:53:31Z</time>
      </trkpt>
      <trkpt lat="48.97842" lon="7.31441">
        <ele>279</ele>
        <time>2025-06-22T06:53:32Z</time>
      </trkpt>
      <trkpt lat="48.97842" lon="7.31446">
        <ele>279</ele>
        <time>2025-06-22T06:53:33Z</time>
      </trkpt>
      <trkpt lat="48.97843" lon="7.3145">
        <ele>279</ele>
        <time>2025-06-22T06:53:34Z</time>
      </trkpt>
      <trkpt lat="48.97843" lon="7.31455">
        <ele>280</ele>
        <time>2025-06-22T06:53:35Z</time>
      </trkpt>
      <trkpt lat="48.97844" lon="7.3146">
        <ele>280</ele>
        <time>2025-06-22T06:53:36Z</time>
      </trkpt>
      <trkpt lat="48.97845" lon="7.31465">
        <ele>281</ele>
        <time>2025-06-22T06:53:37Z</time>
      </trkpt>
      <trkpt lat="48.97846" lon="7.3147">
        <ele>281</ele>
        <time>2025-06-22T06:53:38Z</time>
      </trkpt>
      <trkpt lat="48.97845" lon="7.31475">
        <ele>280</ele>
        <time>2025-06-22T06:53:39Z</time>
      </trkpt>
      <trkpt lat="48.97844" lon="7.31486">
        <ele>280</ele>
        <time>2025-06-22T06:53:40Z</time>
      </trkpt>
      <trkpt lat="48.97844" lon="7.31491">
        <ele>281</ele>
        <time>2025-06-22T06:53:41Z</time>
      </trkpt>
      <trkpt lat="48.97843" lon="7.31496">
        <ele>281</ele>
        <time>2025-06-22T06:53:43Z</time>
      </trkpt>
      <trkpt lat="48.97842" lon="7.31501">
        <ele>281</ele>
        <time>2025-06-22T06:53:44Z</time>
      </trkpt>
      <trkpt lat="48.97842" lon="7.31506">
        <ele>282</ele>
        <time>2025-06-22T06:53:45Z</time>
      </trkpt>
      <trkpt lat="48.97841" lon="7.31511">
        <ele>282</ele>
        <time>2025-06-22T06:53:46Z</time>
      </trkpt>
      <trkpt lat="48.97841" lon="7.31516">
        <ele>282</ele>
        <time>2025-06-22T06:53:47Z</time>
      </trkpt>
      <trkpt lat="48.9784" lon="7.31521">
        <ele>282</ele>
        <time>2025-06-22T06:53:48Z</time>
      </trkpt>
      <trkpt lat="48.9784" lon="7.31526">
        <ele>282</ele>
        <time>2025-06-22T06:53:49Z</time>
      </trkpt>
      <trkpt lat="48.9784" lon="7.31531">
        <ele>283</ele>
        <time>2025-06-22T06:53:50Z</time>
      </trkpt>
      <trkpt lat="48.9784" lon="7.31535">
        <ele>283</ele>
        <time>2025-06-22T06:53:51Z</time>
      </trkpt>
      <trkpt lat="48.9784" lon="7.3154">
        <ele>283</ele>
        <time>2025-06-22T06:53:52Z</time>
      </trkpt>
      <trkpt lat="48.97839" lon="7.31544">
        <ele>283</ele>
        <time>2025-06-22T06:53:53Z</time>
      </trkpt>
      <trkpt lat="48.97839" lon="7.31549">
        <ele>284</ele>
        <time>2025-06-22T06:53:54Z</time>
      </trkpt>
      <trkpt lat="48.97838" lon="7.31554">
        <ele>284</ele>
        <time>2025-06-22T06:53:55Z</time>
      </trkpt>
      <trkpt lat="48.97838" lon="7.31558">
        <ele>284</ele>
        <time>2025-06-22T06:53:56Z</time>
      </trkpt>
      <trkpt lat="48.97837" lon="7.31563">
        <ele>284</ele>
        <time>2025-06-22T06:53:57Z</time>
      </trkpt>
      <trkpt lat="48.97837" lon="7.31567">
        <ele>284</ele>
        <time>2025-06-22T06:53:58Z</time>
      </trkpt>
      <trkpt lat="48.97837" lon="7.31572">
        <ele>284</ele>
        <time>2025-06-22T06:53:59Z</time>
      </trkpt>
      <trkpt lat="48.97837" lon="7.31577">
        <ele>284</ele>
        <time>2025-06-22T06:54:00Z</time>
      </trkpt>
      <trkpt lat="48.97837" lon="7.31581">
        <ele>284</ele>
        <time>2025-06-22T06:54:01Z</time>
      </trkpt>
      <trkpt lat="48.97837" lon="7.31591">
        <ele>284</ele>
        <time>2025-06-22T06:54:02Z</time>
      </trkpt>
      <trkpt lat="48.97837" lon="7.31596">
        <ele>284</ele>
        <time>2025-06-22T06:54:04Z</time>
      </trkpt>
      <trkpt lat="48.97837" lon="7.316">
        <ele>284</ele>
        <time>2025-06-22T06:54:05Z</time>
      </trkpt>
      <trkpt lat="48.97838" lon="7.31604">
        <ele>284</ele>
        <time>2025-06-22T06:54:06Z</time>
      </trkpt>
      <trkpt lat="48.97839" lon="7.31609">
        <ele>284</ele>
        <time>2025-06-22T06:54:07Z</time>
      </trkpt>
      <trkpt lat="48.97839" lon="7.31613">
        <ele>284</ele>
        <time>2025-06-22T06:54:08Z</time>
      </trkpt>
      <trkpt lat="48.9784" lon="7.31617">
        <ele>285</ele>
        <time>2025-06-22T06:54:09Z</time>
      </trkpt>
      <trkpt lat="48.9784" lon="7.31621">
        <ele>285</ele>
        <time>2025-06-22T06:54:10Z</time>
      </trkpt>
      <trkpt lat="48.97841" lon="7.31626">
        <ele>286</ele>
        <time>2025-06-22T06:54:11Z</time>
      </trkpt>
      <trkpt lat="48.97841" lon="7.3163">
        <ele>286</ele>
        <time>2025-06-22T06:54:12Z</time>
      </trkpt>
      <trkpt lat="48.97842" lon="7.31635">
        <ele>286</ele>
        <time>2025-06-22T06:54:13Z</time>
      </trkpt>
      <trkpt lat="48.97842" lon="7.3164">
        <ele>286</ele>
        <time>2025-06-22T06:54:14Z</time>
      </trkpt>
      <trkpt lat="48.97842" lon="7.31645">
        <ele>286</ele>
        <time>2025-06-22T06:54:15Z</time>
      </trkpt>
      <trkpt lat="48.97842" lon="7.31649">
        <ele>286</ele>
        <time>2025-06-22T06:54:16Z</time>
      </trkpt>
      <trkpt lat="48.97843" lon="7.31654">
        <ele>286</ele>
        <time>2025-06-22T06:54:17Z</time>
      </trkpt>
      <trkpt lat="48.97843" lon="7.31659">
        <ele>287</ele>
        <time>2025-06-22T06:54:18Z</time>
      </trkpt>
      <trkpt lat="48.97843" lon="7.31664">
        <ele>287</ele>
        <time>2025-06-22T06:54:19Z</time>
      </trkpt>
      <trkpt lat="48.97843" lon="7.31668">
        <ele>287</ele>
        <time>2025-06-22T06:54:20Z</time>
      </trkpt>
      <trkpt lat="48.97842" lon="7.31673">
        <ele>287</ele>
        <time>2025-06-22T06:54:21Z</time>
      </trkpt>
      <trkpt lat="48.97842" lon="7.31678">
        <ele>287</ele>
        <time>2025-06-22T06:54:22Z</time>
      </trkpt>
      <trkpt lat="48.97842" lon="7.31683">
        <ele>288</ele>
        <time>2025-06-22T06:54:23Z</time>
      </trkpt>
      <trkpt lat="48.97842" lon="7.31688">
        <ele>288</ele>
        <time>2025-06-22T06:54:24Z</time>
      </trkpt>
      <trkpt lat="48.97842" lon="7.31693">
        <ele>289</ele>
        <time>2025-06-22T06:54:25Z</time>
      </trkpt>
      <trkpt lat="48.97842" lon="7.31697">
        <ele>289</ele>
        <time>2025-06-22T06:54:26Z</time>
      </trkpt>
      <trkpt lat="48.97843" lon="7.31702">
        <ele>289</ele>
        <time>2025-06-22T06:54:27Z</time>
      </trkpt>
      <trkpt lat="48.97843" lon="7.31707">
        <ele>289</ele>
        <time>2025-06-22T06:54:28Z</time>
      </trkpt>
      <trkpt lat="48.97844" lon="7.31712">
        <ele>289</ele>
        <time>2025-06-22T06:54:29Z</time>
      </trkpt>
      <trkpt lat="48.97844" lon="7.31717">
        <ele>289</ele>
        <time>2025-06-22T06:54:30Z</time>
      </trkpt>
      <trkpt lat="48.97844" lon="7.31722">
        <ele>289</ele>
        <time>2025-06-22T06:54:31Z</time>
      </trkpt>
      <trkpt lat="48.97843" lon="7.31727">
        <ele>289</ele>
        <time>2025-06-22T06:54:32Z</time>
      </trkpt>
      <trkpt lat="48.97842" lon="7.31732">
        <ele>289</ele>
        <time>2025-06-22T06:54:33Z</time>
      </trkpt>
      <trkpt lat="48.97841" lon="7.31737">
        <ele>290</ele>
        <time>2025-06-22T06:54:34Z</time>
      </trkpt>
      <trkpt lat="48.97839" lon="7.31741">
        <ele>290</ele>
        <time>2025-06-22T06:54:35Z</time>
      </trkpt>
      <trkpt lat="48.97836" lon="7.31745">
        <ele>290</ele>
        <time>2025-06-22T06:54:36Z</time>
      </trkpt>
      <trkpt lat="48.97835" lon="7.31749">
        <ele>290</ele>
        <time>2025-06-22T06:54:37Z</time>
      </trkpt>
      <trkpt lat="48.97832" lon="7.31753">
        <ele>290</ele>
        <time>2025-06-22T06:54:38Z</time>
      </trkpt>
      <trkpt lat="48.9783" lon="7.31757">
        <ele>290</ele>
        <time>2025-06-22T06:54:39Z</time>
      </trkpt>
      <trkpt lat="48.97828" lon="7.31761">
        <ele>290</ele>
        <time>2025-06-22T06:54:40Z</time>
      </trkpt>
      <trkpt lat="48.97826" lon="7.31765">
        <ele>290</ele>
        <time>2025-06-22T06:54:41Z</time>
      </trkpt>
      <trkpt lat="48.97824" lon="7.3177">
        <ele>290</ele>
        <time>2025-06-22T06:54:42Z</time>
      </trkpt>
      <trkpt lat="48.9782" lon="7.31778">
        <ele>290</ele>
        <time>2025-06-22T06:54:43Z</time>
      </trkpt>
      <trkpt lat="48.97819" lon="7.31782">
        <ele>291</ele>
        <time>2025-06-22T06:54:45Z</time>
      </trkpt>
      <trkpt lat="48.97817" lon="7.31786">
        <ele>291</ele>
        <time>2025-06-22T06:54:46Z</time>
      </trkpt>
      <trkpt lat="48.97815" lon="7.3179">
        <ele>291</ele>
        <time>2025-06-22T06:54:47Z</time>
      </trkpt>
      <trkpt lat="48.97813" lon="7.31794">
        <ele>291</ele>
        <time>2025-06-22T06:54:48Z</time>
      </trkpt>
      <trkpt lat="48.97812" lon="7.31798">
        <ele>292</ele>
        <time>2025-06-22T06:54:49Z</time>
      </trkpt>
      <trkpt lat="48.9781" lon="7.31801">
        <ele>292</ele>
        <time>2025-06-22T06:54:50Z</time>
      </trkpt>
      <trkpt lat="48.97809" lon="7.31805">
        <ele>292</ele>
        <time>2025-06-22T06:54:51Z</time>
      </trkpt>
      <trkpt lat="48.97807" lon="7.31809">
        <ele>292</ele>
        <time>2025-06-22T06:54:52Z</time>
      </trkpt>
      <trkpt lat="48.97806" lon="7.31813">
        <ele>292</ele>
        <time>2025-06-22T06:54:53Z</time>
      </trkpt>
      <trkpt lat="48.97804" lon="7.31817">
        <ele>292</ele>
        <time>2025-06-22T06:54:54Z</time>
      </trkpt>
      <trkpt lat="48.97802" lon="7.31821">
        <ele>293</ele>
        <time>2025-06-22T06:54:55Z</time>
      </trkpt>
      <trkpt lat="48.978" lon="7.31825">
        <ele>293</ele>
        <time>2025-06-22T06:54:56Z</time>
      </trkpt>
      <trkpt lat="48.97798" lon="7.31829">
        <ele>294</ele>
        <time>2025-06-22T06:54:57Z</time>
      </trkpt>
      <trkpt lat="48.97796" lon="7.31832">
        <ele>294</ele>
        <time>2025-06-22T06:54:58Z</time>
      </trkpt>
      <trkpt lat="48.97794" lon="7.31835">
        <ele>294</ele>
        <time>2025-06-22T06:54:59Z</time>
      </trkpt>
      <trkpt lat="48.97792" lon="7.31838">
        <ele>294</ele>
        <time>2025-06-22T06:55:00Z</time>
      </trkpt>
      <trkpt lat="48.97789" lon="7.31841">
        <ele>294</ele>
        <time>2025-06-22T06:55:01Z</time>
      </trkpt>
      <trkpt lat="48.97787" lon="7.31844">
        <ele>294</ele>
        <time>2025-06-22T06:55:02Z</time>
      </trkpt>
      <trkpt lat="48.97784" lon="7.31847">
        <ele>294</ele>
        <time>2025-06-22T06:55:03Z</time>
      </trkpt>
      <trkpt lat="48.97782" lon="7.31849">
        <ele>294</ele>
        <time>2025-06-22T06:55:04Z</time>
      </trkpt>
      <trkpt lat="48.97779" lon="7.31852">
        <ele>295</ele>
        <time>2025-06-22T06:55:05Z</time>
      </trkpt>
      <trkpt lat="48.97776" lon="7.31855">
        <ele>295</ele>
        <time>2025-06-22T06:55:06Z</time>
      </trkpt>
      <trkpt lat="48.97772" lon="7.31858">
        <ele>295</ele>
        <time>2025-06-22T06:55:07Z</time>
      </trkpt>
      <trkpt lat="48.97769" lon="7.3186">
        <ele>295</ele>
        <time>2025-06-22T06:55:08Z</time>
      </trkpt>
      <trkpt lat="48.97767" lon="7.31862">
        <ele>295</ele>
        <time>2025-06-22T06:55:09Z</time>
      </trkpt>
      <trkpt lat="48.97764" lon="7.31864">
        <ele>296</ele>
        <time>2025-06-22T06:55:10Z</time>
      </trkpt>
      <trkpt lat="48.97762" lon="7.31866">
        <ele>297</ele>
        <time>2025-06-22T06:55:11Z</time>
      </trkpt>
      <trkpt lat="48.97759" lon="7.31869">
        <ele>297</ele>
        <time>2025-06-22T06:55:12Z</time>
      </trkpt>
      <trkpt lat="48.97757" lon="7.31872">
        <ele>297</ele>
        <time>2025-06-22T06:55:13Z</time>
      </trkpt>
      <trkpt lat="48.97751" lon="7.31874">
        <ele>297</ele>
        <time>2025-06-22T06:55:14Z</time>
      </trkpt>
      <trkpt lat="48.97749" lon="7.31874">
        <ele>297</ele>
        <time>2025-06-22T06:55:16Z</time>
      </trkpt>
      <trkpt lat="48.97747" lon="7.31874">
        <ele>297</ele>
        <time>2025-06-22T06:55:17Z</time>
      </trkpt>
      <trkpt lat="48.97744" lon="7.31873">
        <ele>297</ele>
        <time>2025-06-22T06:55:18Z</time>
      </trkpt>
      <trkpt lat="48.97741" lon="7.3187">
        <ele>298</ele>
        <time>2025-06-22T06:55:19Z</time>
      </trkpt>
      <trkpt lat="48.97738" lon="7.31867">
        <ele>298</ele>
        <time>2025-06-22T06:55:20Z</time>
      </trkpt>
      <trkpt lat="48.97735" lon="7.31864">
        <ele>298</ele>
        <time>2025-06-22T06:55:21Z</time>
      </trkpt>
      <trkpt lat="48.97733" lon="7.31862">
        <ele>298</ele>
        <time>2025-06-22T06:55:22Z</time>
      </trkpt>
      <trkpt lat="48.97731" lon="7.31859">
        <ele>298</ele>
        <time>2025-06-22T06:55:23Z</time>
      </trkpt>
      <trkpt lat="48.97727" lon="7.31852">
        <ele>298</ele>
        <time>2025-06-22T06:55:25Z</time>
      </trkpt>
      <trkpt lat="48.97722" lon="7.31847">
        <ele>298</ele>
        <time>2025-06-22T06:55:27Z</time>
      </trkpt>
      <trkpt lat="48.97717" lon="7.31841">
        <ele>299</ele>
        <time>2025-06-22T06:55:29Z</time>
      </trkpt>
      <trkpt lat="48.97714" lon="7.31838">
        <ele>299</ele>
        <time>2025-06-22T06:55:30Z</time>
      </trkpt>
      <trkpt lat="48.97712" lon="7.31836">
        <ele>300</ele>
        <time>2025-06-22T06:55:31Z</time>
      </trkpt>
      <trkpt lat="48.97702" lon="7.31828">
        <ele>300</ele>
        <time>2025-06-22T06:55:35Z</time>
      </trkpt>
      <trkpt lat="48.97692" lon="7.31818">
        <ele>300</ele>
        <time>2025-06-22T06:55:39Z</time>
      </trkpt>
      <trkpt lat="48.97683" lon="7.3181">
        <ele>301</ele>
        <time>2025-06-22T06:55:43Z</time>
      </trkpt>
      <trkpt lat="48.97675" lon="7.31802">
        <ele>301</ele>
        <time>2025-06-22T06:55:46Z</time>
      </trkpt>
      <trkpt lat="48.97666" lon="7.31799">
        <ele>303</ele>
        <time>2025-06-22T06:55:48Z</time>
      </trkpt>
      <trkpt lat="48.97656" lon="7.31795">
        <ele>303</ele>
        <time>2025-06-22T06:55:51Z</time>
      </trkpt>
      <trkpt lat="48.97646" lon="7.31788">
        <ele>303</ele>
        <time>2025-06-22T06:55:53Z</time>
      </trkpt>
      <trkpt lat="48.97637" lon="7.3179">
        <ele>303</ele>
        <time>2025-06-22T06:55:56Z</time>
      </trkpt>
      <trkpt lat="48.97628" lon="7.31793">
        <ele>303</ele>
        <time>2025-06-22T06:55:59Z</time>
      </trkpt>
      <trkpt lat="48.97618" lon="7.31794">
        <ele>303</ele>
        <time>2025-06-22T06:56:01Z</time>
      </trkpt>
      <trkpt lat="48.97608" lon="7.31801">
        <ele>304</ele>
        <time>2025-06-22T06:56:03Z</time>
      </trkpt>
      <trkpt lat="48.97598" lon="7.31812">
        <ele>304</ele>
        <time>2025-06-22T06:56:06Z</time>
      </trkpt>
      <trkpt lat="48.97591" lon="7.31824">
        <ele>305</ele>
        <time>2025-06-22T06:56:09Z</time>
      </trkpt>
      <trkpt lat="48.97592" lon="7.3184">
        <ele>305</ele>
        <time>2025-06-22T06:56:12Z</time>
      </trkpt>
      <trkpt lat="48.97595" lon="7.31855">
        <ele>306</ele>
        <time>2025-06-22T06:56:15Z</time>
      </trkpt>
      <trkpt lat="48.97598" lon="7.31872">
        <ele>306</ele>
        <time>2025-06-22T06:56:18Z</time>
      </trkpt>
      <trkpt lat="48.97602" lon="7.31889">
        <ele>308</ele>
        <time>2025-06-22T06:56:21Z</time>
      </trkpt>
      <trkpt lat="48.97607" lon="7.31906">
        <ele>308</ele>
        <time>2025-06-22T06:56:24Z</time>
      </trkpt>
      <trkpt lat="48.97612" lon="7.31921">
        <ele>308</ele>
        <time>2025-06-22T06:56:27Z</time>
      </trkpt>
      <trkpt lat="48.97615" lon="7.31937">
        <ele>309</ele>
        <time>2025-06-22T06:56:30Z</time>
      </trkpt>
      <trkpt lat="48.97618" lon="7.31941">
        <ele>309</ele>
        <time>2025-06-22T06:56:31Z</time>
      </trkpt>
      <trkpt lat="48.97623" lon="7.31955">
        <ele>309</ele>
        <time>2025-06-22T06:56:34Z</time>
      </trkpt>
      <trkpt lat="48.97629" lon="7.31968">
        <ele>309</ele>
        <time>2025-06-22T06:56:37Z</time>
      </trkpt>
      <trkpt lat="48.97635" lon="7.31982">
        <ele>309</ele>
        <time>2025-06-22T06:56:40Z</time>
      </trkpt>
      <trkpt lat="48.97639" lon="7.31992">
        <ele>309</ele>
        <time>2025-06-22T06:56:42Z</time>
      </trkpt>
      <trkpt lat="48.97642" lon="7.31997">
        <ele>309</ele>
        <time>2025-06-22T06:56:43Z</time>
      </trkpt>
      <trkpt lat="48.97644" lon="7.32003">
        <ele>309</ele>
        <time>2025-06-22T06:56:44Z</time>
      </trkpt>
      <trkpt lat="48.97649" lon="7.32013">
        <ele>309</ele>
        <time>2025-06-22T06:56:46Z</time>
      </trkpt>
      <trkpt lat="48.97652" lon="7.32019">
        <ele>309</ele>
        <time>2025-06-22T06:56:47Z</time>
      </trkpt>
      <trkpt lat="48.97654" lon="7.32023">
        <ele>309</ele>
        <time>2025-06-22T06:56:48Z</time>
      </trkpt>
      <trkpt lat="48.97656" lon="7.32029">
        <ele>309</ele>
        <time>2025-06-22T06:56:49Z</time>
      </trkpt>
      <trkpt lat="48.97658" lon="7.32035">
        <ele>309</ele>
        <time>2025-06-22T06:56:50Z</time>
      </trkpt>
      <trkpt lat="48.9766" lon="7.32041">
        <ele>309</ele>
        <time>2025-06-22T06:56:51Z</time>
      </trkpt>
      <trkpt lat="48.97662" lon="7.32047">
        <ele>309</ele>
        <time>2025-06-22T06:56:52Z</time>
      </trkpt>
      <trkpt lat="48.97664" lon="7.32053">
        <ele>309</ele>
        <time>2025-06-22T06:56:53Z</time>
      </trkpt>
      <trkpt lat="48.97665" lon="7.32059">
        <ele>310</ele>
        <time>2025-06-22T06:56:54Z</time>
      </trkpt>
      <trkpt lat="48.97666" lon="7.32064">
        <ele>310</ele>
        <time>2025-06-22T06:56:55Z</time>
      </trkpt>
      <trkpt lat="48.97667" lon="7.3207">
        <ele>311</ele>
        <time>2025-06-22T06:56:56Z</time>
      </trkpt>
      <trkpt lat="48.97668" lon="7.32075">
        <ele>311</ele>
        <time>2025-06-22T06:56:57Z</time>
      </trkpt>
      <trkpt lat="48.97668" lon="7.32081">
        <ele>311</ele>
        <time>2025-06-22T06:56:58Z</time>
      </trkpt>
      <trkpt lat="48.97668" lon="7.32087">
        <ele>311</ele>
        <time>2025-06-22T06:56:59Z</time>
      </trkpt>
      <trkpt lat="48.97668" lon="7.32092">
        <ele>311</ele>
        <time>2025-06-22T06:57:00Z</time>
      </trkpt>
      <trkpt lat="48.97667" lon="7.32096">
        <ele>312</ele>
        <time>2025-06-22T06:57:01Z</time>
      </trkpt>
      <trkpt lat="48.97667" lon="7.32101">
        <ele>312</ele>
        <time>2025-06-22T06:57:02Z</time>
      </trkpt>
      <trkpt lat="48.97666" lon="7.32104">
        <ele>312</ele>
        <time>2025-06-22T06:57:03Z</time>
      </trkpt>
      <trkpt lat="48.97666" lon="7.32108">
        <ele>313</ele>
        <time>2025-06-22T06:57:04Z</time>
      </trkpt>
      <trkpt lat="48.97666" lon="7.32113">
        <ele>314</ele>
        <time>2025-06-22T06:57:05Z</time>
      </trkpt>
      <trkpt lat="48.97666" lon="7.32118">
        <ele>314</ele>
        <time>2025-06-22T06:57:06Z</time>
      </trkpt>
      <trkpt lat="48.97666" lon="7.32122">
        <ele>314</ele>
        <time>2025-06-22T06:57:07Z</time>
      </trkpt>
      <trkpt lat="48.97667" lon="7.32126">
        <ele>314</ele>
        <time>2025-06-22T06:57:08Z</time>
      </trkpt>
      <trkpt lat="48.97667" lon="7.3213">
        <ele>315</ele>
        <time>2025-06-22T06:57:09Z</time>
      </trkpt>
      <trkpt lat="48.97667" lon="7.32134">
        <ele>315</ele>
        <time>2025-06-22T06:57:10Z</time>
      </trkpt>
      <trkpt lat="48.97666" lon="7.32137">
        <ele>315</ele>
        <time>2025-06-22T06:57:11Z</time>
      </trkpt>
      <trkpt lat="48.97664" lon="7.32138">
        <ele>315</ele>
        <time>2025-06-22T06:57:12Z</time>
      </trkpt>
      <trkpt lat="48.97662" lon="7.32138">
        <ele>315</ele>
        <time>2025-06-22T06:57:13Z</time>
      </trkpt>
      <trkpt lat="48.9766" lon="7.32136">
        <ele>315</ele>
        <time>2025-06-22T06:57:14Z</time>
      </trkpt>
      <trkpt lat="48.97659" lon="7.32133">
        <ele>316</ele>
        <time>2025-06-22T06:57:15Z</time>
      </trkpt>
      <trkpt lat="48.97658" lon="7.32129">
        <ele>316</ele>
        <time>2025-06-22T06:57:16Z</time>
      </trkpt>
      <trkpt lat="48.97657" lon="7.32125">
        <ele>316</ele>
        <time>2025-06-22T06:57:17Z</time>
      </trkpt>
      <trkpt lat="48.97657" lon="7.32121">
        <ele>316</ele>
        <time>2025-06-22T06:57:18Z</time>
      </trkpt>
      <trkpt lat="48.97656" lon="7.32117">
        <ele>316</ele>
        <time>2025-06-22T06:57:19Z</time>
      </trkpt>
      <trkpt lat="48.97656" lon="7.32114">
        <ele>316</ele>
        <time>2025-06-22T06:57:20Z</time>
      </trkpt>
      <trkpt lat="48.97655" lon="7.3211">
        <ele>316</ele>
        <time>2025-06-22T06:57:21Z</time>
      </trkpt>
      <trkpt lat="48.97653" lon="7.32107">
        <ele>316</ele>
        <time>2025-06-22T06:57:22Z</time>
      </trkpt>
      <trkpt lat="48.97652" lon="7.32103">
        <ele>317</ele>
        <time>2025-06-22T06:57:23Z</time>
      </trkpt>
      <trkpt lat="48.9765" lon="7.32099">
        <ele>317</ele>
        <time>2025-06-22T06:57:24Z</time>
      </trkpt>
      <trkpt lat="48.97649" lon="7.32095">
        <ele>317</ele>
        <time>2025-06-22T06:57:25Z</time>
      </trkpt>
      <trkpt lat="48.97647" lon="7.32092">
        <ele>317</ele>
        <time>2025-06-22T06:57:26Z</time>
      </trkpt>
      <trkpt lat="48.97645" lon="7.32087">
        <ele>317</ele>
        <time>2025-06-22T06:57:27Z</time>
      </trkpt>
      <trkpt lat="48.97643" lon="7.32082">
        <ele>317</ele>
        <time>2025-06-22T06:57:28Z</time>
      </trkpt>
      <trkpt lat="48.97641" lon="7.32078">
        <ele>317</ele>
        <time>2025-06-22T06:57:29Z</time>
      </trkpt>
      <trkpt lat="48.97639" lon="7.32074">
        <ele>317</ele>
        <time>2025-06-22T06:57:30Z</time>
      </trkpt>
      <trkpt lat="48.97638" lon="7.3207">
        <ele>318</ele>
        <time>2025-06-22T06:57:31Z</time>
      </trkpt>
      <trkpt lat="48.97636" lon="7.32067">
        <ele>318</ele>
        <time>2025-06-22T06:57:32Z</time>
      </trkpt>
      <trkpt lat="48.97635" lon="7.32063">
        <ele>318</ele>
        <time>2025-06-22T06:57:33Z</time>
      </trkpt>
      <trkpt lat="48.97634" lon="7.32056">
        <ele>318</ele>
        <time>2025-06-22T06:57:34Z</time>
      </trkpt>
      <trkpt lat="48.97632" lon="7.32052">
        <ele>318</ele>
        <time>2025-06-22T06:57:36Z</time>
      </trkpt>
      <trkpt lat="48.9763" lon="7.32048">
        <ele>319</ele>
        <time>2025-06-22T06:57:37Z</time>
      </trkpt>
      <trkpt lat="48.97628" lon="7.32043">
        <ele>319</ele>
        <time>2025-06-22T06:57:38Z</time>
      </trkpt>
      <trkpt lat="48.97627" lon="7.32038">
        <ele>319</ele>
        <time>2025-06-22T06:57:39Z</time>
      </trkpt>
      <trkpt lat="48.97625" lon="7.32034">
        <ele>319</ele>
        <time>2025-06-22T06:57:40Z</time>
      </trkpt>
      <trkpt lat="48.97624" lon="7.32031">
        <ele>319</ele>
        <time>2025-06-22T06:57:41Z</time>
      </trkpt>
      <trkpt lat="48.97621" lon="7.32026">
        <ele>319</ele>
        <time>2025-06-22T06:57:42Z</time>
      </trkpt>
      <trkpt lat="48.97619" lon="7.32022">
        <ele>319</ele>
        <time>2025-06-22T06:57:43Z</time>
      </trkpt>
      <trkpt lat="48.97617" lon="7.32017">
        <ele>319</ele>
        <time>2025-06-22T06:57:44Z</time>
      </trkpt>
      <trkpt lat="48.97615" lon="7.32013">
        <ele>319</ele>
        <time>2025-06-22T06:57:45Z</time>
      </trkpt>
      <trkpt lat="48.97613" lon="7.32009">
        <ele>320</ele>
        <time>2025-06-22T06:57:46Z</time>
      </trkpt>
      <trkpt lat="48.9761" lon="7.32005">
        <ele>320</ele>
        <time>2025-06-22T06:57:47Z</time>
      </trkpt>
      <trkpt lat="48.97609" lon="7.32001">
        <ele>320</ele>
        <time>2025-06-22T06:57:48Z</time>
      </trkpt>
      <trkpt lat="48.97607" lon="7.31997">
        <ele>320</ele>
        <time>2025-06-22T06:57:49Z</time>
      </trkpt>
      <trkpt lat="48.97605" lon="7.31994">
        <ele>320</ele>
        <time>2025-06-22T06:57:50Z</time>
      </trkpt>
      <trkpt lat="48.97604" lon="7.31991">
        <ele>320</ele>
        <time>2025-06-22T06:57:51Z</time>
      </trkpt>
      <trkpt lat="48.97603" lon="7.31988">
        <ele>320</ele>
        <time>2025-06-22T06:57:52Z</time>
      </trkpt>
      <trkpt lat="48.97602" lon="7.31985">
        <ele>321</ele>
        <time>2025-06-22T06:57:53Z</time>
      </trkpt>
      <trkpt lat="48.97601" lon="7.31981">
        <ele>321</ele>
        <time>2025-06-22T06:57:54Z</time>
      </trkpt>
      <trkpt lat="48.97601" lon="7.31978">
        <ele>321</ele>
        <time>2025-06-22T06:57:55Z</time>
      </trkpt>
      <trkpt lat="48.976" lon="7.31973">
        <ele>321</ele>
        <time>2025-06-22T06:57:56Z</time>
      </trkpt>
      <trkpt lat="48.97598" lon="7.31969">
        <ele>321</ele>
        <time>2025-06-22T06:57:57Z</time>
      </trkpt>
      <trkpt lat="48.97597" lon="7.31965">
        <ele>321</ele>
        <time>2025-06-22T06:57:58Z</time>
      </trkpt>
      <trkpt lat="48.97596" lon="7.31961">
        <ele>321</ele>
        <time>2025-06-22T06:57:59Z</time>
      </trkpt>
      <trkpt lat="48.97594" lon="7.31957">
        <ele>321</ele>
        <time>2025-06-22T06:58:00Z</time>
      </trkpt>
      <trkpt lat="48.97593" lon="7.31952">
        <ele>321</ele>
        <time>2025-06-22T06:58:01Z</time>
      </trkpt>
      <trkpt lat="48.97592" lon="7.31948">
        <ele>322</ele>
        <time>2025-06-22T06:58:02Z</time>
      </trkpt>
      <trkpt lat="48.9759" lon="7.31945">
        <ele>322</ele>
        <time>2025-06-22T06:58:03Z</time>
      </trkpt>
      <trkpt lat="48.97589" lon="7.31941">
        <ele>322</ele>
        <time>2025-06-22T06:58:04Z</time>
      </trkpt>
      <trkpt lat="48.97586" lon="7.31935">
        <ele>322</ele>
        <time>2025-06-22T06:58:05Z</time>
      </trkpt>
      <trkpt lat="48.97584" lon="7.31931">
        <ele>322</ele>
        <time>2025-06-22T06:58:06Z</time>
      </trkpt>
      <trkpt lat="48.97581" lon="7.31926">
        <ele>322</ele>
        <time>2025-06-22T06:58:07Z</time>
      </trkpt>
      <trkpt lat="48.97579" lon="7.31922">
        <ele>323</ele>
        <time>2025-06-22T06:58:08Z</time>
      </trkpt>
      <trkpt lat="48.97576" lon="7.31917">
        <ele>323</ele>
        <time>2025-06-22T06:58:09Z</time>
      </trkpt>
      <trkpt lat="48.97573" lon="7.31913">
        <ele>323</ele>
        <time>2025-06-22T06:58:10Z</time>
      </trkpt>
      <trkpt lat="48.97571" lon="7.31908">
        <ele>324</ele>
        <time>2025-06-22T06:58:11Z</time>
      </trkpt>
      <trkpt lat="48.9757" lon="7.31903">
        <ele>324</ele>
        <time>2025-06-22T06:58:12Z</time>
      </trkpt>
      <trkpt lat="48.97564" lon="7.31893">
        <ele>324</ele>
        <time>2025-06-22T06:58:13Z</time>
      </trkpt>
      <trkpt lat="48.97561" lon="7.31888">
        <ele>324</ele>
        <time>2025-06-22T06:58:15Z</time>
      </trkpt>
      <trkpt lat="48.97558" lon="7.31884">
        <ele>324</ele>
        <time>2025-06-22T06:58:16Z</time>
      </trkpt>
      <trkpt lat="48.97556" lon="7.31879">
        <ele>324</ele>
        <time>2025-06-22T06:58:17Z</time>
      </trkpt>
      <trkpt lat="48.97554" lon="7.31875">
        <ele>324</ele>
        <time>2025-06-22T06:58:18Z</time>
      </trkpt>
      <trkpt lat="48.97553" lon="7.31871">
        <ele>324</ele>
        <time>2025-06-22T06:58:19Z</time>
      </trkpt>
      <trkpt lat="48.97549" lon="7.31856">
        <ele>325</ele>
        <time>2025-06-22T06:58:23Z</time>
      </trkpt>
      <trkpt lat="48.97542" lon="7.31841">
        <ele>325</ele>
        <time>2025-06-22T06:58:27Z</time>
      </trkpt>
      <trkpt lat="48.97536" lon="7.31827">
        <ele>327</ele>
        <time>2025-06-22T06:58:30Z</time>
      </trkpt>
      <trkpt lat="48.97528" lon="7.31815">
        <ele>327</ele>
        <time>2025-06-22T06:58:33Z</time>
      </trkpt>
      <trkpt lat="48.97524" lon="7.31799">
        <ele>327</ele>
        <time>2025-06-22T06:58:37Z</time>
      </trkpt>
      <trkpt lat="48.97522" lon="7.31783">
        <ele>327</ele>
        <time>2025-06-22T06:58:41Z</time>
      </trkpt>
      <trkpt lat="48.97524" lon="7.31766">
        <ele>328</ele>
        <time>2025-06-22T06:58:45Z</time>
      </trkpt>
      <trkpt lat="48.97525" lon="7.31751">
        <ele>330</ele>
        <time>2025-06-22T06:58:50Z</time>
      </trkpt>
      <trkpt lat="48.97526" lon="7.31737">
        <ele>331</ele>
        <time>2025-06-22T06:58:55Z</time>
      </trkpt>
      <trkpt lat="48.97535" lon="7.31728">
        <ele>331</ele>
        <time>2025-06-22T06:59:00Z</time>
      </trkpt>
      <trkpt lat="48.97542" lon="7.31716">
        <ele>331</ele>
        <time>2025-06-22T06:59:04Z</time>
      </trkpt>
      <trkpt lat="48.97549" lon="7.31704">
        <ele>332</ele>
        <time>2025-06-22T06:59:09Z</time>
      </trkpt>
      <trkpt lat="48.97558" lon="7.31692">
        <ele>333</ele>
        <time>2025-06-22T06:59:13Z</time>
      </trkpt>
      <trkpt lat="48.97567" lon="7.31683">
        <ele>333</ele>
        <time>2025-06-22T06:59:16Z</time>
      </trkpt>
      <trkpt lat="48.97577" lon="7.31678">
        <ele>333</ele>
        <time>2025-06-22T06:59:19Z</time>
      </trkpt>
      <trkpt lat="48.97587" lon="7.3167">
        <ele>333</ele>
        <time>2025-06-22T06:59:21Z</time>
      </trkpt>
      <trkpt lat="48.97598" lon="7.31666">
        <ele>334</ele>
        <time>2025-06-22T06:59:25Z</time>
      </trkpt>
      <trkpt lat="48.97607" lon="7.31664">
        <ele>334</ele>
        <time>2025-06-22T06:59:28Z</time>
      </trkpt>
      <trkpt lat="48.97615" lon="7.31656">
        <ele>335</ele>
        <time>2025-06-22T06:59:31Z</time>
      </trkpt>
      <trkpt lat="48.97624" lon="7.31649">
        <ele>335</ele>
        <time>2025-06-22T06:59:35Z</time>
      </trkpt>
      <trkpt lat="48.97626" lon="7.31641">
        <ele>336</ele>
        <time>2025-06-22T06:59:37Z</time>
      </trkpt>
      <trkpt lat="48.97627" lon="7.31637">
        <ele>336</ele>
        <time>2025-06-22T06:59:38Z</time>
      </trkpt>
      <trkpt lat="48.9763" lon="7.31632">
        <ele>336</ele>
        <time>2025-06-22T06:59:39Z</time>
      </trkpt>
      <trkpt lat="48.97631" lon="7.31629">
        <ele>336</ele>
        <time>2025-06-22T06:59:40Z</time>
      </trkpt>
      <trkpt lat="48.97632" lon="7.31626">
        <ele>336</ele>
        <time>2025-06-22T06:59:41Z</time>
      </trkpt>
      <trkpt lat="48.97632" lon="7.31622">
        <ele>337</ele>
        <time>2025-06-22T06:59:42Z</time>
      </trkpt>
      <trkpt lat="48.97632" lon="7.31619">
        <ele>337</ele>
        <time>2025-06-22T06:59:43Z</time>
      </trkpt>
      <trkpt lat="48.97632" lon="7.31615">
        <ele>338</ele>
        <time>2025-06-22T06:59:45Z</time>
      </trkpt>
      <trkpt lat="48.97632" lon="7.3161">
        <ele>339</ele>
        <time>2025-06-22T06:59:47Z</time>
      </trkpt>
      <trkpt lat="48.97634" lon="7.31604">
        <ele>340</ele>
        <time>2025-06-22T06:59:49Z</time>
      </trkpt>
      <trkpt lat="48.97633" lon="7.316">
        <ele>340</ele>
        <time>2025-06-22T06:59:51Z</time>
      </trkpt>
      <trkpt lat="48.97633" lon="7.31588">
        <ele>340</ele>
        <time>2025-06-22T06:59:54Z</time>
      </trkpt>
      <trkpt lat="48.97634" lon="7.31583">
        <ele>340</ele>
        <time>2025-06-22T06:59:55Z</time>
      </trkpt>
      <trkpt lat="48.97634" lon="7.31579">
        <ele>340</ele>
        <time>2025-06-22T06:59:56Z</time>
      </trkpt>
      <trkpt lat="48.97634" lon="7.31574">
        <ele>341</ele>
        <time>2025-06-22T06:59:57Z</time>
      </trkpt>
      <trkpt lat="48.97633" lon="7.3157">
        <ele>341</ele>
        <time>2025-06-22T06:59:58Z</time>
      </trkpt>
      <trkpt lat="48.97633" lon="7.31563">
        <ele>341</ele>
        <time>2025-06-22T06:59:59Z</time>
      </trkpt>
      <trkpt lat="48.97632" lon="7.31553">
        <ele>343</ele>
        <time>2025-06-22T07:00:05Z</time>
      </trkpt>
      <trkpt lat="48.9763" lon="7.3155">
        <ele>343</ele>
        <time>2025-06-22T07:00:07Z</time>
      </trkpt>
      <trkpt lat="48.97628" lon="7.31548">
        <ele>344</ele>
        <time>2025-06-22T07:00:09Z</time>
      </trkpt>
      <trkpt lat="48.97626" lon="7.31546">
        <ele>344</ele>
        <time>2025-06-22T07:00:11Z</time>
      </trkpt>
      <trkpt lat="48.97623" lon="7.31544">
        <ele>344</ele>
        <time>2025-06-22T07:00:13Z</time>
      </trkpt>
      <trkpt lat="48.97621" lon="7.31543">
        <ele>345</ele>
        <time>2025-06-22T07:00:15Z</time>
      </trkpt>
      <trkpt lat="48.97619" lon="7.31541">
        <ele>346</ele>
        <time>2025-06-22T07:00:16Z</time>
      </trkpt>
      <trkpt lat="48.97617" lon="7.31541">
        <ele>346</ele>
        <time>2025-06-22T07:00:17Z</time>
      </trkpt>
      <trkpt lat="48.97614" lon="7.3154">
        <ele>346</ele>
        <time>2025-06-22T07:00:18Z</time>
      </trkpt>
      <trkpt lat="48.97612" lon="7.31541">
        <ele>346</ele>
        <time>2025-06-22T07:00:19Z</time>
      </trkpt>
      <trkpt lat="48.97609" lon="7.3154">
        <ele>346</ele>
        <time>2025-06-22T07:00:21Z</time>
      </trkpt>
      <trkpt lat="48.97607" lon="7.3154">
        <ele>347</ele>
        <time>2025-06-22T07:00:23Z</time>
      </trkpt>
      <trkpt lat="48.97605" lon="7.31541">
        <ele>348</ele>
        <time>2025-06-22T07:00:25Z</time>
      </trkpt>
      <trkpt lat="48.97594" lon="7.31546">
        <ele>348</ele>
        <time>2025-06-22T07:00:31Z</time>
      </trkpt>
      <trkpt lat="48.97584" lon="7.31549">
        <ele>350</ele>
        <time>2025-06-22T07:00:35Z</time>
      </trkpt>
      <trkpt lat="48.97577" lon="7.31555">
        <ele>352</ele>
        <time>2025-06-22T07:00:38Z</time>
      </trkpt>
      <trkpt lat="48.9757" lon="7.31566">
        <ele>352</ele>
        <time>2025-06-22T07:00:45Z</time>
      </trkpt>
      <trkpt lat="48.97564" lon="7.31576">
        <ele>353</ele>
        <time>2025-06-22T07:00:49Z</time>
      </trkpt>
      <trkpt lat="48.97555" lon="7.31583">
        <ele>353</ele>
        <time>2025-06-22T07:00:54Z</time>
      </trkpt>
      <trkpt lat="48.97547" lon="7.31594">
        <ele>356</ele>
        <time>2025-06-22T07:01:00Z</time>
      </trkpt>
      <trkpt lat="48.97539" lon="7.31601">
        <ele>357</ele>
        <time>2025-06-22T07:01:04Z</time>
      </trkpt>
      <trkpt lat="48.97531" lon="7.31609">
        <ele>358</ele>
        <time>2025-06-22T07:01:08Z</time>
      </trkpt>
      <trkpt lat="48.97522" lon="7.31614">
        <ele>358</ele>
        <time>2025-06-22T07:01:11Z</time>
      </trkpt>
      <trkpt lat="48.97513" lon="7.31618">
        <ele>358</ele>
        <time>2025-06-22T07:01:14Z</time>
      </trkpt>
      <trkpt lat="48.97504" lon="7.31626">
        <ele>361</ele>
        <time>2025-06-22T07:01:20Z</time>
      </trkpt>
      <trkpt lat="48.97498" lon="7.31632">
        <ele>361</ele>
        <time>2025-06-22T07:01:22Z</time>
      </trkpt>
      <trkpt lat="48.97493" lon="7.31638">
        <ele>361</ele>
        <time>2025-06-22T07:01:24Z</time>
      </trkpt>
      <trkpt lat="48.97491" lon="7.3164">
        <ele>362</ele>
        <time>2025-06-22T07:01:25Z</time>
      </trkpt>
      <trkpt lat="48.97489" lon="7.31642">
        <ele>362</ele>
        <time>2025-06-22T07:01:26Z</time>
      </trkpt>
      <trkpt lat="48.97485" lon="7.31647">
        <ele>362</ele>
        <time>2025-06-22T07:01:29Z</time>
      </trkpt>
      <trkpt lat="48.97482" lon="7.31651">
        <ele>363</ele>
        <time>2025-06-22T07:01:30Z</time>
      </trkpt>
      <trkpt lat="48.9748" lon="7.31656">
        <ele>364</ele>
        <time>2025-06-22T07:01:31Z</time>
      </trkpt>
      <trkpt lat="48.97478" lon="7.3166">
        <ele>364</ele>
        <time>2025-06-22T07:01:32Z</time>
      </trkpt>
      <trkpt lat="48.97476" lon="7.31663">
        <ele>364</ele>
        <time>2025-06-22T07:01:33Z</time>
      </trkpt>
      <trkpt lat="48.97473" lon="7.31668">
        <ele>364</ele>
        <time>2025-06-22T07:01:34Z</time>
      </trkpt>
      <trkpt lat="48.97471" lon="7.31672">
        <ele>364</ele>
        <time>2025-06-22T07:01:35Z</time>
      </trkpt>
      <trkpt lat="48.97468" lon="7.31676">
        <ele>364</ele>
        <time>2025-06-22T07:01:36Z</time>
      </trkpt>
      <trkpt lat="48.97466" lon="7.3168">
        <ele>363</ele>
        <time>2025-06-22T07:01:37Z</time>
      </trkpt>
      <trkpt lat="48.97464" lon="7.31683">
        <ele>363</ele>
        <time>2025-06-22T07:01:38Z</time>
      </trkpt>
      <trkpt lat="48.97462" lon="7.31687">
        <ele>363</ele>
        <time>2025-06-22T07:01:39Z</time>
      </trkpt>
      <trkpt lat="48.9746" lon="7.31691">
        <ele>363</ele>
        <time>2025-06-22T07:01:40Z</time>
      </trkpt>
      <trkpt lat="48.97458" lon="7.31695">
        <ele>363</ele>
        <time>2025-06-22T07:01:41Z</time>
      </trkpt>
      <trkpt lat="48.97455" lon="7.31699">
        <ele>363</ele>
        <time>2025-06-22T07:01:42Z</time>
      </trkpt>
      <trkpt lat="48.97452" lon="7.31702">
        <ele>364</ele>
        <time>2025-06-22T07:01:43Z</time>
      </trkpt>
      <trkpt lat="48.97449" lon="7.31706">
        <ele>364</ele>
        <time>2025-06-22T07:01:44Z</time>
      </trkpt>
      <trkpt lat="48.97444" lon="7.31709">
        <ele>364</ele>
        <time>2025-06-22T07:01:45Z</time>
      </trkpt>
      <trkpt lat="48.97441" lon="7.31712">
        <ele>364</ele>
        <time>2025-06-22T07:01:46Z</time>
      </trkpt>
      <trkpt lat="48.97437" lon="7.31714">
        <ele>364</ele>
        <time>2025-06-22T07:01:47Z</time>
      </trkpt>
      <trkpt lat="48.97434" lon="7.31718">
        <ele>364</ele>
        <time>2025-06-22T07:01:48Z</time>
      </trkpt>
      <trkpt lat="48.97431" lon="7.31721">
        <ele>364</ele>
        <time>2025-06-22T07:01:49Z</time>
      </trkpt>
      <trkpt lat="48.97428" lon="7.31724">
        <ele>364</ele>
        <time>2025-06-22T07:01:50Z</time>
      </trkpt>
      <trkpt lat="48.97425" lon="7.31726">
        <ele>364</ele>
        <time>2025-06-22T07:01:51Z</time>
      </trkpt>
      <trkpt lat="48.97423" lon="7.31729">
        <ele>364</ele>
        <time>2025-06-22T07:01:52Z</time>
      </trkpt>
      <trkpt lat="48.97419" lon="7.31732">
        <ele>364</ele>
        <time>2025-06-22T07:01:53Z</time>
      </trkpt>
      <trkpt lat="48.97416" lon="7.31735">
        <ele>364</ele>
        <time>2025-06-22T07:01:54Z</time>
      </trkpt>
      <trkpt lat="48.97412" lon="7.31737">
        <ele>364</ele>
        <time>2025-06-22T07:01:55Z</time>
      </trkpt>
      <trkpt lat="48.97407" lon="7.3174">
        <ele>364</ele>
        <time>2025-06-22T07:01:56Z</time>
      </trkpt>
      <trkpt lat="48.97401" lon="7.31744">
        <ele>363</ele>
        <time>2025-06-22T07:01:57Z</time>
      </trkpt>
      <trkpt lat="48.97394" lon="7.31748">
        <ele>363</ele>
        <time>2025-06-22T07:01:58Z</time>
      </trkpt>
      <trkpt lat="48.97387" lon="7.31753">
        <ele>359</ele>
        <time>2025-06-22T07:01:59Z</time>
      </trkpt>
      <trkpt lat="48.97372" lon="7.31763">
        <ele>357</ele>
        <time>2025-06-22T07:02:01Z</time>
      </trkpt>
      <trkpt lat="48.97357" lon="7.31771">
        <ele>352</ele>
        <time>2025-06-22T07:02:03Z</time>
      </trkpt>
      <trkpt lat="48.97348" lon="7.31777">
        <ele>352</ele>
        <time>2025-06-22T07:02:04Z</time>
      </trkpt>
      <trkpt lat="48.97339" lon="7.31784">
        <ele>350</ele>
        <time>2025-06-22T07:02:05Z</time>
      </trkpt>
      <trkpt lat="48.97331" lon="7.3179">
        <ele>349</ele>
        <time>2025-06-22T07:02:06Z</time>
      </trkpt>
      <trkpt lat="48.97316" lon="7.318">
        <ele>347</ele>
        <time>2025-06-22T07:02:08Z</time>
      </trkpt>
      <trkpt lat="48.97303" lon="7.31809">
        <ele>347</ele>
        <time>2025-06-22T07:02:10Z</time>
      </trkpt>
      <trkpt lat="48.97288" lon="7.31819">
        <ele>345</ele>
        <time>2025-06-22T07:02:12Z</time>
      </trkpt>
      <trkpt lat="48.97271" lon="7.31825">
        <ele>345</ele>
        <time>2025-06-22T07:02:14Z</time>
      </trkpt>
      <trkpt lat="48.97259" lon="7.31829">
        <ele>344</ele>
        <time>2025-06-22T07:02:16Z</time>
      </trkpt>
      <trkpt lat="48.97248" lon="7.31832">
        <ele>344</ele>
        <time>2025-06-22T07:02:18Z</time>
      </trkpt>
      <trkpt lat="48.97241" lon="7.31841">
        <ele>346</ele>
        <time>2025-06-22T07:02:20Z</time>
      </trkpt>
      <trkpt lat="48.97234" lon="7.31851">
        <ele>346</ele>
        <time>2025-06-22T07:02:22Z</time>
      </trkpt>
      <trkpt lat="48.97231" lon="7.31855">
        <ele>346</ele>
        <time>2025-06-22T07:02:23Z</time>
      </trkpt>
      <trkpt lat="48.97228" lon="7.31859">
        <ele>346</ele>
        <time>2025-06-22T07:02:24Z</time>
      </trkpt>
      <trkpt lat="48.97225" lon="7.31862">
        <ele>347</ele>
        <time>2025-06-22T07:02:25Z</time>
      </trkpt>
      <trkpt lat="48.97223" lon="7.31865">
        <ele>347</ele>
        <time>2025-06-22T07:02:26Z</time>
      </trkpt>
      <trkpt lat="48.9722" lon="7.31867">
        <ele>348</ele>
        <time>2025-06-22T07:02:27Z</time>
      </trkpt>
      <trkpt lat="48.97218" lon="7.31869">
        <ele>348</ele>
        <time>2025-06-22T07:02:28Z</time>
      </trkpt>
      <trkpt lat="48.97216" lon="7.31871">
        <ele>348</ele>
        <time>2025-06-22T07:02:29Z</time>
      </trkpt>
      <trkpt lat="48.97212" lon="7.31876">
        <ele>349</ele>
        <time>2025-06-22T07:02:31Z</time>
      </trkpt>
      <trkpt lat="48.9721" lon="7.3188">
        <ele>349</ele>
        <time>2025-06-22T07:02:32Z</time>
      </trkpt>
      <trkpt lat="48.97207" lon="7.31883">
        <ele>349</ele>
        <time>2025-06-22T07:02:33Z</time>
      </trkpt>
      <trkpt lat="48.97205" lon="7.31887">
        <ele>349</ele>
        <time>2025-06-22T07:02:34Z</time>
      </trkpt>
      <trkpt lat="48.97203" lon="7.31889">
        <ele>350</ele>
        <time>2025-06-22T07:02:35Z</time>
      </trkpt>
      <trkpt lat="48.97201" lon="7.31892">
        <ele>350</ele>
        <time>2025-06-22T07:02:36Z</time>
      </trkpt>
      <trkpt lat="48.97199" lon="7.31894">
        <ele>351</ele>
        <time>2025-06-22T07:02:37Z</time>
      </trkpt>
      <trkpt lat="48.97197" lon="7.31896">
        <ele>351</ele>
        <time>2025-06-22T07:02:38Z</time>
      </trkpt>
      <trkpt lat="48.97195" lon="7.31898">
        <ele>352</ele>
        <time>2025-06-22T07:02:39Z</time>
      </trkpt>
      <trkpt lat="48.97193" lon="7.31899">
        <ele>352</ele>
        <time>2025-06-22T07:02:40Z</time>
      </trkpt>
      <trkpt lat="48.97191" lon="7.319">
        <ele>352</ele>
        <time>2025-06-22T07:02:41Z</time>
      </trkpt>
      <trkpt lat="48.97189" lon="7.31903">
        <ele>352</ele>
        <time>2025-06-22T07:02:42Z</time>
      </trkpt>
      <trkpt lat="48.97186" lon="7.31906">
        <ele>353</ele>
        <time>2025-06-22T07:02:43Z</time>
      </trkpt>
      <trkpt lat="48.97184" lon="7.31907">
        <ele>353</ele>
        <time>2025-06-22T07:02:44Z</time>
      </trkpt>
      <trkpt lat="48.97181" lon="7.31908">
        <ele>353</ele>
        <time>2025-06-22T07:02:45Z</time>
      </trkpt>
      <trkpt lat="48.97179" lon="7.31908">
        <ele>353</ele>
        <time>2025-06-22T07:02:46Z</time>
      </trkpt>
      <trkpt lat="48.97176" lon="7.31909">
        <ele>354</ele>
        <time>2025-06-22T07:02:47Z</time>
      </trkpt>
      <trkpt lat="48.97173" lon="7.3191">
        <ele>354</ele>
        <time>2025-06-22T07:02:48Z</time>
      </trkpt>
      <trkpt lat="48.97171" lon="7.31911">
        <ele>355</ele>
        <time>2025-06-22T07:02:49Z</time>
      </trkpt>
      <trkpt lat="48.97169" lon="7.31913">
        <ele>355</ele>
        <time>2025-06-22T07:02:50Z</time>
      </trkpt>
      <trkpt lat="48.97168" lon="7.31914">
        <ele>355</ele>
        <time>2025-06-22T07:02:51Z</time>
      </trkpt>
      <trkpt lat="48.97166" lon="7.31916">
        <ele>355</ele>
        <time>2025-06-22T07:02:52Z</time>
      </trkpt>
      <trkpt lat="48.97165" lon="7.31919">
        <ele>355</ele>
        <time>2025-06-22T07:02:53Z</time>
      </trkpt>
      <trkpt lat="48.97163" lon="7.3192">
        <ele>356</ele>
        <time>2025-06-22T07:02:54Z</time>
      </trkpt>
      <trkpt lat="48.97161" lon="7.31922">
        <ele>356</ele>
        <time>2025-06-22T07:02:55Z</time>
      </trkpt>
      <trkpt lat="48.9716" lon="7.31924">
        <ele>356</ele>
        <time>2025-06-22T07:02:56Z</time>
      </trkpt>
      <trkpt lat="48.97158" lon="7.31927">
        <ele>356</ele>
        <time>2025-06-22T07:02:57Z</time>
      </trkpt>
      <trkpt lat="48.97156" lon="7.3193">
        <ele>357</ele>
        <time>2025-06-22T07:02:58Z</time>
      </trkpt>
      <trkpt lat="48.97153" lon="7.31932">
        <ele>358</ele>
        <time>2025-06-22T07:02:59Z</time>
      </trkpt>
      <trkpt lat="48.97151" lon="7.31934">
        <ele>358</ele>
        <time>2025-06-22T07:03:00Z</time>
      </trkpt>
      <trkpt lat="48.97148" lon="7.31935">
        <ele>358</ele>
        <time>2025-06-22T07:03:01Z</time>
      </trkpt>
      <trkpt lat="48.97146" lon="7.31938">
        <ele>358</ele>
        <time>2025-06-22T07:03:02Z</time>
      </trkpt>
      <trkpt lat="48.97144" lon="7.3194">
        <ele>358</ele>
        <time>2025-06-22T07:03:03Z</time>
      </trkpt>
      <trkpt lat="48.97142" lon="7.31944">
        <ele>358</ele>
        <time>2025-06-22T07:03:04Z</time>
      </trkpt>
      <trkpt lat="48.9714" lon="7.31947">
        <ele>359</ele>
        <time>2025-06-22T07:03:05Z</time>
      </trkpt>
      <trkpt lat="48.97139" lon="7.3195">
        <ele>359</ele>
        <time>2025-06-22T07:03:06Z</time>
      </trkpt>
      <trkpt lat="48.97137" lon="7.31951">
        <ele>359</ele>
        <time>2025-06-22T07:03:07Z</time>
      </trkpt>
      <trkpt lat="48.97135" lon="7.31953">
        <ele>359</ele>
        <time>2025-06-22T07:03:08Z</time>
      </trkpt>
      <trkpt lat="48.97133" lon="7.31955">
        <ele>359</ele>
        <time>2025-06-22T07:03:09Z</time>
      </trkpt>
      <trkpt lat="48.97132" lon="7.31958">
        <ele>360</ele>
        <time>2025-06-22T07:03:10Z</time>
      </trkpt>
      <trkpt lat="48.9713" lon="7.31961">
        <ele>360</ele>
        <time>2025-06-22T07:03:11Z</time>
      </trkpt>
      <trkpt lat="48.97128" lon="7.31963">
        <ele>360</ele>
        <time>2025-06-22T07:03:12Z</time>
      </trkpt>
      <trkpt lat="48.97126" lon="7.31964">
        <ele>360</ele>
        <time>2025-06-22T07:03:13Z</time>
      </trkpt>
      <trkpt lat="48.97124" lon="7.31966">
        <ele>360</ele>
        <time>2025-06-22T07:03:14Z</time>
      </trkpt>
      <trkpt lat="48.97121" lon="7.31969">
        <ele>360</ele>
        <time>2025-06-22T07:03:16Z</time>
      </trkpt>
      <trkpt lat="48.9712" lon="7.31973">
        <ele>360</ele>
        <time>2025-06-22T07:03:17Z</time>
      </trkpt>
      <trkpt lat="48.97117" lon="7.31981">
        <ele>360</ele>
        <time>2025-06-22T07:03:18Z</time>
      </trkpt>
      <trkpt lat="48.97115" lon="7.31986">
        <ele>360</ele>
        <time>2025-06-22T07:03:19Z</time>
      </trkpt>
      <trkpt lat="48.97112" lon="7.31991">
        <ele>361</ele>
        <time>2025-06-22T07:03:21Z</time>
      </trkpt>
      <trkpt lat="48.97109" lon="7.31997">
        <ele>361</ele>
        <time>2025-06-22T07:03:22Z</time>
      </trkpt>
      <trkpt lat="48.97107" lon="7.32001">
        <ele>361</ele>
        <time>2025-06-22T07:03:23Z</time>
      </trkpt>
      <trkpt lat="48.97105" lon="7.32007">
        <ele>361</ele>
        <time>2025-06-22T07:03:24Z</time>
      </trkpt>
      <trkpt lat="48.97102" lon="7.32012">
        <ele>361</ele>
        <time>2025-06-22T07:03:25Z</time>
      </trkpt>
      <trkpt lat="48.97101" lon="7.32018">
        <ele>361</ele>
        <time>2025-06-22T07:03:26Z</time>
      </trkpt>
      <trkpt lat="48.97099" lon="7.32022">
        <ele>361</ele>
        <time>2025-06-22T07:03:27Z</time>
      </trkpt>
      <trkpt lat="48.97098" lon="7.32027">
        <ele>362</ele>
        <time>2025-06-22T07:03:28Z</time>
      </trkpt>
      <trkpt lat="48.97096" lon="7.32032">
        <ele>362</ele>
        <time>2025-06-22T07:03:29Z</time>
      </trkpt>
      <trkpt lat="48.97094" lon="7.32035">
        <ele>362</ele>
        <time>2025-06-22T07:03:30Z</time>
      </trkpt>
      <trkpt lat="48.97091" lon="7.32039">
        <ele>362</ele>
        <time>2025-06-22T07:03:31Z</time>
      </trkpt>
      <trkpt lat="48.97089" lon="7.32044">
        <ele>362</ele>
        <time>2025-06-22T07:03:32Z</time>
      </trkpt>
      <trkpt lat="48.97086" lon="7.32048">
        <ele>363</ele>
        <time>2025-06-22T07:03:33Z</time>
      </trkpt>
      <trkpt lat="48.97085" lon="7.32052">
        <ele>363</ele>
        <time>2025-06-22T07:03:34Z</time>
      </trkpt>
      <trkpt lat="48.97083" lon="7.32056">
        <ele>363</ele>
        <time>2025-06-22T07:03:35Z</time>
      </trkpt>
      <trkpt lat="48.97082" lon="7.3206">
        <ele>363</ele>
        <time>2025-06-22T07:03:36Z</time>
      </trkpt>
      <trkpt lat="48.97082" lon="7.32065">
        <ele>363</ele>
        <time>2025-06-22T07:03:37Z</time>
      </trkpt>
      <trkpt lat="48.97081" lon="7.32069">
        <ele>363</ele>
        <time>2025-06-22T07:03:38Z</time>
      </trkpt>
      <trkpt lat="48.97079" lon="7.32074">
        <ele>363</ele>
        <time>2025-06-22T07:03:39Z</time>
      </trkpt>
      <trkpt lat="48.97078" lon="7.32078">
        <ele>363</ele>
        <time>2025-06-22T07:03:40Z</time>
      </trkpt>
      <trkpt lat="48.97076" lon="7.32082">
        <ele>363</ele>
        <time>2025-06-22T07:03:41Z</time>
      </trkpt>
      <trkpt lat="48.97074" lon="7.32086">
        <ele>363</ele>
        <time>2025-06-22T07:03:42Z</time>
      </trkpt>
      <trkpt lat="48.97072" lon="7.3209">
        <ele>363</ele>
        <time>2025-06-22T07:03:43Z</time>
      </trkpt>
      <trkpt lat="48.9707" lon="7.32094">
        <ele>363</ele>
        <time>2025-06-22T07:03:44Z</time>
      </trkpt>
      <trkpt lat="48.97067" lon="7.32098">
        <ele>363</ele>
        <time>2025-06-22T07:03:45Z</time>
      </trkpt>
      <trkpt lat="48.97065" lon="7.32103">
        <ele>363</ele>
        <time>2025-06-22T07:03:46Z</time>
      </trkpt>
      <trkpt lat="48.97063" lon="7.32108">
        <ele>363</ele>
        <time>2025-06-22T07:03:47Z</time>
      </trkpt>
      <trkpt lat="48.97061" lon="7.32113">
        <ele>363</ele>
        <time>2025-06-22T07:03:48Z</time>
      </trkpt>
      <trkpt lat="48.97059" lon="7.32118">
        <ele>363</ele>
        <time>2025-06-22T07:03:49Z</time>
      </trkpt>
      <trkpt lat="48.97057" lon="7.32123">
        <ele>363</ele>
        <time>2025-06-22T07:03:50Z</time>
      </trkpt>
      <trkpt lat="48.97055" lon="7.32128">
        <ele>363</ele>
        <time>2025-06-22T07:03:51Z</time>
      </trkpt>
      <trkpt lat="48.97054" lon="7.32132">
        <ele>363</ele>
        <time>2025-06-22T07:03:52Z</time>
      </trkpt>
      <trkpt lat="48.97052" lon="7.32138">
        <ele>363</ele>
        <time>2025-06-22T07:03:53Z</time>
      </trkpt>
      <trkpt lat="48.97051" lon="7.32143">
        <ele>364</ele>
        <time>2025-06-22T07:03:54Z</time>
      </trkpt>
      <trkpt lat="48.9705" lon="7.32147">
        <ele>364</ele>
        <time>2025-06-22T07:03:55Z</time>
      </trkpt>
      <trkpt lat="48.97049" lon="7.32153">
        <ele>363</ele>
        <time>2025-06-22T07:03:56Z</time>
      </trkpt>
      <trkpt lat="48.97047" lon="7.32162">
        <ele>363</ele>
        <time>2025-06-22T07:03:57Z</time>
      </trkpt>
      <trkpt lat="48.97046" lon="7.32165">
        <ele>362</ele>
        <time>2025-06-22T07:03:59Z</time>
      </trkpt>
      <trkpt lat="48.97046" lon="7.32168">
        <ele>362</ele>
        <time>2025-06-22T07:04:00Z</time>
      </trkpt>
      <trkpt lat="48.97046" lon="7.32173">
        <ele>362</ele>
        <time>2025-06-22T07:04:02Z</time>
      </trkpt>
      <trkpt lat="48.97044" lon="7.32176">
        <ele>362</ele>
        <time>2025-06-22T07:04:04Z</time>
      </trkpt>
      <trkpt lat="48.97041" lon="7.32178">
        <ele>362</ele>
        <time>2025-06-22T07:04:06Z</time>
      </trkpt>
      <trkpt lat="48.97039" lon="7.3218">
        <ele>362</ele>
        <time>2025-06-22T07:04:07Z</time>
      </trkpt>
      <trkpt lat="48.97037" lon="7.32181">
        <ele>362</ele>
        <time>2025-06-22T07:04:08Z</time>
      </trkpt>
      <trkpt lat="48.97034" lon="7.32183">
        <ele>362</ele>
        <time>2025-06-22T07:04:09Z</time>
      </trkpt>
      <trkpt lat="48.97031" lon="7.32186">
        <ele>362</ele>
        <time>2025-06-22T07:04:10Z</time>
      </trkpt>
      <trkpt lat="48.97028" lon="7.3219">
        <ele>362</ele>
        <time>2025-06-22T07:04:11Z</time>
      </trkpt>
      <trkpt lat="48.97024" lon="7.32194">
        <ele>362</ele>
        <time>2025-06-22T07:04:12Z</time>
      </trkpt>
      <trkpt lat="48.97021" lon="7.32197">
        <ele>361</ele>
        <time>2025-06-22T07:04:13Z</time>
      </trkpt>
      <trkpt lat="48.97017" lon="7.32202">
        <ele>360</ele>
        <time>2025-06-22T07:04:14Z</time>
      </trkpt>
      <trkpt lat="48.97013" lon="7.32208">
        <ele>359</ele>
        <time>2025-06-22T07:04:15Z</time>
      </trkpt>
      <trkpt lat="48.97009" lon="7.32215">
        <ele>358</ele>
        <time>2025-06-22T07:04:16Z</time>
      </trkpt>
      <trkpt lat="48.97003" lon="7.32222">
        <ele>357</ele>
        <time>2025-06-22T07:04:17Z</time>
      </trkpt>
      <trkpt lat="48.96992" lon="7.32237">
        <ele>356</ele>
        <time>2025-06-22T07:04:19Z</time>
      </trkpt>
      <trkpt lat="48.96979" lon="7.32256">
        <ele>355</ele>
        <time>2025-06-22T07:04:21Z</time>
      </trkpt>
      <trkpt lat="48.96973" lon="7.32268">
        <ele>351</ele>
        <time>2025-06-22T07:04:22Z</time>
      </trkpt>
      <trkpt lat="48.96966" lon="7.32281">
        <ele>350</ele>
        <time>2025-06-22T07:04:23Z</time>
      </trkpt>
      <trkpt lat="48.9696" lon="7.32297">
        <ele>349</ele>
        <time>2025-06-22T07:04:24Z</time>
      </trkpt>
      <trkpt lat="48.96947" lon="7.32315">
        <ele>349</ele>
        <time>2025-06-22T07:04:26Z</time>
      </trkpt>
      <trkpt lat="48.96938" lon="7.32322">
        <ele>344</ele>
        <time>2025-06-22T07:04:27Z</time>
      </trkpt>
      <trkpt lat="48.96929" lon="7.32335">
        <ele>344</ele>
        <time>2025-06-22T07:04:28Z</time>
      </trkpt>
      <trkpt lat="48.96919" lon="7.32347">
        <ele>343</ele>
        <time>2025-06-22T07:04:29Z</time>
      </trkpt>
      <trkpt lat="48.96909" lon="7.3236">
        <ele>343</ele>
        <time>2025-06-22T07:04:30Z</time>
      </trkpt>
      <trkpt lat="48.969" lon="7.32373">
        <ele>342</ele>
        <time>2025-06-22T07:04:31Z</time>
      </trkpt>
      <trkpt lat="48.96891" lon="7.32386">
        <ele>341</ele>
        <time>2025-06-22T07:04:32Z</time>
      </trkpt>
      <trkpt lat="48.96882" lon="7.32398">
        <ele>340</ele>
        <time>2025-06-22T07:04:33Z</time>
      </trkpt>
      <trkpt lat="48.96874" lon="7.3241">
        <ele>340</ele>
        <time>2025-06-22T07:04:34Z</time>
      </trkpt>
      <trkpt lat="48.96865" lon="7.32424">
        <ele>338</ele>
        <time>2025-06-22T07:04:35Z</time>
      </trkpt>
      <trkpt lat="48.96859" lon="7.32438">
        <ele>337</ele>
        <time>2025-06-22T07:04:36Z</time>
      </trkpt>
      <trkpt lat="48.96853" lon="7.32456">
        <ele>335</ele>
        <time>2025-06-22T07:04:38Z</time>
      </trkpt>
      <trkpt lat="48.96862" lon="7.3246">
        <ele>335</ele>
        <time>2025-06-22T07:04:54Z</time>
      </trkpt>
      <trkpt lat="48.96861" lon="7.32465">
        <ele>335</ele>
        <time>2025-06-22T07:05:05Z</time>
      </trkpt>
      <trkpt lat="48.96861" lon="7.32468">
        <ele>335</ele>
        <time>2025-06-22T07:05:06Z</time>
      </trkpt>
      <trkpt lat="48.96859" lon="7.32473">
        <ele>335</ele>
        <time>2025-06-22T07:05:08Z</time>
      </trkpt>
      <trkpt lat="48.96858" lon="7.32477">
        <ele>335</ele>
        <time>2025-06-22T07:05:09Z</time>
      </trkpt>
      <trkpt lat="48.96856" lon="7.32482">
        <ele>335</ele>
        <time>2025-06-22T07:05:10Z</time>
      </trkpt>
      <trkpt lat="48.96855" lon="7.32488">
        <ele>334</ele>
        <time>2025-06-22T07:05:11Z</time>
      </trkpt>
      <trkpt lat="48.96851" lon="7.325">
        <ele>334</ele>
        <time>2025-06-22T07:05:12Z</time>
      </trkpt>
      <trkpt lat="48.96847" lon="7.32514">
        <ele>334</ele>
        <time>2025-06-22T07:05:16Z</time>
      </trkpt>
      <trkpt lat="48.96841" lon="7.32526">
        <ele>334</ele>
        <time>2025-06-22T07:05:19Z</time>
      </trkpt>
      <trkpt lat="48.96836" lon="7.32538">
        <ele>336</ele>
        <time>2025-06-22T07:05:22Z</time>
      </trkpt>
      <trkpt lat="48.96833" lon="7.32553">
        <ele>338</ele>
        <time>2025-06-22T07:05:26Z</time>
      </trkpt>
      <trkpt lat="48.96827" lon="7.32567">
        <ele>339</ele>
        <time>2025-06-22T07:05:30Z</time>
      </trkpt>
      <trkpt lat="48.96818" lon="7.32569">
        <ele>341</ele>
        <time>2025-06-22T07:05:34Z</time>
      </trkpt>
      <trkpt lat="48.96808" lon="7.32563">
        <ele>341</ele>
        <time>2025-06-22T07:05:38Z</time>
      </trkpt>
      <trkpt lat="48.96799" lon="7.32558">
        <ele>344</ele>
        <time>2025-06-22T07:05:42Z</time>
      </trkpt>
      <trkpt lat="48.96789" lon="7.3255">
        <ele>344</ele>
        <time>2025-06-22T07:05:46Z</time>
      </trkpt>
      <trkpt lat="48.96777" lon="7.32542">
        <ele>345</ele>
        <time>2025-06-22T07:05:49Z</time>
      </trkpt>
      <trkpt lat="48.96769" lon="7.32531">
        <ele>345</ele>
        <time>2025-06-22T07:05:52Z</time>
      </trkpt>
      <trkpt lat="48.96758" lon="7.32519">
        <ele>345</ele>
        <time>2025-06-22T07:05:55Z</time>
      </trkpt>
      <trkpt lat="48.9675" lon="7.32511">
        <ele>345</ele>
        <time>2025-06-22T07:05:58Z</time>
      </trkpt>
      <trkpt lat="48.96741" lon="7.32502">
        <ele>346</ele>
        <time>2025-06-22T07:06:01Z</time>
      </trkpt>
      <trkpt lat="48.96733" lon="7.32495">
        <ele>347</ele>
        <time>2025-06-22T07:06:04Z</time>
      </trkpt>
      <trkpt lat="48.96724" lon="7.32488">
        <ele>347</ele>
        <time>2025-06-22T07:06:09Z</time>
      </trkpt>
      <trkpt lat="48.96716" lon="7.32482">
        <ele>350</ele>
        <time>2025-06-22T07:06:13Z</time>
      </trkpt>
      <trkpt lat="48.96709" lon="7.3247">
        <ele>350</ele>
        <time>2025-06-22T07:06:18Z</time>
      </trkpt>
      <trkpt lat="48.96701" lon="7.32462">
        <ele>350</ele>
        <time>2025-06-22T07:06:22Z</time>
      </trkpt>
      <trkpt lat="48.96694" lon="7.32453">
        <ele>351</ele>
        <time>2025-06-22T07:06:25Z</time>
      </trkpt>
      <trkpt lat="48.96686" lon="7.32443">
        <ele>351</ele>
        <time>2025-06-22T07:06:28Z</time>
      </trkpt>
      <trkpt lat="48.96679" lon="7.32435">
        <ele>351</ele>
        <time>2025-06-22T07:06:30Z</time>
      </trkpt>
      <trkpt lat="48.96668" lon="7.32424">
        <ele>351</ele>
        <time>2025-06-22T07:06:33Z</time>
      </trkpt>
      <trkpt lat="48.9666" lon="7.32416">
        <ele>351</ele>
        <time>2025-06-22T07:06:35Z</time>
      </trkpt>
      <trkpt lat="48.96651" lon="7.32404">
        <ele>352</ele>
        <time>2025-06-22T07:06:38Z</time>
      </trkpt>
      <trkpt lat="48.96645" lon="7.32396">
        <ele>352</ele>
        <time>2025-06-22T07:06:40Z</time>
      </trkpt>
      <trkpt lat="48.96641" lon="7.32388">
        <ele>352</ele>
        <time>2025-06-22T07:06:42Z</time>
      </trkpt>
      <trkpt lat="48.96638" lon="7.32384">
        <ele>352</ele>
        <time>2025-06-22T07:06:43Z</time>
      </trkpt>
      <trkpt lat="48.96634" lon="7.32378">
        <ele>352</ele>
        <time>2025-06-22T07:06:44Z</time>
      </trkpt>
      <trkpt lat="48.96632" lon="7.32373">
        <ele>352</ele>
        <time>2025-06-22T07:06:45Z</time>
      </trkpt>
      <trkpt lat="48.96624" lon="7.3236">
        <ele>352</ele>
        <time>2025-06-22T07:06:48Z</time>
      </trkpt>
      <trkpt lat="48.96616" lon="7.32347">
        <ele>352</ele>
        <time>2025-06-22T07:06:51Z</time>
      </trkpt>
      <trkpt lat="48.96607" lon="7.32334">
        <ele>351</ele>
        <time>2025-06-22T07:06:53Z</time>
      </trkpt>
      <trkpt lat="48.96603" lon="7.32327">
        <ele>350</ele>
        <time>2025-06-22T07:06:54Z</time>
      </trkpt>
      <trkpt lat="48.96599" lon="7.32322">
        <ele>350</ele>
        <time>2025-06-22T07:06:55Z</time>
      </trkpt>
      <trkpt lat="48.96592" lon="7.32308">
        <ele>350</ele>
        <time>2025-06-22T07:06:57Z</time>
      </trkpt>
      <trkpt lat="48.96585" lon="7.32292">
        <ele>350</ele>
        <time>2025-06-22T07:06:59Z</time>
      </trkpt>
      <trkpt lat="48.96581" lon="7.32274">
        <ele>350</ele>
        <time>2025-06-22T07:07:01Z</time>
      </trkpt>
      <trkpt lat="48.96577" lon="7.32256">
        <ele>349</ele>
        <time>2025-06-22T07:07:03Z</time>
      </trkpt>
      <trkpt lat="48.96574" lon="7.32239">
        <ele>348</ele>
        <time>2025-06-22T07:07:05Z</time>
      </trkpt>
      <trkpt lat="48.9657" lon="7.32214">
        <ele>347</ele>
        <time>2025-06-22T07:07:07Z</time>
      </trkpt>
      <trkpt lat="48.96567" lon="7.32187">
        <ele>347</ele>
        <time>2025-06-22T07:07:09Z</time>
      </trkpt>
      <trkpt lat="48.96564" lon="7.32173">
        <ele>344</ele>
        <time>2025-06-22T07:07:10Z</time>
      </trkpt>
      <trkpt lat="48.9656" lon="7.3216">
        <ele>344</ele>
        <time>2025-06-22T07:07:11Z</time>
      </trkpt>
      <trkpt lat="48.9655" lon="7.32138">
        <ele>344</ele>
        <time>2025-06-22T07:07:13Z</time>
      </trkpt>
      <trkpt lat="48.96538" lon="7.32119">
        <ele>341</ele>
        <time>2025-06-22T07:07:15Z</time>
      </trkpt>
      <trkpt lat="48.96529" lon="7.32108">
        <ele>341</ele>
        <time>2025-06-22T07:07:17Z</time>
      </trkpt>
      <trkpt lat="48.96519" lon="7.32099">
        <ele>341</ele>
        <time>2025-06-22T07:07:19Z</time>
      </trkpt>
      <trkpt lat="48.96502" lon="7.32091">
        <ele>341</ele>
        <time>2025-06-22T07:07:21Z</time>
      </trkpt>
      <trkpt lat="48.96489" lon="7.32086">
        <ele>341</ele>
        <time>2025-06-22T07:07:23Z</time>
      </trkpt>
      <trkpt lat="48.96475" lon="7.32087">
        <ele>341</ele>
        <time>2025-06-22T07:07:25Z</time>
      </trkpt>
      <trkpt lat="48.96461" lon="7.32091">
        <ele>341</ele>
        <time>2025-06-22T07:07:26Z</time>
      </trkpt>
      <trkpt lat="48.96449" lon="7.32097">
        <ele>341</ele>
        <time>2025-06-22T07:07:29Z</time>
      </trkpt>
      <trkpt lat="48.96441" lon="7.32109">
        <ele>340</ele>
        <time>2025-06-22T07:07:31Z</time>
      </trkpt>
      <trkpt lat="48.96434" lon="7.32123">
        <ele>340</ele>
        <time>2025-06-22T07:07:33Z</time>
      </trkpt>
      <trkpt lat="48.96431" lon="7.32138">
        <ele>340</ele>
        <time>2025-06-22T07:07:35Z</time>
      </trkpt>
      <trkpt lat="48.96427" lon="7.32154">
        <ele>340</ele>
        <time>2025-06-22T07:07:37Z</time>
      </trkpt>
      <trkpt lat="48.96422" lon="7.3217">
        <ele>339</ele>
        <time>2025-06-22T07:07:39Z</time>
      </trkpt>
      <trkpt lat="48.96418" lon="7.32184">
        <ele>339</ele>
        <time>2025-06-22T07:07:41Z</time>
      </trkpt>
      <trkpt lat="48.96414" lon="7.32199">
        <ele>339</ele>
        <time>2025-06-22T07:07:43Z</time>
      </trkpt>
      <trkpt lat="48.96411" lon="7.32215">
        <ele>339</ele>
        <time>2025-06-22T07:07:45Z</time>
      </trkpt>
      <trkpt lat="48.96407" lon="7.32228">
        <ele>339</ele>
        <time>2025-06-22T07:07:47Z</time>
      </trkpt>
      <trkpt lat="48.96404" lon="7.32242">
        <ele>339</ele>
        <time>2025-06-22T07:07:49Z</time>
      </trkpt>
      <trkpt lat="48.96401" lon="7.32256">
        <ele>339</ele>
        <time>2025-06-22T07:07:51Z</time>
      </trkpt>
      <trkpt lat="48.96399" lon="7.3227">
        <ele>339</ele>
        <time>2025-06-22T07:07:53Z</time>
      </trkpt>
      <trkpt lat="48.96396" lon="7.32283">
        <ele>339</ele>
        <time>2025-06-22T07:07:55Z</time>
      </trkpt>
      <trkpt lat="48.96394" lon="7.32297">
        <ele>340</ele>
        <time>2025-06-22T07:07:57Z</time>
      </trkpt>
      <trkpt lat="48.96391" lon="7.32316">
        <ele>340</ele>
        <time>2025-06-22T07:08:00Z</time>
      </trkpt>
      <trkpt lat="48.96389" lon="7.32335">
        <ele>340</ele>
        <time>2025-06-22T07:08:03Z</time>
      </trkpt>
      <trkpt lat="48.96388" lon="7.3235">
        <ele>340</ele>
        <time>2025-06-22T07:08:05Z</time>
      </trkpt>
      <trkpt lat="48.96388" lon="7.32365">
        <ele>340</ele>
        <time>2025-06-22T07:08:07Z</time>
      </trkpt>
      <trkpt lat="48.96388" lon="7.32387">
        <ele>341</ele>
        <time>2025-06-22T07:08:10Z</time>
      </trkpt>
      <trkpt lat="48.96386" lon="7.32401">
        <ele>341</ele>
        <time>2025-06-22T07:08:12Z</time>
      </trkpt>
      <trkpt lat="48.96383" lon="7.32421">
        <ele>341</ele>
        <time>2025-06-22T07:08:15Z</time>
      </trkpt>
      <trkpt lat="48.96382" lon="7.32428">
        <ele>341</ele>
        <time>2025-06-22T07:08:16Z</time>
      </trkpt>
      <trkpt lat="48.96381" lon="7.32435">
        <ele>341</ele>
        <time>2025-06-22T07:08:17Z</time>
      </trkpt>
      <trkpt lat="48.96379" lon="7.32443">
        <ele>341</ele>
        <time>2025-06-22T07:08:18Z</time>
      </trkpt>
      <trkpt lat="48.96377" lon="7.32451">
        <ele>341</ele>
        <time>2025-06-22T07:08:19Z</time>
      </trkpt>
      <trkpt lat="48.96375" lon="7.32467">
        <ele>341</ele>
        <time>2025-06-22T07:08:21Z</time>
      </trkpt>
      <trkpt lat="48.96374" lon="7.32475">
        <ele>341</ele>
        <time>2025-06-22T07:08:22Z</time>
      </trkpt>
      <trkpt lat="48.96374" lon="7.3249">
        <ele>341</ele>
        <time>2025-06-22T07:08:24Z</time>
      </trkpt>
      <trkpt lat="48.96376" lon="7.32507">
        <ele>341</ele>
        <time>2025-06-22T07:08:27Z</time>
      </trkpt>
      <trkpt lat="48.96378" lon="7.32524">
        <ele>342</ele>
        <time>2025-06-22T07:08:30Z</time>
      </trkpt>
      <trkpt lat="48.96379" lon="7.32541">
        <ele>343</ele>
        <time>2025-06-22T07:08:33Z</time>
      </trkpt>
      <trkpt lat="48.9638" lon="7.32546">
        <ele>343</ele>
        <time>2025-06-22T07:08:34Z</time>
      </trkpt>
      <trkpt lat="48.96381" lon="7.32552">
        <ele>343</ele>
        <time>2025-06-22T07:08:35Z</time>
      </trkpt>
      <trkpt lat="48.96381" lon="7.32557">
        <ele>343</ele>
        <time>2025-06-22T07:08:36Z</time>
      </trkpt>
      <trkpt lat="48.96382" lon="7.32562">
        <ele>343</ele>
        <time>2025-06-22T07:08:37Z</time>
      </trkpt>
      <trkpt lat="48.96385" lon="7.32579">
        <ele>344</ele>
        <time>2025-06-22T07:08:41Z</time>
      </trkpt>
      <trkpt lat="48.96391" lon="7.32592">
        <ele>344</ele>
        <time>2025-06-22T07:08:45Z</time>
      </trkpt>
      <trkpt lat="48.96395" lon="7.32605">
        <ele>346</ele>
        <time>2025-06-22T07:08:49Z</time>
      </trkpt>
      <trkpt lat="48.96398" lon="7.3262">
        <ele>348</ele>
        <time>2025-06-22T07:08:53Z</time>
      </trkpt>
      <trkpt lat="48.96401" lon="7.32634">
        <ele>349</ele>
        <time>2025-06-22T07:08:56Z</time>
      </trkpt>
      <trkpt lat="48.96403" lon="7.32649">
        <ele>349</ele>
        <time>2025-06-22T07:09:00Z</time>
      </trkpt>
      <trkpt lat="48.96408" lon="7.32661">
        <ele>349</ele>
        <time>2025-06-22T07:09:03Z</time>
      </trkpt>
      <trkpt lat="48.96413" lon="7.32677">
        <ele>350</ele>
        <time>2025-06-22T07:09:06Z</time>
      </trkpt>
      <trkpt lat="48.96415" lon="7.32681">
        <ele>350</ele>
        <time>2025-06-22T07:09:07Z</time>
      </trkpt>
      <trkpt lat="48.96416" lon="7.32685">
        <ele>350</ele>
        <time>2025-06-22T07:09:08Z</time>
      </trkpt>
      <trkpt lat="48.96418" lon="7.32689">
        <ele>350</ele>
        <time>2025-06-22T07:09:09Z</time>
      </trkpt>
      <trkpt lat="48.96423" lon="7.32704">
        <ele>351</ele>
        <time>2025-06-22T07:09:12Z</time>
      </trkpt>
      <trkpt lat="48.96425" lon="7.32709">
        <ele>351</ele>
        <time>2025-06-22T07:09:13Z</time>
      </trkpt>
      <trkpt lat="48.96427" lon="7.32714">
        <ele>351</ele>
        <time>2025-06-22T07:09:14Z</time>
      </trkpt>
      <trkpt lat="48.96429" lon="7.32719">
        <ele>351</ele>
        <time>2025-06-22T07:09:15Z</time>
      </trkpt>
      <trkpt lat="48.96431" lon="7.32723">
        <ele>351</ele>
        <time>2025-06-22T07:09:16Z</time>
      </trkpt>
      <trkpt lat="48.96433" lon="7.32727">
        <ele>351</ele>
        <time>2025-06-22T07:09:17Z</time>
      </trkpt>
      <trkpt lat="48.96435" lon="7.32733">
        <ele>351</ele>
        <time>2025-06-22T07:09:18Z</time>
      </trkpt>
      <trkpt lat="48.96436" lon="7.32738">
        <ele>351</ele>
        <time>2025-06-22T07:09:19Z</time>
      </trkpt>
      <trkpt lat="48.96438" lon="7.32742">
        <ele>352</ele>
        <time>2025-06-22T07:09:20Z</time>
      </trkpt>
      <trkpt lat="48.9644" lon="7.32747">
        <ele>352</ele>
        <time>2025-06-22T07:09:21Z</time>
      </trkpt>
      <trkpt lat="48.96442" lon="7.32752">
        <ele>352</ele>
        <time>2025-06-22T07:09:22Z</time>
      </trkpt>
      <trkpt lat="48.96443" lon="7.32757">
        <ele>353</ele>
        <time>2025-06-22T07:09:23Z</time>
      </trkpt>
      <trkpt lat="48.96445" lon="7.32761">
        <ele>353</ele>
        <time>2025-06-22T07:09:24Z</time>
      </trkpt>
      <trkpt lat="48.96448" lon="7.32764">
        <ele>353</ele>
        <time>2025-06-22T07:09:25Z</time>
      </trkpt>
      <trkpt lat="48.9645" lon="7.32767">
        <ele>353</ele>
        <time>2025-06-22T07:09:26Z</time>
      </trkpt>
      <trkpt lat="48.96457" lon="7.32777">
        <ele>354</ele>
        <time>2025-06-22T07:09:29Z</time>
      </trkpt>
      <trkpt lat="48.96464" lon="7.32788">
        <ele>355</ele>
        <time>2025-06-22T07:09:31Z</time>
      </trkpt>
      <trkpt lat="48.96473" lon="7.328">
        <ele>355</ele>
        <time>2025-06-22T07:09:35Z</time>
      </trkpt>
      <trkpt lat="48.96479" lon="7.32811">
        <ele>355</ele>
        <time>2025-06-22T07:09:37Z</time>
      </trkpt>
      <trkpt lat="48.96486" lon="7.32822">
        <ele>355</ele>
        <time>2025-06-22T07:09:39Z</time>
      </trkpt>
      <trkpt lat="48.96495" lon="7.32836">
        <ele>355</ele>
        <time>2025-06-22T07:09:42Z</time>
      </trkpt>
      <trkpt lat="48.96501" lon="7.32848">
        <ele>354</ele>
        <time>2025-06-22T07:09:45Z</time>
      </trkpt>
      <trkpt lat="48.96507" lon="7.32864">
        <ele>354</ele>
        <time>2025-06-22T07:09:48Z</time>
      </trkpt>
      <trkpt lat="48.96513" lon="7.32878">
        <ele>354</ele>
        <time>2025-06-22T07:09:50Z</time>
      </trkpt>
      <trkpt lat="48.96518" lon="7.32896">
        <ele>353</ele>
        <time>2025-06-22T07:09:52Z</time>
      </trkpt>
      <trkpt lat="48.96521" lon="7.32905">
        <ele>353</ele>
        <time>2025-06-22T07:09:53Z</time>
      </trkpt>
      <trkpt lat="48.96524" lon="7.32914">
        <ele>353</ele>
        <time>2025-06-22T07:09:54Z</time>
      </trkpt>
      <trkpt lat="48.96527" lon="7.32923">
        <ele>352</ele>
        <time>2025-06-22T07:09:55Z</time>
      </trkpt>
      <trkpt lat="48.96529" lon="7.32933">
        <ele>352</ele>
        <time>2025-06-22T07:09:56Z</time>
      </trkpt>
      <trkpt lat="48.96531" lon="7.3295">
        <ele>352</ele>
        <time>2025-06-22T07:09:57Z</time>
      </trkpt>
      <trkpt lat="48.96533" lon="7.32958">
        <ele>352</ele>
        <time>2025-06-22T07:09:59Z</time>
      </trkpt>
      <trkpt lat="48.96534" lon="7.32968">
        <ele>351</ele>
        <time>2025-06-22T07:10:00Z</time>
      </trkpt>
      <trkpt lat="48.96535" lon="7.32977">
        <ele>351</ele>
        <time>2025-06-22T07:10:01Z</time>
      </trkpt>
      <trkpt lat="48.96536" lon="7.32985">
        <ele>351</ele>
        <time>2025-06-22T07:10:02Z</time>
      </trkpt>
      <trkpt lat="48.96537" lon="7.32993">
        <ele>351</ele>
        <time>2025-06-22T07:10:03Z</time>
      </trkpt>
      <trkpt lat="48.96538" lon="7.33002">
        <ele>351</ele>
        <time>2025-06-22T07:10:04Z</time>
      </trkpt>
      <trkpt lat="48.96539" lon="7.3301">
        <ele>351</ele>
        <time>2025-06-22T07:10:05Z</time>
      </trkpt>
      <trkpt lat="48.9654" lon="7.33019">
        <ele>351</ele>
        <time>2025-06-22T07:10:06Z</time>
      </trkpt>
      <trkpt lat="48.96541" lon="7.33027">
        <ele>351</ele>
        <time>2025-06-22T07:10:07Z</time>
      </trkpt>
      <trkpt lat="48.96542" lon="7.33035">
        <ele>351</ele>
        <time>2025-06-22T07:10:08Z</time>
      </trkpt>
      <trkpt lat="48.96543" lon="7.33042">
        <ele>351</ele>
        <time>2025-06-22T07:10:09Z</time>
      </trkpt>
      <trkpt lat="48.96542" lon="7.33048">
        <ele>351</ele>
        <time>2025-06-22T07:10:10Z</time>
      </trkpt>
      <trkpt lat="48.96539" lon="7.33053">
        <ele>351</ele>
        <time>2025-06-22T07:10:11Z</time>
      </trkpt>
      <trkpt lat="48.96536" lon="7.33058">
        <ele>351</ele>
        <time>2025-06-22T07:10:12Z</time>
      </trkpt>
      <trkpt lat="48.96533" lon="7.33061">
        <ele>351</ele>
        <time>2025-06-22T07:10:13Z</time>
      </trkpt>
      <trkpt lat="48.9653" lon="7.33065">
        <ele>351</ele>
        <time>2025-06-22T07:10:14Z</time>
      </trkpt>
      <trkpt lat="48.96528" lon="7.33069">
        <ele>351</ele>
        <time>2025-06-22T07:10:15Z</time>
      </trkpt>
      <trkpt lat="48.96527" lon="7.33073">
        <ele>351</ele>
        <time>2025-06-22T07:10:16Z</time>
      </trkpt>
      <trkpt lat="48.96526" lon="7.33078">
        <ele>352</ele>
        <time>2025-06-22T07:10:17Z</time>
      </trkpt>
      <trkpt lat="48.96526" lon="7.33083">
        <ele>352</ele>
        <time>2025-06-22T07:10:18Z</time>
      </trkpt>
      <trkpt lat="48.96526" lon="7.33088">
        <ele>352</ele>
        <time>2025-06-22T07:10:19Z</time>
      </trkpt>
      <trkpt lat="48.96526" lon="7.33093">
        <ele>352</ele>
        <time>2025-06-22T07:10:20Z</time>
      </trkpt>
      <trkpt lat="48.96526" lon="7.33098">
        <ele>352</ele>
        <time>2025-06-22T07:10:21Z</time>
      </trkpt>
      <trkpt lat="48.96525" lon="7.33102">
        <ele>354</ele>
        <time>2025-06-22T07:10:22Z</time>
      </trkpt>
      <trkpt lat="48.96524" lon="7.33106">
        <ele>354</ele>
        <time>2025-06-22T07:10:23Z</time>
      </trkpt>
      <trkpt lat="48.96524" lon="7.33111">
        <ele>354</ele>
        <time>2025-06-22T07:10:24Z</time>
      </trkpt>
      <trkpt lat="48.96525" lon="7.33115">
        <ele>355</ele>
        <time>2025-06-22T07:10:25Z</time>
      </trkpt>
      <trkpt lat="48.96526" lon="7.33119">
        <ele>355</ele>
        <time>2025-06-22T07:10:26Z</time>
      </trkpt>
      <trkpt lat="48.96526" lon="7.33123">
        <ele>356</ele>
        <time>2025-06-22T07:10:27Z</time>
      </trkpt>
      <trkpt lat="48.96526" lon="7.33128">
        <ele>356</ele>
        <time>2025-06-22T07:10:28Z</time>
      </trkpt>
      <trkpt lat="48.96526" lon="7.33132">
        <ele>356</ele>
        <time>2025-06-22T07:10:29Z</time>
      </trkpt>
      <trkpt lat="48.96527" lon="7.33135">
        <ele>356</ele>
        <time>2025-06-22T07:10:30Z</time>
      </trkpt>
      <trkpt lat="48.96527" lon="7.33139">
        <ele>356</ele>
        <time>2025-06-22T07:10:31Z</time>
      </trkpt>
      <trkpt lat="48.96526" lon="7.33143">
        <ele>356</ele>
        <time>2025-06-22T07:10:32Z</time>
      </trkpt>
      <trkpt lat="48.96527" lon="7.33148">
        <ele>357</ele>
        <time>2025-06-22T07:10:33Z</time>
      </trkpt>
      <trkpt lat="48.96527" lon="7.33152">
        <ele>358</ele>
        <time>2025-06-22T07:10:34Z</time>
      </trkpt>
      <trkpt lat="48.96523" lon="7.33167">
        <ele>357</ele>
        <time>2025-06-22T07:10:38Z</time>
      </trkpt>
      <trkpt lat="48.96516" lon="7.3318">
        <ele>358</ele>
        <time>2025-06-22T07:10:41Z</time>
      </trkpt>
      <trkpt lat="48.96511" lon="7.33194">
        <ele>358</ele>
        <time>2025-06-22T07:10:44Z</time>
      </trkpt>
      <trkpt lat="48.96503" lon="7.33205">
        <ele>360</ele>
        <time>2025-06-22T07:10:48Z</time>
      </trkpt>
      <trkpt lat="48.96496" lon="7.33216">
        <ele>361</ele>
        <time>2025-06-22T07:10:52Z</time>
      </trkpt>
      <trkpt lat="48.96495" lon="7.33231">
        <ele>363</ele>
        <time>2025-06-22T07:10:56Z</time>
      </trkpt>
      <trkpt lat="48.96494" lon="7.33242">
        <ele>363</ele>
        <time>2025-06-22T07:10:59Z</time>
      </trkpt>
      <trkpt lat="48.96493" lon="7.33246">
        <ele>364</ele>
        <time>2025-06-22T07:11:00Z</time>
      </trkpt>
      <trkpt lat="48.96493" lon="7.33251">
        <ele>364</ele>
        <time>2025-06-22T07:11:01Z</time>
      </trkpt>
      <trkpt lat="48.96492" lon="7.33255">
        <ele>364</ele>
        <time>2025-06-22T07:11:02Z</time>
      </trkpt>
      <trkpt lat="48.96491" lon="7.33259">
        <ele>364</ele>
        <time>2025-06-22T07:11:03Z</time>
      </trkpt>
      <trkpt lat="48.96489" lon="7.33263">
        <ele>364</ele>
        <time>2025-06-22T07:11:04Z</time>
      </trkpt>
      <trkpt lat="48.96487" lon="7.33265">
        <ele>364</ele>
        <time>2025-06-22T07:11:05Z</time>
      </trkpt>
      <trkpt lat="48.9648" lon="7.33276">
        <ele>365</ele>
        <time>2025-06-22T07:11:09Z</time>
      </trkpt>
      <trkpt lat="48.96476" lon="7.33289">
        <ele>366</ele>
        <time>2025-06-22T07:11:13Z</time>
      </trkpt>
      <trkpt lat="48.96474" lon="7.33291">
        <ele>366</ele>
        <time>2025-06-22T07:11:14Z</time>
      </trkpt>
      <trkpt lat="48.96473" lon="7.33293">
        <ele>367</ele>
        <time>2025-06-22T07:11:15Z</time>
      </trkpt>
      <trkpt lat="48.96471" lon="7.33295">
        <ele>367</ele>
        <time>2025-06-22T07:11:16Z</time>
      </trkpt>
      <trkpt lat="48.96469" lon="7.33296">
        <ele>368</ele>
        <time>2025-06-22T07:11:17Z</time>
      </trkpt>
      <trkpt lat="48.96467" lon="7.33298">
        <ele>368</ele>
        <time>2025-06-22T07:11:18Z</time>
      </trkpt>
      <trkpt lat="48.96466" lon="7.33301">
        <ele>368</ele>
        <time>2025-06-22T07:11:19Z</time>
      </trkpt>
      <trkpt lat="48.96458" lon="7.33309">
        <ele>368</ele>
        <time>2025-06-22T07:11:23Z</time>
      </trkpt>
      <trkpt lat="48.96451" lon="7.33318">
        <ele>369</ele>
        <time>2025-06-22T07:11:28Z</time>
      </trkpt>
      <trkpt lat="48.96449" lon="7.33321">
        <ele>370</ele>
        <time>2025-06-22T07:11:29Z</time>
      </trkpt>
      <trkpt lat="48.96448" lon="7.33323">
        <ele>370</ele>
        <time>2025-06-22T07:11:30Z</time>
      </trkpt>
      <trkpt lat="48.96446" lon="7.33328">
        <ele>370</ele>
        <time>2025-06-22T07:11:32Z</time>
      </trkpt>
      <trkpt lat="48.96445" lon="7.3333">
        <ele>370</ele>
        <time>2025-06-22T07:11:33Z</time>
      </trkpt>
      <trkpt lat="48.96443" lon="7.33336">
        <ele>372</ele>
        <time>2025-06-22T07:11:35Z</time>
      </trkpt>
      <trkpt lat="48.96442" lon="7.33339">
        <ele>372</ele>
        <time>2025-06-22T07:11:36Z</time>
      </trkpt>
      <trkpt lat="48.96441" lon="7.33344">
        <ele>373</ele>
        <time>2025-06-22T07:11:38Z</time>
      </trkpt>
      <trkpt lat="48.9644" lon="7.33347">
        <ele>373</ele>
        <time>2025-06-22T07:11:39Z</time>
      </trkpt>
      <trkpt lat="48.96438" lon="7.3335">
        <ele>373</ele>
        <time>2025-06-22T07:11:40Z</time>
      </trkpt>
      <trkpt lat="48.96438" lon="7.33353">
        <ele>373</ele>
        <time>2025-06-22T07:11:41Z</time>
      </trkpt>
      <trkpt lat="48.96438" lon="7.33357">
        <ele>373</ele>
        <time>2025-06-22T07:11:42Z</time>
      </trkpt>
      <trkpt lat="48.96438" lon="7.33361">
        <ele>373</ele>
        <time>2025-06-22T07:11:43Z</time>
      </trkpt>
      <trkpt lat="48.96438" lon="7.33365">
        <ele>373</ele>
        <time>2025-06-22T07:11:44Z</time>
      </trkpt>
      <trkpt lat="48.96436" lon="7.33369">
        <ele>373</ele>
        <time>2025-06-22T07:11:45Z</time>
      </trkpt>
      <trkpt lat="48.96434" lon="7.33372">
        <ele>373</ele>
        <time>2025-06-22T07:11:46Z</time>
      </trkpt>
      <trkpt lat="48.96432" lon="7.33374">
        <ele>373</ele>
        <time>2025-06-22T07:11:47Z</time>
      </trkpt>
      <trkpt lat="48.96429" lon="7.33375">
        <ele>373</ele>
        <time>2025-06-22T07:11:48Z</time>
      </trkpt>
      <trkpt lat="48.96427" lon="7.33376">
        <ele>373</ele>
        <time>2025-06-22T07:11:49Z</time>
      </trkpt>
      <trkpt lat="48.96425" lon="7.33376">
        <ele>373</ele>
        <time>2025-06-22T07:11:51Z</time>
      </trkpt>
      <trkpt lat="48.96424" lon="7.33378">
        <ele>373</ele>
        <time>2025-06-22T07:11:52Z</time>
      </trkpt>
      <trkpt lat="48.96422" lon="7.33379">
        <ele>373</ele>
        <time>2025-06-22T07:11:53Z</time>
      </trkpt>
      <trkpt lat="48.96419" lon="7.3338">
        <ele>373</ele>
        <time>2025-06-22T07:11:54Z</time>
      </trkpt>
      <trkpt lat="48.96417" lon="7.33382">
        <ele>373</ele>
        <time>2025-06-22T07:11:55Z</time>
      </trkpt>
      <trkpt lat="48.96416" lon="7.33386">
        <ele>373</ele>
        <time>2025-06-22T07:11:56Z</time>
      </trkpt>
      <trkpt lat="48.96414" lon="7.33389">
        <ele>373</ele>
        <time>2025-06-22T07:11:57Z</time>
      </trkpt>
      <trkpt lat="48.96412" lon="7.33393">
        <ele>373</ele>
        <time>2025-06-22T07:11:58Z</time>
      </trkpt>
      <trkpt lat="48.96411" lon="7.33397">
        <ele>373</ele>
        <time>2025-06-22T07:11:59Z</time>
      </trkpt>
      <trkpt lat="48.9641" lon="7.33401">
        <ele>373</ele>
        <time>2025-06-22T07:12:00Z</time>
      </trkpt>
      <trkpt lat="48.96409" lon="7.33407">
        <ele>373</ele>
        <time>2025-06-22T07:12:01Z</time>
      </trkpt>
      <trkpt lat="48.96407" lon="7.33413">
        <ele>372</ele>
        <time>2025-06-22T07:12:02Z</time>
      </trkpt>
      <trkpt lat="48.96405" lon="7.33422">
        <ele>372</ele>
        <time>2025-06-22T07:12:03Z</time>
      </trkpt>
      <trkpt lat="48.96403" lon="7.33431">
        <ele>372</ele>
        <time>2025-06-22T07:12:04Z</time>
      </trkpt>
      <trkpt lat="48.96401" lon="7.3344">
        <ele>372</ele>
        <time>2025-06-22T07:12:05Z</time>
      </trkpt>
      <trkpt lat="48.964" lon="7.33449">
        <ele>371</ele>
        <time>2025-06-22T07:12:06Z</time>
      </trkpt>
      <trkpt lat="48.96399" lon="7.33458">
        <ele>371</ele>
        <time>2025-06-22T07:12:07Z</time>
      </trkpt>
      <trkpt lat="48.96398" lon="7.33467">
        <ele>371</ele>
        <time>2025-06-22T07:12:08Z</time>
      </trkpt>
      <trkpt lat="48.96396" lon="7.33475">
        <ele>371</ele>
        <time>2025-06-22T07:12:09Z</time>
      </trkpt>
      <trkpt lat="48.96395" lon="7.33483">
        <ele>371</ele>
        <time>2025-06-22T07:12:10Z</time>
      </trkpt>
      <trkpt lat="48.96395" lon="7.33491">
        <ele>371</ele>
        <time>2025-06-22T07:12:11Z</time>
      </trkpt>
      <trkpt lat="48.96393" lon="7.33498">
        <ele>371</ele>
        <time>2025-06-22T07:12:12Z</time>
      </trkpt>
      <trkpt lat="48.9639" lon="7.33506">
        <ele>371</ele>
        <time>2025-06-22T07:12:13Z</time>
      </trkpt>
      <trkpt lat="48.96388" lon="7.33514">
        <ele>371</ele>
        <time>2025-06-22T07:12:14Z</time>
      </trkpt>
      <trkpt lat="48.96386" lon="7.33521">
        <ele>371</ele>
        <time>2025-06-22T07:12:15Z</time>
      </trkpt>
      <trkpt lat="48.96383" lon="7.33529">
        <ele>371</ele>
        <time>2025-06-22T07:12:16Z</time>
      </trkpt>
      <trkpt lat="48.96381" lon="7.33535">
        <ele>371</ele>
        <time>2025-06-22T07:12:17Z</time>
      </trkpt>
      <trkpt lat="48.96379" lon="7.33541">
        <ele>371</ele>
        <time>2025-06-22T07:12:18Z</time>
      </trkpt>
      <trkpt lat="48.96374" lon="7.33559">
        <ele>371</ele>
        <time>2025-06-22T07:12:21Z</time>
      </trkpt>
      <trkpt lat="48.96372" lon="7.33566">
        <ele>371</ele>
        <time>2025-06-22T07:12:22Z</time>
      </trkpt>
      <trkpt lat="48.96371" lon="7.33573">
        <ele>372</ele>
        <time>2025-06-22T07:12:23Z</time>
      </trkpt>
      <trkpt lat="48.96369" lon="7.33579">
        <ele>372</ele>
        <time>2025-06-22T07:12:24Z</time>
      </trkpt>
      <trkpt lat="48.96367" lon="7.33585">
        <ele>372</ele>
        <time>2025-06-22T07:12:25Z</time>
      </trkpt>
      <trkpt lat="48.96365" lon="7.33591">
        <ele>372</ele>
        <time>2025-06-22T07:12:26Z</time>
      </trkpt>
      <trkpt lat="48.96363" lon="7.33597">
        <ele>372</ele>
        <time>2025-06-22T07:12:27Z</time>
      </trkpt>
      <trkpt lat="48.96362" lon="7.33603">
        <ele>373</ele>
        <time>2025-06-22T07:12:28Z</time>
      </trkpt>
      <trkpt lat="48.96361" lon="7.33609">
        <ele>373</ele>
        <time>2025-06-22T07:12:29Z</time>
      </trkpt>
      <trkpt lat="48.96359" lon="7.33614">
        <ele>373</ele>
        <time>2025-06-22T07:12:30Z</time>
      </trkpt>
      <trkpt lat="48.96358" lon="7.33621">
        <ele>373</ele>
        <time>2025-06-22T07:12:31Z</time>
      </trkpt>
      <trkpt lat="48.96358" lon="7.33628">
        <ele>373</ele>
        <time>2025-06-22T07:12:32Z</time>
      </trkpt>
      <trkpt lat="48.96357" lon="7.33635">
        <ele>373</ele>
        <time>2025-06-22T07:12:33Z</time>
      </trkpt>
      <trkpt lat="48.96356" lon="7.33641">
        <ele>373</ele>
        <time>2025-06-22T07:12:34Z</time>
      </trkpt>
      <trkpt lat="48.96355" lon="7.33647">
        <ele>373</ele>
        <time>2025-06-22T07:12:35Z</time>
      </trkpt>
      <trkpt lat="48.96354" lon="7.33652">
        <ele>373</ele>
        <time>2025-06-22T07:12:36Z</time>
      </trkpt>
      <trkpt lat="48.96352" lon="7.33658">
        <ele>373</ele>
        <time>2025-06-22T07:12:37Z</time>
      </trkpt>
      <trkpt lat="48.96352" lon="7.33663">
        <ele>373</ele>
        <time>2025-06-22T07:12:38Z</time>
      </trkpt>
      <trkpt lat="48.96351" lon="7.33669">
        <ele>373</ele>
        <time>2025-06-22T07:12:39Z</time>
      </trkpt>
      <trkpt lat="48.96351" lon="7.33674">
        <ele>374</ele>
        <time>2025-06-22T07:12:40Z</time>
      </trkpt>
      <trkpt lat="48.96349" lon="7.3369">
        <ele>374</ele>
        <time>2025-06-22T07:12:43Z</time>
      </trkpt>
      <trkpt lat="48.96348" lon="7.33708">
        <ele>374</ele>
        <time>2025-06-22T07:12:46Z</time>
      </trkpt>
      <trkpt lat="48.96351" lon="7.33726">
        <ele>374</ele>
        <time>2025-06-22T07:12:49Z</time>
      </trkpt>
      <trkpt lat="48.96352" lon="7.33732">
        <ele>374</ele>
        <time>2025-06-22T07:12:50Z</time>
      </trkpt>
      <trkpt lat="48.96356" lon="7.33745">
        <ele>374</ele>
        <time>2025-06-22T07:12:52Z</time>
      </trkpt>
      <trkpt lat="48.96357" lon="7.33751">
        <ele>374</ele>
        <time>2025-06-22T07:12:53Z</time>
      </trkpt>
      <trkpt lat="48.96361" lon="7.33764">
        <ele>373</ele>
        <time>2025-06-22T07:12:55Z</time>
      </trkpt>
      <trkpt lat="48.96363" lon="7.33771">
        <ele>374</ele>
        <time>2025-06-22T07:12:56Z</time>
      </trkpt>
      <trkpt lat="48.96364" lon="7.33777">
        <ele>374</ele>
        <time>2025-06-22T07:12:57Z</time>
      </trkpt>
      <trkpt lat="48.96366" lon="7.33782">
        <ele>374</ele>
        <time>2025-06-22T07:12:58Z</time>
      </trkpt>
      <trkpt lat="48.96368" lon="7.33788">
        <ele>374</ele>
        <time>2025-06-22T07:12:59Z</time>
      </trkpt>
      <trkpt lat="48.96371" lon="7.33794">
        <ele>374</ele>
        <time>2025-06-22T07:13:00Z</time>
      </trkpt>
      <trkpt lat="48.96373" lon="7.33799">
        <ele>374</ele>
        <time>2025-06-22T07:13:01Z</time>
      </trkpt>
      <trkpt lat="48.96375" lon="7.33805">
        <ele>374</ele>
        <time>2025-06-22T07:13:02Z</time>
      </trkpt>
      <trkpt lat="48.96377" lon="7.3381">
        <ele>374</ele>
        <time>2025-06-22T07:13:03Z</time>
      </trkpt>
      <trkpt lat="48.9638" lon="7.33815">
        <ele>374</ele>
        <time>2025-06-22T07:13:04Z</time>
      </trkpt>
      <trkpt lat="48.96382" lon="7.33818">
        <ele>374</ele>
        <time>2025-06-22T07:13:05Z</time>
      </trkpt>
      <trkpt lat="48.96384" lon="7.33822">
        <ele>375</ele>
        <time>2025-06-22T07:13:06Z</time>
      </trkpt>
      <trkpt lat="48.96386" lon="7.33826">
        <ele>375</ele>
        <time>2025-06-22T07:13:07Z</time>
      </trkpt>
      <trkpt lat="48.96388" lon="7.3383">
        <ele>375</ele>
        <time>2025-06-22T07:13:08Z</time>
      </trkpt>
      <trkpt lat="48.9639" lon="7.33833">
        <ele>375</ele>
        <time>2025-06-22T07:13:09Z</time>
      </trkpt>
      <trkpt lat="48.96392" lon="7.33837">
        <ele>375</ele>
        <time>2025-06-22T07:13:10Z</time>
      </trkpt>
      <trkpt lat="48.96393" lon="7.33841">
        <ele>375</ele>
        <time>2025-06-22T07:13:11Z</time>
      </trkpt>
      <trkpt lat="48.96395" lon="7.33846">
        <ele>375</ele>
        <time>2025-06-22T07:13:12Z</time>
      </trkpt>
      <trkpt lat="48.96397" lon="7.33851">
        <ele>375</ele>
        <time>2025-06-22T07:13:13Z</time>
      </trkpt>
      <trkpt lat="48.96399" lon="7.33857">
        <ele>375</ele>
        <time>2025-06-22T07:13:14Z</time>
      </trkpt>
      <trkpt lat="48.964" lon="7.33864">
        <ele>375</ele>
        <time>2025-06-22T07:13:15Z</time>
      </trkpt>
      <trkpt lat="48.96404" lon="7.33883">
        <ele>375</ele>
        <time>2025-06-22T07:13:18Z</time>
      </trkpt>
      <trkpt lat="48.96407" lon="7.33889">
        <ele>375</ele>
        <time>2025-06-22T07:13:19Z</time>
      </trkpt>
      <trkpt lat="48.96409" lon="7.33896">
        <ele>376</ele>
        <time>2025-06-22T07:13:20Z</time>
      </trkpt>
      <trkpt lat="48.96412" lon="7.33901">
        <ele>376</ele>
        <time>2025-06-22T07:13:21Z</time>
      </trkpt>
      <trkpt lat="48.96415" lon="7.33906">
        <ele>376</ele>
        <time>2025-06-22T07:13:22Z</time>
      </trkpt>
      <trkpt lat="48.96417" lon="7.33911">
        <ele>376</ele>
        <time>2025-06-22T07:13:23Z</time>
      </trkpt>
      <trkpt lat="48.96419" lon="7.33917">
        <ele>376</ele>
        <time>2025-06-22T07:13:24Z</time>
      </trkpt>
      <trkpt lat="48.9642" lon="7.33923">
        <ele>376</ele>
        <time>2025-06-22T07:13:25Z</time>
      </trkpt>
      <trkpt lat="48.96424" lon="7.33941">
        <ele>376</ele>
        <time>2025-06-22T07:13:28Z</time>
      </trkpt>
      <trkpt lat="48.96426" lon="7.33948">
        <ele>376</ele>
        <time>2025-06-22T07:13:29Z</time>
      </trkpt>
      <trkpt lat="48.96429" lon="7.33954">
        <ele>376</ele>
        <time>2025-06-22T07:13:30Z</time>
      </trkpt>
      <trkpt lat="48.96431" lon="7.3396">
        <ele>376</ele>
        <time>2025-06-22T07:13:31Z</time>
      </trkpt>
      <trkpt lat="48.96433" lon="7.33965">
        <ele>376</ele>
        <time>2025-06-22T07:13:32Z</time>
      </trkpt>
      <trkpt lat="48.96434" lon="7.3397">
        <ele>376</ele>
        <time>2025-06-22T07:13:33Z</time>
      </trkpt>
      <trkpt lat="48.96435" lon="7.33977">
        <ele>376</ele>
        <time>2025-06-22T07:13:34Z</time>
      </trkpt>
      <trkpt lat="48.96438" lon="7.33989">
        <ele>376</ele>
        <time>2025-06-22T07:13:36Z</time>
      </trkpt>
      <trkpt lat="48.96442" lon="7.34002">
        <ele>376</ele>
        <time>2025-06-22T07:13:38Z</time>
      </trkpt>
      <trkpt lat="48.96448" lon="7.3402">
        <ele>375</ele>
        <time>2025-06-22T07:13:41Z</time>
      </trkpt>
      <trkpt lat="48.96453" lon="7.34035">
        <ele>375</ele>
        <time>2025-06-22T07:13:43Z</time>
      </trkpt>
      <trkpt lat="48.96459" lon="7.34051">
        <ele>375</ele>
        <time>2025-06-22T07:13:45Z</time>
      </trkpt>
      <trkpt lat="48.96461" lon="7.34058">
        <ele>375</ele>
        <time>2025-06-22T07:13:46Z</time>
      </trkpt>
      <trkpt lat="48.96465" lon="7.34065">
        <ele>375</ele>
        <time>2025-06-22T07:13:47Z</time>
      </trkpt>
      <trkpt lat="48.96467" lon="7.34071">
        <ele>374</ele>
        <time>2025-06-22T07:13:48Z</time>
      </trkpt>
      <trkpt lat="48.96469" lon="7.34079">
        <ele>374</ele>
        <time>2025-06-22T07:13:49Z</time>
      </trkpt>
      <trkpt lat="48.96472" lon="7.34085">
        <ele>374</ele>
        <time>2025-06-22T07:13:50Z</time>
      </trkpt>
      <trkpt lat="48.96474" lon="7.34091">
        <ele>374</ele>
        <time>2025-06-22T07:13:51Z</time>
      </trkpt>
      <trkpt lat="48.96477" lon="7.34098">
        <ele>374</ele>
        <time>2025-06-22T07:13:52Z</time>
      </trkpt>
      <trkpt lat="48.96479" lon="7.34105">
        <ele>374</ele>
        <time>2025-06-22T07:13:53Z</time>
      </trkpt>
      <trkpt lat="48.96482" lon="7.34111">
        <ele>374</ele>
        <time>2025-06-22T07:13:54Z</time>
      </trkpt>
      <trkpt lat="48.96484" lon="7.34118">
        <ele>374</ele>
        <time>2025-06-22T07:13:55Z</time>
      </trkpt>
      <trkpt lat="48.96486" lon="7.34124">
        <ele>373</ele>
        <time>2025-06-22T07:13:56Z</time>
      </trkpt>
      <trkpt lat="48.96488" lon="7.34132">
        <ele>373</ele>
        <time>2025-06-22T07:13:57Z</time>
      </trkpt>
      <trkpt lat="48.96491" lon="7.34139">
        <ele>373</ele>
        <time>2025-06-22T07:13:58Z</time>
      </trkpt>
      <trkpt lat="48.96494" lon="7.34147">
        <ele>373</ele>
        <time>2025-06-22T07:13:59Z</time>
      </trkpt>
      <trkpt lat="48.96497" lon="7.34155">
        <ele>372</ele>
        <time>2025-06-22T07:14:00Z</time>
      </trkpt>
      <trkpt lat="48.965" lon="7.34163">
        <ele>372</ele>
        <time>2025-06-22T07:14:01Z</time>
      </trkpt>
      <trkpt lat="48.96503" lon="7.34171">
        <ele>371</ele>
        <time>2025-06-22T07:14:02Z</time>
      </trkpt>
      <trkpt lat="48.96505" lon="7.3418">
        <ele>371</ele>
        <time>2025-06-22T07:14:03Z</time>
      </trkpt>
      <trkpt lat="48.9651" lon="7.34195">
        <ele>371</ele>
        <time>2025-06-22T07:14:05Z</time>
      </trkpt>
      <trkpt lat="48.96512" lon="7.34203">
        <ele>371</ele>
        <time>2025-06-22T07:14:06Z</time>
      </trkpt>
      <trkpt lat="48.96514" lon="7.34209">
        <ele>371</ele>
        <time>2025-06-22T07:14:07Z</time>
      </trkpt>
      <trkpt lat="48.96517" lon="7.34214">
        <ele>371</ele>
        <time>2025-06-22T07:14:08Z</time>
      </trkpt>
      <trkpt lat="48.96521" lon="7.34219">
        <ele>371</ele>
        <time>2025-06-22T07:14:09Z</time>
      </trkpt>
      <trkpt lat="48.96525" lon="7.34223">
        <ele>371</ele>
        <time>2025-06-22T07:14:10Z</time>
      </trkpt>
      <trkpt lat="48.96526" lon="7.34227">
        <ele>371</ele>
        <time>2025-06-22T07:14:11Z</time>
      </trkpt>
      <trkpt lat="48.96528" lon="7.34232">
        <ele>371</ele>
        <time>2025-06-22T07:14:12Z</time>
      </trkpt>
      <trkpt lat="48.9653" lon="7.34237">
        <ele>371</ele>
        <time>2025-06-22T07:14:13Z</time>
      </trkpt>
      <trkpt lat="48.96532" lon="7.34242">
        <ele>371</ele>
        <time>2025-06-22T07:14:14Z</time>
      </trkpt>
      <trkpt lat="48.96533" lon="7.34247">
        <ele>371</ele>
        <time>2025-06-22T07:14:15Z</time>
      </trkpt>
      <trkpt lat="48.96536" lon="7.34252">
        <ele>371</ele>
        <time>2025-06-22T07:14:16Z</time>
      </trkpt>
      <trkpt lat="48.96538" lon="7.34257">
        <ele>371</ele>
        <time>2025-06-22T07:14:17Z</time>
      </trkpt>
      <trkpt lat="48.96541" lon="7.34263">
        <ele>371</ele>
        <time>2025-06-22T07:14:18Z</time>
      </trkpt>
      <trkpt lat="48.96543" lon="7.34269">
        <ele>371</ele>
        <time>2025-06-22T07:14:19Z</time>
      </trkpt>
      <trkpt lat="48.96544" lon="7.34275">
        <ele>370</ele>
        <time>2025-06-22T07:14:20Z</time>
      </trkpt>
      <trkpt lat="48.96545" lon="7.3428">
        <ele>370</ele>
        <time>2025-06-22T07:14:21Z</time>
      </trkpt>
      <trkpt lat="48.96545" lon="7.34286">
        <ele>370</ele>
        <time>2025-06-22T07:14:22Z</time>
      </trkpt>
      <trkpt lat="48.96542" lon="7.34303">
        <ele>367</ele>
        <time>2025-06-22T07:14:25Z</time>
      </trkpt>
      <trkpt lat="48.96533" lon="7.34306">
        <ele>367</ele>
        <time>2025-06-22T07:14:28Z</time>
      </trkpt>
      <trkpt lat="48.96527" lon="7.34318">
        <ele>361</ele>
        <time>2025-06-22T07:14:33Z</time>
      </trkpt>
      <trkpt lat="48.96518" lon="7.34324">
        <ele>358</ele>
        <time>2025-06-22T07:14:38Z</time>
      </trkpt>
      <trkpt lat="48.96512" lon="7.34339">
        <ele>355</ele>
        <time>2025-06-22T07:14:43Z</time>
      </trkpt>
      <trkpt lat="48.96502" lon="7.34339">
        <ele>355</ele>
        <time>2025-06-22T07:14:47Z</time>
      </trkpt>
      <trkpt lat="48.965" lon="7.34354">
        <ele>355</ele>
        <time>2025-06-22T07:14:52Z</time>
      </trkpt>
      <trkpt lat="48.9649" lon="7.34364">
        <ele>346</ele>
        <time>2025-06-22T07:14:56Z</time>
      </trkpt>
      <trkpt lat="48.96482" lon="7.34373">
        <ele>342</ele>
        <time>2025-06-22T07:14:59Z</time>
      </trkpt>
      <trkpt lat="48.96485" lon="7.34388">
        <ele>339</ele>
        <time>2025-06-22T07:15:02Z</time>
      </trkpt>
      <trkpt lat="48.9649" lon="7.34402">
        <ele>336</ele>
        <time>2025-06-22T07:15:05Z</time>
      </trkpt>
      <trkpt lat="48.96483" lon="7.34415">
        <ele>336</ele>
        <time>2025-06-22T07:15:11Z</time>
      </trkpt>
      <trkpt lat="48.96474" lon="7.34415">
        <ele>332</ele>
        <time>2025-06-22T07:15:14Z</time>
      </trkpt>
      <trkpt lat="48.96466" lon="7.34422">
        <ele>328</ele>
        <time>2025-06-22T07:15:17Z</time>
      </trkpt>
      <trkpt lat="48.96455" lon="7.34433">
        <ele>327</ele>
        <time>2025-06-22T07:15:20Z</time>
      </trkpt>
      <trkpt lat="48.96445" lon="7.34433">
        <ele>327</ele>
        <time>2025-06-22T07:15:22Z</time>
      </trkpt>
      <trkpt lat="48.96435" lon="7.34427">
        <ele>324</ele>
        <time>2025-06-22T07:15:24Z</time>
      </trkpt>
      <trkpt lat="48.96425" lon="7.34415">
        <ele>322</ele>
        <time>2025-06-22T07:15:27Z</time>
      </trkpt>
      <trkpt lat="48.96418" lon="7.34403">
        <ele>322</ele>
        <time>2025-06-22T07:15:29Z</time>
      </trkpt>
      <trkpt lat="48.96413" lon="7.34391">
        <ele>321</ele>
        <time>2025-06-22T07:15:31Z</time>
      </trkpt>
      <trkpt lat="48.96401" lon="7.34393">
        <ele>321</ele>
        <time>2025-06-22T07:15:34Z</time>
      </trkpt>
      <trkpt lat="48.96395" lon="7.34407">
        <ele>322</ele>
        <time>2025-06-22T07:15:37Z</time>
      </trkpt>
      <trkpt lat="48.96386" lon="7.34413">
        <ele>324</ele>
        <time>2025-06-22T07:15:40Z</time>
      </trkpt>
      <trkpt lat="48.96374" lon="7.34409">
        <ele>327</ele>
        <time>2025-06-22T07:15:45Z</time>
      </trkpt>
      <trkpt lat="48.96366" lon="7.34404">
        <ele>327</ele>
        <time>2025-06-22T07:15:49Z</time>
      </trkpt>
      <trkpt lat="48.96357" lon="7.34395">
        <ele>330</ele>
        <time>2025-06-22T07:15:52Z</time>
      </trkpt>
      <trkpt lat="48.96348" lon="7.34385">
        <ele>331</ele>
        <time>2025-06-22T07:15:57Z</time>
      </trkpt>
      <trkpt lat="48.9634" lon="7.34377">
        <ele>334</ele>
        <time>2025-06-22T07:16:01Z</time>
      </trkpt>
      <trkpt lat="48.96331" lon="7.3437">
        <ele>334</ele>
        <time>2025-06-22T07:16:04Z</time>
      </trkpt>
      <trkpt lat="48.96321" lon="7.34364">
        <ele>334</ele>
        <time>2025-06-22T07:16:07Z</time>
      </trkpt>
      <trkpt lat="48.96311" lon="7.3436">
        <ele>336</ele>
        <time>2025-06-22T07:16:12Z</time>
      </trkpt>
      <trkpt lat="48.96301" lon="7.34363">
        <ele>339</ele>
        <time>2025-06-22T07:16:16Z</time>
      </trkpt>
      <trkpt lat="48.96294" lon="7.34369">
        <ele>340</ele>
        <time>2025-06-22T07:16:19Z</time>
      </trkpt>
      <trkpt lat="48.96292" lon="7.34376">
        <ele>341</ele>
        <time>2025-06-22T07:16:23Z</time>
      </trkpt>
      <trkpt lat="48.96293" lon="7.3438">
        <ele>342</ele>
        <time>2025-06-22T07:16:24Z</time>
      </trkpt>
      <trkpt lat="48.96293" lon="7.34383">
        <ele>343</ele>
        <time>2025-06-22T07:16:25Z</time>
      </trkpt>
      <trkpt lat="48.96293" lon="7.34386">
        <ele>343</ele>
        <time>2025-06-22T07:16:26Z</time>
      </trkpt>
      <trkpt lat="48.96292" lon="7.34391">
        <ele>344</ele>
        <time>2025-06-22T07:16:28Z</time>
      </trkpt>
      <trkpt lat="48.96291" lon="7.34394">
        <ele>344</ele>
        <time>2025-06-22T07:16:29Z</time>
      </trkpt>
      <trkpt lat="48.96289" lon="7.34396">
        <ele>345</ele>
        <time>2025-06-22T07:16:30Z</time>
      </trkpt>
      <trkpt lat="48.96289" lon="7.34399">
        <ele>345</ele>
        <time>2025-06-22T07:16:31Z</time>
      </trkpt>
      <trkpt lat="48.96287" lon="7.34401">
        <ele>347</ele>
        <time>2025-06-22T07:16:32Z</time>
      </trkpt>
      <trkpt lat="48.96286" lon="7.34403">
        <ele>347</ele>
        <time>2025-06-22T07:16:33Z</time>
      </trkpt>
      <trkpt lat="48.96285" lon="7.34408">
        <ele>347</ele>
        <time>2025-06-22T07:16:35Z</time>
      </trkpt>
      <trkpt lat="48.96284" lon="7.34411">
        <ele>347</ele>
        <time>2025-06-22T07:16:37Z</time>
      </trkpt>
      <trkpt lat="48.96282" lon="7.34412">
        <ele>348</ele>
        <time>2025-06-22T07:16:40Z</time>
      </trkpt>
      <trkpt lat="48.96281" lon="7.34415">
        <ele>349</ele>
        <time>2025-06-22T07:16:42Z</time>
      </trkpt>
      <trkpt lat="48.9628" lon="7.34418">
        <ele>350</ele>
        <time>2025-06-22T07:16:45Z</time>
      </trkpt>
      <trkpt lat="48.96279" lon="7.34421">
        <ele>350</ele>
        <time>2025-06-22T07:16:48Z</time>
      </trkpt>
      <trkpt lat="48.96278" lon="7.34424">
        <ele>350</ele>
        <time>2025-06-22T07:16:51Z</time>
      </trkpt>
      <trkpt lat="48.96276" lon="7.34427">
        <ele>351</ele>
        <time>2025-06-22T07:16:54Z</time>
      </trkpt>
      <trkpt lat="48.96274" lon="7.3443">
        <ele>352</ele>
        <time>2025-06-22T07:16:56Z</time>
      </trkpt>
      <trkpt lat="48.96272" lon="7.34432">
        <ele>352</ele>
        <time>2025-06-22T07:16:58Z</time>
      </trkpt>
      <trkpt lat="48.96271" lon="7.34436">
        <ele>353</ele>
        <time>2025-06-22T07:17:02Z</time>
      </trkpt>
      <trkpt lat="48.9627" lon="7.34439">
        <ele>353</ele>
        <time>2025-06-22T07:17:04Z</time>
      </trkpt>
      <trkpt lat="48.96268" lon="7.34441">
        <ele>353</ele>
        <time>2025-06-22T07:17:06Z</time>
      </trkpt>
      <trkpt lat="48.96266" lon="7.34444">
        <ele>354</ele>
        <time>2025-06-22T07:17:08Z</time>
      </trkpt>
      <trkpt lat="48.96265" lon="7.34446">
        <ele>354</ele>
        <time>2025-06-22T07:17:10Z</time>
      </trkpt>
      <trkpt lat="48.96264" lon="7.3445">
        <ele>355</ele>
        <time>2025-06-22T07:17:13Z</time>
      </trkpt>
      <trkpt lat="48.96264" lon="7.34454">
        <ele>355</ele>
        <time>2025-06-22T07:17:15Z</time>
      </trkpt>
      <trkpt lat="48.96263" lon="7.34457">
        <ele>356</ele>
        <time>2025-06-22T07:17:17Z</time>
      </trkpt>
      <trkpt lat="48.96261" lon="7.34459">
        <ele>356</ele>
        <time>2025-06-22T07:17:19Z</time>
      </trkpt>
      <trkpt lat="48.9626" lon="7.34462">
        <ele>356</ele>
        <time>2025-06-22T07:17:21Z</time>
      </trkpt>
      <trkpt lat="48.96259" lon="7.34464">
        <ele>357</ele>
        <time>2025-06-22T07:17:24Z</time>
      </trkpt>
      <trkpt lat="48.96258" lon="7.34468">
        <ele>358</ele>
        <time>2025-06-22T07:17:27Z</time>
      </trkpt>
      <trkpt lat="48.96256" lon="7.34472">
        <ele>358</ele>
        <time>2025-06-22T07:17:29Z</time>
      </trkpt>
      <trkpt lat="48.96255" lon="7.34475">
        <ele>358</ele>
        <time>2025-06-22T07:17:30Z</time>
      </trkpt>
      <trkpt lat="48.96253" lon="7.34481">
        <ele>358</ele>
        <time>2025-06-22T07:17:31Z</time>
      </trkpt>
      <trkpt lat="48.96252" lon="7.34483">
        <ele>359</ele>
        <time>2025-06-22T07:17:33Z</time>
      </trkpt>
      <trkpt lat="48.9625" lon="7.34484">
        <ele>359</ele>
        <time>2025-06-22T07:17:34Z</time>
      </trkpt>
      <trkpt lat="48.96248" lon="7.34484">
        <ele>359</ele>
        <time>2025-06-22T07:17:35Z</time>
      </trkpt>
      <trkpt lat="48.96246" lon="7.34486">
        <ele>359</ele>
        <time>2025-06-22T07:17:36Z</time>
      </trkpt>
      <trkpt lat="48.96244" lon="7.34487">
        <ele>359</ele>
        <time>2025-06-22T07:17:37Z</time>
      </trkpt>
      <trkpt lat="48.96235" lon="7.34491">
        <ele>360</ele>
        <time>2025-06-22T07:17:41Z</time>
      </trkpt>
      <trkpt lat="48.96233" lon="7.34494">
        <ele>360</ele>
        <time>2025-06-22T07:17:42Z</time>
      </trkpt>
      <trkpt lat="48.96231" lon="7.34498">
        <ele>360</ele>
        <time>2025-06-22T07:17:43Z</time>
      </trkpt>
      <trkpt lat="48.9623" lon="7.34501">
        <ele>360</ele>
        <time>2025-06-22T07:17:44Z</time>
      </trkpt>
      <trkpt lat="48.96231" lon="7.34505">
        <ele>360</ele>
        <time>2025-06-22T07:17:46Z</time>
      </trkpt>
      <trkpt lat="48.96233" lon="7.34507">
        <ele>360</ele>
        <time>2025-06-22T07:17:49Z</time>
      </trkpt>
      <trkpt lat="48.96236" lon="7.34507">
        <ele>361</ele>
        <time>2025-06-22T07:17:51Z</time>
      </trkpt>
      <trkpt lat="48.96239" lon="7.34509">
        <ele>361</ele>
        <time>2025-06-22T07:17:53Z</time>
      </trkpt>
      <trkpt lat="48.96241" lon="7.3451">
        <ele>361</ele>
        <time>2025-06-22T07:17:55Z</time>
      </trkpt>
      <trkpt lat="48.96243" lon="7.34512">
        <ele>361</ele>
        <time>2025-06-22T07:17:57Z</time>
      </trkpt>
      <trkpt lat="48.96245" lon="7.34513">
        <ele>361</ele>
        <time>2025-06-22T07:17:59Z</time>
      </trkpt>
      <trkpt lat="48.96248" lon="7.34515">
        <ele>361</ele>
        <time>2025-06-22T07:18:01Z</time>
      </trkpt>
      <trkpt lat="48.96252" lon="7.34517">
        <ele>361</ele>
        <time>2025-06-22T07:18:03Z</time>
      </trkpt>
      <trkpt lat="48.96255" lon="7.34519">
        <ele>361</ele>
        <time>2025-06-22T07:18:05Z</time>
      </trkpt>
      <trkpt lat="48.96258" lon="7.34521">
        <ele>361</ele>
        <time>2025-06-22T07:18:06Z</time>
      </trkpt>
      <trkpt lat="48.9626" lon="7.34523">
        <ele>361</ele>
        <time>2025-06-22T07:18:07Z</time>
      </trkpt>
      <trkpt lat="48.96263" lon="7.34525">
        <ele>361</ele>
        <time>2025-06-22T07:18:08Z</time>
      </trkpt>
      <trkpt lat="48.96266" lon="7.34527">
        <ele>361</ele>
        <time>2025-06-22T07:18:09Z</time>
      </trkpt>
      <trkpt lat="48.9627" lon="7.3453">
        <ele>361</ele>
        <time>2025-06-22T07:18:10Z</time>
      </trkpt>
      <trkpt lat="48.96273" lon="7.34532">
        <ele>361</ele>
        <time>2025-06-22T07:18:11Z</time>
      </trkpt>
      <trkpt lat="48.96277" lon="7.34533">
        <ele>361</ele>
        <time>2025-06-22T07:18:12Z</time>
      </trkpt>
      <trkpt lat="48.96281" lon="7.34535">
        <ele>361</ele>
        <time>2025-06-22T07:18:13Z</time>
      </trkpt>
      <trkpt lat="48.96289" lon="7.3454">
        <ele>360</ele>
        <time>2025-06-22T07:18:15Z</time>
      </trkpt>
      <trkpt lat="48.96298" lon="7.34547">
        <ele>359</ele>
        <time>2025-06-22T07:18:17Z</time>
      </trkpt>
      <trkpt lat="48.96307" lon="7.3456">
        <ele>359</ele>
        <time>2025-06-22T07:18:20Z</time>
      </trkpt>
      <trkpt lat="48.96314" lon="7.34572">
        <ele>359</ele>
        <time>2025-06-22T07:18:22Z</time>
      </trkpt>
      <trkpt lat="48.96322" lon="7.34587">
        <ele>359</ele>
        <time>2025-06-22T07:18:25Z</time>
      </trkpt>
      <trkpt lat="48.96329" lon="7.34604">
        <ele>359</ele>
        <time>2025-06-22T07:18:28Z</time>
      </trkpt>
      <trkpt lat="48.96337" lon="7.34619">
        <ele>359</ele>
        <time>2025-06-22T07:18:30Z</time>
      </trkpt>
      <trkpt lat="48.9634" lon="7.34627">
        <ele>358</ele>
        <time>2025-06-22T07:18:31Z</time>
      </trkpt>
      <trkpt lat="48.96343" lon="7.34635">
        <ele>358</ele>
        <time>2025-06-22T07:18:32Z</time>
      </trkpt>
      <trkpt lat="48.96346" lon="7.34643">
        <ele>358</ele>
        <time>2025-06-22T07:18:33Z</time>
      </trkpt>
      <trkpt lat="48.96347" lon="7.34651">
        <ele>358</ele>
        <time>2025-06-22T07:18:34Z</time>
      </trkpt>
      <trkpt lat="48.9635" lon="7.34659">
        <ele>358</ele>
        <time>2025-06-22T07:18:35Z</time>
      </trkpt>
      <trkpt lat="48.96352" lon="7.34665">
        <ele>357</ele>
        <time>2025-06-22T07:18:36Z</time>
      </trkpt>
      <trkpt lat="48.96354" lon="7.34672">
        <ele>357</ele>
        <time>2025-06-22T07:18:37Z</time>
      </trkpt>
      <trkpt lat="48.96355" lon="7.3468">
        <ele>357</ele>
        <time>2025-06-22T07:18:38Z</time>
      </trkpt>
      <trkpt lat="48.96357" lon="7.34687">
        <ele>357</ele>
        <time>2025-06-22T07:18:39Z</time>
      </trkpt>
      <trkpt lat="48.96359" lon="7.34693">
        <ele>357</ele>
        <time>2025-06-22T07:18:40Z</time>
      </trkpt>
      <trkpt lat="48.9636" lon="7.34699">
        <ele>357</ele>
        <time>2025-06-22T07:18:41Z</time>
      </trkpt>
      <trkpt lat="48.96362" lon="7.34704">
        <ele>357</ele>
        <time>2025-06-22T07:18:42Z</time>
      </trkpt>
      <trkpt lat="48.96365" lon="7.3471">
        <ele>357</ele>
        <time>2025-06-22T07:18:43Z</time>
      </trkpt>
      <trkpt lat="48.96367" lon="7.34715">
        <ele>357</ele>
        <time>2025-06-22T07:18:44Z</time>
      </trkpt>
      <trkpt lat="48.96369" lon="7.3472">
        <ele>357</ele>
        <time>2025-06-22T07:18:45Z</time>
      </trkpt>
      <trkpt lat="48.96371" lon="7.34725">
        <ele>357</ele>
        <time>2025-06-22T07:18:46Z</time>
      </trkpt>
      <trkpt lat="48.96374" lon="7.34729">
        <ele>357</ele>
        <time>2025-06-22T07:18:47Z</time>
      </trkpt>
      <trkpt lat="48.96375" lon="7.34734">
        <ele>357</ele>
        <time>2025-06-22T07:18:48Z</time>
      </trkpt>
      <trkpt lat="48.96378" lon="7.34739">
        <ele>357</ele>
        <time>2025-06-22T07:18:49Z</time>
      </trkpt>
      <trkpt lat="48.9638" lon="7.34746">
        <ele>357</ele>
        <time>2025-06-22T07:18:50Z</time>
      </trkpt>
      <trkpt lat="48.96383" lon="7.34752">
        <ele>357</ele>
        <time>2025-06-22T07:18:51Z</time>
      </trkpt>
      <trkpt lat="48.96385" lon="7.34758">
        <ele>357</ele>
        <time>2025-06-22T07:18:52Z</time>
      </trkpt>
      <trkpt lat="48.96388" lon="7.34766">
        <ele>357</ele>
        <time>2025-06-22T07:18:53Z</time>
      </trkpt>
      <trkpt lat="48.9639" lon="7.34773">
        <ele>357</ele>
        <time>2025-06-22T07:18:54Z</time>
      </trkpt>
      <trkpt lat="48.96393" lon="7.3478">
        <ele>356</ele>
        <time>2025-06-22T07:18:55Z</time>
      </trkpt>
      <trkpt lat="48.96397" lon="7.34788">
        <ele>355</ele>
        <time>2025-06-22T07:18:56Z</time>
      </trkpt>
      <trkpt lat="48.96405" lon="7.34807">
        <ele>354</ele>
        <time>2025-06-22T07:18:58Z</time>
      </trkpt>
      <trkpt lat="48.96412" lon="7.34828">
        <ele>353</ele>
        <time>2025-06-22T07:19:00Z</time>
      </trkpt>
      <trkpt lat="48.96416" lon="7.34852">
        <ele>353</ele>
        <time>2025-06-22T07:19:02Z</time>
      </trkpt>
      <trkpt lat="48.9642" lon="7.34878">
        <ele>351</ele>
        <time>2025-06-22T07:19:04Z</time>
      </trkpt>
      <trkpt lat="48.96422" lon="7.34903">
        <ele>351</ele>
        <time>2025-06-22T07:19:06Z</time>
      </trkpt>
      <trkpt lat="48.96425" lon="7.34926">
        <ele>351</ele>
        <time>2025-06-22T07:19:08Z</time>
      </trkpt>
      <trkpt lat="48.96428" lon="7.34952">
        <ele>348</ele>
        <time>2025-06-22T07:19:10Z</time>
      </trkpt>
      <trkpt lat="48.96429" lon="7.34976">
        <ele>348</ele>
        <time>2025-06-22T07:19:12Z</time>
      </trkpt>
      <trkpt lat="48.96427" lon="7.35">
        <ele>348</ele>
        <time>2025-06-22T07:19:14Z</time>
      </trkpt>
      <trkpt lat="48.96426" lon="7.35019">
        <ele>348</ele>
        <time>2025-06-22T07:19:16Z</time>
      </trkpt>
      <trkpt lat="48.96424" lon="7.35035">
        <ele>348</ele>
        <time>2025-06-22T07:19:18Z</time>
      </trkpt>
      <trkpt lat="48.96423" lon="7.35043">
        <ele>348</ele>
        <time>2025-06-22T07:19:19Z</time>
      </trkpt>
      <trkpt lat="48.96422" lon="7.35049">
        <ele>348</ele>
        <time>2025-06-22T07:19:20Z</time>
      </trkpt>
      <trkpt lat="48.96421" lon="7.35055">
        <ele>349</ele>
        <time>2025-06-22T07:19:21Z</time>
      </trkpt>
      <trkpt lat="48.9642" lon="7.3506">
        <ele>349</ele>
        <time>2025-06-22T07:19:22Z</time>
      </trkpt>
      <trkpt lat="48.96419" lon="7.35066">
        <ele>350</ele>
        <time>2025-06-22T07:19:23Z</time>
      </trkpt>
      <trkpt lat="48.96414" lon="7.35076">
        <ele>350</ele>
        <time>2025-06-22T07:19:25Z</time>
      </trkpt>
      <trkpt lat="48.96409" lon="7.35083">
        <ele>350</ele>
        <time>2025-06-22T07:19:26Z</time>
      </trkpt>
      <trkpt lat="48.96405" lon="7.35086">
        <ele>351</ele>
        <time>2025-06-22T07:19:28Z</time>
      </trkpt>
      <trkpt lat="48.964" lon="7.35088">
        <ele>351</ele>
        <time>2025-06-22T07:19:29Z</time>
      </trkpt>
      <trkpt lat="48.96396" lon="7.35092">
        <ele>352</ele>
        <time>2025-06-22T07:19:30Z</time>
      </trkpt>
      <trkpt lat="48.96392" lon="7.35095">
        <ele>352</ele>
        <time>2025-06-22T07:19:31Z</time>
      </trkpt>
      <trkpt lat="48.96388" lon="7.35098">
        <ele>352</ele>
        <time>2025-06-22T07:19:32Z</time>
      </trkpt>
      <trkpt lat="48.96386" lon="7.351">
        <ele>352</ele>
        <time>2025-06-22T07:19:33Z</time>
      </trkpt>
      <trkpt lat="48.96383" lon="7.35102">
        <ele>351</ele>
        <time>2025-06-22T07:19:34Z</time>
      </trkpt>
      <trkpt lat="48.9638" lon="7.35104">
        <ele>351</ele>
        <time>2025-06-22T07:19:35Z</time>
      </trkpt>
      <trkpt lat="48.96377" lon="7.35106">
        <ele>352</ele>
        <time>2025-06-22T07:19:36Z</time>
      </trkpt>
      <trkpt lat="48.96375" lon="7.35107">
        <ele>352</ele>
        <time>2025-06-22T07:19:37Z</time>
      </trkpt>
      <trkpt lat="48.96371" lon="7.35108">
        <ele>352</ele>
        <time>2025-06-22T07:19:38Z</time>
      </trkpt>
      <trkpt lat="48.96366" lon="7.35109">
        <ele>352</ele>
        <time>2025-06-22T07:19:39Z</time>
      </trkpt>
      <trkpt lat="48.96361" lon="7.35108">
        <ele>353</ele>
        <time>2025-06-22T07:19:40Z</time>
      </trkpt>
      <trkpt lat="48.96357" lon="7.35107">
        <ele>353</ele>
        <time>2025-06-22T07:19:41Z</time>
      </trkpt>
      <trkpt lat="48.96353" lon="7.35107">
        <ele>353</ele>
        <time>2025-06-22T07:19:42Z</time>
      </trkpt>
      <trkpt lat="48.96349" lon="7.35105">
        <ele>353</ele>
        <time>2025-06-22T07:19:43Z</time>
      </trkpt>
      <trkpt lat="48.96346" lon="7.35104">
        <ele>353</ele>
        <time>2025-06-22T07:19:44Z</time>
      </trkpt>
      <trkpt lat="48.96343" lon="7.35103">
        <ele>353</ele>
        <time>2025-06-22T07:19:45Z</time>
      </trkpt>
      <trkpt lat="48.96332" lon="7.35097">
        <ele>353</ele>
        <time>2025-06-22T07:19:48Z</time>
      </trkpt>
      <trkpt lat="48.9632" lon="7.35092">
        <ele>353</ele>
        <time>2025-06-22T07:19:51Z</time>
      </trkpt>
      <trkpt lat="48.96306" lon="7.35089">
        <ele>353</ele>
        <time>2025-06-22T07:19:54Z</time>
      </trkpt>
      <trkpt lat="48.96295" lon="7.35088">
        <ele>354</ele>
        <time>2025-06-22T07:19:57Z</time>
      </trkpt>
      <trkpt lat="48.96286" lon="7.35087">
        <ele>354</ele>
        <time>2025-06-22T07:19:59Z</time>
      </trkpt>
      <trkpt lat="48.96283" lon="7.35086">
        <ele>355</ele>
        <time>2025-06-22T07:20:00Z</time>
      </trkpt>
      <trkpt lat="48.96271" lon="7.35084">
        <ele>355</ele>
        <time>2025-06-22T07:20:03Z</time>
      </trkpt>
      <trkpt lat="48.9626" lon="7.35079">
        <ele>356</ele>
        <time>2025-06-22T07:20:06Z</time>
      </trkpt>
      <trkpt lat="48.96249" lon="7.35076">
        <ele>356</ele>
        <time>2025-06-22T07:20:09Z</time>
      </trkpt>
      <trkpt lat="48.96238" lon="7.35075">
        <ele>356</ele>
        <time>2025-06-22T07:20:12Z</time>
      </trkpt>
      <trkpt lat="48.96225" lon="7.35073">
        <ele>356</ele>
        <time>2025-06-22T07:20:15Z</time>
      </trkpt>
      <trkpt lat="48.96214" lon="7.35072">
        <ele>357</ele>
        <time>2025-06-22T07:20:17Z</time>
      </trkpt>
      <trkpt lat="48.96205" lon="7.3507">
        <ele>357</ele>
        <time>2025-06-22T07:20:20Z</time>
      </trkpt>
      <trkpt lat="48.96193" lon="7.3507">
        <ele>358</ele>
        <time>2025-06-22T07:20:23Z</time>
      </trkpt>
      <trkpt lat="48.96184" lon="7.35071">
        <ele>358</ele>
        <time>2025-06-22T07:20:25Z</time>
      </trkpt>
      <trkpt lat="48.96174" lon="7.35072">
        <ele>358</ele>
        <time>2025-06-22T07:20:27Z</time>
      </trkpt>
      <trkpt lat="48.96162" lon="7.35073">
        <ele>358</ele>
        <time>2025-06-22T07:20:30Z</time>
      </trkpt>
      <trkpt lat="48.96152" lon="7.35078">
        <ele>358</ele>
        <time>2025-06-22T07:20:33Z</time>
      </trkpt>
      <trkpt lat="48.96141" lon="7.35086">
        <ele>359</ele>
        <time>2025-06-22T07:20:36Z</time>
      </trkpt>
      <trkpt lat="48.96132" lon="7.35096">
        <ele>359</ele>
        <time>2025-06-22T07:20:39Z</time>
      </trkpt>
      <trkpt lat="48.96123" lon="7.35109">
        <ele>359</ele>
        <time>2025-06-22T07:20:42Z</time>
      </trkpt>
      <trkpt lat="48.96113" lon="7.35119">
        <ele>359</ele>
        <time>2025-06-22T07:20:45Z</time>
      </trkpt>
      <trkpt lat="48.96102" lon="7.35126">
        <ele>359</ele>
        <time>2025-06-22T07:20:48Z</time>
      </trkpt>
      <trkpt lat="48.9609" lon="7.35131">
        <ele>359</ele>
        <time>2025-06-22T07:20:51Z</time>
      </trkpt>
      <trkpt lat="48.9608" lon="7.35134">
        <ele>360</ele>
        <time>2025-06-22T07:20:53Z</time>
      </trkpt>
      <trkpt lat="48.96067" lon="7.35137">
        <ele>360</ele>
        <time>2025-06-22T07:20:56Z</time>
      </trkpt>
      <trkpt lat="48.96056" lon="7.3514">
        <ele>360</ele>
        <time>2025-06-22T07:20:59Z</time>
      </trkpt>
      <trkpt lat="48.96049" lon="7.35148">
        <ele>361</ele>
        <time>2025-06-22T07:21:02Z</time>
      </trkpt>
      <trkpt lat="48.96039" lon="7.35155">
        <ele>361</ele>
        <time>2025-06-22T07:21:05Z</time>
      </trkpt>
      <trkpt lat="48.96029" lon="7.35165">
        <ele>361</ele>
        <time>2025-06-22T07:21:08Z</time>
      </trkpt>
      <trkpt lat="48.9602" lon="7.35173">
        <ele>361</ele>
        <time>2025-06-22T07:21:11Z</time>
      </trkpt>
      <trkpt lat="48.96016" lon="7.35176">
        <ele>361</ele>
        <time>2025-06-22T07:21:12Z</time>
      </trkpt>
      <trkpt lat="48.96012" lon="7.3518">
        <ele>361</ele>
        <time>2025-06-22T07:21:13Z</time>
      </trkpt>
      <trkpt lat="48.96008" lon="7.35184">
        <ele>362</ele>
        <time>2025-06-22T07:21:14Z</time>
      </trkpt>
      <trkpt lat="48.96004" lon="7.35188">
        <ele>362</ele>
        <time>2025-06-22T07:21:15Z</time>
      </trkpt>
      <trkpt lat="48.96" lon="7.35191">
        <ele>362</ele>
        <time>2025-06-22T07:21:16Z</time>
      </trkpt>
      <trkpt lat="48.95996" lon="7.35193">
        <ele>363</ele>
        <time>2025-06-22T07:21:17Z</time>
      </trkpt>
      <trkpt lat="48.95992" lon="7.35196">
        <ele>363</ele>
        <time>2025-06-22T07:21:18Z</time>
      </trkpt>
      <trkpt lat="48.95989" lon="7.35198">
        <ele>363</ele>
        <time>2025-06-22T07:21:19Z</time>
      </trkpt>
      <trkpt lat="48.95985" lon="7.35199">
        <ele>363</ele>
        <time>2025-06-22T07:21:20Z</time>
      </trkpt>
      <trkpt lat="48.95981" lon="7.35201">
        <ele>364</ele>
        <time>2025-06-22T07:21:21Z</time>
      </trkpt>
      <trkpt lat="48.95977" lon="7.35202">
        <ele>364</ele>
        <time>2025-06-22T07:21:22Z</time>
      </trkpt>
      <trkpt lat="48.95972" lon="7.35205">
        <ele>364</ele>
        <time>2025-06-22T07:21:23Z</time>
      </trkpt>
      <trkpt lat="48.95968" lon="7.35206">
        <ele>364</ele>
        <time>2025-06-22T07:21:24Z</time>
      </trkpt>
      <trkpt lat="48.95964" lon="7.35208">
        <ele>364</ele>
        <time>2025-06-22T07:21:25Z</time>
      </trkpt>
      <trkpt lat="48.9596" lon="7.35209">
        <ele>364</ele>
        <time>2025-06-22T07:21:26Z</time>
      </trkpt>
      <trkpt lat="48.95957" lon="7.3521">
        <ele>365</ele>
        <time>2025-06-22T07:21:27Z</time>
      </trkpt>
      <trkpt lat="48.95952" lon="7.35212">
        <ele>365</ele>
        <time>2025-06-22T07:21:28Z</time>
      </trkpt>
      <trkpt lat="48.95944" lon="7.35215">
        <ele>365</ele>
        <time>2025-06-22T07:21:29Z</time>
      </trkpt>
      <trkpt lat="48.95941" lon="7.35217">
        <ele>365</ele>
        <time>2025-06-22T07:21:31Z</time>
      </trkpt>
      <trkpt lat="48.95938" lon="7.35218">
        <ele>365</ele>
        <time>2025-06-22T07:21:32Z</time>
      </trkpt>
      <trkpt lat="48.95934" lon="7.3522">
        <ele>365</ele>
        <time>2025-06-22T07:21:33Z</time>
      </trkpt>
      <trkpt lat="48.95931" lon="7.35223">
        <ele>365</ele>
        <time>2025-06-22T07:21:34Z</time>
      </trkpt>
      <trkpt lat="48.95928" lon="7.35227">
        <ele>365</ele>
        <time>2025-06-22T07:21:35Z</time>
      </trkpt>
      <trkpt lat="48.95925" lon="7.35232">
        <ele>365</ele>
        <time>2025-06-22T07:21:36Z</time>
      </trkpt>
      <trkpt lat="48.95921" lon="7.35236">
        <ele>365</ele>
        <time>2025-06-22T07:21:37Z</time>
      </trkpt>
      <trkpt lat="48.95919" lon="7.35241">
        <ele>365</ele>
        <time>2025-06-22T07:21:38Z</time>
      </trkpt>
      <trkpt lat="48.95915" lon="7.35246">
        <ele>365</ele>
        <time>2025-06-22T07:21:39Z</time>
      </trkpt>
      <trkpt lat="48.95912" lon="7.3525">
        <ele>365</ele>
        <time>2025-06-22T07:21:40Z</time>
      </trkpt>
      <trkpt lat="48.95909" lon="7.35255">
        <ele>365</ele>
        <time>2025-06-22T07:21:41Z</time>
      </trkpt>
      <trkpt lat="48.95907" lon="7.35259">
        <ele>365</ele>
        <time>2025-06-22T07:21:42Z</time>
      </trkpt>
      <trkpt lat="48.95904" lon="7.35264">
        <ele>365</ele>
        <time>2025-06-22T07:21:43Z</time>
      </trkpt>
      <trkpt lat="48.95902" lon="7.35268">
        <ele>365</ele>
        <time>2025-06-22T07:21:44Z</time>
      </trkpt>
      <trkpt lat="48.959" lon="7.35273">
        <ele>365</ele>
        <time>2025-06-22T07:21:45Z</time>
      </trkpt>
      <trkpt lat="48.95898" lon="7.35277">
        <ele>365</ele>
        <time>2025-06-22T07:21:46Z</time>
      </trkpt>
      <trkpt lat="48.95896" lon="7.35282">
        <ele>366</ele>
        <time>2025-06-22T07:21:47Z</time>
      </trkpt>
      <trkpt lat="48.95895" lon="7.35286">
        <ele>366</ele>
        <time>2025-06-22T07:21:48Z</time>
      </trkpt>
      <trkpt lat="48.95893" lon="7.3529">
        <ele>367</ele>
        <time>2025-06-22T07:21:49Z</time>
      </trkpt>
      <trkpt lat="48.95893" lon="7.35294">
        <ele>367</ele>
        <time>2025-06-22T07:21:50Z</time>
      </trkpt>
      <trkpt lat="48.95892" lon="7.35298">
        <ele>367</ele>
        <time>2025-06-22T07:21:51Z</time>
      </trkpt>
      <trkpt lat="48.95891" lon="7.35302">
        <ele>367</ele>
        <time>2025-06-22T07:21:52Z</time>
      </trkpt>
      <trkpt lat="48.95889" lon="7.35305">
        <ele>368</ele>
        <time>2025-06-22T07:21:53Z</time>
      </trkpt>
      <trkpt lat="48.95888" lon="7.3531">
        <ele>369</ele>
        <time>2025-06-22T07:21:54Z</time>
      </trkpt>
      <trkpt lat="48.95887" lon="7.35314">
        <ele>369</ele>
        <time>2025-06-22T07:21:55Z</time>
      </trkpt>
      <trkpt lat="48.95886" lon="7.35318">
        <ele>369</ele>
        <time>2025-06-22T07:21:56Z</time>
      </trkpt>
      <trkpt lat="48.95884" lon="7.35322">
        <ele>369</ele>
        <time>2025-06-22T07:21:57Z</time>
      </trkpt>
      <trkpt lat="48.95884" lon="7.35326">
        <ele>370</ele>
        <time>2025-06-22T07:21:58Z</time>
      </trkpt>
      <trkpt lat="48.95883" lon="7.35331">
        <ele>370</ele>
        <time>2025-06-22T07:21:59Z</time>
      </trkpt>
      <trkpt lat="48.95884" lon="7.35335">
        <ele>371</ele>
        <time>2025-06-22T07:22:00Z</time>
      </trkpt>
      <trkpt lat="48.95884" lon="7.3534">
        <ele>371</ele>
        <time>2025-06-22T07:22:01Z</time>
      </trkpt>
      <trkpt lat="48.95884" lon="7.35344">
        <ele>370</ele>
        <time>2025-06-22T07:22:02Z</time>
      </trkpt>
      <trkpt lat="48.95883" lon="7.35347">
        <ele>371</ele>
        <time>2025-06-22T07:22:03Z</time>
      </trkpt>
      <trkpt lat="48.95882" lon="7.35351">
        <ele>371</ele>
        <time>2025-06-22T07:22:05Z</time>
      </trkpt>
      <trkpt lat="48.95881" lon="7.35354">
        <ele>371</ele>
        <time>2025-06-22T07:22:06Z</time>
      </trkpt>
      <trkpt lat="48.95881" lon="7.35358">
        <ele>371</ele>
        <time>2025-06-22T07:22:07Z</time>
      </trkpt>
      <trkpt lat="48.9588" lon="7.35363">
        <ele>371</ele>
        <time>2025-06-22T07:22:08Z</time>
      </trkpt>
      <trkpt lat="48.95879" lon="7.35367">
        <ele>372</ele>
        <time>2025-06-22T07:22:09Z</time>
      </trkpt>
      <trkpt lat="48.95878" lon="7.35371">
        <ele>372</ele>
        <time>2025-06-22T07:22:10Z</time>
      </trkpt>
      <trkpt lat="48.95877" lon="7.35376">
        <ele>372</ele>
        <time>2025-06-22T07:22:12Z</time>
      </trkpt>
      <trkpt lat="48.95876" lon="7.35379">
        <ele>373</ele>
        <time>2025-06-22T07:22:13Z</time>
      </trkpt>
      <trkpt lat="48.95874" lon="7.35383">
        <ele>373</ele>
        <time>2025-06-22T07:22:14Z</time>
      </trkpt>
      <trkpt lat="48.95872" lon="7.35388">
        <ele>373</ele>
        <time>2025-06-22T07:22:15Z</time>
      </trkpt>
      <trkpt lat="48.9587" lon="7.35392">
        <ele>374</ele>
        <time>2025-06-22T07:22:16Z</time>
      </trkpt>
      <trkpt lat="48.95869" lon="7.35396">
        <ele>374</ele>
        <time>2025-06-22T07:22:17Z</time>
      </trkpt>
      <trkpt lat="48.95868" lon="7.354">
        <ele>374</ele>
        <time>2025-06-22T07:22:18Z</time>
      </trkpt>
      <trkpt lat="48.95866" lon="7.35404">
        <ele>374</ele>
        <time>2025-06-22T07:22:19Z</time>
      </trkpt>
      <trkpt lat="48.95865" lon="7.35407">
        <ele>374</ele>
        <time>2025-06-22T07:22:20Z</time>
      </trkpt>
      <trkpt lat="48.95863" lon="7.35412">
        <ele>374</ele>
        <time>2025-06-22T07:22:21Z</time>
      </trkpt>
      <trkpt lat="48.95854" lon="7.35419">
        <ele>375</ele>
        <time>2025-06-22T07:22:25Z</time>
      </trkpt>
      <trkpt lat="48.95852" lon="7.3542">
        <ele>376</ele>
        <time>2025-06-22T07:22:26Z</time>
      </trkpt>
      <trkpt lat="48.95849" lon="7.35422">
        <ele>376</ele>
        <time>2025-06-22T07:22:27Z</time>
      </trkpt>
      <trkpt lat="48.95846" lon="7.35423">
        <ele>377</ele>
        <time>2025-06-22T07:22:28Z</time>
      </trkpt>
      <trkpt lat="48.95842" lon="7.35425">
        <ele>377</ele>
        <time>2025-06-22T07:22:29Z</time>
      </trkpt>
      <trkpt lat="48.95832" lon="7.35432">
        <ele>377</ele>
        <time>2025-06-22T07:22:33Z</time>
      </trkpt>
      <trkpt lat="48.95829" lon="7.35439">
        <ele>378</ele>
        <time>2025-06-22T07:22:37Z</time>
      </trkpt>
      <trkpt lat="48.95827" lon="7.35442">
        <ele>379</ele>
        <time>2025-06-22T07:22:38Z</time>
      </trkpt>
      <trkpt lat="48.95825" lon="7.35445">
        <ele>379</ele>
        <time>2025-06-22T07:22:39Z</time>
      </trkpt>
      <trkpt lat="48.95825" lon="7.35448">
        <ele>380</ele>
        <time>2025-06-22T07:22:40Z</time>
      </trkpt>
      <trkpt lat="48.95824" lon="7.35451">
        <ele>380</ele>
        <time>2025-06-22T07:22:41Z</time>
      </trkpt>
      <trkpt lat="48.95824" lon="7.35454">
        <ele>380</ele>
        <time>2025-06-22T07:22:42Z</time>
      </trkpt>
      <trkpt lat="48.95823" lon="7.35458">
        <ele>380</ele>
        <time>2025-06-22T07:22:43Z</time>
      </trkpt>
      <trkpt lat="48.95823" lon="7.35461">
        <ele>381</ele>
        <time>2025-06-22T07:22:44Z</time>
      </trkpt>
      <trkpt lat="48.95823" lon="7.35465">
        <ele>381</ele>
        <time>2025-06-22T07:22:45Z</time>
      </trkpt>
      <trkpt lat="48.95823" lon="7.35468">
        <ele>381</ele>
        <time>2025-06-22T07:22:46Z</time>
      </trkpt>
      <trkpt lat="48.95822" lon="7.35471">
        <ele>381</ele>
        <time>2025-06-22T07:22:47Z</time>
      </trkpt>
      <trkpt lat="48.95822" lon="7.35474">
        <ele>381</ele>
        <time>2025-06-22T07:22:48Z</time>
      </trkpt>
      <trkpt lat="48.95821" lon="7.35478">
        <ele>381</ele>
        <time>2025-06-22T07:22:49Z</time>
      </trkpt>
      <trkpt lat="48.95821" lon="7.35481">
        <ele>381</ele>
        <time>2025-06-22T07:22:50Z</time>
      </trkpt>
      <trkpt lat="48.95821" lon="7.35485">
        <ele>381</ele>
        <time>2025-06-22T07:22:51Z</time>
      </trkpt>
      <trkpt lat="48.9582" lon="7.35488">
        <ele>382</ele>
        <time>2025-06-22T07:22:52Z</time>
      </trkpt>
      <trkpt lat="48.9582" lon="7.35492">
        <ele>383</ele>
        <time>2025-06-22T07:22:53Z</time>
      </trkpt>
      <trkpt lat="48.95819" lon="7.35495">
        <ele>383</ele>
        <time>2025-06-22T07:22:54Z</time>
      </trkpt>
      <trkpt lat="48.95819" lon="7.35499">
        <ele>383</ele>
        <time>2025-06-22T07:22:55Z</time>
      </trkpt>
      <trkpt lat="48.95819" lon="7.35502">
        <ele>383</ele>
        <time>2025-06-22T07:22:56Z</time>
      </trkpt>
      <trkpt lat="48.95818" lon="7.35506">
        <ele>383</ele>
        <time>2025-06-22T07:22:57Z</time>
      </trkpt>
      <trkpt lat="48.95817" lon="7.3551">
        <ele>383</ele>
        <time>2025-06-22T07:22:58Z</time>
      </trkpt>
      <trkpt lat="48.95816" lon="7.35514">
        <ele>384</ele>
        <time>2025-06-22T07:22:59Z</time>
      </trkpt>
      <trkpt lat="48.95816" lon="7.35518">
        <ele>384</ele>
        <time>2025-06-22T07:23:00Z</time>
      </trkpt>
      <trkpt lat="48.95816" lon="7.35522">
        <ele>384</ele>
        <time>2025-06-22T07:23:01Z</time>
      </trkpt>
      <trkpt lat="48.95815" lon="7.35526">
        <ele>384</ele>
        <time>2025-06-22T07:23:02Z</time>
      </trkpt>
      <trkpt lat="48.95815" lon="7.3553">
        <ele>384</ele>
        <time>2025-06-22T07:23:03Z</time>
      </trkpt>
      <trkpt lat="48.95814" lon="7.35535">
        <ele>384</ele>
        <time>2025-06-22T07:23:04Z</time>
      </trkpt>
      <trkpt lat="48.95814" lon="7.35539">
        <ele>384</ele>
        <time>2025-06-22T07:23:05Z</time>
      </trkpt>
      <trkpt lat="48.95814" lon="7.35543">
        <ele>384</ele>
        <time>2025-06-22T07:23:06Z</time>
      </trkpt>
      <trkpt lat="48.95813" lon="7.35547">
        <ele>384</ele>
        <time>2025-06-22T07:23:07Z</time>
      </trkpt>
      <trkpt lat="48.95812" lon="7.35551">
        <ele>384</ele>
        <time>2025-06-22T07:23:08Z</time>
      </trkpt>
      <trkpt lat="48.95811" lon="7.35555">
        <ele>385</ele>
        <time>2025-06-22T07:23:09Z</time>
      </trkpt>
      <trkpt lat="48.95811" lon="7.35559">
        <ele>385</ele>
        <time>2025-06-22T07:23:10Z</time>
      </trkpt>
      <trkpt lat="48.9581" lon="7.35563">
        <ele>385</ele>
        <time>2025-06-22T07:23:11Z</time>
      </trkpt>
      <trkpt lat="48.9581" lon="7.35567">
        <ele>385</ele>
        <time>2025-06-22T07:23:12Z</time>
      </trkpt>
      <trkpt lat="48.95811" lon="7.35571">
        <ele>385</ele>
        <time>2025-06-22T07:23:13Z</time>
      </trkpt>
      <trkpt lat="48.95811" lon="7.35574">
        <ele>385</ele>
        <time>2025-06-22T07:23:14Z</time>
      </trkpt>
      <trkpt lat="48.95811" lon="7.35578">
        <ele>386</ele>
        <time>2025-06-22T07:23:15Z</time>
      </trkpt>
      <trkpt lat="48.95811" lon="7.35583">
        <ele>386</ele>
        <time>2025-06-22T07:23:16Z</time>
      </trkpt>
      <trkpt lat="48.95811" lon="7.35587">
        <ele>386</ele>
        <time>2025-06-22T07:23:17Z</time>
      </trkpt>
      <trkpt lat="48.95812" lon="7.3559">
        <ele>386</ele>
        <time>2025-06-22T07:23:18Z</time>
      </trkpt>
      <trkpt lat="48.95813" lon="7.35593">
        <ele>386</ele>
        <time>2025-06-22T07:23:19Z</time>
      </trkpt>
      <trkpt lat="48.95814" lon="7.35596">
        <ele>386</ele>
        <time>2025-06-22T07:23:20Z</time>
      </trkpt>
      <trkpt lat="48.95815" lon="7.35601">
        <ele>387</ele>
        <time>2025-06-22T07:23:22Z</time>
      </trkpt>
      <trkpt lat="48.95816" lon="7.35606">
        <ele>388</ele>
        <time>2025-06-22T07:23:24Z</time>
      </trkpt>
      <trkpt lat="48.95817" lon="7.35608">
        <ele>389</ele>
        <time>2025-06-22T07:23:25Z</time>
      </trkpt>
      <trkpt lat="48.95818" lon="7.35611">
        <ele>389</ele>
        <time>2025-06-22T07:23:26Z</time>
      </trkpt>
      <trkpt lat="48.95819" lon="7.35616">
        <ele>390</ele>
        <time>2025-06-22T07:23:28Z</time>
      </trkpt>
      <trkpt lat="48.9582" lon="7.35619">
        <ele>390</ele>
        <time>2025-06-22T07:23:29Z</time>
      </trkpt>
      <trkpt lat="48.9582" lon="7.35622">
        <ele>390</ele>
        <time>2025-06-22T07:23:30Z</time>
      </trkpt>
      <trkpt lat="48.95821" lon="7.35625">
        <ele>390</ele>
        <time>2025-06-22T07:23:31Z</time>
      </trkpt>
      <trkpt lat="48.95821" lon="7.35628">
        <ele>390</ele>
        <time>2025-06-22T07:23:32Z</time>
      </trkpt>
      <trkpt lat="48.95821" lon="7.35631">
        <ele>390</ele>
        <time>2025-06-22T07:23:33Z</time>
      </trkpt>
      <trkpt lat="48.95821" lon="7.35634">
        <ele>390</ele>
        <time>2025-06-22T07:23:34Z</time>
      </trkpt>
      <trkpt lat="48.95822" lon="7.35639">
        <ele>390</ele>
        <time>2025-06-22T07:23:36Z</time>
      </trkpt>
      <trkpt lat="48.95822" lon="7.35642">
        <ele>390</ele>
        <time>2025-06-22T07:23:37Z</time>
      </trkpt>
      <trkpt lat="48.95823" lon="7.35645">
        <ele>391</ele>
        <time>2025-06-22T07:23:38Z</time>
      </trkpt>
      <trkpt lat="48.95824" lon="7.35648">
        <ele>391</ele>
        <time>2025-06-22T07:23:39Z</time>
      </trkpt>
      <trkpt lat="48.95824" lon="7.35652">
        <ele>391</ele>
        <time>2025-06-22T07:23:40Z</time>
      </trkpt>
      <trkpt lat="48.95824" lon="7.35656">
        <ele>392</ele>
        <time>2025-06-22T07:23:42Z</time>
      </trkpt>
      <trkpt lat="48.95823" lon="7.35659">
        <ele>392</ele>
        <time>2025-06-22T07:23:43Z</time>
      </trkpt>
      <trkpt lat="48.95823" lon="7.35662">
        <ele>393</ele>
        <time>2025-06-22T07:23:44Z</time>
      </trkpt>
      <trkpt lat="48.95824" lon="7.35664">
        <ele>393</ele>
        <time>2025-06-22T07:23:45Z</time>
      </trkpt>
      <trkpt lat="48.95824" lon="7.35671">
        <ele>394</ele>
        <time>2025-06-22T07:23:48Z</time>
      </trkpt>
      <trkpt lat="48.95826" lon="7.35679">
        <ele>395</ele>
        <time>2025-06-22T07:23:51Z</time>
      </trkpt>
      <trkpt lat="48.95827" lon="7.35682">
        <ele>395</ele>
        <time>2025-06-22T07:23:52Z</time>
      </trkpt>
      <trkpt lat="48.95827" lon="7.35685">
        <ele>396</ele>
        <time>2025-06-22T07:23:53Z</time>
      </trkpt>
      <trkpt lat="48.95827" lon="7.35689">
        <ele>396</ele>
        <time>2025-06-22T07:23:54Z</time>
      </trkpt>
      <trkpt lat="48.95827" lon="7.35691">
        <ele>396</ele>
        <time>2025-06-22T07:23:55Z</time>
      </trkpt>
      <trkpt lat="48.95827" lon="7.35709">
        <ele>397</ele>
        <time>2025-06-22T07:24:00Z</time>
      </trkpt>
      <trkpt lat="48.95827" lon="7.35716">
        <ele>397</ele>
        <time>2025-06-22T07:24:02Z</time>
      </trkpt>
      <trkpt lat="48.95827" lon="7.3572">
        <ele>397</ele>
        <time>2025-06-22T07:24:03Z</time>
      </trkpt>
      <trkpt lat="48.95825" lon="7.35724">
        <ele>398</ele>
        <time>2025-06-22T07:24:05Z</time>
      </trkpt>
      <trkpt lat="48.95825" lon="7.35726">
        <ele>398</ele>
        <time>2025-06-22T07:24:06Z</time>
      </trkpt>
      <trkpt lat="48.95824" lon="7.3573">
        <ele>398</ele>
        <time>2025-06-22T07:24:07Z</time>
      </trkpt>
      <trkpt lat="48.95823" lon="7.35733">
        <ele>399</ele>
        <time>2025-06-22T07:24:08Z</time>
      </trkpt>
      <trkpt lat="48.95822" lon="7.35737">
        <ele>399</ele>
        <time>2025-06-22T07:24:09Z</time>
      </trkpt>
      <trkpt lat="48.95821" lon="7.35741">
        <ele>399</ele>
        <time>2025-06-22T07:24:10Z</time>
      </trkpt>
      <trkpt lat="48.95821" lon="7.35744">
        <ele>399</ele>
        <time>2025-06-22T07:24:11Z</time>
      </trkpt>
      <trkpt lat="48.95821" lon="7.35747">
        <ele>399</ele>
        <time>2025-06-22T07:24:12Z</time>
      </trkpt>
      <trkpt lat="48.9582" lon="7.3575">
        <ele>399</ele>
        <time>2025-06-22T07:24:13Z</time>
      </trkpt>
      <trkpt lat="48.95819" lon="7.35753">
        <ele>399</ele>
        <time>2025-06-22T07:24:14Z</time>
      </trkpt>
      <trkpt lat="48.95818" lon="7.35757">
        <ele>399</ele>
        <time>2025-06-22T07:24:15Z</time>
      </trkpt>
      <trkpt lat="48.95817" lon="7.3576">
        <ele>400</ele>
        <time>2025-06-22T07:24:16Z</time>
      </trkpt>
      <trkpt lat="48.95816" lon="7.35763">
        <ele>400</ele>
        <time>2025-06-22T07:24:17Z</time>
      </trkpt>
      <trkpt lat="48.95815" lon="7.35766">
        <ele>401</ele>
        <time>2025-06-22T07:24:18Z</time>
      </trkpt>
      <trkpt lat="48.95814" lon="7.35769">
        <ele>401</ele>
        <time>2025-06-22T07:24:19Z</time>
      </trkpt>
      <trkpt lat="48.95814" lon="7.35774">
        <ele>402</ele>
        <time>2025-06-22T07:24:21Z</time>
      </trkpt>
      <trkpt lat="48.95813" lon="7.35777">
        <ele>402</ele>
        <time>2025-06-22T07:24:22Z</time>
      </trkpt>
      <trkpt lat="48.95812" lon="7.3578">
        <ele>402</ele>
        <time>2025-06-22T07:24:23Z</time>
      </trkpt>
      <trkpt lat="48.9581" lon="7.35784">
        <ele>402</ele>
        <time>2025-06-22T07:24:24Z</time>
      </trkpt>
      <trkpt lat="48.95809" lon="7.35788">
        <ele>402</ele>
        <time>2025-06-22T07:24:25Z</time>
      </trkpt>
      <trkpt lat="48.95808" lon="7.35791">
        <ele>402</ele>
        <time>2025-06-22T07:24:26Z</time>
      </trkpt>
      <trkpt lat="48.95807" lon="7.35794">
        <ele>402</ele>
        <time>2025-06-22T07:24:27Z</time>
      </trkpt>
      <trkpt lat="48.95806" lon="7.35799">
        <ele>403</ele>
        <time>2025-06-22T07:24:29Z</time>
      </trkpt>
      <trkpt lat="48.95803" lon="7.35806">
        <ele>404</ele>
        <time>2025-06-22T07:24:32Z</time>
      </trkpt>
      <trkpt lat="48.95802" lon="7.35809">
        <ele>404</ele>
        <time>2025-06-22T07:24:33Z</time>
      </trkpt>
      <trkpt lat="48.95801" lon="7.35812">
        <ele>404</ele>
        <time>2025-06-22T07:24:34Z</time>
      </trkpt>
      <trkpt lat="48.95801" lon="7.35815">
        <ele>404</ele>
        <time>2025-06-22T07:24:35Z</time>
      </trkpt>
      <trkpt lat="48.958" lon="7.35818">
        <ele>404</ele>
        <time>2025-06-22T07:24:36Z</time>
      </trkpt>
      <trkpt lat="48.95799" lon="7.35822">
        <ele>404</ele>
        <time>2025-06-22T07:24:37Z</time>
      </trkpt>
      <trkpt lat="48.95798" lon="7.35826">
        <ele>405</ele>
        <time>2025-06-22T07:24:38Z</time>
      </trkpt>
      <trkpt lat="48.95798" lon="7.3583">
        <ele>405</ele>
        <time>2025-06-22T07:24:39Z</time>
      </trkpt>
      <trkpt lat="48.95797" lon="7.35834">
        <ele>406</ele>
        <time>2025-06-22T07:24:40Z</time>
      </trkpt>
      <trkpt lat="48.95797" lon="7.35837">
        <ele>406</ele>
        <time>2025-06-22T07:24:41Z</time>
      </trkpt>
      <trkpt lat="48.95796" lon="7.3584">
        <ele>406</ele>
        <time>2025-06-22T07:24:42Z</time>
      </trkpt>
      <trkpt lat="48.95795" lon="7.35845">
        <ele>406</ele>
        <time>2025-06-22T07:24:43Z</time>
      </trkpt>
      <trkpt lat="48.95795" lon="7.35849">
        <ele>406</ele>
        <time>2025-06-22T07:24:44Z</time>
      </trkpt>
      <trkpt lat="48.95795" lon="7.35853">
        <ele>406</ele>
        <time>2025-06-22T07:24:45Z</time>
      </trkpt>
      <trkpt lat="48.95795" lon="7.35856">
        <ele>406</ele>
        <time>2025-06-22T07:24:46Z</time>
      </trkpt>
      <trkpt lat="48.95794" lon="7.3586">
        <ele>406</ele>
        <time>2025-06-22T07:24:47Z</time>
      </trkpt>
      <trkpt lat="48.95793" lon="7.35864">
        <ele>406</ele>
        <time>2025-06-22T07:24:48Z</time>
      </trkpt>
      <trkpt lat="48.95793" lon="7.35868">
        <ele>407</ele>
        <time>2025-06-22T07:24:49Z</time>
      </trkpt>
      <trkpt lat="48.95792" lon="7.35872">
        <ele>407</ele>
        <time>2025-06-22T07:24:50Z</time>
      </trkpt>
      <trkpt lat="48.95791" lon="7.35876">
        <ele>407</ele>
        <time>2025-06-22T07:24:51Z</time>
      </trkpt>
      <trkpt lat="48.9579" lon="7.3588">
        <ele>407</ele>
        <time>2025-06-22T07:24:52Z</time>
      </trkpt>
      <trkpt lat="48.95789" lon="7.35884">
        <ele>407</ele>
        <time>2025-06-22T07:24:53Z</time>
      </trkpt>
      <trkpt lat="48.95787" lon="7.35887">
        <ele>407</ele>
        <time>2025-06-22T07:24:54Z</time>
      </trkpt>
      <trkpt lat="48.95785" lon="7.3589">
        <ele>407</ele>
        <time>2025-06-22T07:24:55Z</time>
      </trkpt>
      <trkpt lat="48.95784" lon="7.35893">
        <ele>407</ele>
        <time>2025-06-22T07:24:56Z</time>
      </trkpt>
      <trkpt lat="48.95783" lon="7.35897">
        <ele>407</ele>
        <time>2025-06-22T07:24:57Z</time>
      </trkpt>
      <trkpt lat="48.95781" lon="7.359">
        <ele>407</ele>
        <time>2025-06-22T07:24:58Z</time>
      </trkpt>
      <trkpt lat="48.9578" lon="7.35904">
        <ele>407</ele>
        <time>2025-06-22T07:24:59Z</time>
      </trkpt>
      <trkpt lat="48.95779" lon="7.35908">
        <ele>407</ele>
        <time>2025-06-22T07:25:00Z</time>
      </trkpt>
      <trkpt lat="48.95778" lon="7.35912">
        <ele>407</ele>
        <time>2025-06-22T07:25:01Z</time>
      </trkpt>
      <trkpt lat="48.95775" lon="7.35921">
        <ele>407</ele>
        <time>2025-06-22T07:25:02Z</time>
      </trkpt>
      <trkpt lat="48.95774" lon="7.35924">
        <ele>407</ele>
        <time>2025-06-22T07:25:04Z</time>
      </trkpt>
      <trkpt lat="48.95772" lon="7.35928">
        <ele>407</ele>
        <time>2025-06-22T07:25:05Z</time>
      </trkpt>
      <trkpt lat="48.95771" lon="7.35931">
        <ele>407</ele>
        <time>2025-06-22T07:25:06Z</time>
      </trkpt>
      <trkpt lat="48.9577" lon="7.35934">
        <ele>407</ele>
        <time>2025-06-22T07:25:07Z</time>
      </trkpt>
      <trkpt lat="48.95769" lon="7.35937">
        <ele>407</ele>
        <time>2025-06-22T07:25:08Z</time>
      </trkpt>
      <trkpt lat="48.9577" lon="7.35941">
        <ele>407</ele>
        <time>2025-06-22T07:25:10Z</time>
      </trkpt>
      <trkpt lat="48.95771" lon="7.35944">
        <ele>407</ele>
        <time>2025-06-22T07:25:12Z</time>
      </trkpt>
      <trkpt lat="48.95771" lon="7.35947">
        <ele>407</ele>
        <time>2025-06-22T07:25:14Z</time>
      </trkpt>
      <trkpt lat="48.95769" lon="7.3595">
        <ele>407</ele>
        <time>2025-06-22T07:25:16Z</time>
      </trkpt>
      <trkpt lat="48.95767" lon="7.35953">
        <ele>407</ele>
        <time>2025-06-22T07:25:18Z</time>
      </trkpt>
      <trkpt lat="48.95765" lon="7.35956">
        <ele>407</ele>
        <time>2025-06-22T07:25:20Z</time>
      </trkpt>
      <trkpt lat="48.95763" lon="7.35958">
        <ele>407</ele>
        <time>2025-06-22T07:25:22Z</time>
      </trkpt>
      <trkpt lat="48.95763" lon="7.35961">
        <ele>407</ele>
        <time>2025-06-22T07:25:24Z</time>
      </trkpt>
      <trkpt lat="48.95762" lon="7.35965">
        <ele>407</ele>
        <time>2025-06-22T07:25:26Z</time>
      </trkpt>
      <trkpt lat="48.95762" lon="7.35968">
        <ele>407</ele>
        <time>2025-06-22T07:25:28Z</time>
      </trkpt>
      <trkpt lat="48.95762" lon="7.35972">
        <ele>407</ele>
        <time>2025-06-22T07:25:31Z</time>
      </trkpt>
      <trkpt lat="48.95761" lon="7.35974">
        <ele>407</ele>
        <time>2025-06-22T07:25:33Z</time>
      </trkpt>
      <trkpt lat="48.9576" lon="7.35977">
        <ele>407</ele>
        <time>2025-06-22T07:25:36Z</time>
      </trkpt>
      <trkpt lat="48.95758" lon="7.35979">
        <ele>408</ele>
        <time>2025-06-22T07:25:49Z</time>
      </trkpt>
      <trkpt lat="48.95757" lon="7.35983">
        <ele>408</ele>
        <time>2025-06-22T07:25:51Z</time>
      </trkpt>
      <trkpt lat="48.95756" lon="7.35986">
        <ele>408</ele>
        <time>2025-06-22T07:25:52Z</time>
      </trkpt>
      <trkpt lat="48.95755" lon="7.35989">
        <ele>408</ele>
        <time>2025-06-22T07:25:53Z</time>
      </trkpt>
      <trkpt lat="48.95754" lon="7.35991">
        <ele>408</ele>
        <time>2025-06-22T07:25:54Z</time>
      </trkpt>
      <trkpt lat="48.95753" lon="7.35999">
        <ele>408</ele>
        <time>2025-06-22T07:25:56Z</time>
      </trkpt>
      <trkpt lat="48.95752" lon="7.36003">
        <ele>409</ele>
        <time>2025-06-22T07:25:57Z</time>
      </trkpt>
      <trkpt lat="48.95752" lon="7.36006">
        <ele>409</ele>
        <time>2025-06-22T07:25:58Z</time>
      </trkpt>
      <trkpt lat="48.95752" lon="7.36011">
        <ele>409</ele>
        <time>2025-06-22T07:25:59Z</time>
      </trkpt>
      <trkpt lat="48.95751" lon="7.36014">
        <ele>410</ele>
        <time>2025-06-22T07:26:00Z</time>
      </trkpt>
      <trkpt lat="48.9575" lon="7.36017">
        <ele>410</ele>
        <time>2025-06-22T07:26:01Z</time>
      </trkpt>
      <trkpt lat="48.95749" lon="7.36019">
        <ele>410</ele>
        <time>2025-06-22T07:26:02Z</time>
      </trkpt>
      <trkpt lat="48.95747" lon="7.36022">
        <ele>410</ele>
        <time>2025-06-22T07:26:03Z</time>
      </trkpt>
      <trkpt lat="48.95746" lon="7.36025">
        <ele>410</ele>
        <time>2025-06-22T07:26:04Z</time>
      </trkpt>
      <trkpt lat="48.95744" lon="7.36027">
        <ele>410</ele>
        <time>2025-06-22T07:26:05Z</time>
      </trkpt>
      <trkpt lat="48.95742" lon="7.36029">
        <ele>411</ele>
        <time>2025-06-22T07:26:06Z</time>
      </trkpt>
      <trkpt lat="48.9574" lon="7.36031">
        <ele>411</ele>
        <time>2025-06-22T07:26:07Z</time>
      </trkpt>
      <trkpt lat="48.95738" lon="7.36034">
        <ele>411</ele>
        <time>2025-06-22T07:26:08Z</time>
      </trkpt>
      <trkpt lat="48.95736" lon="7.36037">
        <ele>410</ele>
        <time>2025-06-22T07:26:09Z</time>
      </trkpt>
      <trkpt lat="48.95734" lon="7.36039">
        <ele>411</ele>
        <time>2025-06-22T07:26:10Z</time>
      </trkpt>
      <trkpt lat="48.95731" lon="7.36041">
        <ele>411</ele>
        <time>2025-06-22T07:26:11Z</time>
      </trkpt>
      <trkpt lat="48.95729" lon="7.36044">
        <ele>411</ele>
        <time>2025-06-22T07:26:12Z</time>
      </trkpt>
      <trkpt lat="48.95726" lon="7.36045">
        <ele>411</ele>
        <time>2025-06-22T07:26:13Z</time>
      </trkpt>
      <trkpt lat="48.95723" lon="7.36046">
        <ele>411</ele>
        <time>2025-06-22T07:26:14Z</time>
      </trkpt>
      <trkpt lat="48.95719" lon="7.36047">
        <ele>411</ele>
        <time>2025-06-22T07:26:15Z</time>
      </trkpt>
      <trkpt lat="48.95717" lon="7.36047">
        <ele>411</ele>
        <time>2025-06-22T07:26:16Z</time>
      </trkpt>
      <trkpt lat="48.95714" lon="7.36047">
        <ele>411</ele>
        <time>2025-06-22T07:26:17Z</time>
      </trkpt>
      <trkpt lat="48.9571" lon="7.36046">
        <ele>411</ele>
        <time>2025-06-22T07:26:18Z</time>
      </trkpt>
      <trkpt lat="48.95706" lon="7.36045">
        <ele>410</ele>
        <time>2025-06-22T07:26:19Z</time>
      </trkpt>
      <trkpt lat="48.95702" lon="7.36043">
        <ele>410</ele>
        <time>2025-06-22T07:26:20Z</time>
      </trkpt>
      <trkpt lat="48.95697" lon="7.3604">
        <ele>410</ele>
        <time>2025-06-22T07:26:21Z</time>
      </trkpt>
      <trkpt lat="48.95692" lon="7.36039">
        <ele>409</ele>
        <time>2025-06-22T07:26:22Z</time>
      </trkpt>
      <trkpt lat="48.9568" lon="7.36038">
        <ele>408</ele>
        <time>2025-06-22T07:26:24Z</time>
      </trkpt>
      <trkpt lat="48.95668" lon="7.36039">
        <ele>408</ele>
        <time>2025-06-22T07:26:26Z</time>
      </trkpt>
      <trkpt lat="48.95655" lon="7.36044">
        <ele>402</ele>
        <time>2025-06-22T07:26:28Z</time>
      </trkpt>
      <trkpt lat="48.95641" lon="7.36045">
        <ele>402</ele>
        <time>2025-06-22T07:26:30Z</time>
      </trkpt>
      <trkpt lat="48.95628" lon="7.36046">
        <ele>395</ele>
        <time>2025-06-22T07:26:32Z</time>
      </trkpt>
      <trkpt lat="48.95611" lon="7.36053">
        <ele>395</ele>
        <time>2025-06-22T07:26:34Z</time>
      </trkpt>
      <trkpt lat="48.956" lon="7.36063">
        <ele>390</ele>
        <time>2025-06-22T07:26:36Z</time>
      </trkpt>
      <trkpt lat="48.95588" lon="7.36074">
        <ele>390</ele>
        <time>2025-06-22T07:26:38Z</time>
      </trkpt>
      <trkpt lat="48.95576" lon="7.36078">
        <ele>390</ele>
        <time>2025-06-22T07:26:40Z</time>
      </trkpt>
      <trkpt lat="48.95565" lon="7.36081">
        <ele>391</ele>
        <time>2025-06-22T07:26:42Z</time>
      </trkpt>
      <trkpt lat="48.95556" lon="7.36085">
        <ele>391</ele>
        <time>2025-06-22T07:26:44Z</time>
      </trkpt>
      <trkpt lat="48.95547" lon="7.36086">
        <ele>392</ele>
        <time>2025-06-22T07:26:47Z</time>
      </trkpt>
      <trkpt lat="48.95534" lon="7.36091">
        <ele>395</ele>
        <time>2025-06-22T07:26:51Z</time>
      </trkpt>
      <trkpt lat="48.95525" lon="7.36093">
        <ele>395</ele>
        <time>2025-06-22T07:26:53Z</time>
      </trkpt>
      <trkpt lat="48.95515" lon="7.36098">
        <ele>395</ele>
        <time>2025-06-22T07:26:56Z</time>
      </trkpt>
      <trkpt lat="48.95504" lon="7.36099">
        <ele>395</ele>
        <time>2025-06-22T07:26:59Z</time>
      </trkpt>
      <trkpt lat="48.9549" lon="7.36097">
        <ele>396</ele>
        <time>2025-06-22T07:27:02Z</time>
      </trkpt>
      <trkpt lat="48.95478" lon="7.36096">
        <ele>396</ele>
        <time>2025-06-22T07:27:05Z</time>
      </trkpt>
      <trkpt lat="48.95468" lon="7.36098">
        <ele>396</ele>
        <time>2025-06-22T07:27:08Z</time>
      </trkpt>
      <trkpt lat="48.95457" lon="7.36106">
        <ele>396</ele>
        <time>2025-06-22T07:27:11Z</time>
      </trkpt>
      <trkpt lat="48.95452" lon="7.3611">
        <ele>396</ele>
        <time>2025-06-22T07:27:12Z</time>
      </trkpt>
      <trkpt lat="48.95446" lon="7.3612">
        <ele>396</ele>
        <time>2025-06-22T07:27:15Z</time>
      </trkpt>
      <trkpt lat="48.95437" lon="7.36135">
        <ele>396</ele>
        <time>2025-06-22T07:27:18Z</time>
      </trkpt>
      <trkpt lat="48.95436" lon="7.36142">
        <ele>396</ele>
        <time>2025-06-22T07:27:19Z</time>
      </trkpt>
      <trkpt lat="48.95435" lon="7.36148">
        <ele>396</ele>
        <time>2025-06-22T07:27:20Z</time>
      </trkpt>
      <trkpt lat="48.95437" lon="7.36154">
        <ele>396</ele>
        <time>2025-06-22T07:27:21Z</time>
      </trkpt>
      <trkpt lat="48.95439" lon="7.36159">
        <ele>397</ele>
        <time>2025-06-22T07:27:22Z</time>
      </trkpt>
      <trkpt lat="48.95442" lon="7.36161">
        <ele>397</ele>
        <time>2025-06-22T07:27:23Z</time>
      </trkpt>
      <trkpt lat="48.95444" lon="7.36162">
        <ele>397</ele>
        <time>2025-06-22T07:27:24Z</time>
      </trkpt>
      <trkpt lat="48.95446" lon="7.36162">
        <ele>397</ele>
        <time>2025-06-22T07:27:25Z</time>
      </trkpt>
      <trkpt lat="48.95449" lon="7.36161">
        <ele>397</ele>
        <time>2025-06-22T07:27:26Z</time>
      </trkpt>
      <trkpt lat="48.95451" lon="7.3616">
        <ele>398</ele>
        <time>2025-06-22T07:27:28Z</time>
      </trkpt>
      <trkpt lat="48.9546" lon="7.36154">
        <ele>399</ele>
        <time>2025-06-22T07:27:32Z</time>
      </trkpt>
      <trkpt lat="48.9547" lon="7.3615">
        <ele>399</ele>
        <time>2025-06-22T07:27:36Z</time>
      </trkpt>
      <trkpt lat="48.9548" lon="7.36145">
        <ele>402</ele>
        <time>2025-06-22T07:27:41Z</time>
      </trkpt>
      <trkpt lat="48.95484" lon="7.36146">
        <ele>402</ele>
        <time>2025-06-22T07:27:43Z</time>
      </trkpt>
      <trkpt lat="48.95487" lon="7.36146">
        <ele>402</ele>
        <time>2025-06-22T07:27:44Z</time>
      </trkpt>
      <trkpt lat="48.95489" lon="7.36147">
        <ele>402</ele>
        <time>2025-06-22T07:27:45Z</time>
      </trkpt>
      <trkpt lat="48.95492" lon="7.36149">
        <ele>402</ele>
        <time>2025-06-22T07:27:46Z</time>
      </trkpt>
      <trkpt lat="48.95494" lon="7.3615">
        <ele>402</ele>
        <time>2025-06-22T07:27:47Z</time>
      </trkpt>
      <trkpt lat="48.95495" lon="7.36151">
        <ele>402</ele>
        <time>2025-06-22T07:27:48Z</time>
      </trkpt>
      <trkpt lat="48.95498" lon="7.36152">
        <ele>403</ele>
        <time>2025-06-22T07:27:49Z</time>
      </trkpt>
      <trkpt lat="48.955" lon="7.36153">
        <ele>403</ele>
        <time>2025-06-22T07:27:50Z</time>
      </trkpt>
      <trkpt lat="48.95502" lon="7.36155">
        <ele>403</ele>
        <time>2025-06-22T07:27:51Z</time>
      </trkpt>
      <trkpt lat="48.95505" lon="7.36156">
        <ele>403</ele>
        <time>2025-06-22T07:27:52Z</time>
      </trkpt>
      <trkpt lat="48.95507" lon="7.36158">
        <ele>403</ele>
        <time>2025-06-22T07:27:53Z</time>
      </trkpt>
      <trkpt lat="48.95509" lon="7.36159">
        <ele>403</ele>
        <time>2025-06-22T07:27:54Z</time>
      </trkpt>
      <trkpt lat="48.95511" lon="7.3616">
        <ele>403</ele>
        <time>2025-06-22T07:27:55Z</time>
      </trkpt>
      <trkpt lat="48.95515" lon="7.36163">
        <ele>403</ele>
        <time>2025-06-22T07:27:57Z</time>
      </trkpt>
      <trkpt lat="48.95517" lon="7.36164">
        <ele>403</ele>
        <time>2025-06-22T07:27:58Z</time>
      </trkpt>
      <trkpt lat="48.95519" lon="7.36165">
        <ele>403</ele>
        <time>2025-06-22T07:27:59Z</time>
      </trkpt>
      <trkpt lat="48.95521" lon="7.36166">
        <ele>404</ele>
        <time>2025-06-22T07:28:00Z</time>
      </trkpt>
      <trkpt lat="48.95523" lon="7.36168">
        <ele>404</ele>
        <time>2025-06-22T07:28:01Z</time>
      </trkpt>
      <trkpt lat="48.95526" lon="7.36169">
        <ele>404</ele>
        <time>2025-06-22T07:28:02Z</time>
      </trkpt>
      <trkpt lat="48.95528" lon="7.36169">
        <ele>404</ele>
        <time>2025-06-22T07:28:03Z</time>
      </trkpt>
      <trkpt lat="48.9553" lon="7.3617">
        <ele>404</ele>
        <time>2025-06-22T07:28:04Z</time>
      </trkpt>
      <trkpt lat="48.95533" lon="7.36169">
        <ele>404</ele>
        <time>2025-06-22T07:28:05Z</time>
      </trkpt>
      <trkpt lat="48.95535" lon="7.36171">
        <ele>404</ele>
        <time>2025-06-22T07:28:06Z</time>
      </trkpt>
      <trkpt lat="48.95537" lon="7.36172">
        <ele>405</ele>
        <time>2025-06-22T07:28:07Z</time>
      </trkpt>
      <trkpt lat="48.9554" lon="7.36173">
        <ele>405</ele>
        <time>2025-06-22T07:28:08Z</time>
      </trkpt>
      <trkpt lat="48.95543" lon="7.36173">
        <ele>405</ele>
        <time>2025-06-22T07:28:09Z</time>
      </trkpt>
      <trkpt lat="48.95545" lon="7.36174">
        <ele>405</ele>
        <time>2025-06-22T07:28:10Z</time>
      </trkpt>
      <trkpt lat="48.95546" lon="7.36175">
        <ele>405</ele>
        <time>2025-06-22T07:28:11Z</time>
      </trkpt>
      <trkpt lat="48.95547" lon="7.36178">
        <ele>405</ele>
        <time>2025-06-22T07:28:12Z</time>
      </trkpt>
      <trkpt lat="48.95545" lon="7.36182">
        <ele>405</ele>
        <time>2025-06-22T07:28:14Z</time>
      </trkpt>
      <trkpt lat="48.95543" lon="7.36185">
        <ele>406</ele>
        <time>2025-06-22T07:28:16Z</time>
      </trkpt>
      <trkpt lat="48.95541" lon="7.36187">
        <ele>407</ele>
        <time>2025-06-22T07:28:17Z</time>
      </trkpt>
      <trkpt lat="48.95539" lon="7.3619">
        <ele>407</ele>
        <time>2025-06-22T07:28:18Z</time>
      </trkpt>
      <trkpt lat="48.95538" lon="7.36193">
        <ele>407</ele>
        <time>2025-06-22T07:28:19Z</time>
      </trkpt>
      <trkpt lat="48.95536" lon="7.36196">
        <ele>407</ele>
        <time>2025-06-22T07:28:20Z</time>
      </trkpt>
      <trkpt lat="48.95534" lon="7.36198">
        <ele>407</ele>
        <time>2025-06-22T07:28:21Z</time>
      </trkpt>
      <trkpt lat="48.95532" lon="7.36201">
        <ele>407</ele>
        <time>2025-06-22T07:28:22Z</time>
      </trkpt>
      <trkpt lat="48.9553" lon="7.36205">
        <ele>408</ele>
        <time>2025-06-22T07:28:23Z</time>
      </trkpt>
      <trkpt lat="48.95524" lon="7.36215">
        <ele>408</ele>
        <time>2025-06-22T07:28:26Z</time>
      </trkpt>
      <trkpt lat="48.9552" lon="7.36231">
        <ele>408</ele>
        <time>2025-06-22T07:28:29Z</time>
      </trkpt>
      <trkpt lat="48.95516" lon="7.36246">
        <ele>408</ele>
        <time>2025-06-22T07:28:32Z</time>
      </trkpt>
      <trkpt lat="48.95511" lon="7.36263">
        <ele>408</ele>
        <time>2025-06-22T07:28:35Z</time>
      </trkpt>
      <trkpt lat="48.9551" lon="7.36268">
        <ele>408</ele>
        <time>2025-06-22T07:28:36Z</time>
      </trkpt>
      <trkpt lat="48.95508" lon="7.36273">
        <ele>408</ele>
        <time>2025-06-22T07:28:37Z</time>
      </trkpt>
      <trkpt lat="48.95507" lon="7.36279">
        <ele>408</ele>
        <time>2025-06-22T07:28:38Z</time>
      </trkpt>
      <trkpt lat="48.95506" lon="7.36285">
        <ele>408</ele>
        <time>2025-06-22T07:28:39Z</time>
      </trkpt>
      <trkpt lat="48.95505" lon="7.3629">
        <ele>408</ele>
        <time>2025-06-22T07:28:40Z</time>
      </trkpt>
      <trkpt lat="48.95504" lon="7.36296">
        <ele>408</ele>
        <time>2025-06-22T07:28:41Z</time>
      </trkpt>
      <trkpt lat="48.95503" lon="7.36302">
        <ele>408</ele>
        <time>2025-06-22T07:28:42Z</time>
      </trkpt>
      <trkpt lat="48.95502" lon="7.36308">
        <ele>408</ele>
        <time>2025-06-22T07:28:43Z</time>
      </trkpt>
      <trkpt lat="48.955" lon="7.36316">
        <ele>408</ele>
        <time>2025-06-22T07:28:44Z</time>
      </trkpt>
      <trkpt lat="48.95499" lon="7.36329">
        <ele>407</ele>
        <time>2025-06-22T07:28:46Z</time>
      </trkpt>
      <trkpt lat="48.95497" lon="7.36342">
        <ele>407</ele>
        <time>2025-06-22T07:28:48Z</time>
      </trkpt>
      <trkpt lat="48.95494" lon="7.36356">
        <ele>407</ele>
        <time>2025-06-22T07:28:50Z</time>
      </trkpt>
      <trkpt lat="48.95491" lon="7.36372">
        <ele>406</ele>
        <time>2025-06-22T07:28:52Z</time>
      </trkpt>
      <trkpt lat="48.95486" lon="7.3639">
        <ele>403</ele>
        <time>2025-06-22T07:28:54Z</time>
      </trkpt>
      <trkpt lat="48.95481" lon="7.36411">
        <ele>403</ele>
        <time>2025-06-22T07:28:56Z</time>
      </trkpt>
      <trkpt lat="48.95479" lon="7.3643">
        <ele>400</ele>
        <time>2025-06-22T07:28:58Z</time>
      </trkpt>
      <trkpt lat="48.9548" lon="7.36449">
        <ele>397</ele>
        <time>2025-06-22T07:29:00Z</time>
      </trkpt>
      <trkpt lat="48.95478" lon="7.36465">
        <ele>397</ele>
        <time>2025-06-22T07:29:02Z</time>
      </trkpt>
      <trkpt lat="48.95478" lon="7.3648">
        <ele>397</ele>
        <time>2025-06-22T07:29:04Z</time>
      </trkpt>
      <trkpt lat="48.95475" lon="7.36495">
        <ele>394</ele>
        <time>2025-06-22T07:29:06Z</time>
      </trkpt>
      <trkpt lat="48.9547" lon="7.36516">
        <ele>394</ele>
        <time>2025-06-22T07:29:08Z</time>
      </trkpt>
      <trkpt lat="48.95465" lon="7.36536">
        <ele>392</ele>
        <time>2025-06-22T07:29:10Z</time>
      </trkpt>
      <trkpt lat="48.95459" lon="7.36556">
        <ele>392</ele>
        <time>2025-06-22T07:29:12Z</time>
      </trkpt>
      <trkpt lat="48.95452" lon="7.36575">
        <ele>391</ele>
        <time>2025-06-22T07:29:14Z</time>
      </trkpt>
      <trkpt lat="48.95447" lon="7.36592">
        <ele>390</ele>
        <time>2025-06-22T07:29:16Z</time>
      </trkpt>
      <trkpt lat="48.95442" lon="7.36609">
        <ele>390</ele>
        <time>2025-06-22T07:29:18Z</time>
      </trkpt>
      <trkpt lat="48.95435" lon="7.36627">
        <ele>390</ele>
        <time>2025-06-22T07:29:20Z</time>
      </trkpt>
      <trkpt lat="48.95429" lon="7.36641">
        <ele>390</ele>
        <time>2025-06-22T07:29:22Z</time>
      </trkpt>
      <trkpt lat="48.95424" lon="7.36653">
        <ele>390</ele>
        <time>2025-06-22T07:29:24Z</time>
      </trkpt>
      <trkpt lat="48.95419" lon="7.36665">
        <ele>390</ele>
        <time>2025-06-22T07:29:26Z</time>
      </trkpt>
      <trkpt lat="48.95413" lon="7.36682">
        <ele>390</ele>
        <time>2025-06-22T07:29:28Z</time>
      </trkpt>
      <trkpt lat="48.9541" lon="7.36696">
        <ele>390</ele>
        <time>2025-06-22T07:29:30Z</time>
      </trkpt>
      <trkpt lat="48.95406" lon="7.3671">
        <ele>391</ele>
        <time>2025-06-22T07:29:32Z</time>
      </trkpt>
      <trkpt lat="48.95402" lon="7.36728">
        <ele>392</ele>
        <time>2025-06-22T07:29:35Z</time>
      </trkpt>
      <trkpt lat="48.95398" lon="7.36736">
        <ele>394</ele>
        <time>2025-06-22T07:29:37Z</time>
      </trkpt>
      <trkpt lat="48.95395" lon="7.3674">
        <ele>394</ele>
        <time>2025-06-22T07:29:38Z</time>
      </trkpt>
      <trkpt lat="48.95392" lon="7.36744">
        <ele>394</ele>
        <time>2025-06-22T07:29:39Z</time>
      </trkpt>
      <trkpt lat="48.95389" lon="7.36747">
        <ele>394</ele>
        <time>2025-06-22T07:29:40Z</time>
      </trkpt>
      <trkpt lat="48.95385" lon="7.3675">
        <ele>393</ele>
        <time>2025-06-22T07:29:41Z</time>
      </trkpt>
      <trkpt lat="48.95381" lon="7.36753">
        <ele>393</ele>
        <time>2025-06-22T07:29:42Z</time>
      </trkpt>
      <trkpt lat="48.95378" lon="7.36756">
        <ele>393</ele>
        <time>2025-06-22T07:29:43Z</time>
      </trkpt>
      <trkpt lat="48.95374" lon="7.36758">
        <ele>393</ele>
        <time>2025-06-22T07:29:44Z</time>
      </trkpt>
      <trkpt lat="48.95371" lon="7.3676">
        <ele>394</ele>
        <time>2025-06-22T07:29:45Z</time>
      </trkpt>
      <trkpt lat="48.95366" lon="7.36762">
        <ele>395</ele>
        <time>2025-06-22T07:29:46Z</time>
      </trkpt>
      <trkpt lat="48.95363" lon="7.36763">
        <ele>395</ele>
        <time>2025-06-22T07:29:47Z</time>
      </trkpt>
      <trkpt lat="48.95359" lon="7.36764">
        <ele>395</ele>
        <time>2025-06-22T07:29:48Z</time>
      </trkpt>
      <trkpt lat="48.95355" lon="7.36766">
        <ele>395</ele>
        <time>2025-06-22T07:29:49Z</time>
      </trkpt>
      <trkpt lat="48.95353" lon="7.36769">
        <ele>395</ele>
        <time>2025-06-22T07:29:50Z</time>
      </trkpt>
      <trkpt lat="48.95353" lon="7.36773">
        <ele>395</ele>
        <time>2025-06-22T07:29:51Z</time>
      </trkpt>
      <trkpt lat="48.95355" lon="7.36778">
        <ele>395</ele>
        <time>2025-06-22T07:29:52Z</time>
      </trkpt>
      <trkpt lat="48.95357" lon="7.36781">
        <ele>395</ele>
        <time>2025-06-22T07:29:53Z</time>
      </trkpt>
      <trkpt lat="48.95358" lon="7.36785">
        <ele>395</ele>
        <time>2025-06-22T07:29:54Z</time>
      </trkpt>
      <trkpt lat="48.9536" lon="7.36788">
        <ele>395</ele>
        <time>2025-06-22T07:29:55Z</time>
      </trkpt>
      <trkpt lat="48.95362" lon="7.36792">
        <ele>395</ele>
        <time>2025-06-22T07:29:56Z</time>
      </trkpt>
      <trkpt lat="48.95363" lon="7.36796">
        <ele>395</ele>
        <time>2025-06-22T07:29:57Z</time>
      </trkpt>
      <trkpt lat="48.95365" lon="7.368">
        <ele>395</ele>
        <time>2025-06-22T07:29:58Z</time>
      </trkpt>
      <trkpt lat="48.95367" lon="7.36805">
        <ele>395</ele>
        <time>2025-06-22T07:29:59Z</time>
      </trkpt>
      <trkpt lat="48.95369" lon="7.36809">
        <ele>396</ele>
        <time>2025-06-22T07:30:00Z</time>
      </trkpt>
      <trkpt lat="48.95371" lon="7.36812">
        <ele>396</ele>
        <time>2025-06-22T07:30:01Z</time>
      </trkpt>
      <trkpt lat="48.95372" lon="7.36815">
        <ele>396</ele>
        <time>2025-06-22T07:30:02Z</time>
      </trkpt>
      <trkpt lat="48.95374" lon="7.36818">
        <ele>396</ele>
        <time>2025-06-22T07:30:03Z</time>
      </trkpt>
      <trkpt lat="48.95375" lon="7.36822">
        <ele>396</ele>
        <time>2025-06-22T07:30:04Z</time>
      </trkpt>
      <trkpt lat="48.95376" lon="7.36826">
        <ele>396</ele>
        <time>2025-06-22T07:30:05Z</time>
      </trkpt>
      <trkpt lat="48.95378" lon="7.36831">
        <ele>396</ele>
        <time>2025-06-22T07:30:06Z</time>
      </trkpt>
      <trkpt lat="48.9538" lon="7.36835">
        <ele>396</ele>
        <time>2025-06-22T07:30:07Z</time>
      </trkpt>
      <trkpt lat="48.95382" lon="7.36841">
        <ele>396</ele>
        <time>2025-06-22T07:30:08Z</time>
      </trkpt>
      <trkpt lat="48.95382" lon="7.36847">
        <ele>396</ele>
        <time>2025-06-22T07:30:09Z</time>
      </trkpt>
      <trkpt lat="48.95382" lon="7.36853">
        <ele>396</ele>
        <time>2025-06-22T07:30:10Z</time>
      </trkpt>
      <trkpt lat="48.95382" lon="7.36858">
        <ele>395</ele>
        <time>2025-06-22T07:30:11Z</time>
      </trkpt>
      <trkpt lat="48.95381" lon="7.36864">
        <ele>395</ele>
        <time>2025-06-22T07:30:12Z</time>
      </trkpt>
      <trkpt lat="48.95379" lon="7.36869">
        <ele>395</ele>
        <time>2025-06-22T07:30:13Z</time>
      </trkpt>
      <trkpt lat="48.95377" lon="7.36875">
        <ele>395</ele>
        <time>2025-06-22T07:30:14Z</time>
      </trkpt>
      <trkpt lat="48.95374" lon="7.3688">
        <ele>395</ele>
        <time>2025-06-22T07:30:15Z</time>
      </trkpt>
      <trkpt lat="48.95372" lon="7.36885">
        <ele>395</ele>
        <time>2025-06-22T07:30:16Z</time>
      </trkpt>
      <trkpt lat="48.9537" lon="7.3689">
        <ele>396</ele>
        <time>2025-06-22T07:30:17Z</time>
      </trkpt>
      <trkpt lat="48.95368" lon="7.36895">
        <ele>396</ele>
        <time>2025-06-22T07:30:18Z</time>
      </trkpt>
      <trkpt lat="48.95366" lon="7.369">
        <ele>397</ele>
        <time>2025-06-22T07:30:19Z</time>
      </trkpt>
      <trkpt lat="48.95364" lon="7.36906">
        <ele>397</ele>
        <time>2025-06-22T07:30:20Z</time>
      </trkpt>
      <trkpt lat="48.95362" lon="7.3691">
        <ele>397</ele>
        <time>2025-06-22T07:30:21Z</time>
      </trkpt>
      <trkpt lat="48.9536" lon="7.36913">
        <ele>397</ele>
        <time>2025-06-22T07:30:22Z</time>
      </trkpt>
      <trkpt lat="48.95359" lon="7.36918">
        <ele>397</ele>
        <time>2025-06-22T07:30:23Z</time>
      </trkpt>
      <trkpt lat="48.95357" lon="7.36923">
        <ele>397</ele>
        <time>2025-06-22T07:30:24Z</time>
      </trkpt>
      <trkpt lat="48.95355" lon="7.36927">
        <ele>397</ele>
        <time>2025-06-22T07:30:25Z</time>
      </trkpt>
      <trkpt lat="48.95354" lon="7.36933">
        <ele>397</ele>
        <time>2025-06-22T07:30:26Z</time>
      </trkpt>
      <trkpt lat="48.95352" lon="7.36938">
        <ele>397</ele>
        <time>2025-06-22T07:30:27Z</time>
      </trkpt>
      <trkpt lat="48.95351" lon="7.36944">
        <ele>397</ele>
        <time>2025-06-22T07:30:28Z</time>
      </trkpt>
      <trkpt lat="48.95349" lon="7.36951">
        <ele>397</ele>
        <time>2025-06-22T07:30:29Z</time>
      </trkpt>
      <trkpt lat="48.95347" lon="7.36958">
        <ele>397</ele>
        <time>2025-06-22T07:30:30Z</time>
      </trkpt>
      <trkpt lat="48.95345" lon="7.36965">
        <ele>397</ele>
        <time>2025-06-22T07:30:31Z</time>
      </trkpt>
      <trkpt lat="48.95342" lon="7.36972">
        <ele>397</ele>
        <time>2025-06-22T07:30:32Z</time>
      </trkpt>
      <trkpt lat="48.9534" lon="7.36978">
        <ele>397</ele>
        <time>2025-06-22T07:30:33Z</time>
      </trkpt>
      <trkpt lat="48.95338" lon="7.36984">
        <ele>397</ele>
        <time>2025-06-22T07:30:34Z</time>
      </trkpt>
      <trkpt lat="48.95335" lon="7.3699">
        <ele>397</ele>
        <time>2025-06-22T07:30:35Z</time>
      </trkpt>
      <trkpt lat="48.95333" lon="7.36996">
        <ele>397</ele>
        <time>2025-06-22T07:30:36Z</time>
      </trkpt>
      <trkpt lat="48.95331" lon="7.37003">
        <ele>397</ele>
        <time>2025-06-22T07:30:37Z</time>
      </trkpt>
      <trkpt lat="48.95329" lon="7.37009">
        <ele>397</ele>
        <time>2025-06-22T07:30:38Z</time>
      </trkpt>
      <trkpt lat="48.95327" lon="7.37015">
        <ele>397</ele>
        <time>2025-06-22T07:30:39Z</time>
      </trkpt>
      <trkpt lat="48.95325" lon="7.37021">
        <ele>397</ele>
        <time>2025-06-22T07:30:40Z</time>
      </trkpt>
      <trkpt lat="48.95324" lon="7.37027">
        <ele>397</ele>
        <time>2025-06-22T07:30:41Z</time>
      </trkpt>
      <trkpt lat="48.95322" lon="7.37032">
        <ele>397</ele>
        <time>2025-06-22T07:30:42Z</time>
      </trkpt>
      <trkpt lat="48.9532" lon="7.37038">
        <ele>397</ele>
        <time>2025-06-22T07:30:43Z</time>
      </trkpt>
      <trkpt lat="48.95318" lon="7.37044">
        <ele>398</ele>
        <time>2025-06-22T07:30:44Z</time>
      </trkpt>
      <trkpt lat="48.95316" lon="7.3705">
        <ele>398</ele>
        <time>2025-06-22T07:30:45Z</time>
      </trkpt>
      <trkpt lat="48.95314" lon="7.37055">
        <ele>398</ele>
        <time>2025-06-22T07:30:46Z</time>
      </trkpt>
      <trkpt lat="48.95312" lon="7.37061">
        <ele>398</ele>
        <time>2025-06-22T07:30:47Z</time>
      </trkpt>
      <trkpt lat="48.9531" lon="7.37067">
        <ele>398</ele>
        <time>2025-06-22T07:30:48Z</time>
      </trkpt>
      <trkpt lat="48.95307" lon="7.37074">
        <ele>398</ele>
        <time>2025-06-22T07:30:49Z</time>
      </trkpt>
      <trkpt lat="48.95305" lon="7.37081">
        <ele>398</ele>
        <time>2025-06-22T07:30:50Z</time>
      </trkpt>
      <trkpt lat="48.95302" lon="7.37089">
        <ele>398</ele>
        <time>2025-06-22T07:30:51Z</time>
      </trkpt>
      <trkpt lat="48.953" lon="7.37096">
        <ele>398</ele>
        <time>2025-06-22T07:30:52Z</time>
      </trkpt>
      <trkpt lat="48.95297" lon="7.37104">
        <ele>398</ele>
        <time>2025-06-22T07:30:53Z</time>
      </trkpt>
      <trkpt lat="48.95295" lon="7.37111">
        <ele>398</ele>
        <time>2025-06-22T07:30:54Z</time>
      </trkpt>
      <trkpt lat="48.95292" lon="7.37118">
        <ele>398</ele>
        <time>2025-06-22T07:30:55Z</time>
      </trkpt>
      <trkpt lat="48.9529" lon="7.37126">
        <ele>398</ele>
        <time>2025-06-22T07:30:56Z</time>
      </trkpt>
      <trkpt lat="48.95287" lon="7.37133">
        <ele>397</ele>
        <time>2025-06-22T07:30:57Z</time>
      </trkpt>
      <trkpt lat="48.95285" lon="7.3714">
        <ele>397</ele>
        <time>2025-06-22T07:30:58Z</time>
      </trkpt>
      <trkpt lat="48.95282" lon="7.37147">
        <ele>397</ele>
        <time>2025-06-22T07:30:59Z</time>
      </trkpt>
      <trkpt lat="48.9528" lon="7.37155">
        <ele>397</ele>
        <time>2025-06-22T07:31:00Z</time>
      </trkpt>
      <trkpt lat="48.95278" lon="7.37162">
        <ele>397</ele>
        <time>2025-06-22T07:31:01Z</time>
      </trkpt>
      <trkpt lat="48.95275" lon="7.37169">
        <ele>397</ele>
        <time>2025-06-22T07:31:02Z</time>
      </trkpt>
      <trkpt lat="48.95272" lon="7.37176">
        <ele>397</ele>
        <time>2025-06-22T07:31:03Z</time>
      </trkpt>
      <trkpt lat="48.95269" lon="7.37184">
        <ele>397</ele>
        <time>2025-06-22T07:31:04Z</time>
      </trkpt>
      <trkpt lat="48.95266" lon="7.37191">
        <ele>397</ele>
        <time>2025-06-22T07:31:05Z</time>
      </trkpt>
      <trkpt lat="48.95264" lon="7.37198">
        <ele>397</ele>
        <time>2025-06-22T07:31:06Z</time>
      </trkpt>
      <trkpt lat="48.95261" lon="7.37206">
        <ele>397</ele>
        <time>2025-06-22T07:31:07Z</time>
      </trkpt>
      <trkpt lat="48.95259" lon="7.37213">
        <ele>397</ele>
        <time>2025-06-22T07:31:08Z</time>
      </trkpt>
      <trkpt lat="48.95256" lon="7.37221">
        <ele>397</ele>
        <time>2025-06-22T07:31:09Z</time>
      </trkpt>
      <trkpt lat="48.95253" lon="7.37229">
        <ele>397</ele>
        <time>2025-06-22T07:31:10Z</time>
      </trkpt>
      <trkpt lat="48.9525" lon="7.37237">
        <ele>397</ele>
        <time>2025-06-22T07:31:11Z</time>
      </trkpt>
      <trkpt lat="48.95248" lon="7.37245">
        <ele>396</ele>
        <time>2025-06-22T07:31:12Z</time>
      </trkpt>
      <trkpt lat="48.95245" lon="7.37253">
        <ele>396</ele>
        <time>2025-06-22T07:31:13Z</time>
      </trkpt>
      <trkpt lat="48.95243" lon="7.37261">
        <ele>396</ele>
        <time>2025-06-22T07:31:14Z</time>
      </trkpt>
      <trkpt lat="48.9524" lon="7.37269">
        <ele>396</ele>
        <time>2025-06-22T07:31:15Z</time>
      </trkpt>
      <trkpt lat="48.95238" lon="7.37277">
        <ele>396</ele>
        <time>2025-06-22T07:31:16Z</time>
      </trkpt>
      <trkpt lat="48.95235" lon="7.37285">
        <ele>396</ele>
        <time>2025-06-22T07:31:17Z</time>
      </trkpt>
      <trkpt lat="48.95233" lon="7.37292">
        <ele>396</ele>
        <time>2025-06-22T07:31:18Z</time>
      </trkpt>
      <trkpt lat="48.95231" lon="7.37299">
        <ele>396</ele>
        <time>2025-06-22T07:31:19Z</time>
      </trkpt>
      <trkpt lat="48.95228" lon="7.37307">
        <ele>396</ele>
        <time>2025-06-22T07:31:20Z</time>
      </trkpt>
      <trkpt lat="48.95226" lon="7.37314">
        <ele>396</ele>
        <time>2025-06-22T07:31:21Z</time>
      </trkpt>
      <trkpt lat="48.95223" lon="7.37322">
        <ele>396</ele>
        <time>2025-06-22T07:31:22Z</time>
      </trkpt>
      <trkpt lat="48.9522" lon="7.3733">
        <ele>396</ele>
        <time>2025-06-22T07:31:23Z</time>
      </trkpt>
      <trkpt lat="48.95218" lon="7.37337">
        <ele>396</ele>
        <time>2025-06-22T07:31:24Z</time>
      </trkpt>
      <trkpt lat="48.95215" lon="7.37344">
        <ele>396</ele>
        <time>2025-06-22T07:31:25Z</time>
      </trkpt>
      <trkpt lat="48.95213" lon="7.37351">
        <ele>396</ele>
        <time>2025-06-22T07:31:26Z</time>
      </trkpt>
      <trkpt lat="48.95211" lon="7.37359">
        <ele>396</ele>
        <time>2025-06-22T07:31:27Z</time>
      </trkpt>
      <trkpt lat="48.95209" lon="7.37367">
        <ele>396</ele>
        <time>2025-06-22T07:31:28Z</time>
      </trkpt>
      <trkpt lat="48.95207" lon="7.37374">
        <ele>396</ele>
        <time>2025-06-22T07:31:29Z</time>
      </trkpt>
      <trkpt lat="48.95205" lon="7.37381">
        <ele>396</ele>
        <time>2025-06-22T07:31:30Z</time>
      </trkpt>
      <trkpt lat="48.95202" lon="7.37389">
        <ele>396</ele>
        <time>2025-06-22T07:31:31Z</time>
      </trkpt>
      <trkpt lat="48.952" lon="7.37397">
        <ele>396</ele>
        <time>2025-06-22T07:31:32Z</time>
      </trkpt>
      <trkpt lat="48.95197" lon="7.37405">
        <ele>396</ele>
        <time>2025-06-22T07:31:33Z</time>
      </trkpt>
      <trkpt lat="48.95194" lon="7.37413">
        <ele>396</ele>
        <time>2025-06-22T07:31:34Z</time>
      </trkpt>
      <trkpt lat="48.95192" lon="7.37421">
        <ele>396</ele>
        <time>2025-06-22T07:31:35Z</time>
      </trkpt>
      <trkpt lat="48.95189" lon="7.37428">
        <ele>396</ele>
        <time>2025-06-22T07:31:36Z</time>
      </trkpt>
      <trkpt lat="48.95186" lon="7.37436">
        <ele>396</ele>
        <time>2025-06-22T07:31:37Z</time>
      </trkpt>
      <trkpt lat="48.95184" lon="7.37444">
        <ele>396</ele>
        <time>2025-06-22T07:31:38Z</time>
      </trkpt>
      <trkpt lat="48.95181" lon="7.37452">
        <ele>396</ele>
        <time>2025-06-22T07:31:39Z</time>
      </trkpt>
      <trkpt lat="48.95179" lon="7.3746">
        <ele>396</ele>
        <time>2025-06-22T07:31:40Z</time>
      </trkpt>
      <trkpt lat="48.95176" lon="7.37468">
        <ele>396</ele>
        <time>2025-06-22T07:31:41Z</time>
      </trkpt>
      <trkpt lat="48.95173" lon="7.37477">
        <ele>397</ele>
        <time>2025-06-22T07:31:42Z</time>
      </trkpt>
      <trkpt lat="48.9517" lon="7.37485">
        <ele>397</ele>
        <time>2025-06-22T07:31:43Z</time>
      </trkpt>
      <trkpt lat="48.95167" lon="7.37494">
        <ele>397</ele>
        <time>2025-06-22T07:31:44Z</time>
      </trkpt>
      <trkpt lat="48.95165" lon="7.37502">
        <ele>397</ele>
        <time>2025-06-22T07:31:45Z</time>
      </trkpt>
      <trkpt lat="48.95162" lon="7.37511">
        <ele>397</ele>
        <time>2025-06-22T07:31:46Z</time>
      </trkpt>
      <trkpt lat="48.95159" lon="7.3752">
        <ele>397</ele>
        <time>2025-06-22T07:31:47Z</time>
      </trkpt>
      <trkpt lat="48.95156" lon="7.37528">
        <ele>397</ele>
        <time>2025-06-22T07:31:48Z</time>
      </trkpt>
      <trkpt lat="48.95154" lon="7.37537">
        <ele>396</ele>
        <time>2025-06-22T07:31:49Z</time>
      </trkpt>
      <trkpt lat="48.95152" lon="7.37546">
        <ele>396</ele>
        <time>2025-06-22T07:31:50Z</time>
      </trkpt>
      <trkpt lat="48.9515" lon="7.37555">
        <ele>396</ele>
        <time>2025-06-22T07:31:51Z</time>
      </trkpt>
      <trkpt lat="48.95149" lon="7.37564">
        <ele>396</ele>
        <time>2025-06-22T07:31:52Z</time>
      </trkpt>
      <trkpt lat="48.95148" lon="7.37573">
        <ele>396</ele>
        <time>2025-06-22T07:31:53Z</time>
      </trkpt>
      <trkpt lat="48.95148" lon="7.37582">
        <ele>396</ele>
        <time>2025-06-22T07:31:54Z</time>
      </trkpt>
      <trkpt lat="48.95147" lon="7.37591">
        <ele>396</ele>
        <time>2025-06-22T07:31:55Z</time>
      </trkpt>
      <trkpt lat="48.95147" lon="7.376">
        <ele>396</ele>
        <time>2025-06-22T07:31:56Z</time>
      </trkpt>
      <trkpt lat="48.95147" lon="7.37608">
        <ele>396</ele>
        <time>2025-06-22T07:31:57Z</time>
      </trkpt>
      <trkpt lat="48.95148" lon="7.37617">
        <ele>396</ele>
        <time>2025-06-22T07:31:58Z</time>
      </trkpt>
      <trkpt lat="48.95148" lon="7.37625">
        <ele>396</ele>
        <time>2025-06-22T07:31:59Z</time>
      </trkpt>
      <trkpt lat="48.95149" lon="7.37634">
        <ele>396</ele>
        <time>2025-06-22T07:32:00Z</time>
      </trkpt>
      <trkpt lat="48.9515" lon="7.37642">
        <ele>396</ele>
        <time>2025-06-22T07:32:01Z</time>
      </trkpt>
      <trkpt lat="48.9515" lon="7.3765">
        <ele>396</ele>
        <time>2025-06-22T07:32:02Z</time>
      </trkpt>
      <trkpt lat="48.95151" lon="7.37659">
        <ele>396</ele>
        <time>2025-06-22T07:32:03Z</time>
      </trkpt>
      <trkpt lat="48.95152" lon="7.37668">
        <ele>395</ele>
        <time>2025-06-22T07:32:04Z</time>
      </trkpt>
      <trkpt lat="48.95153" lon="7.37678">
        <ele>395</ele>
        <time>2025-06-22T07:32:05Z</time>
      </trkpt>
      <trkpt lat="48.95154" lon="7.37687">
        <ele>395</ele>
        <time>2025-06-22T07:32:06Z</time>
      </trkpt>
      <trkpt lat="48.95154" lon="7.37697">
        <ele>395</ele>
        <time>2025-06-22T07:32:07Z</time>
      </trkpt>
      <trkpt lat="48.95154" lon="7.37706">
        <ele>395</ele>
        <time>2025-06-22T07:32:08Z</time>
      </trkpt>
      <trkpt lat="48.95154" lon="7.37715">
        <ele>395</ele>
        <time>2025-06-22T07:32:09Z</time>
      </trkpt>
      <trkpt lat="48.95154" lon="7.37725">
        <ele>395</ele>
        <time>2025-06-22T07:32:10Z</time>
      </trkpt>
      <trkpt lat="48.95154" lon="7.37734">
        <ele>395</ele>
        <time>2025-06-22T07:32:11Z</time>
      </trkpt>
      <trkpt lat="48.95154" lon="7.37743">
        <ele>395</ele>
        <time>2025-06-22T07:32:12Z</time>
      </trkpt>
      <trkpt lat="48.95154" lon="7.37752">
        <ele>395</ele>
        <time>2025-06-22T07:32:13Z</time>
      </trkpt>
      <trkpt lat="48.95154" lon="7.37762">
        <ele>395</ele>
        <time>2025-06-22T07:32:14Z</time>
      </trkpt>
      <trkpt lat="48.95154" lon="7.37771">
        <ele>395</ele>
        <time>2025-06-22T07:32:15Z</time>
      </trkpt>
      <trkpt lat="48.95154" lon="7.37781">
        <ele>395</ele>
        <time>2025-06-22T07:32:16Z</time>
      </trkpt>
      <trkpt lat="48.95155" lon="7.37791">
        <ele>395</ele>
        <time>2025-06-22T07:32:17Z</time>
      </trkpt>
      <trkpt lat="48.95155" lon="7.378">
        <ele>395</ele>
        <time>2025-06-22T07:32:18Z</time>
      </trkpt>
      <trkpt lat="48.95155" lon="7.37808">
        <ele>395</ele>
        <time>2025-06-22T07:32:19Z</time>
      </trkpt>
      <trkpt lat="48.95156" lon="7.37817">
        <ele>395</ele>
        <time>2025-06-22T07:32:20Z</time>
      </trkpt>
      <trkpt lat="48.95156" lon="7.37828">
        <ele>395</ele>
        <time>2025-06-22T07:32:21Z</time>
      </trkpt>
      <trkpt lat="48.95157" lon="7.37837">
        <ele>395</ele>
        <time>2025-06-22T07:32:22Z</time>
      </trkpt>
      <trkpt lat="48.95157" lon="7.37847">
        <ele>394</ele>
        <time>2025-06-22T07:32:23Z</time>
      </trkpt>
      <trkpt lat="48.95158" lon="7.37857">
        <ele>394</ele>
        <time>2025-06-22T07:32:24Z</time>
      </trkpt>
      <trkpt lat="48.95158" lon="7.37867">
        <ele>395</ele>
        <time>2025-06-22T07:32:25Z</time>
      </trkpt>
      <trkpt lat="48.95159" lon="7.37876">
        <ele>395</ele>
        <time>2025-06-22T07:32:26Z</time>
      </trkpt>
      <trkpt lat="48.9516" lon="7.37885">
        <ele>395</ele>
        <time>2025-06-22T07:32:27Z</time>
      </trkpt>
      <trkpt lat="48.9516" lon="7.37893">
        <ele>395</ele>
        <time>2025-06-22T07:32:28Z</time>
      </trkpt>
      <trkpt lat="48.95161" lon="7.37901">
        <ele>395</ele>
        <time>2025-06-22T07:32:29Z</time>
      </trkpt>
      <trkpt lat="48.95161" lon="7.37909">
        <ele>395</ele>
        <time>2025-06-22T07:32:30Z</time>
      </trkpt>
      <trkpt lat="48.95162" lon="7.37918">
        <ele>395</ele>
        <time>2025-06-22T07:32:31Z</time>
      </trkpt>
      <trkpt lat="48.95164" lon="7.37936">
        <ele>395</ele>
        <time>2025-06-22T07:32:32Z</time>
      </trkpt>
      <trkpt lat="48.95165" lon="7.37945">
        <ele>396</ele>
        <time>2025-06-22T07:32:34Z</time>
      </trkpt>
      <trkpt lat="48.95165" lon="7.37954">
        <ele>396</ele>
        <time>2025-06-22T07:32:35Z</time>
      </trkpt>
      <trkpt lat="48.95167" lon="7.37963">
        <ele>396</ele>
        <time>2025-06-22T07:32:36Z</time>
      </trkpt>
      <trkpt lat="48.95167" lon="7.37971">
        <ele>396</ele>
        <time>2025-06-22T07:32:37Z</time>
      </trkpt>
      <trkpt lat="48.95168" lon="7.3798">
        <ele>396</ele>
        <time>2025-06-22T07:32:38Z</time>
      </trkpt>
      <trkpt lat="48.95169" lon="7.37989">
        <ele>396</ele>
        <time>2025-06-22T07:32:39Z</time>
      </trkpt>
      <trkpt lat="48.9517" lon="7.37997">
        <ele>396</ele>
        <time>2025-06-22T07:32:40Z</time>
      </trkpt>
      <trkpt lat="48.95172" lon="7.38007">
        <ele>396</ele>
        <time>2025-06-22T07:32:41Z</time>
      </trkpt>
      <trkpt lat="48.95174" lon="7.38016">
        <ele>395</ele>
        <time>2025-06-22T07:32:42Z</time>
      </trkpt>
      <trkpt lat="48.95175" lon="7.38025">
        <ele>394</ele>
        <time>2025-06-22T07:32:43Z</time>
      </trkpt>
      <trkpt lat="48.95176" lon="7.38035">
        <ele>394</ele>
        <time>2025-06-22T07:32:44Z</time>
      </trkpt>
      <trkpt lat="48.95177" lon="7.38045">
        <ele>394</ele>
        <time>2025-06-22T07:32:45Z</time>
      </trkpt>
      <trkpt lat="48.95178" lon="7.38054">
        <ele>394</ele>
        <time>2025-06-22T07:32:46Z</time>
      </trkpt>
      <trkpt lat="48.95179" lon="7.38063">
        <ele>394</ele>
        <time>2025-06-22T07:32:47Z</time>
      </trkpt>
      <trkpt lat="48.9518" lon="7.38072">
        <ele>395</ele>
        <time>2025-06-22T07:32:48Z</time>
      </trkpt>
      <trkpt lat="48.95181" lon="7.38081">
        <ele>395</ele>
        <time>2025-06-22T07:32:49Z</time>
      </trkpt>
      <trkpt lat="48.95182" lon="7.38091">
        <ele>395</ele>
        <time>2025-06-22T07:32:50Z</time>
      </trkpt>
      <trkpt lat="48.95184" lon="7.381">
        <ele>395</ele>
        <time>2025-06-22T07:32:51Z</time>
      </trkpt>
      <trkpt lat="48.95185" lon="7.38108">
        <ele>395</ele>
        <time>2025-06-22T07:32:52Z</time>
      </trkpt>
      <trkpt lat="48.95186" lon="7.38116">
        <ele>395</ele>
        <time>2025-06-22T07:32:53Z</time>
      </trkpt>
      <trkpt lat="48.95187" lon="7.38125">
        <ele>395</ele>
        <time>2025-06-22T07:32:54Z</time>
      </trkpt>
      <trkpt lat="48.95188" lon="7.38134">
        <ele>395</ele>
        <time>2025-06-22T07:32:55Z</time>
      </trkpt>
      <trkpt lat="48.9519" lon="7.38144">
        <ele>395</ele>
        <time>2025-06-22T07:32:56Z</time>
      </trkpt>
      <trkpt lat="48.95192" lon="7.38153">
        <ele>395</ele>
        <time>2025-06-22T07:32:57Z</time>
      </trkpt>
      <trkpt lat="48.95193" lon="7.38162">
        <ele>395</ele>
        <time>2025-06-22T07:32:58Z</time>
      </trkpt>
      <trkpt lat="48.95195" lon="7.38171">
        <ele>395</ele>
        <time>2025-06-22T07:32:59Z</time>
      </trkpt>
      <trkpt lat="48.95196" lon="7.3818">
        <ele>396</ele>
        <time>2025-06-22T07:33:00Z</time>
      </trkpt>
      <trkpt lat="48.95198" lon="7.38189">
        <ele>396</ele>
        <time>2025-06-22T07:33:01Z</time>
      </trkpt>
      <trkpt lat="48.95199" lon="7.38197">
        <ele>396</ele>
        <time>2025-06-22T07:33:02Z</time>
      </trkpt>
      <trkpt lat="48.95201" lon="7.38205">
        <ele>396</ele>
        <time>2025-06-22T07:33:03Z</time>
      </trkpt>
      <trkpt lat="48.95203" lon="7.38214">
        <ele>396</ele>
        <time>2025-06-22T07:33:04Z</time>
      </trkpt>
      <trkpt lat="48.95205" lon="7.38222">
        <ele>396</ele>
        <time>2025-06-22T07:33:05Z</time>
      </trkpt>
      <trkpt lat="48.95207" lon="7.38232">
        <ele>396</ele>
        <time>2025-06-22T07:33:06Z</time>
      </trkpt>
      <trkpt lat="48.95209" lon="7.38241">
        <ele>396</ele>
        <time>2025-06-22T07:33:07Z</time>
      </trkpt>
      <trkpt lat="48.95211" lon="7.38249">
        <ele>396</ele>
        <time>2025-06-22T07:33:08Z</time>
      </trkpt>
      <trkpt lat="48.95213" lon="7.38258">
        <ele>396</ele>
        <time>2025-06-22T07:33:09Z</time>
      </trkpt>
      <trkpt lat="48.95215" lon="7.38266">
        <ele>396</ele>
        <time>2025-06-22T07:33:10Z</time>
      </trkpt>
      <trkpt lat="48.95216" lon="7.38275">
        <ele>396</ele>
        <time>2025-06-22T07:33:11Z</time>
      </trkpt>
      <trkpt lat="48.95219" lon="7.38282">
        <ele>396</ele>
        <time>2025-06-22T07:33:12Z</time>
      </trkpt>
      <trkpt lat="48.95222" lon="7.38289">
        <ele>396</ele>
        <time>2025-06-22T07:33:13Z</time>
      </trkpt>
      <trkpt lat="48.95224" lon="7.38296">
        <ele>396</ele>
        <time>2025-06-22T07:33:14Z</time>
      </trkpt>
      <trkpt lat="48.95224" lon="7.38304">
        <ele>396</ele>
        <time>2025-06-22T07:33:15Z</time>
      </trkpt>
      <trkpt lat="48.95225" lon="7.38312">
        <ele>396</ele>
        <time>2025-06-22T07:33:16Z</time>
      </trkpt>
      <trkpt lat="48.95225" lon="7.3832">
        <ele>397</ele>
        <time>2025-06-22T07:33:17Z</time>
      </trkpt>
      <trkpt lat="48.95226" lon="7.3833">
        <ele>397</ele>
        <time>2025-06-22T07:33:18Z</time>
      </trkpt>
      <trkpt lat="48.95227" lon="7.38339">
        <ele>397</ele>
        <time>2025-06-22T07:33:19Z</time>
      </trkpt>
      <trkpt lat="48.95227" lon="7.38348">
        <ele>397</ele>
        <time>2025-06-22T07:33:20Z</time>
      </trkpt>
      <trkpt lat="48.95228" lon="7.38357">
        <ele>397</ele>
        <time>2025-06-22T07:33:21Z</time>
      </trkpt>
      <trkpt lat="48.95229" lon="7.38366">
        <ele>397</ele>
        <time>2025-06-22T07:33:22Z</time>
      </trkpt>
      <trkpt lat="48.9523" lon="7.38375">
        <ele>397</ele>
        <time>2025-06-22T07:33:23Z</time>
      </trkpt>
      <trkpt lat="48.95231" lon="7.38384">
        <ele>397</ele>
        <time>2025-06-22T07:33:24Z</time>
      </trkpt>
      <trkpt lat="48.95232" lon="7.38393">
        <ele>397</ele>
        <time>2025-06-22T07:33:25Z</time>
      </trkpt>
      <trkpt lat="48.95233" lon="7.38402">
        <ele>397</ele>
        <time>2025-06-22T07:33:26Z</time>
      </trkpt>
      <trkpt lat="48.95234" lon="7.38411">
        <ele>397</ele>
        <time>2025-06-22T07:33:27Z</time>
      </trkpt>
      <trkpt lat="48.95235" lon="7.38421">
        <ele>397</ele>
        <time>2025-06-22T07:33:28Z</time>
      </trkpt>
      <trkpt lat="48.95236" lon="7.38429">
        <ele>397</ele>
        <time>2025-06-22T07:33:29Z</time>
      </trkpt>
      <trkpt lat="48.95237" lon="7.38438">
        <ele>397</ele>
        <time>2025-06-22T07:33:30Z</time>
      </trkpt>
      <trkpt lat="48.95239" lon="7.38447">
        <ele>397</ele>
        <time>2025-06-22T07:33:31Z</time>
      </trkpt>
      <trkpt lat="48.9524" lon="7.38456">
        <ele>397</ele>
        <time>2025-06-22T07:33:32Z</time>
      </trkpt>
      <trkpt lat="48.95242" lon="7.38465">
        <ele>397</ele>
        <time>2025-06-22T07:33:33Z</time>
      </trkpt>
      <trkpt lat="48.95244" lon="7.38474">
        <ele>397</ele>
        <time>2025-06-22T07:33:34Z</time>
      </trkpt>
      <trkpt lat="48.95245" lon="7.38482">
        <ele>397</ele>
        <time>2025-06-22T07:33:35Z</time>
      </trkpt>
      <trkpt lat="48.95247" lon="7.3849">
        <ele>397</ele>
        <time>2025-06-22T07:33:36Z</time>
      </trkpt>
      <trkpt lat="48.95248" lon="7.38499">
        <ele>397</ele>
        <time>2025-06-22T07:33:37Z</time>
      </trkpt>
      <trkpt lat="48.95249" lon="7.38507">
        <ele>397</ele>
        <time>2025-06-22T07:33:38Z</time>
      </trkpt>
      <trkpt lat="48.95251" lon="7.38515">
        <ele>397</ele>
        <time>2025-06-22T07:33:39Z</time>
      </trkpt>
      <trkpt lat="48.95253" lon="7.38524">
        <ele>398</ele>
        <time>2025-06-22T07:33:40Z</time>
      </trkpt>
      <trkpt lat="48.95254" lon="7.38533">
        <ele>398</ele>
        <time>2025-06-22T07:33:41Z</time>
      </trkpt>
      <trkpt lat="48.95256" lon="7.38542">
        <ele>398</ele>
        <time>2025-06-22T07:33:42Z</time>
      </trkpt>
      <trkpt lat="48.95258" lon="7.3855">
        <ele>397</ele>
        <time>2025-06-22T07:33:43Z</time>
      </trkpt>
      <trkpt lat="48.9526" lon="7.3856">
        <ele>397</ele>
        <time>2025-06-22T07:33:44Z</time>
      </trkpt>
      <trkpt lat="48.95262" lon="7.38568">
        <ele>397</ele>
        <time>2025-06-22T07:33:45Z</time>
      </trkpt>
      <trkpt lat="48.95263" lon="7.38576">
        <ele>397</ele>
        <time>2025-06-22T07:33:46Z</time>
      </trkpt>
      <trkpt lat="48.95266" lon="7.38584">
        <ele>397</ele>
        <time>2025-06-22T07:33:47Z</time>
      </trkpt>
      <trkpt lat="48.95268" lon="7.38593">
        <ele>397</ele>
        <time>2025-06-22T07:33:48Z</time>
      </trkpt>
      <trkpt lat="48.95274" lon="7.38609">
        <ele>397</ele>
        <time>2025-06-22T07:33:50Z</time>
      </trkpt>
      <trkpt lat="48.95277" lon="7.38624">
        <ele>397</ele>
        <time>2025-06-22T07:33:52Z</time>
      </trkpt>
      <trkpt lat="48.95278" lon="7.38639">
        <ele>398</ele>
        <time>2025-06-22T07:33:54Z</time>
      </trkpt>
      <trkpt lat="48.95277" lon="7.38654">
        <ele>398</ele>
        <time>2025-06-22T07:33:56Z</time>
      </trkpt>
      <trkpt lat="48.95277" lon="7.38661">
        <ele>398</ele>
        <time>2025-06-22T07:33:57Z</time>
      </trkpt>
      <trkpt lat="48.95277" lon="7.38669">
        <ele>398</ele>
        <time>2025-06-22T07:33:58Z</time>
      </trkpt>
      <trkpt lat="48.95276" lon="7.38676">
        <ele>398</ele>
        <time>2025-06-22T07:33:59Z</time>
      </trkpt>
      <trkpt lat="48.95275" lon="7.38684">
        <ele>398</ele>
        <time>2025-06-22T07:34:00Z</time>
      </trkpt>
      <trkpt lat="48.95275" lon="7.38692">
        <ele>398</ele>
        <time>2025-06-22T07:34:01Z</time>
      </trkpt>
      <trkpt lat="48.95274" lon="7.38699">
        <ele>398</ele>
        <time>2025-06-22T07:34:02Z</time>
      </trkpt>
      <trkpt lat="48.95273" lon="7.38706">
        <ele>398</ele>
        <time>2025-06-22T07:34:03Z</time>
      </trkpt>
      <trkpt lat="48.95272" lon="7.38713">
        <ele>398</ele>
        <time>2025-06-22T07:34:04Z</time>
      </trkpt>
      <trkpt lat="48.95269" lon="7.38723">
        <ele>398</ele>
        <time>2025-06-22T07:34:05Z</time>
      </trkpt>
      <trkpt lat="48.95266" lon="7.38732">
        <ele>398</ele>
        <time>2025-06-22T07:34:06Z</time>
      </trkpt>
      <trkpt lat="48.95263" lon="7.38741">
        <ele>398</ele>
        <time>2025-06-22T07:34:07Z</time>
      </trkpt>
      <trkpt lat="48.9526" lon="7.3875">
        <ele>398</ele>
        <time>2025-06-22T07:34:08Z</time>
      </trkpt>
      <trkpt lat="48.95256" lon="7.38757">
        <ele>398</ele>
        <time>2025-06-22T07:34:09Z</time>
      </trkpt>
      <trkpt lat="48.95252" lon="7.38763">
        <ele>398</ele>
        <time>2025-06-22T07:34:10Z</time>
      </trkpt>
      <trkpt lat="48.95245" lon="7.38777">
        <ele>398</ele>
        <time>2025-06-22T07:34:12Z</time>
      </trkpt>
      <trkpt lat="48.95237" lon="7.3879">
        <ele>398</ele>
        <time>2025-06-22T07:34:14Z</time>
      </trkpt>
      <trkpt lat="48.9523" lon="7.38803">
        <ele>399</ele>
        <time>2025-06-22T07:34:15Z</time>
      </trkpt>
      <trkpt lat="48.95223" lon="7.38815">
        <ele>399</ele>
        <time>2025-06-22T07:34:18Z</time>
      </trkpt>
      <trkpt lat="48.95219" lon="7.38821">
        <ele>399</ele>
        <time>2025-06-22T07:34:19Z</time>
      </trkpt>
      <trkpt lat="48.95215" lon="7.38827">
        <ele>399</ele>
        <time>2025-06-22T07:34:20Z</time>
      </trkpt>
      <trkpt lat="48.95211" lon="7.38832">
        <ele>399</ele>
        <time>2025-06-22T07:34:21Z</time>
      </trkpt>
      <trkpt lat="48.95208" lon="7.38838">
        <ele>399</ele>
        <time>2025-06-22T07:34:22Z</time>
      </trkpt>
      <trkpt lat="48.95205" lon="7.38845">
        <ele>399</ele>
        <time>2025-06-22T07:34:23Z</time>
      </trkpt>
      <trkpt lat="48.95201" lon="7.38851">
        <ele>399</ele>
        <time>2025-06-22T07:34:24Z</time>
      </trkpt>
      <trkpt lat="48.95198" lon="7.38857">
        <ele>399</ele>
        <time>2025-06-22T07:34:25Z</time>
      </trkpt>
      <trkpt lat="48.95195" lon="7.38862">
        <ele>399</ele>
        <time>2025-06-22T07:34:26Z</time>
      </trkpt>
      <trkpt lat="48.95192" lon="7.38866">
        <ele>399</ele>
        <time>2025-06-22T07:34:27Z</time>
      </trkpt>
      <trkpt lat="48.95189" lon="7.38867">
        <ele>399</ele>
        <time>2025-06-22T07:34:28Z</time>
      </trkpt>
      <trkpt lat="48.95185" lon="7.38867">
        <ele>399</ele>
        <time>2025-06-22T07:34:29Z</time>
      </trkpt>
      <trkpt lat="48.95182" lon="7.38864">
        <ele>399</ele>
        <time>2025-06-22T07:34:30Z</time>
      </trkpt>
      <trkpt lat="48.95179" lon="7.38862">
        <ele>399</ele>
        <time>2025-06-22T07:34:31Z</time>
      </trkpt>
      <trkpt lat="48.95175" lon="7.38859">
        <ele>399</ele>
        <time>2025-06-22T07:34:32Z</time>
      </trkpt>
      <trkpt lat="48.95171" lon="7.38858">
        <ele>399</ele>
        <time>2025-06-22T07:34:33Z</time>
      </trkpt>
      <trkpt lat="48.95167" lon="7.38857">
        <ele>399</ele>
        <time>2025-06-22T07:34:34Z</time>
      </trkpt>
      <trkpt lat="48.95163" lon="7.38857">
        <ele>399</ele>
        <time>2025-06-22T07:34:35Z</time>
      </trkpt>
      <trkpt lat="48.95159" lon="7.38857">
        <ele>398</ele>
        <time>2025-06-22T07:34:36Z</time>
      </trkpt>
      <trkpt lat="48.95157" lon="7.38858">
        <ele>398</ele>
        <time>2025-06-22T07:34:37Z</time>
      </trkpt>
      <trkpt lat="48.95154" lon="7.38858">
        <ele>398</ele>
        <time>2025-06-22T07:34:38Z</time>
      </trkpt>
      <trkpt lat="48.95151" lon="7.38858">
        <ele>398</ele>
        <time>2025-06-22T07:34:39Z</time>
      </trkpt>
      <trkpt lat="48.95137" lon="7.38855">
        <ele>397</ele>
        <time>2025-06-22T07:34:42Z</time>
      </trkpt>
      <trkpt lat="48.95125" lon="7.38852">
        <ele>397</ele>
        <time>2025-06-22T07:34:44Z</time>
      </trkpt>
      <trkpt lat="48.95115" lon="7.38851">
        <ele>397</ele>
        <time>2025-06-22T07:34:46Z</time>
      </trkpt>
      <trkpt lat="48.95102" lon="7.38851">
        <ele>396</ele>
        <time>2025-06-22T07:34:48Z</time>
      </trkpt>
      <trkpt lat="48.9509" lon="7.38856">
        <ele>396</ele>
        <time>2025-06-22T07:34:50Z</time>
      </trkpt>
      <trkpt lat="48.9508" lon="7.38864">
        <ele>395</ele>
        <time>2025-06-22T07:34:52Z</time>
      </trkpt>
      <trkpt lat="48.95072" lon="7.38874">
        <ele>395</ele>
        <time>2025-06-22T07:34:54Z</time>
      </trkpt>
      <trkpt lat="48.95064" lon="7.38884">
        <ele>395</ele>
        <time>2025-06-22T07:34:56Z</time>
      </trkpt>
      <trkpt lat="48.95055" lon="7.38893">
        <ele>395</ele>
        <time>2025-06-22T07:34:58Z</time>
      </trkpt>
      <trkpt lat="48.95047" lon="7.38904">
        <ele>395</ele>
        <time>2025-06-22T07:35:00Z</time>
      </trkpt>
      <trkpt lat="48.95044" lon="7.3891">
        <ele>395</ele>
        <time>2025-06-22T07:35:01Z</time>
      </trkpt>
      <trkpt lat="48.95041" lon="7.38916">
        <ele>394</ele>
        <time>2025-06-22T07:35:02Z</time>
      </trkpt>
      <trkpt lat="48.95037" lon="7.38922">
        <ele>394</ele>
        <time>2025-06-22T07:35:03Z</time>
      </trkpt>
      <trkpt lat="48.95033" lon="7.38928">
        <ele>393</ele>
        <time>2025-06-22T07:35:04Z</time>
      </trkpt>
      <trkpt lat="48.95029" lon="7.38934">
        <ele>393</ele>
        <time>2025-06-22T07:35:05Z</time>
      </trkpt>
      <trkpt lat="48.95026" lon="7.3894">
        <ele>393</ele>
        <time>2025-06-22T07:35:06Z</time>
      </trkpt>
      <trkpt lat="48.95022" lon="7.38946">
        <ele>393</ele>
        <time>2025-06-22T07:35:07Z</time>
      </trkpt>
      <trkpt lat="48.95019" lon="7.38952">
        <ele>393</ele>
        <time>2025-06-22T07:35:08Z</time>
      </trkpt>
      <trkpt lat="48.95015" lon="7.38958">
        <ele>393</ele>
        <time>2025-06-22T07:35:09Z</time>
      </trkpt>
      <trkpt lat="48.95012" lon="7.38965">
        <ele>393</ele>
        <time>2025-06-22T07:35:10Z</time>
      </trkpt>
      <trkpt lat="48.95008" lon="7.38971">
        <ele>392</ele>
        <time>2025-06-22T07:35:11Z</time>
      </trkpt>
      <trkpt lat="48.95005" lon="7.38978">
        <ele>392</ele>
        <time>2025-06-22T07:35:12Z</time>
      </trkpt>
      <trkpt lat="48.95001" lon="7.38984">
        <ele>392</ele>
        <time>2025-06-22T07:35:13Z</time>
      </trkpt>
      <trkpt lat="48.94998" lon="7.3899">
        <ele>392</ele>
        <time>2025-06-22T07:35:14Z</time>
      </trkpt>
      <trkpt lat="48.9499" lon="7.39004">
        <ele>392</ele>
        <time>2025-06-22T07:35:16Z</time>
      </trkpt>
      <trkpt lat="48.94987" lon="7.39011">
        <ele>392</ele>
        <time>2025-06-22T07:35:17Z</time>
      </trkpt>
      <trkpt lat="48.94983" lon="7.39019">
        <ele>392</ele>
        <time>2025-06-22T07:35:18Z</time>
      </trkpt>
      <trkpt lat="48.94979" lon="7.39026">
        <ele>392</ele>
        <time>2025-06-22T07:35:19Z</time>
      </trkpt>
      <trkpt lat="48.94974" lon="7.39033">
        <ele>392</ele>
        <time>2025-06-22T07:35:20Z</time>
      </trkpt>
      <trkpt lat="48.9497" lon="7.39039">
        <ele>392</ele>
        <time>2025-06-22T07:35:21Z</time>
      </trkpt>
      <trkpt lat="48.94966" lon="7.39045">
        <ele>392</ele>
        <time>2025-06-22T07:35:22Z</time>
      </trkpt>
      <trkpt lat="48.94962" lon="7.39051">
        <ele>391</ele>
        <time>2025-06-22T07:35:23Z</time>
      </trkpt>
      <trkpt lat="48.94958" lon="7.39057">
        <ele>391</ele>
        <time>2025-06-22T07:35:24Z</time>
      </trkpt>
      <trkpt lat="48.94955" lon="7.39065">
        <ele>391</ele>
        <time>2025-06-22T07:35:25Z</time>
      </trkpt>
      <trkpt lat="48.94953" lon="7.39074">
        <ele>391</ele>
        <time>2025-06-22T07:35:26Z</time>
      </trkpt>
      <trkpt lat="48.94951" lon="7.39082">
        <ele>391</ele>
        <time>2025-06-22T07:35:27Z</time>
      </trkpt>
      <trkpt lat="48.94948" lon="7.39096">
        <ele>391</ele>
        <time>2025-06-22T07:35:29Z</time>
      </trkpt>
      <trkpt lat="48.94946" lon="7.39104">
        <ele>391</ele>
        <time>2025-06-22T07:35:30Z</time>
      </trkpt>
      <trkpt lat="48.94939" lon="7.39119">
        <ele>391</ele>
        <time>2025-06-22T07:35:32Z</time>
      </trkpt>
      <trkpt lat="48.94931" lon="7.39132">
        <ele>390</ele>
        <time>2025-06-22T07:35:34Z</time>
      </trkpt>
      <trkpt lat="48.94927" lon="7.3914">
        <ele>390</ele>
        <time>2025-06-22T07:35:35Z</time>
      </trkpt>
      <trkpt lat="48.94923" lon="7.39148">
        <ele>390</ele>
        <time>2025-06-22T07:35:36Z</time>
      </trkpt>
      <trkpt lat="48.94919" lon="7.39156">
        <ele>390</ele>
        <time>2025-06-22T07:35:37Z</time>
      </trkpt>
      <trkpt lat="48.94916" lon="7.39163">
        <ele>390</ele>
        <time>2025-06-22T07:35:38Z</time>
      </trkpt>
      <trkpt lat="48.94913" lon="7.39171">
        <ele>390</ele>
        <time>2025-06-22T07:35:39Z</time>
      </trkpt>
      <trkpt lat="48.9491" lon="7.39179">
        <ele>390</ele>
        <time>2025-06-22T07:35:40Z</time>
      </trkpt>
      <trkpt lat="48.94907" lon="7.39188">
        <ele>390</ele>
        <time>2025-06-22T07:35:41Z</time>
      </trkpt>
      <trkpt lat="48.94904" lon="7.39197">
        <ele>389</ele>
        <time>2025-06-22T07:35:42Z</time>
      </trkpt>
      <trkpt lat="48.94901" lon="7.39206">
        <ele>389</ele>
        <time>2025-06-22T07:35:43Z</time>
      </trkpt>
      <trkpt lat="48.94898" lon="7.39214">
        <ele>389</ele>
        <time>2025-06-22T07:35:44Z</time>
      </trkpt>
      <trkpt lat="48.94895" lon="7.39224">
        <ele>388</ele>
        <time>2025-06-22T07:35:45Z</time>
      </trkpt>
      <trkpt lat="48.94892" lon="7.39233">
        <ele>388</ele>
        <time>2025-06-22T07:35:46Z</time>
      </trkpt>
      <trkpt lat="48.9489" lon="7.39243">
        <ele>387</ele>
        <time>2025-06-22T07:35:47Z</time>
      </trkpt>
      <trkpt lat="48.94888" lon="7.39252">
        <ele>388</ele>
        <time>2025-06-22T07:35:48Z</time>
      </trkpt>
      <trkpt lat="48.94887" lon="7.39261">
        <ele>388</ele>
        <time>2025-06-22T07:35:49Z</time>
      </trkpt>
      <trkpt lat="48.94885" lon="7.3927">
        <ele>388</ele>
        <time>2025-06-22T07:35:50Z</time>
      </trkpt>
      <trkpt lat="48.94885" lon="7.39278">
        <ele>388</ele>
        <time>2025-06-22T07:35:51Z</time>
      </trkpt>
      <trkpt lat="48.94884" lon="7.39287">
        <ele>387</ele>
        <time>2025-06-22T07:35:52Z</time>
      </trkpt>
      <trkpt lat="48.94883" lon="7.39296">
        <ele>387</ele>
        <time>2025-06-22T07:35:53Z</time>
      </trkpt>
      <trkpt lat="48.94882" lon="7.39306">
        <ele>387</ele>
        <time>2025-06-22T07:35:54Z</time>
      </trkpt>
      <trkpt lat="48.9488" lon="7.39316">
        <ele>385</ele>
        <time>2025-06-22T07:35:55Z</time>
      </trkpt>
      <trkpt lat="48.94878" lon="7.39325">
        <ele>385</ele>
        <time>2025-06-22T07:35:56Z</time>
      </trkpt>
      <trkpt lat="48.94876" lon="7.39335">
        <ele>386</ele>
        <time>2025-06-22T07:35:57Z</time>
      </trkpt>
      <trkpt lat="48.94874" lon="7.39344">
        <ele>386</ele>
        <time>2025-06-22T07:35:58Z</time>
      </trkpt>
      <trkpt lat="48.94873" lon="7.39353">
        <ele>386</ele>
        <time>2025-06-22T07:35:59Z</time>
      </trkpt>
      <trkpt lat="48.94871" lon="7.39361">
        <ele>386</ele>
        <time>2025-06-22T07:36:00Z</time>
      </trkpt>
      <trkpt lat="48.9487" lon="7.3937">
        <ele>386</ele>
        <time>2025-06-22T07:36:01Z</time>
      </trkpt>
      <trkpt lat="48.94869" lon="7.3938">
        <ele>386</ele>
        <time>2025-06-22T07:36:02Z</time>
      </trkpt>
      <trkpt lat="48.94869" lon="7.39389">
        <ele>386</ele>
        <time>2025-06-22T07:36:03Z</time>
      </trkpt>
      <trkpt lat="48.94869" lon="7.39399">
        <ele>386</ele>
        <time>2025-06-22T07:36:04Z</time>
      </trkpt>
      <trkpt lat="48.94869" lon="7.39408">
        <ele>386</ele>
        <time>2025-06-22T07:36:05Z</time>
      </trkpt>
      <trkpt lat="48.94867" lon="7.39417">
        <ele>386</ele>
        <time>2025-06-22T07:36:06Z</time>
      </trkpt>
      <trkpt lat="48.94864" lon="7.39427">
        <ele>386</ele>
        <time>2025-06-22T07:36:07Z</time>
      </trkpt>
      <trkpt lat="48.94862" lon="7.39436">
        <ele>386</ele>
        <time>2025-06-22T07:36:08Z</time>
      </trkpt>
      <trkpt lat="48.9486" lon="7.39445">
        <ele>386</ele>
        <time>2025-06-22T07:36:09Z</time>
      </trkpt>
      <trkpt lat="48.94858" lon="7.39455">
        <ele>386</ele>
        <time>2025-06-22T07:36:10Z</time>
      </trkpt>
      <trkpt lat="48.94856" lon="7.39466">
        <ele>383</ele>
        <time>2025-06-22T07:36:11Z</time>
      </trkpt>
      <trkpt lat="48.94855" lon="7.39478">
        <ele>382</ele>
        <time>2025-06-22T07:36:12Z</time>
      </trkpt>
      <trkpt lat="48.94853" lon="7.3949">
        <ele>381</ele>
        <time>2025-06-22T07:36:13Z</time>
      </trkpt>
      <trkpt lat="48.94851" lon="7.39502">
        <ele>380</ele>
        <time>2025-06-22T07:36:14Z</time>
      </trkpt>
      <trkpt lat="48.94849" lon="7.39514">
        <ele>380</ele>
        <time>2025-06-22T07:36:15Z</time>
      </trkpt>
      <trkpt lat="48.94847" lon="7.39525">
        <ele>380</ele>
        <time>2025-06-22T07:36:16Z</time>
      </trkpt>
      <trkpt lat="48.94847" lon="7.39536">
        <ele>377</ele>
        <time>2025-06-22T07:36:17Z</time>
      </trkpt>
      <trkpt lat="48.94846" lon="7.39546">
        <ele>375</ele>
        <time>2025-06-22T07:36:18Z</time>
      </trkpt>
      <trkpt lat="48.94847" lon="7.39558">
        <ele>375</ele>
        <time>2025-06-22T07:36:19Z</time>
      </trkpt>
      <trkpt lat="48.94847" lon="7.39572">
        <ele>374</ele>
        <time>2025-06-22T07:36:20Z</time>
      </trkpt>
      <trkpt lat="48.94847" lon="7.39586">
        <ele>373</ele>
        <time>2025-06-22T07:36:21Z</time>
      </trkpt>
      <trkpt lat="48.94848" lon="7.39598">
        <ele>373</ele>
        <time>2025-06-22T07:36:22Z</time>
      </trkpt>
      <trkpt lat="48.9485" lon="7.39609">
        <ele>372</ele>
        <time>2025-06-22T07:36:23Z</time>
      </trkpt>
      <trkpt lat="48.94854" lon="7.39621">
        <ele>371</ele>
        <time>2025-06-22T07:36:24Z</time>
      </trkpt>
      <trkpt lat="48.94857" lon="7.39634">
        <ele>371</ele>
        <time>2025-06-22T07:36:25Z</time>
      </trkpt>
      <trkpt lat="48.9486" lon="7.39645">
        <ele>370</ele>
        <time>2025-06-22T07:36:26Z</time>
      </trkpt>
      <trkpt lat="48.94863" lon="7.39656">
        <ele>370</ele>
        <time>2025-06-22T07:36:27Z</time>
      </trkpt>
      <trkpt lat="48.94864" lon="7.39668">
        <ele>370</ele>
        <time>2025-06-22T07:36:28Z</time>
      </trkpt>
      <trkpt lat="48.94864" lon="7.39678">
        <ele>371</ele>
        <time>2025-06-22T07:36:29Z</time>
      </trkpt>
      <trkpt lat="48.94864" lon="7.39689">
        <ele>370</ele>
        <time>2025-06-22T07:36:30Z</time>
      </trkpt>
      <trkpt lat="48.94862" lon="7.39708">
        <ele>370</ele>
        <time>2025-06-22T07:36:32Z</time>
      </trkpt>
      <trkpt lat="48.94861" lon="7.39718">
        <ele>370</ele>
        <time>2025-06-22T07:36:33Z</time>
      </trkpt>
      <trkpt lat="48.9486" lon="7.39728">
        <ele>370</ele>
        <time>2025-06-22T07:36:34Z</time>
      </trkpt>
      <trkpt lat="48.94858" lon="7.39737">
        <ele>369</ele>
        <time>2025-06-22T07:36:35Z</time>
      </trkpt>
      <trkpt lat="48.94857" lon="7.39747">
        <ele>369</ele>
        <time>2025-06-22T07:36:36Z</time>
      </trkpt>
      <trkpt lat="48.94855" lon="7.39756">
        <ele>369</ele>
        <time>2025-06-22T07:36:37Z</time>
      </trkpt>
      <trkpt lat="48.94854" lon="7.39765">
        <ele>369</ele>
        <time>2025-06-22T07:36:38Z</time>
      </trkpt>
      <trkpt lat="48.94853" lon="7.39774">
        <ele>369</ele>
        <time>2025-06-22T07:36:39Z</time>
      </trkpt>
      <trkpt lat="48.94852" lon="7.39784">
        <ele>368</ele>
        <time>2025-06-22T07:36:40Z</time>
      </trkpt>
      <trkpt lat="48.9485" lon="7.39794">
        <ele>368</ele>
        <time>2025-06-22T07:36:41Z</time>
      </trkpt>
      <trkpt lat="48.94848" lon="7.39805">
        <ele>368</ele>
        <time>2025-06-22T07:36:42Z</time>
      </trkpt>
      <trkpt lat="48.94846" lon="7.39814">
        <ele>367</ele>
        <time>2025-06-22T07:36:43Z</time>
      </trkpt>
      <trkpt lat="48.94842" lon="7.39823">
        <ele>367</ele>
        <time>2025-06-22T07:36:44Z</time>
      </trkpt>
      <trkpt lat="48.94839" lon="7.39831">
        <ele>367</ele>
        <time>2025-06-22T07:36:45Z</time>
      </trkpt>
      <trkpt lat="48.94835" lon="7.39839">
        <ele>367</ele>
        <time>2025-06-22T07:36:46Z</time>
      </trkpt>
      <trkpt lat="48.94831" lon="7.39845">
        <ele>367</ele>
        <time>2025-06-22T07:36:47Z</time>
      </trkpt>
      <trkpt lat="48.94826" lon="7.39849">
        <ele>367</ele>
        <time>2025-06-22T07:36:48Z</time>
      </trkpt>
      <trkpt lat="48.94822" lon="7.39851">
        <ele>367</ele>
        <time>2025-06-22T07:36:49Z</time>
      </trkpt>
      <trkpt lat="48.94817" lon="7.39851">
        <ele>367</ele>
        <time>2025-06-22T07:36:50Z</time>
      </trkpt>
      <trkpt lat="48.94813" lon="7.39851">
        <ele>367</ele>
        <time>2025-06-22T07:36:51Z</time>
      </trkpt>
      <trkpt lat="48.94808" lon="7.39849">
        <ele>368</ele>
        <time>2025-06-22T07:36:52Z</time>
      </trkpt>
      <trkpt lat="48.94803" lon="7.39848">
        <ele>368</ele>
        <time>2025-06-22T07:36:53Z</time>
      </trkpt>
      <trkpt lat="48.94798" lon="7.39846">
        <ele>368</ele>
        <time>2025-06-22T07:36:54Z</time>
      </trkpt>
      <trkpt lat="48.94786" lon="7.39846">
        <ele>368</ele>
        <time>2025-06-22T07:36:56Z</time>
      </trkpt>
      <trkpt lat="48.94775" lon="7.39848">
        <ele>368</ele>
        <time>2025-06-22T07:36:58Z</time>
      </trkpt>
      <trkpt lat="48.94762" lon="7.39852">
        <ele>367</ele>
        <time>2025-06-22T07:37:00Z</time>
      </trkpt>
      <trkpt lat="48.94756" lon="7.39854">
        <ele>367</ele>
        <time>2025-06-22T07:37:01Z</time>
      </trkpt>
      <trkpt lat="48.9475" lon="7.39856">
        <ele>367</ele>
        <time>2025-06-22T07:37:02Z</time>
      </trkpt>
      <trkpt lat="48.94744" lon="7.39858">
        <ele>367</ele>
        <time>2025-06-22T07:37:03Z</time>
      </trkpt>
      <trkpt lat="48.94738" lon="7.39859">
        <ele>368</ele>
        <time>2025-06-22T07:37:04Z</time>
      </trkpt>
      <trkpt lat="48.94732" lon="7.39862">
        <ele>367</ele>
        <time>2025-06-22T07:37:05Z</time>
      </trkpt>
      <trkpt lat="48.94726" lon="7.39866">
        <ele>367</ele>
        <time>2025-06-22T07:37:06Z</time>
      </trkpt>
      <trkpt lat="48.9472" lon="7.39871">
        <ele>367</ele>
        <time>2025-06-22T07:37:07Z</time>
      </trkpt>
      <trkpt lat="48.94715" lon="7.39876">
        <ele>367</ele>
        <time>2025-06-22T07:37:08Z</time>
      </trkpt>
      <trkpt lat="48.9471" lon="7.39881">
        <ele>367</ele>
        <time>2025-06-22T07:37:09Z</time>
      </trkpt>
      <trkpt lat="48.94706" lon="7.39886">
        <ele>367</ele>
        <time>2025-06-22T07:37:10Z</time>
      </trkpt>
      <trkpt lat="48.94701" lon="7.39891">
        <ele>367</ele>
        <time>2025-06-22T07:37:11Z</time>
      </trkpt>
      <trkpt lat="48.94696" lon="7.39895">
        <ele>367</ele>
        <time>2025-06-22T07:37:12Z</time>
      </trkpt>
      <trkpt lat="48.94692" lon="7.39899">
        <ele>366</ele>
        <time>2025-06-22T07:37:13Z</time>
      </trkpt>
      <trkpt lat="48.94687" lon="7.39903">
        <ele>366</ele>
        <time>2025-06-22T07:37:14Z</time>
      </trkpt>
      <trkpt lat="48.94683" lon="7.39907">
        <ele>366</ele>
        <time>2025-06-22T07:37:15Z</time>
      </trkpt>
      <trkpt lat="48.94678" lon="7.39911">
        <ele>366</ele>
        <time>2025-06-22T07:37:16Z</time>
      </trkpt>
      <trkpt lat="48.94673" lon="7.39915">
        <ele>367</ele>
        <time>2025-06-22T07:37:17Z</time>
      </trkpt>
      <trkpt lat="48.94669" lon="7.39919">
        <ele>367</ele>
        <time>2025-06-22T07:37:18Z</time>
      </trkpt>
      <trkpt lat="48.94666" lon="7.39923">
        <ele>367</ele>
        <time>2025-06-22T07:37:19Z</time>
      </trkpt>
      <trkpt lat="48.94662" lon="7.39928">
        <ele>368</ele>
        <time>2025-06-22T07:37:20Z</time>
      </trkpt>
      <trkpt lat="48.94658" lon="7.39933">
        <ele>368</ele>
        <time>2025-06-22T07:37:21Z</time>
      </trkpt>
      <trkpt lat="48.94656" lon="7.39939">
        <ele>368</ele>
        <time>2025-06-22T07:37:22Z</time>
      </trkpt>
      <trkpt lat="48.94652" lon="7.39944">
        <ele>368</ele>
        <time>2025-06-22T07:37:23Z</time>
      </trkpt>
      <trkpt lat="48.94649" lon="7.39949">
        <ele>369</ele>
        <time>2025-06-22T07:37:24Z</time>
      </trkpt>
      <trkpt lat="48.94647" lon="7.39953">
        <ele>369</ele>
        <time>2025-06-22T07:37:25Z</time>
      </trkpt>
      <trkpt lat="48.94645" lon="7.39957">
        <ele>369</ele>
        <time>2025-06-22T07:37:26Z</time>
      </trkpt>
      <trkpt lat="48.94643" lon="7.39962">
        <ele>369</ele>
        <time>2025-06-22T07:37:27Z</time>
      </trkpt>
      <trkpt lat="48.94641" lon="7.39966">
        <ele>369</ele>
        <time>2025-06-22T07:37:28Z</time>
      </trkpt>
      <trkpt lat="48.94639" lon="7.39971">
        <ele>369</ele>
        <time>2025-06-22T07:37:29Z</time>
      </trkpt>
      <trkpt lat="48.94637" lon="7.39975">
        <ele>369</ele>
        <time>2025-06-22T07:37:30Z</time>
      </trkpt>
      <trkpt lat="48.94636" lon="7.39979">
        <ele>369</ele>
        <time>2025-06-22T07:37:31Z</time>
      </trkpt>
      <trkpt lat="48.94634" lon="7.39982">
        <ele>370</ele>
        <time>2025-06-22T07:37:32Z</time>
      </trkpt>
      <trkpt lat="48.94631" lon="7.39985">
        <ele>371</ele>
        <time>2025-06-22T07:37:33Z</time>
      </trkpt>
      <trkpt lat="48.94622" lon="7.39997">
        <ele>373</ele>
        <time>2025-06-22T07:37:37Z</time>
      </trkpt>
      <trkpt lat="48.94619" lon="7.4">
        <ele>373</ele>
        <time>2025-06-22T07:37:38Z</time>
      </trkpt>
      <trkpt lat="48.94617" lon="7.40003">
        <ele>373</ele>
        <time>2025-06-22T07:37:39Z</time>
      </trkpt>
      <trkpt lat="48.94615" lon="7.40005">
        <ele>373</ele>
        <time>2025-06-22T07:37:40Z</time>
      </trkpt>
      <trkpt lat="48.94612" lon="7.40008">
        <ele>374</ele>
        <time>2025-06-22T07:37:41Z</time>
      </trkpt>
      <trkpt lat="48.94611" lon="7.40011">
        <ele>374</ele>
        <time>2025-06-22T07:37:42Z</time>
      </trkpt>
      <trkpt lat="48.94609" lon="7.40013">
        <ele>374</ele>
        <time>2025-06-22T07:37:43Z</time>
      </trkpt>
      <trkpt lat="48.94608" lon="7.40015">
        <ele>375</ele>
        <time>2025-06-22T07:37:44Z</time>
      </trkpt>
      <trkpt lat="48.94606" lon="7.40018">
        <ele>375</ele>
        <time>2025-06-22T07:37:45Z</time>
      </trkpt>
      <trkpt lat="48.94603" lon="7.40021">
        <ele>375</ele>
        <time>2025-06-22T07:37:46Z</time>
      </trkpt>
      <trkpt lat="48.94601" lon="7.40024">
        <ele>375</ele>
        <time>2025-06-22T07:37:47Z</time>
      </trkpt>
      <trkpt lat="48.94596" lon="7.4003">
        <ele>375</ele>
        <time>2025-06-22T07:37:48Z</time>
      </trkpt>
      <trkpt lat="48.94593" lon="7.40033">
        <ele>376</ele>
        <time>2025-06-22T07:37:50Z</time>
      </trkpt>
      <trkpt lat="48.9459" lon="7.40036">
        <ele>376</ele>
        <time>2025-06-22T07:37:51Z</time>
      </trkpt>
      <trkpt lat="48.94586" lon="7.40039">
        <ele>376</ele>
        <time>2025-06-22T07:37:52Z</time>
      </trkpt>
      <trkpt lat="48.94582" lon="7.40041">
        <ele>376</ele>
        <time>2025-06-22T07:37:53Z</time>
      </trkpt>
      <trkpt lat="48.94578" lon="7.40044">
        <ele>376</ele>
        <time>2025-06-22T07:37:54Z</time>
      </trkpt>
      <trkpt lat="48.94576" lon="7.40048">
        <ele>377</ele>
        <time>2025-06-22T07:37:55Z</time>
      </trkpt>
      <trkpt lat="48.94573" lon="7.4005">
        <ele>377</ele>
        <time>2025-06-22T07:37:56Z</time>
      </trkpt>
      <trkpt lat="48.94572" lon="7.40052">
        <ele>377</ele>
        <time>2025-06-22T07:37:57Z</time>
      </trkpt>
      <trkpt lat="48.9457" lon="7.40054">
        <ele>377</ele>
        <time>2025-06-22T07:37:58Z</time>
      </trkpt>
      <trkpt lat="48.94568" lon="7.40056">
        <ele>377</ele>
        <time>2025-06-22T07:37:59Z</time>
      </trkpt>
      <trkpt lat="48.94565" lon="7.40057">
        <ele>377</ele>
        <time>2025-06-22T07:38:00Z</time>
      </trkpt>
      <trkpt lat="48.94562" lon="7.40059">
        <ele>378</ele>
        <time>2025-06-22T07:38:01Z</time>
      </trkpt>
      <trkpt lat="48.94559" lon="7.40061">
        <ele>378</ele>
        <time>2025-06-22T07:38:02Z</time>
      </trkpt>
      <trkpt lat="48.94557" lon="7.40063">
        <ele>378</ele>
        <time>2025-06-22T07:38:03Z</time>
      </trkpt>
      <trkpt lat="48.94554" lon="7.40065">
        <ele>378</ele>
        <time>2025-06-22T07:38:04Z</time>
      </trkpt>
      <trkpt lat="48.94551" lon="7.40067">
        <ele>378</ele>
        <time>2025-06-22T07:38:05Z</time>
      </trkpt>
      <trkpt lat="48.94548" lon="7.40069">
        <ele>378</ele>
        <time>2025-06-22T07:38:06Z</time>
      </trkpt>
      <trkpt lat="48.94546" lon="7.40071">
        <ele>378</ele>
        <time>2025-06-22T07:38:07Z</time>
      </trkpt>
      <trkpt lat="48.94542" lon="7.40072">
        <ele>378</ele>
        <time>2025-06-22T07:38:08Z</time>
      </trkpt>
      <trkpt lat="48.94539" lon="7.40073">
        <ele>378</ele>
        <time>2025-06-22T07:38:09Z</time>
      </trkpt>
      <trkpt lat="48.94536" lon="7.40074">
        <ele>378</ele>
        <time>2025-06-22T07:38:10Z</time>
      </trkpt>
      <trkpt lat="48.94531" lon="7.40075">
        <ele>378</ele>
        <time>2025-06-22T07:38:11Z</time>
      </trkpt>
      <trkpt lat="48.94527" lon="7.40075">
        <ele>378</ele>
        <time>2025-06-22T07:38:12Z</time>
      </trkpt>
      <trkpt lat="48.94522" lon="7.40076">
        <ele>378</ele>
        <time>2025-06-22T07:38:13Z</time>
      </trkpt>
      <trkpt lat="48.94518" lon="7.40077">
        <ele>378</ele>
        <time>2025-06-22T07:38:14Z</time>
      </trkpt>
      <trkpt lat="48.94514" lon="7.40079">
        <ele>378</ele>
        <time>2025-06-22T07:38:15Z</time>
      </trkpt>
      <trkpt lat="48.94509" lon="7.4008">
        <ele>378</ele>
        <time>2025-06-22T07:38:16Z</time>
      </trkpt>
      <trkpt lat="48.94505" lon="7.40081">
        <ele>378</ele>
        <time>2025-06-22T07:38:17Z</time>
      </trkpt>
      <trkpt lat="48.945" lon="7.40083">
        <ele>378</ele>
        <time>2025-06-22T07:38:18Z</time>
      </trkpt>
      <trkpt lat="48.94496" lon="7.40083">
        <ele>378</ele>
        <time>2025-06-22T07:38:19Z</time>
      </trkpt>
      <trkpt lat="48.94492" lon="7.40083">
        <ele>378</ele>
        <time>2025-06-22T07:38:20Z</time>
      </trkpt>
      <trkpt lat="48.94488" lon="7.40084">
        <ele>378</ele>
        <time>2025-06-22T07:38:21Z</time>
      </trkpt>
      <trkpt lat="48.94484" lon="7.40086">
        <ele>378</ele>
        <time>2025-06-22T07:38:22Z</time>
      </trkpt>
      <trkpt lat="48.9448" lon="7.40087">
        <ele>378</ele>
        <time>2025-06-22T07:38:23Z</time>
      </trkpt>
      <trkpt lat="48.94477" lon="7.40087">
        <ele>378</ele>
        <time>2025-06-22T07:38:24Z</time>
      </trkpt>
      <trkpt lat="48.94474" lon="7.40088">
        <ele>378</ele>
        <time>2025-06-22T07:38:25Z</time>
      </trkpt>
      <trkpt lat="48.94471" lon="7.40089">
        <ele>379</ele>
        <time>2025-06-22T07:38:26Z</time>
      </trkpt>
      <trkpt lat="48.94467" lon="7.40091">
        <ele>379</ele>
        <time>2025-06-22T07:38:27Z</time>
      </trkpt>
      <trkpt lat="48.94463" lon="7.40092">
        <ele>379</ele>
        <time>2025-06-22T07:38:28Z</time>
      </trkpt>
      <trkpt lat="48.9446" lon="7.40093">
        <ele>379</ele>
        <time>2025-06-22T07:38:29Z</time>
      </trkpt>
      <trkpt lat="48.94456" lon="7.40095">
        <ele>379</ele>
        <time>2025-06-22T07:38:30Z</time>
      </trkpt>
      <trkpt lat="48.94452" lon="7.40096">
        <ele>380</ele>
        <time>2025-06-22T07:38:31Z</time>
      </trkpt>
      <trkpt lat="48.94449" lon="7.40097">
        <ele>380</ele>
        <time>2025-06-22T07:38:32Z</time>
      </trkpt>
      <trkpt lat="48.94445" lon="7.40097">
        <ele>380</ele>
        <time>2025-06-22T07:38:33Z</time>
      </trkpt>
      <trkpt lat="48.94442" lon="7.40097">
        <ele>380</ele>
        <time>2025-06-22T07:38:34Z</time>
      </trkpt>
      <trkpt lat="48.94439" lon="7.40097">
        <ele>381</ele>
        <time>2025-06-22T07:38:35Z</time>
      </trkpt>
      <trkpt lat="48.94436" lon="7.40098">
        <ele>381</ele>
        <time>2025-06-22T07:38:36Z</time>
      </trkpt>
      <trkpt lat="48.94434" lon="7.401">
        <ele>381</ele>
        <time>2025-06-22T07:38:37Z</time>
      </trkpt>
      <trkpt lat="48.94431" lon="7.40101">
        <ele>381</ele>
        <time>2025-06-22T07:38:38Z</time>
      </trkpt>
      <trkpt lat="48.94429" lon="7.40102">
        <ele>381</ele>
        <time>2025-06-22T07:38:39Z</time>
      </trkpt>
      <trkpt lat="48.94426" lon="7.40103">
        <ele>381</ele>
        <time>2025-06-22T07:38:40Z</time>
      </trkpt>
      <trkpt lat="48.94423" lon="7.40103">
        <ele>381</ele>
        <time>2025-06-22T07:38:41Z</time>
      </trkpt>
      <trkpt lat="48.9442" lon="7.40104">
        <ele>381</ele>
        <time>2025-06-22T07:38:42Z</time>
      </trkpt>
      <trkpt lat="48.94416" lon="7.40104">
        <ele>381</ele>
        <time>2025-06-22T07:38:43Z</time>
      </trkpt>
      <trkpt lat="48.94404" lon="7.40106">
        <ele>381</ele>
        <time>2025-06-22T07:38:46Z</time>
      </trkpt>
      <trkpt lat="48.94392" lon="7.40106">
        <ele>382</ele>
        <time>2025-06-22T07:38:49Z</time>
      </trkpt>
      <trkpt lat="48.9438" lon="7.401">
        <ele>382</ele>
        <time>2025-06-22T07:38:52Z</time>
      </trkpt>
      <trkpt lat="48.94368" lon="7.40095">
        <ele>382</ele>
        <time>2025-06-22T07:38:55Z</time>
      </trkpt>
      <trkpt lat="48.94356" lon="7.40088">
        <ele>382</ele>
        <time>2025-06-22T07:38:58Z</time>
      </trkpt>
      <trkpt lat="48.94346" lon="7.40077">
        <ele>382</ele>
        <time>2025-06-22T07:39:01Z</time>
      </trkpt>
      <trkpt lat="48.94343" lon="7.40074">
        <ele>382</ele>
        <time>2025-06-22T07:39:02Z</time>
      </trkpt>
      <trkpt lat="48.94334" lon="7.4007">
        <ele>382</ele>
        <time>2025-06-22T07:39:05Z</time>
      </trkpt>
      <trkpt lat="48.94324" lon="7.40066">
        <ele>381</ele>
        <time>2025-06-22T07:39:08Z</time>
      </trkpt>
      <trkpt lat="48.94314" lon="7.40061">
        <ele>381</ele>
        <time>2025-06-22T07:39:10Z</time>
      </trkpt>
      <trkpt lat="48.94304" lon="7.40058">
        <ele>380</ele>
        <time>2025-06-22T07:39:12Z</time>
      </trkpt>
      <trkpt lat="48.94293" lon="7.40055">
        <ele>379</ele>
        <time>2025-06-22T07:39:14Z</time>
      </trkpt>
      <trkpt lat="48.94279" lon="7.40051">
        <ele>379</ele>
        <time>2025-06-22T07:39:16Z</time>
      </trkpt>
      <trkpt lat="48.94265" lon="7.40046">
        <ele>379</ele>
        <time>2025-06-22T07:39:18Z</time>
      </trkpt>
      <trkpt lat="48.94253" lon="7.4004">
        <ele>377</ele>
        <time>2025-06-22T07:39:20Z</time>
      </trkpt>
      <trkpt lat="48.94242" lon="7.40041">
        <ele>376</ele>
        <time>2025-06-22T07:39:22Z</time>
      </trkpt>
      <trkpt lat="48.94231" lon="7.40049">
        <ele>376</ele>
        <time>2025-06-22T07:39:24Z</time>
      </trkpt>
      <trkpt lat="48.94222" lon="7.4006">
        <ele>376</ele>
        <time>2025-06-22T07:39:26Z</time>
      </trkpt>
      <trkpt lat="48.94213" lon="7.40074">
        <ele>376</ele>
        <time>2025-06-22T07:39:28Z</time>
      </trkpt>
      <trkpt lat="48.94205" lon="7.40089">
        <ele>376</ele>
        <time>2025-06-22T07:39:30Z</time>
      </trkpt>
      <trkpt lat="48.94198" lon="7.40101">
        <ele>376</ele>
        <time>2025-06-22T07:39:32Z</time>
      </trkpt>
      <trkpt lat="48.94192" lon="7.40112">
        <ele>376</ele>
        <time>2025-06-22T07:39:34Z</time>
      </trkpt>
      <trkpt lat="48.9419" lon="7.40119">
        <ele>376</ele>
        <time>2025-06-22T07:39:35Z</time>
      </trkpt>
      <trkpt lat="48.94188" lon="7.40125">
        <ele>376</ele>
        <time>2025-06-22T07:39:36Z</time>
      </trkpt>
      <trkpt lat="48.94186" lon="7.40132">
        <ele>376</ele>
        <time>2025-06-22T07:39:37Z</time>
      </trkpt>
      <trkpt lat="48.94185" lon="7.40139">
        <ele>376</ele>
        <time>2025-06-22T07:39:38Z</time>
      </trkpt>
      <trkpt lat="48.94185" lon="7.40146">
        <ele>376</ele>
        <time>2025-06-22T07:39:39Z</time>
      </trkpt>
      <trkpt lat="48.94183" lon="7.4016">
        <ele>376</ele>
        <time>2025-06-22T07:39:41Z</time>
      </trkpt>
      <trkpt lat="48.94182" lon="7.40175">
        <ele>376</ele>
        <time>2025-06-22T07:39:43Z</time>
      </trkpt>
      <trkpt lat="48.94181" lon="7.4019">
        <ele>376</ele>
        <time>2025-06-22T07:39:45Z</time>
      </trkpt>
      <trkpt lat="48.94181" lon="7.40199">
        <ele>376</ele>
        <time>2025-06-22T07:39:46Z</time>
      </trkpt>
      <trkpt lat="48.94182" lon="7.40208">
        <ele>375</ele>
        <time>2025-06-22T07:39:47Z</time>
      </trkpt>
      <trkpt lat="48.94183" lon="7.40228">
        <ele>375</ele>
        <time>2025-06-22T07:39:49Z</time>
      </trkpt>
      <trkpt lat="48.94183" lon="7.40249">
        <ele>374</ele>
        <time>2025-06-22T07:39:51Z</time>
      </trkpt>
      <trkpt lat="48.94184" lon="7.4026">
        <ele>373</ele>
        <time>2025-06-22T07:39:52Z</time>
      </trkpt>
      <trkpt lat="48.94185" lon="7.40281">
        <ele>373</ele>
        <time>2025-06-22T07:39:54Z</time>
      </trkpt>
      <trkpt lat="48.94187" lon="7.40303">
        <ele>371</ele>
        <time>2025-06-22T07:39:56Z</time>
      </trkpt>
      <trkpt lat="48.94188" lon="7.40326">
        <ele>370</ele>
        <time>2025-06-22T07:39:58Z</time>
      </trkpt>
      <trkpt lat="48.94188" lon="7.40352">
        <ele>370</ele>
        <time>2025-06-22T07:40:00Z</time>
      </trkpt>
      <trkpt lat="48.94188" lon="7.40378">
        <ele>368</ele>
        <time>2025-06-22T07:40:02Z</time>
      </trkpt>
      <trkpt lat="48.94186" lon="7.40403">
        <ele>367</ele>
        <time>2025-06-22T07:40:04Z</time>
      </trkpt>
      <trkpt lat="48.94183" lon="7.40428">
        <ele>367</ele>
        <time>2025-06-22T07:40:06Z</time>
      </trkpt>
      <trkpt lat="48.94183" lon="7.40447">
        <ele>365</ele>
        <time>2025-06-22T07:40:08Z</time>
      </trkpt>
      <trkpt lat="48.94179" lon="7.4047">
        <ele>364</ele>
        <time>2025-06-22T07:40:10Z</time>
      </trkpt>
      <trkpt lat="48.94172" lon="7.40492">
        <ele>364</ele>
        <time>2025-06-22T07:40:12Z</time>
      </trkpt>
      <trkpt lat="48.9416" lon="7.40512">
        <ele>364</ele>
        <time>2025-06-22T07:40:14Z</time>
      </trkpt>
      <trkpt lat="48.94147" lon="7.40528">
        <ele>363</ele>
        <time>2025-06-22T07:40:16Z</time>
      </trkpt>
      <trkpt lat="48.94133" lon="7.40541">
        <ele>362</ele>
        <time>2025-06-22T07:40:18Z</time>
      </trkpt>
      <trkpt lat="48.94116" lon="7.40553">
        <ele>362</ele>
        <time>2025-06-22T07:40:20Z</time>
      </trkpt>
      <trkpt lat="48.94102" lon="7.40558">
        <ele>360</ele>
        <time>2025-06-22T07:40:22Z</time>
      </trkpt>
      <trkpt lat="48.9409" lon="7.40558">
        <ele>360</ele>
        <time>2025-06-22T07:40:24Z</time>
      </trkpt>
      <trkpt lat="48.94079" lon="7.4056">
        <ele>360</ele>
        <time>2025-06-22T07:40:26Z</time>
      </trkpt>
      <trkpt lat="48.94069" lon="7.40559">
        <ele>360</ele>
        <time>2025-06-22T07:40:28Z</time>
      </trkpt>
      <trkpt lat="48.94058" lon="7.40558">
        <ele>360</ele>
        <time>2025-06-22T07:40:30Z</time>
      </trkpt>
      <trkpt lat="48.94047" lon="7.40558">
        <ele>359</ele>
        <time>2025-06-22T07:40:32Z</time>
      </trkpt>
      <trkpt lat="48.94033" lon="7.40557">
        <ele>359</ele>
        <time>2025-06-22T07:40:34Z</time>
      </trkpt>
      <trkpt lat="48.94021" lon="7.40556">
        <ele>356</ele>
        <time>2025-06-22T07:40:36Z</time>
      </trkpt>
      <trkpt lat="48.94006" lon="7.40556">
        <ele>355</ele>
        <time>2025-06-22T07:40:38Z</time>
      </trkpt>
      <trkpt lat="48.93988" lon="7.40555">
        <ele>354</ele>
        <time>2025-06-22T07:40:40Z</time>
      </trkpt>
      <trkpt lat="48.93977" lon="7.40556">
        <ele>354</ele>
        <time>2025-06-22T07:40:41Z</time>
      </trkpt>
      <trkpt lat="48.93967" lon="7.40557">
        <ele>351</ele>
        <time>2025-06-22T07:40:42Z</time>
      </trkpt>
      <trkpt lat="48.93955" lon="7.40561">
        <ele>350</ele>
        <time>2025-06-22T07:40:43Z</time>
      </trkpt>
      <trkpt lat="48.93943" lon="7.40563">
        <ele>349</ele>
        <time>2025-06-22T07:40:44Z</time>
      </trkpt>
      <trkpt lat="48.93931" lon="7.40565">
        <ele>349</ele>
        <time>2025-06-22T07:40:45Z</time>
      </trkpt>
      <trkpt lat="48.93918" lon="7.40564">
        <ele>347</ele>
        <time>2025-06-22T07:40:46Z</time>
      </trkpt>
      <trkpt lat="48.93906" lon="7.40563">
        <ele>346</ele>
        <time>2025-06-22T07:40:47Z</time>
      </trkpt>
      <trkpt lat="48.93894" lon="7.40561">
        <ele>345</ele>
        <time>2025-06-22T07:40:48Z</time>
      </trkpt>
      <trkpt lat="48.93883" lon="7.4056">
        <ele>345</ele>
        <time>2025-06-22T07:40:49Z</time>
      </trkpt>
      <trkpt lat="48.93872" lon="7.40559">
        <ele>343</ele>
        <time>2025-06-22T07:40:50Z</time>
      </trkpt>
      <trkpt lat="48.93859" lon="7.40558">
        <ele>342</ele>
        <time>2025-06-22T07:40:51Z</time>
      </trkpt>
      <trkpt lat="48.93847" lon="7.40557">
        <ele>341</ele>
        <time>2025-06-22T07:40:52Z</time>
      </trkpt>
      <trkpt lat="48.93835" lon="7.40552">
        <ele>341</ele>
        <time>2025-06-22T07:40:53Z</time>
      </trkpt>
      <trkpt lat="48.93823" lon="7.40546">
        <ele>339</ele>
        <time>2025-06-22T07:40:54Z</time>
      </trkpt>
      <trkpt lat="48.93812" lon="7.40539">
        <ele>337</ele>
        <time>2025-06-22T07:40:55Z</time>
      </trkpt>
      <trkpt lat="48.93803" lon="7.4053">
        <ele>336</ele>
        <time>2025-06-22T07:40:56Z</time>
      </trkpt>
      <trkpt lat="48.93791" lon="7.4051">
        <ele>336</ele>
        <time>2025-06-22T07:40:58Z</time>
      </trkpt>
      <trkpt lat="48.93785" lon="7.40496">
        <ele>331</ele>
        <time>2025-06-22T07:40:59Z</time>
      </trkpt>
      <trkpt lat="48.93781" lon="7.4048">
        <ele>328</ele>
        <time>2025-06-22T07:41:00Z</time>
      </trkpt>
      <trkpt lat="48.93777" lon="7.40465">
        <ele>327</ele>
        <time>2025-06-22T07:41:01Z</time>
      </trkpt>
      <trkpt lat="48.93775" lon="7.4045">
        <ele>326</ele>
        <time>2025-06-22T07:41:02Z</time>
      </trkpt>
      <trkpt lat="48.93775" lon="7.40433">
        <ele>326</ele>
        <time>2025-06-22T07:41:03Z</time>
      </trkpt>
      <trkpt lat="48.93777" lon="7.40415">
        <ele>325</ele>
        <time>2025-06-22T07:41:04Z</time>
      </trkpt>
      <trkpt lat="48.93779" lon="7.40398">
        <ele>321</ele>
        <time>2025-06-22T07:41:05Z</time>
      </trkpt>
      <trkpt lat="48.9378" lon="7.40379">
        <ele>320</ele>
        <time>2025-06-22T07:41:06Z</time>
      </trkpt>
      <trkpt lat="48.9378" lon="7.40359">
        <ele>320</ele>
        <time>2025-06-22T07:41:07Z</time>
      </trkpt>
      <trkpt lat="48.93781" lon="7.4034">
        <ele>319</ele>
        <time>2025-06-22T07:41:08Z</time>
      </trkpt>
      <trkpt lat="48.93782" lon="7.40322">
        <ele>317</ele>
        <time>2025-06-22T07:41:09Z</time>
      </trkpt>
      <trkpt lat="48.93781" lon="7.40304">
        <ele>316</ele>
        <time>2025-06-22T07:41:10Z</time>
      </trkpt>
      <trkpt lat="48.93781" lon="7.40286">
        <ele>316</ele>
        <time>2025-06-22T07:41:11Z</time>
      </trkpt>
      <trkpt lat="48.9378" lon="7.40268">
        <ele>313</ele>
        <time>2025-06-22T07:41:12Z</time>
      </trkpt>
      <trkpt lat="48.93779" lon="7.4025">
        <ele>312</ele>
        <time>2025-06-22T07:41:13Z</time>
      </trkpt>
      <trkpt lat="48.9378" lon="7.40233">
        <ele>312</ele>
        <time>2025-06-22T07:41:14Z</time>
      </trkpt>
      <trkpt lat="48.93781" lon="7.40217">
        <ele>312</ele>
        <time>2025-06-22T07:41:15Z</time>
      </trkpt>
      <trkpt lat="48.93782" lon="7.40203">
        <ele>310</ele>
        <time>2025-06-22T07:41:16Z</time>
      </trkpt>
      <trkpt lat="48.93776" lon="7.4018">
        <ele>308</ele>
        <time>2025-06-22T07:41:18Z</time>
      </trkpt>
      <trkpt lat="48.93764" lon="7.40167">
        <ele>308</ele>
        <time>2025-06-22T07:41:20Z</time>
      </trkpt>
      <trkpt lat="48.9375" lon="7.40155">
        <ele>308</ele>
        <time>2025-06-22T07:41:22Z</time>
      </trkpt>
      <trkpt lat="48.93738" lon="7.40145">
        <ele>306</ele>
        <time>2025-06-22T07:41:24Z</time>
      </trkpt>
      <trkpt lat="48.93728" lon="7.40138">
        <ele>306</ele>
        <time>2025-06-22T07:41:26Z</time>
      </trkpt>
      <trkpt lat="48.93716" lon="7.40131">
        <ele>306</ele>
        <time>2025-06-22T07:41:28Z</time>
      </trkpt>
      <trkpt lat="48.93705" lon="7.40125">
        <ele>306</ele>
        <time>2025-06-22T07:41:30Z</time>
      </trkpt>
      <trkpt lat="48.93694" lon="7.4012">
        <ele>306</ele>
        <time>2025-06-22T07:41:32Z</time>
      </trkpt>
      <trkpt lat="48.9368" lon="7.40114">
        <ele>306</ele>
        <time>2025-06-22T07:41:34Z</time>
      </trkpt>
      <trkpt lat="48.93668" lon="7.40105">
        <ele>306</ele>
        <time>2025-06-22T07:41:36Z</time>
      </trkpt>
      <trkpt lat="48.93656" lon="7.401">
        <ele>306</ele>
        <time>2025-06-22T07:41:38Z</time>
      </trkpt>
      <trkpt lat="48.93642" lon="7.40098">
        <ele>305</ele>
        <time>2025-06-22T07:41:40Z</time>
      </trkpt>
      <trkpt lat="48.9363" lon="7.40097">
        <ele>305</ele>
        <time>2025-06-22T07:41:42Z</time>
      </trkpt>
      <trkpt lat="48.93615" lon="7.40095">
        <ele>304</ele>
        <time>2025-06-22T07:41:44Z</time>
      </trkpt>
      <trkpt lat="48.93601" lon="7.40092">
        <ele>304</ele>
        <time>2025-06-22T07:41:46Z</time>
      </trkpt>
      <trkpt lat="48.93585" lon="7.40088">
        <ele>304</ele>
        <time>2025-06-22T07:41:48Z</time>
      </trkpt>
      <trkpt lat="48.9357" lon="7.40085">
        <ele>302</ele>
        <time>2025-06-22T07:41:50Z</time>
      </trkpt>
      <trkpt lat="48.93558" lon="7.40081">
        <ele>302</ele>
        <time>2025-06-22T07:41:52Z</time>
      </trkpt>
      <trkpt lat="48.93546" lon="7.40074">
        <ele>301</ele>
        <time>2025-06-22T07:41:54Z</time>
      </trkpt>
      <trkpt lat="48.93533" lon="7.40069">
        <ele>300</ele>
        <time>2025-06-22T07:41:56Z</time>
      </trkpt>
      <trkpt lat="48.9352" lon="7.40058">
        <ele>300</ele>
        <time>2025-06-22T07:41:58Z</time>
      </trkpt>
      <trkpt lat="48.93507" lon="7.40048">
        <ele>300</ele>
        <time>2025-06-22T07:42:00Z</time>
      </trkpt>
      <trkpt lat="48.93497" lon="7.40043">
        <ele>300</ele>
        <time>2025-06-22T07:42:02Z</time>
      </trkpt>
      <trkpt lat="48.93486" lon="7.40039">
        <ele>300</ele>
        <time>2025-06-22T07:42:04Z</time>
      </trkpt>
      <trkpt lat="48.93473" lon="7.4003">
        <ele>301</ele>
        <time>2025-06-22T07:42:06Z</time>
      </trkpt>
      <trkpt lat="48.9346" lon="7.40022">
        <ele>301</ele>
        <time>2025-06-22T07:42:08Z</time>
      </trkpt>
      <trkpt lat="48.93449" lon="7.40014">
        <ele>301</ele>
        <time>2025-06-22T07:42:10Z</time>
      </trkpt>
      <trkpt lat="48.93439" lon="7.40007">
        <ele>300</ele>
        <time>2025-06-22T07:42:12Z</time>
      </trkpt>
      <trkpt lat="48.93427" lon="7.40002">
        <ele>300</ele>
        <time>2025-06-22T07:42:14Z</time>
      </trkpt>
      <trkpt lat="48.93412" lon="7.3999">
        <ele>300</ele>
        <time>2025-06-22T07:42:16Z</time>
      </trkpt>
      <trkpt lat="48.93399" lon="7.39978">
        <ele>300</ele>
        <time>2025-06-22T07:42:18Z</time>
      </trkpt>
      <trkpt lat="48.93387" lon="7.39968">
        <ele>300</ele>
        <time>2025-06-22T07:42:20Z</time>
      </trkpt>
      <trkpt lat="48.93372" lon="7.39958">
        <ele>300</ele>
        <time>2025-06-22T07:42:22Z</time>
      </trkpt>
      <trkpt lat="48.93358" lon="7.39946">
        <ele>300</ele>
        <time>2025-06-22T07:42:24Z</time>
      </trkpt>
      <trkpt lat="48.93343" lon="7.39934">
        <ele>299</ele>
        <time>2025-06-22T07:42:26Z</time>
      </trkpt>
      <trkpt lat="48.93335" lon="7.39926">
        <ele>299</ele>
        <time>2025-06-22T07:42:27Z</time>
      </trkpt>
      <trkpt lat="48.93322" lon="7.39913">
        <ele>297</ele>
        <time>2025-06-22T07:42:29Z</time>
      </trkpt>
      <trkpt lat="48.93309" lon="7.39906">
        <ele>297</ele>
        <time>2025-06-22T07:42:31Z</time>
      </trkpt>
      <trkpt lat="48.93297" lon="7.39899">
        <ele>297</ele>
        <time>2025-06-22T07:42:33Z</time>
      </trkpt>
      <trkpt lat="48.93284" lon="7.39888">
        <ele>297</ele>
        <time>2025-06-22T07:42:35Z</time>
      </trkpt>
      <trkpt lat="48.93272" lon="7.39878">
        <ele>297</ele>
        <time>2025-06-22T07:42:37Z</time>
      </trkpt>
      <trkpt lat="48.93259" lon="7.39867">
        <ele>297</ele>
        <time>2025-06-22T07:42:39Z</time>
      </trkpt>
      <trkpt lat="48.93246" lon="7.39855">
        <ele>297</ele>
        <time>2025-06-22T07:42:41Z</time>
      </trkpt>
      <trkpt lat="48.93233" lon="7.39845">
        <ele>294</ele>
        <time>2025-06-22T07:42:43Z</time>
      </trkpt>
      <trkpt lat="48.93218" lon="7.39838">
        <ele>294</ele>
        <time>2025-06-22T07:42:45Z</time>
      </trkpt>
      <trkpt lat="48.9321" lon="7.39834">
        <ele>293</ele>
        <time>2025-06-22T07:42:46Z</time>
      </trkpt>
      <trkpt lat="48.93203" lon="7.3983">
        <ele>293</ele>
        <time>2025-06-22T07:42:47Z</time>
      </trkpt>
      <trkpt lat="48.93195" lon="7.39826">
        <ele>293</ele>
        <time>2025-06-22T07:42:48Z</time>
      </trkpt>
      <trkpt lat="48.93188" lon="7.39822">
        <ele>293</ele>
        <time>2025-06-22T07:42:49Z</time>
      </trkpt>
      <trkpt lat="48.93182" lon="7.39818">
        <ele>292</ele>
        <time>2025-06-22T07:42:50Z</time>
      </trkpt>
      <trkpt lat="48.93165" lon="7.39819">
        <ele>292</ele>
        <time>2025-06-22T07:42:52Z</time>
      </trkpt>
      <trkpt lat="48.93159" lon="7.39825">
        <ele>292</ele>
        <time>2025-06-22T07:42:53Z</time>
      </trkpt>
      <trkpt lat="48.93154" lon="7.39833">
        <ele>292</ele>
        <time>2025-06-22T07:42:54Z</time>
      </trkpt>
      <trkpt lat="48.9315" lon="7.39842">
        <ele>291</ele>
        <time>2025-06-22T07:42:55Z</time>
      </trkpt>
      <trkpt lat="48.93148" lon="7.39851">
        <ele>291</ele>
        <time>2025-06-22T07:42:56Z</time>
      </trkpt>
      <trkpt lat="48.93145" lon="7.3986">
        <ele>291</ele>
        <time>2025-06-22T07:42:57Z</time>
      </trkpt>
      <trkpt lat="48.93143" lon="7.39868">
        <ele>291</ele>
        <time>2025-06-22T07:42:58Z</time>
      </trkpt>
      <trkpt lat="48.93139" lon="7.39883">
        <ele>290</ele>
        <time>2025-06-22T07:43:00Z</time>
      </trkpt>
      <trkpt lat="48.9313" lon="7.399">
        <ele>290</ele>
        <time>2025-06-22T07:43:02Z</time>
      </trkpt>
      <trkpt lat="48.93118" lon="7.39912">
        <ele>290</ele>
        <time>2025-06-22T07:43:04Z</time>
      </trkpt>
      <trkpt lat="48.93112" lon="7.39916">
        <ele>290</ele>
        <time>2025-06-22T07:43:05Z</time>
      </trkpt>
      <trkpt lat="48.93106" lon="7.39917">
        <ele>290</ele>
        <time>2025-06-22T07:43:06Z</time>
      </trkpt>
      <trkpt lat="48.93094" lon="7.39916">
        <ele>290</ele>
        <time>2025-06-22T07:43:08Z</time>
      </trkpt>
      <trkpt lat="48.93084" lon="7.3991">
        <ele>290</ele>
        <time>2025-06-22T07:43:10Z</time>
      </trkpt>
      <trkpt lat="48.93074" lon="7.39901">
        <ele>289</ele>
        <time>2025-06-22T07:43:12Z</time>
      </trkpt>
      <trkpt lat="48.93065" lon="7.39894">
        <ele>288</ele>
        <time>2025-06-22T07:43:14Z</time>
      </trkpt>
      <trkpt lat="48.93054" lon="7.39885">
        <ele>289</ele>
        <time>2025-06-22T07:43:16Z</time>
      </trkpt>
      <trkpt lat="48.93046" lon="7.39881">
        <ele>289</ele>
        <time>2025-06-22T07:43:17Z</time>
      </trkpt>
      <trkpt lat="48.9304" lon="7.39878">
        <ele>288</ele>
        <time>2025-06-22T07:43:18Z</time>
      </trkpt>
      <trkpt lat="48.93033" lon="7.39875">
        <ele>288</ele>
        <time>2025-06-22T07:43:19Z</time>
      </trkpt>
      <trkpt lat="48.93027" lon="7.39871">
        <ele>287</ele>
        <time>2025-06-22T07:43:20Z</time>
      </trkpt>
      <trkpt lat="48.9302" lon="7.39866">
        <ele>287</ele>
        <time>2025-06-22T07:43:21Z</time>
      </trkpt>
      <trkpt lat="48.93014" lon="7.39861">
        <ele>287</ele>
        <time>2025-06-22T07:43:22Z</time>
      </trkpt>
      <trkpt lat="48.93009" lon="7.39858">
        <ele>287</ele>
        <time>2025-06-22T07:43:23Z</time>
      </trkpt>
      <trkpt lat="48.93003" lon="7.39853">
        <ele>287</ele>
        <time>2025-06-22T07:43:24Z</time>
      </trkpt>
      <trkpt lat="48.92989" lon="7.39845">
        <ele>287</ele>
        <time>2025-06-22T07:43:26Z</time>
      </trkpt>
      <trkpt lat="48.92982" lon="7.39841">
        <ele>287</ele>
        <time>2025-06-22T07:43:27Z</time>
      </trkpt>
      <trkpt lat="48.92976" lon="7.39837">
        <ele>287</ele>
        <time>2025-06-22T07:43:28Z</time>
      </trkpt>
      <trkpt lat="48.92969" lon="7.39833">
        <ele>287</ele>
        <time>2025-06-22T07:43:29Z</time>
      </trkpt>
      <trkpt lat="48.92963" lon="7.3983">
        <ele>287</ele>
        <time>2025-06-22T07:43:30Z</time>
      </trkpt>
      <trkpt lat="48.92958" lon="7.39828">
        <ele>287</ele>
        <time>2025-06-22T07:43:31Z</time>
      </trkpt>
      <trkpt lat="48.92946" lon="7.39824">
        <ele>287</ele>
        <time>2025-06-22T07:43:33Z</time>
      </trkpt>
      <trkpt lat="48.92934" lon="7.39818">
        <ele>286</ele>
        <time>2025-06-22T07:43:35Z</time>
      </trkpt>
      <trkpt lat="48.92922" lon="7.39808">
        <ele>286</ele>
        <time>2025-06-22T07:43:37Z</time>
      </trkpt>
      <trkpt lat="48.92911" lon="7.39799">
        <ele>286</ele>
        <time>2025-06-22T07:43:39Z</time>
      </trkpt>
      <trkpt lat="48.92903" lon="7.39786">
        <ele>286</ele>
        <time>2025-06-22T07:43:41Z</time>
      </trkpt>
      <trkpt lat="48.92895" lon="7.39776">
        <ele>285</ele>
        <time>2025-06-22T07:43:43Z</time>
      </trkpt>
      <trkpt lat="48.92888" lon="7.39766">
        <ele>285</ele>
        <time>2025-06-22T07:43:45Z</time>
      </trkpt>
      <trkpt lat="48.92879" lon="7.39756">
        <ele>285</ele>
        <time>2025-06-22T07:43:47Z</time>
      </trkpt>
      <trkpt lat="48.9287" lon="7.39742">
        <ele>284</ele>
        <time>2025-06-22T07:43:49Z</time>
      </trkpt>
      <trkpt lat="48.92861" lon="7.39726">
        <ele>284</ele>
        <time>2025-06-22T07:43:51Z</time>
      </trkpt>
      <trkpt lat="48.92853" lon="7.39716">
        <ele>283</ele>
        <time>2025-06-22T07:43:53Z</time>
      </trkpt>
      <trkpt lat="48.92843" lon="7.39705">
        <ele>283</ele>
        <time>2025-06-22T07:43:55Z</time>
      </trkpt>
      <trkpt lat="48.92834" lon="7.39697">
        <ele>283</ele>
        <time>2025-06-22T07:43:57Z</time>
      </trkpt>
      <trkpt lat="48.92822" lon="7.39689">
        <ele>283</ele>
        <time>2025-06-22T07:43:59Z</time>
      </trkpt>
      <trkpt lat="48.92813" lon="7.39681">
        <ele>283</ele>
        <time>2025-06-22T07:44:01Z</time>
      </trkpt>
      <trkpt lat="48.92805" lon="7.39672">
        <ele>283</ele>
        <time>2025-06-22T07:44:03Z</time>
      </trkpt>
      <trkpt lat="48.92795" lon="7.39663">
        <ele>283</ele>
        <time>2025-06-22T07:44:05Z</time>
      </trkpt>
      <trkpt lat="48.92781" lon="7.39655">
        <ele>283</ele>
        <time>2025-06-22T07:44:07Z</time>
      </trkpt>
      <trkpt lat="48.92775" lon="7.3965">
        <ele>282</ele>
        <time>2025-06-22T07:44:08Z</time>
      </trkpt>
      <trkpt lat="48.92769" lon="7.39646">
        <ele>282</ele>
        <time>2025-06-22T07:44:09Z</time>
      </trkpt>
      <trkpt lat="48.92764" lon="7.39643">
        <ele>282</ele>
        <time>2025-06-22T07:44:10Z</time>
      </trkpt>
      <trkpt lat="48.92753" lon="7.39635">
        <ele>281</ele>
        <time>2025-06-22T07:44:12Z</time>
      </trkpt>
      <trkpt lat="48.92747" lon="7.39631">
        <ele>281</ele>
        <time>2025-06-22T07:44:13Z</time>
      </trkpt>
      <trkpt lat="48.92742" lon="7.39626">
        <ele>281</ele>
        <time>2025-06-22T07:44:14Z</time>
      </trkpt>
      <trkpt lat="48.92737" lon="7.39622">
        <ele>280</ele>
        <time>2025-06-22T07:44:15Z</time>
      </trkpt>
      <trkpt lat="48.92733" lon="7.39619">
        <ele>279</ele>
        <time>2025-06-22T07:44:16Z</time>
      </trkpt>
      <trkpt lat="48.92729" lon="7.39615">
        <ele>279</ele>
        <time>2025-06-22T07:44:17Z</time>
      </trkpt>
      <trkpt lat="48.92725" lon="7.39611">
        <ele>279</ele>
        <time>2025-06-22T07:44:18Z</time>
      </trkpt>
      <trkpt lat="48.92721" lon="7.39606">
        <ele>278</ele>
        <time>2025-06-22T07:44:19Z</time>
      </trkpt>
      <trkpt lat="48.92716" lon="7.39598">
        <ele>278</ele>
        <time>2025-06-22T07:44:20Z</time>
      </trkpt>
      <trkpt lat="48.92711" lon="7.3959">
        <ele>277</ele>
        <time>2025-06-22T07:44:21Z</time>
      </trkpt>
      <trkpt lat="48.92706" lon="7.3958">
        <ele>277</ele>
        <time>2025-06-22T07:44:22Z</time>
      </trkpt>
      <trkpt lat="48.927" lon="7.39571">
        <ele>277</ele>
        <time>2025-06-22T07:44:23Z</time>
      </trkpt>
      <trkpt lat="48.92695" lon="7.39561">
        <ele>277</ele>
        <time>2025-06-22T07:44:24Z</time>
      </trkpt>
      <trkpt lat="48.9269" lon="7.39552">
        <ele>277</ele>
        <time>2025-06-22T07:44:25Z</time>
      </trkpt>
      <trkpt lat="48.92686" lon="7.39543">
        <ele>276</ele>
        <time>2025-06-22T07:44:26Z</time>
      </trkpt>
      <trkpt lat="48.92681" lon="7.39535">
        <ele>276</ele>
        <time>2025-06-22T07:44:27Z</time>
      </trkpt>
      <trkpt lat="48.92677" lon="7.39527">
        <ele>276</ele>
        <time>2025-06-22T07:44:28Z</time>
      </trkpt>
      <trkpt lat="48.92672" lon="7.39519">
        <ele>276</ele>
        <time>2025-06-22T07:44:29Z</time>
      </trkpt>
      <trkpt lat="48.92668" lon="7.39511">
        <ele>276</ele>
        <time>2025-06-22T07:44:30Z</time>
      </trkpt>
      <trkpt lat="48.92663" lon="7.39502">
        <ele>275</ele>
        <time>2025-06-22T07:44:31Z</time>
      </trkpt>
      <trkpt lat="48.92659" lon="7.39494">
        <ele>275</ele>
        <time>2025-06-22T07:44:32Z</time>
      </trkpt>
      <trkpt lat="48.92656" lon="7.39489">
        <ele>275</ele>
        <time>2025-06-22T07:44:33Z</time>
      </trkpt>
      <trkpt lat="48.92653" lon="7.39485">
        <ele>273</ele>
        <time>2025-06-22T07:44:34Z</time>
      </trkpt>
      <trkpt lat="48.9265" lon="7.39483">
        <ele>272</ele>
        <time>2025-06-22T07:44:35Z</time>
      </trkpt>
      <trkpt lat="48.92647" lon="7.3948">
        <ele>272</ele>
        <time>2025-06-22T07:44:36Z</time>
      </trkpt>
      <trkpt lat="48.92644" lon="7.39476">
        <ele>273</ele>
        <time>2025-06-22T07:44:37Z</time>
      </trkpt>
      <trkpt lat="48.92642" lon="7.3947">
        <ele>273</ele>
        <time>2025-06-22T07:44:38Z</time>
      </trkpt>
      <trkpt lat="48.92639" lon="7.39464">
        <ele>272</ele>
        <time>2025-06-22T07:44:39Z</time>
      </trkpt>
      <trkpt lat="48.92636" lon="7.39457">
        <ele>272</ele>
        <time>2025-06-22T07:44:40Z</time>
      </trkpt>
      <trkpt lat="48.92632" lon="7.39448">
        <ele>270</ele>
        <time>2025-06-22T07:44:41Z</time>
      </trkpt>
      <trkpt lat="48.92628" lon="7.39439">
        <ele>269</ele>
        <time>2025-06-22T07:44:42Z</time>
      </trkpt>
      <trkpt lat="48.92625" lon="7.39429">
        <ele>269</ele>
        <time>2025-06-22T07:44:43Z</time>
      </trkpt>
      <trkpt lat="48.92622" lon="7.3942">
        <ele>269</ele>
        <time>2025-06-22T07:44:44Z</time>
      </trkpt>
      <trkpt lat="48.9262" lon="7.39412">
        <ele>267</ele>
        <time>2025-06-22T07:44:45Z</time>
      </trkpt>
      <trkpt lat="48.9262" lon="7.39409">
        <ele>266</ele>
        <time>2025-06-22T07:44:46Z</time>
      </trkpt>
      <trkpt lat="48.92622" lon="7.39407">
        <ele>265</ele>
        <time>2025-06-22T07:44:47Z</time>
      </trkpt>
      <trkpt lat="48.92624" lon="7.39406">
        <ele>264</ele>
        <time>2025-06-22T07:44:48Z</time>
      </trkpt>
      <trkpt lat="48.92627" lon="7.39405">
        <ele>263</ele>
        <time>2025-06-22T07:44:49Z</time>
      </trkpt>
      <trkpt lat="48.92629" lon="7.39404">
        <ele>263</ele>
        <time>2025-06-22T07:44:50Z</time>
      </trkpt>
      <trkpt lat="48.92631" lon="7.39401">
        <ele>263</ele>
        <time>2025-06-22T07:44:52Z</time>
      </trkpt>
      <trkpt lat="48.92628" lon="7.39396">
        <ele>259</ele>
        <time>2025-06-22T07:44:54Z</time>
      </trkpt>
      <trkpt lat="48.92628" lon="7.39392">
        <ele>259</ele>
        <time>2025-06-22T07:44:55Z</time>
      </trkpt>
      <trkpt lat="48.92628" lon="7.39387">
        <ele>258</ele>
        <time>2025-06-22T07:44:56Z</time>
      </trkpt>
      <trkpt lat="48.92624" lon="7.39369">
        <ele>256</ele>
        <time>2025-06-22T07:44:59Z</time>
      </trkpt>
      <trkpt lat="48.92622" lon="7.39354">
        <ele>254</ele>
        <time>2025-06-22T07:45:01Z</time>
      </trkpt>
      <trkpt lat="48.92617" lon="7.39339">
        <ele>252</ele>
        <time>2025-06-22T07:45:03Z</time>
      </trkpt>
      <trkpt lat="48.92611" lon="7.39326">
        <ele>252</ele>
        <time>2025-06-22T07:45:05Z</time>
      </trkpt>
      <trkpt lat="48.92603" lon="7.39316">
        <ele>249</ele>
        <time>2025-06-22T07:45:07Z</time>
      </trkpt>
      <trkpt lat="48.92589" lon="7.39309">
        <ele>246</ele>
        <time>2025-06-22T07:45:10Z</time>
      </trkpt>
      <trkpt lat="48.92579" lon="7.39306">
        <ele>245</ele>
        <time>2025-06-22T07:45:12Z</time>
      </trkpt>
      <trkpt lat="48.92573" lon="7.39304">
        <ele>245</ele>
        <time>2025-06-22T07:45:13Z</time>
      </trkpt>
      <trkpt lat="48.92566" lon="7.39302">
        <ele>245</ele>
        <time>2025-06-22T07:45:14Z</time>
      </trkpt>
      <trkpt lat="48.92559" lon="7.39302">
        <ele>243</ele>
        <time>2025-06-22T07:45:15Z</time>
      </trkpt>
      <trkpt lat="48.92555" lon="7.39301">
        <ele>242</ele>
        <time>2025-06-22T07:45:16Z</time>
      </trkpt>
      <trkpt lat="48.92551" lon="7.393">
        <ele>240</ele>
        <time>2025-06-22T07:45:17Z</time>
      </trkpt>
      <trkpt lat="48.92545" lon="7.39299">
        <ele>239</ele>
        <time>2025-06-22T07:45:18Z</time>
      </trkpt>
      <trkpt lat="48.92539" lon="7.39298">
        <ele>239</ele>
        <time>2025-06-22T07:45:19Z</time>
      </trkpt>
      <trkpt lat="48.92527" lon="7.39298">
        <ele>237</ele>
        <time>2025-06-22T07:45:21Z</time>
      </trkpt>
      <trkpt lat="48.92515" lon="7.39299">
        <ele>237</ele>
        <time>2025-06-22T07:45:23Z</time>
      </trkpt>
      <trkpt lat="48.92508" lon="7.39303">
        <ele>233</ele>
        <time>2025-06-22T07:45:25Z</time>
      </trkpt>
      <trkpt lat="48.92505" lon="7.39308">
        <ele>233</ele>
        <time>2025-06-22T07:45:26Z</time>
      </trkpt>
      <trkpt lat="48.92502" lon="7.39311">
        <ele>232</ele>
        <time>2025-06-22T07:45:27Z</time>
      </trkpt>
      <trkpt lat="48.92499" lon="7.39315">
        <ele>232</ele>
        <time>2025-06-22T07:45:28Z</time>
      </trkpt>
      <trkpt lat="48.92496" lon="7.3932">
        <ele>232</ele>
        <time>2025-06-22T07:45:29Z</time>
      </trkpt>
      <trkpt lat="48.92492" lon="7.39326">
        <ele>232</ele>
        <time>2025-06-22T07:45:30Z</time>
      </trkpt>
      <trkpt lat="48.9248" lon="7.39325">
        <ele>230</ele>
        <time>2025-06-22T07:45:33Z</time>
      </trkpt>
      <trkpt lat="48.92473" lon="7.39317">
        <ele>230</ele>
        <time>2025-06-22T07:45:35Z</time>
      </trkpt>
      <trkpt lat="48.92464" lon="7.39309">
        <ele>227</ele>
        <time>2025-06-22T07:45:38Z</time>
      </trkpt>
      <trkpt lat="48.92454" lon="7.39301">
        <ele>230</ele>
        <time>2025-06-22T07:45:41Z</time>
      </trkpt>
      <trkpt lat="48.92445" lon="7.3929">
        <ele>233</ele>
        <time>2025-06-22T07:45:44Z</time>
      </trkpt>
      <trkpt lat="48.92438" lon="7.39278">
        <ele>233</ele>
        <time>2025-06-22T07:45:47Z</time>
      </trkpt>
      <trkpt lat="48.92433" lon="7.3926">
        <ele>234</ele>
        <time>2025-06-22T07:45:50Z</time>
      </trkpt>
      <trkpt lat="48.9243" lon="7.39249">
        <ele>235</ele>
        <time>2025-06-22T07:45:53Z</time>
      </trkpt>
      <trkpt lat="48.92428" lon="7.39245">
        <ele>235</ele>
        <time>2025-06-22T07:45:54Z</time>
      </trkpt>
      <trkpt lat="48.92427" lon="7.39239">
        <ele>235</ele>
        <time>2025-06-22T07:45:55Z</time>
      </trkpt>
      <trkpt lat="48.92427" lon="7.39233">
        <ele>235</ele>
        <time>2025-06-22T07:45:56Z</time>
      </trkpt>
      <trkpt lat="48.92427" lon="7.39228">
        <ele>235</ele>
        <time>2025-06-22T07:45:57Z</time>
      </trkpt>
      <trkpt lat="48.92426" lon="7.39223">
        <ele>234</ele>
        <time>2025-06-22T07:45:58Z</time>
      </trkpt>
      <trkpt lat="48.92424" lon="7.39219">
        <ele>234</ele>
        <time>2025-06-22T07:45:59Z</time>
      </trkpt>
      <trkpt lat="48.92421" lon="7.39216">
        <ele>233</ele>
        <time>2025-06-22T07:46:00Z</time>
      </trkpt>
      <trkpt lat="48.92418" lon="7.39216">
        <ele>234</ele>
        <time>2025-06-22T07:46:01Z</time>
      </trkpt>
      <trkpt lat="48.92415" lon="7.39216">
        <ele>234</ele>
        <time>2025-06-22T07:46:02Z</time>
      </trkpt>
      <trkpt lat="48.92412" lon="7.39217">
        <ele>234</ele>
        <time>2025-06-22T07:46:03Z</time>
      </trkpt>
      <trkpt lat="48.92409" lon="7.39218">
        <ele>234</ele>
        <time>2025-06-22T07:46:04Z</time>
      </trkpt>
      <trkpt lat="48.92406" lon="7.39219">
        <ele>234</ele>
        <time>2025-06-22T07:46:05Z</time>
      </trkpt>
      <trkpt lat="48.92402" lon="7.3922">
        <ele>235</ele>
        <time>2025-06-22T07:46:06Z</time>
      </trkpt>
      <trkpt lat="48.924" lon="7.39222">
        <ele>236</ele>
        <time>2025-06-22T07:46:07Z</time>
      </trkpt>
      <trkpt lat="48.92398" lon="7.39224">
        <ele>236</ele>
        <time>2025-06-22T07:46:08Z</time>
      </trkpt>
      <trkpt lat="48.92396" lon="7.39226">
        <ele>237</ele>
        <time>2025-06-22T07:46:09Z</time>
      </trkpt>
      <trkpt lat="48.92394" lon="7.39228">
        <ele>237</ele>
        <time>2025-06-22T07:46:10Z</time>
      </trkpt>
      <trkpt lat="48.92389" lon="7.39231">
        <ele>239</ele>
        <time>2025-06-22T07:46:12Z</time>
      </trkpt>
      <trkpt lat="48.92385" lon="7.39229">
        <ele>239</ele>
        <time>2025-06-22T07:46:14Z</time>
      </trkpt>
      <trkpt lat="48.92383" lon="7.39227">
        <ele>239</ele>
        <time>2025-06-22T07:46:16Z</time>
      </trkpt>
      <trkpt lat="48.92382" lon="7.39226">
        <ele>239</ele>
        <time>2025-06-22T07:46:17Z</time>
      </trkpt>
      <trkpt lat="48.92378" lon="7.39225">
        <ele>240</ele>
        <time>2025-06-22T07:46:19Z</time>
      </trkpt>
      <trkpt lat="48.92375" lon="7.39224">
        <ele>241</ele>
        <time>2025-06-22T07:46:21Z</time>
      </trkpt>
      <trkpt lat="48.92371" lon="7.39224">
        <ele>241</ele>
        <time>2025-06-22T07:46:23Z</time>
      </trkpt>
      <trkpt lat="48.92369" lon="7.39224">
        <ele>241</ele>
        <time>2025-06-22T07:46:24Z</time>
      </trkpt>
      <trkpt lat="48.92367" lon="7.39223">
        <ele>242</ele>
        <time>2025-06-22T07:46:25Z</time>
      </trkpt>
      <trkpt lat="48.92365" lon="7.39222">
        <ele>242</ele>
        <time>2025-06-22T07:46:26Z</time>
      </trkpt>
      <trkpt lat="48.92362" lon="7.39221">
        <ele>242</ele>
        <time>2025-06-22T07:46:27Z</time>
      </trkpt>
      <trkpt lat="48.9236" lon="7.39221">
        <ele>242</ele>
        <time>2025-06-22T07:46:28Z</time>
      </trkpt>
      <trkpt lat="48.92357" lon="7.3922">
        <ele>242</ele>
        <time>2025-06-22T07:46:29Z</time>
      </trkpt>
      <trkpt lat="48.92355" lon="7.39219">
        <ele>242</ele>
        <time>2025-06-22T07:46:30Z</time>
      </trkpt>
      <trkpt lat="48.92352" lon="7.39218">
        <ele>242</ele>
        <time>2025-06-22T07:46:31Z</time>
      </trkpt>
      <trkpt lat="48.92349" lon="7.39218">
        <ele>242</ele>
        <time>2025-06-22T07:46:32Z</time>
      </trkpt>
      <trkpt lat="48.92345" lon="7.39216">
        <ele>242</ele>
        <time>2025-06-22T07:46:33Z</time>
      </trkpt>
      <trkpt lat="48.92341" lon="7.39214">
        <ele>242</ele>
        <time>2025-06-22T07:46:34Z</time>
      </trkpt>
      <trkpt lat="48.92337" lon="7.39212">
        <ele>242</ele>
        <time>2025-06-22T07:46:35Z</time>
      </trkpt>
      <trkpt lat="48.92334" lon="7.3921">
        <ele>242</ele>
        <time>2025-06-22T07:46:36Z</time>
      </trkpt>
      <trkpt lat="48.92331" lon="7.39209">
        <ele>241</ele>
        <time>2025-06-22T07:46:37Z</time>
      </trkpt>
      <trkpt lat="48.92328" lon="7.39208">
        <ele>241</ele>
        <time>2025-06-22T07:46:38Z</time>
      </trkpt>
      <trkpt lat="48.92325" lon="7.39205">
        <ele>241</ele>
        <time>2025-06-22T07:46:39Z</time>
      </trkpt>
      <trkpt lat="48.92323" lon="7.39203">
        <ele>241</ele>
        <time>2025-06-22T07:46:40Z</time>
      </trkpt>
      <trkpt lat="48.9232" lon="7.39202">
        <ele>241</ele>
        <time>2025-06-22T07:46:41Z</time>
      </trkpt>
      <trkpt lat="48.92317" lon="7.39199">
        <ele>241</ele>
        <time>2025-06-22T07:46:42Z</time>
      </trkpt>
      <trkpt lat="48.92305" lon="7.39191">
        <ele>240</ele>
        <time>2025-06-22T07:46:45Z</time>
      </trkpt>
      <trkpt lat="48.92303" lon="7.3919">
        <ele>240</ele>
        <time>2025-06-22T07:46:46Z</time>
      </trkpt>
      <trkpt lat="48.92301" lon="7.39189">
        <ele>240</ele>
        <time>2025-06-22T07:46:47Z</time>
      </trkpt>
      <trkpt lat="48.92299" lon="7.39188">
        <ele>240</ele>
        <time>2025-06-22T07:46:48Z</time>
      </trkpt>
      <trkpt lat="48.92296" lon="7.39186">
        <ele>240</ele>
        <time>2025-06-22T07:46:50Z</time>
      </trkpt>
      <trkpt lat="48.92294" lon="7.39186">
        <ele>240</ele>
        <time>2025-06-22T07:46:52Z</time>
      </trkpt>
      <trkpt lat="48.9229" lon="7.39184">
        <ele>239</ele>
        <time>2025-06-22T07:46:54Z</time>
      </trkpt>
      <trkpt lat="48.92288" lon="7.39183">
        <ele>239</ele>
        <time>2025-06-22T07:46:55Z</time>
      </trkpt>
      <trkpt lat="48.92285" lon="7.39181">
        <ele>239</ele>
        <time>2025-06-22T07:46:56Z</time>
      </trkpt>
      <trkpt lat="48.92282" lon="7.39179">
        <ele>239</ele>
        <time>2025-06-22T07:46:57Z</time>
      </trkpt>
      <trkpt lat="48.92279" lon="7.39178">
        <ele>239</ele>
        <time>2025-06-22T07:46:58Z</time>
      </trkpt>
      <trkpt lat="48.92276" lon="7.39176">
        <ele>238</ele>
        <time>2025-06-22T07:46:59Z</time>
      </trkpt>
      <trkpt lat="48.92266" lon="7.39167">
        <ele>238</ele>
        <time>2025-06-22T07:47:03Z</time>
      </trkpt>
      <trkpt lat="48.92256" lon="7.39156">
        <ele>238</ele>
        <time>2025-06-22T07:47:06Z</time>
      </trkpt>
      <trkpt lat="48.92253" lon="7.39151">
        <ele>238</ele>
        <time>2025-06-22T07:47:07Z</time>
      </trkpt>
      <trkpt lat="48.92249" lon="7.39147">
        <ele>238</ele>
        <time>2025-06-22T07:47:08Z</time>
      </trkpt>
      <trkpt lat="48.92242" lon="7.39136">
        <ele>238</ele>
        <time>2025-06-22T07:47:10Z</time>
      </trkpt>
      <trkpt lat="48.92239" lon="7.39131">
        <ele>237</ele>
        <time>2025-06-22T07:47:11Z</time>
      </trkpt>
      <trkpt lat="48.92237" lon="7.39126">
        <ele>237</ele>
        <time>2025-06-22T07:47:12Z</time>
      </trkpt>
      <trkpt lat="48.92236" lon="7.39124">
        <ele>237</ele>
        <time>2025-06-22T07:47:13Z</time>
      </trkpt>
      <trkpt lat="48.92234" lon="7.39119">
        <ele>237</ele>
        <time>2025-06-22T07:47:14Z</time>
      </trkpt>
      <trkpt lat="48.92232" lon="7.39114">
        <ele>237</ele>
        <time>2025-06-22T07:47:15Z</time>
      </trkpt>
      <trkpt lat="48.92229" lon="7.39109">
        <ele>237</ele>
        <time>2025-06-22T07:47:16Z</time>
      </trkpt>
      <trkpt lat="48.92223" lon="7.39097">
        <ele>236</ele>
        <time>2025-06-22T07:47:18Z</time>
      </trkpt>
      <trkpt lat="48.92217" lon="7.39081">
        <ele>236</ele>
        <time>2025-06-22T07:47:20Z</time>
      </trkpt>
      <trkpt lat="48.92212" lon="7.39067">
        <ele>236</ele>
        <time>2025-06-22T07:47:22Z</time>
      </trkpt>
      <trkpt lat="48.92205" lon="7.39048">
        <ele>236</ele>
        <time>2025-06-22T07:47:24Z</time>
      </trkpt>
      <trkpt lat="48.922" lon="7.39024">
        <ele>235</ele>
        <time>2025-06-22T07:47:25Z</time>
      </trkpt>
      <trkpt lat="48.92195" lon="7.39008">
        <ele>235</ele>
        <time>2025-06-22T07:47:28Z</time>
      </trkpt>
      <trkpt lat="48.9219" lon="7.38995">
        <ele>234</ele>
        <time>2025-06-22T07:47:30Z</time>
      </trkpt>
      <trkpt lat="48.92187" lon="7.38978">
        <ele>234</ele>
        <time>2025-06-22T07:47:33Z</time>
      </trkpt>
      <trkpt lat="48.92186" lon="7.38959">
        <ele>233</ele>
        <time>2025-06-22T07:47:36Z</time>
      </trkpt>
      <trkpt lat="48.92184" lon="7.38944">
        <ele>233</ele>
        <time>2025-06-22T07:47:38Z</time>
      </trkpt>
      <trkpt lat="48.92182" lon="7.38924">
        <ele>233</ele>
        <time>2025-06-22T07:47:40Z</time>
      </trkpt>
      <trkpt lat="48.92178" lon="7.38907">
        <ele>233</ele>
        <time>2025-06-22T07:47:42Z</time>
      </trkpt>
      <trkpt lat="48.92175" lon="7.38891">
        <ele>232</ele>
        <time>2025-06-22T07:47:44Z</time>
      </trkpt>
      <trkpt lat="48.9217" lon="7.38877">
        <ele>232</ele>
        <time>2025-06-22T07:47:46Z</time>
      </trkpt>
      <trkpt lat="48.92165" lon="7.38865">
        <ele>232</ele>
        <time>2025-06-22T07:47:48Z</time>
      </trkpt>
      <trkpt lat="48.9216" lon="7.38851">
        <ele>232</ele>
        <time>2025-06-22T07:47:50Z</time>
      </trkpt>
      <trkpt lat="48.92156" lon="7.38834">
        <ele>232</ele>
        <time>2025-06-22T07:47:52Z</time>
      </trkpt>
      <trkpt lat="48.92154" lon="7.38819">
        <ele>232</ele>
        <time>2025-06-22T07:47:54Z</time>
      </trkpt>
      <trkpt lat="48.92154" lon="7.38798">
        <ele>232</ele>
        <time>2025-06-22T07:47:57Z</time>
      </trkpt>
      <trkpt lat="48.92157" lon="7.38783">
        <ele>232</ele>
        <time>2025-06-22T07:47:59Z</time>
      </trkpt>
      <trkpt lat="48.92156" lon="7.38767">
        <ele>232</ele>
        <time>2025-06-22T07:48:01Z</time>
      </trkpt>
      <trkpt lat="48.92157" lon="7.38751">
        <ele>231</ele>
        <time>2025-06-22T07:48:04Z</time>
      </trkpt>
      <trkpt lat="48.92164" lon="7.38739">
        <ele>232</ele>
        <time>2025-06-22T07:48:12Z</time>
      </trkpt>
      <trkpt lat="48.92167" lon="7.38734">
        <ele>232</ele>
        <time>2025-06-22T07:48:14Z</time>
      </trkpt>
      <trkpt lat="48.92166" lon="7.3873">
        <ele>232</ele>
        <time>2025-06-22T07:48:15Z</time>
      </trkpt>
      <trkpt lat="48.92164" lon="7.38725">
        <ele>232</ele>
        <time>2025-06-22T07:48:16Z</time>
      </trkpt>
      <trkpt lat="48.92163" lon="7.38723">
        <ele>232</ele>
        <time>2025-06-22T07:48:17Z</time>
      </trkpt>
      <trkpt lat="48.9216" lon="7.38721">
        <ele>232</ele>
        <time>2025-06-22T07:48:19Z</time>
      </trkpt>
      <trkpt lat="48.92158" lon="7.3872">
        <ele>232</ele>
        <time>2025-06-22T07:48:21Z</time>
      </trkpt>
      <trkpt lat="48.92156" lon="7.38719">
        <ele>232</ele>
        <time>2025-06-22T07:48:23Z</time>
      </trkpt>
      <trkpt lat="48.92153" lon="7.38719">
        <ele>232</ele>
        <time>2025-06-22T07:48:25Z</time>
      </trkpt>
      <trkpt lat="48.9215" lon="7.38719">
        <ele>232</ele>
        <time>2025-06-22T07:48:26Z</time>
      </trkpt>
      <trkpt lat="48.92148" lon="7.38719">
        <ele>232</ele>
        <time>2025-06-22T07:48:27Z</time>
      </trkpt>
      <trkpt lat="48.92145" lon="7.3872">
        <ele>231</ele>
        <time>2025-06-22T07:48:28Z</time>
      </trkpt>
      <trkpt lat="48.92143" lon="7.38718">
        <ele>231</ele>
        <time>2025-06-22T07:48:29Z</time>
      </trkpt>
      <trkpt lat="48.9214" lon="7.38717">
        <ele>231</ele>
        <time>2025-06-22T07:48:30Z</time>
      </trkpt>
      <trkpt lat="48.92137" lon="7.38716">
        <ele>231</ele>
        <time>2025-06-22T07:48:31Z</time>
      </trkpt>
      <trkpt lat="48.92135" lon="7.38715">
        <ele>231</ele>
        <time>2025-06-22T07:48:32Z</time>
      </trkpt>
      <trkpt lat="48.92133" lon="7.38712">
        <ele>231</ele>
        <time>2025-06-22T07:48:33Z</time>
      </trkpt>
      <trkpt lat="48.9213" lon="7.38709">
        <ele>231</ele>
        <time>2025-06-22T07:48:34Z</time>
      </trkpt>
      <trkpt lat="48.92129" lon="7.38704">
        <ele>231</ele>
        <time>2025-06-22T07:48:35Z</time>
      </trkpt>
      <trkpt lat="48.92126" lon="7.38698">
        <ele>231</ele>
        <time>2025-06-22T07:48:36Z</time>
      </trkpt>
      <trkpt lat="48.92123" lon="7.38692">
        <ele>230</ele>
        <time>2025-06-22T07:48:37Z</time>
      </trkpt>
      <trkpt lat="48.9212" lon="7.38686">
        <ele>230</ele>
        <time>2025-06-22T07:48:38Z</time>
      </trkpt>
      <trkpt lat="48.92118" lon="7.3868">
        <ele>230</ele>
        <time>2025-06-22T07:48:39Z</time>
      </trkpt>
      <trkpt lat="48.92115" lon="7.38675">
        <ele>230</ele>
        <time>2025-06-22T07:48:40Z</time>
      </trkpt>
      <trkpt lat="48.92113" lon="7.38671">
        <ele>230</ele>
        <time>2025-06-22T07:48:41Z</time>
      </trkpt>
      <trkpt lat="48.92111" lon="7.38666">
        <ele>230</ele>
        <time>2025-06-22T07:48:42Z</time>
      </trkpt>
      <trkpt lat="48.92108" lon="7.38661">
        <ele>229</ele>
        <time>2025-06-22T07:48:43Z</time>
      </trkpt>
      <trkpt lat="48.92105" lon="7.38657">
        <ele>229</ele>
        <time>2025-06-22T07:48:44Z</time>
      </trkpt>
      <trkpt lat="48.92102" lon="7.38653">
        <ele>229</ele>
        <time>2025-06-22T07:48:45Z</time>
      </trkpt>
      <trkpt lat="48.92099" lon="7.38649">
        <ele>229</ele>
        <time>2025-06-22T07:48:46Z</time>
      </trkpt>
      <trkpt lat="48.92096" lon="7.38646">
        <ele>229</ele>
        <time>2025-06-22T07:48:47Z</time>
      </trkpt>
      <trkpt lat="48.92094" lon="7.38643">
        <ele>229</ele>
        <time>2025-06-22T07:48:48Z</time>
      </trkpt>
      <trkpt lat="48.92091" lon="7.38639">
        <ele>229</ele>
        <time>2025-06-22T07:48:49Z</time>
      </trkpt>
      <trkpt lat="48.92088" lon="7.38636">
        <ele>229</ele>
        <time>2025-06-22T07:48:50Z</time>
      </trkpt>
      <trkpt lat="48.92084" lon="7.38633">
        <ele>229</ele>
        <time>2025-06-22T07:48:51Z</time>
      </trkpt>
      <trkpt lat="48.92079" lon="7.38631">
        <ele>229</ele>
        <time>2025-06-22T07:48:52Z</time>
      </trkpt>
      <trkpt lat="48.92073" lon="7.38628">
        <ele>229</ele>
        <time>2025-06-22T07:48:53Z</time>
      </trkpt>
      <trkpt lat="48.92068" lon="7.38627">
        <ele>229</ele>
        <time>2025-06-22T07:48:54Z</time>
      </trkpt>
      <trkpt lat="48.92063" lon="7.38627">
        <ele>229</ele>
        <time>2025-06-22T07:48:55Z</time>
      </trkpt>
      <trkpt lat="48.92058" lon="7.38626">
        <ele>229</ele>
        <time>2025-06-22T07:48:56Z</time>
      </trkpt>
      <trkpt lat="48.92053" lon="7.38626">
        <ele>229</ele>
        <time>2025-06-22T07:48:57Z</time>
      </trkpt>
      <trkpt lat="48.92048" lon="7.38625">
        <ele>229</ele>
        <time>2025-06-22T07:48:58Z</time>
      </trkpt>
      <trkpt lat="48.92043" lon="7.38624">
        <ele>229</ele>
        <time>2025-06-22T07:48:59Z</time>
      </trkpt>
      <trkpt lat="48.92038" lon="7.38623">
        <ele>229</ele>
        <time>2025-06-22T07:49:00Z</time>
      </trkpt>
      <trkpt lat="48.92033" lon="7.38622">
        <ele>229</ele>
        <time>2025-06-22T07:49:01Z</time>
      </trkpt>
      <trkpt lat="48.92029" lon="7.38622">
        <ele>229</ele>
        <time>2025-06-22T07:49:02Z</time>
      </trkpt>
      <trkpt lat="48.92025" lon="7.38621">
        <ele>229</ele>
        <time>2025-06-22T07:49:03Z</time>
      </trkpt>
      <trkpt lat="48.92008" lon="7.38619">
        <ele>229</ele>
        <time>2025-06-22T07:49:06Z</time>
      </trkpt>
      <trkpt lat="48.91994" lon="7.38617">
        <ele>228</ele>
        <time>2025-06-22T07:49:08Z</time>
      </trkpt>
      <trkpt lat="48.91981" lon="7.38613">
        <ele>227</ele>
        <time>2025-06-22T07:49:10Z</time>
      </trkpt>
      <trkpt lat="48.91976" lon="7.38609">
        <ele>227</ele>
        <time>2025-06-22T07:49:11Z</time>
      </trkpt>
      <trkpt lat="48.91973" lon="7.38602">
        <ele>227</ele>
        <time>2025-06-22T07:49:12Z</time>
      </trkpt>
      <trkpt lat="48.91971" lon="7.38596">
        <ele>227</ele>
        <time>2025-06-22T07:49:13Z</time>
      </trkpt>
      <trkpt lat="48.91969" lon="7.38589">
        <ele>227</ele>
        <time>2025-06-22T07:49:14Z</time>
      </trkpt>
      <trkpt lat="48.91967" lon="7.38582">
        <ele>227</ele>
        <time>2025-06-22T07:49:15Z</time>
      </trkpt>
      <trkpt lat="48.91966" lon="7.38572">
        <ele>228</ele>
        <time>2025-06-22T07:49:16Z</time>
      </trkpt>
      <trkpt lat="48.91966" lon="7.38554">
        <ele>228</ele>
        <time>2025-06-22T07:49:18Z</time>
      </trkpt>
      <trkpt lat="48.91965" lon="7.38544">
        <ele>228</ele>
        <time>2025-06-22T07:49:19Z</time>
      </trkpt>
      <trkpt lat="48.91965" lon="7.38534">
        <ele>228</ele>
        <time>2025-06-22T07:49:20Z</time>
      </trkpt>
      <trkpt lat="48.91965" lon="7.38516">
        <ele>228</ele>
        <time>2025-06-22T07:49:21Z</time>
      </trkpt>
      <trkpt lat="48.91965" lon="7.38507">
        <ele>227</ele>
        <time>2025-06-22T07:49:23Z</time>
      </trkpt>
      <trkpt lat="48.91965" lon="7.38498">
        <ele>226</ele>
        <time>2025-06-22T07:49:24Z</time>
      </trkpt>
      <trkpt lat="48.91966" lon="7.38489">
        <ele>227</ele>
        <time>2025-06-22T07:49:25Z</time>
      </trkpt>
      <trkpt lat="48.91966" lon="7.3848">
        <ele>227</ele>
        <time>2025-06-22T07:49:26Z</time>
      </trkpt>
      <trkpt lat="48.91966" lon="7.38471">
        <ele>227</ele>
        <time>2025-06-22T07:49:27Z</time>
      </trkpt>
      <trkpt lat="48.91965" lon="7.38463">
        <ele>227</ele>
        <time>2025-06-22T07:49:28Z</time>
      </trkpt>
      <trkpt lat="48.91964" lon="7.38454">
        <ele>227</ele>
        <time>2025-06-22T07:49:29Z</time>
      </trkpt>
      <trkpt lat="48.91963" lon="7.38446">
        <ele>227</ele>
        <time>2025-06-22T07:49:30Z</time>
      </trkpt>
      <trkpt lat="48.91963" lon="7.38437">
        <ele>227</ele>
        <time>2025-06-22T07:49:31Z</time>
      </trkpt>
      <trkpt lat="48.91962" lon="7.38428">
        <ele>227</ele>
        <time>2025-06-22T07:49:32Z</time>
      </trkpt>
      <trkpt lat="48.91961" lon="7.3842">
        <ele>227</ele>
        <time>2025-06-22T07:49:33Z</time>
      </trkpt>
      <trkpt lat="48.9196" lon="7.38412">
        <ele>227</ele>
        <time>2025-06-22T07:49:34Z</time>
      </trkpt>
      <trkpt lat="48.91958" lon="7.38403">
        <ele>227</ele>
        <time>2025-06-22T07:49:35Z</time>
      </trkpt>
      <trkpt lat="48.91957" lon="7.38395">
        <ele>227</ele>
        <time>2025-06-22T07:49:36Z</time>
      </trkpt>
      <trkpt lat="48.91956" lon="7.38386">
        <ele>227</ele>
        <time>2025-06-22T07:49:37Z</time>
      </trkpt>
      <trkpt lat="48.91955" lon="7.38378">
        <ele>227</ele>
        <time>2025-06-22T07:49:38Z</time>
      </trkpt>
      <trkpt lat="48.91954" lon="7.3837">
        <ele>227</ele>
        <time>2025-06-22T07:49:39Z</time>
      </trkpt>
      <trkpt lat="48.91954" lon="7.38362">
        <ele>227</ele>
        <time>2025-06-22T07:49:40Z</time>
      </trkpt>
      <trkpt lat="48.91953" lon="7.38353">
        <ele>227</ele>
        <time>2025-06-22T07:49:41Z</time>
      </trkpt>
      <trkpt lat="48.91953" lon="7.38345">
        <ele>227</ele>
        <time>2025-06-22T07:49:42Z</time>
      </trkpt>
      <trkpt lat="48.91952" lon="7.38337">
        <ele>227</ele>
        <time>2025-06-22T07:49:43Z</time>
      </trkpt>
      <trkpt lat="48.91952" lon="7.38329">
        <ele>227</ele>
        <time>2025-06-22T07:49:44Z</time>
      </trkpt>
      <trkpt lat="48.91951" lon="7.38321">
        <ele>228</ele>
        <time>2025-06-22T07:49:45Z</time>
      </trkpt>
      <trkpt lat="48.91951" lon="7.38313">
        <ele>228</ele>
        <time>2025-06-22T07:49:46Z</time>
      </trkpt>
      <trkpt lat="48.91951" lon="7.38306">
        <ele>228</ele>
        <time>2025-06-22T07:49:47Z</time>
      </trkpt>
      <trkpt lat="48.91951" lon="7.38298">
        <ele>228</ele>
        <time>2025-06-22T07:49:48Z</time>
      </trkpt>
      <trkpt lat="48.91951" lon="7.38291">
        <ele>228</ele>
        <time>2025-06-22T07:49:49Z</time>
      </trkpt>
      <trkpt lat="48.91951" lon="7.38283">
        <ele>228</ele>
        <time>2025-06-22T07:49:50Z</time>
      </trkpt>
      <trkpt lat="48.91951" lon="7.38275">
        <ele>228</ele>
        <time>2025-06-22T07:49:51Z</time>
      </trkpt>
      <trkpt lat="48.91951" lon="7.38267">
        <ele>228</ele>
        <time>2025-06-22T07:49:52Z</time>
      </trkpt>
      <trkpt lat="48.91951" lon="7.3826">
        <ele>229</ele>
        <time>2025-06-22T07:49:53Z</time>
      </trkpt>
      <trkpt lat="48.91951" lon="7.38252">
        <ele>229</ele>
        <time>2025-06-22T07:49:54Z</time>
      </trkpt>
      <trkpt lat="48.91951" lon="7.38245">
        <ele>229</ele>
        <time>2025-06-22T07:49:55Z</time>
      </trkpt>
      <trkpt lat="48.91951" lon="7.38238">
        <ele>229</ele>
        <time>2025-06-22T07:49:56Z</time>
      </trkpt>
      <trkpt lat="48.91951" lon="7.3823">
        <ele>229</ele>
        <time>2025-06-22T07:49:57Z</time>
      </trkpt>
      <trkpt lat="48.91951" lon="7.38223">
        <ele>229</ele>
        <time>2025-06-22T07:49:58Z</time>
      </trkpt>
      <trkpt lat="48.91951" lon="7.38216">
        <ele>229</ele>
        <time>2025-06-22T07:49:59Z</time>
      </trkpt>
      <trkpt lat="48.91951" lon="7.38209">
        <ele>229</ele>
        <time>2025-06-22T07:50:00Z</time>
      </trkpt>
      <trkpt lat="48.91951" lon="7.38202">
        <ele>229</ele>
        <time>2025-06-22T07:50:01Z</time>
      </trkpt>
      <trkpt lat="48.91952" lon="7.38195">
        <ele>229</ele>
        <time>2025-06-22T07:50:02Z</time>
      </trkpt>
      <trkpt lat="48.91952" lon="7.38188">
        <ele>229</ele>
        <time>2025-06-22T07:50:03Z</time>
      </trkpt>
      <trkpt lat="48.91951" lon="7.38181">
        <ele>229</ele>
        <time>2025-06-22T07:50:04Z</time>
      </trkpt>
      <trkpt lat="48.91951" lon="7.38174">
        <ele>229</ele>
        <time>2025-06-22T07:50:05Z</time>
      </trkpt>
      <trkpt lat="48.91951" lon="7.38167">
        <ele>230</ele>
        <time>2025-06-22T07:50:06Z</time>
      </trkpt>
      <trkpt lat="48.91951" lon="7.3816">
        <ele>230</ele>
        <time>2025-06-22T07:50:07Z</time>
      </trkpt>
      <trkpt lat="48.91951" lon="7.38153">
        <ele>230</ele>
        <time>2025-06-22T07:50:08Z</time>
      </trkpt>
      <trkpt lat="48.91951" lon="7.38146">
        <ele>230</ele>
        <time>2025-06-22T07:50:09Z</time>
      </trkpt>
      <trkpt lat="48.91951" lon="7.3814">
        <ele>231</ele>
        <time>2025-06-22T07:50:10Z</time>
      </trkpt>
      <trkpt lat="48.91951" lon="7.38133">
        <ele>231</ele>
        <time>2025-06-22T07:50:11Z</time>
      </trkpt>
      <trkpt lat="48.91952" lon="7.38126">
        <ele>231</ele>
        <time>2025-06-22T07:50:12Z</time>
      </trkpt>
      <trkpt lat="48.91953" lon="7.3812">
        <ele>231</ele>
        <time>2025-06-22T07:50:13Z</time>
      </trkpt>
      <trkpt lat="48.91955" lon="7.38114">
        <ele>231</ele>
        <time>2025-06-22T07:50:14Z</time>
      </trkpt>
      <trkpt lat="48.91956" lon="7.38109">
        <ele>231</ele>
        <time>2025-06-22T07:50:15Z</time>
      </trkpt>
      <trkpt lat="48.91958" lon="7.38104">
        <ele>231</ele>
        <time>2025-06-22T07:50:16Z</time>
      </trkpt>
      <trkpt lat="48.91959" lon="7.38099">
        <ele>232</ele>
        <time>2025-06-22T07:50:17Z</time>
      </trkpt>
      <trkpt lat="48.9196" lon="7.38094">
        <ele>233</ele>
        <time>2025-06-22T07:50:18Z</time>
      </trkpt>
      <trkpt lat="48.91961" lon="7.3809">
        <ele>233</ele>
        <time>2025-06-22T07:50:19Z</time>
      </trkpt>
      <trkpt lat="48.91962" lon="7.38086">
        <ele>234</ele>
        <time>2025-06-22T07:50:20Z</time>
      </trkpt>
      <trkpt lat="48.91963" lon="7.38082">
        <ele>234</ele>
        <time>2025-06-22T07:50:21Z</time>
      </trkpt>
      <trkpt lat="48.91964" lon="7.38079">
        <ele>235</ele>
        <time>2025-06-22T07:50:22Z</time>
      </trkpt>
      <trkpt lat="48.91966" lon="7.38075">
        <ele>234</ele>
        <time>2025-06-22T07:50:23Z</time>
      </trkpt>
      <trkpt lat="48.91968" lon="7.38072">
        <ele>234</ele>
        <time>2025-06-22T07:50:24Z</time>
      </trkpt>
      <trkpt lat="48.91969" lon="7.38069">
        <ele>234</ele>
        <time>2025-06-22T07:50:25Z</time>
      </trkpt>
      <trkpt lat="48.91972" lon="7.38066">
        <ele>235</ele>
        <time>2025-06-22T07:50:26Z</time>
      </trkpt>
      <trkpt lat="48.91974" lon="7.38063">
        <ele>236</ele>
        <time>2025-06-22T07:50:27Z</time>
      </trkpt>
      <trkpt lat="48.91976" lon="7.3806">
        <ele>236</ele>
        <time>2025-06-22T07:50:28Z</time>
      </trkpt>
      <trkpt lat="48.91982" lon="7.38054">
        <ele>236</ele>
        <time>2025-06-22T07:50:30Z</time>
      </trkpt>
      <trkpt lat="48.91984" lon="7.38051">
        <ele>236</ele>
        <time>2025-06-22T07:50:31Z</time>
      </trkpt>
      <trkpt lat="48.91987" lon="7.38047">
        <ele>237</ele>
        <time>2025-06-22T07:50:32Z</time>
      </trkpt>
      <trkpt lat="48.91989" lon="7.38043">
        <ele>237</ele>
        <time>2025-06-22T07:50:33Z</time>
      </trkpt>
      <trkpt lat="48.9199" lon="7.38038">
        <ele>237</ele>
        <time>2025-06-22T07:50:34Z</time>
      </trkpt>
      <trkpt lat="48.91991" lon="7.38033">
        <ele>237</ele>
        <time>2025-06-22T07:50:35Z</time>
      </trkpt>
      <trkpt lat="48.91991" lon="7.38027">
        <ele>238</ele>
        <time>2025-06-22T07:50:36Z</time>
      </trkpt>
      <trkpt lat="48.91992" lon="7.38022">
        <ele>238</ele>
        <time>2025-06-22T07:50:37Z</time>
      </trkpt>
      <trkpt lat="48.91992" lon="7.38016">
        <ele>238</ele>
        <time>2025-06-22T07:50:38Z</time>
      </trkpt>
      <trkpt lat="48.91993" lon="7.3801">
        <ele>238</ele>
        <time>2025-06-22T07:50:39Z</time>
      </trkpt>
      <trkpt lat="48.91993" lon="7.38004">
        <ele>238</ele>
        <time>2025-06-22T07:50:40Z</time>
      </trkpt>
      <trkpt lat="48.91993" lon="7.37998">
        <ele>238</ele>
        <time>2025-06-22T07:50:41Z</time>
      </trkpt>
      <trkpt lat="48.91993" lon="7.37991">
        <ele>238</ele>
        <time>2025-06-22T07:50:42Z</time>
      </trkpt>
      <trkpt lat="48.91993" lon="7.37983">
        <ele>237</ele>
        <time>2025-06-22T07:50:43Z</time>
      </trkpt>
      <trkpt lat="48.91993" lon="7.37976">
        <ele>237</ele>
        <time>2025-06-22T07:50:44Z</time>
      </trkpt>
      <trkpt lat="48.91993" lon="7.37969">
        <ele>237</ele>
        <time>2025-06-22T07:50:45Z</time>
      </trkpt>
      <trkpt lat="48.91993" lon="7.37962">
        <ele>237</ele>
        <time>2025-06-22T07:50:46Z</time>
      </trkpt>
      <trkpt lat="48.91993" lon="7.37955">
        <ele>237</ele>
        <time>2025-06-22T07:50:47Z</time>
      </trkpt>
      <trkpt lat="48.91992" lon="7.37947">
        <ele>237</ele>
        <time>2025-06-22T07:50:48Z</time>
      </trkpt>
      <trkpt lat="48.91992" lon="7.37939">
        <ele>237</ele>
        <time>2025-06-22T07:50:49Z</time>
      </trkpt>
      <trkpt lat="48.91991" lon="7.37931">
        <ele>237</ele>
        <time>2025-06-22T07:50:50Z</time>
      </trkpt>
      <trkpt lat="48.91991" lon="7.37923">
        <ele>236</ele>
        <time>2025-06-22T07:50:51Z</time>
      </trkpt>
      <trkpt lat="48.9199" lon="7.37914">
        <ele>236</ele>
        <time>2025-06-22T07:50:52Z</time>
      </trkpt>
      <trkpt lat="48.9199" lon="7.37906">
        <ele>236</ele>
        <time>2025-06-22T07:50:53Z</time>
      </trkpt>
      <trkpt lat="48.9199" lon="7.37897">
        <ele>236</ele>
        <time>2025-06-22T07:50:54Z</time>
      </trkpt>
      <trkpt lat="48.9199" lon="7.37888">
        <ele>236</ele>
        <time>2025-06-22T07:50:55Z</time>
      </trkpt>
      <trkpt lat="48.9199" lon="7.37879">
        <ele>236</ele>
        <time>2025-06-22T07:50:56Z</time>
      </trkpt>
      <trkpt lat="48.9199" lon="7.3787">
        <ele>235</ele>
        <time>2025-06-22T07:50:57Z</time>
      </trkpt>
      <trkpt lat="48.9199" lon="7.3786">
        <ele>235</ele>
        <time>2025-06-22T07:50:58Z</time>
      </trkpt>
      <trkpt lat="48.9199" lon="7.37851">
        <ele>235</ele>
        <time>2025-06-22T07:50:59Z</time>
      </trkpt>
      <trkpt lat="48.91989" lon="7.37841">
        <ele>234</ele>
        <time>2025-06-22T07:51:00Z</time>
      </trkpt>
      <trkpt lat="48.91989" lon="7.37832">
        <ele>234</ele>
        <time>2025-06-22T07:51:01Z</time>
      </trkpt>
      <trkpt lat="48.91988" lon="7.37813">
        <ele>233</ele>
        <time>2025-06-22T07:51:02Z</time>
      </trkpt>
      <trkpt lat="48.91988" lon="7.37803">
        <ele>233</ele>
        <time>2025-06-22T07:51:04Z</time>
      </trkpt>
      <trkpt lat="48.91988" lon="7.37793">
        <ele>233</ele>
        <time>2025-06-22T07:51:05Z</time>
      </trkpt>
      <trkpt lat="48.91988" lon="7.37784">
        <ele>233</ele>
        <time>2025-06-22T07:51:06Z</time>
      </trkpt>
      <trkpt lat="48.91987" lon="7.37773">
        <ele>232</ele>
        <time>2025-06-22T07:51:07Z</time>
      </trkpt>
      <trkpt lat="48.91987" lon="7.37763">
        <ele>232</ele>
        <time>2025-06-22T07:51:08Z</time>
      </trkpt>
      <trkpt lat="48.91987" lon="7.37753">
        <ele>232</ele>
        <time>2025-06-22T07:51:09Z</time>
      </trkpt>
      <trkpt lat="48.91987" lon="7.37743">
        <ele>232</ele>
        <time>2025-06-22T07:51:10Z</time>
      </trkpt>
      <trkpt lat="48.91987" lon="7.37732">
        <ele>232</ele>
        <time>2025-06-22T07:51:11Z</time>
      </trkpt>
      <trkpt lat="48.91987" lon="7.37722">
        <ele>232</ele>
        <time>2025-06-22T07:51:12Z</time>
      </trkpt>
      <trkpt lat="48.91988" lon="7.37711">
        <ele>231</ele>
        <time>2025-06-22T07:51:13Z</time>
      </trkpt>
      <trkpt lat="48.91989" lon="7.377">
        <ele>231</ele>
        <time>2025-06-22T07:51:14Z</time>
      </trkpt>
      <trkpt lat="48.9199" lon="7.3769">
        <ele>231</ele>
        <time>2025-06-22T07:51:15Z</time>
      </trkpt>
      <trkpt lat="48.91992" lon="7.3768">
        <ele>231</ele>
        <time>2025-06-22T07:51:16Z</time>
      </trkpt>
      <trkpt lat="48.91993" lon="7.37669">
        <ele>231</ele>
        <time>2025-06-22T07:51:17Z</time>
      </trkpt>
      <trkpt lat="48.91995" lon="7.37659">
        <ele>230</ele>
        <time>2025-06-22T07:51:18Z</time>
      </trkpt>
      <trkpt lat="48.91997" lon="7.37649">
        <ele>230</ele>
        <time>2025-06-22T07:51:19Z</time>
      </trkpt>
      <trkpt lat="48.91998" lon="7.37638">
        <ele>229</ele>
        <time>2025-06-22T07:51:20Z</time>
      </trkpt>
      <trkpt lat="48.92" lon="7.37628">
        <ele>229</ele>
        <time>2025-06-22T07:51:21Z</time>
      </trkpt>
      <trkpt lat="48.92001" lon="7.37617">
        <ele>229</ele>
        <time>2025-06-22T07:51:22Z</time>
      </trkpt>
      <trkpt lat="48.92003" lon="7.37606">
        <ele>229</ele>
        <time>2025-06-22T07:51:23Z</time>
      </trkpt>
      <trkpt lat="48.92005" lon="7.37595">
        <ele>228</ele>
        <time>2025-06-22T07:51:24Z</time>
      </trkpt>
      <trkpt lat="48.92006" lon="7.37584">
        <ele>228</ele>
        <time>2025-06-22T07:51:25Z</time>
      </trkpt>
      <trkpt lat="48.92008" lon="7.37573">
        <ele>228</ele>
        <time>2025-06-22T07:51:26Z</time>
      </trkpt>
      <trkpt lat="48.92008" lon="7.37562">
        <ele>228</ele>
        <time>2025-06-22T07:51:27Z</time>
      </trkpt>
      <trkpt lat="48.92007" lon="7.37552">
        <ele>227</ele>
        <time>2025-06-22T07:51:28Z</time>
      </trkpt>
      <trkpt lat="48.92005" lon="7.37541">
        <ele>227</ele>
        <time>2025-06-22T07:51:29Z</time>
      </trkpt>
      <trkpt lat="48.92002" lon="7.37531">
        <ele>227</ele>
        <time>2025-06-22T07:51:30Z</time>
      </trkpt>
      <trkpt lat="48.91999" lon="7.37521">
        <ele>227</ele>
        <time>2025-06-22T07:51:31Z</time>
      </trkpt>
      <trkpt lat="48.91996" lon="7.37511">
        <ele>226</ele>
        <time>2025-06-22T07:51:32Z</time>
      </trkpt>
      <trkpt lat="48.91994" lon="7.37502">
        <ele>226</ele>
        <time>2025-06-22T07:51:33Z</time>
      </trkpt>
      <trkpt lat="48.91992" lon="7.37492">
        <ele>226</ele>
        <time>2025-06-22T07:51:34Z</time>
      </trkpt>
      <trkpt lat="48.91992" lon="7.37482">
        <ele>226</ele>
        <time>2025-06-22T07:51:35Z</time>
      </trkpt>
      <trkpt lat="48.91992" lon="7.37472">
        <ele>226</ele>
        <time>2025-06-22T07:51:36Z</time>
      </trkpt>
      <trkpt lat="48.91994" lon="7.37463">
        <ele>225</ele>
        <time>2025-06-22T07:51:37Z</time>
      </trkpt>
      <trkpt lat="48.91996" lon="7.37454">
        <ele>225</ele>
        <time>2025-06-22T07:51:38Z</time>
      </trkpt>
      <trkpt lat="48.91998" lon="7.37446">
        <ele>225</ele>
        <time>2025-06-22T07:51:39Z</time>
      </trkpt>
      <trkpt lat="48.92" lon="7.37438">
        <ele>225</ele>
        <time>2025-06-22T07:51:40Z</time>
      </trkpt>
      <trkpt lat="48.92002" lon="7.3743">
        <ele>225</ele>
        <time>2025-06-22T07:51:41Z</time>
      </trkpt>
      <trkpt lat="48.92004" lon="7.37422">
        <ele>225</ele>
        <time>2025-06-22T07:51:42Z</time>
      </trkpt>
      <trkpt lat="48.92006" lon="7.37415">
        <ele>225</ele>
        <time>2025-06-22T07:51:43Z</time>
      </trkpt>
      <trkpt lat="48.92008" lon="7.37407">
        <ele>225</ele>
        <time>2025-06-22T07:51:44Z</time>
      </trkpt>
      <trkpt lat="48.9201" lon="7.374">
        <ele>225</ele>
        <time>2025-06-22T07:51:45Z</time>
      </trkpt>
      <trkpt lat="48.92013" lon="7.37395">
        <ele>225</ele>
        <time>2025-06-22T07:51:46Z</time>
      </trkpt>
      <trkpt lat="48.92017" lon="7.3739">
        <ele>225</ele>
        <time>2025-06-22T07:51:47Z</time>
      </trkpt>
      <trkpt lat="48.92022" lon="7.37387">
        <ele>225</ele>
        <time>2025-06-22T07:51:48Z</time>
      </trkpt>
      <trkpt lat="48.92026" lon="7.37386">
        <ele>225</ele>
        <time>2025-06-22T07:51:49Z</time>
      </trkpt>
      <trkpt lat="48.92031" lon="7.37385">
        <ele>225</ele>
        <time>2025-06-22T07:51:50Z</time>
      </trkpt>
      <trkpt lat="48.92035" lon="7.37385">
        <ele>225</ele>
        <time>2025-06-22T07:51:51Z</time>
      </trkpt>
      <trkpt lat="48.92039" lon="7.37384">
        <ele>225</ele>
        <time>2025-06-22T07:51:52Z</time>
      </trkpt>
      <trkpt lat="48.92058" lon="7.37388">
        <ele>225</ele>
        <time>2025-06-22T07:51:56Z</time>
      </trkpt>
      <trkpt lat="48.92067" lon="7.37388">
        <ele>225</ele>
        <time>2025-06-22T07:51:58Z</time>
      </trkpt>
      <trkpt lat="48.92077" lon="7.37381">
        <ele>225</ele>
        <time>2025-06-22T07:52:00Z</time>
      </trkpt>
      <trkpt lat="48.92084" lon="7.37371">
        <ele>225</ele>
        <time>2025-06-22T07:52:02Z</time>
      </trkpt>
      <trkpt lat="48.92087" lon="7.37365">
        <ele>226</ele>
        <time>2025-06-22T07:52:03Z</time>
      </trkpt>
      <trkpt lat="48.92089" lon="7.37359">
        <ele>226</ele>
        <time>2025-06-22T07:52:04Z</time>
      </trkpt>
      <trkpt lat="48.92092" lon="7.37352">
        <ele>226</ele>
        <time>2025-06-22T07:52:05Z</time>
      </trkpt>
      <trkpt lat="48.92094" lon="7.37345">
        <ele>226</ele>
        <time>2025-06-22T07:52:06Z</time>
      </trkpt>
      <trkpt lat="48.92096" lon="7.37339">
        <ele>226</ele>
        <time>2025-06-22T07:52:07Z</time>
      </trkpt>
      <trkpt lat="48.92099" lon="7.37332">
        <ele>225</ele>
        <time>2025-06-22T07:52:08Z</time>
      </trkpt>
      <trkpt lat="48.92102" lon="7.37326">
        <ele>225</ele>
        <time>2025-06-22T07:52:09Z</time>
      </trkpt>
      <trkpt lat="48.92105" lon="7.3732">
        <ele>225</ele>
        <time>2025-06-22T07:52:10Z</time>
      </trkpt>
      <trkpt lat="48.92108" lon="7.37313">
        <ele>225</ele>
        <time>2025-06-22T07:52:11Z</time>
      </trkpt>
      <trkpt lat="48.92112" lon="7.37307">
        <ele>225</ele>
        <time>2025-06-22T07:52:12Z</time>
      </trkpt>
      <trkpt lat="48.92116" lon="7.37301">
        <ele>225</ele>
        <time>2025-06-22T07:52:13Z</time>
      </trkpt>
      <trkpt lat="48.9212" lon="7.37297">
        <ele>225</ele>
        <time>2025-06-22T07:52:14Z</time>
      </trkpt>
      <trkpt lat="48.92125" lon="7.37292">
        <ele>225</ele>
        <time>2025-06-22T07:52:15Z</time>
      </trkpt>
      <trkpt lat="48.92129" lon="7.37288">
        <ele>225</ele>
        <time>2025-06-22T07:52:16Z</time>
      </trkpt>
      <trkpt lat="48.92134" lon="7.37284">
        <ele>225</ele>
        <time>2025-06-22T07:52:17Z</time>
      </trkpt>
      <trkpt lat="48.92139" lon="7.3728">
        <ele>225</ele>
        <time>2025-06-22T07:52:18Z</time>
      </trkpt>
      <trkpt lat="48.92143" lon="7.37276">
        <ele>225</ele>
        <time>2025-06-22T07:52:19Z</time>
      </trkpt>
      <trkpt lat="48.92148" lon="7.37272">
        <ele>225</ele>
        <time>2025-06-22T07:52:20Z</time>
      </trkpt>
      <trkpt lat="48.92152" lon="7.37268">
        <ele>225</ele>
        <time>2025-06-22T07:52:21Z</time>
      </trkpt>
      <trkpt lat="48.92157" lon="7.37264">
        <ele>225</ele>
        <time>2025-06-22T07:52:22Z</time>
      </trkpt>
      <trkpt lat="48.92161" lon="7.37259">
        <ele>225</ele>
        <time>2025-06-22T07:52:23Z</time>
      </trkpt>
      <trkpt lat="48.92165" lon="7.37255">
        <ele>225</ele>
        <time>2025-06-22T07:52:24Z</time>
      </trkpt>
      <trkpt lat="48.92169" lon="7.3725">
        <ele>225</ele>
        <time>2025-06-22T07:52:25Z</time>
      </trkpt>
      <trkpt lat="48.92173" lon="7.37244">
        <ele>225</ele>
        <time>2025-06-22T07:52:26Z</time>
      </trkpt>
      <trkpt lat="48.92177" lon="7.37239">
        <ele>225</ele>
        <time>2025-06-22T07:52:27Z</time>
      </trkpt>
      <trkpt lat="48.92181" lon="7.37234">
        <ele>225</ele>
        <time>2025-06-22T07:52:28Z</time>
      </trkpt>
      <trkpt lat="48.92184" lon="7.37228">
        <ele>224</ele>
        <time>2025-06-22T07:52:29Z</time>
      </trkpt>
      <trkpt lat="48.92188" lon="7.37222">
        <ele>224</ele>
        <time>2025-06-22T07:52:30Z</time>
      </trkpt>
      <trkpt lat="48.92191" lon="7.37216">
        <ele>224</ele>
        <time>2025-06-22T07:52:31Z</time>
      </trkpt>
      <trkpt lat="48.92194" lon="7.3721">
        <ele>224</ele>
        <time>2025-06-22T07:52:32Z</time>
      </trkpt>
      <trkpt lat="48.92198" lon="7.37204">
        <ele>225</ele>
        <time>2025-06-22T07:52:33Z</time>
      </trkpt>
      <trkpt lat="48.92201" lon="7.37197">
        <ele>225</ele>
        <time>2025-06-22T07:52:34Z</time>
      </trkpt>
      <trkpt lat="48.92204" lon="7.37191">
        <ele>225</ele>
        <time>2025-06-22T07:52:35Z</time>
      </trkpt>
      <trkpt lat="48.92207" lon="7.37185">
        <ele>225</ele>
        <time>2025-06-22T07:52:36Z</time>
      </trkpt>
      <trkpt lat="48.9221" lon="7.37179">
        <ele>225</ele>
        <time>2025-06-22T07:52:37Z</time>
      </trkpt>
      <trkpt lat="48.92213" lon="7.37173">
        <ele>225</ele>
        <time>2025-06-22T07:52:38Z</time>
      </trkpt>
      <trkpt lat="48.92216" lon="7.37167">
        <ele>225</ele>
        <time>2025-06-22T07:52:39Z</time>
      </trkpt>
      <trkpt lat="48.92218" lon="7.3716">
        <ele>225</ele>
        <time>2025-06-22T07:52:40Z</time>
      </trkpt>
      <trkpt lat="48.92221" lon="7.37154">
        <ele>224</ele>
        <time>2025-06-22T07:52:41Z</time>
      </trkpt>
      <trkpt lat="48.92224" lon="7.37148">
        <ele>224</ele>
        <time>2025-06-22T07:52:42Z</time>
      </trkpt>
      <trkpt lat="48.92227" lon="7.37141">
        <ele>224</ele>
        <time>2025-06-22T07:52:43Z</time>
      </trkpt>
      <trkpt lat="48.92229" lon="7.37135">
        <ele>224</ele>
        <time>2025-06-22T07:52:44Z</time>
      </trkpt>
      <trkpt lat="48.92232" lon="7.37129">
        <ele>224</ele>
        <time>2025-06-22T07:52:45Z</time>
      </trkpt>
      <trkpt lat="48.92235" lon="7.37123">
        <ele>224</ele>
        <time>2025-06-22T07:52:46Z</time>
      </trkpt>
      <trkpt lat="48.92238" lon="7.37117">
        <ele>224</ele>
        <time>2025-06-22T07:52:47Z</time>
      </trkpt>
      <trkpt lat="48.92242" lon="7.37111">
        <ele>224</ele>
        <time>2025-06-22T07:52:48Z</time>
      </trkpt>
      <trkpt lat="48.92246" lon="7.37106">
        <ele>224</ele>
        <time>2025-06-22T07:52:49Z</time>
      </trkpt>
      <trkpt lat="48.9225" lon="7.37103">
        <ele>224</ele>
        <time>2025-06-22T07:52:50Z</time>
      </trkpt>
      <trkpt lat="48.92255" lon="7.37102">
        <ele>224</ele>
        <time>2025-06-22T07:52:51Z</time>
      </trkpt>
      <trkpt lat="48.92259" lon="7.37101">
        <ele>224</ele>
        <time>2025-06-22T07:52:52Z</time>
      </trkpt>
      <trkpt lat="48.92264" lon="7.37102">
        <ele>224</ele>
        <time>2025-06-22T07:52:53Z</time>
      </trkpt>
      <trkpt lat="48.92268" lon="7.37102">
        <ele>224</ele>
        <time>2025-06-22T07:52:54Z</time>
      </trkpt>
      <trkpt lat="48.92272" lon="7.37103">
        <ele>224</ele>
        <time>2025-06-22T07:52:55Z</time>
      </trkpt>
      <trkpt lat="48.92276" lon="7.37103">
        <ele>224</ele>
        <time>2025-06-22T07:52:56Z</time>
      </trkpt>
      <trkpt lat="48.92281" lon="7.37104">
        <ele>225</ele>
        <time>2025-06-22T07:52:57Z</time>
      </trkpt>
      <trkpt lat="48.92285" lon="7.37104">
        <ele>225</ele>
        <time>2025-06-22T07:52:58Z</time>
      </trkpt>
      <trkpt lat="48.92289" lon="7.37105">
        <ele>225</ele>
        <time>2025-06-22T07:52:59Z</time>
      </trkpt>
      <trkpt lat="48.92292" lon="7.37105">
        <ele>225</ele>
        <time>2025-06-22T07:53:00Z</time>
      </trkpt>
      <trkpt lat="48.92296" lon="7.37105">
        <ele>225</ele>
        <time>2025-06-22T07:53:01Z</time>
      </trkpt>
      <trkpt lat="48.923" lon="7.37105">
        <ele>225</ele>
        <time>2025-06-22T07:53:02Z</time>
      </trkpt>
      <trkpt lat="48.92304" lon="7.37104">
        <ele>226</ele>
        <time>2025-06-22T07:53:03Z</time>
      </trkpt>
      <trkpt lat="48.92308" lon="7.37104">
        <ele>226</ele>
        <time>2025-06-22T07:53:04Z</time>
      </trkpt>
      <trkpt lat="48.92312" lon="7.37103">
        <ele>226</ele>
        <time>2025-06-22T07:53:05Z</time>
      </trkpt>
      <trkpt lat="48.92317" lon="7.37102">
        <ele>226</ele>
        <time>2025-06-22T07:53:06Z</time>
      </trkpt>
      <trkpt lat="48.92321" lon="7.37101">
        <ele>226</ele>
        <time>2025-06-22T07:53:07Z</time>
      </trkpt>
      <trkpt lat="48.92326" lon="7.371">
        <ele>226</ele>
        <time>2025-06-22T07:53:08Z</time>
      </trkpt>
      <trkpt lat="48.9233" lon="7.37098">
        <ele>226</ele>
        <time>2025-06-22T07:53:09Z</time>
      </trkpt>
      <trkpt lat="48.92334" lon="7.37096">
        <ele>226</ele>
        <time>2025-06-22T07:53:10Z</time>
      </trkpt>
      <trkpt lat="48.92338" lon="7.37092">
        <ele>226</ele>
        <time>2025-06-22T07:53:11Z</time>
      </trkpt>
      <trkpt lat="48.92342" lon="7.37089">
        <ele>226</ele>
        <time>2025-06-22T07:53:12Z</time>
      </trkpt>
      <trkpt lat="48.92346" lon="7.37085">
        <ele>226</ele>
        <time>2025-06-22T07:53:13Z</time>
      </trkpt>
      <trkpt lat="48.9235" lon="7.37081">
        <ele>227</ele>
        <time>2025-06-22T07:53:14Z</time>
      </trkpt>
      <trkpt lat="48.92354" lon="7.37077">
        <ele>227</ele>
        <time>2025-06-22T07:53:15Z</time>
      </trkpt>
      <trkpt lat="48.92358" lon="7.37073">
        <ele>227</ele>
        <time>2025-06-22T07:53:16Z</time>
      </trkpt>
      <trkpt lat="48.92362" lon="7.37068">
        <ele>227</ele>
        <time>2025-06-22T07:53:17Z</time>
      </trkpt>
      <trkpt lat="48.92366" lon="7.37064">
        <ele>227</ele>
        <time>2025-06-22T07:53:18Z</time>
      </trkpt>
      <trkpt lat="48.9237" lon="7.37059">
        <ele>227</ele>
        <time>2025-06-22T07:53:19Z</time>
      </trkpt>
      <trkpt lat="48.92374" lon="7.37054">
        <ele>226</ele>
        <time>2025-06-22T07:53:20Z</time>
      </trkpt>
      <trkpt lat="48.92377" lon="7.37048">
        <ele>226</ele>
        <time>2025-06-22T07:53:21Z</time>
      </trkpt>
      <trkpt lat="48.9238" lon="7.37042">
        <ele>226</ele>
        <time>2025-06-22T07:53:22Z</time>
      </trkpt>
      <trkpt lat="48.92382" lon="7.37035">
        <ele>226</ele>
        <time>2025-06-22T07:53:23Z</time>
      </trkpt>
      <trkpt lat="48.92385" lon="7.37029">
        <ele>226</ele>
        <time>2025-06-22T07:53:24Z</time>
      </trkpt>
      <trkpt lat="48.92387" lon="7.37022">
        <ele>226</ele>
        <time>2025-06-22T07:53:25Z</time>
      </trkpt>
      <trkpt lat="48.92389" lon="7.37015">
        <ele>226</ele>
        <time>2025-06-22T07:53:26Z</time>
      </trkpt>
      <trkpt lat="48.92391" lon="7.37008">
        <ele>226</ele>
        <time>2025-06-22T07:53:27Z</time>
      </trkpt>
      <trkpt lat="48.92392" lon="7.37001">
        <ele>226</ele>
        <time>2025-06-22T07:53:28Z</time>
      </trkpt>
      <trkpt lat="48.92393" lon="7.36994">
        <ele>226</ele>
        <time>2025-06-22T07:53:29Z</time>
      </trkpt>
      <trkpt lat="48.92394" lon="7.36987">
        <ele>226</ele>
        <time>2025-06-22T07:53:30Z</time>
      </trkpt>
      <trkpt lat="48.92395" lon="7.3698">
        <ele>227</ele>
        <time>2025-06-22T07:53:31Z</time>
      </trkpt>
      <trkpt lat="48.92396" lon="7.36973">
        <ele>227</ele>
        <time>2025-06-22T07:53:32Z</time>
      </trkpt>
      <trkpt lat="48.92397" lon="7.36965">
        <ele>227</ele>
        <time>2025-06-22T07:53:33Z</time>
      </trkpt>
      <trkpt lat="48.92399" lon="7.36958">
        <ele>227</ele>
        <time>2025-06-22T07:53:34Z</time>
      </trkpt>
      <trkpt lat="48.924" lon="7.36952">
        <ele>227</ele>
        <time>2025-06-22T07:53:35Z</time>
      </trkpt>
      <trkpt lat="48.92401" lon="7.36944">
        <ele>227</ele>
        <time>2025-06-22T07:53:36Z</time>
      </trkpt>
      <trkpt lat="48.92402" lon="7.36937">
        <ele>226</ele>
        <time>2025-06-22T07:53:37Z</time>
      </trkpt>
      <trkpt lat="48.92403" lon="7.3693">
        <ele>226</ele>
        <time>2025-06-22T07:53:38Z</time>
      </trkpt>
      <trkpt lat="48.92404" lon="7.36923">
        <ele>226</ele>
        <time>2025-06-22T07:53:39Z</time>
      </trkpt>
      <trkpt lat="48.92405" lon="7.36916">
        <ele>226</ele>
        <time>2025-06-22T07:53:40Z</time>
      </trkpt>
      <trkpt lat="48.92407" lon="7.36909">
        <ele>226</ele>
        <time>2025-06-22T07:53:41Z</time>
      </trkpt>
      <trkpt lat="48.92408" lon="7.36903">
        <ele>227</ele>
        <time>2025-06-22T07:53:42Z</time>
      </trkpt>
      <trkpt lat="48.92409" lon="7.36896">
        <ele>227</ele>
        <time>2025-06-22T07:53:43Z</time>
      </trkpt>
      <trkpt lat="48.9241" lon="7.3689">
        <ele>227</ele>
        <time>2025-06-22T07:53:44Z</time>
      </trkpt>
      <trkpt lat="48.92411" lon="7.36883">
        <ele>227</ele>
        <time>2025-06-22T07:53:45Z</time>
      </trkpt>
      <trkpt lat="48.92412" lon="7.36877">
        <ele>227</ele>
        <time>2025-06-22T07:53:46Z</time>
      </trkpt>
      <trkpt lat="48.92413" lon="7.3687">
        <ele>227</ele>
        <time>2025-06-22T07:53:47Z</time>
      </trkpt>
      <trkpt lat="48.92414" lon="7.36864">
        <ele>227</ele>
        <time>2025-06-22T07:53:48Z</time>
      </trkpt>
      <trkpt lat="48.92414" lon="7.36856">
        <ele>227</ele>
        <time>2025-06-22T07:53:49Z</time>
      </trkpt>
      <trkpt lat="48.92415" lon="7.36849">
        <ele>227</ele>
        <time>2025-06-22T07:53:50Z</time>
      </trkpt>
      <trkpt lat="48.92416" lon="7.36842">
        <ele>227</ele>
        <time>2025-06-22T07:53:51Z</time>
      </trkpt>
      <trkpt lat="48.92416" lon="7.36834">
        <ele>227</ele>
        <time>2025-06-22T07:53:52Z</time>
      </trkpt>
      <trkpt lat="48.92417" lon="7.36827">
        <ele>227</ele>
        <time>2025-06-22T07:53:53Z</time>
      </trkpt>
      <trkpt lat="48.92418" lon="7.36819">
        <ele>227</ele>
        <time>2025-06-22T07:53:54Z</time>
      </trkpt>
      <trkpt lat="48.92419" lon="7.36812">
        <ele>227</ele>
        <time>2025-06-22T07:53:55Z</time>
      </trkpt>
      <trkpt lat="48.9242" lon="7.36805">
        <ele>228</ele>
        <time>2025-06-22T07:53:56Z</time>
      </trkpt>
      <trkpt lat="48.92421" lon="7.36797">
        <ele>228</ele>
        <time>2025-06-22T07:53:57Z</time>
      </trkpt>
      <trkpt lat="48.92422" lon="7.3679">
        <ele>228</ele>
        <time>2025-06-22T07:53:58Z</time>
      </trkpt>
      <trkpt lat="48.92424" lon="7.36783">
        <ele>228</ele>
        <time>2025-06-22T07:53:59Z</time>
      </trkpt>
      <trkpt lat="48.92426" lon="7.36776">
        <ele>227</ele>
        <time>2025-06-22T07:54:00Z</time>
      </trkpt>
      <trkpt lat="48.92428" lon="7.36768">
        <ele>227</ele>
        <time>2025-06-22T07:54:01Z</time>
      </trkpt>
      <trkpt lat="48.9243" lon="7.36761">
        <ele>227</ele>
        <time>2025-06-22T07:54:02Z</time>
      </trkpt>
      <trkpt lat="48.92432" lon="7.36754">
        <ele>227</ele>
        <time>2025-06-22T07:54:03Z</time>
      </trkpt>
      <trkpt lat="48.92435" lon="7.36747">
        <ele>227</ele>
        <time>2025-06-22T07:54:04Z</time>
      </trkpt>
      <trkpt lat="48.92438" lon="7.36741">
        <ele>227</ele>
        <time>2025-06-22T07:54:05Z</time>
      </trkpt>
      <trkpt lat="48.92441" lon="7.36734">
        <ele>227</ele>
        <time>2025-06-22T07:54:06Z</time>
      </trkpt>
      <trkpt lat="48.92444" lon="7.36728">
        <ele>227</ele>
        <time>2025-06-22T07:54:07Z</time>
      </trkpt>
      <trkpt lat="48.92447" lon="7.36721">
        <ele>227</ele>
        <time>2025-06-22T07:54:08Z</time>
      </trkpt>
      <trkpt lat="48.9245" lon="7.36714">
        <ele>227</ele>
        <time>2025-06-22T07:54:09Z</time>
      </trkpt>
      <trkpt lat="48.92453" lon="7.36707">
        <ele>227</ele>
        <time>2025-06-22T07:54:10Z</time>
      </trkpt>
      <trkpt lat="48.92456" lon="7.367">
        <ele>227</ele>
        <time>2025-06-22T07:54:11Z</time>
      </trkpt>
      <trkpt lat="48.92459" lon="7.36693">
        <ele>227</ele>
        <time>2025-06-22T07:54:12Z</time>
      </trkpt>
      <trkpt lat="48.92462" lon="7.36685">
        <ele>227</ele>
        <time>2025-06-22T07:54:13Z</time>
      </trkpt>
      <trkpt lat="48.92465" lon="7.36677">
        <ele>227</ele>
        <time>2025-06-22T07:54:14Z</time>
      </trkpt>
      <trkpt lat="48.92469" lon="7.3667">
        <ele>227</ele>
        <time>2025-06-22T07:54:15Z</time>
      </trkpt>
      <trkpt lat="48.92472" lon="7.36663">
        <ele>227</ele>
        <time>2025-06-22T07:54:16Z</time>
      </trkpt>
      <trkpt lat="48.92475" lon="7.36655">
        <ele>226</ele>
        <time>2025-06-22T07:54:17Z</time>
      </trkpt>
      <trkpt lat="48.92479" lon="7.36648">
        <ele>226</ele>
        <time>2025-06-22T07:54:18Z</time>
      </trkpt>
      <trkpt lat="48.92483" lon="7.3664">
        <ele>226</ele>
        <time>2025-06-22T07:54:19Z</time>
      </trkpt>
      <trkpt lat="48.92486" lon="7.36633">
        <ele>226</ele>
        <time>2025-06-22T07:54:20Z</time>
      </trkpt>
      <trkpt lat="48.9249" lon="7.36626">
        <ele>226</ele>
        <time>2025-06-22T07:54:21Z</time>
      </trkpt>
      <trkpt lat="48.92493" lon="7.36618">
        <ele>226</ele>
        <time>2025-06-22T07:54:22Z</time>
      </trkpt>
      <trkpt lat="48.92496" lon="7.36611">
        <ele>225</ele>
        <time>2025-06-22T07:54:23Z</time>
      </trkpt>
      <trkpt lat="48.92499" lon="7.36603">
        <ele>225</ele>
        <time>2025-06-22T07:54:24Z</time>
      </trkpt>
      <trkpt lat="48.92502" lon="7.36596">
        <ele>225</ele>
        <time>2025-06-22T07:54:25Z</time>
      </trkpt>
      <trkpt lat="48.92505" lon="7.36589">
        <ele>225</ele>
        <time>2025-06-22T07:54:26Z</time>
      </trkpt>
      <trkpt lat="48.92508" lon="7.36582">
        <ele>225</ele>
        <time>2025-06-22T07:54:27Z</time>
      </trkpt>
      <trkpt lat="48.92511" lon="7.36576">
        <ele>225</ele>
        <time>2025-06-22T07:54:28Z</time>
      </trkpt>
      <trkpt lat="48.92513" lon="7.36569">
        <ele>225</ele>
        <time>2025-06-22T07:54:29Z</time>
      </trkpt>
      <trkpt lat="48.92516" lon="7.36563">
        <ele>225</ele>
        <time>2025-06-22T07:54:30Z</time>
      </trkpt>
      <trkpt lat="48.92518" lon="7.36557">
        <ele>225</ele>
        <time>2025-06-22T07:54:31Z</time>
      </trkpt>
      <trkpt lat="48.92521" lon="7.36552">
        <ele>225</ele>
        <time>2025-06-22T07:54:32Z</time>
      </trkpt>
      <trkpt lat="48.92523" lon="7.36546">
        <ele>226</ele>
        <time>2025-06-22T07:54:33Z</time>
      </trkpt>
      <trkpt lat="48.92525" lon="7.36541">
        <ele>226</ele>
        <time>2025-06-22T07:54:34Z</time>
      </trkpt>
      <trkpt lat="48.92528" lon="7.36536">
        <ele>227</ele>
        <time>2025-06-22T07:54:35Z</time>
      </trkpt>
      <trkpt lat="48.9253" lon="7.3653">
        <ele>227</ele>
        <time>2025-06-22T07:54:36Z</time>
      </trkpt>
      <trkpt lat="48.92532" lon="7.36525">
        <ele>227</ele>
        <time>2025-06-22T07:54:37Z</time>
      </trkpt>
      <trkpt lat="48.92534" lon="7.3652">
        <ele>228</ele>
        <time>2025-06-22T07:54:38Z</time>
      </trkpt>
      <trkpt lat="48.92537" lon="7.36515">
        <ele>228</ele>
        <time>2025-06-22T07:54:39Z</time>
      </trkpt>
      <trkpt lat="48.92539" lon="7.3651">
        <ele>228</ele>
        <time>2025-06-22T07:54:40Z</time>
      </trkpt>
      <trkpt lat="48.92541" lon="7.36505">
        <ele>228</ele>
        <time>2025-06-22T07:54:41Z</time>
      </trkpt>
      <trkpt lat="48.92544" lon="7.36501">
        <ele>229</ele>
        <time>2025-06-22T07:54:42Z</time>
      </trkpt>
      <trkpt lat="48.92546" lon="7.36496">
        <ele>230</ele>
        <time>2025-06-22T07:54:43Z</time>
      </trkpt>
      <trkpt lat="48.92549" lon="7.36492">
        <ele>230</ele>
        <time>2025-06-22T07:54:44Z</time>
      </trkpt>
      <trkpt lat="48.92552" lon="7.36488">
        <ele>229</ele>
        <time>2025-06-22T07:54:45Z</time>
      </trkpt>
      <trkpt lat="48.92554" lon="7.36484">
        <ele>229</ele>
        <time>2025-06-22T07:54:46Z</time>
      </trkpt>
      <trkpt lat="48.92557" lon="7.3648">
        <ele>229</ele>
        <time>2025-06-22T07:54:47Z</time>
      </trkpt>
      <trkpt lat="48.92559" lon="7.36476">
        <ele>230</ele>
        <time>2025-06-22T07:54:48Z</time>
      </trkpt>
      <trkpt lat="48.92562" lon="7.36471">
        <ele>230</ele>
        <time>2025-06-22T07:54:49Z</time>
      </trkpt>
      <trkpt lat="48.92564" lon="7.36466">
        <ele>230</ele>
        <time>2025-06-22T07:54:50Z</time>
      </trkpt>
      <trkpt lat="48.92565" lon="7.36461">
        <ele>231</ele>
        <time>2025-06-22T07:54:51Z</time>
      </trkpt>
      <trkpt lat="48.92567" lon="7.36456">
        <ele>231</ele>
        <time>2025-06-22T07:54:52Z</time>
      </trkpt>
      <trkpt lat="48.92568" lon="7.36451">
        <ele>231</ele>
        <time>2025-06-22T07:54:53Z</time>
      </trkpt>
      <trkpt lat="48.92569" lon="7.36446">
        <ele>231</ele>
        <time>2025-06-22T07:54:54Z</time>
      </trkpt>
      <trkpt lat="48.9257" lon="7.36441">
        <ele>232</ele>
        <time>2025-06-22T07:54:55Z</time>
      </trkpt>
      <trkpt lat="48.92572" lon="7.36437">
        <ele>232</ele>
        <time>2025-06-22T07:54:56Z</time>
      </trkpt>
      <trkpt lat="48.92573" lon="7.36432">
        <ele>232</ele>
        <time>2025-06-22T07:54:57Z</time>
      </trkpt>
      <trkpt lat="48.92575" lon="7.36428">
        <ele>232</ele>
        <time>2025-06-22T07:54:58Z</time>
      </trkpt>
      <trkpt lat="48.92577" lon="7.36424">
        <ele>233</ele>
        <time>2025-06-22T07:54:59Z</time>
      </trkpt>
      <trkpt lat="48.92578" lon="7.3642">
        <ele>233</ele>
        <time>2025-06-22T07:55:00Z</time>
      </trkpt>
      <trkpt lat="48.9258" lon="7.36415">
        <ele>233</ele>
        <time>2025-06-22T07:55:01Z</time>
      </trkpt>
      <trkpt lat="48.92582" lon="7.36411">
        <ele>233</ele>
        <time>2025-06-22T07:55:02Z</time>
      </trkpt>
      <trkpt lat="48.92584" lon="7.36406">
        <ele>234</ele>
        <time>2025-06-22T07:55:03Z</time>
      </trkpt>
      <trkpt lat="48.92586" lon="7.36402">
        <ele>234</ele>
        <time>2025-06-22T07:55:04Z</time>
      </trkpt>
      <trkpt lat="48.92588" lon="7.36398">
        <ele>234</ele>
        <time>2025-06-22T07:55:05Z</time>
      </trkpt>
      <trkpt lat="48.9259" lon="7.36393">
        <ele>234</ele>
        <time>2025-06-22T07:55:06Z</time>
      </trkpt>
      <trkpt lat="48.92592" lon="7.36389">
        <ele>234</ele>
        <time>2025-06-22T07:55:07Z</time>
      </trkpt>
      <trkpt lat="48.92594" lon="7.36385">
        <ele>234</ele>
        <time>2025-06-22T07:55:08Z</time>
      </trkpt>
      <trkpt lat="48.92596" lon="7.36381">
        <ele>235</ele>
        <time>2025-06-22T07:55:09Z</time>
      </trkpt>
      <trkpt lat="48.92597" lon="7.36376">
        <ele>235</ele>
        <time>2025-06-22T07:55:10Z</time>
      </trkpt>
      <trkpt lat="48.92599" lon="7.36372">
        <ele>235</ele>
        <time>2025-06-22T07:55:11Z</time>
      </trkpt>
      <trkpt lat="48.92601" lon="7.36368">
        <ele>235</ele>
        <time>2025-06-22T07:55:12Z</time>
      </trkpt>
      <trkpt lat="48.92604" lon="7.36363">
        <ele>235</ele>
        <time>2025-06-22T07:55:13Z</time>
      </trkpt>
      <trkpt lat="48.92606" lon="7.36359">
        <ele>235</ele>
        <time>2025-06-22T07:55:14Z</time>
      </trkpt>
      <trkpt lat="48.92608" lon="7.36355">
        <ele>236</ele>
        <time>2025-06-22T07:55:15Z</time>
      </trkpt>
      <trkpt lat="48.92611" lon="7.36351">
        <ele>236</ele>
        <time>2025-06-22T07:55:16Z</time>
      </trkpt>
      <trkpt lat="48.92614" lon="7.36347">
        <ele>236</ele>
        <time>2025-06-22T07:55:17Z</time>
      </trkpt>
      <trkpt lat="48.92616" lon="7.36343">
        <ele>236</ele>
        <time>2025-06-22T07:55:18Z</time>
      </trkpt>
      <trkpt lat="48.92619" lon="7.36339">
        <ele>236</ele>
        <time>2025-06-22T07:55:19Z</time>
      </trkpt>
      <trkpt lat="48.92622" lon="7.36335">
        <ele>236</ele>
        <time>2025-06-22T07:55:20Z</time>
      </trkpt>
      <trkpt lat="48.92625" lon="7.36331">
        <ele>236</ele>
        <time>2025-06-22T07:55:21Z</time>
      </trkpt>
      <trkpt lat="48.92628" lon="7.36328">
        <ele>236</ele>
        <time>2025-06-22T07:55:22Z</time>
      </trkpt>
      <trkpt lat="48.92631" lon="7.36324">
        <ele>236</ele>
        <time>2025-06-22T07:55:23Z</time>
      </trkpt>
      <trkpt lat="48.92634" lon="7.36319">
        <ele>236</ele>
        <time>2025-06-22T07:55:24Z</time>
      </trkpt>
      <trkpt lat="48.92637" lon="7.36315">
        <ele>236</ele>
        <time>2025-06-22T07:55:25Z</time>
      </trkpt>
      <trkpt lat="48.9264" lon="7.36312">
        <ele>236</ele>
        <time>2025-06-22T07:55:26Z</time>
      </trkpt>
      <trkpt lat="48.92642" lon="7.36308">
        <ele>236</ele>
        <time>2025-06-22T07:55:27Z</time>
      </trkpt>
      <trkpt lat="48.92645" lon="7.36305">
        <ele>236</ele>
        <time>2025-06-22T07:55:28Z</time>
      </trkpt>
      <trkpt lat="48.92648" lon="7.36301">
        <ele>236</ele>
        <time>2025-06-22T07:55:29Z</time>
      </trkpt>
      <trkpt lat="48.9265" lon="7.36298">
        <ele>236</ele>
        <time>2025-06-22T07:55:30Z</time>
      </trkpt>
      <trkpt lat="48.92653" lon="7.36294">
        <ele>236</ele>
        <time>2025-06-22T07:55:31Z</time>
      </trkpt>
      <trkpt lat="48.92655" lon="7.36291">
        <ele>236</ele>
        <time>2025-06-22T07:55:32Z</time>
      </trkpt>
      <trkpt lat="48.92658" lon="7.36288">
        <ele>236</ele>
        <time>2025-06-22T07:55:33Z</time>
      </trkpt>
      <trkpt lat="48.9266" lon="7.36285">
        <ele>236</ele>
        <time>2025-06-22T07:55:34Z</time>
      </trkpt>
      <trkpt lat="48.92663" lon="7.36283">
        <ele>236</ele>
        <time>2025-06-22T07:55:35Z</time>
      </trkpt>
      <trkpt lat="48.92665" lon="7.3628">
        <ele>236</ele>
        <time>2025-06-22T07:55:36Z</time>
      </trkpt>
      <trkpt lat="48.92668" lon="7.36277">
        <ele>236</ele>
        <time>2025-06-22T07:55:37Z</time>
      </trkpt>
      <trkpt lat="48.9267" lon="7.36275">
        <ele>236</ele>
        <time>2025-06-22T07:55:38Z</time>
      </trkpt>
      <trkpt lat="48.92673" lon="7.36272">
        <ele>236</ele>
        <time>2025-06-22T07:55:39Z</time>
      </trkpt>
      <trkpt lat="48.92675" lon="7.36269">
        <ele>236</ele>
        <time>2025-06-22T07:55:40Z</time>
      </trkpt>
      <trkpt lat="48.92678" lon="7.36266">
        <ele>236</ele>
        <time>2025-06-22T07:55:41Z</time>
      </trkpt>
      <trkpt lat="48.9268" lon="7.36262">
        <ele>236</ele>
        <time>2025-06-22T07:55:42Z</time>
      </trkpt>
      <trkpt lat="48.92683" lon="7.36259">
        <ele>236</ele>
        <time>2025-06-22T07:55:43Z</time>
      </trkpt>
      <trkpt lat="48.92685" lon="7.36255">
        <ele>235</ele>
        <time>2025-06-22T07:55:44Z</time>
      </trkpt>
      <trkpt lat="48.92686" lon="7.3625">
        <ele>235</ele>
        <time>2025-06-22T07:55:45Z</time>
      </trkpt>
      <trkpt lat="48.92688" lon="7.36245">
        <ele>234</ele>
        <time>2025-06-22T07:55:46Z</time>
      </trkpt>
      <trkpt lat="48.9269" lon="7.36241">
        <ele>234</ele>
        <time>2025-06-22T07:55:47Z</time>
      </trkpt>
      <trkpt lat="48.92692" lon="7.36236">
        <ele>234</ele>
        <time>2025-06-22T07:55:48Z</time>
      </trkpt>
      <trkpt lat="48.92693" lon="7.36231">
        <ele>235</ele>
        <time>2025-06-22T07:55:49Z</time>
      </trkpt>
      <trkpt lat="48.92695" lon="7.36226">
        <ele>235</ele>
        <time>2025-06-22T07:55:50Z</time>
      </trkpt>
      <trkpt lat="48.92696" lon="7.36221">
        <ele>235</ele>
        <time>2025-06-22T07:55:51Z</time>
      </trkpt>
      <trkpt lat="48.92698" lon="7.36216">
        <ele>235</ele>
        <time>2025-06-22T07:55:52Z</time>
      </trkpt>
      <trkpt lat="48.92699" lon="7.3621">
        <ele>235</ele>
        <time>2025-06-22T07:55:53Z</time>
      </trkpt>
      <trkpt lat="48.92699" lon="7.36205">
        <ele>235</ele>
        <time>2025-06-22T07:55:54Z</time>
      </trkpt>
      <trkpt lat="48.927" lon="7.362">
        <ele>235</ele>
        <time>2025-06-22T07:55:55Z</time>
      </trkpt>
      <trkpt lat="48.927" lon="7.36195">
        <ele>236</ele>
        <time>2025-06-22T07:55:56Z</time>
      </trkpt>
      <trkpt lat="48.92701" lon="7.36189">
        <ele>236</ele>
        <time>2025-06-22T07:55:57Z</time>
      </trkpt>
      <trkpt lat="48.92702" lon="7.36184">
        <ele>236</ele>
        <time>2025-06-22T07:55:58Z</time>
      </trkpt>
      <trkpt lat="48.92702" lon="7.36179">
        <ele>236</ele>
        <time>2025-06-22T07:55:59Z</time>
      </trkpt>
      <trkpt lat="48.92702" lon="7.36174">
        <ele>237</ele>
        <time>2025-06-22T07:56:00Z</time>
      </trkpt>
      <trkpt lat="48.92702" lon="7.36168">
        <ele>237</ele>
        <time>2025-06-22T07:56:01Z</time>
      </trkpt>
      <trkpt lat="48.92701" lon="7.36163">
        <ele>238</ele>
        <time>2025-06-22T07:56:02Z</time>
      </trkpt>
      <trkpt lat="48.92701" lon="7.36158">
        <ele>238</ele>
        <time>2025-06-22T07:56:03Z</time>
      </trkpt>
      <trkpt lat="48.927" lon="7.36153">
        <ele>237</ele>
        <time>2025-06-22T07:56:04Z</time>
      </trkpt>
      <trkpt lat="48.927" lon="7.36148">
        <ele>237</ele>
        <time>2025-06-22T07:56:05Z</time>
      </trkpt>
      <trkpt lat="48.92699" lon="7.36142">
        <ele>238</ele>
        <time>2025-06-22T07:56:06Z</time>
      </trkpt>
      <trkpt lat="48.92697" lon="7.36136">
        <ele>238</ele>
        <time>2025-06-22T07:56:07Z</time>
      </trkpt>
      <trkpt lat="48.92696" lon="7.3613">
        <ele>238</ele>
        <time>2025-06-22T07:56:08Z</time>
      </trkpt>
      <trkpt lat="48.92694" lon="7.36123">
        <ele>237</ele>
        <time>2025-06-22T07:56:09Z</time>
      </trkpt>
      <trkpt lat="48.92693" lon="7.36116">
        <ele>237</ele>
        <time>2025-06-22T07:56:10Z</time>
      </trkpt>
      <trkpt lat="48.92691" lon="7.36109">
        <ele>237</ele>
        <time>2025-06-22T07:56:11Z</time>
      </trkpt>
      <trkpt lat="48.92689" lon="7.36101">
        <ele>237</ele>
        <time>2025-06-22T07:56:12Z</time>
      </trkpt>
      <trkpt lat="48.92687" lon="7.36093">
        <ele>237</ele>
        <time>2025-06-22T07:56:13Z</time>
      </trkpt>
      <trkpt lat="48.92685" lon="7.36084">
        <ele>237</ele>
        <time>2025-06-22T07:56:14Z</time>
      </trkpt>
      <trkpt lat="48.92684" lon="7.36075">
        <ele>237</ele>
        <time>2025-06-22T07:56:15Z</time>
      </trkpt>
      <trkpt lat="48.92682" lon="7.36067">
        <ele>237</ele>
        <time>2025-06-22T07:56:16Z</time>
      </trkpt>
      <trkpt lat="48.9268" lon="7.36058">
        <ele>237</ele>
        <time>2025-06-22T07:56:17Z</time>
      </trkpt>
      <trkpt lat="48.92677" lon="7.36049">
        <ele>237</ele>
        <time>2025-06-22T07:56:18Z</time>
      </trkpt>
      <trkpt lat="48.92676" lon="7.36041">
        <ele>235</ele>
        <time>2025-06-22T07:56:19Z</time>
      </trkpt>
      <trkpt lat="48.92674" lon="7.36033">
        <ele>234</ele>
        <time>2025-06-22T07:56:20Z</time>
      </trkpt>
      <trkpt lat="48.92674" lon="7.36027">
        <ele>234</ele>
        <time>2025-06-22T07:56:21Z</time>
      </trkpt>
      <trkpt lat="48.92674" lon="7.36022">
        <ele>234</ele>
        <time>2025-06-22T07:56:22Z</time>
      </trkpt>
      <trkpt lat="48.92675" lon="7.36018">
        <ele>234</ele>
        <time>2025-06-22T07:56:23Z</time>
      </trkpt>
      <trkpt lat="48.92677" lon="7.36014">
        <ele>233</ele>
        <time>2025-06-22T07:56:24Z</time>
      </trkpt>
      <trkpt lat="48.92685" lon="7.36001">
        <ele>232</ele>
        <time>2025-06-22T07:56:27Z</time>
      </trkpt>
      <trkpt lat="48.92691" lon="7.35989">
        <ele>232</ele>
        <time>2025-06-22T07:56:29Z</time>
      </trkpt>
      <trkpt lat="48.927" lon="7.35978">
        <ele>231</ele>
        <time>2025-06-22T07:56:31Z</time>
      </trkpt>
      <trkpt lat="48.92707" lon="7.35967">
        <ele>231</ele>
        <time>2025-06-22T07:56:33Z</time>
      </trkpt>
      <trkpt lat="48.92712" lon="7.35952">
        <ele>232</ele>
        <time>2025-06-22T07:56:36Z</time>
      </trkpt>
      <trkpt lat="48.92716" lon="7.35935">
        <ele>233</ele>
        <time>2025-06-22T07:56:39Z</time>
      </trkpt>
      <trkpt lat="48.92721" lon="7.35918">
        <ele>233</ele>
        <time>2025-06-22T07:56:42Z</time>
      </trkpt>
      <trkpt lat="48.92724" lon="7.35904">
        <ele>235</ele>
        <time>2025-06-22T07:56:45Z</time>
      </trkpt>
      <trkpt lat="48.92727" lon="7.35886">
        <ele>234</ele>
        <time>2025-06-22T07:56:48Z</time>
      </trkpt>
      <trkpt lat="48.9273" lon="7.35871">
        <ele>235</ele>
        <time>2025-06-22T07:56:51Z</time>
      </trkpt>
      <trkpt lat="48.92732" lon="7.35853">
        <ele>235</ele>
        <time>2025-06-22T07:56:55Z</time>
      </trkpt>
      <trkpt lat="48.92732" lon="7.35838">
        <ele>236</ele>
        <time>2025-06-22T07:56:58Z</time>
      </trkpt>
      <trkpt lat="48.92734" lon="7.35821">
        <ele>236</ele>
        <time>2025-06-22T07:57:01Z</time>
      </trkpt>
      <trkpt lat="48.92734" lon="7.35805">
        <ele>236</ele>
        <time>2025-06-22T07:57:03Z</time>
      </trkpt>
      <trkpt lat="48.92734" lon="7.35788">
        <ele>236</ele>
        <time>2025-06-22T07:57:05Z</time>
      </trkpt>
      <trkpt lat="48.92735" lon="7.35774">
        <ele>236</ele>
        <time>2025-06-22T07:57:07Z</time>
      </trkpt>
      <trkpt lat="48.92736" lon="7.3576">
        <ele>235</ele>
        <time>2025-06-22T07:57:09Z</time>
      </trkpt>
      <trkpt lat="48.92738" lon="7.35744">
        <ele>234</ele>
        <time>2025-06-22T07:57:11Z</time>
      </trkpt>
      <trkpt lat="48.92742" lon="7.35728">
        <ele>234</ele>
        <time>2025-06-22T07:57:14Z</time>
      </trkpt>
      <trkpt lat="48.92744" lon="7.35715">
        <ele>234</ele>
        <time>2025-06-22T07:57:17Z</time>
      </trkpt>
      <trkpt lat="48.92748" lon="7.35701">
        <ele>234</ele>
        <time>2025-06-22T07:57:19Z</time>
      </trkpt>
      <trkpt lat="48.92751" lon="7.35688">
        <ele>233</ele>
        <time>2025-06-22T07:57:21Z</time>
      </trkpt>
      <trkpt lat="48.92757" lon="7.35672">
        <ele>233</ele>
        <time>2025-06-22T07:57:24Z</time>
      </trkpt>
      <trkpt lat="48.92762" lon="7.3566">
        <ele>233</ele>
        <time>2025-06-22T07:57:26Z</time>
      </trkpt>
      <trkpt lat="48.92768" lon="7.35645">
        <ele>232</ele>
        <time>2025-06-22T07:57:29Z</time>
      </trkpt>
      <trkpt lat="48.92772" lon="7.35626">
        <ele>232</ele>
        <time>2025-06-22T07:57:32Z</time>
      </trkpt>
      <trkpt lat="48.9278" lon="7.35612">
        <ele>232</ele>
        <time>2025-06-22T07:57:35Z</time>
      </trkpt>
      <trkpt lat="48.92785" lon="7.356">
        <ele>232</ele>
        <time>2025-06-22T07:57:37Z</time>
      </trkpt>
      <trkpt lat="48.92791" lon="7.35585">
        <ele>232</ele>
        <time>2025-06-22T07:57:39Z</time>
      </trkpt>
      <trkpt lat="48.92796" lon="7.35566">
        <ele>232</ele>
        <time>2025-06-22T07:57:42Z</time>
      </trkpt>
      <trkpt lat="48.92802" lon="7.35551">
        <ele>232</ele>
        <time>2025-06-22T07:57:45Z</time>
      </trkpt>
      <trkpt lat="48.92809" lon="7.35538">
        <ele>232</ele>
        <time>2025-06-22T07:57:48Z</time>
      </trkpt>
      <trkpt lat="48.92816" lon="7.35528">
        <ele>232</ele>
        <time>2025-06-22T07:57:51Z</time>
      </trkpt>
      <trkpt lat="48.92825" lon="7.3552">
        <ele>232</ele>
        <time>2025-06-22T07:57:54Z</time>
      </trkpt>
      <trkpt lat="48.92833" lon="7.35511">
        <ele>232</ele>
        <time>2025-06-22T07:58:01Z</time>
      </trkpt>
      <trkpt lat="48.92842" lon="7.35517">
        <ele>236</ele>
        <time>2025-06-22T07:58:09Z</time>
      </trkpt>
      <trkpt lat="48.92851" lon="7.35522">
        <ele>237</ele>
        <time>2025-06-22T07:58:16Z</time>
      </trkpt>
      <trkpt lat="48.9286" lon="7.35531">
        <ele>239</ele>
        <time>2025-06-22T07:58:22Z</time>
      </trkpt>
      <trkpt lat="48.92861" lon="7.35533">
        <ele>239</ele>
        <time>2025-06-22T07:58:23Z</time>
      </trkpt>
      <trkpt lat="48.92863" lon="7.35535">
        <ele>240</ele>
        <time>2025-06-22T07:58:25Z</time>
      </trkpt>
      <trkpt lat="48.92867" lon="7.35538">
        <ele>241</ele>
        <time>2025-06-22T07:58:28Z</time>
      </trkpt>
      <trkpt lat="48.92875" lon="7.35546">
        <ele>241</ele>
        <time>2025-06-22T07:58:35Z</time>
      </trkpt>
      <trkpt lat="48.92885" lon="7.35556">
        <ele>244</ele>
        <time>2025-06-22T07:58:39Z</time>
      </trkpt>
      <trkpt lat="48.92894" lon="7.35567">
        <ele>244</ele>
        <time>2025-06-22T07:58:44Z</time>
      </trkpt>
      <trkpt lat="48.92896" lon="7.35571">
        <ele>244</ele>
        <time>2025-06-22T07:58:46Z</time>
      </trkpt>
      <trkpt lat="48.92898" lon="7.35573">
        <ele>244</ele>
        <time>2025-06-22T07:58:47Z</time>
      </trkpt>
      <trkpt lat="48.929" lon="7.35575">
        <ele>244</ele>
        <time>2025-06-22T07:58:48Z</time>
      </trkpt>
      <trkpt lat="48.92901" lon="7.35578">
        <ele>245</ele>
        <time>2025-06-22T07:58:49Z</time>
      </trkpt>
      <trkpt lat="48.92903" lon="7.3558">
        <ele>245</ele>
        <time>2025-06-22T07:58:50Z</time>
      </trkpt>
      <trkpt lat="48.92905" lon="7.35582">
        <ele>245</ele>
        <time>2025-06-22T07:58:51Z</time>
      </trkpt>
      <trkpt lat="48.92906" lon="7.35583">
        <ele>245</ele>
        <time>2025-06-22T07:58:52Z</time>
      </trkpt>
      <trkpt lat="48.92909" lon="7.35584">
        <ele>245</ele>
        <time>2025-06-22T07:58:54Z</time>
      </trkpt>
      <trkpt lat="48.92912" lon="7.35585">
        <ele>246</ele>
        <time>2025-06-22T07:58:56Z</time>
      </trkpt>
      <trkpt lat="48.92915" lon="7.35588">
        <ele>247</ele>
        <time>2025-06-22T07:58:58Z</time>
      </trkpt>
      <trkpt lat="48.92916" lon="7.3559">
        <ele>247</ele>
        <time>2025-06-22T07:58:59Z</time>
      </trkpt>
      <trkpt lat="48.92918" lon="7.35592">
        <ele>247</ele>
        <time>2025-06-22T07:59:00Z</time>
      </trkpt>
      <trkpt lat="48.92927" lon="7.35599">
        <ele>249</ele>
        <time>2025-06-22T07:59:05Z</time>
      </trkpt>
      <trkpt lat="48.92934" lon="7.35609">
        <ele>250</ele>
        <time>2025-06-22T07:59:09Z</time>
      </trkpt>
      <trkpt lat="48.92939" lon="7.3561">
        <ele>252</ele>
        <time>2025-06-22T07:59:11Z</time>
      </trkpt>
      <trkpt lat="48.92941" lon="7.35609">
        <ele>252</ele>
        <time>2025-06-22T07:59:12Z</time>
      </trkpt>
      <trkpt lat="48.92943" lon="7.35607">
        <ele>252</ele>
        <time>2025-06-22T07:59:13Z</time>
      </trkpt>
      <trkpt lat="48.92945" lon="7.35604">
        <ele>252</ele>
        <time>2025-06-22T07:59:14Z</time>
      </trkpt>
      <trkpt lat="48.92947" lon="7.356">
        <ele>252</ele>
        <time>2025-06-22T07:59:15Z</time>
      </trkpt>
      <trkpt lat="48.92949" lon="7.35596">
        <ele>252</ele>
        <time>2025-06-22T07:59:16Z</time>
      </trkpt>
      <trkpt lat="48.9295" lon="7.35592">
        <ele>252</ele>
        <time>2025-06-22T07:59:17Z</time>
      </trkpt>
      <trkpt lat="48.9295" lon="7.35589">
        <ele>252</ele>
        <time>2025-06-22T07:59:18Z</time>
      </trkpt>
      <trkpt lat="48.92951" lon="7.35585">
        <ele>252</ele>
        <time>2025-06-22T07:59:19Z</time>
      </trkpt>
      <trkpt lat="48.92952" lon="7.35582">
        <ele>252</ele>
        <time>2025-06-22T07:59:20Z</time>
      </trkpt>
      <trkpt lat="48.92954" lon="7.35574">
        <ele>253</ele>
        <time>2025-06-22T07:59:22Z</time>
      </trkpt>
      <trkpt lat="48.92957" lon="7.3556">
        <ele>253</ele>
        <time>2025-06-22T07:59:25Z</time>
      </trkpt>
      <trkpt lat="48.92962" lon="7.35544">
        <ele>253</ele>
        <time>2025-06-22T07:59:29Z</time>
      </trkpt>
      <trkpt lat="48.92969" lon="7.3553">
        <ele>253</ele>
        <time>2025-06-22T07:59:32Z</time>
      </trkpt>
      <trkpt lat="48.92975" lon="7.35515">
        <ele>253</ele>
        <time>2025-06-22T07:59:35Z</time>
      </trkpt>
      <trkpt lat="48.92981" lon="7.35499">
        <ele>253</ele>
        <time>2025-06-22T07:59:38Z</time>
      </trkpt>
      <trkpt lat="48.92985" lon="7.35487">
        <ele>254</ele>
        <time>2025-06-22T07:59:40Z</time>
      </trkpt>
      <trkpt lat="48.92989" lon="7.35473">
        <ele>254</ele>
        <time>2025-06-22T07:59:43Z</time>
      </trkpt>
      <trkpt lat="48.92994" lon="7.35457">
        <ele>255</ele>
        <time>2025-06-22T07:59:46Z</time>
      </trkpt>
      <trkpt lat="48.93" lon="7.35442">
        <ele>255</ele>
        <time>2025-06-22T07:59:49Z</time>
      </trkpt>
      <trkpt lat="48.93002" lon="7.35426">
        <ele>255</ele>
        <time>2025-06-22T07:59:52Z</time>
      </trkpt>
      <trkpt lat="48.93005" lon="7.35412">
        <ele>256</ele>
        <time>2025-06-22T07:59:54Z</time>
      </trkpt>
      <trkpt lat="48.9301" lon="7.35395">
        <ele>256</ele>
        <time>2025-06-22T07:59:57Z</time>
      </trkpt>
      <trkpt lat="48.93011" lon="7.3539">
        <ele>256</ele>
        <time>2025-06-22T07:59:58Z</time>
      </trkpt>
      <trkpt lat="48.93012" lon="7.35386">
        <ele>256</ele>
        <time>2025-06-22T07:59:59Z</time>
      </trkpt>
      <trkpt lat="48.93015" lon="7.35376">
        <ele>257</ele>
        <time>2025-06-22T08:00:02Z</time>
      </trkpt>
      <trkpt lat="48.93017" lon="7.35369">
        <ele>257</ele>
        <time>2025-06-22T08:00:04Z</time>
      </trkpt>
      <trkpt lat="48.9302" lon="7.35353">
        <ele>257</ele>
        <time>2025-06-22T08:00:07Z</time>
      </trkpt>
      <trkpt lat="48.9302" lon="7.35335">
        <ele>258</ele>
        <time>2025-06-22T08:00:10Z</time>
      </trkpt>
      <trkpt lat="48.93023" lon="7.35317">
        <ele>258</ele>
        <time>2025-06-22T08:00:13Z</time>
      </trkpt>
      <trkpt lat="48.93026" lon="7.35296">
        <ele>258</ele>
        <time>2025-06-22T08:00:16Z</time>
      </trkpt>
      <trkpt lat="48.9303" lon="7.35282">
        <ele>260</ele>
        <time>2025-06-22T08:00:19Z</time>
      </trkpt>
      <trkpt lat="48.93034" lon="7.35266">
        <ele>260</ele>
        <time>2025-06-22T08:00:22Z</time>
      </trkpt>
      <trkpt lat="48.93037" lon="7.3525">
        <ele>261</ele>
        <time>2025-06-22T08:00:25Z</time>
      </trkpt>
      <trkpt lat="48.93041" lon="7.3524">
        <ele>261</ele>
        <time>2025-06-22T08:00:27Z</time>
      </trkpt>
      <trkpt lat="48.93043" lon="7.35235">
        <ele>261</ele>
        <time>2025-06-22T08:00:28Z</time>
      </trkpt>
      <trkpt lat="48.93045" lon="7.35231">
        <ele>262</ele>
        <time>2025-06-22T08:00:29Z</time>
      </trkpt>
      <trkpt lat="48.93048" lon="7.35222">
        <ele>262</ele>
        <time>2025-06-22T08:00:30Z</time>
      </trkpt>
      <trkpt lat="48.93049" lon="7.35217">
        <ele>262</ele>
        <time>2025-06-22T08:00:32Z</time>
      </trkpt>
      <trkpt lat="48.93051" lon="7.35213">
        <ele>262</ele>
        <time>2025-06-22T08:00:33Z</time>
      </trkpt>
      <trkpt lat="48.93053" lon="7.35209">
        <ele>262</ele>
        <time>2025-06-22T08:00:34Z</time>
      </trkpt>
      <trkpt lat="48.93055" lon="7.35204">
        <ele>262</ele>
        <time>2025-06-22T08:00:35Z</time>
      </trkpt>
      <trkpt lat="48.93057" lon="7.352">
        <ele>262</ele>
        <time>2025-06-22T08:00:36Z</time>
      </trkpt>
      <trkpt lat="48.93059" lon="7.35196">
        <ele>262</ele>
        <time>2025-06-22T08:00:37Z</time>
      </trkpt>
      <trkpt lat="48.93063" lon="7.35179">
        <ele>262</ele>
        <time>2025-06-22T08:00:40Z</time>
      </trkpt>
      <trkpt lat="48.93066" lon="7.35162">
        <ele>262</ele>
        <time>2025-06-22T08:00:43Z</time>
      </trkpt>
      <trkpt lat="48.93071" lon="7.35148">
        <ele>262</ele>
        <time>2025-06-22T08:00:46Z</time>
      </trkpt>
      <trkpt lat="48.93076" lon="7.35132">
        <ele>262</ele>
        <time>2025-06-22T08:00:49Z</time>
      </trkpt>
      <trkpt lat="48.93083" lon="7.35117">
        <ele>262</ele>
        <time>2025-06-22T08:00:52Z</time>
      </trkpt>
      <trkpt lat="48.93088" lon="7.35104">
        <ele>262</ele>
        <time>2025-06-22T08:00:54Z</time>
      </trkpt>
      <trkpt lat="48.93094" lon="7.35091">
        <ele>262</ele>
        <time>2025-06-22T08:00:56Z</time>
      </trkpt>
      <trkpt lat="48.93103" lon="7.35075">
        <ele>262</ele>
        <time>2025-06-22T08:00:59Z</time>
      </trkpt>
      <trkpt lat="48.93113" lon="7.35063">
        <ele>262</ele>
        <time>2025-06-22T08:01:01Z</time>
      </trkpt>
      <trkpt lat="48.93125" lon="7.35051">
        <ele>262</ele>
        <time>2025-06-22T08:01:03Z</time>
      </trkpt>
      <trkpt lat="48.93139" lon="7.35038">
        <ele>261</ele>
        <time>2025-06-22T08:01:05Z</time>
      </trkpt>
      <trkpt lat="48.93152" lon="7.35027">
        <ele>259</ele>
        <time>2025-06-22T08:01:07Z</time>
      </trkpt>
      <trkpt lat="48.93165" lon="7.35014">
        <ele>259</ele>
        <time>2025-06-22T08:01:09Z</time>
      </trkpt>
      <trkpt lat="48.93179" lon="7.35004">
        <ele>257</ele>
        <time>2025-06-22T08:01:11Z</time>
      </trkpt>
      <trkpt lat="48.93191" lon="7.34991">
        <ele>256</ele>
        <time>2025-06-22T08:01:13Z</time>
      </trkpt>
      <trkpt lat="48.93202" lon="7.34979">
        <ele>256</ele>
        <time>2025-06-22T08:01:15Z</time>
      </trkpt>
      <trkpt lat="48.93214" lon="7.34966">
        <ele>256</ele>
        <time>2025-06-22T08:01:17Z</time>
      </trkpt>
      <trkpt lat="48.93227" lon="7.34955">
        <ele>254</ele>
        <time>2025-06-22T08:01:19Z</time>
      </trkpt>
      <trkpt lat="48.9324" lon="7.34942">
        <ele>253</ele>
        <time>2025-06-22T08:01:21Z</time>
      </trkpt>
      <trkpt lat="48.93253" lon="7.34933">
        <ele>252</ele>
        <time>2025-06-22T08:01:23Z</time>
      </trkpt>
      <trkpt lat="48.93262" lon="7.34922">
        <ele>250</ele>
        <time>2025-06-22T08:01:25Z</time>
      </trkpt>
      <trkpt lat="48.9327" lon="7.34907">
        <ele>250</ele>
        <time>2025-06-22T08:01:27Z</time>
      </trkpt>
      <trkpt lat="48.93276" lon="7.3489">
        <ele>250</ele>
        <time>2025-06-22T08:01:29Z</time>
      </trkpt>
      <trkpt lat="48.93283" lon="7.34872">
        <ele>250</ele>
        <time>2025-06-22T08:01:31Z</time>
      </trkpt>
      <trkpt lat="48.93291" lon="7.34852">
        <ele>248</ele>
        <time>2025-06-22T08:01:33Z</time>
      </trkpt>
      <trkpt lat="48.93296" lon="7.34841">
        <ele>248</ele>
        <time>2025-06-22T08:01:34Z</time>
      </trkpt>
      <trkpt lat="48.93306" lon="7.34818">
        <ele>248</ele>
        <time>2025-06-22T08:01:36Z</time>
      </trkpt>
      <trkpt lat="48.93316" lon="7.34793">
        <ele>245</ele>
        <time>2025-06-22T08:01:38Z</time>
      </trkpt>
      <trkpt lat="48.9332" lon="7.34778">
        <ele>245</ele>
        <time>2025-06-22T08:01:39Z</time>
      </trkpt>
      <trkpt lat="48.93324" lon="7.34764">
        <ele>244</ele>
        <time>2025-06-22T08:01:40Z</time>
      </trkpt>
      <trkpt lat="48.93328" lon="7.3474">
        <ele>244</ele>
        <time>2025-06-22T08:01:42Z</time>
      </trkpt>
      <trkpt lat="48.93329" lon="7.34726">
        <ele>243</ele>
        <time>2025-06-22T08:01:43Z</time>
      </trkpt>
      <trkpt lat="48.93336" lon="7.34708">
        <ele>242</ele>
        <time>2025-06-22T08:01:45Z</time>
      </trkpt>
      <trkpt lat="48.93341" lon="7.34695">
        <ele>241</ele>
        <time>2025-06-22T08:01:47Z</time>
      </trkpt>
      <trkpt lat="48.93342" lon="7.34678">
        <ele>241</ele>
        <time>2025-06-22T08:01:50Z</time>
      </trkpt>
      <trkpt lat="48.93341" lon="7.34666">
        <ele>241</ele>
        <time>2025-06-22T08:01:53Z</time>
      </trkpt>
      <trkpt lat="48.9334" lon="7.34662">
        <ele>241</ele>
        <time>2025-06-22T08:01:54Z</time>
      </trkpt>
      <trkpt lat="48.93339" lon="7.34659">
        <ele>241</ele>
        <time>2025-06-22T08:01:56Z</time>
      </trkpt>
      <trkpt lat="48.93338" lon="7.34657">
        <ele>240</ele>
        <time>2025-06-22T08:02:06Z</time>
      </trkpt>
      <trkpt lat="48.93339" lon="7.34654">
        <ele>241</ele>
        <time>2025-06-22T08:02:10Z</time>
      </trkpt>
      <trkpt lat="48.93341" lon="7.34653">
        <ele>241</ele>
        <time>2025-06-22T08:02:12Z</time>
      </trkpt>
      <trkpt lat="48.93344" lon="7.34653">
        <ele>241</ele>
        <time>2025-06-22T08:02:59Z</time>
      </trkpt>
      <trkpt lat="48.93346" lon="7.34654">
        <ele>241</ele>
        <time>2025-06-22T08:03:16Z</time>
      </trkpt>
      <trkpt lat="48.93348" lon="7.34654">
        <ele>241</ele>
        <time>2025-06-22T08:03:18Z</time>
      </trkpt>
      <trkpt lat="48.93349" lon="7.34652">
        <ele>241</ele>
        <time>2025-06-22T08:03:21Z</time>
      </trkpt>
      <trkpt lat="48.93348" lon="7.34649">
        <ele>241</ele>
        <time>2025-06-22T08:03:33Z</time>
      </trkpt>
      <trkpt lat="48.93351" lon="7.3465">
        <ele>241</ele>
        <time>2025-06-22T08:03:39Z</time>
      </trkpt>
      <trkpt lat="48.93355" lon="7.3465">
        <ele>240</ele>
        <time>2025-06-22T08:03:41Z</time>
      </trkpt>
      <trkpt lat="48.93357" lon="7.34648">
        <ele>241</ele>
        <time>2025-06-22T08:03:42Z</time>
      </trkpt>
      <trkpt lat="48.93361" lon="7.34645">
        <ele>241</ele>
        <time>2025-06-22T08:03:43Z</time>
      </trkpt>
      <trkpt lat="48.93364" lon="7.34641">
        <ele>241</ele>
        <time>2025-06-22T08:03:44Z</time>
      </trkpt>
      <trkpt lat="48.93368" lon="7.34637">
        <ele>241</ele>
        <time>2025-06-22T08:03:45Z</time>
      </trkpt>
      <trkpt lat="48.93371" lon="7.34633">
        <ele>241</ele>
        <time>2025-06-22T08:03:46Z</time>
      </trkpt>
      <trkpt lat="48.93375" lon="7.34629">
        <ele>241</ele>
        <time>2025-06-22T08:03:47Z</time>
      </trkpt>
      <trkpt lat="48.93378" lon="7.34625">
        <ele>241</ele>
        <time>2025-06-22T08:03:48Z</time>
      </trkpt>
      <trkpt lat="48.93382" lon="7.3462">
        <ele>241</ele>
        <time>2025-06-22T08:03:49Z</time>
      </trkpt>
      <trkpt lat="48.93386" lon="7.34616">
        <ele>241</ele>
        <time>2025-06-22T08:03:50Z</time>
      </trkpt>
      <trkpt lat="48.93389" lon="7.34612">
        <ele>241</ele>
        <time>2025-06-22T08:03:51Z</time>
      </trkpt>
      <trkpt lat="48.93393" lon="7.34608">
        <ele>241</ele>
        <time>2025-06-22T08:03:52Z</time>
      </trkpt>
      <trkpt lat="48.93397" lon="7.34604">
        <ele>242</ele>
        <time>2025-06-22T08:03:53Z</time>
      </trkpt>
      <trkpt lat="48.93401" lon="7.34601">
        <ele>242</ele>
        <time>2025-06-22T08:03:54Z</time>
      </trkpt>
      <trkpt lat="48.93404" lon="7.34598">
        <ele>242</ele>
        <time>2025-06-22T08:03:55Z</time>
      </trkpt>
      <trkpt lat="48.93408" lon="7.34595">
        <ele>242</ele>
        <time>2025-06-22T08:03:56Z</time>
      </trkpt>
      <trkpt lat="48.93412" lon="7.34591">
        <ele>242</ele>
        <time>2025-06-22T08:03:57Z</time>
      </trkpt>
      <trkpt lat="48.93416" lon="7.34588">
        <ele>242</ele>
        <time>2025-06-22T08:03:58Z</time>
      </trkpt>
      <trkpt lat="48.93419" lon="7.34585">
        <ele>242</ele>
        <time>2025-06-22T08:03:59Z</time>
      </trkpt>
      <trkpt lat="48.93423" lon="7.34582">
        <ele>242</ele>
        <time>2025-06-22T08:04:00Z</time>
      </trkpt>
      <trkpt lat="48.93427" lon="7.34579">
        <ele>242</ele>
        <time>2025-06-22T08:04:01Z</time>
      </trkpt>
      <trkpt lat="48.9343" lon="7.34576">
        <ele>243</ele>
        <time>2025-06-22T08:04:02Z</time>
      </trkpt>
      <trkpt lat="48.93434" lon="7.34574">
        <ele>243</ele>
        <time>2025-06-22T08:04:03Z</time>
      </trkpt>
      <trkpt lat="48.93437" lon="7.34572">
        <ele>244</ele>
        <time>2025-06-22T08:04:04Z</time>
      </trkpt>
      <trkpt lat="48.93441" lon="7.3457">
        <ele>244</ele>
        <time>2025-06-22T08:04:05Z</time>
      </trkpt>
      <trkpt lat="48.93444" lon="7.34568">
        <ele>244</ele>
        <time>2025-06-22T08:04:06Z</time>
      </trkpt>
      <trkpt lat="48.93448" lon="7.34566">
        <ele>245</ele>
        <time>2025-06-22T08:04:07Z</time>
      </trkpt>
      <trkpt lat="48.93451" lon="7.34564">
        <ele>246</ele>
        <time>2025-06-22T08:04:08Z</time>
      </trkpt>
      <trkpt lat="48.9346" lon="7.3456">
        <ele>246</ele>
        <time>2025-06-22T08:04:10Z</time>
      </trkpt>
      <trkpt lat="48.93464" lon="7.34559">
        <ele>247</ele>
        <time>2025-06-22T08:04:11Z</time>
      </trkpt>
      <trkpt lat="48.93468" lon="7.34558">
        <ele>247</ele>
        <time>2025-06-22T08:04:12Z</time>
      </trkpt>
      <trkpt lat="48.93472" lon="7.34557">
        <ele>247</ele>
        <time>2025-06-22T08:04:13Z</time>
      </trkpt>
      <trkpt lat="48.93475" lon="7.34556">
        <ele>247</ele>
        <time>2025-06-22T08:04:14Z</time>
      </trkpt>
      <trkpt lat="48.93479" lon="7.34555">
        <ele>248</ele>
        <time>2025-06-22T08:04:15Z</time>
      </trkpt>
      <trkpt lat="48.93483" lon="7.34555">
        <ele>248</ele>
        <time>2025-06-22T08:04:16Z</time>
      </trkpt>
      <trkpt lat="48.93486" lon="7.34554">
        <ele>248</ele>
        <time>2025-06-22T08:04:17Z</time>
      </trkpt>
      <trkpt lat="48.9349" lon="7.34554">
        <ele>248</ele>
        <time>2025-06-22T08:04:18Z</time>
      </trkpt>
      <trkpt lat="48.93494" lon="7.34553">
        <ele>248</ele>
        <time>2025-06-22T08:04:19Z</time>
      </trkpt>
      <trkpt lat="48.93497" lon="7.34553">
        <ele>248</ele>
        <time>2025-06-22T08:04:20Z</time>
      </trkpt>
      <trkpt lat="48.93501" lon="7.34553">
        <ele>248</ele>
        <time>2025-06-22T08:04:21Z</time>
      </trkpt>
      <trkpt lat="48.93505" lon="7.34552">
        <ele>248</ele>
        <time>2025-06-22T08:04:22Z</time>
      </trkpt>
      <trkpt lat="48.93508" lon="7.34552">
        <ele>249</ele>
        <time>2025-06-22T08:04:23Z</time>
      </trkpt>
      <trkpt lat="48.93511" lon="7.34551">
        <ele>250</ele>
        <time>2025-06-22T08:04:24Z</time>
      </trkpt>
      <trkpt lat="48.93515" lon="7.34551">
        <ele>250</ele>
        <time>2025-06-22T08:04:25Z</time>
      </trkpt>
      <trkpt lat="48.9352" lon="7.34551">
        <ele>250</ele>
        <time>2025-06-22T08:04:26Z</time>
      </trkpt>
      <trkpt lat="48.93524" lon="7.34551">
        <ele>250</ele>
        <time>2025-06-22T08:04:27Z</time>
      </trkpt>
      <trkpt lat="48.93528" lon="7.34551">
        <ele>250</ele>
        <time>2025-06-22T08:04:28Z</time>
      </trkpt>
      <trkpt lat="48.93532" lon="7.34552">
        <ele>250</ele>
        <time>2025-06-22T08:04:29Z</time>
      </trkpt>
      <trkpt lat="48.93535" lon="7.34552">
        <ele>250</ele>
        <time>2025-06-22T08:04:30Z</time>
      </trkpt>
      <trkpt lat="48.9354" lon="7.34553">
        <ele>250</ele>
        <time>2025-06-22T08:04:31Z</time>
      </trkpt>
      <trkpt lat="48.93544" lon="7.34554">
        <ele>250</ele>
        <time>2025-06-22T08:04:32Z</time>
      </trkpt>
      <trkpt lat="48.93548" lon="7.34554">
        <ele>250</ele>
        <time>2025-06-22T08:04:33Z</time>
      </trkpt>
      <trkpt lat="48.93556" lon="7.34556">
        <ele>250</ele>
        <time>2025-06-22T08:04:35Z</time>
      </trkpt>
      <trkpt lat="48.9356" lon="7.34556">
        <ele>250</ele>
        <time>2025-06-22T08:04:36Z</time>
      </trkpt>
      <trkpt lat="48.93564" lon="7.34557">
        <ele>250</ele>
        <time>2025-06-22T08:04:37Z</time>
      </trkpt>
      <trkpt lat="48.93568" lon="7.34557">
        <ele>250</ele>
        <time>2025-06-22T08:04:38Z</time>
      </trkpt>
      <trkpt lat="48.93573" lon="7.34557">
        <ele>250</ele>
        <time>2025-06-22T08:04:39Z</time>
      </trkpt>
      <trkpt lat="48.93577" lon="7.34557">
        <ele>250</ele>
        <time>2025-06-22T08:04:40Z</time>
      </trkpt>
      <trkpt lat="48.93581" lon="7.34558">
        <ele>250</ele>
        <time>2025-06-22T08:04:41Z</time>
      </trkpt>
      <trkpt lat="48.93584" lon="7.34558">
        <ele>250</ele>
        <time>2025-06-22T08:04:42Z</time>
      </trkpt>
      <trkpt lat="48.93588" lon="7.34559">
        <ele>251</ele>
        <time>2025-06-22T08:04:43Z</time>
      </trkpt>
      <trkpt lat="48.93592" lon="7.34559">
        <ele>251</ele>
        <time>2025-06-22T08:04:44Z</time>
      </trkpt>
      <trkpt lat="48.93595" lon="7.3456">
        <ele>251</ele>
        <time>2025-06-22T08:04:45Z</time>
      </trkpt>
      <trkpt lat="48.93599" lon="7.34561">
        <ele>252</ele>
        <time>2025-06-22T08:04:46Z</time>
      </trkpt>
      <trkpt lat="48.93603" lon="7.34561">
        <ele>252</ele>
        <time>2025-06-22T08:04:47Z</time>
      </trkpt>
      <trkpt lat="48.93606" lon="7.34562">
        <ele>252</ele>
        <time>2025-06-22T08:04:48Z</time>
      </trkpt>
      <trkpt lat="48.9361" lon="7.34563">
        <ele>252</ele>
        <time>2025-06-22T08:04:49Z</time>
      </trkpt>
      <trkpt lat="48.93614" lon="7.34564">
        <ele>253</ele>
        <time>2025-06-22T08:04:50Z</time>
      </trkpt>
      <trkpt lat="48.93618" lon="7.34565">
        <ele>253</ele>
        <time>2025-06-22T08:04:51Z</time>
      </trkpt>
      <trkpt lat="48.93621" lon="7.34566">
        <ele>253</ele>
        <time>2025-06-22T08:04:52Z</time>
      </trkpt>
      <trkpt lat="48.93625" lon="7.34568">
        <ele>253</ele>
        <time>2025-06-22T08:04:53Z</time>
      </trkpt>
      <trkpt lat="48.93629" lon="7.34569">
        <ele>253</ele>
        <time>2025-06-22T08:04:54Z</time>
      </trkpt>
      <trkpt lat="48.93633" lon="7.3457">
        <ele>254</ele>
        <time>2025-06-22T08:04:55Z</time>
      </trkpt>
      <trkpt lat="48.93636" lon="7.34572">
        <ele>254</ele>
        <time>2025-06-22T08:04:56Z</time>
      </trkpt>
      <trkpt lat="48.9364" lon="7.34573">
        <ele>254</ele>
        <time>2025-06-22T08:04:57Z</time>
      </trkpt>
      <trkpt lat="48.93644" lon="7.34574">
        <ele>254</ele>
        <time>2025-06-22T08:04:58Z</time>
      </trkpt>
      <trkpt lat="48.93647" lon="7.34576">
        <ele>254</ele>
        <time>2025-06-22T08:04:59Z</time>
      </trkpt>
      <trkpt lat="48.93651" lon="7.34577">
        <ele>254</ele>
        <time>2025-06-22T08:05:00Z</time>
      </trkpt>
      <trkpt lat="48.93654" lon="7.34579">
        <ele>255</ele>
        <time>2025-06-22T08:05:01Z</time>
      </trkpt>
      <trkpt lat="48.93658" lon="7.3458">
        <ele>255</ele>
        <time>2025-06-22T08:05:02Z</time>
      </trkpt>
      <trkpt lat="48.93661" lon="7.34581">
        <ele>256</ele>
        <time>2025-06-22T08:05:03Z</time>
      </trkpt>
      <trkpt lat="48.93665" lon="7.34583">
        <ele>256</ele>
        <time>2025-06-22T08:05:04Z</time>
      </trkpt>
      <trkpt lat="48.93676" lon="7.34585">
        <ele>256</ele>
        <time>2025-06-22T08:05:07Z</time>
      </trkpt>
      <trkpt lat="48.93686" lon="7.34582">
        <ele>257</ele>
        <time>2025-06-22T08:05:10Z</time>
      </trkpt>
      <trkpt lat="48.93696" lon="7.34573">
        <ele>257</ele>
        <time>2025-06-22T08:05:14Z</time>
      </trkpt>
      <trkpt lat="48.93704" lon="7.34562">
        <ele>257</ele>
        <time>2025-06-22T08:05:19Z</time>
      </trkpt>
      <trkpt lat="48.93705" lon="7.34559">
        <ele>257</ele>
        <time>2025-06-22T08:05:21Z</time>
      </trkpt>
      <trkpt lat="48.93706" lon="7.34555">
        <ele>257</ele>
        <time>2025-06-22T08:05:23Z</time>
      </trkpt>
      <trkpt lat="48.93706" lon="7.34558">
        <ele>257</ele>
        <time>2025-06-22T08:05:31Z</time>
      </trkpt>
      <trkpt lat="48.93707" lon="7.34562">
        <ele>257</ele>
        <time>2025-06-22T08:05:34Z</time>
      </trkpt>
      <trkpt lat="48.93705" lon="7.34564">
        <ele>257</ele>
        <time>2025-06-22T08:05:37Z</time>
      </trkpt>
      <trkpt lat="48.93704" lon="7.34561">
        <ele>257</ele>
        <time>2025-06-22T08:05:40Z</time>
      </trkpt>
      <trkpt lat="48.93706" lon="7.34559">
        <ele>257</ele>
        <time>2025-06-22T08:05:42Z</time>
      </trkpt>
      <trkpt lat="48.93708" lon="7.3456">
        <ele>257</ele>
        <time>2025-06-22T08:05:44Z</time>
      </trkpt>
      <trkpt lat="48.9371" lon="7.34561">
        <ele>257</ele>
        <time>2025-06-22T08:05:46Z</time>
      </trkpt>
      <trkpt lat="48.93712" lon="7.34562">
        <ele>257</ele>
        <time>2025-06-22T08:05:48Z</time>
      </trkpt>
      <trkpt lat="48.93712" lon="7.34565">
        <ele>257</ele>
        <time>2025-06-22T08:05:51Z</time>
      </trkpt>
      <trkpt lat="48.93711" lon="7.34562">
        <ele>257</ele>
        <time>2025-06-22T08:06:08Z</time>
      </trkpt>
      <trkpt lat="48.93709" lon="7.3456">
        <ele>257</ele>
        <time>2025-06-22T08:06:10Z</time>
      </trkpt>
      <trkpt lat="48.93711" lon="7.34562">
        <ele>258</ele>
        <time>2025-06-22T08:06:19Z</time>
      </trkpt>
      <trkpt lat="48.93709" lon="7.34562">
        <ele>258</ele>
        <time>2025-06-22T08:06:44Z</time>
      </trkpt>
      <trkpt lat="48.93709" lon="7.34559">
        <ele>258</ele>
        <time>2025-06-22T08:06:46Z</time>
      </trkpt>
      <trkpt lat="48.93709" lon="7.34555">
        <ele>258</ele>
        <time>2025-06-22T08:06:48Z</time>
      </trkpt>
      <trkpt lat="48.93706" lon="7.34555">
        <ele>258</ele>
        <time>2025-06-22T08:06:55Z</time>
      </trkpt>
      <trkpt lat="48.93704" lon="7.34554">
        <ele>258</ele>
        <time>2025-06-22T08:06:58Z</time>
      </trkpt>
      <trkpt lat="48.93704" lon="7.34557">
        <ele>257</ele>
        <time>2025-06-22T08:07:01Z</time>
      </trkpt>
      <trkpt lat="48.93705" lon="7.3456">
        <ele>257</ele>
        <time>2025-06-22T08:07:03Z</time>
      </trkpt>
      <trkpt lat="48.93707" lon="7.34561">
        <ele>257</ele>
        <time>2025-06-22T08:07:05Z</time>
      </trkpt>
      <trkpt lat="48.93708" lon="7.34557">
        <ele>257</ele>
        <time>2025-06-22T08:07:08Z</time>
      </trkpt>
      <trkpt lat="48.93711" lon="7.34558">
        <ele>257</ele>
        <time>2025-06-22T08:07:21Z</time>
      </trkpt>
      <trkpt lat="48.93708" lon="7.34559">
        <ele>257</ele>
        <time>2025-06-22T08:07:32Z</time>
      </trkpt>
      <trkpt lat="48.93706" lon="7.34565">
        <ele>258</ele>
        <time>2025-06-22T08:07:52Z</time>
      </trkpt>
      <trkpt lat="48.93709" lon="7.34569">
        <ele>258</ele>
        <time>2025-06-22T08:07:57Z</time>
      </trkpt>
      <trkpt lat="48.9371" lon="7.34567">
        <ele>258</ele>
        <time>2025-06-22T08:08:08Z</time>
      </trkpt>
      <trkpt lat="48.93707" lon="7.34561">
        <ele>257</ele>
        <time>2025-06-22T08:08:19Z</time>
      </trkpt>
      <trkpt lat="48.93704" lon="7.34555">
        <ele>257</ele>
        <time>2025-06-22T08:09:02Z</time>
      </trkpt>
      <trkpt lat="48.93709" lon="7.34562">
        <ele>257</ele>
        <time>2025-06-22T08:09:14Z</time>
      </trkpt>
      <trkpt lat="48.9371" lon="7.34567">
        <ele>257</ele>
        <time>2025-06-22T08:09:16Z</time>
      </trkpt>
      <trkpt lat="48.9371" lon="7.34569">
        <ele>257</ele>
        <time>2025-06-22T08:09:22Z</time>
      </trkpt>
      <trkpt lat="48.93709" lon="7.34567">
        <ele>257</ele>
        <time>2025-06-22T08:09:30Z</time>
      </trkpt>
      <trkpt lat="48.93708" lon="7.34563">
        <ele>258</ele>
        <time>2025-06-22T08:09:33Z</time>
      </trkpt>
      <trkpt lat="48.937" lon="7.34557">
        <ele>257</ele>
        <time>2025-06-22T08:09:49Z</time>
      </trkpt>
      <trkpt lat="48.93702" lon="7.34555">
        <ele>257</ele>
        <time>2025-06-22T08:09:56Z</time>
      </trkpt>
      <trkpt lat="48.93705" lon="7.34558">
        <ele>257</ele>
        <time>2025-06-22T08:09:58Z</time>
      </trkpt>
      <trkpt lat="48.93705" lon="7.34561">
        <ele>257</ele>
        <time>2025-06-22T08:09:59Z</time>
      </trkpt>
      <trkpt lat="48.93706" lon="7.34567">
        <ele>258</ele>
        <time>2025-06-22T08:10:01Z</time>
      </trkpt>
      <trkpt lat="48.93707" lon="7.34569">
        <ele>258</ele>
        <time>2025-06-22T08:10:02Z</time>
      </trkpt>
      <trkpt lat="48.93709" lon="7.34575">
        <ele>258</ele>
        <time>2025-06-22T08:10:04Z</time>
      </trkpt>
      <trkpt lat="48.93711" lon="7.34579">
        <ele>258</ele>
        <time>2025-06-22T08:10:06Z</time>
      </trkpt>
      <trkpt lat="48.93712" lon="7.34582">
        <ele>258</ele>
        <time>2025-06-22T08:10:08Z</time>
      </trkpt>
      <trkpt lat="48.93714" lon="7.34583">
        <ele>258</ele>
        <time>2025-06-22T08:10:12Z</time>
      </trkpt>
      <trkpt lat="48.93716" lon="7.34584">
        <ele>258</ele>
        <time>2025-06-22T08:10:41Z</time>
      </trkpt>
      <trkpt lat="48.93714" lon="7.3458">
        <ele>258</ele>
        <time>2025-06-22T08:10:44Z</time>
      </trkpt>
      <trkpt lat="48.93712" lon="7.34578">
        <ele>258</ele>
        <time>2025-06-22T08:10:46Z</time>
      </trkpt>
      <trkpt lat="48.93709" lon="7.34574">
        <ele>258</ele>
        <time>2025-06-22T08:10:48Z</time>
      </trkpt>
      <trkpt lat="48.93707" lon="7.34571">
        <ele>258</ele>
        <time>2025-06-22T08:10:51Z</time>
      </trkpt>
      <trkpt lat="48.937" lon="7.34561">
        <ele>257</ele>
        <time>2025-06-22T08:11:00Z</time>
      </trkpt>
      <trkpt lat="48.93701" lon="7.34556">
        <ele>258</ele>
        <time>2025-06-22T08:11:08Z</time>
      </trkpt>
      <trkpt lat="48.93704" lon="7.34557">
        <ele>257</ele>
        <time>2025-06-22T08:11:12Z</time>
      </trkpt>
      <trkpt lat="48.93706" lon="7.34557">
        <ele>257</ele>
        <time>2025-06-22T08:11:14Z</time>
      </trkpt>
      <trkpt lat="48.93708" lon="7.34555">
        <ele>258</ele>
        <time>2025-06-22T08:11:16Z</time>
      </trkpt>
      <trkpt lat="48.93711" lon="7.34551">
        <ele>258</ele>
        <time>2025-06-22T08:11:18Z</time>
      </trkpt>
      <trkpt lat="48.93712" lon="7.34548">
        <ele>259</ele>
        <time>2025-06-22T08:11:19Z</time>
      </trkpt>
      <trkpt lat="48.93713" lon="7.34546">
        <ele>259</ele>
        <time>2025-06-22T08:11:20Z</time>
      </trkpt>
      <trkpt lat="48.93715" lon="7.34543">
        <ele>259</ele>
        <time>2025-06-22T08:11:21Z</time>
      </trkpt>
      <trkpt lat="48.93722" lon="7.34532">
        <ele>258</ele>
        <time>2025-06-22T08:11:24Z</time>
      </trkpt>
      <trkpt lat="48.93723" lon="7.34529">
        <ele>258</ele>
        <time>2025-06-22T08:11:25Z</time>
      </trkpt>
      <trkpt lat="48.93733" lon="7.34517">
        <ele>258</ele>
        <time>2025-06-22T08:11:29Z</time>
      </trkpt>
      <trkpt lat="48.93743" lon="7.3451">
        <ele>258</ele>
        <time>2025-06-22T08:11:32Z</time>
      </trkpt>
      <trkpt lat="48.93752" lon="7.34504">
        <ele>258</ele>
        <time>2025-06-22T08:11:35Z</time>
      </trkpt>
      <trkpt lat="48.93762" lon="7.34497">
        <ele>258</ele>
        <time>2025-06-22T08:11:38Z</time>
      </trkpt>
      <trkpt lat="48.93772" lon="7.34491">
        <ele>258</ele>
        <time>2025-06-22T08:11:40Z</time>
      </trkpt>
      <trkpt lat="48.93781" lon="7.34483">
        <ele>257</ele>
        <time>2025-06-22T08:11:42Z</time>
      </trkpt>
      <trkpt lat="48.93789" lon="7.34477">
        <ele>258</ele>
        <time>2025-06-22T08:11:44Z</time>
      </trkpt>
      <trkpt lat="48.93803" lon="7.34473">
        <ele>258</ele>
        <time>2025-06-22T08:11:47Z</time>
      </trkpt>
      <trkpt lat="48.93814" lon="7.34469">
        <ele>257</ele>
        <time>2025-06-22T08:11:49Z</time>
      </trkpt>
      <trkpt lat="48.93824" lon="7.34465">
        <ele>257</ele>
        <time>2025-06-22T08:11:51Z</time>
      </trkpt>
      <trkpt lat="48.93837" lon="7.34462">
        <ele>258</ele>
        <time>2025-06-22T08:11:54Z</time>
      </trkpt>
      <trkpt lat="48.93849" lon="7.3446">
        <ele>258</ele>
        <time>2025-06-22T08:11:57Z</time>
      </trkpt>
      <trkpt lat="48.93854" lon="7.34459">
        <ele>258</ele>
        <time>2025-06-22T08:11:58Z</time>
      </trkpt>
      <trkpt lat="48.93859" lon="7.34459">
        <ele>258</ele>
        <time>2025-06-22T08:11:59Z</time>
      </trkpt>
      <trkpt lat="48.93864" lon="7.34459">
        <ele>258</ele>
        <time>2025-06-22T08:12:00Z</time>
      </trkpt>
      <trkpt lat="48.93868" lon="7.34458">
        <ele>258</ele>
        <time>2025-06-22T08:12:01Z</time>
      </trkpt>
      <trkpt lat="48.93877" lon="7.34457">
        <ele>258</ele>
        <time>2025-06-22T08:12:03Z</time>
      </trkpt>
      <trkpt lat="48.93882" lon="7.34457">
        <ele>258</ele>
        <time>2025-06-22T08:12:04Z</time>
      </trkpt>
      <trkpt lat="48.93887" lon="7.34457">
        <ele>258</ele>
        <time>2025-06-22T08:12:05Z</time>
      </trkpt>
      <trkpt lat="48.93891" lon="7.34457">
        <ele>258</ele>
        <time>2025-06-22T08:12:06Z</time>
      </trkpt>
      <trkpt lat="48.93896" lon="7.34457">
        <ele>258</ele>
        <time>2025-06-22T08:12:07Z</time>
      </trkpt>
      <trkpt lat="48.939" lon="7.34458">
        <ele>258</ele>
        <time>2025-06-22T08:12:08Z</time>
      </trkpt>
      <trkpt lat="48.93905" lon="7.34458">
        <ele>258</ele>
        <time>2025-06-22T08:12:09Z</time>
      </trkpt>
      <trkpt lat="48.9391" lon="7.34458">
        <ele>258</ele>
        <time>2025-06-22T08:12:10Z</time>
      </trkpt>
      <trkpt lat="48.93915" lon="7.34459">
        <ele>258</ele>
        <time>2025-06-22T08:12:11Z</time>
      </trkpt>
      <trkpt lat="48.93918" lon="7.34461">
        <ele>258</ele>
        <time>2025-06-22T08:12:12Z</time>
      </trkpt>
      <trkpt lat="48.93927" lon="7.34467">
        <ele>258</ele>
        <time>2025-06-22T08:12:14Z</time>
      </trkpt>
      <trkpt lat="48.93936" lon="7.34473">
        <ele>258</ele>
        <time>2025-06-22T08:12:16Z</time>
      </trkpt>
      <trkpt lat="48.93941" lon="7.34475">
        <ele>258</ele>
        <time>2025-06-22T08:12:17Z</time>
      </trkpt>
      <trkpt lat="48.93946" lon="7.34478">
        <ele>258</ele>
        <time>2025-06-22T08:12:18Z</time>
      </trkpt>
      <trkpt lat="48.93951" lon="7.3448">
        <ele>258</ele>
        <time>2025-06-22T08:12:19Z</time>
      </trkpt>
      <trkpt lat="48.93962" lon="7.34486">
        <ele>258</ele>
        <time>2025-06-22T08:12:22Z</time>
      </trkpt>
      <trkpt lat="48.93973" lon="7.34492">
        <ele>258</ele>
        <time>2025-06-22T08:12:25Z</time>
      </trkpt>
      <trkpt lat="48.93984" lon="7.34499">
        <ele>259</ele>
        <time>2025-06-22T08:12:28Z</time>
      </trkpt>
      <trkpt lat="48.93994" lon="7.34506">
        <ele>260</ele>
        <time>2025-06-22T08:12:31Z</time>
      </trkpt>
      <trkpt lat="48.94004" lon="7.34514">
        <ele>261</ele>
        <time>2025-06-22T08:12:34Z</time>
      </trkpt>
      <trkpt lat="48.94014" lon="7.34523">
        <ele>261</ele>
        <time>2025-06-22T08:12:37Z</time>
      </trkpt>
      <trkpt lat="48.94025" lon="7.34528">
        <ele>262</ele>
        <time>2025-06-22T08:12:40Z</time>
      </trkpt>
      <trkpt lat="48.94035" lon="7.34534">
        <ele>263</ele>
        <time>2025-06-22T08:12:43Z</time>
      </trkpt>
      <trkpt lat="48.94045" lon="7.3454">
        <ele>263</ele>
        <time>2025-06-22T08:12:46Z</time>
      </trkpt>
      <trkpt lat="48.94055" lon="7.34546">
        <ele>263</ele>
        <time>2025-06-22T08:12:49Z</time>
      </trkpt>
      <trkpt lat="48.94065" lon="7.34546">
        <ele>263</ele>
        <time>2025-06-22T08:12:52Z</time>
      </trkpt>
      <trkpt lat="48.94074" lon="7.34542">
        <ele>263</ele>
        <time>2025-06-22T08:12:55Z</time>
      </trkpt>
      <trkpt lat="48.94078" lon="7.34539">
        <ele>263</ele>
        <time>2025-06-22T08:12:56Z</time>
      </trkpt>
      <trkpt lat="48.94089" lon="7.34532">
        <ele>264</ele>
        <time>2025-06-22T08:12:59Z</time>
      </trkpt>
      <trkpt lat="48.94098" lon="7.34524">
        <ele>265</ele>
        <time>2025-06-22T08:13:02Z</time>
      </trkpt>
      <trkpt lat="48.94106" lon="7.34516">
        <ele>265</ele>
        <time>2025-06-22T08:13:05Z</time>
      </trkpt>
      <trkpt lat="48.94116" lon="7.34505">
        <ele>266</ele>
        <time>2025-06-22T08:13:08Z</time>
      </trkpt>
      <trkpt lat="48.94119" lon="7.34501">
        <ele>266</ele>
        <time>2025-06-22T08:13:09Z</time>
      </trkpt>
      <trkpt lat="48.94122" lon="7.34498">
        <ele>266</ele>
        <time>2025-06-22T08:13:10Z</time>
      </trkpt>
      <trkpt lat="48.94125" lon="7.34494">
        <ele>266</ele>
        <time>2025-06-22T08:13:11Z</time>
      </trkpt>
      <trkpt lat="48.94127" lon="7.34491">
        <ele>267</ele>
        <time>2025-06-22T08:13:12Z</time>
      </trkpt>
      <trkpt lat="48.94132" lon="7.34484">
        <ele>267</ele>
        <time>2025-06-22T08:13:14Z</time>
      </trkpt>
      <trkpt lat="48.94134" lon="7.34479">
        <ele>267</ele>
        <time>2025-06-22T08:13:15Z</time>
      </trkpt>
      <trkpt lat="48.94137" lon="7.34475">
        <ele>267</ele>
        <time>2025-06-22T08:13:16Z</time>
      </trkpt>
      <trkpt lat="48.94139" lon="7.3447">
        <ele>267</ele>
        <time>2025-06-22T08:13:17Z</time>
      </trkpt>
      <trkpt lat="48.94141" lon="7.34465">
        <ele>267</ele>
        <time>2025-06-22T08:13:18Z</time>
      </trkpt>
      <trkpt lat="48.94143" lon="7.3446">
        <ele>267</ele>
        <time>2025-06-22T08:13:19Z</time>
      </trkpt>
      <trkpt lat="48.94145" lon="7.34455">
        <ele>267</ele>
        <time>2025-06-22T08:13:20Z</time>
      </trkpt>
      <trkpt lat="48.94147" lon="7.3445">
        <ele>268</ele>
        <time>2025-06-22T08:13:21Z</time>
      </trkpt>
      <trkpt lat="48.94148" lon="7.34445">
        <ele>268</ele>
        <time>2025-06-22T08:13:22Z</time>
      </trkpt>
      <trkpt lat="48.94149" lon="7.3444">
        <ele>268</ele>
        <time>2025-06-22T08:13:23Z</time>
      </trkpt>
      <trkpt lat="48.9415" lon="7.34434">
        <ele>269</ele>
        <time>2025-06-22T08:13:24Z</time>
      </trkpt>
      <trkpt lat="48.94151" lon="7.34429">
        <ele>269</ele>
        <time>2025-06-22T08:13:25Z</time>
      </trkpt>
      <trkpt lat="48.94153" lon="7.34424">
        <ele>269</ele>
        <time>2025-06-22T08:13:26Z</time>
      </trkpt>
      <trkpt lat="48.94154" lon="7.34419">
        <ele>269</ele>
        <time>2025-06-22T08:13:27Z</time>
      </trkpt>
      <trkpt lat="48.94156" lon="7.34409">
        <ele>269</ele>
        <time>2025-06-22T08:13:29Z</time>
      </trkpt>
      <trkpt lat="48.94156" lon="7.34403">
        <ele>269</ele>
        <time>2025-06-22T08:13:30Z</time>
      </trkpt>
      <trkpt lat="48.9416" lon="7.34386">
        <ele>269</ele>
        <time>2025-06-22T08:13:33Z</time>
      </trkpt>
      <trkpt lat="48.94161" lon="7.3438">
        <ele>269</ele>
        <time>2025-06-22T08:13:34Z</time>
      </trkpt>
      <trkpt lat="48.94162" lon="7.34374">
        <ele>269</ele>
        <time>2025-06-22T08:13:35Z</time>
      </trkpt>
      <trkpt lat="48.94166" lon="7.34359">
        <ele>269</ele>
        <time>2025-06-22T08:13:38Z</time>
      </trkpt>
      <trkpt lat="48.94172" lon="7.34345">
        <ele>269</ele>
        <time>2025-06-22T08:13:41Z</time>
      </trkpt>
      <trkpt lat="48.94178" lon="7.34328">
        <ele>269</ele>
        <time>2025-06-22T08:13:44Z</time>
      </trkpt>
      <trkpt lat="48.94181" lon="7.34322">
        <ele>269</ele>
        <time>2025-06-22T08:13:45Z</time>
      </trkpt>
      <trkpt lat="48.94182" lon="7.34316">
        <ele>269</ele>
        <time>2025-06-22T08:13:46Z</time>
      </trkpt>
      <trkpt lat="48.94184" lon="7.3431">
        <ele>269</ele>
        <time>2025-06-22T08:13:47Z</time>
      </trkpt>
      <trkpt lat="48.94185" lon="7.34303">
        <ele>269</ele>
        <time>2025-06-22T08:13:48Z</time>
      </trkpt>
      <trkpt lat="48.94186" lon="7.34298">
        <ele>269</ele>
        <time>2025-06-22T08:13:49Z</time>
      </trkpt>
      <trkpt lat="48.94191" lon="7.34286">
        <ele>269</ele>
        <time>2025-06-22T08:13:51Z</time>
      </trkpt>
      <trkpt lat="48.94193" lon="7.34281">
        <ele>269</ele>
        <time>2025-06-22T08:13:52Z</time>
      </trkpt>
      <trkpt lat="48.94196" lon="7.34275">
        <ele>269</ele>
        <time>2025-06-22T08:13:53Z</time>
      </trkpt>
      <trkpt lat="48.94197" lon="7.3427">
        <ele>269</ele>
        <time>2025-06-22T08:13:54Z</time>
      </trkpt>
      <trkpt lat="48.94199" lon="7.34265">
        <ele>269</ele>
        <time>2025-06-22T08:13:55Z</time>
      </trkpt>
      <trkpt lat="48.94201" lon="7.34257">
        <ele>269</ele>
        <time>2025-06-22T08:13:57Z</time>
      </trkpt>
      <trkpt lat="48.94207" lon="7.34244">
        <ele>269</ele>
        <time>2025-06-22T08:14:00Z</time>
      </trkpt>
      <trkpt lat="48.94211" lon="7.3423">
        <ele>269</ele>
        <time>2025-06-22T08:14:02Z</time>
      </trkpt>
      <trkpt lat="48.94215" lon="7.34218">
        <ele>269</ele>
        <time>2025-06-22T08:14:04Z</time>
      </trkpt>
      <trkpt lat="48.94221" lon="7.34201">
        <ele>270</ele>
        <time>2025-06-22T08:14:07Z</time>
      </trkpt>
      <trkpt lat="48.94228" lon="7.34187">
        <ele>270</ele>
        <time>2025-06-22T08:14:10Z</time>
      </trkpt>
      <trkpt lat="48.94236" lon="7.34174">
        <ele>271</ele>
        <time>2025-06-22T08:14:13Z</time>
      </trkpt>
      <trkpt lat="48.94243" lon="7.34162">
        <ele>271</ele>
        <time>2025-06-22T08:14:16Z</time>
      </trkpt>
      <trkpt lat="48.94252" lon="7.34153">
        <ele>271</ele>
        <time>2025-06-22T08:14:19Z</time>
      </trkpt>
      <trkpt lat="48.94259" lon="7.34144">
        <ele>271</ele>
        <time>2025-06-22T08:14:22Z</time>
      </trkpt>
      <trkpt lat="48.94266" lon="7.34135">
        <ele>272</ele>
        <time>2025-06-22T08:14:25Z</time>
      </trkpt>
      <trkpt lat="48.94273" lon="7.3412">
        <ele>272</ele>
        <time>2025-06-22T08:14:28Z</time>
      </trkpt>
      <trkpt lat="48.94282" lon="7.34108">
        <ele>272</ele>
        <time>2025-06-22T08:14:31Z</time>
      </trkpt>
      <trkpt lat="48.9429" lon="7.34099">
        <ele>273</ele>
        <time>2025-06-22T08:14:34Z</time>
      </trkpt>
      <trkpt lat="48.94301" lon="7.34091">
        <ele>273</ele>
        <time>2025-06-22T08:14:37Z</time>
      </trkpt>
      <trkpt lat="48.94309" lon="7.34084">
        <ele>273</ele>
        <time>2025-06-22T08:14:40Z</time>
      </trkpt>
      <trkpt lat="48.94321" lon="7.3408">
        <ele>273</ele>
        <time>2025-06-22T08:14:43Z</time>
      </trkpt>
      <trkpt lat="48.94331" lon="7.34089">
        <ele>274</ele>
        <time>2025-06-22T08:14:46Z</time>
      </trkpt>
      <trkpt lat="48.94338" lon="7.34102">
        <ele>274</ele>
        <time>2025-06-22T08:14:49Z</time>
      </trkpt>
      <trkpt lat="48.94339" lon="7.34115">
        <ele>274</ele>
        <time>2025-06-22T08:14:52Z</time>
      </trkpt>
      <trkpt lat="48.94334" lon="7.34129">
        <ele>275</ele>
        <time>2025-06-22T08:14:56Z</time>
      </trkpt>
      <trkpt lat="48.94326" lon="7.34141">
        <ele>276</ele>
        <time>2025-06-22T08:14:59Z</time>
      </trkpt>
      <trkpt lat="48.94318" lon="7.34148">
        <ele>276</ele>
        <time>2025-06-22T08:15:03Z</time>
      </trkpt>
      <trkpt lat="48.94316" lon="7.34151">
        <ele>277</ele>
        <time>2025-06-22T08:15:04Z</time>
      </trkpt>
      <trkpt lat="48.9431" lon="7.34158">
        <ele>277</ele>
        <time>2025-06-22T08:15:07Z</time>
      </trkpt>
      <trkpt lat="48.94304" lon="7.34169">
        <ele>277</ele>
        <time>2025-06-22T08:15:11Z</time>
      </trkpt>
      <trkpt lat="48.94303" lon="7.34172">
        <ele>279</ele>
        <time>2025-06-22T08:15:12Z</time>
      </trkpt>
      <trkpt lat="48.94301" lon="7.34175">
        <ele>279</ele>
        <time>2025-06-22T08:15:13Z</time>
      </trkpt>
      <trkpt lat="48.943" lon="7.34177">
        <ele>279</ele>
        <time>2025-06-22T08:15:14Z</time>
      </trkpt>
      <trkpt lat="48.94298" lon="7.34179">
        <ele>279</ele>
        <time>2025-06-22T08:15:15Z</time>
      </trkpt>
      <trkpt lat="48.94291" lon="7.34191">
        <ele>281</ele>
        <time>2025-06-22T08:15:19Z</time>
      </trkpt>
      <trkpt lat="48.94287" lon="7.342">
        <ele>281</ele>
        <time>2025-06-22T08:15:22Z</time>
      </trkpt>
      <trkpt lat="48.94285" lon="7.34206">
        <ele>281</ele>
        <time>2025-06-22T08:15:24Z</time>
      </trkpt>
      <trkpt lat="48.94281" lon="7.34221">
        <ele>281</ele>
        <time>2025-06-22T08:15:28Z</time>
      </trkpt>
      <trkpt lat="48.94277" lon="7.34237">
        <ele>282</ele>
        <time>2025-06-22T08:15:32Z</time>
      </trkpt>
      <trkpt lat="48.94275" lon="7.34239">
        <ele>283</ele>
        <time>2025-06-22T08:15:33Z</time>
      </trkpt>
      <trkpt lat="48.94275" lon="7.34245">
        <ele>283</ele>
        <time>2025-06-22T08:15:35Z</time>
      </trkpt>
      <trkpt lat="48.94274" lon="7.34254">
        <ele>284</ele>
        <time>2025-06-22T08:15:38Z</time>
      </trkpt>
      <trkpt lat="48.94272" lon="7.34258">
        <ele>284</ele>
        <time>2025-06-22T08:15:39Z</time>
      </trkpt>
      <trkpt lat="48.94271" lon="7.34261">
        <ele>284</ele>
        <time>2025-06-22T08:15:40Z</time>
      </trkpt>
      <trkpt lat="48.94269" lon="7.34265">
        <ele>284</ele>
        <time>2025-06-22T08:15:41Z</time>
      </trkpt>
      <trkpt lat="48.94268" lon="7.34269">
        <ele>285</ele>
        <time>2025-06-22T08:15:42Z</time>
      </trkpt>
      <trkpt lat="48.94268" lon="7.34273">
        <ele>285</ele>
        <time>2025-06-22T08:15:43Z</time>
      </trkpt>
      <trkpt lat="48.94267" lon="7.34276">
        <ele>285</ele>
        <time>2025-06-22T08:15:44Z</time>
      </trkpt>
      <trkpt lat="48.94266" lon="7.34279">
        <ele>285</ele>
        <time>2025-06-22T08:15:45Z</time>
      </trkpt>
      <trkpt lat="48.94266" lon="7.34282">
        <ele>285</ele>
        <time>2025-06-22T08:15:46Z</time>
      </trkpt>
      <trkpt lat="48.94263" lon="7.34293">
        <ele>285</ele>
        <time>2025-06-22T08:15:49Z</time>
      </trkpt>
      <trkpt lat="48.94262" lon="7.34297">
        <ele>286</ele>
        <time>2025-06-22T08:15:50Z</time>
      </trkpt>
      <trkpt lat="48.94262" lon="7.34301">
        <ele>286</ele>
        <time>2025-06-22T08:15:51Z</time>
      </trkpt>
      <trkpt lat="48.94261" lon="7.34305">
        <ele>287</ele>
        <time>2025-06-22T08:15:52Z</time>
      </trkpt>
      <trkpt lat="48.9426" lon="7.34309">
        <ele>287</ele>
        <time>2025-06-22T08:15:53Z</time>
      </trkpt>
      <trkpt lat="48.9426" lon="7.34312">
        <ele>287</ele>
        <time>2025-06-22T08:15:54Z</time>
      </trkpt>
      <trkpt lat="48.94259" lon="7.34315">
        <ele>287</ele>
        <time>2025-06-22T08:15:55Z</time>
      </trkpt>
      <trkpt lat="48.94259" lon="7.34318">
        <ele>287</ele>
        <time>2025-06-22T08:15:56Z</time>
      </trkpt>
      <trkpt lat="48.94259" lon="7.34322">
        <ele>287</ele>
        <time>2025-06-22T08:15:57Z</time>
      </trkpt>
      <trkpt lat="48.94259" lon="7.34326">
        <ele>287</ele>
        <time>2025-06-22T08:15:58Z</time>
      </trkpt>
      <trkpt lat="48.94259" lon="7.34329">
        <ele>288</ele>
        <time>2025-06-22T08:15:59Z</time>
      </trkpt>
      <trkpt lat="48.94259" lon="7.34333">
        <ele>288</ele>
        <time>2025-06-22T08:16:00Z</time>
      </trkpt>
      <trkpt lat="48.94259" lon="7.34336">
        <ele>288</ele>
        <time>2025-06-22T08:16:01Z</time>
      </trkpt>
      <trkpt lat="48.9426" lon="7.34344">
        <ele>288</ele>
        <time>2025-06-22T08:16:03Z</time>
      </trkpt>
      <trkpt lat="48.9426" lon="7.34348">
        <ele>289</ele>
        <time>2025-06-22T08:16:04Z</time>
      </trkpt>
      <trkpt lat="48.9426" lon="7.34353">
        <ele>289</ele>
        <time>2025-06-22T08:16:05Z</time>
      </trkpt>
      <trkpt lat="48.9426" lon="7.34358">
        <ele>290</ele>
        <time>2025-06-22T08:16:06Z</time>
      </trkpt>
      <trkpt lat="48.9426" lon="7.34362">
        <ele>290</ele>
        <time>2025-06-22T08:16:07Z</time>
      </trkpt>
      <trkpt lat="48.94261" lon="7.34366">
        <ele>290</ele>
        <time>2025-06-22T08:16:08Z</time>
      </trkpt>
      <trkpt lat="48.94262" lon="7.3437">
        <ele>290</ele>
        <time>2025-06-22T08:16:09Z</time>
      </trkpt>
      <trkpt lat="48.94263" lon="7.34374">
        <ele>290</ele>
        <time>2025-06-22T08:16:10Z</time>
      </trkpt>
      <trkpt lat="48.94264" lon="7.34378">
        <ele>290</ele>
        <time>2025-06-22T08:16:11Z</time>
      </trkpt>
      <trkpt lat="48.94266" lon="7.34382">
        <ele>291</ele>
        <time>2025-06-22T08:16:12Z</time>
      </trkpt>
      <trkpt lat="48.9427" lon="7.34395">
        <ele>292</ele>
        <time>2025-06-22T08:16:15Z</time>
      </trkpt>
      <trkpt lat="48.94273" lon="7.34411">
        <ele>293</ele>
        <time>2025-06-22T08:16:19Z</time>
      </trkpt>
      <trkpt lat="48.94276" lon="7.34417">
        <ele>293</ele>
        <time>2025-06-22T08:16:21Z</time>
      </trkpt>
      <trkpt lat="48.94277" lon="7.34421">
        <ele>293</ele>
        <time>2025-06-22T08:16:22Z</time>
      </trkpt>
      <trkpt lat="48.94279" lon="7.34424">
        <ele>293</ele>
        <time>2025-06-22T08:16:23Z</time>
      </trkpt>
      <trkpt lat="48.94279" lon="7.34427">
        <ele>293</ele>
        <time>2025-06-22T08:16:24Z</time>
      </trkpt>
      <trkpt lat="48.94284" lon="7.34442">
        <ele>293</ele>
        <time>2025-06-22T08:16:29Z</time>
      </trkpt>
      <trkpt lat="48.94285" lon="7.34445">
        <ele>295</ele>
        <time>2025-06-22T08:16:30Z</time>
      </trkpt>
      <trkpt lat="48.94286" lon="7.34449">
        <ele>295</ele>
        <time>2025-06-22T08:16:31Z</time>
      </trkpt>
      <trkpt lat="48.94291" lon="7.34461">
        <ele>296</ele>
        <time>2025-06-22T08:16:35Z</time>
      </trkpt>
      <trkpt lat="48.94292" lon="7.34465">
        <ele>297</ele>
        <time>2025-06-22T08:16:36Z</time>
      </trkpt>
      <trkpt lat="48.94297" lon="7.34477">
        <ele>298</ele>
        <time>2025-06-22T08:16:40Z</time>
      </trkpt>
      <trkpt lat="48.94303" lon="7.3449">
        <ele>298</ele>
        <time>2025-06-22T08:16:44Z</time>
      </trkpt>
      <trkpt lat="48.94309" lon="7.34504">
        <ele>298</ele>
        <time>2025-06-22T08:16:48Z</time>
      </trkpt>
      <trkpt lat="48.94311" lon="7.34507">
        <ele>300</ele>
        <time>2025-06-22T08:16:49Z</time>
      </trkpt>
      <trkpt lat="48.94312" lon="7.34509">
        <ele>300</ele>
        <time>2025-06-22T08:16:50Z</time>
      </trkpt>
      <trkpt lat="48.94313" lon="7.34512">
        <ele>300</ele>
        <time>2025-06-22T08:16:51Z</time>
      </trkpt>
      <trkpt lat="48.94315" lon="7.34515">
        <ele>300</ele>
        <time>2025-06-22T08:16:52Z</time>
      </trkpt>
      <trkpt lat="48.94316" lon="7.34518">
        <ele>300</ele>
        <time>2025-06-22T08:16:53Z</time>
      </trkpt>
      <trkpt lat="48.94317" lon="7.34521">
        <ele>300</ele>
        <time>2025-06-22T08:16:54Z</time>
      </trkpt>
      <trkpt lat="48.94318" lon="7.34523">
        <ele>301</ele>
        <time>2025-06-22T08:16:55Z</time>
      </trkpt>
      <trkpt lat="48.94319" lon="7.34526">
        <ele>301</ele>
        <time>2025-06-22T08:16:56Z</time>
      </trkpt>
      <trkpt lat="48.9432" lon="7.3453">
        <ele>300</ele>
        <time>2025-06-22T08:16:57Z</time>
      </trkpt>
      <trkpt lat="48.94321" lon="7.34532">
        <ele>300</ele>
        <time>2025-06-22T08:16:58Z</time>
      </trkpt>
      <trkpt lat="48.94323" lon="7.34534">
        <ele>301</ele>
        <time>2025-06-22T08:16:59Z</time>
      </trkpt>
      <trkpt lat="48.9433" lon="7.34545">
        <ele>302</ele>
        <time>2025-06-22T08:17:04Z</time>
      </trkpt>
      <trkpt lat="48.94336" lon="7.34558">
        <ele>303</ele>
        <time>2025-06-22T08:17:09Z</time>
      </trkpt>
      <trkpt lat="48.94341" lon="7.34564">
        <ele>303</ele>
        <time>2025-06-22T08:17:12Z</time>
      </trkpt>
      <trkpt lat="48.94349" lon="7.34575">
        <ele>305</ele>
        <time>2025-06-22T08:17:17Z</time>
      </trkpt>
      <trkpt lat="48.94358" lon="7.34579">
        <ele>306</ele>
        <time>2025-06-22T08:17:21Z</time>
      </trkpt>
      <trkpt lat="48.94363" lon="7.34566">
        <ele>306</ele>
        <time>2025-06-22T08:17:29Z</time>
      </trkpt>
      <trkpt lat="48.94357" lon="7.34554">
        <ele>310</ele>
        <time>2025-06-22T08:17:33Z</time>
      </trkpt>
      <trkpt lat="48.94353" lon="7.34544">
        <ele>310</ele>
        <time>2025-06-22T08:17:36Z</time>
      </trkpt>
      <trkpt lat="48.94348" lon="7.34533">
        <ele>311</ele>
        <time>2025-06-22T08:17:40Z</time>
      </trkpt>
      <trkpt lat="48.94342" lon="7.34518">
        <ele>312</ele>
        <time>2025-06-22T08:17:45Z</time>
      </trkpt>
      <trkpt lat="48.94341" lon="7.3451">
        <ele>313</ele>
        <time>2025-06-22T08:17:47Z</time>
      </trkpt>
      <trkpt lat="48.9434" lon="7.34504">
        <ele>313</ele>
        <time>2025-06-22T08:17:49Z</time>
      </trkpt>
      <trkpt lat="48.94339" lon="7.345">
        <ele>313</ele>
        <time>2025-06-22T08:17:50Z</time>
      </trkpt>
      <trkpt lat="48.94338" lon="7.34493">
        <ele>313</ele>
        <time>2025-06-22T08:17:52Z</time>
      </trkpt>
      <trkpt lat="48.94336" lon="7.34479">
        <ele>315</ele>
        <time>2025-06-22T08:17:58Z</time>
      </trkpt>
      <trkpt lat="48.94335" lon="7.34472">
        <ele>315</ele>
        <time>2025-06-22T08:18:00Z</time>
      </trkpt>
      <trkpt lat="48.94333" lon="7.34463">
        <ele>315</ele>
        <time>2025-06-22T08:18:03Z</time>
      </trkpt>
      <trkpt lat="48.94332" lon="7.34461">
        <ele>316</ele>
        <time>2025-06-22T08:18:04Z</time>
      </trkpt>
      <trkpt lat="48.94332" lon="7.34457">
        <ele>316</ele>
        <time>2025-06-22T08:18:05Z</time>
      </trkpt>
      <trkpt lat="48.94332" lon="7.34454">
        <ele>316</ele>
        <time>2025-06-22T08:18:06Z</time>
      </trkpt>
      <trkpt lat="48.94332" lon="7.34451">
        <ele>316</ele>
        <time>2025-06-22T08:18:07Z</time>
      </trkpt>
      <trkpt lat="48.94332" lon="7.34447">
        <ele>316</ele>
        <time>2025-06-22T08:18:09Z</time>
      </trkpt>
      <trkpt lat="48.94331" lon="7.34432">
        <ele>317</ele>
        <time>2025-06-22T08:18:14Z</time>
      </trkpt>
      <trkpt lat="48.9433" lon="7.34418">
        <ele>319</ele>
        <time>2025-06-22T08:18:19Z</time>
      </trkpt>
      <trkpt lat="48.94333" lon="7.34403">
        <ele>319</ele>
        <time>2025-06-22T08:18:23Z</time>
      </trkpt>
      <trkpt lat="48.94334" lon="7.34388">
        <ele>322</ele>
        <time>2025-06-22T08:18:28Z</time>
      </trkpt>
      <trkpt lat="48.94335" lon="7.34372">
        <ele>322</ele>
        <time>2025-06-22T08:18:33Z</time>
      </trkpt>
      <trkpt lat="48.94337" lon="7.34357">
        <ele>322</ele>
        <time>2025-06-22T08:18:37Z</time>
      </trkpt>
      <trkpt lat="48.94339" lon="7.34343">
        <ele>323</ele>
        <time>2025-06-22T08:18:41Z</time>
      </trkpt>
      <trkpt lat="48.9434" lon="7.3434">
        <ele>323</ele>
        <time>2025-06-22T08:18:42Z</time>
      </trkpt>
      <trkpt lat="48.9434" lon="7.34336">
        <ele>323</ele>
        <time>2025-06-22T08:18:43Z</time>
      </trkpt>
      <trkpt lat="48.94342" lon="7.34329">
        <ele>323</ele>
        <time>2025-06-22T08:18:45Z</time>
      </trkpt>
      <trkpt lat="48.94343" lon="7.34326">
        <ele>324</ele>
        <time>2025-06-22T08:18:46Z</time>
      </trkpt>
      <trkpt lat="48.94344" lon="7.34323">
        <ele>324</ele>
        <time>2025-06-22T08:18:47Z</time>
      </trkpt>
      <trkpt lat="48.94345" lon="7.34319">
        <ele>324</ele>
        <time>2025-06-22T08:18:48Z</time>
      </trkpt>
      <trkpt lat="48.94346" lon="7.34315">
        <ele>324</ele>
        <time>2025-06-22T08:18:49Z</time>
      </trkpt>
      <trkpt lat="48.94347" lon="7.3431">
        <ele>325</ele>
        <time>2025-06-22T08:18:50Z</time>
      </trkpt>
      <trkpt lat="48.94348" lon="7.34306">
        <ele>325</ele>
        <time>2025-06-22T08:18:51Z</time>
      </trkpt>
      <trkpt lat="48.94349" lon="7.34303">
        <ele>325</ele>
        <time>2025-06-22T08:18:52Z</time>
      </trkpt>
      <trkpt lat="48.94351" lon="7.34299">
        <ele>325</ele>
        <time>2025-06-22T08:18:53Z</time>
      </trkpt>
      <trkpt lat="48.94352" lon="7.34295">
        <ele>326</ele>
        <time>2025-06-22T08:18:54Z</time>
      </trkpt>
      <trkpt lat="48.94353" lon="7.34291">
        <ele>326</ele>
        <time>2025-06-22T08:18:55Z</time>
      </trkpt>
      <trkpt lat="48.94354" lon="7.34288">
        <ele>326</ele>
        <time>2025-06-22T08:18:56Z</time>
      </trkpt>
      <trkpt lat="48.94356" lon="7.34285">
        <ele>326</ele>
        <time>2025-06-22T08:18:57Z</time>
      </trkpt>
      <trkpt lat="48.94358" lon="7.34282">
        <ele>326</ele>
        <time>2025-06-22T08:18:58Z</time>
      </trkpt>
      <trkpt lat="48.9436" lon="7.34279">
        <ele>326</ele>
        <time>2025-06-22T08:18:59Z</time>
      </trkpt>
      <trkpt lat="48.94362" lon="7.34276">
        <ele>326</ele>
        <time>2025-06-22T08:19:00Z</time>
      </trkpt>
      <trkpt lat="48.94365" lon="7.34273">
        <ele>327</ele>
        <time>2025-06-22T08:19:01Z</time>
      </trkpt>
      <trkpt lat="48.94367" lon="7.34271">
        <ele>327</ele>
        <time>2025-06-22T08:19:02Z</time>
      </trkpt>
      <trkpt lat="48.9437" lon="7.34268">
        <ele>327</ele>
        <time>2025-06-22T08:19:03Z</time>
      </trkpt>
      <trkpt lat="48.94373" lon="7.34265">
        <ele>327</ele>
        <time>2025-06-22T08:19:04Z</time>
      </trkpt>
      <trkpt lat="48.94375" lon="7.34263">
        <ele>328</ele>
        <time>2025-06-22T08:19:05Z</time>
      </trkpt>
      <trkpt lat="48.94377" lon="7.34261">
        <ele>328</ele>
        <time>2025-06-22T08:19:06Z</time>
      </trkpt>
      <trkpt lat="48.9438" lon="7.3426">
        <ele>328</ele>
        <time>2025-06-22T08:19:07Z</time>
      </trkpt>
      <trkpt lat="48.94382" lon="7.34258">
        <ele>328</ele>
        <time>2025-06-22T08:19:08Z</time>
      </trkpt>
      <trkpt lat="48.94384" lon="7.34257">
        <ele>328</ele>
        <time>2025-06-22T08:19:09Z</time>
      </trkpt>
      <trkpt lat="48.94387" lon="7.34256">
        <ele>329</ele>
        <time>2025-06-22T08:19:10Z</time>
      </trkpt>
      <trkpt lat="48.94389" lon="7.34255">
        <ele>329</ele>
        <time>2025-06-22T08:19:11Z</time>
      </trkpt>
      <trkpt lat="48.9439" lon="7.34254">
        <ele>329</ele>
        <time>2025-06-22T08:19:12Z</time>
      </trkpt>
      <trkpt lat="48.94399" lon="7.3425">
        <ele>329</ele>
        <time>2025-06-22T08:19:16Z</time>
      </trkpt>
      <trkpt lat="48.94404" lon="7.34247">
        <ele>329</ele>
        <time>2025-06-22T08:19:18Z</time>
      </trkpt>
      <trkpt lat="48.94407" lon="7.34246">
        <ele>330</ele>
        <time>2025-06-22T08:19:19Z</time>
      </trkpt>
      <trkpt lat="48.9441" lon="7.34244">
        <ele>330</ele>
        <time>2025-06-22T08:19:20Z</time>
      </trkpt>
      <trkpt lat="48.94413" lon="7.34243">
        <ele>330</ele>
        <time>2025-06-22T08:19:21Z</time>
      </trkpt>
      <trkpt lat="48.94415" lon="7.34241">
        <ele>331</ele>
        <time>2025-06-22T08:19:22Z</time>
      </trkpt>
      <trkpt lat="48.94418" lon="7.3424">
        <ele>331</ele>
        <time>2025-06-22T08:19:24Z</time>
      </trkpt>
      <trkpt lat="48.94429" lon="7.34237">
        <ele>332</ele>
        <time>2025-06-22T08:19:29Z</time>
      </trkpt>
      <trkpt lat="48.94439" lon="7.34234">
        <ele>334</ele>
        <time>2025-06-22T08:19:33Z</time>
      </trkpt>
      <trkpt lat="48.94447" lon="7.34228">
        <ele>334</ele>
        <time>2025-06-22T08:19:38Z</time>
      </trkpt>
      <trkpt lat="48.94457" lon="7.34226">
        <ele>335</ele>
        <time>2025-06-22T08:19:43Z</time>
      </trkpt>
      <trkpt lat="48.94467" lon="7.34223">
        <ele>335</ele>
        <time>2025-06-22T08:19:47Z</time>
      </trkpt>
      <trkpt lat="48.94472" lon="7.34224">
        <ele>336</ele>
        <time>2025-06-22T08:19:49Z</time>
      </trkpt>
      <trkpt lat="48.94475" lon="7.34225">
        <ele>336</ele>
        <time>2025-06-22T08:19:50Z</time>
      </trkpt>
      <trkpt lat="48.94477" lon="7.34225">
        <ele>337</ele>
        <time>2025-06-22T08:19:51Z</time>
      </trkpt>
      <trkpt lat="48.9448" lon="7.34225">
        <ele>337</ele>
        <time>2025-06-22T08:19:52Z</time>
      </trkpt>
      <trkpt lat="48.94482" lon="7.34225">
        <ele>338</ele>
        <time>2025-06-22T08:19:53Z</time>
      </trkpt>
      <trkpt lat="48.94484" lon="7.34225">
        <ele>338</ele>
        <time>2025-06-22T08:19:54Z</time>
      </trkpt>
      <trkpt lat="48.94486" lon="7.34226">
        <ele>338</ele>
        <time>2025-06-22T08:19:55Z</time>
      </trkpt>
      <trkpt lat="48.94488" lon="7.34226">
        <ele>338</ele>
        <time>2025-06-22T08:19:56Z</time>
      </trkpt>
      <trkpt lat="48.9449" lon="7.34227">
        <ele>338</ele>
        <time>2025-06-22T08:19:57Z</time>
      </trkpt>
      <trkpt lat="48.94492" lon="7.34227">
        <ele>338</ele>
        <time>2025-06-22T08:19:58Z</time>
      </trkpt>
      <trkpt lat="48.94494" lon="7.34228">
        <ele>338</ele>
        <time>2025-06-22T08:19:59Z</time>
      </trkpt>
      <trkpt lat="48.94497" lon="7.34229">
        <ele>338</ele>
        <time>2025-06-22T08:20:01Z</time>
      </trkpt>
      <trkpt lat="48.94501" lon="7.34229">
        <ele>340</ele>
        <time>2025-06-22T08:20:03Z</time>
      </trkpt>
      <trkpt lat="48.94503" lon="7.3423">
        <ele>340</ele>
        <time>2025-06-22T08:20:04Z</time>
      </trkpt>
      <trkpt lat="48.94505" lon="7.3423">
        <ele>340</ele>
        <time>2025-06-22T08:20:05Z</time>
      </trkpt>
      <trkpt lat="48.94508" lon="7.34232">
        <ele>340</ele>
        <time>2025-06-22T08:20:07Z</time>
      </trkpt>
      <trkpt lat="48.94517" lon="7.34234">
        <ele>340</ele>
        <time>2025-06-22T08:20:11Z</time>
      </trkpt>
      <trkpt lat="48.94527" lon="7.34237">
        <ele>341</ele>
        <time>2025-06-22T08:20:14Z</time>
      </trkpt>
      <trkpt lat="48.94532" lon="7.3424">
        <ele>341</ele>
        <time>2025-06-22T08:20:16Z</time>
      </trkpt>
      <trkpt lat="48.94534" lon="7.3424">
        <ele>342</ele>
        <time>2025-06-22T08:20:17Z</time>
      </trkpt>
      <trkpt lat="48.94537" lon="7.34241">
        <ele>342</ele>
        <time>2025-06-22T08:20:18Z</time>
      </trkpt>
      <trkpt lat="48.94539" lon="7.34241">
        <ele>342</ele>
        <time>2025-06-22T08:20:19Z</time>
      </trkpt>
      <trkpt lat="48.94542" lon="7.34241">
        <ele>342</ele>
        <time>2025-06-22T08:20:20Z</time>
      </trkpt>
      <trkpt lat="48.94544" lon="7.34241">
        <ele>343</ele>
        <time>2025-06-22T08:20:21Z</time>
      </trkpt>
      <trkpt lat="48.94546" lon="7.34241">
        <ele>344</ele>
        <time>2025-06-22T08:20:22Z</time>
      </trkpt>
      <trkpt lat="48.94552" lon="7.34241">
        <ele>344</ele>
        <time>2025-06-22T08:20:24Z</time>
      </trkpt>
      <trkpt lat="48.94554" lon="7.34242">
        <ele>344</ele>
        <time>2025-06-22T08:20:26Z</time>
      </trkpt>
      <trkpt lat="48.94563" lon="7.34243">
        <ele>344</ele>
        <time>2025-06-22T08:20:30Z</time>
      </trkpt>
      <trkpt lat="48.94572" lon="7.34249">
        <ele>347</ele>
        <time>2025-06-22T08:20:35Z</time>
      </trkpt>
      <trkpt lat="48.94583" lon="7.34252">
        <ele>347</ele>
        <time>2025-06-22T08:20:40Z</time>
      </trkpt>
      <trkpt lat="48.94593" lon="7.34252">
        <ele>349</ele>
        <time>2025-06-22T08:20:45Z</time>
      </trkpt>
      <trkpt lat="48.94602" lon="7.34252">
        <ele>350</ele>
        <time>2025-06-22T08:20:49Z</time>
      </trkpt>
      <trkpt lat="48.94609" lon="7.34251">
        <ele>351</ele>
        <time>2025-06-22T08:20:53Z</time>
      </trkpt>
      <trkpt lat="48.94611" lon="7.34252">
        <ele>351</ele>
        <time>2025-06-22T08:20:54Z</time>
      </trkpt>
      <trkpt lat="48.94613" lon="7.34252">
        <ele>351</ele>
        <time>2025-06-22T08:20:55Z</time>
      </trkpt>
      <trkpt lat="48.94615" lon="7.34252">
        <ele>352</ele>
        <time>2025-06-22T08:20:56Z</time>
      </trkpt>
      <trkpt lat="48.94618" lon="7.34252">
        <ele>352</ele>
        <time>2025-06-22T08:20:58Z</time>
      </trkpt>
      <trkpt lat="48.94629" lon="7.34254">
        <ele>353</ele>
        <time>2025-06-22T08:21:03Z</time>
      </trkpt>
      <trkpt lat="48.94639" lon="7.34257">
        <ele>354</ele>
        <time>2025-06-22T08:21:07Z</time>
      </trkpt>
      <trkpt lat="48.94649" lon="7.34259">
        <ele>355</ele>
        <time>2025-06-22T08:21:11Z</time>
      </trkpt>
      <trkpt lat="48.94658" lon="7.34263">
        <ele>356</ele>
        <time>2025-06-22T08:21:15Z</time>
      </trkpt>
      <trkpt lat="48.94668" lon="7.34264">
        <ele>356</ele>
        <time>2025-06-22T08:21:19Z</time>
      </trkpt>
      <trkpt lat="48.94678" lon="7.34264">
        <ele>359</ele>
        <time>2025-06-22T08:21:24Z</time>
      </trkpt>
      <trkpt lat="48.94689" lon="7.34268">
        <ele>360</ele>
        <time>2025-06-22T08:21:29Z</time>
      </trkpt>
      <trkpt lat="48.94694" lon="7.34269">
        <ele>361</ele>
        <time>2025-06-22T08:21:32Z</time>
      </trkpt>
      <trkpt lat="48.94697" lon="7.3427">
        <ele>362</ele>
        <time>2025-06-22T08:21:34Z</time>
      </trkpt>
      <trkpt lat="48.94701" lon="7.34272">
        <ele>362</ele>
        <time>2025-06-22T08:21:37Z</time>
      </trkpt>
      <trkpt lat="48.94711" lon="7.34269">
        <ele>362</ele>
        <time>2025-06-22T08:21:43Z</time>
      </trkpt>
      <trkpt lat="48.94717" lon="7.34268">
        <ele>366</ele>
        <time>2025-06-22T08:21:47Z</time>
      </trkpt>
      <trkpt lat="48.94721" lon="7.34265">
        <ele>367</ele>
        <time>2025-06-22T08:21:50Z</time>
      </trkpt>
      <trkpt lat="48.94723" lon="7.34264">
        <ele>368</ele>
        <time>2025-06-22T08:21:52Z</time>
      </trkpt>
      <trkpt lat="48.94727" lon="7.34263">
        <ele>368</ele>
        <time>2025-06-22T08:21:54Z</time>
      </trkpt>
      <trkpt lat="48.9473" lon="7.34262">
        <ele>369</ele>
        <time>2025-06-22T08:21:56Z</time>
      </trkpt>
      <trkpt lat="48.94732" lon="7.34262">
        <ele>369</ele>
        <time>2025-06-22T08:21:57Z</time>
      </trkpt>
      <trkpt lat="48.94734" lon="7.34262">
        <ele>369</ele>
        <time>2025-06-22T08:21:58Z</time>
      </trkpt>
      <trkpt lat="48.94736" lon="7.34262">
        <ele>370</ele>
        <time>2025-06-22T08:21:59Z</time>
      </trkpt>
      <trkpt lat="48.94737" lon="7.34264">
        <ele>370</ele>
        <time>2025-06-22T08:22:00Z</time>
      </trkpt>
      <trkpt lat="48.94739" lon="7.34268">
        <ele>370</ele>
        <time>2025-06-22T08:22:01Z</time>
      </trkpt>
      <trkpt lat="48.94741" lon="7.34272">
        <ele>371</ele>
        <time>2025-06-22T08:22:02Z</time>
      </trkpt>
      <trkpt lat="48.94742" lon="7.34275">
        <ele>371</ele>
        <time>2025-06-22T08:22:03Z</time>
      </trkpt>
      <trkpt lat="48.94743" lon="7.34279">
        <ele>371</ele>
        <time>2025-06-22T08:22:04Z</time>
      </trkpt>
      <trkpt lat="48.94745" lon="7.34283">
        <ele>371</ele>
        <time>2025-06-22T08:22:05Z</time>
      </trkpt>
      <trkpt lat="48.94747" lon="7.34286">
        <ele>371</ele>
        <time>2025-06-22T08:22:06Z</time>
      </trkpt>
      <trkpt lat="48.94748" lon="7.3429">
        <ele>371</ele>
        <time>2025-06-22T08:22:07Z</time>
      </trkpt>
      <trkpt lat="48.9475" lon="7.34293">
        <ele>371</ele>
        <time>2025-06-22T08:22:08Z</time>
      </trkpt>
      <trkpt lat="48.94751" lon="7.34296">
        <ele>371</ele>
        <time>2025-06-22T08:22:09Z</time>
      </trkpt>
      <trkpt lat="48.94752" lon="7.34299">
        <ele>371</ele>
        <time>2025-06-22T08:22:10Z</time>
      </trkpt>
      <trkpt lat="48.94754" lon="7.34301">
        <ele>372</ele>
        <time>2025-06-22T08:22:11Z</time>
      </trkpt>
      <trkpt lat="48.94756" lon="7.34303">
        <ele>372</ele>
        <time>2025-06-22T08:22:13Z</time>
      </trkpt>
      <trkpt lat="48.94759" lon="7.34302">
        <ele>372</ele>
        <time>2025-06-22T08:22:15Z</time>
      </trkpt>
      <trkpt lat="48.94763" lon="7.343">
        <ele>372</ele>
        <time>2025-06-22T08:22:17Z</time>
      </trkpt>
      <trkpt lat="48.94765" lon="7.34297">
        <ele>372</ele>
        <time>2025-06-22T08:22:19Z</time>
      </trkpt>
      <trkpt lat="48.94768" lon="7.34294">
        <ele>373</ele>
        <time>2025-06-22T08:22:21Z</time>
      </trkpt>
      <trkpt lat="48.9477" lon="7.34293">
        <ele>373</ele>
        <time>2025-06-22T08:22:22Z</time>
      </trkpt>
      <trkpt lat="48.94771" lon="7.3429">
        <ele>373</ele>
        <time>2025-06-22T08:22:23Z</time>
      </trkpt>
      <trkpt lat="48.94772" lon="7.34288">
        <ele>373</ele>
        <time>2025-06-22T08:22:24Z</time>
      </trkpt>
      <trkpt lat="48.94775" lon="7.34287">
        <ele>373</ele>
        <time>2025-06-22T08:22:25Z</time>
      </trkpt>
      <trkpt lat="48.94776" lon="7.34284">
        <ele>373</ele>
        <time>2025-06-22T08:22:26Z</time>
      </trkpt>
      <trkpt lat="48.94778" lon="7.34282">
        <ele>373</ele>
        <time>2025-06-22T08:22:27Z</time>
      </trkpt>
      <trkpt lat="48.9478" lon="7.34279">
        <ele>373</ele>
        <time>2025-06-22T08:22:29Z</time>
      </trkpt>
      <trkpt lat="48.94783" lon="7.34276">
        <ele>373</ele>
        <time>2025-06-22T08:22:31Z</time>
      </trkpt>
      <trkpt lat="48.94786" lon="7.34273">
        <ele>373</ele>
        <time>2025-06-22T08:22:33Z</time>
      </trkpt>
      <trkpt lat="48.94788" lon="7.34267">
        <ele>374</ele>
        <time>2025-06-22T08:22:34Z</time>
      </trkpt>
      <trkpt lat="48.94789" lon="7.34264">
        <ele>374</ele>
        <time>2025-06-22T08:22:36Z</time>
      </trkpt>
      <trkpt lat="48.9479" lon="7.34262">
        <ele>375</ele>
        <time>2025-06-22T08:22:37Z</time>
      </trkpt>
      <trkpt lat="48.94792" lon="7.34259">
        <ele>375</ele>
        <time>2025-06-22T08:22:38Z</time>
      </trkpt>
      <trkpt lat="48.94793" lon="7.34256">
        <ele>375</ele>
        <time>2025-06-22T08:22:39Z</time>
      </trkpt>
      <trkpt lat="48.94795" lon="7.34253">
        <ele>375</ele>
        <time>2025-06-22T08:22:40Z</time>
      </trkpt>
      <trkpt lat="48.94796" lon="7.3425">
        <ele>375</ele>
        <time>2025-06-22T08:22:41Z</time>
      </trkpt>
      <trkpt lat="48.94798" lon="7.34248">
        <ele>375</ele>
        <time>2025-06-22T08:22:42Z</time>
      </trkpt>
      <trkpt lat="48.948" lon="7.34246">
        <ele>375</ele>
        <time>2025-06-22T08:22:43Z</time>
      </trkpt>
      <trkpt lat="48.94802" lon="7.34244">
        <ele>375</ele>
        <time>2025-06-22T08:22:44Z</time>
      </trkpt>
      <trkpt lat="48.94804" lon="7.34242">
        <ele>375</ele>
        <time>2025-06-22T08:22:45Z</time>
      </trkpt>
      <trkpt lat="48.94806" lon="7.34239">
        <ele>375</ele>
        <time>2025-06-22T08:22:46Z</time>
      </trkpt>
      <trkpt lat="48.94808" lon="7.34237">
        <ele>375</ele>
        <time>2025-06-22T08:22:47Z</time>
      </trkpt>
      <trkpt lat="48.94809" lon="7.34236">
        <ele>375</ele>
        <time>2025-06-22T08:22:48Z</time>
      </trkpt>
      <trkpt lat="48.94812" lon="7.34233">
        <ele>375</ele>
        <time>2025-06-22T08:22:50Z</time>
      </trkpt>
      <trkpt lat="48.94813" lon="7.3423">
        <ele>375</ele>
        <time>2025-06-22T08:22:51Z</time>
      </trkpt>
      <trkpt lat="48.94815" lon="7.34228">
        <ele>375</ele>
        <time>2025-06-22T08:22:52Z</time>
      </trkpt>
      <trkpt lat="48.94817" lon="7.34225">
        <ele>375</ele>
        <time>2025-06-22T08:22:53Z</time>
      </trkpt>
      <trkpt lat="48.94818" lon="7.34222">
        <ele>375</ele>
        <time>2025-06-22T08:22:54Z</time>
      </trkpt>
      <trkpt lat="48.9482" lon="7.3422">
        <ele>375</ele>
        <time>2025-06-22T08:22:55Z</time>
      </trkpt>
      <trkpt lat="48.94822" lon="7.34218">
        <ele>375</ele>
        <time>2025-06-22T08:22:56Z</time>
      </trkpt>
      <trkpt lat="48.94823" lon="7.34216">
        <ele>375</ele>
        <time>2025-06-22T08:22:57Z</time>
      </trkpt>
      <trkpt lat="48.94825" lon="7.34214">
        <ele>375</ele>
        <time>2025-06-22T08:22:58Z</time>
      </trkpt>
      <trkpt lat="48.94828" lon="7.34211">
        <ele>376</ele>
        <time>2025-06-22T08:23:00Z</time>
      </trkpt>
      <trkpt lat="48.9483" lon="7.34209">
        <ele>376</ele>
        <time>2025-06-22T08:23:02Z</time>
      </trkpt>
      <trkpt lat="48.94835" lon="7.3421">
        <ele>376</ele>
        <time>2025-06-22T08:23:04Z</time>
      </trkpt>
      <trkpt lat="48.94837" lon="7.3421">
        <ele>376</ele>
        <time>2025-06-22T08:23:05Z</time>
      </trkpt>
      <trkpt lat="48.94838" lon="7.34211">
        <ele>376</ele>
        <time>2025-06-22T08:23:06Z</time>
      </trkpt>
      <trkpt lat="48.94841" lon="7.34212">
        <ele>376</ele>
        <time>2025-06-22T08:23:08Z</time>
      </trkpt>
      <trkpt lat="48.94842" lon="7.34213">
        <ele>375</ele>
        <time>2025-06-22T08:23:18Z</time>
      </trkpt>
      <trkpt lat="48.94844" lon="7.34211">
        <ele>376</ele>
        <time>2025-06-22T08:24:02Z</time>
      </trkpt>
      <trkpt lat="48.94845" lon="7.34208">
        <ele>376</ele>
        <time>2025-06-22T08:24:06Z</time>
      </trkpt>
      <trkpt lat="48.94847" lon="7.34207">
        <ele>376</ele>
        <time>2025-06-22T08:24:20Z</time>
      </trkpt>
      <trkpt lat="48.9485" lon="7.34207">
        <ele>376</ele>
        <time>2025-06-22T08:24:33Z</time>
      </trkpt>
      <trkpt lat="48.94851" lon="7.34206">
        <ele>376</ele>
        <time>2025-06-22T08:24:46Z</time>
      </trkpt>
      <trkpt lat="48.94854" lon="7.34207">
        <ele>377</ele>
        <time>2025-06-22T08:25:02Z</time>
      </trkpt>
      <trkpt lat="48.94855" lon="7.3421">
        <ele>377</ele>
        <time>2025-06-22T08:25:36Z</time>
      </trkpt>
      <trkpt lat="48.94855" lon="7.34216">
        <ele>377</ele>
        <time>2025-06-22T08:25:38Z</time>
      </trkpt>
      <trkpt lat="48.94855" lon="7.34221">
        <ele>377</ele>
        <time>2025-06-22T08:25:39Z</time>
      </trkpt>
      <trkpt lat="48.94854" lon="7.34226">
        <ele>377</ele>
        <time>2025-06-22T08:25:40Z</time>
      </trkpt>
      <trkpt lat="48.94852" lon="7.3423">
        <ele>377</ele>
        <time>2025-06-22T08:25:41Z</time>
      </trkpt>
      <trkpt lat="48.94851" lon="7.34235">
        <ele>377</ele>
        <time>2025-06-22T08:25:42Z</time>
      </trkpt>
      <trkpt lat="48.94849" lon="7.3424">
        <ele>377</ele>
        <time>2025-06-22T08:25:43Z</time>
      </trkpt>
      <trkpt lat="48.94846" lon="7.34247">
        <ele>377</ele>
        <time>2025-06-22T08:25:44Z</time>
      </trkpt>
      <trkpt lat="48.94845" lon="7.34253">
        <ele>377</ele>
        <time>2025-06-22T08:25:45Z</time>
      </trkpt>
      <trkpt lat="48.94846" lon="7.3426">
        <ele>377</ele>
        <time>2025-06-22T08:25:46Z</time>
      </trkpt>
      <trkpt lat="48.94847" lon="7.34266">
        <ele>377</ele>
        <time>2025-06-22T08:25:47Z</time>
      </trkpt>
      <trkpt lat="48.9485" lon="7.34271">
        <ele>377</ele>
        <time>2025-06-22T08:25:48Z</time>
      </trkpt>
      <trkpt lat="48.94853" lon="7.34274">
        <ele>377</ele>
        <time>2025-06-22T08:25:49Z</time>
      </trkpt>
      <trkpt lat="48.94859" lon="7.34275">
        <ele>377</ele>
        <time>2025-06-22T08:25:50Z</time>
      </trkpt>
      <trkpt lat="48.94872" lon="7.34271">
        <ele>377</ele>
        <time>2025-06-22T08:25:52Z</time>
      </trkpt>
      <trkpt lat="48.94885" lon="7.34258">
        <ele>373</ele>
        <time>2025-06-22T08:25:54Z</time>
      </trkpt>
      <trkpt lat="48.94891" lon="7.34244">
        <ele>371</ele>
        <time>2025-06-22T08:25:56Z</time>
      </trkpt>
      <trkpt lat="48.94897" lon="7.3423">
        <ele>369</ele>
        <time>2025-06-22T08:25:58Z</time>
      </trkpt>
      <trkpt lat="48.94908" lon="7.34213">
        <ele>369</ele>
        <time>2025-06-22T08:26:00Z</time>
      </trkpt>
      <trkpt lat="48.9492" lon="7.34192">
        <ele>369</ele>
        <time>2025-06-22T08:26:02Z</time>
      </trkpt>
      <trkpt lat="48.94925" lon="7.3418">
        <ele>364</ele>
        <time>2025-06-22T08:26:03Z</time>
      </trkpt>
      <trkpt lat="48.9493" lon="7.34168">
        <ele>364</ele>
        <time>2025-06-22T08:26:04Z</time>
      </trkpt>
      <trkpt lat="48.94936" lon="7.34157">
        <ele>364</ele>
        <time>2025-06-22T08:26:05Z</time>
      </trkpt>
      <trkpt lat="48.94948" lon="7.34136">
        <ele>362</ele>
        <time>2025-06-22T08:26:07Z</time>
      </trkpt>
      <trkpt lat="48.94956" lon="7.34117">
        <ele>362</ele>
        <time>2025-06-22T08:26:09Z</time>
      </trkpt>
      <trkpt lat="48.94961" lon="7.34103">
        <ele>362</ele>
        <time>2025-06-22T08:26:11Z</time>
      </trkpt>
      <trkpt lat="48.94965" lon="7.34092">
        <ele>362</ele>
        <time>2025-06-22T08:26:13Z</time>
      </trkpt>
      <trkpt lat="48.94975" lon="7.34079">
        <ele>364</ele>
        <time>2025-06-22T08:26:16Z</time>
      </trkpt>
      <trkpt lat="48.94981" lon="7.34073">
        <ele>364</ele>
        <time>2025-06-22T08:26:18Z</time>
      </trkpt>
      <trkpt lat="48.94985" lon="7.3407">
        <ele>364</ele>
        <time>2025-06-22T08:26:19Z</time>
      </trkpt>
      <trkpt lat="48.94993" lon="7.34064">
        <ele>364</ele>
        <time>2025-06-22T08:26:21Z</time>
      </trkpt>
      <trkpt lat="48.95003" lon="7.34053">
        <ele>364</ele>
        <time>2025-06-22T08:26:23Z</time>
      </trkpt>
      <trkpt lat="48.95013" lon="7.34044">
        <ele>363</ele>
        <time>2025-06-22T08:26:25Z</time>
      </trkpt>
      <trkpt lat="48.95019" lon="7.34034">
        <ele>363</ele>
        <time>2025-06-22T08:26:27Z</time>
      </trkpt>
      <trkpt lat="48.95027" lon="7.34028">
        <ele>363</ele>
        <time>2025-06-22T08:26:29Z</time>
      </trkpt>
      <trkpt lat="48.95041" lon="7.34021">
        <ele>363</ele>
        <time>2025-06-22T08:26:32Z</time>
      </trkpt>
      <trkpt lat="48.95056" lon="7.34015">
        <ele>363</ele>
        <time>2025-06-22T08:26:34Z</time>
      </trkpt>
      <trkpt lat="48.95073" lon="7.34008">
        <ele>361</ele>
        <time>2025-06-22T08:26:36Z</time>
      </trkpt>
      <trkpt lat="48.95082" lon="7.34004">
        <ele>361</ele>
        <time>2025-06-22T08:26:37Z</time>
      </trkpt>
      <trkpt lat="48.95096" lon="7.33996">
        <ele>361</ele>
        <time>2025-06-22T08:26:39Z</time>
      </trkpt>
      <trkpt lat="48.95108" lon="7.33989">
        <ele>361</ele>
        <time>2025-06-22T08:26:41Z</time>
      </trkpt>
      <trkpt lat="48.95119" lon="7.33983">
        <ele>361</ele>
        <time>2025-06-22T08:26:43Z</time>
      </trkpt>
      <trkpt lat="48.95126" lon="7.33975">
        <ele>361</ele>
        <time>2025-06-22T08:26:45Z</time>
      </trkpt>
      <trkpt lat="48.95135" lon="7.33966">
        <ele>362</ele>
        <time>2025-06-22T08:26:48Z</time>
      </trkpt>
      <trkpt lat="48.95141" lon="7.33963">
        <ele>362</ele>
        <time>2025-06-22T08:26:50Z</time>
      </trkpt>
      <trkpt lat="48.9515" lon="7.33956">
        <ele>363</ele>
        <time>2025-06-22T08:26:53Z</time>
      </trkpt>
      <trkpt lat="48.95154" lon="7.33947">
        <ele>363</ele>
        <time>2025-06-22T08:26:55Z</time>
      </trkpt>
      <trkpt lat="48.95157" lon="7.33942">
        <ele>363</ele>
        <time>2025-06-22T08:26:56Z</time>
      </trkpt>
      <trkpt lat="48.95159" lon="7.33937">
        <ele>363</ele>
        <time>2025-06-22T08:26:57Z</time>
      </trkpt>
      <trkpt lat="48.95161" lon="7.33933">
        <ele>363</ele>
        <time>2025-06-22T08:26:58Z</time>
      </trkpt>
      <trkpt lat="48.95161" lon="7.33929">
        <ele>363</ele>
        <time>2025-06-22T08:26:59Z</time>
      </trkpt>
      <trkpt lat="48.95161" lon="7.33925">
        <ele>362</ele>
        <time>2025-06-22T08:27:00Z</time>
      </trkpt>
      <trkpt lat="48.95162" lon="7.33922">
        <ele>362</ele>
        <time>2025-06-22T08:27:01Z</time>
      </trkpt>
      <trkpt lat="48.95163" lon="7.33915">
        <ele>363</ele>
        <time>2025-06-22T08:27:03Z</time>
      </trkpt>
      <trkpt lat="48.95164" lon="7.33912">
        <ele>363</ele>
        <time>2025-06-22T08:27:04Z</time>
      </trkpt>
      <trkpt lat="48.95165" lon="7.33908">
        <ele>362</ele>
        <time>2025-06-22T08:27:05Z</time>
      </trkpt>
      <trkpt lat="48.95167" lon="7.33898">
        <ele>362</ele>
        <time>2025-06-22T08:27:06Z</time>
      </trkpt>
      <trkpt lat="48.95168" lon="7.3389">
        <ele>362</ele>
        <time>2025-06-22T08:27:08Z</time>
      </trkpt>
      <trkpt lat="48.95169" lon="7.33882">
        <ele>361</ele>
        <time>2025-06-22T08:27:09Z</time>
      </trkpt>
      <trkpt lat="48.9517" lon="7.33873">
        <ele>361</ele>
        <time>2025-06-22T08:27:10Z</time>
      </trkpt>
      <trkpt lat="48.9517" lon="7.33865">
        <ele>361</ele>
        <time>2025-06-22T08:27:11Z</time>
      </trkpt>
      <trkpt lat="48.95172" lon="7.33859">
        <ele>359</ele>
        <time>2025-06-22T08:27:12Z</time>
      </trkpt>
      <trkpt lat="48.95174" lon="7.33853">
        <ele>359</ele>
        <time>2025-06-22T08:27:13Z</time>
      </trkpt>
      <trkpt lat="48.95179" lon="7.33838">
        <ele>357</ele>
        <time>2025-06-22T08:27:15Z</time>
      </trkpt>
      <trkpt lat="48.95183" lon="7.33832">
        <ele>357</ele>
        <time>2025-06-22T08:27:16Z</time>
      </trkpt>
      <trkpt lat="48.95196" lon="7.33828">
        <ele>353</ele>
        <time>2025-06-22T08:27:19Z</time>
      </trkpt>
      <trkpt lat="48.95206" lon="7.33821">
        <ele>352</ele>
        <time>2025-06-22T08:27:21Z</time>
      </trkpt>
      <trkpt lat="48.95215" lon="7.33817">
        <ele>350</ele>
        <time>2025-06-22T08:27:23Z</time>
      </trkpt>
      <trkpt lat="48.95224" lon="7.33814">
        <ele>348</ele>
        <time>2025-06-22T08:27:25Z</time>
      </trkpt>
      <trkpt lat="48.95232" lon="7.33805">
        <ele>348</ele>
        <time>2025-06-22T08:27:27Z</time>
      </trkpt>
      <trkpt lat="48.95241" lon="7.33797">
        <ele>345</ele>
        <time>2025-06-22T08:27:30Z</time>
      </trkpt>
      <trkpt lat="48.95252" lon="7.338">
        <ele>345</ele>
        <time>2025-06-22T08:27:33Z</time>
      </trkpt>
      <trkpt lat="48.95264" lon="7.33809">
        <ele>345</ele>
        <time>2025-06-22T08:27:36Z</time>
      </trkpt>
      <trkpt lat="48.95271" lon="7.33821">
        <ele>345</ele>
        <time>2025-06-22T08:27:39Z</time>
      </trkpt>
      <trkpt lat="48.95269" lon="7.3382">
        <ele>344</ele>
        <time>2025-06-22T08:27:46Z</time>
      </trkpt>
      <trkpt lat="48.95269" lon="7.33816">
        <ele>344</ele>
        <time>2025-06-22T08:27:56Z</time>
      </trkpt>
      <trkpt lat="48.95272" lon="7.33817">
        <ele>343</ele>
        <time>2025-06-22T08:28:00Z</time>
      </trkpt>
      <trkpt lat="48.95278" lon="7.33827">
        <ele>342</ele>
        <time>2025-06-22T08:28:04Z</time>
      </trkpt>
      <trkpt lat="48.9528" lon="7.33839">
        <ele>341</ele>
        <time>2025-06-22T08:28:09Z</time>
      </trkpt>
      <trkpt lat="48.95282" lon="7.33843">
        <ele>341</ele>
        <time>2025-06-22T08:28:10Z</time>
      </trkpt>
      <trkpt lat="48.95288" lon="7.33856">
        <ele>337</ele>
        <time>2025-06-22T08:28:14Z</time>
      </trkpt>
      <trkpt lat="48.95294" lon="7.33868">
        <ele>335</ele>
        <time>2025-06-22T08:28:17Z</time>
      </trkpt>
      <trkpt lat="48.95303" lon="7.33884">
        <ele>335</ele>
        <time>2025-06-22T08:28:20Z</time>
      </trkpt>
      <trkpt lat="48.95309" lon="7.33895">
        <ele>333</ele>
        <time>2025-06-22T08:28:21Z</time>
      </trkpt>
      <trkpt lat="48.95314" lon="7.33912">
        <ele>331</ele>
        <time>2025-06-22T08:28:23Z</time>
      </trkpt>
      <trkpt lat="48.95315" lon="7.33923">
        <ele>328</ele>
        <time>2025-06-22T08:28:27Z</time>
      </trkpt>
      <trkpt lat="48.95317" lon="7.33924">
        <ele>327</ele>
        <time>2025-06-22T08:28:29Z</time>
      </trkpt>
      <trkpt lat="48.95318" lon="7.3393">
        <ele>327</ele>
        <time>2025-06-22T08:28:32Z</time>
      </trkpt>
      <trkpt lat="48.95319" lon="7.33933">
        <ele>327</ele>
        <time>2025-06-22T08:28:33Z</time>
      </trkpt>
      <trkpt lat="48.95321" lon="7.33937">
        <ele>327</ele>
        <time>2025-06-22T08:28:34Z</time>
      </trkpt>
      <trkpt lat="48.95326" lon="7.33952">
        <ele>323</ele>
        <time>2025-06-22T08:28:37Z</time>
      </trkpt>
      <trkpt lat="48.95334" lon="7.33965">
        <ele>323</ele>
        <time>2025-06-22T08:28:40Z</time>
      </trkpt>
      <trkpt lat="48.95341" lon="7.33974">
        <ele>323</ele>
        <time>2025-06-22T08:28:42Z</time>
      </trkpt>
      <trkpt lat="48.95348" lon="7.33986">
        <ele>323</ele>
        <time>2025-06-22T08:28:44Z</time>
      </trkpt>
      <trkpt lat="48.95355" lon="7.33995">
        <ele>323</ele>
        <time>2025-06-22T08:28:46Z</time>
      </trkpt>
      <trkpt lat="48.95363" lon="7.34005">
        <ele>322</ele>
        <time>2025-06-22T08:28:48Z</time>
      </trkpt>
      <trkpt lat="48.95371" lon="7.34015">
        <ele>322</ele>
        <time>2025-06-22T08:28:51Z</time>
      </trkpt>
      <trkpt lat="48.95382" lon="7.34023">
        <ele>322</ele>
        <time>2025-06-22T08:28:54Z</time>
      </trkpt>
      <trkpt lat="48.95393" lon="7.34029">
        <ele>320</ele>
        <time>2025-06-22T08:28:58Z</time>
      </trkpt>
      <trkpt lat="48.95402" lon="7.34027">
        <ele>320</ele>
        <time>2025-06-22T08:29:06Z</time>
      </trkpt>
      <trkpt lat="48.95413" lon="7.34033">
        <ele>320</ele>
        <time>2025-06-22T08:29:10Z</time>
      </trkpt>
      <trkpt lat="48.95425" lon="7.34039">
        <ele>320</ele>
        <time>2025-06-22T08:29:13Z</time>
      </trkpt>
      <trkpt lat="48.95436" lon="7.34048">
        <ele>320</ele>
        <time>2025-06-22T08:29:16Z</time>
      </trkpt>
      <trkpt lat="48.95446" lon="7.3406">
        <ele>320</ele>
        <time>2025-06-22T08:29:19Z</time>
      </trkpt>
      <trkpt lat="48.95438" lon="7.34072">
        <ele>314</ele>
        <time>2025-06-22T08:29:25Z</time>
      </trkpt>
      <trkpt lat="48.95424" lon="7.34074">
        <ele>311</ele>
        <time>2025-06-22T08:29:27Z</time>
      </trkpt>
      <trkpt lat="48.95411" lon="7.34081">
        <ele>309</ele>
        <time>2025-06-22T08:29:29Z</time>
      </trkpt>
      <trkpt lat="48.95411" lon="7.34101">
        <ele>306</ele>
        <time>2025-06-22T08:29:32Z</time>
      </trkpt>
      <trkpt lat="48.95409" lon="7.34116">
        <ele>301</ele>
        <time>2025-06-22T08:29:36Z</time>
      </trkpt>
      <trkpt lat="48.9542" lon="7.34122">
        <ele>301</ele>
        <time>2025-06-22T08:29:39Z</time>
      </trkpt>
      <trkpt lat="48.95432" lon="7.34125">
        <ele>300</ele>
        <time>2025-06-22T08:29:41Z</time>
      </trkpt>
      <trkpt lat="48.95438" lon="7.34127">
        <ele>300</ele>
        <time>2025-06-22T08:29:42Z</time>
      </trkpt>
      <trkpt lat="48.95444" lon="7.34128">
        <ele>300</ele>
        <time>2025-06-22T08:29:43Z</time>
      </trkpt>
      <trkpt lat="48.95454" lon="7.3413">
        <ele>300</ele>
        <time>2025-06-22T08:29:45Z</time>
      </trkpt>
      <trkpt lat="48.95466" lon="7.34134">
        <ele>300</ele>
        <time>2025-06-22T08:29:47Z</time>
      </trkpt>
      <trkpt lat="48.95472" lon="7.34131">
        <ele>299</ele>
        <time>2025-06-22T08:29:52Z</time>
      </trkpt>
      <trkpt lat="48.95473" lon="7.34128">
        <ele>299</ele>
        <time>2025-06-22T08:29:59Z</time>
      </trkpt>
      <trkpt lat="48.95477" lon="7.34131">
        <ele>299</ele>
        <time>2025-06-22T08:30:01Z</time>
      </trkpt>
      <trkpt lat="48.95479" lon="7.34134">
        <ele>299</ele>
        <time>2025-06-22T08:30:02Z</time>
      </trkpt>
      <trkpt lat="48.95482" lon="7.34137">
        <ele>299</ele>
        <time>2025-06-22T08:30:03Z</time>
      </trkpt>
      <trkpt lat="48.95486" lon="7.3414">
        <ele>299</ele>
        <time>2025-06-22T08:30:04Z</time>
      </trkpt>
      <trkpt lat="48.95489" lon="7.34144">
        <ele>298</ele>
        <time>2025-06-22T08:30:05Z</time>
      </trkpt>
      <trkpt lat="48.95493" lon="7.34148">
        <ele>298</ele>
        <time>2025-06-22T08:30:06Z</time>
      </trkpt>
      <trkpt lat="48.95497" lon="7.34152">
        <ele>298</ele>
        <time>2025-06-22T08:30:07Z</time>
      </trkpt>
      <trkpt lat="48.95501" lon="7.34155">
        <ele>298</ele>
        <time>2025-06-22T08:30:08Z</time>
      </trkpt>
      <trkpt lat="48.95505" lon="7.34159">
        <ele>298</ele>
        <time>2025-06-22T08:30:09Z</time>
      </trkpt>
      <trkpt lat="48.95509" lon="7.34163">
        <ele>298</ele>
        <time>2025-06-22T08:30:10Z</time>
      </trkpt>
      <trkpt lat="48.95513" lon="7.34167">
        <ele>298</ele>
        <time>2025-06-22T08:30:11Z</time>
      </trkpt>
      <trkpt lat="48.95517" lon="7.34169">
        <ele>298</ele>
        <time>2025-06-22T08:30:12Z</time>
      </trkpt>
      <trkpt lat="48.95521" lon="7.34172">
        <ele>298</ele>
        <time>2025-06-22T08:30:13Z</time>
      </trkpt>
      <trkpt lat="48.95525" lon="7.34174">
        <ele>298</ele>
        <time>2025-06-22T08:30:14Z</time>
      </trkpt>
      <trkpt lat="48.9553" lon="7.34177">
        <ele>298</ele>
        <time>2025-06-22T08:30:15Z</time>
      </trkpt>
      <trkpt lat="48.95539" lon="7.34181">
        <ele>298</ele>
        <time>2025-06-22T08:30:18Z</time>
      </trkpt>
      <trkpt lat="48.95547" lon="7.34191">
        <ele>298</ele>
        <time>2025-06-22T08:30:21Z</time>
      </trkpt>
      <trkpt lat="48.95553" lon="7.34201">
        <ele>298</ele>
        <time>2025-06-22T08:30:23Z</time>
      </trkpt>
      <trkpt lat="48.95559" lon="7.34215">
        <ele>298</ele>
        <time>2025-06-22T08:30:25Z</time>
      </trkpt>
      <trkpt lat="48.9557" lon="7.34225">
        <ele>298</ele>
        <time>2025-06-22T08:30:28Z</time>
      </trkpt>
      <trkpt lat="48.95583" lon="7.34221">
        <ele>298</ele>
        <time>2025-06-22T08:30:30Z</time>
      </trkpt>
      <trkpt lat="48.95589" lon="7.34219">
        <ele>298</ele>
        <time>2025-06-22T08:30:31Z</time>
      </trkpt>
      <trkpt lat="48.95594" lon="7.34219">
        <ele>298</ele>
        <time>2025-06-22T08:30:32Z</time>
      </trkpt>
      <trkpt lat="48.95601" lon="7.34216">
        <ele>298</ele>
        <time>2025-06-22T08:30:33Z</time>
      </trkpt>
      <trkpt lat="48.95606" lon="7.34213">
        <ele>298</ele>
        <time>2025-06-22T08:30:34Z</time>
      </trkpt>
      <trkpt lat="48.95612" lon="7.34209">
        <ele>298</ele>
        <time>2025-06-22T08:30:35Z</time>
      </trkpt>
      <trkpt lat="48.95617" lon="7.34204">
        <ele>298</ele>
        <time>2025-06-22T08:30:36Z</time>
      </trkpt>
      <trkpt lat="48.95623" lon="7.34199">
        <ele>298</ele>
        <time>2025-06-22T08:30:37Z</time>
      </trkpt>
      <trkpt lat="48.95629" lon="7.34195">
        <ele>298</ele>
        <time>2025-06-22T08:30:38Z</time>
      </trkpt>
      <trkpt lat="48.95635" lon="7.34192">
        <ele>297</ele>
        <time>2025-06-22T08:30:39Z</time>
      </trkpt>
      <trkpt lat="48.95641" lon="7.34189">
        <ele>297</ele>
        <time>2025-06-22T08:30:40Z</time>
      </trkpt>
      <trkpt lat="48.95647" lon="7.34186">
        <ele>297</ele>
        <time>2025-06-22T08:30:41Z</time>
      </trkpt>
      <trkpt lat="48.95651" lon="7.34185">
        <ele>296</ele>
        <time>2025-06-22T08:30:42Z</time>
      </trkpt>
      <trkpt lat="48.95655" lon="7.34187">
        <ele>296</ele>
        <time>2025-06-22T08:30:43Z</time>
      </trkpt>
      <trkpt lat="48.95656" lon="7.34191">
        <ele>295</ele>
        <time>2025-06-22T08:30:44Z</time>
      </trkpt>
      <trkpt lat="48.95655" lon="7.34196">
        <ele>295</ele>
        <time>2025-06-22T08:30:45Z</time>
      </trkpt>
      <trkpt lat="48.95652" lon="7.34201">
        <ele>294</ele>
        <time>2025-06-22T08:30:46Z</time>
      </trkpt>
      <trkpt lat="48.95649" lon="7.34206">
        <ele>294</ele>
        <time>2025-06-22T08:30:47Z</time>
      </trkpt>
      <trkpt lat="48.95646" lon="7.3421">
        <ele>294</ele>
        <time>2025-06-22T08:30:48Z</time>
      </trkpt>
      <trkpt lat="48.95643" lon="7.34215">
        <ele>294</ele>
        <time>2025-06-22T08:30:49Z</time>
      </trkpt>
      <trkpt lat="48.95641" lon="7.34221">
        <ele>294</ele>
        <time>2025-06-22T08:30:50Z</time>
      </trkpt>
      <trkpt lat="48.95639" lon="7.34226">
        <ele>294</ele>
        <time>2025-06-22T08:30:51Z</time>
      </trkpt>
      <trkpt lat="48.95638" lon="7.34232">
        <ele>294</ele>
        <time>2025-06-22T08:30:52Z</time>
      </trkpt>
      <trkpt lat="48.95637" lon="7.34238">
        <ele>294</ele>
        <time>2025-06-22T08:30:53Z</time>
      </trkpt>
      <trkpt lat="48.95636" lon="7.34244">
        <ele>294</ele>
        <time>2025-06-22T08:30:54Z</time>
      </trkpt>
      <trkpt lat="48.95635" lon="7.3425">
        <ele>294</ele>
        <time>2025-06-22T08:30:55Z</time>
      </trkpt>
      <trkpt lat="48.95634" lon="7.34256">
        <ele>294</ele>
        <time>2025-06-22T08:30:56Z</time>
      </trkpt>
      <trkpt lat="48.95634" lon="7.34262">
        <ele>294</ele>
        <time>2025-06-22T08:30:57Z</time>
      </trkpt>
      <trkpt lat="48.95633" lon="7.34268">
        <ele>294</ele>
        <time>2025-06-22T08:30:58Z</time>
      </trkpt>
      <trkpt lat="48.95634" lon="7.34273">
        <ele>294</ele>
        <time>2025-06-22T08:30:59Z</time>
      </trkpt>
      <trkpt lat="48.95636" lon="7.34278">
        <ele>294</ele>
        <time>2025-06-22T08:31:00Z</time>
      </trkpt>
      <trkpt lat="48.95638" lon="7.34283">
        <ele>295</ele>
        <time>2025-06-22T08:31:01Z</time>
      </trkpt>
      <trkpt lat="48.9564" lon="7.34285">
        <ele>295</ele>
        <time>2025-06-22T08:31:02Z</time>
      </trkpt>
      <trkpt lat="48.95642" lon="7.34286">
        <ele>295</ele>
        <time>2025-06-22T08:31:03Z</time>
      </trkpt>
      <trkpt lat="48.95644" lon="7.34287">
        <ele>295</ele>
        <time>2025-06-22T08:31:04Z</time>
      </trkpt>
      <trkpt lat="48.95646" lon="7.34288">
        <ele>295</ele>
        <time>2025-06-22T08:31:05Z</time>
      </trkpt>
      <trkpt lat="48.95636" lon="7.34275">
        <ele>295</ele>
        <time>2025-06-22T08:31:13Z</time>
      </trkpt>
      <trkpt lat="48.95631" lon="7.34276">
        <ele>295</ele>
        <time>2025-06-22T08:31:15Z</time>
      </trkpt>
      <trkpt lat="48.95632" lon="7.3428">
        <ele>295</ele>
        <time>2025-06-22T08:31:17Z</time>
      </trkpt>
      <trkpt lat="48.95634" lon="7.34283">
        <ele>295</ele>
        <time>2025-06-22T08:31:19Z</time>
      </trkpt>
      <trkpt lat="48.95636" lon="7.34282">
        <ele>295</ele>
        <time>2025-06-22T08:31:36Z</time>
      </trkpt>
      <trkpt lat="48.95639" lon="7.34283">
        <ele>295</ele>
        <time>2025-06-22T08:31:38Z</time>
      </trkpt>
      <trkpt lat="48.9565" lon="7.34299">
        <ele>297</ele>
        <time>2025-06-22T08:31:45Z</time>
      </trkpt>
      <trkpt lat="48.95659" lon="7.34312">
        <ele>297</ele>
        <time>2025-06-22T08:31:47Z</time>
      </trkpt>
      <trkpt lat="48.95668" lon="7.34316">
        <ele>297</ele>
        <time>2025-06-22T08:31:49Z</time>
      </trkpt>
      <trkpt lat="48.95677" lon="7.34305">
        <ele>297</ele>
        <time>2025-06-22T08:31:53Z</time>
      </trkpt>
      <trkpt lat="48.95677" lon="7.34302">
        <ele>298</ele>
        <time>2025-06-22T08:31:54Z</time>
      </trkpt>
      <trkpt lat="48.95679" lon="7.34299">
        <ele>299</ele>
        <time>2025-06-22T08:31:55Z</time>
      </trkpt>
      <trkpt lat="48.9568" lon="7.34297">
        <ele>299</ele>
        <time>2025-06-22T08:31:56Z</time>
      </trkpt>
      <trkpt lat="48.95681" lon="7.34294">
        <ele>299</ele>
        <time>2025-06-22T08:31:57Z</time>
      </trkpt>
      <trkpt lat="48.95682" lon="7.34292">
        <ele>300</ele>
        <time>2025-06-22T08:31:58Z</time>
      </trkpt>
      <trkpt lat="48.95684" lon="7.34287">
        <ele>301</ele>
        <time>2025-06-22T08:32:00Z</time>
      </trkpt>
      <trkpt lat="48.95685" lon="7.34285">
        <ele>302</ele>
        <time>2025-06-22T08:32:01Z</time>
      </trkpt>
      <trkpt lat="48.95686" lon="7.34283">
        <ele>302</ele>
        <time>2025-06-22T08:32:02Z</time>
      </trkpt>
      <trkpt lat="48.95687" lon="7.3428">
        <ele>302</ele>
        <time>2025-06-22T08:32:03Z</time>
      </trkpt>
      <trkpt lat="48.95691" lon="7.34267">
        <ele>304</ele>
        <time>2025-06-22T08:32:08Z</time>
      </trkpt>
      <trkpt lat="48.95697" lon="7.34254">
        <ele>304</ele>
        <time>2025-06-22T08:32:13Z</time>
      </trkpt>
      <trkpt lat="48.95703" lon="7.34244">
        <ele>304</ele>
        <time>2025-06-22T08:32:17Z</time>
      </trkpt>
      <trkpt lat="48.95705" lon="7.34241">
        <ele>305</ele>
        <time>2025-06-22T08:32:18Z</time>
      </trkpt>
      <trkpt lat="48.95709" lon="7.34236">
        <ele>306</ele>
        <time>2025-06-22T08:32:20Z</time>
      </trkpt>
      <trkpt lat="48.95711" lon="7.34233">
        <ele>306</ele>
        <time>2025-06-22T08:32:21Z</time>
      </trkpt>
      <trkpt lat="48.95712" lon="7.34231">
        <ele>306</ele>
        <time>2025-06-22T08:32:22Z</time>
      </trkpt>
      <trkpt lat="48.95714" lon="7.34229">
        <ele>306</ele>
        <time>2025-06-22T08:32:23Z</time>
      </trkpt>
      <trkpt lat="48.95716" lon="7.34226">
        <ele>306</ele>
        <time>2025-06-22T08:32:24Z</time>
      </trkpt>
      <trkpt lat="48.95719" lon="7.34222">
        <ele>307</ele>
        <time>2025-06-22T08:32:26Z</time>
      </trkpt>
      <trkpt lat="48.9572" lon="7.3422">
        <ele>307</ele>
        <time>2025-06-22T08:32:27Z</time>
      </trkpt>
      <trkpt lat="48.95723" lon="7.34218">
        <ele>308</ele>
        <time>2025-06-22T08:32:28Z</time>
      </trkpt>
      <trkpt lat="48.95726" lon="7.34213">
        <ele>308</ele>
        <time>2025-06-22T08:32:30Z</time>
      </trkpt>
      <trkpt lat="48.95728" lon="7.34211">
        <ele>308</ele>
        <time>2025-06-22T08:32:31Z</time>
      </trkpt>
      <trkpt lat="48.95731" lon="7.34208">
        <ele>308</ele>
        <time>2025-06-22T08:32:33Z</time>
      </trkpt>
      <trkpt lat="48.95732" lon="7.34206">
        <ele>309</ele>
        <time>2025-06-22T08:32:34Z</time>
      </trkpt>
      <trkpt lat="48.95733" lon="7.34204">
        <ele>309</ele>
        <time>2025-06-22T08:32:35Z</time>
      </trkpt>
      <trkpt lat="48.95736" lon="7.34202">
        <ele>310</ele>
        <time>2025-06-22T08:32:37Z</time>
      </trkpt>
      <trkpt lat="48.9574" lon="7.34197">
        <ele>310</ele>
        <time>2025-06-22T08:32:39Z</time>
      </trkpt>
      <trkpt lat="48.95741" lon="7.34195">
        <ele>310</ele>
        <time>2025-06-22T08:32:40Z</time>
      </trkpt>
      <trkpt lat="48.95743" lon="7.34193">
        <ele>310</ele>
        <time>2025-06-22T08:32:41Z</time>
      </trkpt>
      <trkpt lat="48.95744" lon="7.34191">
        <ele>310</ele>
        <time>2025-06-22T08:32:42Z</time>
      </trkpt>
      <trkpt lat="48.95746" lon="7.34189">
        <ele>310</ele>
        <time>2025-06-22T08:32:43Z</time>
      </trkpt>
      <trkpt lat="48.95748" lon="7.34188">
        <ele>311</ele>
        <time>2025-06-22T08:32:44Z</time>
      </trkpt>
      <trkpt lat="48.9575" lon="7.34187">
        <ele>311</ele>
        <time>2025-06-22T08:32:45Z</time>
      </trkpt>
      <trkpt lat="48.95752" lon="7.34185">
        <ele>311</ele>
        <time>2025-06-22T08:32:46Z</time>
      </trkpt>
      <trkpt lat="48.95754" lon="7.34184">
        <ele>311</ele>
        <time>2025-06-22T08:32:47Z</time>
      </trkpt>
      <trkpt lat="48.95763" lon="7.34178">
        <ele>313</ele>
        <time>2025-06-22T08:32:53Z</time>
      </trkpt>
      <trkpt lat="48.95773" lon="7.34173">
        <ele>314</ele>
        <time>2025-06-22T08:32:58Z</time>
      </trkpt>
      <trkpt lat="48.95782" lon="7.34169">
        <ele>316</ele>
        <time>2025-06-22T08:33:03Z</time>
      </trkpt>
      <trkpt lat="48.95787" lon="7.34167">
        <ele>316</ele>
        <time>2025-06-22T08:33:07Z</time>
      </trkpt>
      <trkpt lat="48.95789" lon="7.34166">
        <ele>317</ele>
        <time>2025-06-22T08:33:09Z</time>
      </trkpt>
      <trkpt lat="48.95791" lon="7.34166">
        <ele>318</ele>
        <time>2025-06-22T08:33:12Z</time>
      </trkpt>
      <trkpt lat="48.95793" lon="7.34167">
        <ele>318</ele>
        <time>2025-06-22T08:33:14Z</time>
      </trkpt>
      <trkpt lat="48.95794" lon="7.34166">
        <ele>319</ele>
        <time>2025-06-22T08:33:17Z</time>
      </trkpt>
      <trkpt lat="48.95798" lon="7.34164">
        <ele>319</ele>
        <time>2025-06-22T08:33:20Z</time>
      </trkpt>
      <trkpt lat="48.95801" lon="7.34163">
        <ele>320</ele>
        <time>2025-06-22T08:33:22Z</time>
      </trkpt>
      <trkpt lat="48.95803" lon="7.34161">
        <ele>320</ele>
        <time>2025-06-22T08:33:26Z</time>
      </trkpt>
      <trkpt lat="48.95806" lon="7.3416">
        <ele>320</ele>
        <time>2025-06-22T08:33:28Z</time>
      </trkpt>
      <trkpt lat="48.95807" lon="7.3416">
        <ele>320</ele>
        <time>2025-06-22T08:33:29Z</time>
      </trkpt>
      <trkpt lat="48.9581" lon="7.34158">
        <ele>320</ele>
        <time>2025-06-22T08:33:31Z</time>
      </trkpt>
      <trkpt lat="48.95813" lon="7.34157">
        <ele>320</ele>
        <time>2025-06-22T08:33:33Z</time>
      </trkpt>
      <trkpt lat="48.95815" lon="7.34156">
        <ele>321</ele>
        <time>2025-06-22T08:33:35Z</time>
      </trkpt>
      <trkpt lat="48.95818" lon="7.34154">
        <ele>321</ele>
        <time>2025-06-22T08:33:37Z</time>
      </trkpt>
      <trkpt lat="48.9582" lon="7.34153">
        <ele>321</ele>
        <time>2025-06-22T08:33:39Z</time>
      </trkpt>
      <trkpt lat="48.95822" lon="7.34151">
        <ele>321</ele>
        <time>2025-06-22T08:33:41Z</time>
      </trkpt>
      <trkpt lat="48.95824" lon="7.34152">
        <ele>322</ele>
        <time>2025-06-22T08:33:43Z</time>
      </trkpt>
      <trkpt lat="48.95827" lon="7.34152">
        <ele>323</ele>
        <time>2025-06-22T08:33:45Z</time>
      </trkpt>
      <trkpt lat="48.95829" lon="7.34152">
        <ele>323</ele>
        <time>2025-06-22T08:33:47Z</time>
      </trkpt>
      <trkpt lat="48.95831" lon="7.34151">
        <ele>323</ele>
        <time>2025-06-22T08:33:49Z</time>
      </trkpt>
      <trkpt lat="48.95834" lon="7.3415">
        <ele>323</ele>
        <time>2025-06-22T08:33:51Z</time>
      </trkpt>
      <trkpt lat="48.95843" lon="7.34146">
        <ele>323</ele>
        <time>2025-06-22T08:33:56Z</time>
      </trkpt>
      <trkpt lat="48.95849" lon="7.34144">
        <ele>324</ele>
        <time>2025-06-22T08:34:00Z</time>
      </trkpt>
      <trkpt lat="48.95858" lon="7.34142">
        <ele>325</ele>
        <time>2025-06-22T08:34:05Z</time>
      </trkpt>
      <trkpt lat="48.95868" lon="7.34142">
        <ele>326</ele>
        <time>2025-06-22T08:34:09Z</time>
      </trkpt>
      <trkpt lat="48.9587" lon="7.34142">
        <ele>326</ele>
        <time>2025-06-22T08:34:10Z</time>
      </trkpt>
      <trkpt lat="48.95879" lon="7.34137">
        <ele>327</ele>
        <time>2025-06-22T08:34:14Z</time>
      </trkpt>
      <trkpt lat="48.9589" lon="7.34132">
        <ele>327</ele>
        <time>2025-06-22T08:34:17Z</time>
      </trkpt>
      <trkpt lat="48.95901" lon="7.34128">
        <ele>324</ele>
        <time>2025-06-22T08:34:19Z</time>
      </trkpt>
      <trkpt lat="48.95916" lon="7.34126">
        <ele>321</ele>
        <time>2025-06-22T08:34:21Z</time>
      </trkpt>
      <trkpt lat="48.95931" lon="7.34123">
        <ele>319</ele>
        <time>2025-06-22T08:34:23Z</time>
      </trkpt>
      <trkpt lat="48.95947" lon="7.34121">
        <ele>319</ele>
        <time>2025-06-22T08:34:25Z</time>
      </trkpt>
      <trkpt lat="48.95961" lon="7.34121">
        <ele>313</ele>
        <time>2025-06-22T08:34:27Z</time>
      </trkpt>
      <trkpt lat="48.95972" lon="7.34121">
        <ele>311</ele>
        <time>2025-06-22T08:34:29Z</time>
      </trkpt>
      <trkpt lat="48.95984" lon="7.3413">
        <ele>311</ele>
        <time>2025-06-22T08:34:31Z</time>
      </trkpt>
      <trkpt lat="48.95995" lon="7.34141">
        <ele>309</ele>
        <time>2025-06-22T08:34:33Z</time>
      </trkpt>
      <trkpt lat="48.96004" lon="7.3415">
        <ele>309</ele>
        <time>2025-06-22T08:34:35Z</time>
      </trkpt>
      <trkpt lat="48.96013" lon="7.34154">
        <ele>307</ele>
        <time>2025-06-22T08:34:36Z</time>
      </trkpt>
      <trkpt lat="48.96025" lon="7.34157">
        <ele>306</ele>
        <time>2025-06-22T08:34:37Z</time>
      </trkpt>
      <trkpt lat="48.9604" lon="7.3416">
        <ele>306</ele>
        <time>2025-06-22T08:34:38Z</time>
      </trkpt>
      <trkpt lat="48.96051" lon="7.34164">
        <ele>305</ele>
        <time>2025-06-22T08:34:39Z</time>
      </trkpt>
      <trkpt lat="48.96063" lon="7.34167">
        <ele>304</ele>
        <time>2025-06-22T08:34:40Z</time>
      </trkpt>
      <trkpt lat="48.96078" lon="7.34175">
        <ele>304</ele>
        <time>2025-06-22T08:34:42Z</time>
      </trkpt>
      <trkpt lat="48.96088" lon="7.34179">
        <ele>302</ele>
        <time>2025-06-22T08:34:44Z</time>
      </trkpt>
      <trkpt lat="48.96091" lon="7.34176">
        <ele>301</ele>
        <time>2025-06-22T08:34:45Z</time>
      </trkpt>
      <trkpt lat="48.96098" lon="7.34164">
        <ele>299</ele>
        <time>2025-06-22T08:34:49Z</time>
      </trkpt>
      <trkpt lat="48.96104" lon="7.34153">
        <ele>298</ele>
        <time>2025-06-22T08:34:51Z</time>
      </trkpt>
      <trkpt lat="48.96106" lon="7.3413">
        <ele>298</ele>
        <time>2025-06-22T08:34:53Z</time>
      </trkpt>
      <trkpt lat="48.96102" lon="7.34113">
        <ele>298</ele>
        <time>2025-06-22T08:34:54Z</time>
      </trkpt>
      <trkpt lat="48.96101" lon="7.34099">
        <ele>298</ele>
        <time>2025-06-22T08:34:56Z</time>
      </trkpt>
      <trkpt lat="48.96101" lon="7.34095">
        <ele>297</ele>
        <time>2025-06-22T08:34:57Z</time>
      </trkpt>
      <trkpt lat="48.96099" lon="7.34095">
        <ele>297</ele>
        <time>2025-06-22T08:35:13Z</time>
      </trkpt>
      <trkpt lat="48.96097" lon="7.34094">
        <ele>296</ele>
        <time>2025-06-22T08:35:15Z</time>
      </trkpt>
      <trkpt lat="48.96095" lon="7.34093">
        <ele>296</ele>
        <time>2025-06-22T08:35:16Z</time>
      </trkpt>
      <trkpt lat="48.96093" lon="7.34091">
        <ele>296</ele>
        <time>2025-06-22T08:35:17Z</time>
      </trkpt>
      <trkpt lat="48.9609" lon="7.3409">
        <ele>296</ele>
        <time>2025-06-22T08:35:18Z</time>
      </trkpt>
      <trkpt lat="48.96087" lon="7.34087">
        <ele>296</ele>
        <time>2025-06-22T08:35:19Z</time>
      </trkpt>
      <trkpt lat="48.96084" lon="7.34084">
        <ele>296</ele>
        <time>2025-06-22T08:35:20Z</time>
      </trkpt>
      <trkpt lat="48.9608" lon="7.34081">
        <ele>296</ele>
        <time>2025-06-22T08:35:21Z</time>
      </trkpt>
      <trkpt lat="48.96076" lon="7.34077">
        <ele>296</ele>
        <time>2025-06-22T08:35:22Z</time>
      </trkpt>
      <trkpt lat="48.96071" lon="7.34073">
        <ele>295</ele>
        <time>2025-06-22T08:35:23Z</time>
      </trkpt>
      <trkpt lat="48.96066" lon="7.34068">
        <ele>295</ele>
        <time>2025-06-22T08:35:24Z</time>
      </trkpt>
      <trkpt lat="48.96062" lon="7.34064">
        <ele>295</ele>
        <time>2025-06-22T08:35:25Z</time>
      </trkpt>
      <trkpt lat="48.96057" lon="7.34059">
        <ele>294</ele>
        <time>2025-06-22T08:35:26Z</time>
      </trkpt>
      <trkpt lat="48.96052" lon="7.34054">
        <ele>294</ele>
        <time>2025-06-22T08:35:27Z</time>
      </trkpt>
      <trkpt lat="48.96047" lon="7.34049">
        <ele>294</ele>
        <time>2025-06-22T08:35:28Z</time>
      </trkpt>
      <trkpt lat="48.96042" lon="7.34045">
        <ele>294</ele>
        <time>2025-06-22T08:35:29Z</time>
      </trkpt>
      <trkpt lat="48.96037" lon="7.3404">
        <ele>294</ele>
        <time>2025-06-22T08:35:30Z</time>
      </trkpt>
      <trkpt lat="48.96033" lon="7.34038">
        <ele>293</ele>
        <time>2025-06-22T08:35:31Z</time>
      </trkpt>
      <trkpt lat="48.96029" lon="7.34034">
        <ele>293</ele>
        <time>2025-06-22T08:35:32Z</time>
      </trkpt>
      <trkpt lat="48.96025" lon="7.34029">
        <ele>293</ele>
        <time>2025-06-22T08:35:33Z</time>
      </trkpt>
      <trkpt lat="48.96022" lon="7.34024">
        <ele>293</ele>
        <time>2025-06-22T08:35:34Z</time>
      </trkpt>
      <trkpt lat="48.96019" lon="7.34019">
        <ele>293</ele>
        <time>2025-06-22T08:35:35Z</time>
      </trkpt>
      <trkpt lat="48.96016" lon="7.34013">
        <ele>293</ele>
        <time>2025-06-22T08:35:36Z</time>
      </trkpt>
      <trkpt lat="48.96014" lon="7.34008">
        <ele>293</ele>
        <time>2025-06-22T08:35:37Z</time>
      </trkpt>
      <trkpt lat="48.96012" lon="7.33996">
        <ele>293</ele>
        <time>2025-06-22T08:35:38Z</time>
      </trkpt>
      <trkpt lat="48.9601" lon="7.3399">
        <ele>293</ele>
        <time>2025-06-22T08:35:40Z</time>
      </trkpt>
      <trkpt lat="48.96009" lon="7.33986">
        <ele>293</ele>
        <time>2025-06-22T08:35:41Z</time>
      </trkpt>
      <trkpt lat="48.96008" lon="7.33981">
        <ele>293</ele>
        <time>2025-06-22T08:35:42Z</time>
      </trkpt>
      <trkpt lat="48.96007" lon="7.33976">
        <ele>294</ele>
        <time>2025-06-22T08:35:43Z</time>
      </trkpt>
      <trkpt lat="48.96006" lon="7.3397">
        <ele>294</ele>
        <time>2025-06-22T08:35:44Z</time>
      </trkpt>
      <trkpt lat="48.96005" lon="7.33964">
        <ele>295</ele>
        <time>2025-06-22T08:35:45Z</time>
      </trkpt>
      <trkpt lat="48.96005" lon="7.33959">
        <ele>295</ele>
        <time>2025-06-22T08:35:46Z</time>
      </trkpt>
      <trkpt lat="48.96004" lon="7.33954">
        <ele>295</ele>
        <time>2025-06-22T08:35:47Z</time>
      </trkpt>
      <trkpt lat="48.96003" lon="7.33949">
        <ele>295</ele>
        <time>2025-06-22T08:35:48Z</time>
      </trkpt>
      <trkpt lat="48.96003" lon="7.33944">
        <ele>296</ele>
        <time>2025-06-22T08:35:49Z</time>
      </trkpt>
      <trkpt lat="48.96002" lon="7.33939">
        <ele>296</ele>
        <time>2025-06-22T08:35:50Z</time>
      </trkpt>
      <trkpt lat="48.96002" lon="7.33933">
        <ele>296</ele>
        <time>2025-06-22T08:35:51Z</time>
      </trkpt>
      <trkpt lat="48.96001" lon="7.33928">
        <ele>296</ele>
        <time>2025-06-22T08:35:52Z</time>
      </trkpt>
      <trkpt lat="48.96001" lon="7.33923">
        <ele>296</ele>
        <time>2025-06-22T08:35:53Z</time>
      </trkpt>
      <trkpt lat="48.96001" lon="7.33917">
        <ele>297</ele>
        <time>2025-06-22T08:35:54Z</time>
      </trkpt>
      <trkpt lat="48.96" lon="7.33912">
        <ele>297</ele>
        <time>2025-06-22T08:35:55Z</time>
      </trkpt>
      <trkpt lat="48.96" lon="7.33906">
        <ele>297</ele>
        <time>2025-06-22T08:35:56Z</time>
      </trkpt>
      <trkpt lat="48.96" lon="7.339">
        <ele>298</ele>
        <time>2025-06-22T08:35:57Z</time>
      </trkpt>
      <trkpt lat="48.95999" lon="7.33895">
        <ele>298</ele>
        <time>2025-06-22T08:35:58Z</time>
      </trkpt>
      <trkpt lat="48.95999" lon="7.33889">
        <ele>298</ele>
        <time>2025-06-22T08:35:59Z</time>
      </trkpt>
      <trkpt lat="48.95999" lon="7.33884">
        <ele>298</ele>
        <time>2025-06-22T08:36:00Z</time>
      </trkpt>
      <trkpt lat="48.95998" lon="7.33878">
        <ele>298</ele>
        <time>2025-06-22T08:36:01Z</time>
      </trkpt>
      <trkpt lat="48.95998" lon="7.33872">
        <ele>298</ele>
        <time>2025-06-22T08:36:02Z</time>
      </trkpt>
      <trkpt lat="48.95998" lon="7.33866">
        <ele>298</ele>
        <time>2025-06-22T08:36:03Z</time>
      </trkpt>
      <trkpt lat="48.95997" lon="7.33859">
        <ele>298</ele>
        <time>2025-06-22T08:36:04Z</time>
      </trkpt>
      <trkpt lat="48.95997" lon="7.33852">
        <ele>298</ele>
        <time>2025-06-22T08:36:05Z</time>
      </trkpt>
      <trkpt lat="48.95998" lon="7.33845">
        <ele>297</ele>
        <time>2025-06-22T08:36:06Z</time>
      </trkpt>
      <trkpt lat="48.95999" lon="7.33838">
        <ele>297</ele>
        <time>2025-06-22T08:36:07Z</time>
      </trkpt>
      <trkpt lat="48.95999" lon="7.33831">
        <ele>297</ele>
        <time>2025-06-22T08:36:08Z</time>
      </trkpt>
      <trkpt lat="48.95996" lon="7.33824">
        <ele>297</ele>
        <time>2025-06-22T08:36:09Z</time>
      </trkpt>
      <trkpt lat="48.95993" lon="7.33818">
        <ele>297</ele>
        <time>2025-06-22T08:36:10Z</time>
      </trkpt>
      <trkpt lat="48.95989" lon="7.33812">
        <ele>297</ele>
        <time>2025-06-22T08:36:11Z</time>
      </trkpt>
      <trkpt lat="48.95985" lon="7.33805">
        <ele>297</ele>
        <time>2025-06-22T08:36:12Z</time>
      </trkpt>
      <trkpt lat="48.9598" lon="7.33798">
        <ele>297</ele>
        <time>2025-06-22T08:36:13Z</time>
      </trkpt>
      <trkpt lat="48.95976" lon="7.3379">
        <ele>296</ele>
        <time>2025-06-22T08:36:14Z</time>
      </trkpt>
      <trkpt lat="48.95971" lon="7.33782">
        <ele>296</ele>
        <time>2025-06-22T08:36:15Z</time>
      </trkpt>
      <trkpt lat="48.95967" lon="7.33773">
        <ele>296</ele>
        <time>2025-06-22T08:36:16Z</time>
      </trkpt>
      <trkpt lat="48.95963" lon="7.33765">
        <ele>295</ele>
        <time>2025-06-22T08:36:17Z</time>
      </trkpt>
      <trkpt lat="48.95958" lon="7.33756">
        <ele>295</ele>
        <time>2025-06-22T08:36:18Z</time>
      </trkpt>
      <trkpt lat="48.95954" lon="7.33746">
        <ele>295</ele>
        <time>2025-06-22T08:36:19Z</time>
      </trkpt>
      <trkpt lat="48.95949" lon="7.33736">
        <ele>294</ele>
        <time>2025-06-22T08:36:20Z</time>
      </trkpt>
      <trkpt lat="48.95944" lon="7.33726">
        <ele>293</ele>
        <time>2025-06-22T08:36:21Z</time>
      </trkpt>
      <trkpt lat="48.95939" lon="7.33716">
        <ele>293</ele>
        <time>2025-06-22T08:36:22Z</time>
      </trkpt>
      <trkpt lat="48.95934" lon="7.33706">
        <ele>293</ele>
        <time>2025-06-22T08:36:23Z</time>
      </trkpt>
      <trkpt lat="48.95929" lon="7.33695">
        <ele>292</ele>
        <time>2025-06-22T08:36:24Z</time>
      </trkpt>
      <trkpt lat="48.95924" lon="7.33682">
        <ele>292</ele>
        <time>2025-06-22T08:36:25Z</time>
      </trkpt>
      <trkpt lat="48.95919" lon="7.3367">
        <ele>291</ele>
        <time>2025-06-22T08:36:26Z</time>
      </trkpt>
      <trkpt lat="48.95914" lon="7.33657">
        <ele>290</ele>
        <time>2025-06-22T08:36:27Z</time>
      </trkpt>
      <trkpt lat="48.9591" lon="7.33644">
        <ele>290</ele>
        <time>2025-06-22T08:36:28Z</time>
      </trkpt>
      <trkpt lat="48.95907" lon="7.3363">
        <ele>289</ele>
        <time>2025-06-22T08:36:29Z</time>
      </trkpt>
      <trkpt lat="48.95904" lon="7.33616">
        <ele>288</ele>
        <time>2025-06-22T08:36:30Z</time>
      </trkpt>
      <trkpt lat="48.95902" lon="7.33602">
        <ele>287</ele>
        <time>2025-06-22T08:36:31Z</time>
      </trkpt>
      <trkpt lat="48.95899" lon="7.33589">
        <ele>286</ele>
        <time>2025-06-22T08:36:32Z</time>
      </trkpt>
      <trkpt lat="48.95897" lon="7.33576">
        <ele>286</ele>
        <time>2025-06-22T08:36:33Z</time>
      </trkpt>
      <trkpt lat="48.95894" lon="7.33563">
        <ele>286</ele>
        <time>2025-06-22T08:36:34Z</time>
      </trkpt>
      <trkpt lat="48.95891" lon="7.33551">
        <ele>286</ele>
        <time>2025-06-22T08:36:35Z</time>
      </trkpt>
      <trkpt lat="48.95888" lon="7.3354">
        <ele>286</ele>
        <time>2025-06-22T08:36:36Z</time>
      </trkpt>
      <trkpt lat="48.95885" lon="7.33529">
        <ele>286</ele>
        <time>2025-06-22T08:36:37Z</time>
      </trkpt>
      <trkpt lat="48.95882" lon="7.33518">
        <ele>286</ele>
        <time>2025-06-22T08:36:38Z</time>
      </trkpt>
      <trkpt lat="48.95879" lon="7.33507">
        <ele>286</ele>
        <time>2025-06-22T08:36:39Z</time>
      </trkpt>
      <trkpt lat="48.95876" lon="7.33497">
        <ele>286</ele>
        <time>2025-06-22T08:36:40Z</time>
      </trkpt>
      <trkpt lat="48.95873" lon="7.33487">
        <ele>286</ele>
        <time>2025-06-22T08:36:41Z</time>
      </trkpt>
      <trkpt lat="48.95871" lon="7.33478">
        <ele>286</ele>
        <time>2025-06-22T08:36:42Z</time>
      </trkpt>
      <trkpt lat="48.95869" lon="7.33468">
        <ele>286</ele>
        <time>2025-06-22T08:36:43Z</time>
      </trkpt>
      <trkpt lat="48.95867" lon="7.3346">
        <ele>286</ele>
        <time>2025-06-22T08:36:44Z</time>
      </trkpt>
      <trkpt lat="48.95866" lon="7.33453">
        <ele>286</ele>
        <time>2025-06-22T08:36:45Z</time>
      </trkpt>
      <trkpt lat="48.95865" lon="7.33446">
        <ele>286</ele>
        <time>2025-06-22T08:36:46Z</time>
      </trkpt>
      <trkpt lat="48.95864" lon="7.3344">
        <ele>286</ele>
        <time>2025-06-22T08:36:47Z</time>
      </trkpt>
      <trkpt lat="48.95863" lon="7.33434">
        <ele>286</ele>
        <time>2025-06-22T08:36:48Z</time>
      </trkpt>
      <trkpt lat="48.95862" lon="7.33427">
        <ele>286</ele>
        <time>2025-06-22T08:36:49Z</time>
      </trkpt>
      <trkpt lat="48.95862" lon="7.3342">
        <ele>285</ele>
        <time>2025-06-22T08:36:50Z</time>
      </trkpt>
      <trkpt lat="48.95862" lon="7.33413">
        <ele>285</ele>
        <time>2025-06-22T08:36:51Z</time>
      </trkpt>
      <trkpt lat="48.95861" lon="7.33405">
        <ele>285</ele>
        <time>2025-06-22T08:36:52Z</time>
      </trkpt>
      <trkpt lat="48.95861" lon="7.33397">
        <ele>285</ele>
        <time>2025-06-22T08:36:53Z</time>
      </trkpt>
      <trkpt lat="48.9586" lon="7.33388">
        <ele>285</ele>
        <time>2025-06-22T08:36:54Z</time>
      </trkpt>
      <trkpt lat="48.9586" lon="7.3338">
        <ele>285</ele>
        <time>2025-06-22T08:36:55Z</time>
      </trkpt>
      <trkpt lat="48.9586" lon="7.33371">
        <ele>285</ele>
        <time>2025-06-22T08:36:56Z</time>
      </trkpt>
      <trkpt lat="48.9586" lon="7.33363">
        <ele>285</ele>
        <time>2025-06-22T08:36:57Z</time>
      </trkpt>
      <trkpt lat="48.9586" lon="7.33354">
        <ele>285</ele>
        <time>2025-06-22T08:36:58Z</time>
      </trkpt>
      <trkpt lat="48.95859" lon="7.33345">
        <ele>285</ele>
        <time>2025-06-22T08:36:59Z</time>
      </trkpt>
      <trkpt lat="48.95859" lon="7.33336">
        <ele>285</ele>
        <time>2025-06-22T08:37:00Z</time>
      </trkpt>
      <trkpt lat="48.95859" lon="7.33327">
        <ele>285</ele>
        <time>2025-06-22T08:37:01Z</time>
      </trkpt>
      <trkpt lat="48.95859" lon="7.33318">
        <ele>285</ele>
        <time>2025-06-22T08:37:02Z</time>
      </trkpt>
      <trkpt lat="48.95859" lon="7.33309">
        <ele>285</ele>
        <time>2025-06-22T08:37:03Z</time>
      </trkpt>
      <trkpt lat="48.9586" lon="7.333">
        <ele>285</ele>
        <time>2025-06-22T08:37:04Z</time>
      </trkpt>
      <trkpt lat="48.9586" lon="7.33291">
        <ele>285</ele>
        <time>2025-06-22T08:37:05Z</time>
      </trkpt>
      <trkpt lat="48.95861" lon="7.33282">
        <ele>285</ele>
        <time>2025-06-22T08:37:06Z</time>
      </trkpt>
      <trkpt lat="48.95863" lon="7.33274">
        <ele>285</ele>
        <time>2025-06-22T08:37:07Z</time>
      </trkpt>
      <trkpt lat="48.95864" lon="7.33265">
        <ele>285</ele>
        <time>2025-06-22T08:37:08Z</time>
      </trkpt>
      <trkpt lat="48.95867" lon="7.33257">
        <ele>284</ele>
        <time>2025-06-22T08:37:09Z</time>
      </trkpt>
      <trkpt lat="48.95869" lon="7.33249">
        <ele>284</ele>
        <time>2025-06-22T08:37:10Z</time>
      </trkpt>
      <trkpt lat="48.95872" lon="7.33241">
        <ele>284</ele>
        <time>2025-06-22T08:37:11Z</time>
      </trkpt>
      <trkpt lat="48.95874" lon="7.33233">
        <ele>283</ele>
        <time>2025-06-22T08:37:12Z</time>
      </trkpt>
      <trkpt lat="48.95877" lon="7.33225">
        <ele>283</ele>
        <time>2025-06-22T08:37:13Z</time>
      </trkpt>
      <trkpt lat="48.9588" lon="7.33217">
        <ele>283</ele>
        <time>2025-06-22T08:37:14Z</time>
      </trkpt>
      <trkpt lat="48.95882" lon="7.33209">
        <ele>283</ele>
        <time>2025-06-22T08:37:15Z</time>
      </trkpt>
      <trkpt lat="48.95884" lon="7.33201">
        <ele>283</ele>
        <time>2025-06-22T08:37:16Z</time>
      </trkpt>
      <trkpt lat="48.95887" lon="7.33193">
        <ele>283</ele>
        <time>2025-06-22T08:37:17Z</time>
      </trkpt>
      <trkpt lat="48.95889" lon="7.33186">
        <ele>283</ele>
        <time>2025-06-22T08:37:18Z</time>
      </trkpt>
      <trkpt lat="48.95892" lon="7.33178">
        <ele>283</ele>
        <time>2025-06-22T08:37:19Z</time>
      </trkpt>
      <trkpt lat="48.95895" lon="7.3317">
        <ele>283</ele>
        <time>2025-06-22T08:37:20Z</time>
      </trkpt>
      <trkpt lat="48.95898" lon="7.33162">
        <ele>283</ele>
        <time>2025-06-22T08:37:21Z</time>
      </trkpt>
      <trkpt lat="48.959" lon="7.33154">
        <ele>283</ele>
        <time>2025-06-22T08:37:22Z</time>
      </trkpt>
      <trkpt lat="48.95903" lon="7.33146">
        <ele>282</ele>
        <time>2025-06-22T08:37:23Z</time>
      </trkpt>
      <trkpt lat="48.95906" lon="7.33138">
        <ele>282</ele>
        <time>2025-06-22T08:37:24Z</time>
      </trkpt>
      <trkpt lat="48.95909" lon="7.33129">
        <ele>281</ele>
        <time>2025-06-22T08:37:25Z</time>
      </trkpt>
      <trkpt lat="48.95911" lon="7.33121">
        <ele>281</ele>
        <time>2025-06-22T08:37:26Z</time>
      </trkpt>
      <trkpt lat="48.95914" lon="7.33112">
        <ele>282</ele>
        <time>2025-06-22T08:37:27Z</time>
      </trkpt>
      <trkpt lat="48.95917" lon="7.33104">
        <ele>282</ele>
        <time>2025-06-22T08:37:28Z</time>
      </trkpt>
      <trkpt lat="48.95919" lon="7.33095">
        <ele>282</ele>
        <time>2025-06-22T08:37:29Z</time>
      </trkpt>
      <trkpt lat="48.95921" lon="7.33087">
        <ele>282</ele>
        <time>2025-06-22T08:37:30Z</time>
      </trkpt>
      <trkpt lat="48.95924" lon="7.33078">
        <ele>282</ele>
        <time>2025-06-22T08:37:31Z</time>
      </trkpt>
      <trkpt lat="48.95926" lon="7.33069">
        <ele>282</ele>
        <time>2025-06-22T08:37:32Z</time>
      </trkpt>
      <trkpt lat="48.95928" lon="7.33061">
        <ele>282</ele>
        <time>2025-06-22T08:37:33Z</time>
      </trkpt>
      <trkpt lat="48.9593" lon="7.33052">
        <ele>282</ele>
        <time>2025-06-22T08:37:34Z</time>
      </trkpt>
      <trkpt lat="48.95933" lon="7.33043">
        <ele>282</ele>
        <time>2025-06-22T08:37:35Z</time>
      </trkpt>
      <trkpt lat="48.95935" lon="7.33034">
        <ele>282</ele>
        <time>2025-06-22T08:37:36Z</time>
      </trkpt>
      <trkpt lat="48.95937" lon="7.33026">
        <ele>282</ele>
        <time>2025-06-22T08:37:37Z</time>
      </trkpt>
      <trkpt lat="48.95939" lon="7.33017">
        <ele>281</ele>
        <time>2025-06-22T08:37:38Z</time>
      </trkpt>
      <trkpt lat="48.95941" lon="7.33009">
        <ele>281</ele>
        <time>2025-06-22T08:37:39Z</time>
      </trkpt>
      <trkpt lat="48.95943" lon="7.33001">
        <ele>281</ele>
        <time>2025-06-22T08:37:40Z</time>
      </trkpt>
      <trkpt lat="48.95946" lon="7.32992">
        <ele>281</ele>
        <time>2025-06-22T08:37:41Z</time>
      </trkpt>
      <trkpt lat="48.95948" lon="7.32985">
        <ele>281</ele>
        <time>2025-06-22T08:37:42Z</time>
      </trkpt>
      <trkpt lat="48.95951" lon="7.32977">
        <ele>281</ele>
        <time>2025-06-22T08:37:43Z</time>
      </trkpt>
      <trkpt lat="48.95954" lon="7.3297">
        <ele>281</ele>
        <time>2025-06-22T08:37:44Z</time>
      </trkpt>
      <trkpt lat="48.95957" lon="7.32963">
        <ele>281</ele>
        <time>2025-06-22T08:37:45Z</time>
      </trkpt>
      <trkpt lat="48.95959" lon="7.32955">
        <ele>280</ele>
        <time>2025-06-22T08:37:46Z</time>
      </trkpt>
      <trkpt lat="48.95961" lon="7.32947">
        <ele>280</ele>
        <time>2025-06-22T08:37:47Z</time>
      </trkpt>
      <trkpt lat="48.95964" lon="7.3294">
        <ele>280</ele>
        <time>2025-06-22T08:37:48Z</time>
      </trkpt>
      <trkpt lat="48.95969" lon="7.32936">
        <ele>280</ele>
        <time>2025-06-22T08:37:49Z</time>
      </trkpt>
      <trkpt lat="48.95974" lon="7.32932">
        <ele>280</ele>
        <time>2025-06-22T08:37:50Z</time>
      </trkpt>
      <trkpt lat="48.95979" lon="7.3293">
        <ele>280</ele>
        <time>2025-06-22T08:37:51Z</time>
      </trkpt>
      <trkpt lat="48.95985" lon="7.32929">
        <ele>279</ele>
        <time>2025-06-22T08:37:52Z</time>
      </trkpt>
      <trkpt lat="48.9599" lon="7.32929">
        <ele>279</ele>
        <time>2025-06-22T08:37:53Z</time>
      </trkpt>
      <trkpt lat="48.95995" lon="7.32928">
        <ele>280</ele>
        <time>2025-06-22T08:37:54Z</time>
      </trkpt>
      <trkpt lat="48.96" lon="7.32926">
        <ele>280</ele>
        <time>2025-06-22T08:37:55Z</time>
      </trkpt>
      <trkpt lat="48.96003" lon="7.32922">
        <ele>281</ele>
        <time>2025-06-22T08:37:56Z</time>
      </trkpt>
      <trkpt lat="48.96006" lon="7.32918">
        <ele>281</ele>
        <time>2025-06-22T08:37:57Z</time>
      </trkpt>
      <trkpt lat="48.96009" lon="7.32913">
        <ele>282</ele>
        <time>2025-06-22T08:37:58Z</time>
      </trkpt>
      <trkpt lat="48.96012" lon="7.32908">
        <ele>282</ele>
        <time>2025-06-22T08:37:59Z</time>
      </trkpt>
      <trkpt lat="48.96015" lon="7.32903">
        <ele>281</ele>
        <time>2025-06-22T08:38:00Z</time>
      </trkpt>
      <trkpt lat="48.96017" lon="7.32897">
        <ele>281</ele>
        <time>2025-06-22T08:38:01Z</time>
      </trkpt>
      <trkpt lat="48.96019" lon="7.32891">
        <ele>281</ele>
        <time>2025-06-22T08:38:02Z</time>
      </trkpt>
      <trkpt lat="48.96022" lon="7.32885">
        <ele>281</ele>
        <time>2025-06-22T08:38:03Z</time>
      </trkpt>
      <trkpt lat="48.96025" lon="7.32879">
        <ele>281</ele>
        <time>2025-06-22T08:38:04Z</time>
      </trkpt>
      <trkpt lat="48.96028" lon="7.32873">
        <ele>281</ele>
        <time>2025-06-22T08:38:05Z</time>
      </trkpt>
      <trkpt lat="48.9603" lon="7.32867">
        <ele>281</ele>
        <time>2025-06-22T08:38:06Z</time>
      </trkpt>
      <trkpt lat="48.96033" lon="7.32862">
        <ele>281</ele>
        <time>2025-06-22T08:38:07Z</time>
      </trkpt>
      <trkpt lat="48.96036" lon="7.32856">
        <ele>281</ele>
        <time>2025-06-22T08:38:08Z</time>
      </trkpt>
      <trkpt lat="48.9604" lon="7.3285">
        <ele>281</ele>
        <time>2025-06-22T08:38:09Z</time>
      </trkpt>
      <trkpt lat="48.96043" lon="7.32845">
        <ele>281</ele>
        <time>2025-06-22T08:38:10Z</time>
      </trkpt>
      <trkpt lat="48.96047" lon="7.32839">
        <ele>281</ele>
        <time>2025-06-22T08:38:11Z</time>
      </trkpt>
      <trkpt lat="48.9605" lon="7.32834">
        <ele>280</ele>
        <time>2025-06-22T08:38:12Z</time>
      </trkpt>
      <trkpt lat="48.96054" lon="7.32829">
        <ele>280</ele>
        <time>2025-06-22T08:38:13Z</time>
      </trkpt>
      <trkpt lat="48.96057" lon="7.32823">
        <ele>280</ele>
        <time>2025-06-22T08:38:14Z</time>
      </trkpt>
      <trkpt lat="48.96059" lon="7.32817">
        <ele>280</ele>
        <time>2025-06-22T08:38:15Z</time>
      </trkpt>
      <trkpt lat="48.96063" lon="7.32812">
        <ele>280</ele>
        <time>2025-06-22T08:38:16Z</time>
      </trkpt>
      <trkpt lat="48.96067" lon="7.32807">
        <ele>280</ele>
        <time>2025-06-22T08:38:17Z</time>
      </trkpt>
      <trkpt lat="48.96071" lon="7.32802">
        <ele>280</ele>
        <time>2025-06-22T08:38:18Z</time>
      </trkpt>
      <trkpt lat="48.9608" lon="7.32794">
        <ele>280</ele>
        <time>2025-06-22T08:38:20Z</time>
      </trkpt>
      <trkpt lat="48.96084" lon="7.32789">
        <ele>280</ele>
        <time>2025-06-22T08:38:21Z</time>
      </trkpt>
      <trkpt lat="48.96088" lon="7.32785">
        <ele>280</ele>
        <time>2025-06-22T08:38:22Z</time>
      </trkpt>
      <trkpt lat="48.96091" lon="7.3278">
        <ele>280</ele>
        <time>2025-06-22T08:38:23Z</time>
      </trkpt>
      <trkpt lat="48.96095" lon="7.32775">
        <ele>280</ele>
        <time>2025-06-22T08:38:24Z</time>
      </trkpt>
      <trkpt lat="48.96098" lon="7.32771">
        <ele>281</ele>
        <time>2025-06-22T08:38:25Z</time>
      </trkpt>
      <trkpt lat="48.96101" lon="7.32767">
        <ele>281</ele>
        <time>2025-06-22T08:38:26Z</time>
      </trkpt>
      <trkpt lat="48.96104" lon="7.32763">
        <ele>282</ele>
        <time>2025-06-22T08:38:27Z</time>
      </trkpt>
      <trkpt lat="48.96107" lon="7.3276">
        <ele>282</ele>
        <time>2025-06-22T08:38:28Z</time>
      </trkpt>
      <trkpt lat="48.9611" lon="7.32756">
        <ele>282</ele>
        <time>2025-06-22T08:38:29Z</time>
      </trkpt>
      <trkpt lat="48.96112" lon="7.32753">
        <ele>282</ele>
        <time>2025-06-22T08:38:30Z</time>
      </trkpt>
      <trkpt lat="48.96114" lon="7.3275">
        <ele>282</ele>
        <time>2025-06-22T08:38:31Z</time>
      </trkpt>
      <trkpt lat="48.96117" lon="7.32747">
        <ele>282</ele>
        <time>2025-06-22T08:38:32Z</time>
      </trkpt>
      <trkpt lat="48.96119" lon="7.32744">
        <ele>283</ele>
        <time>2025-06-22T08:38:33Z</time>
      </trkpt>
      <trkpt lat="48.96121" lon="7.32741">
        <ele>283</ele>
        <time>2025-06-22T08:38:34Z</time>
      </trkpt>
      <trkpt lat="48.96124" lon="7.32739">
        <ele>283</ele>
        <time>2025-06-22T08:38:35Z</time>
      </trkpt>
      <trkpt lat="48.96126" lon="7.32736">
        <ele>284</ele>
        <time>2025-06-22T08:38:36Z</time>
      </trkpt>
      <trkpt lat="48.96128" lon="7.32734">
        <ele>284</ele>
        <time>2025-06-22T08:38:37Z</time>
      </trkpt>
      <trkpt lat="48.96131" lon="7.32733">
        <ele>284</ele>
        <time>2025-06-22T08:38:38Z</time>
      </trkpt>
      <trkpt lat="48.96134" lon="7.32731">
        <ele>284</ele>
        <time>2025-06-22T08:38:39Z</time>
      </trkpt>
      <trkpt lat="48.96136" lon="7.3273">
        <ele>284</ele>
        <time>2025-06-22T08:38:40Z</time>
      </trkpt>
      <trkpt lat="48.96139" lon="7.32729">
        <ele>285</ele>
        <time>2025-06-22T08:38:41Z</time>
      </trkpt>
      <trkpt lat="48.96141" lon="7.32729">
        <ele>285</ele>
        <time>2025-06-22T08:38:42Z</time>
      </trkpt>
      <trkpt lat="48.96144" lon="7.3273">
        <ele>285</ele>
        <time>2025-06-22T08:38:43Z</time>
      </trkpt>
      <trkpt lat="48.96146" lon="7.32731">
        <ele>286</ele>
        <time>2025-06-22T08:38:44Z</time>
      </trkpt>
      <trkpt lat="48.96149" lon="7.32732">
        <ele>286</ele>
        <time>2025-06-22T08:38:45Z</time>
      </trkpt>
      <trkpt lat="48.96152" lon="7.32733">
        <ele>286</ele>
        <time>2025-06-22T08:38:46Z</time>
      </trkpt>
      <trkpt lat="48.96154" lon="7.32734">
        <ele>286</ele>
        <time>2025-06-22T08:38:47Z</time>
      </trkpt>
      <trkpt lat="48.96157" lon="7.32735">
        <ele>286</ele>
        <time>2025-06-22T08:38:48Z</time>
      </trkpt>
      <trkpt lat="48.96159" lon="7.32737">
        <ele>287</ele>
        <time>2025-06-22T08:38:49Z</time>
      </trkpt>
      <trkpt lat="48.96162" lon="7.32738">
        <ele>287</ele>
        <time>2025-06-22T08:38:50Z</time>
      </trkpt>
      <trkpt lat="48.96164" lon="7.32739">
        <ele>288</ele>
        <time>2025-06-22T08:38:51Z</time>
      </trkpt>
      <trkpt lat="48.96166" lon="7.3274">
        <ele>288</ele>
        <time>2025-06-22T08:38:52Z</time>
      </trkpt>
      <trkpt lat="48.96169" lon="7.32741">
        <ele>288</ele>
        <time>2025-06-22T08:38:53Z</time>
      </trkpt>
      <trkpt lat="48.96171" lon="7.32742">
        <ele>288</ele>
        <time>2025-06-22T08:38:54Z</time>
      </trkpt>
      <trkpt lat="48.96173" lon="7.32742">
        <ele>288</ele>
        <time>2025-06-22T08:38:55Z</time>
      </trkpt>
      <trkpt lat="48.96176" lon="7.32741">
        <ele>288</ele>
        <time>2025-06-22T08:38:56Z</time>
      </trkpt>
      <trkpt lat="48.96178" lon="7.3274">
        <ele>288</ele>
        <time>2025-06-22T08:38:57Z</time>
      </trkpt>
      <trkpt lat="48.9618" lon="7.32739">
        <ele>288</ele>
        <time>2025-06-22T08:38:58Z</time>
      </trkpt>
      <trkpt lat="48.96181" lon="7.32737">
        <ele>289</ele>
        <time>2025-06-22T08:38:59Z</time>
      </trkpt>
      <trkpt lat="48.96183" lon="7.32734">
        <ele>289</ele>
        <time>2025-06-22T08:39:00Z</time>
      </trkpt>
      <trkpt lat="48.96184" lon="7.32731">
        <ele>289</ele>
        <time>2025-06-22T08:39:01Z</time>
      </trkpt>
      <trkpt lat="48.96186" lon="7.32728">
        <ele>290</ele>
        <time>2025-06-22T08:39:02Z</time>
      </trkpt>
      <trkpt lat="48.96187" lon="7.32726">
        <ele>290</ele>
        <time>2025-06-22T08:39:03Z</time>
      </trkpt>
      <trkpt lat="48.96188" lon="7.32723">
        <ele>290</ele>
        <time>2025-06-22T08:39:04Z</time>
      </trkpt>
      <trkpt lat="48.9619" lon="7.3272">
        <ele>290</ele>
        <time>2025-06-22T08:39:05Z</time>
      </trkpt>
      <trkpt lat="48.96191" lon="7.32716">
        <ele>290</ele>
        <time>2025-06-22T08:39:06Z</time>
      </trkpt>
      <trkpt lat="48.96192" lon="7.32713">
        <ele>290</ele>
        <time>2025-06-22T08:39:07Z</time>
      </trkpt>
      <trkpt lat="48.96194" lon="7.32711">
        <ele>291</ele>
        <time>2025-06-22T08:39:08Z</time>
      </trkpt>
      <trkpt lat="48.96199" lon="7.32712">
        <ele>291</ele>
        <time>2025-06-22T08:39:10Z</time>
      </trkpt>
      <trkpt lat="48.96201" lon="7.32713">
        <ele>292</ele>
        <time>2025-06-22T08:39:11Z</time>
      </trkpt>
      <trkpt lat="48.96204" lon="7.32713">
        <ele>292</ele>
        <time>2025-06-22T08:39:13Z</time>
      </trkpt>
      <trkpt lat="48.96206" lon="7.32712">
        <ele>292</ele>
        <time>2025-06-22T08:39:14Z</time>
      </trkpt>
      <trkpt lat="48.96207" lon="7.32709">
        <ele>293</ele>
        <time>2025-06-22T08:39:16Z</time>
      </trkpt>
      <trkpt lat="48.96207" lon="7.32705">
        <ele>293</ele>
        <time>2025-06-22T08:39:17Z</time>
      </trkpt>
      <trkpt lat="48.96207" lon="7.32701">
        <ele>293</ele>
        <time>2025-06-22T08:39:18Z</time>
      </trkpt>
      <trkpt lat="48.96206" lon="7.32697">
        <ele>294</ele>
        <time>2025-06-22T08:39:19Z</time>
      </trkpt>
      <trkpt lat="48.96206" lon="7.32694">
        <ele>294</ele>
        <time>2025-06-22T08:39:20Z</time>
      </trkpt>
      <trkpt lat="48.96207" lon="7.3269">
        <ele>294</ele>
        <time>2025-06-22T08:39:21Z</time>
      </trkpt>
      <trkpt lat="48.96207" lon="7.32686">
        <ele>294</ele>
        <time>2025-06-22T08:39:22Z</time>
      </trkpt>
      <trkpt lat="48.96208" lon="7.32677">
        <ele>294</ele>
        <time>2025-06-22T08:39:24Z</time>
      </trkpt>
      <trkpt lat="48.96208" lon="7.32673">
        <ele>294</ele>
        <time>2025-06-22T08:39:25Z</time>
      </trkpt>
      <trkpt lat="48.96212" lon="7.32656">
        <ele>294</ele>
        <time>2025-06-22T08:39:29Z</time>
      </trkpt>
      <trkpt lat="48.96217" lon="7.32639">
        <ele>294</ele>
        <time>2025-06-22T08:39:32Z</time>
      </trkpt>
      <trkpt lat="48.96221" lon="7.32629">
        <ele>294</ele>
        <time>2025-06-22T08:39:34Z</time>
      </trkpt>
      <trkpt lat="48.96225" lon="7.32614">
        <ele>294</ele>
        <time>2025-06-22T08:39:37Z</time>
      </trkpt>
      <trkpt lat="48.96228" lon="7.326">
        <ele>295</ele>
        <time>2025-06-22T08:39:40Z</time>
      </trkpt>
      <trkpt lat="48.96232" lon="7.32583">
        <ele>295</ele>
        <time>2025-06-22T08:39:43Z</time>
      </trkpt>
      <trkpt lat="48.9623" lon="7.32562">
        <ele>295</ele>
        <time>2025-06-22T08:39:46Z</time>
      </trkpt>
      <trkpt lat="48.96229" lon="7.32545">
        <ele>292</ele>
        <time>2025-06-22T08:39:48Z</time>
      </trkpt>
      <trkpt lat="48.96227" lon="7.32523">
        <ele>290</ele>
        <time>2025-06-22T08:39:50Z</time>
      </trkpt>
      <trkpt lat="48.96227" lon="7.32514">
        <ele>290</ele>
        <time>2025-06-22T08:39:51Z</time>
      </trkpt>
      <trkpt lat="48.96227" lon="7.32506">
        <ele>290</ele>
        <time>2025-06-22T08:39:52Z</time>
      </trkpt>
      <trkpt lat="48.96226" lon="7.32499">
        <ele>290</ele>
        <time>2025-06-22T08:39:53Z</time>
      </trkpt>
      <trkpt lat="48.96223" lon="7.32484">
        <ele>288</ele>
        <time>2025-06-22T08:39:55Z</time>
      </trkpt>
      <trkpt lat="48.96221" lon="7.32466">
        <ele>287</ele>
        <time>2025-06-22T08:39:57Z</time>
      </trkpt>
      <trkpt lat="48.96221" lon="7.32448">
        <ele>287</ele>
        <time>2025-06-22T08:39:59Z</time>
      </trkpt>
      <trkpt lat="48.96221" lon="7.32428">
        <ele>287</ele>
        <time>2025-06-22T08:40:01Z</time>
      </trkpt>
      <trkpt lat="48.96223" lon="7.32409">
        <ele>287</ele>
        <time>2025-06-22T08:40:03Z</time>
      </trkpt>
      <trkpt lat="48.96225" lon="7.32392">
        <ele>286</ele>
        <time>2025-06-22T08:40:05Z</time>
      </trkpt>
      <trkpt lat="48.96228" lon="7.32374">
        <ele>286</ele>
        <time>2025-06-22T08:40:07Z</time>
      </trkpt>
      <trkpt lat="48.96231" lon="7.32356">
        <ele>285</ele>
        <time>2025-06-22T08:40:09Z</time>
      </trkpt>
      <trkpt lat="48.96235" lon="7.32339">
        <ele>285</ele>
        <time>2025-06-22T08:40:11Z</time>
      </trkpt>
      <trkpt lat="48.96238" lon="7.32323">
        <ele>285</ele>
        <time>2025-06-22T08:40:13Z</time>
      </trkpt>
      <trkpt lat="48.96238" lon="7.32312">
        <ele>284</ele>
        <time>2025-06-22T08:40:14Z</time>
      </trkpt>
      <trkpt lat="48.96238" lon="7.32301">
        <ele>284</ele>
        <time>2025-06-22T08:40:15Z</time>
      </trkpt>
      <trkpt lat="48.96239" lon="7.32291">
        <ele>284</ele>
        <time>2025-06-22T08:40:16Z</time>
      </trkpt>
      <trkpt lat="48.9624" lon="7.32278">
        <ele>284</ele>
        <time>2025-06-22T08:40:17Z</time>
      </trkpt>
      <trkpt lat="48.96241" lon="7.32266">
        <ele>284</ele>
        <time>2025-06-22T08:40:18Z</time>
      </trkpt>
      <trkpt lat="48.96243" lon="7.32241">
        <ele>283</ele>
        <time>2025-06-22T08:40:20Z</time>
      </trkpt>
      <trkpt lat="48.96246" lon="7.32217">
        <ele>282</ele>
        <time>2025-06-22T08:40:22Z</time>
      </trkpt>
      <trkpt lat="48.96249" lon="7.32194">
        <ele>282</ele>
        <time>2025-06-22T08:40:24Z</time>
      </trkpt>
      <trkpt lat="48.96252" lon="7.32174">
        <ele>281</ele>
        <time>2025-06-22T08:40:26Z</time>
      </trkpt>
      <trkpt lat="48.96255" lon="7.32155">
        <ele>281</ele>
        <time>2025-06-22T08:40:28Z</time>
      </trkpt>
      <trkpt lat="48.96259" lon="7.32136">
        <ele>280</ele>
        <time>2025-06-22T08:40:30Z</time>
      </trkpt>
      <trkpt lat="48.96262" lon="7.32118">
        <ele>280</ele>
        <time>2025-06-22T08:40:32Z</time>
      </trkpt>
      <trkpt lat="48.96264" lon="7.321">
        <ele>279</ele>
        <time>2025-06-22T08:40:34Z</time>
      </trkpt>
      <trkpt lat="48.96267" lon="7.32085">
        <ele>279</ele>
        <time>2025-06-22T08:40:36Z</time>
      </trkpt>
      <trkpt lat="48.96269" lon="7.32069">
        <ele>279</ele>
        <time>2025-06-22T08:40:38Z</time>
      </trkpt>
      <trkpt lat="48.96274" lon="7.32056">
        <ele>279</ele>
        <time>2025-06-22T08:40:40Z</time>
      </trkpt>
      <trkpt lat="48.96282" lon="7.3204">
        <ele>279</ele>
        <time>2025-06-22T08:40:43Z</time>
      </trkpt>
      <trkpt lat="48.96288" lon="7.32028">
        <ele>280</ele>
        <time>2025-06-22T08:40:46Z</time>
      </trkpt>
      <trkpt lat="48.96297" lon="7.32016">
        <ele>281</ele>
        <time>2025-06-22T08:40:49Z</time>
      </trkpt>
      <trkpt lat="48.96304" lon="7.32005">
        <ele>281</ele>
        <time>2025-06-22T08:40:52Z</time>
      </trkpt>
      <trkpt lat="48.96312" lon="7.31993">
        <ele>281</ele>
        <time>2025-06-22T08:40:55Z</time>
      </trkpt>
      <trkpt lat="48.96321" lon="7.31983">
        <ele>280</ele>
        <time>2025-06-22T08:40:58Z</time>
      </trkpt>
      <trkpt lat="48.96331" lon="7.31972">
        <ele>280</ele>
        <time>2025-06-22T08:41:01Z</time>
      </trkpt>
      <trkpt lat="48.96339" lon="7.31962">
        <ele>280</ele>
        <time>2025-06-22T08:41:03Z</time>
      </trkpt>
      <trkpt lat="48.96345" lon="7.31952">
        <ele>280</ele>
        <time>2025-06-22T08:41:05Z</time>
      </trkpt>
      <trkpt lat="48.96351" lon="7.31935">
        <ele>280</ele>
        <time>2025-06-22T08:41:08Z</time>
      </trkpt>
      <trkpt lat="48.96357" lon="7.3192">
        <ele>281</ele>
        <time>2025-06-22T08:41:11Z</time>
      </trkpt>
      <trkpt lat="48.96361" lon="7.31902">
        <ele>281</ele>
        <time>2025-06-22T08:41:14Z</time>
      </trkpt>
      <trkpt lat="48.96363" lon="7.31884">
        <ele>281</ele>
        <time>2025-06-22T08:41:17Z</time>
      </trkpt>
      <trkpt lat="48.96364" lon="7.3187">
        <ele>281</ele>
        <time>2025-06-22T08:41:19Z</time>
      </trkpt>
      <trkpt lat="48.96368" lon="7.31851">
        <ele>281</ele>
        <time>2025-06-22T08:41:22Z</time>
      </trkpt>
      <trkpt lat="48.96372" lon="7.31839">
        <ele>281</ele>
        <time>2025-06-22T08:41:24Z</time>
      </trkpt>
      <trkpt lat="48.96376" lon="7.31825">
        <ele>280</ele>
        <time>2025-06-22T08:41:26Z</time>
      </trkpt>
      <trkpt lat="48.96383" lon="7.31812">
        <ele>280</ele>
        <time>2025-06-22T08:41:28Z</time>
      </trkpt>
      <trkpt lat="48.9639" lon="7.318">
        <ele>280</ele>
        <time>2025-06-22T08:41:30Z</time>
      </trkpt>
      <trkpt lat="48.96397" lon="7.31788">
        <ele>279</ele>
        <time>2025-06-22T08:41:32Z</time>
      </trkpt>
      <trkpt lat="48.96406" lon="7.31776">
        <ele>279</ele>
        <time>2025-06-22T08:41:35Z</time>
      </trkpt>
      <trkpt lat="48.96418" lon="7.31769">
        <ele>279</ele>
        <time>2025-06-22T08:41:38Z</time>
      </trkpt>
      <trkpt lat="48.96427" lon="7.31764">
        <ele>279</ele>
        <time>2025-06-22T08:41:40Z</time>
      </trkpt>
      <trkpt lat="48.96435" lon="7.31756">
        <ele>279</ele>
        <time>2025-06-22T08:41:42Z</time>
      </trkpt>
      <trkpt lat="48.96443" lon="7.31747">
        <ele>278</ele>
        <time>2025-06-22T08:41:44Z</time>
      </trkpt>
      <trkpt lat="48.96453" lon="7.31739">
        <ele>278</ele>
        <time>2025-06-22T08:41:46Z</time>
      </trkpt>
      <trkpt lat="48.96462" lon="7.31735">
        <ele>278</ele>
        <time>2025-06-22T08:41:47Z</time>
      </trkpt>
      <trkpt lat="48.96471" lon="7.31732">
        <ele>278</ele>
        <time>2025-06-22T08:41:48Z</time>
      </trkpt>
      <trkpt lat="48.96481" lon="7.3173">
        <ele>277</ele>
        <time>2025-06-22T08:41:49Z</time>
      </trkpt>
      <trkpt lat="48.96498" lon="7.31726">
        <ele>275</ele>
        <time>2025-06-22T08:41:51Z</time>
      </trkpt>
      <trkpt lat="48.96507" lon="7.31716">
        <ele>273</ele>
        <time>2025-06-22T08:41:53Z</time>
      </trkpt>
      <trkpt lat="48.96511" lon="7.31696">
        <ele>273</ele>
        <time>2025-06-22T08:41:55Z</time>
      </trkpt>
      <trkpt lat="48.9651" lon="7.31686">
        <ele>271</ele>
        <time>2025-06-22T08:41:56Z</time>
      </trkpt>
      <trkpt lat="48.96509" lon="7.31675">
        <ele>271</ele>
        <time>2025-06-22T08:41:57Z</time>
      </trkpt>
      <trkpt lat="48.96508" lon="7.31665">
        <ele>271</ele>
        <time>2025-06-22T08:41:58Z</time>
      </trkpt>
      <trkpt lat="48.96509" lon="7.31655">
        <ele>270</ele>
        <time>2025-06-22T08:41:59Z</time>
      </trkpt>
      <trkpt lat="48.96511" lon="7.31646">
        <ele>270</ele>
        <time>2025-06-22T08:42:00Z</time>
      </trkpt>
      <trkpt lat="48.96513" lon="7.31638">
        <ele>270</ele>
        <time>2025-06-22T08:42:01Z</time>
      </trkpt>
      <trkpt lat="48.96516" lon="7.3163">
        <ele>270</ele>
        <time>2025-06-22T08:42:02Z</time>
      </trkpt>
      <trkpt lat="48.96519" lon="7.31623">
        <ele>270</ele>
        <time>2025-06-22T08:42:03Z</time>
      </trkpt>
      <trkpt lat="48.96522" lon="7.31616">
        <ele>270</ele>
        <time>2025-06-22T08:42:04Z</time>
      </trkpt>
      <trkpt lat="48.96525" lon="7.31609">
        <ele>269</ele>
        <time>2025-06-22T08:42:05Z</time>
      </trkpt>
      <trkpt lat="48.96527" lon="7.31602">
        <ele>269</ele>
        <time>2025-06-22T08:42:06Z</time>
      </trkpt>
      <trkpt lat="48.9653" lon="7.31594">
        <ele>269</ele>
        <time>2025-06-22T08:42:07Z</time>
      </trkpt>
      <trkpt lat="48.96532" lon="7.31587">
        <ele>269</ele>
        <time>2025-06-22T08:42:08Z</time>
      </trkpt>
      <trkpt lat="48.96534" lon="7.31581">
        <ele>269</ele>
        <time>2025-06-22T08:42:09Z</time>
      </trkpt>
      <trkpt lat="48.96536" lon="7.31574">
        <ele>269</ele>
        <time>2025-06-22T08:42:10Z</time>
      </trkpt>
      <trkpt lat="48.96539" lon="7.31568">
        <ele>269</ele>
        <time>2025-06-22T08:42:11Z</time>
      </trkpt>
      <trkpt lat="48.96541" lon="7.31562">
        <ele>270</ele>
        <time>2025-06-22T08:42:12Z</time>
      </trkpt>
      <trkpt lat="48.96544" lon="7.31556">
        <ele>270</ele>
        <time>2025-06-22T08:42:13Z</time>
      </trkpt>
      <trkpt lat="48.96546" lon="7.31552">
        <ele>271</ele>
        <time>2025-06-22T08:42:14Z</time>
      </trkpt>
      <trkpt lat="48.96549" lon="7.31547">
        <ele>271</ele>
        <time>2025-06-22T08:42:15Z</time>
      </trkpt>
      <trkpt lat="48.96551" lon="7.31541">
        <ele>271</ele>
        <time>2025-06-22T08:42:16Z</time>
      </trkpt>
      <trkpt lat="48.96552" lon="7.31536">
        <ele>271</ele>
        <time>2025-06-22T08:42:17Z</time>
      </trkpt>
      <trkpt lat="48.96553" lon="7.3153">
        <ele>271</ele>
        <time>2025-06-22T08:42:18Z</time>
      </trkpt>
      <trkpt lat="48.96553" lon="7.31524">
        <ele>271</ele>
        <time>2025-06-22T08:42:19Z</time>
      </trkpt>
      <trkpt lat="48.96554" lon="7.31518">
        <ele>271</ele>
        <time>2025-06-22T08:42:20Z</time>
      </trkpt>
      <trkpt lat="48.96554" lon="7.31512">
        <ele>271</ele>
        <time>2025-06-22T08:42:21Z</time>
      </trkpt>
      <trkpt lat="48.96555" lon="7.31506">
        <ele>271</ele>
        <time>2025-06-22T08:42:22Z</time>
      </trkpt>
      <trkpt lat="48.96554" lon="7.31489">
        <ele>271</ele>
        <time>2025-06-22T08:42:25Z</time>
      </trkpt>
      <trkpt lat="48.96553" lon="7.31473">
        <ele>271</ele>
        <time>2025-06-22T08:42:27Z</time>
      </trkpt>
      <trkpt lat="48.96555" lon="7.31454">
        <ele>271</ele>
        <time>2025-06-22T08:42:30Z</time>
      </trkpt>
      <trkpt lat="48.96556" lon="7.31434">
        <ele>271</ele>
        <time>2025-06-22T08:42:33Z</time>
      </trkpt>
      <trkpt lat="48.96559" lon="7.3142">
        <ele>271</ele>
        <time>2025-06-22T08:42:35Z</time>
      </trkpt>
      <trkpt lat="48.96562" lon="7.314">
        <ele>271</ele>
        <time>2025-06-22T08:42:38Z</time>
      </trkpt>
      <trkpt lat="48.96562" lon="7.31393">
        <ele>271</ele>
        <time>2025-06-22T08:42:39Z</time>
      </trkpt>
      <trkpt lat="48.96563" lon="7.31386">
        <ele>271</ele>
        <time>2025-06-22T08:42:40Z</time>
      </trkpt>
      <trkpt lat="48.96563" lon="7.31381">
        <ele>271</ele>
        <time>2025-06-22T08:42:41Z</time>
      </trkpt>
      <trkpt lat="48.96564" lon="7.31375">
        <ele>271</ele>
        <time>2025-06-22T08:42:42Z</time>
      </trkpt>
      <trkpt lat="48.96564" lon="7.3137">
        <ele>271</ele>
        <time>2025-06-22T08:42:43Z</time>
      </trkpt>
      <trkpt lat="48.96565" lon="7.31365">
        <ele>271</ele>
        <time>2025-06-22T08:42:44Z</time>
      </trkpt>
      <trkpt lat="48.96566" lon="7.3136">
        <ele>271</ele>
        <time>2025-06-22T08:42:45Z</time>
      </trkpt>
      <trkpt lat="48.96567" lon="7.3134">
        <ele>271</ele>
        <time>2025-06-22T08:42:48Z</time>
      </trkpt>
      <trkpt lat="48.96569" lon="7.31325">
        <ele>271</ele>
        <time>2025-06-22T08:42:50Z</time>
      </trkpt>
      <trkpt lat="48.96569" lon="7.31318">
        <ele>271</ele>
        <time>2025-06-22T08:42:51Z</time>
      </trkpt>
      <trkpt lat="48.96569" lon="7.31312">
        <ele>271</ele>
        <time>2025-06-22T08:42:52Z</time>
      </trkpt>
      <trkpt lat="48.96569" lon="7.31305">
        <ele>271</ele>
        <time>2025-06-22T08:42:53Z</time>
      </trkpt>
      <trkpt lat="48.96569" lon="7.31299">
        <ele>271</ele>
        <time>2025-06-22T08:42:54Z</time>
      </trkpt>
      <trkpt lat="48.96569" lon="7.31292">
        <ele>271</ele>
        <time>2025-06-22T08:42:55Z</time>
      </trkpt>
      <trkpt lat="48.96569" lon="7.31283">
        <ele>271</ele>
        <time>2025-06-22T08:42:56Z</time>
      </trkpt>
      <trkpt lat="48.96569" lon="7.31275">
        <ele>271</ele>
        <time>2025-06-22T08:42:57Z</time>
      </trkpt>
      <trkpt lat="48.9657" lon="7.31268">
        <ele>271</ele>
        <time>2025-06-22T08:42:58Z</time>
      </trkpt>
      <trkpt lat="48.9657" lon="7.3126">
        <ele>271</ele>
        <time>2025-06-22T08:42:59Z</time>
      </trkpt>
      <trkpt lat="48.96574" lon="7.31246">
        <ele>271</ele>
        <time>2025-06-22T08:43:00Z</time>
      </trkpt>
      <trkpt lat="48.96581" lon="7.31228">
        <ele>271</ele>
        <time>2025-06-22T08:43:04Z</time>
      </trkpt>
      <trkpt lat="48.96584" lon="7.3122">
        <ele>271</ele>
        <time>2025-06-22T08:43:05Z</time>
      </trkpt>
      <trkpt lat="48.96587" lon="7.31213">
        <ele>271</ele>
        <time>2025-06-22T08:43:06Z</time>
      </trkpt>
      <trkpt lat="48.9659" lon="7.31206">
        <ele>271</ele>
        <time>2025-06-22T08:43:07Z</time>
      </trkpt>
      <trkpt lat="48.96593" lon="7.31199">
        <ele>271</ele>
        <time>2025-06-22T08:43:08Z</time>
      </trkpt>
      <trkpt lat="48.96596" lon="7.31193">
        <ele>271</ele>
        <time>2025-06-22T08:43:09Z</time>
      </trkpt>
      <trkpt lat="48.966" lon="7.31187">
        <ele>271</ele>
        <time>2025-06-22T08:43:10Z</time>
      </trkpt>
      <trkpt lat="48.96604" lon="7.31183">
        <ele>270</ele>
        <time>2025-06-22T08:43:11Z</time>
      </trkpt>
      <trkpt lat="48.9661" lon="7.31166">
        <ele>269</ele>
        <time>2025-06-22T08:43:14Z</time>
      </trkpt>
      <trkpt lat="48.96615" lon="7.31152">
        <ele>269</ele>
        <time>2025-06-22T08:43:16Z</time>
      </trkpt>
      <trkpt lat="48.96621" lon="7.31138">
        <ele>269</ele>
        <time>2025-06-22T08:43:18Z</time>
      </trkpt>
      <trkpt lat="48.96624" lon="7.31122">
        <ele>269</ele>
        <time>2025-06-22T08:43:20Z</time>
      </trkpt>
      <trkpt lat="48.96626" lon="7.31106">
        <ele>269</ele>
        <time>2025-06-22T08:43:22Z</time>
      </trkpt>
      <trkpt lat="48.96627" lon="7.31093">
        <ele>269</ele>
        <time>2025-06-22T08:43:24Z</time>
      </trkpt>
      <trkpt lat="48.96628" lon="7.31088">
        <ele>269</ele>
        <time>2025-06-22T08:43:25Z</time>
      </trkpt>
      <trkpt lat="48.96632" lon="7.31075">
        <ele>270</ele>
        <time>2025-06-22T08:43:28Z</time>
      </trkpt>
      <trkpt lat="48.96633" lon="7.31064">
        <ele>270</ele>
        <time>2025-06-22T08:43:30Z</time>
      </trkpt>
      <trkpt lat="48.96633" lon="7.3105">
        <ele>271</ele>
        <time>2025-06-22T08:43:32Z</time>
      </trkpt>
      <trkpt lat="48.96632" lon="7.31034">
        <ele>270</ele>
        <time>2025-06-22T08:43:34Z</time>
      </trkpt>
      <trkpt lat="48.96632" lon="7.31026">
        <ele>270</ele>
        <time>2025-06-22T08:43:35Z</time>
      </trkpt>
      <trkpt lat="48.96632" lon="7.3101">
        <ele>270</ele>
        <time>2025-06-22T08:43:37Z</time>
      </trkpt>
      <trkpt lat="48.96631" lon="7.30993">
        <ele>270</ele>
        <time>2025-06-22T08:43:39Z</time>
      </trkpt>
      <trkpt lat="48.96631" lon="7.30984">
        <ele>269</ele>
        <time>2025-06-22T08:43:40Z</time>
      </trkpt>
      <trkpt lat="48.9663" lon="7.30967">
        <ele>269</ele>
        <time>2025-06-22T08:43:42Z</time>
      </trkpt>
      <trkpt lat="48.9663" lon="7.30959">
        <ele>269</ele>
        <time>2025-06-22T08:43:43Z</time>
      </trkpt>
      <trkpt lat="48.96629" lon="7.30951">
        <ele>268</ele>
        <time>2025-06-22T08:43:44Z</time>
      </trkpt>
      <trkpt lat="48.96628" lon="7.30935">
        <ele>268</ele>
        <time>2025-06-22T08:43:46Z</time>
      </trkpt>
      <trkpt lat="48.96627" lon="7.30921">
        <ele>268</ele>
        <time>2025-06-22T08:43:48Z</time>
      </trkpt>
      <trkpt lat="48.96627" lon="7.30914">
        <ele>268</ele>
        <time>2025-06-22T08:43:49Z</time>
      </trkpt>
      <trkpt lat="48.96627" lon="7.30908">
        <ele>268</ele>
        <time>2025-06-22T08:43:50Z</time>
      </trkpt>
      <trkpt lat="48.96626" lon="7.30902">
        <ele>269</ele>
        <time>2025-06-22T08:43:51Z</time>
      </trkpt>
      <trkpt lat="48.96626" lon="7.30883">
        <ele>269</ele>
        <time>2025-06-22T08:43:54Z</time>
      </trkpt>
      <trkpt lat="48.96625" lon="7.30876">
        <ele>269</ele>
        <time>2025-06-22T08:43:55Z</time>
      </trkpt>
      <trkpt lat="48.96624" lon="7.30869">
        <ele>269</ele>
        <time>2025-06-22T08:43:56Z</time>
      </trkpt>
      <trkpt lat="48.96623" lon="7.30862">
        <ele>270</ele>
        <time>2025-06-22T08:43:57Z</time>
      </trkpt>
      <trkpt lat="48.96621" lon="7.30856">
        <ele>270</ele>
        <time>2025-06-22T08:43:58Z</time>
      </trkpt>
      <trkpt lat="48.9662" lon="7.30848">
        <ele>270</ele>
        <time>2025-06-22T08:43:59Z</time>
      </trkpt>
      <trkpt lat="48.96619" lon="7.30841">
        <ele>270</ele>
        <time>2025-06-22T08:44:00Z</time>
      </trkpt>
      <trkpt lat="48.96617" lon="7.30833">
        <ele>270</ele>
        <time>2025-06-22T08:44:01Z</time>
      </trkpt>
      <trkpt lat="48.96616" lon="7.30825">
        <ele>270</ele>
        <time>2025-06-22T08:44:02Z</time>
      </trkpt>
      <trkpt lat="48.96614" lon="7.30818">
        <ele>270</ele>
        <time>2025-06-22T08:44:03Z</time>
      </trkpt>
      <trkpt lat="48.96612" lon="7.3081">
        <ele>270</ele>
        <time>2025-06-22T08:44:04Z</time>
      </trkpt>
      <trkpt lat="48.96611" lon="7.30802">
        <ele>270</ele>
        <time>2025-06-22T08:44:05Z</time>
      </trkpt>
      <trkpt lat="48.96609" lon="7.30794">
        <ele>269</ele>
        <time>2025-06-22T08:44:06Z</time>
      </trkpt>
      <trkpt lat="48.96608" lon="7.30786">
        <ele>269</ele>
        <time>2025-06-22T08:44:07Z</time>
      </trkpt>
      <trkpt lat="48.96606" lon="7.30778">
        <ele>269</ele>
        <time>2025-06-22T08:44:08Z</time>
      </trkpt>
      <trkpt lat="48.96605" lon="7.3077">
        <ele>269</ele>
        <time>2025-06-22T08:44:09Z</time>
      </trkpt>
      <trkpt lat="48.96604" lon="7.30762">
        <ele>268</ele>
        <time>2025-06-22T08:44:10Z</time>
      </trkpt>
      <trkpt lat="48.96603" lon="7.30754">
        <ele>268</ele>
        <time>2025-06-22T08:44:11Z</time>
      </trkpt>
      <trkpt lat="48.96602" lon="7.30746">
        <ele>268</ele>
        <time>2025-06-22T08:44:12Z</time>
      </trkpt>
      <trkpt lat="48.96602" lon="7.30739">
        <ele>268</ele>
        <time>2025-06-22T08:44:13Z</time>
      </trkpt>
      <trkpt lat="48.96601" lon="7.30732">
        <ele>268</ele>
        <time>2025-06-22T08:44:14Z</time>
      </trkpt>
      <trkpt lat="48.966" lon="7.30726">
        <ele>268</ele>
        <time>2025-06-22T08:44:15Z</time>
      </trkpt>
      <trkpt lat="48.96598" lon="7.30718">
        <ele>268</ele>
        <time>2025-06-22T08:44:16Z</time>
      </trkpt>
      <trkpt lat="48.96597" lon="7.3071">
        <ele>268</ele>
        <time>2025-06-22T08:44:17Z</time>
      </trkpt>
      <trkpt lat="48.96595" lon="7.30703">
        <ele>268</ele>
        <time>2025-06-22T08:44:18Z</time>
      </trkpt>
      <trkpt lat="48.96593" lon="7.30695">
        <ele>268</ele>
        <time>2025-06-22T08:44:19Z</time>
      </trkpt>
      <trkpt lat="48.96591" lon="7.30688">
        <ele>268</ele>
        <time>2025-06-22T08:44:20Z</time>
      </trkpt>
      <trkpt lat="48.96589" lon="7.3068">
        <ele>268</ele>
        <time>2025-06-22T08:44:21Z</time>
      </trkpt>
      <trkpt lat="48.96588" lon="7.30673">
        <ele>268</ele>
        <time>2025-06-22T08:44:22Z</time>
      </trkpt>
      <trkpt lat="48.96586" lon="7.30667">
        <ele>268</ele>
        <time>2025-06-22T08:44:23Z</time>
      </trkpt>
      <trkpt lat="48.96585" lon="7.3066">
        <ele>268</ele>
        <time>2025-06-22T08:44:24Z</time>
      </trkpt>
      <trkpt lat="48.96584" lon="7.30653">
        <ele>268</ele>
        <time>2025-06-22T08:44:25Z</time>
      </trkpt>
      <trkpt lat="48.96583" lon="7.30646">
        <ele>267</ele>
        <time>2025-06-22T08:44:26Z</time>
      </trkpt>
      <trkpt lat="48.96582" lon="7.30639">
        <ele>267</ele>
        <time>2025-06-22T08:44:27Z</time>
      </trkpt>
      <trkpt lat="48.96581" lon="7.30632">
        <ele>267</ele>
        <time>2025-06-22T08:44:28Z</time>
      </trkpt>
      <trkpt lat="48.96579" lon="7.30625">
        <ele>267</ele>
        <time>2025-06-22T08:44:29Z</time>
      </trkpt>
      <trkpt lat="48.96577" lon="7.30618">
        <ele>267</ele>
        <time>2025-06-22T08:44:30Z</time>
      </trkpt>
      <trkpt lat="48.96576" lon="7.30611">
        <ele>267</ele>
        <time>2025-06-22T08:44:31Z</time>
      </trkpt>
      <trkpt lat="48.96574" lon="7.30604">
        <ele>267</ele>
        <time>2025-06-22T08:44:32Z</time>
      </trkpt>
      <trkpt lat="48.96573" lon="7.30598">
        <ele>267</ele>
        <time>2025-06-22T08:44:33Z</time>
      </trkpt>
      <trkpt lat="48.96572" lon="7.30592">
        <ele>267</ele>
        <time>2025-06-22T08:44:34Z</time>
      </trkpt>
      <trkpt lat="48.96571" lon="7.30585">
        <ele>267</ele>
        <time>2025-06-22T08:44:35Z</time>
      </trkpt>
      <trkpt lat="48.9657" lon="7.30578">
        <ele>267</ele>
        <time>2025-06-22T08:44:36Z</time>
      </trkpt>
      <trkpt lat="48.96569" lon="7.30572">
        <ele>267</ele>
        <time>2025-06-22T08:44:37Z</time>
      </trkpt>
      <trkpt lat="48.96567" lon="7.30566">
        <ele>267</ele>
        <time>2025-06-22T08:44:38Z</time>
      </trkpt>
      <trkpt lat="48.96566" lon="7.3056">
        <ele>267</ele>
        <time>2025-06-22T08:44:39Z</time>
      </trkpt>
      <trkpt lat="48.96565" lon="7.30554">
        <ele>267</ele>
        <time>2025-06-22T08:44:40Z</time>
      </trkpt>
      <trkpt lat="48.96564" lon="7.30547">
        <ele>267</ele>
        <time>2025-06-22T08:44:41Z</time>
      </trkpt>
      <trkpt lat="48.96564" lon="7.30541">
        <ele>267</ele>
        <time>2025-06-22T08:44:42Z</time>
      </trkpt>
      <trkpt lat="48.96563" lon="7.30534">
        <ele>267</ele>
        <time>2025-06-22T08:44:43Z</time>
      </trkpt>
      <trkpt lat="48.96563" lon="7.30528">
        <ele>268</ele>
        <time>2025-06-22T08:44:44Z</time>
      </trkpt>
      <trkpt lat="48.96563" lon="7.30521">
        <ele>268</ele>
        <time>2025-06-22T08:44:45Z</time>
      </trkpt>
      <trkpt lat="48.96563" lon="7.30515">
        <ele>268</ele>
        <time>2025-06-22T08:44:46Z</time>
      </trkpt>
      <trkpt lat="48.96563" lon="7.30509">
        <ele>268</ele>
        <time>2025-06-22T08:44:47Z</time>
      </trkpt>
      <trkpt lat="48.96562" lon="7.30503">
        <ele>268</ele>
        <time>2025-06-22T08:44:48Z</time>
      </trkpt>
      <trkpt lat="48.96562" lon="7.30496">
        <ele>268</ele>
        <time>2025-06-22T08:44:49Z</time>
      </trkpt>
      <trkpt lat="48.96562" lon="7.3049">
        <ele>268</ele>
        <time>2025-06-22T08:44:50Z</time>
      </trkpt>
      <trkpt lat="48.96562" lon="7.30477">
        <ele>268</ele>
        <time>2025-06-22T08:44:51Z</time>
      </trkpt>
      <trkpt lat="48.96562" lon="7.30471">
        <ele>268</ele>
        <time>2025-06-22T08:44:53Z</time>
      </trkpt>
      <trkpt lat="48.96562" lon="7.30465">
        <ele>268</ele>
        <time>2025-06-22T08:44:54Z</time>
      </trkpt>
      <trkpt lat="48.96562" lon="7.30459">
        <ele>269</ele>
        <time>2025-06-22T08:44:55Z</time>
      </trkpt>
      <trkpt lat="48.96562" lon="7.30452">
        <ele>269</ele>
        <time>2025-06-22T08:44:56Z</time>
      </trkpt>
      <trkpt lat="48.96561" lon="7.30447">
        <ele>269</ele>
        <time>2025-06-22T08:44:57Z</time>
      </trkpt>
      <trkpt lat="48.96561" lon="7.30441">
        <ele>269</ele>
        <time>2025-06-22T08:44:58Z</time>
      </trkpt>
      <trkpt lat="48.96561" lon="7.30435">
        <ele>269</ele>
        <time>2025-06-22T08:44:59Z</time>
      </trkpt>
      <trkpt lat="48.96561" lon="7.30429">
        <ele>269</ele>
        <time>2025-06-22T08:45:00Z</time>
      </trkpt>
      <trkpt lat="48.96561" lon="7.30423">
        <ele>269</ele>
        <time>2025-06-22T08:45:01Z</time>
      </trkpt>
      <trkpt lat="48.96562" lon="7.30417">
        <ele>269</ele>
        <time>2025-06-22T08:45:02Z</time>
      </trkpt>
      <trkpt lat="48.96563" lon="7.30411">
        <ele>269</ele>
        <time>2025-06-22T08:45:03Z</time>
      </trkpt>
      <trkpt lat="48.96564" lon="7.30405">
        <ele>269</ele>
        <time>2025-06-22T08:45:04Z</time>
      </trkpt>
      <trkpt lat="48.96565" lon="7.30399">
        <ele>269</ele>
        <time>2025-06-22T08:45:05Z</time>
      </trkpt>
      <trkpt lat="48.96567" lon="7.30394">
        <ele>269</ele>
        <time>2025-06-22T08:45:06Z</time>
      </trkpt>
      <trkpt lat="48.96568" lon="7.30389">
        <ele>270</ele>
        <time>2025-06-22T08:45:07Z</time>
      </trkpt>
      <trkpt lat="48.96569" lon="7.30383">
        <ele>271</ele>
        <time>2025-06-22T08:45:08Z</time>
      </trkpt>
      <trkpt lat="48.96571" lon="7.30377">
        <ele>271</ele>
        <time>2025-06-22T08:45:09Z</time>
      </trkpt>
      <trkpt lat="48.96573" lon="7.30372">
        <ele>271</ele>
        <time>2025-06-22T08:45:10Z</time>
      </trkpt>
      <trkpt lat="48.96574" lon="7.30366">
        <ele>270</ele>
        <time>2025-06-22T08:45:11Z</time>
      </trkpt>
      <trkpt lat="48.96576" lon="7.30361">
        <ele>270</ele>
        <time>2025-06-22T08:45:12Z</time>
      </trkpt>
      <trkpt lat="48.96577" lon="7.30355">
        <ele>270</ele>
        <time>2025-06-22T08:45:13Z</time>
      </trkpt>
      <trkpt lat="48.96579" lon="7.3035">
        <ele>270</ele>
        <time>2025-06-22T08:45:14Z</time>
      </trkpt>
      <trkpt lat="48.96581" lon="7.30345">
        <ele>270</ele>
        <time>2025-06-22T08:45:15Z</time>
      </trkpt>
      <trkpt lat="48.96582" lon="7.3034">
        <ele>270</ele>
        <time>2025-06-22T08:45:16Z</time>
      </trkpt>
      <trkpt lat="48.96583" lon="7.30334">
        <ele>270</ele>
        <time>2025-06-22T08:45:17Z</time>
      </trkpt>
      <trkpt lat="48.96584" lon="7.30327">
        <ele>270</ele>
        <time>2025-06-22T08:45:18Z</time>
      </trkpt>
      <trkpt lat="48.96585" lon="7.3032">
        <ele>270</ele>
        <time>2025-06-22T08:45:19Z</time>
      </trkpt>
      <trkpt lat="48.96586" lon="7.30313">
        <ele>270</ele>
        <time>2025-06-22T08:45:20Z</time>
      </trkpt>
      <trkpt lat="48.96588" lon="7.30305">
        <ele>270</ele>
        <time>2025-06-22T08:45:21Z</time>
      </trkpt>
      <trkpt lat="48.96591" lon="7.30298">
        <ele>269</ele>
        <time>2025-06-22T08:45:22Z</time>
      </trkpt>
      <trkpt lat="48.96594" lon="7.3029">
        <ele>269</ele>
        <time>2025-06-22T08:45:23Z</time>
      </trkpt>
      <trkpt lat="48.96597" lon="7.30282">
        <ele>269</ele>
        <time>2025-06-22T08:45:24Z</time>
      </trkpt>
      <trkpt lat="48.96599" lon="7.30275">
        <ele>269</ele>
        <time>2025-06-22T08:45:25Z</time>
      </trkpt>
      <trkpt lat="48.96599" lon="7.30269">
        <ele>268</ele>
        <time>2025-06-22T08:45:26Z</time>
      </trkpt>
      <trkpt lat="48.96604" lon="7.30254">
        <ele>268</ele>
        <time>2025-06-22T08:45:28Z</time>
      </trkpt>
      <trkpt lat="48.96606" lon="7.30235">
        <ele>268</ele>
        <time>2025-06-22T08:45:30Z</time>
      </trkpt>
      <trkpt lat="48.96607" lon="7.30214">
        <ele>268</ele>
        <time>2025-06-22T08:45:32Z</time>
      </trkpt>
      <trkpt lat="48.96609" lon="7.30198">
        <ele>268</ele>
        <time>2025-06-22T08:45:34Z</time>
      </trkpt>
      <trkpt lat="48.96609" lon="7.3019">
        <ele>268</ele>
        <time>2025-06-22T08:45:35Z</time>
      </trkpt>
      <trkpt lat="48.96609" lon="7.30184">
        <ele>268</ele>
        <time>2025-06-22T08:45:36Z</time>
      </trkpt>
      <trkpt lat="48.96609" lon="7.30172">
        <ele>268</ele>
        <time>2025-06-22T08:45:38Z</time>
      </trkpt>
      <trkpt lat="48.96608" lon="7.30166">
        <ele>268</ele>
        <time>2025-06-22T08:45:39Z</time>
      </trkpt>
      <trkpt lat="48.96607" lon="7.3016">
        <ele>268</ele>
        <time>2025-06-22T08:45:40Z</time>
      </trkpt>
      <trkpt lat="48.96606" lon="7.30153">
        <ele>268</ele>
        <time>2025-06-22T08:45:41Z</time>
      </trkpt>
      <trkpt lat="48.96605" lon="7.30138">
        <ele>268</ele>
        <time>2025-06-22T08:45:43Z</time>
      </trkpt>
      <trkpt lat="48.96603" lon="7.30131">
        <ele>268</ele>
        <time>2025-06-22T08:45:44Z</time>
      </trkpt>
      <trkpt lat="48.96603" lon="7.30123">
        <ele>268</ele>
        <time>2025-06-22T08:45:45Z</time>
      </trkpt>
      <trkpt lat="48.96602" lon="7.30114">
        <ele>268</ele>
        <time>2025-06-22T08:45:46Z</time>
      </trkpt>
      <trkpt lat="48.96601" lon="7.30106">
        <ele>268</ele>
        <time>2025-06-22T08:45:47Z</time>
      </trkpt>
      <trkpt lat="48.96599" lon="7.30098">
        <ele>268</ele>
        <time>2025-06-22T08:45:48Z</time>
      </trkpt>
      <trkpt lat="48.96597" lon="7.30089">
        <ele>267</ele>
        <time>2025-06-22T08:45:49Z</time>
      </trkpt>
      <trkpt lat="48.96596" lon="7.30081">
        <ele>267</ele>
        <time>2025-06-22T08:45:50Z</time>
      </trkpt>
      <trkpt lat="48.96594" lon="7.30072">
        <ele>267</ele>
        <time>2025-06-22T08:45:51Z</time>
      </trkpt>
      <trkpt lat="48.96593" lon="7.30064">
        <ele>267</ele>
        <time>2025-06-22T08:45:52Z</time>
      </trkpt>
      <trkpt lat="48.96593" lon="7.30045">
        <ele>266</ele>
        <time>2025-06-22T08:45:54Z</time>
      </trkpt>
      <trkpt lat="48.96595" lon="7.30027">
        <ele>266</ele>
        <time>2025-06-22T08:45:56Z</time>
      </trkpt>
      <trkpt lat="48.96597" lon="7.30009">
        <ele>265</ele>
        <time>2025-06-22T08:45:58Z</time>
      </trkpt>
      <trkpt lat="48.96597" lon="7.29991">
        <ele>265</ele>
        <time>2025-06-22T08:46:00Z</time>
      </trkpt>
      <trkpt lat="48.96596" lon="7.29973">
        <ele>265</ele>
        <time>2025-06-22T08:46:02Z</time>
      </trkpt>
      <trkpt lat="48.96596" lon="7.29965">
        <ele>265</ele>
        <time>2025-06-22T08:46:03Z</time>
      </trkpt>
      <trkpt lat="48.96595" lon="7.29956">
        <ele>265</ele>
        <time>2025-06-22T08:46:04Z</time>
      </trkpt>
      <trkpt lat="48.96595" lon="7.29947">
        <ele>265</ele>
        <time>2025-06-22T08:46:05Z</time>
      </trkpt>
      <trkpt lat="48.96594" lon="7.29939">
        <ele>265</ele>
        <time>2025-06-22T08:46:06Z</time>
      </trkpt>
      <trkpt lat="48.96594" lon="7.2993">
        <ele>265</ele>
        <time>2025-06-22T08:46:07Z</time>
      </trkpt>
      <trkpt lat="48.96595" lon="7.29922">
        <ele>265</ele>
        <time>2025-06-22T08:46:08Z</time>
      </trkpt>
      <trkpt lat="48.96595" lon="7.29914">
        <ele>265</ele>
        <time>2025-06-22T08:46:09Z</time>
      </trkpt>
      <trkpt lat="48.96596" lon="7.29905">
        <ele>265</ele>
        <time>2025-06-22T08:46:10Z</time>
      </trkpt>
      <trkpt lat="48.96597" lon="7.29897">
        <ele>265</ele>
        <time>2025-06-22T08:46:11Z</time>
      </trkpt>
      <trkpt lat="48.96598" lon="7.29889">
        <ele>265</ele>
        <time>2025-06-22T08:46:12Z</time>
      </trkpt>
      <trkpt lat="48.96598" lon="7.2988">
        <ele>265</ele>
        <time>2025-06-22T08:46:13Z</time>
      </trkpt>
      <trkpt lat="48.96599" lon="7.29872">
        <ele>264</ele>
        <time>2025-06-22T08:46:14Z</time>
      </trkpt>
      <trkpt lat="48.96599" lon="7.29863">
        <ele>264</ele>
        <time>2025-06-22T08:46:15Z</time>
      </trkpt>
      <trkpt lat="48.96598" lon="7.29854">
        <ele>264</ele>
        <time>2025-06-22T08:46:16Z</time>
      </trkpt>
      <trkpt lat="48.96598" lon="7.29844">
        <ele>264</ele>
        <time>2025-06-22T08:46:17Z</time>
      </trkpt>
      <trkpt lat="48.96597" lon="7.29835">
        <ele>264</ele>
        <time>2025-06-22T08:46:18Z</time>
      </trkpt>
      <trkpt lat="48.96596" lon="7.29827">
        <ele>264</ele>
        <time>2025-06-22T08:46:19Z</time>
      </trkpt>
      <trkpt lat="48.96596" lon="7.29818">
        <ele>264</ele>
        <time>2025-06-22T08:46:20Z</time>
      </trkpt>
      <trkpt lat="48.96595" lon="7.2981">
        <ele>263</ele>
        <time>2025-06-22T08:46:21Z</time>
      </trkpt>
      <trkpt lat="48.96595" lon="7.29803">
        <ele>263</ele>
        <time>2025-06-22T08:46:22Z</time>
      </trkpt>
      <trkpt lat="48.96595" lon="7.29795">
        <ele>263</ele>
        <time>2025-06-22T08:46:23Z</time>
      </trkpt>
      <trkpt lat="48.96594" lon="7.29788">
        <ele>263</ele>
        <time>2025-06-22T08:46:24Z</time>
      </trkpt>
      <trkpt lat="48.96594" lon="7.29781">
        <ele>263</ele>
        <time>2025-06-22T08:46:25Z</time>
      </trkpt>
      <trkpt lat="48.96594" lon="7.29774">
        <ele>263</ele>
        <time>2025-06-22T08:46:26Z</time>
      </trkpt>
      <trkpt lat="48.96594" lon="7.29767">
        <ele>263</ele>
        <time>2025-06-22T08:46:27Z</time>
      </trkpt>
      <trkpt lat="48.96594" lon="7.29759">
        <ele>263</ele>
        <time>2025-06-22T08:46:28Z</time>
      </trkpt>
      <trkpt lat="48.96594" lon="7.29752">
        <ele>263</ele>
        <time>2025-06-22T08:46:29Z</time>
      </trkpt>
      <trkpt lat="48.96593" lon="7.29745">
        <ele>264</ele>
        <time>2025-06-22T08:46:30Z</time>
      </trkpt>
      <trkpt lat="48.96593" lon="7.29737">
        <ele>264</ele>
        <time>2025-06-22T08:46:31Z</time>
      </trkpt>
      <trkpt lat="48.96593" lon="7.2973">
        <ele>264</ele>
        <time>2025-06-22T08:46:32Z</time>
      </trkpt>
      <trkpt lat="48.96593" lon="7.29722">
        <ele>264</ele>
        <time>2025-06-22T08:46:33Z</time>
      </trkpt>
      <trkpt lat="48.96593" lon="7.29715">
        <ele>264</ele>
        <time>2025-06-22T08:46:34Z</time>
      </trkpt>
      <trkpt lat="48.96594" lon="7.29708">
        <ele>264</ele>
        <time>2025-06-22T08:46:35Z</time>
      </trkpt>
      <trkpt lat="48.96594" lon="7.29694">
        <ele>264</ele>
        <time>2025-06-22T08:46:36Z</time>
      </trkpt>
      <trkpt lat="48.96594" lon="7.29686">
        <ele>264</ele>
        <time>2025-06-22T08:46:38Z</time>
      </trkpt>
      <trkpt lat="48.96595" lon="7.29679">
        <ele>264</ele>
        <time>2025-06-22T08:46:39Z</time>
      </trkpt>
      <trkpt lat="48.96595" lon="7.29672">
        <ele>264</ele>
        <time>2025-06-22T08:46:40Z</time>
      </trkpt>
      <trkpt lat="48.96595" lon="7.29664">
        <ele>264</ele>
        <time>2025-06-22T08:46:41Z</time>
      </trkpt>
      <trkpt lat="48.96594" lon="7.29656">
        <ele>264</ele>
        <time>2025-06-22T08:46:42Z</time>
      </trkpt>
      <trkpt lat="48.96594" lon="7.29649">
        <ele>264</ele>
        <time>2025-06-22T08:46:43Z</time>
      </trkpt>
      <trkpt lat="48.96594" lon="7.29641">
        <ele>264</ele>
        <time>2025-06-22T08:46:44Z</time>
      </trkpt>
      <trkpt lat="48.96594" lon="7.29634">
        <ele>264</ele>
        <time>2025-06-22T08:46:45Z</time>
      </trkpt>
      <trkpt lat="48.96594" lon="7.29627">
        <ele>264</ele>
        <time>2025-06-22T08:46:46Z</time>
      </trkpt>
      <trkpt lat="48.96593" lon="7.29619">
        <ele>264</ele>
        <time>2025-06-22T08:46:47Z</time>
      </trkpt>
      <trkpt lat="48.96594" lon="7.29612">
        <ele>264</ele>
        <time>2025-06-22T08:46:48Z</time>
      </trkpt>
      <trkpt lat="48.96594" lon="7.29605">
        <ele>264</ele>
        <time>2025-06-22T08:46:49Z</time>
      </trkpt>
      <trkpt lat="48.96595" lon="7.29598">
        <ele>264</ele>
        <time>2025-06-22T08:46:50Z</time>
      </trkpt>
      <trkpt lat="48.96594" lon="7.29583">
        <ele>264</ele>
        <time>2025-06-22T08:46:52Z</time>
      </trkpt>
      <trkpt lat="48.96594" lon="7.29576">
        <ele>264</ele>
        <time>2025-06-22T08:46:53Z</time>
      </trkpt>
      <trkpt lat="48.96594" lon="7.29569">
        <ele>264</ele>
        <time>2025-06-22T08:46:54Z</time>
      </trkpt>
      <trkpt lat="48.96594" lon="7.29553">
        <ele>264</ele>
        <time>2025-06-22T08:46:56Z</time>
      </trkpt>
      <trkpt lat="48.96594" lon="7.29537">
        <ele>264</ele>
        <time>2025-06-22T08:46:58Z</time>
      </trkpt>
      <trkpt lat="48.96595" lon="7.29519">
        <ele>264</ele>
        <time>2025-06-22T08:47:00Z</time>
      </trkpt>
      <trkpt lat="48.96599" lon="7.29502">
        <ele>264</ele>
        <time>2025-06-22T08:47:02Z</time>
      </trkpt>
      <trkpt lat="48.96604" lon="7.29486">
        <ele>263</ele>
        <time>2025-06-22T08:47:04Z</time>
      </trkpt>
      <trkpt lat="48.96609" lon="7.29472">
        <ele>262</ele>
        <time>2025-06-22T08:47:06Z</time>
      </trkpt>
      <trkpt lat="48.96617" lon="7.29457">
        <ele>262</ele>
        <time>2025-06-22T08:47:08Z</time>
      </trkpt>
      <trkpt lat="48.96626" lon="7.29443">
        <ele>262</ele>
        <time>2025-06-22T08:47:10Z</time>
      </trkpt>
      <trkpt lat="48.96634" lon="7.29431">
        <ele>261</ele>
        <time>2025-06-22T08:47:12Z</time>
      </trkpt>
      <trkpt lat="48.96642" lon="7.29419">
        <ele>261</ele>
        <time>2025-06-22T08:47:14Z</time>
      </trkpt>
      <trkpt lat="48.96645" lon="7.29413">
        <ele>261</ele>
        <time>2025-06-22T08:47:15Z</time>
      </trkpt>
      <trkpt lat="48.96649" lon="7.29407">
        <ele>261</ele>
        <time>2025-06-22T08:47:16Z</time>
      </trkpt>
      <trkpt lat="48.96656" lon="7.29397">
        <ele>261</ele>
        <time>2025-06-22T08:47:18Z</time>
      </trkpt>
      <trkpt lat="48.96659" lon="7.29391">
        <ele>261</ele>
        <time>2025-06-22T08:47:19Z</time>
      </trkpt>
      <trkpt lat="48.96662" lon="7.29385">
        <ele>261</ele>
        <time>2025-06-22T08:47:20Z</time>
      </trkpt>
      <trkpt lat="48.96665" lon="7.29379">
        <ele>261</ele>
        <time>2025-06-22T08:47:21Z</time>
      </trkpt>
      <trkpt lat="48.96668" lon="7.29372">
        <ele>261</ele>
        <time>2025-06-22T08:47:22Z</time>
      </trkpt>
      <trkpt lat="48.96671" lon="7.29365">
        <ele>261</ele>
        <time>2025-06-22T08:47:23Z</time>
      </trkpt>
      <trkpt lat="48.96674" lon="7.29359">
        <ele>261</ele>
        <time>2025-06-22T08:47:24Z</time>
      </trkpt>
      <trkpt lat="48.96676" lon="7.29352">
        <ele>261</ele>
        <time>2025-06-22T08:47:25Z</time>
      </trkpt>
      <trkpt lat="48.96679" lon="7.29346">
        <ele>261</ele>
        <time>2025-06-22T08:47:26Z</time>
      </trkpt>
      <trkpt lat="48.96681" lon="7.2934">
        <ele>261</ele>
        <time>2025-06-22T08:47:27Z</time>
      </trkpt>
      <trkpt lat="48.96683" lon="7.29334">
        <ele>261</ele>
        <time>2025-06-22T08:47:28Z</time>
      </trkpt>
      <trkpt lat="48.96686" lon="7.29328">
        <ele>261</ele>
        <time>2025-06-22T08:47:29Z</time>
      </trkpt>
      <trkpt lat="48.96688" lon="7.29323">
        <ele>261</ele>
        <time>2025-06-22T08:47:30Z</time>
      </trkpt>
      <trkpt lat="48.9669" lon="7.29317">
        <ele>261</ele>
        <time>2025-06-22T08:47:31Z</time>
      </trkpt>
      <trkpt lat="48.96692" lon="7.29313">
        <ele>261</ele>
        <time>2025-06-22T08:47:32Z</time>
      </trkpt>
      <trkpt lat="48.96693" lon="7.29308">
        <ele>261</ele>
        <time>2025-06-22T08:47:33Z</time>
      </trkpt>
      <trkpt lat="48.96693" lon="7.29305">
        <ele>261</ele>
        <time>2025-06-22T08:47:34Z</time>
      </trkpt>
      <trkpt lat="48.96692" lon="7.29301">
        <ele>261</ele>
        <time>2025-06-22T08:47:35Z</time>
      </trkpt>
      <trkpt lat="48.9669" lon="7.29299">
        <ele>261</ele>
        <time>2025-06-22T08:47:36Z</time>
      </trkpt>
      <trkpt lat="48.9668" lon="7.29299">
        <ele>261</ele>
        <time>2025-06-22T08:47:39Z</time>
      </trkpt>
      <trkpt lat="48.96669" lon="7.29308">
        <ele>260</ele>
        <time>2025-06-22T08:47:42Z</time>
      </trkpt>
      <trkpt lat="48.96657" lon="7.29316">
        <ele>260</ele>
        <time>2025-06-22T08:47:45Z</time>
      </trkpt>
      <trkpt lat="48.96653" lon="7.29318">
        <ele>260</ele>
        <time>2025-06-22T08:47:46Z</time>
      </trkpt>
      <trkpt lat="48.96649" lon="7.2932">
        <ele>260</ele>
        <time>2025-06-22T08:47:47Z</time>
      </trkpt>
      <trkpt lat="48.96646" lon="7.29322">
        <ele>260</ele>
        <time>2025-06-22T08:47:48Z</time>
      </trkpt>
      <trkpt lat="48.96641" lon="7.29325">
        <ele>260</ele>
        <time>2025-06-22T08:47:49Z</time>
      </trkpt>
      <trkpt lat="48.96637" lon="7.29327">
        <ele>261</ele>
        <time>2025-06-22T08:47:50Z</time>
      </trkpt>
      <trkpt lat="48.96633" lon="7.29329">
        <ele>261</ele>
        <time>2025-06-22T08:47:51Z</time>
      </trkpt>
      <trkpt lat="48.96629" lon="7.29332">
        <ele>261</ele>
        <time>2025-06-22T08:47:52Z</time>
      </trkpt>
      <trkpt lat="48.96625" lon="7.29334">
        <ele>261</ele>
        <time>2025-06-22T08:47:53Z</time>
      </trkpt>
      <trkpt lat="48.96617" lon="7.2934">
        <ele>261</ele>
        <time>2025-06-22T08:47:55Z</time>
      </trkpt>
      <trkpt lat="48.96605" lon="7.29347">
        <ele>261</ele>
        <time>2025-06-22T08:47:58Z</time>
      </trkpt>
      <trkpt lat="48.96601" lon="7.29348">
        <ele>261</ele>
        <time>2025-06-22T08:47:59Z</time>
      </trkpt>
      <trkpt lat="48.96598" lon="7.29345">
        <ele>261</ele>
        <time>2025-06-22T08:48:00Z</time>
      </trkpt>
      <trkpt lat="48.96594" lon="7.29341">
        <ele>262</ele>
        <time>2025-06-22T08:48:01Z</time>
      </trkpt>
      <trkpt lat="48.96592" lon="7.29337">
        <ele>262</ele>
        <time>2025-06-22T08:48:02Z</time>
      </trkpt>
      <trkpt lat="48.96589" lon="7.29331">
        <ele>262</ele>
        <time>2025-06-22T08:48:03Z</time>
      </trkpt>
      <trkpt lat="48.96587" lon="7.29326">
        <ele>262</ele>
        <time>2025-06-22T08:48:04Z</time>
      </trkpt>
      <trkpt lat="48.96585" lon="7.2932">
        <ele>262</ele>
        <time>2025-06-22T08:48:05Z</time>
      </trkpt>
      <trkpt lat="48.96582" lon="7.29314">
        <ele>262</ele>
        <time>2025-06-22T08:48:06Z</time>
      </trkpt>
      <trkpt lat="48.9658" lon="7.29308">
        <ele>262</ele>
        <time>2025-06-22T08:48:07Z</time>
      </trkpt>
      <trkpt lat="48.96578" lon="7.29302">
        <ele>262</ele>
        <time>2025-06-22T08:48:08Z</time>
      </trkpt>
      <trkpt lat="48.96576" lon="7.29295">
        <ele>262</ele>
        <time>2025-06-22T08:48:09Z</time>
      </trkpt>
      <trkpt lat="48.96575" lon="7.29289">
        <ele>262</ele>
        <time>2025-06-22T08:48:10Z</time>
      </trkpt>
      <trkpt lat="48.96574" lon="7.29282">
        <ele>262</ele>
        <time>2025-06-22T08:48:11Z</time>
      </trkpt>
      <trkpt lat="48.96573" lon="7.29275">
        <ele>262</ele>
        <time>2025-06-22T08:48:12Z</time>
      </trkpt>
      <trkpt lat="48.96573" lon="7.29268">
        <ele>262</ele>
        <time>2025-06-22T08:48:13Z</time>
      </trkpt>
      <trkpt lat="48.96573" lon="7.29261">
        <ele>262</ele>
        <time>2025-06-22T08:48:14Z</time>
      </trkpt>
      <trkpt lat="48.96573" lon="7.29253">
        <ele>262</ele>
        <time>2025-06-22T08:48:15Z</time>
      </trkpt>
      <trkpt lat="48.96573" lon="7.29246">
        <ele>262</ele>
        <time>2025-06-22T08:48:16Z</time>
      </trkpt>
      <trkpt lat="48.96573" lon="7.29239">
        <ele>262</ele>
        <time>2025-06-22T08:48:17Z</time>
      </trkpt>
      <trkpt lat="48.96573" lon="7.29232">
        <ele>262</ele>
        <time>2025-06-22T08:48:18Z</time>
      </trkpt>
      <trkpt lat="48.96573" lon="7.29225">
        <ele>262</ele>
        <time>2025-06-22T08:48:19Z</time>
      </trkpt>
      <trkpt lat="48.96573" lon="7.29218">
        <ele>262</ele>
        <time>2025-06-22T08:48:20Z</time>
      </trkpt>
      <trkpt lat="48.96573" lon="7.29211">
        <ele>262</ele>
        <time>2025-06-22T08:48:21Z</time>
      </trkpt>
      <trkpt lat="48.96573" lon="7.29204">
        <ele>261</ele>
        <time>2025-06-22T08:48:22Z</time>
      </trkpt>
      <trkpt lat="48.96573" lon="7.29196">
        <ele>261</ele>
        <time>2025-06-22T08:48:23Z</time>
      </trkpt>
      <trkpt lat="48.96573" lon="7.29189">
        <ele>261</ele>
        <time>2025-06-22T08:48:24Z</time>
      </trkpt>
      <trkpt lat="48.9657" lon="7.29176">
        <ele>261</ele>
        <time>2025-06-22T08:48:25Z</time>
      </trkpt>
      <trkpt lat="48.96568" lon="7.2917">
        <ele>261</ele>
        <time>2025-06-22T08:48:27Z</time>
      </trkpt>
      <trkpt lat="48.96565" lon="7.29165">
        <ele>261</ele>
        <time>2025-06-22T08:48:28Z</time>
      </trkpt>
      <trkpt lat="48.96562" lon="7.2916">
        <ele>261</ele>
        <time>2025-06-22T08:48:29Z</time>
      </trkpt>
      <trkpt lat="48.96558" lon="7.29154">
        <ele>260</ele>
        <time>2025-06-22T08:48:30Z</time>
      </trkpt>
      <trkpt lat="48.96551" lon="7.29142">
        <ele>259</ele>
        <time>2025-06-22T08:48:32Z</time>
      </trkpt>
      <trkpt lat="48.96545" lon="7.29131">
        <ele>259</ele>
        <time>2025-06-22T08:48:34Z</time>
      </trkpt>
      <trkpt lat="48.9654" lon="7.29119">
        <ele>258</ele>
        <time>2025-06-22T08:48:36Z</time>
      </trkpt>
      <trkpt lat="48.96532" lon="7.29108">
        <ele>259</ele>
        <time>2025-06-22T08:48:38Z</time>
      </trkpt>
      <trkpt lat="48.96529" lon="7.29103">
        <ele>259</ele>
        <time>2025-06-22T08:48:39Z</time>
      </trkpt>
      <trkpt lat="48.96526" lon="7.29096">
        <ele>259</ele>
        <time>2025-06-22T08:48:40Z</time>
      </trkpt>
      <trkpt lat="48.96525" lon="7.29088">
        <ele>259</ele>
        <time>2025-06-22T08:48:41Z</time>
      </trkpt>
      <trkpt lat="48.96523" lon="7.29079">
        <ele>259</ele>
        <time>2025-06-22T08:48:42Z</time>
      </trkpt>
      <trkpt lat="48.96521" lon="7.29071">
        <ele>259</ele>
        <time>2025-06-22T08:48:43Z</time>
      </trkpt>
      <trkpt lat="48.96519" lon="7.29064">
        <ele>259</ele>
        <time>2025-06-22T08:48:44Z</time>
      </trkpt>
      <trkpt lat="48.96517" lon="7.29057">
        <ele>259</ele>
        <time>2025-06-22T08:48:45Z</time>
      </trkpt>
      <trkpt lat="48.96513" lon="7.29044">
        <ele>260</ele>
        <time>2025-06-22T08:48:47Z</time>
      </trkpt>
      <trkpt lat="48.96511" lon="7.29039">
        <ele>260</ele>
        <time>2025-06-22T08:48:48Z</time>
      </trkpt>
      <trkpt lat="48.96509" lon="7.29033">
        <ele>260</ele>
        <time>2025-06-22T08:48:49Z</time>
      </trkpt>
      <trkpt lat="48.96507" lon="7.29027">
        <ele>260</ele>
        <time>2025-06-22T08:48:50Z</time>
      </trkpt>
      <trkpt lat="48.96504" lon="7.29022">
        <ele>260</ele>
        <time>2025-06-22T08:48:51Z</time>
      </trkpt>
      <trkpt lat="48.96501" lon="7.29017">
        <ele>260</ele>
        <time>2025-06-22T08:48:52Z</time>
      </trkpt>
      <trkpt lat="48.96499" lon="7.29013">
        <ele>260</ele>
        <time>2025-06-22T08:48:53Z</time>
      </trkpt>
      <trkpt lat="48.96496" lon="7.29008">
        <ele>260</ele>
        <time>2025-06-22T08:48:54Z</time>
      </trkpt>
      <trkpt lat="48.96494" lon="7.29004">
        <ele>260</ele>
        <time>2025-06-22T08:48:55Z</time>
      </trkpt>
      <trkpt lat="48.96491" lon="7.29">
        <ele>260</ele>
        <time>2025-06-22T08:48:56Z</time>
      </trkpt>
      <trkpt lat="48.9649" lon="7.28994">
        <ele>260</ele>
        <time>2025-06-22T08:48:57Z</time>
      </trkpt>
      <trkpt lat="48.96488" lon="7.28991">
        <ele>260</ele>
        <time>2025-06-22T08:48:58Z</time>
      </trkpt>
      <trkpt lat="48.96489" lon="7.28993">
        <ele>259</ele>
        <time>2025-06-22T08:49:01Z</time>
      </trkpt>
      <trkpt lat="48.96491" lon="7.28994">
        <ele>259</ele>
        <time>2025-06-22T08:49:02Z</time>
      </trkpt>
      <trkpt lat="48.96493" lon="7.28995">
        <ele>259</ele>
        <time>2025-06-22T08:49:03Z</time>
      </trkpt>
      <trkpt lat="48.96495" lon="7.28997">
        <ele>259</ele>
        <time>2025-06-22T08:49:04Z</time>
      </trkpt>
      <trkpt lat="48.96497" lon="7.28999">
        <ele>259</ele>
        <time>2025-06-22T08:49:05Z</time>
      </trkpt>
      <trkpt lat="48.96499" lon="7.29001">
        <ele>259</ele>
        <time>2025-06-22T08:49:06Z</time>
      </trkpt>
      <trkpt lat="48.965" lon="7.29004">
        <ele>259</ele>
        <time>2025-06-22T08:49:07Z</time>
      </trkpt>
      <trkpt lat="48.96502" lon="7.29007">
        <ele>259</ele>
        <time>2025-06-22T08:49:08Z</time>
      </trkpt>
      <trkpt lat="48.96503" lon="7.2901">
        <ele>259</ele>
        <time>2025-06-22T08:49:09Z</time>
      </trkpt>
      <trkpt lat="48.96505" lon="7.29015">
        <ele>260</ele>
        <time>2025-06-22T08:49:10Z</time>
      </trkpt>
      <trkpt lat="48.96507" lon="7.29019">
        <ele>260</ele>
        <time>2025-06-22T08:49:11Z</time>
      </trkpt>
      <trkpt lat="48.9651" lon="7.29024">
        <ele>260</ele>
        <time>2025-06-22T08:49:12Z</time>
      </trkpt>
      <trkpt lat="48.96512" lon="7.29028">
        <ele>260</ele>
        <time>2025-06-22T08:49:13Z</time>
      </trkpt>
      <trkpt lat="48.96514" lon="7.29033">
        <ele>260</ele>
        <time>2025-06-22T08:49:14Z</time>
      </trkpt>
      <trkpt lat="48.96516" lon="7.29037">
        <ele>260</ele>
        <time>2025-06-22T08:49:15Z</time>
      </trkpt>
      <trkpt lat="48.96517" lon="7.2904">
        <ele>260</ele>
        <time>2025-06-22T08:49:16Z</time>
      </trkpt>
      <trkpt lat="48.96518" lon="7.29042">
        <ele>260</ele>
        <time>2025-06-22T08:49:17Z</time>
      </trkpt>
      <trkpt lat="48.96519" lon="7.29045">
        <ele>259</ele>
        <time>2025-06-22T08:49:21Z</time>
      </trkpt>
      <trkpt lat="48.96518" lon="7.29042">
        <ele>259</ele>
        <time>2025-06-22T08:49:59Z</time>
      </trkpt>
      <trkpt lat="48.96516" lon="7.2904">
        <ele>259</ele>
        <time>2025-06-22T08:50:00Z</time>
      </trkpt>
      <trkpt lat="48.96514" lon="7.29037">
        <ele>259</ele>
        <time>2025-06-22T08:50:01Z</time>
      </trkpt>
      <trkpt lat="48.96512" lon="7.29032">
        <ele>259</ele>
        <time>2025-06-22T08:50:02Z</time>
      </trkpt>
      <trkpt lat="48.96509" lon="7.29027">
        <ele>259</ele>
        <time>2025-06-22T08:50:03Z</time>
      </trkpt>
      <trkpt lat="48.96505" lon="7.29021">
        <ele>259</ele>
        <time>2025-06-22T08:50:04Z</time>
      </trkpt>
      <trkpt lat="48.96502" lon="7.29015">
        <ele>259</ele>
        <time>2025-06-22T08:50:05Z</time>
      </trkpt>
      <trkpt lat="48.96501" lon="7.2901">
        <ele>259</ele>
        <time>2025-06-22T08:50:06Z</time>
      </trkpt>
      <trkpt lat="48.96499" lon="7.29004">
        <ele>259</ele>
        <time>2025-06-22T08:50:07Z</time>
      </trkpt>
      <trkpt lat="48.96498" lon="7.28998">
        <ele>259</ele>
        <time>2025-06-22T08:50:08Z</time>
      </trkpt>
      <trkpt lat="48.96494" lon="7.28988">
        <ele>259</ele>
        <time>2025-06-22T08:50:10Z</time>
      </trkpt>
      <trkpt lat="48.96491" lon="7.28983">
        <ele>259</ele>
        <time>2025-06-22T08:50:11Z</time>
      </trkpt>
      <trkpt lat="48.96486" lon="7.28974">
        <ele>259</ele>
        <time>2025-06-22T08:50:13Z</time>
      </trkpt>
      <trkpt lat="48.96483" lon="7.28969">
        <ele>259</ele>
        <time>2025-06-22T08:50:14Z</time>
      </trkpt>
      <trkpt lat="48.9648" lon="7.28964">
        <ele>259</ele>
        <time>2025-06-22T08:50:15Z</time>
      </trkpt>
      <trkpt lat="48.96478" lon="7.28958">
        <ele>259</ele>
        <time>2025-06-22T08:50:16Z</time>
      </trkpt>
      <trkpt lat="48.96475" lon="7.28947">
        <ele>259</ele>
        <time>2025-06-22T08:50:18Z</time>
      </trkpt>
      <trkpt lat="48.96473" lon="7.2894">
        <ele>259</ele>
        <time>2025-06-22T08:50:19Z</time>
      </trkpt>
      <trkpt lat="48.96471" lon="7.28932">
        <ele>259</ele>
        <time>2025-06-22T08:50:20Z</time>
      </trkpt>
      <trkpt lat="48.96469" lon="7.28925">
        <ele>260</ele>
        <time>2025-06-22T08:50:21Z</time>
      </trkpt>
      <trkpt lat="48.96467" lon="7.28917">
        <ele>260</ele>
        <time>2025-06-22T08:50:22Z</time>
      </trkpt>
      <trkpt lat="48.96466" lon="7.2891">
        <ele>260</ele>
        <time>2025-06-22T08:50:23Z</time>
      </trkpt>
      <trkpt lat="48.96465" lon="7.28903">
        <ele>260</ele>
        <time>2025-06-22T08:50:24Z</time>
      </trkpt>
      <trkpt lat="48.96463" lon="7.28896">
        <ele>260</ele>
        <time>2025-06-22T08:50:25Z</time>
      </trkpt>
      <trkpt lat="48.96462" lon="7.28889">
        <ele>261</ele>
        <time>2025-06-22T08:50:26Z</time>
      </trkpt>
      <trkpt lat="48.96461" lon="7.28882">
        <ele>261</ele>
        <time>2025-06-22T08:50:27Z</time>
      </trkpt>
      <trkpt lat="48.9646" lon="7.28876">
        <ele>261</ele>
        <time>2025-06-22T08:50:28Z</time>
      </trkpt>
      <trkpt lat="48.96458" lon="7.28869">
        <ele>262</ele>
        <time>2025-06-22T08:50:29Z</time>
      </trkpt>
      <trkpt lat="48.96457" lon="7.28862">
        <ele>262</ele>
        <time>2025-06-22T08:50:30Z</time>
      </trkpt>
      <trkpt lat="48.96456" lon="7.28855">
        <ele>262</ele>
        <time>2025-06-22T08:50:31Z</time>
      </trkpt>
      <trkpt lat="48.96455" lon="7.28849">
        <ele>262</ele>
        <time>2025-06-22T08:50:32Z</time>
      </trkpt>
      <trkpt lat="48.96453" lon="7.28842">
        <ele>262</ele>
        <time>2025-06-22T08:50:33Z</time>
      </trkpt>
      <trkpt lat="48.96452" lon="7.28835">
        <ele>263</ele>
        <time>2025-06-22T08:50:34Z</time>
      </trkpt>
      <trkpt lat="48.96452" lon="7.28828">
        <ele>263</ele>
        <time>2025-06-22T08:50:35Z</time>
      </trkpt>
      <trkpt lat="48.96451" lon="7.28822">
        <ele>263</ele>
        <time>2025-06-22T08:50:36Z</time>
      </trkpt>
      <trkpt lat="48.96449" lon="7.28815">
        <ele>263</ele>
        <time>2025-06-22T08:50:37Z</time>
      </trkpt>
      <trkpt lat="48.96448" lon="7.28809">
        <ele>263</ele>
        <time>2025-06-22T08:50:38Z</time>
      </trkpt>
      <trkpt lat="48.96446" lon="7.28803">
        <ele>263</ele>
        <time>2025-06-22T08:50:39Z</time>
      </trkpt>
      <trkpt lat="48.96445" lon="7.28796">
        <ele>263</ele>
        <time>2025-06-22T08:50:40Z</time>
      </trkpt>
      <trkpt lat="48.96444" lon="7.2879">
        <ele>263</ele>
        <time>2025-06-22T08:50:41Z</time>
      </trkpt>
      <trkpt lat="48.96443" lon="7.28783">
        <ele>264</ele>
        <time>2025-06-22T08:50:42Z</time>
      </trkpt>
      <trkpt lat="48.96441" lon="7.28776">
        <ele>264</ele>
        <time>2025-06-22T08:50:43Z</time>
      </trkpt>
      <trkpt lat="48.9644" lon="7.28769">
        <ele>264</ele>
        <time>2025-06-22T08:50:44Z</time>
      </trkpt>
      <trkpt lat="48.96439" lon="7.28762">
        <ele>264</ele>
        <time>2025-06-22T08:50:45Z</time>
      </trkpt>
      <trkpt lat="48.96438" lon="7.28755">
        <ele>264</ele>
        <time>2025-06-22T08:50:46Z</time>
      </trkpt>
      <trkpt lat="48.96437" lon="7.28748">
        <ele>264</ele>
        <time>2025-06-22T08:50:47Z</time>
      </trkpt>
      <trkpt lat="48.96436" lon="7.2874">
        <ele>264</ele>
        <time>2025-06-22T08:50:48Z</time>
      </trkpt>
      <trkpt lat="48.96436" lon="7.28732">
        <ele>264</ele>
        <time>2025-06-22T08:50:49Z</time>
      </trkpt>
      <trkpt lat="48.96436" lon="7.28725">
        <ele>264</ele>
        <time>2025-06-22T08:50:50Z</time>
      </trkpt>
      <trkpt lat="48.96435" lon="7.28717">
        <ele>264</ele>
        <time>2025-06-22T08:50:51Z</time>
      </trkpt>
      <trkpt lat="48.96435" lon="7.28709">
        <ele>264</ele>
        <time>2025-06-22T08:50:52Z</time>
      </trkpt>
      <trkpt lat="48.96435" lon="7.287">
        <ele>264</ele>
        <time>2025-06-22T08:50:53Z</time>
      </trkpt>
      <trkpt lat="48.96435" lon="7.28691">
        <ele>264</ele>
        <time>2025-06-22T08:50:54Z</time>
      </trkpt>
      <trkpt lat="48.96435" lon="7.28682">
        <ele>264</ele>
        <time>2025-06-22T08:50:55Z</time>
      </trkpt>
      <trkpt lat="48.96434" lon="7.28673">
        <ele>264</ele>
        <time>2025-06-22T08:50:56Z</time>
      </trkpt>
      <trkpt lat="48.96434" lon="7.28664">
        <ele>264</ele>
        <time>2025-06-22T08:50:57Z</time>
      </trkpt>
      <trkpt lat="48.96433" lon="7.28656">
        <ele>264</ele>
        <time>2025-06-22T08:50:58Z</time>
      </trkpt>
      <trkpt lat="48.96432" lon="7.28647">
        <ele>264</ele>
        <time>2025-06-22T08:50:59Z</time>
      </trkpt>
      <trkpt lat="48.9643" lon="7.28638">
        <ele>264</ele>
        <time>2025-06-22T08:51:00Z</time>
      </trkpt>
      <trkpt lat="48.96429" lon="7.28629">
        <ele>264</ele>
        <time>2025-06-22T08:51:01Z</time>
      </trkpt>
      <trkpt lat="48.96427" lon="7.28621">
        <ele>264</ele>
        <time>2025-06-22T08:51:02Z</time>
      </trkpt>
      <trkpt lat="48.96425" lon="7.28613">
        <ele>264</ele>
        <time>2025-06-22T08:51:03Z</time>
      </trkpt>
      <trkpt lat="48.96424" lon="7.28605">
        <ele>263</ele>
        <time>2025-06-22T08:51:04Z</time>
      </trkpt>
      <trkpt lat="48.96422" lon="7.28597">
        <ele>263</ele>
        <time>2025-06-22T08:51:05Z</time>
      </trkpt>
      <trkpt lat="48.96419" lon="7.28588">
        <ele>263</ele>
        <time>2025-06-22T08:51:06Z</time>
      </trkpt>
      <trkpt lat="48.96416" lon="7.2858">
        <ele>263</ele>
        <time>2025-06-22T08:51:07Z</time>
      </trkpt>
      <trkpt lat="48.96413" lon="7.28571">
        <ele>263</ele>
        <time>2025-06-22T08:51:08Z</time>
      </trkpt>
      <trkpt lat="48.9641" lon="7.28563">
        <ele>263</ele>
        <time>2025-06-22T08:51:09Z</time>
      </trkpt>
      <trkpt lat="48.96407" lon="7.28554">
        <ele>263</ele>
        <time>2025-06-22T08:51:10Z</time>
      </trkpt>
      <trkpt lat="48.96405" lon="7.28545">
        <ele>263</ele>
        <time>2025-06-22T08:51:11Z</time>
      </trkpt>
      <trkpt lat="48.96401" lon="7.28536">
        <ele>262</ele>
        <time>2025-06-22T08:51:12Z</time>
      </trkpt>
      <trkpt lat="48.96398" lon="7.28527">
        <ele>262</ele>
        <time>2025-06-22T08:51:13Z</time>
      </trkpt>
      <trkpt lat="48.96395" lon="7.28519">
        <ele>262</ele>
        <time>2025-06-22T08:51:14Z</time>
      </trkpt>
      <trkpt lat="48.96392" lon="7.28511">
        <ele>262</ele>
        <time>2025-06-22T08:51:15Z</time>
      </trkpt>
      <trkpt lat="48.9639" lon="7.28503">
        <ele>262</ele>
        <time>2025-06-22T08:51:16Z</time>
      </trkpt>
      <trkpt lat="48.96388" lon="7.28495">
        <ele>261</ele>
        <time>2025-06-22T08:51:17Z</time>
      </trkpt>
      <trkpt lat="48.96384" lon="7.28487">
        <ele>261</ele>
        <time>2025-06-22T08:51:18Z</time>
      </trkpt>
      <trkpt lat="48.96381" lon="7.28479">
        <ele>261</ele>
        <time>2025-06-22T08:51:19Z</time>
      </trkpt>
      <trkpt lat="48.96377" lon="7.2847">
        <ele>261</ele>
        <time>2025-06-22T08:51:20Z</time>
      </trkpt>
      <trkpt lat="48.96373" lon="7.28462">
        <ele>261</ele>
        <time>2025-06-22T08:51:21Z</time>
      </trkpt>
      <trkpt lat="48.96369" lon="7.28453">
        <ele>261</ele>
        <time>2025-06-22T08:51:22Z</time>
      </trkpt>
      <trkpt lat="48.96365" lon="7.28445">
        <ele>261</ele>
        <time>2025-06-22T08:51:23Z</time>
      </trkpt>
      <trkpt lat="48.96362" lon="7.28438">
        <ele>261</ele>
        <time>2025-06-22T08:51:24Z</time>
      </trkpt>
      <trkpt lat="48.96358" lon="7.2843">
        <ele>261</ele>
        <time>2025-06-22T08:51:25Z</time>
      </trkpt>
      <trkpt lat="48.96355" lon="7.28422">
        <ele>261</ele>
        <time>2025-06-22T08:51:26Z</time>
      </trkpt>
      <trkpt lat="48.96353" lon="7.28415">
        <ele>261</ele>
        <time>2025-06-22T08:51:27Z</time>
      </trkpt>
      <trkpt lat="48.96353" lon="7.28408">
        <ele>261</ele>
        <time>2025-06-22T08:51:28Z</time>
      </trkpt>
      <trkpt lat="48.96355" lon="7.28401">
        <ele>260</ele>
        <time>2025-06-22T08:51:29Z</time>
      </trkpt>
      <trkpt lat="48.96359" lon="7.28388">
        <ele>260</ele>
        <time>2025-06-22T08:51:31Z</time>
      </trkpt>
      <trkpt lat="48.96363" lon="7.28376">
        <ele>260</ele>
        <time>2025-06-22T08:51:33Z</time>
      </trkpt>
      <trkpt lat="48.96368" lon="7.28362">
        <ele>260</ele>
        <time>2025-06-22T08:51:35Z</time>
      </trkpt>
      <trkpt lat="48.96371" lon="7.28355">
        <ele>260</ele>
        <time>2025-06-22T08:51:36Z</time>
      </trkpt>
      <trkpt lat="48.96374" lon="7.28349">
        <ele>260</ele>
        <time>2025-06-22T08:51:37Z</time>
      </trkpt>
      <trkpt lat="48.96375" lon="7.28342">
        <ele>260</ele>
        <time>2025-06-22T08:51:38Z</time>
      </trkpt>
      <trkpt lat="48.96376" lon="7.28335">
        <ele>260</ele>
        <time>2025-06-22T08:51:39Z</time>
      </trkpt>
      <trkpt lat="48.96376" lon="7.28329">
        <ele>260</ele>
        <time>2025-06-22T08:51:40Z</time>
      </trkpt>
      <trkpt lat="48.96375" lon="7.28323">
        <ele>260</ele>
        <time>2025-06-22T08:51:41Z</time>
      </trkpt>
      <trkpt lat="48.9637" lon="7.28318">
        <ele>260</ele>
        <time>2025-06-22T08:51:42Z</time>
      </trkpt>
      <trkpt lat="48.96361" lon="7.28311">
        <ele>260</ele>
        <time>2025-06-22T08:51:44Z</time>
      </trkpt>
      <trkpt lat="48.96353" lon="7.28303">
        <ele>260</ele>
        <time>2025-06-22T08:51:46Z</time>
      </trkpt>
      <trkpt lat="48.96347" lon="7.28293">
        <ele>259</ele>
        <time>2025-06-22T08:51:49Z</time>
      </trkpt>
      <trkpt lat="48.96342" lon="7.28287">
        <ele>259</ele>
        <time>2025-06-22T08:51:51Z</time>
      </trkpt>
      <trkpt lat="48.96341" lon="7.28284">
        <ele>259</ele>
        <time>2025-06-22T08:51:52Z</time>
      </trkpt>
      <trkpt lat="48.96339" lon="7.28281">
        <ele>259</ele>
        <time>2025-06-22T08:51:53Z</time>
      </trkpt>
      <trkpt lat="48.96336" lon="7.28272">
        <ele>259</ele>
        <time>2025-06-22T08:51:55Z</time>
      </trkpt>
      <trkpt lat="48.96334" lon="7.28267">
        <ele>259</ele>
        <time>2025-06-22T08:51:56Z</time>
      </trkpt>
      <trkpt lat="48.96332" lon="7.28263">
        <ele>259</ele>
        <time>2025-06-22T08:51:57Z</time>
      </trkpt>
      <trkpt lat="48.96329" lon="7.28259">
        <ele>259</ele>
        <time>2025-06-22T08:51:58Z</time>
      </trkpt>
      <trkpt lat="48.96321" lon="7.28246">
        <ele>259</ele>
        <time>2025-06-22T08:52:01Z</time>
      </trkpt>
      <trkpt lat="48.96312" lon="7.28235">
        <ele>259</ele>
        <time>2025-06-22T08:52:04Z</time>
      </trkpt>
      <trkpt lat="48.96305" lon="7.28226">
        <ele>259</ele>
        <time>2025-06-22T08:52:07Z</time>
      </trkpt>
      <trkpt lat="48.96295" lon="7.28214">
        <ele>259</ele>
        <time>2025-06-22T08:52:10Z</time>
      </trkpt>
      <trkpt lat="48.96287" lon="7.28203">
        <ele>260</ele>
        <time>2025-06-22T08:52:12Z</time>
      </trkpt>
      <trkpt lat="48.96284" lon="7.2819">
        <ele>260</ele>
        <time>2025-06-22T08:52:14Z</time>
      </trkpt>
      <trkpt lat="48.96282" lon="7.28185">
        <ele>260</ele>
        <time>2025-06-22T08:52:15Z</time>
      </trkpt>
      <trkpt lat="48.9628" lon="7.28179">
        <ele>260</ele>
        <time>2025-06-22T08:52:16Z</time>
      </trkpt>
      <trkpt lat="48.96271" lon="7.28168">
        <ele>260</ele>
        <time>2025-06-22T08:52:19Z</time>
      </trkpt>
      <trkpt lat="48.96262" lon="7.28159">
        <ele>262</ele>
        <time>2025-06-22T08:52:22Z</time>
      </trkpt>
      <trkpt lat="48.96255" lon="7.28147">
        <ele>263</ele>
        <time>2025-06-22T08:52:25Z</time>
      </trkpt>
      <trkpt lat="48.96249" lon="7.28132">
        <ele>264</ele>
        <time>2025-06-22T08:52:28Z</time>
      </trkpt>
      <trkpt lat="48.96242" lon="7.28118">
        <ele>265</ele>
        <time>2025-06-22T08:52:32Z</time>
      </trkpt>
      <trkpt lat="48.96232" lon="7.28108">
        <ele>265</ele>
        <time>2025-06-22T08:52:36Z</time>
      </trkpt>
      <trkpt lat="48.96222" lon="7.28101">
        <ele>267</ele>
        <time>2025-06-22T08:52:39Z</time>
      </trkpt>
      <trkpt lat="48.96212" lon="7.28092">
        <ele>267</ele>
        <time>2025-06-22T08:52:42Z</time>
      </trkpt>
      <trkpt lat="48.96208" lon="7.28088">
        <ele>267</ele>
        <time>2025-06-22T08:52:43Z</time>
      </trkpt>
      <trkpt lat="48.96197" lon="7.28079">
        <ele>267</ele>
        <time>2025-06-22T08:52:46Z</time>
      </trkpt>
      <trkpt lat="48.96193" lon="7.28075">
        <ele>266</ele>
        <time>2025-06-22T08:52:47Z</time>
      </trkpt>
      <trkpt lat="48.96189" lon="7.28071">
        <ele>266</ele>
        <time>2025-06-22T08:52:48Z</time>
      </trkpt>
      <trkpt lat="48.96186" lon="7.28068">
        <ele>266</ele>
        <time>2025-06-22T08:52:49Z</time>
      </trkpt>
      <trkpt lat="48.9618" lon="7.28062">
        <ele>266</ele>
        <time>2025-06-22T08:52:51Z</time>
      </trkpt>
      <trkpt lat="48.96177" lon="7.28059">
        <ele>266</ele>
        <time>2025-06-22T08:52:52Z</time>
      </trkpt>
      <trkpt lat="48.96165" lon="7.28049">
        <ele>265</ele>
        <time>2025-06-22T08:52:55Z</time>
      </trkpt>
      <trkpt lat="48.96153" lon="7.28045">
        <ele>265</ele>
        <time>2025-06-22T08:52:57Z</time>
      </trkpt>
      <trkpt lat="48.9614" lon="7.28036">
        <ele>265</ele>
        <time>2025-06-22T08:52:59Z</time>
      </trkpt>
      <trkpt lat="48.96134" lon="7.28032">
        <ele>265</ele>
        <time>2025-06-22T08:53:00Z</time>
      </trkpt>
      <trkpt lat="48.96128" lon="7.28028">
        <ele>265</ele>
        <time>2025-06-22T08:53:01Z</time>
      </trkpt>
      <trkpt lat="48.96116" lon="7.28019">
        <ele>264</ele>
        <time>2025-06-22T08:53:03Z</time>
      </trkpt>
      <trkpt lat="48.96105" lon="7.28007">
        <ele>264</ele>
        <time>2025-06-22T08:53:05Z</time>
      </trkpt>
      <trkpt lat="48.96101" lon="7.27999">
        <ele>263</ele>
        <time>2025-06-22T08:53:06Z</time>
      </trkpt>
      <trkpt lat="48.96096" lon="7.27991">
        <ele>262</ele>
        <time>2025-06-22T08:53:07Z</time>
      </trkpt>
      <trkpt lat="48.96091" lon="7.27985">
        <ele>262</ele>
        <time>2025-06-22T08:53:08Z</time>
      </trkpt>
      <trkpt lat="48.96087" lon="7.27978">
        <ele>262</ele>
        <time>2025-06-22T08:53:09Z</time>
      </trkpt>
      <trkpt lat="48.96082" lon="7.27971">
        <ele>262</ele>
        <time>2025-06-22T08:53:10Z</time>
      </trkpt>
      <trkpt lat="48.96078" lon="7.27965">
        <ele>262</ele>
        <time>2025-06-22T08:53:11Z</time>
      </trkpt>
      <trkpt lat="48.96073" lon="7.27958">
        <ele>262</ele>
        <time>2025-06-22T08:53:12Z</time>
      </trkpt>
      <trkpt lat="48.96069" lon="7.27951">
        <ele>262</ele>
        <time>2025-06-22T08:53:13Z</time>
      </trkpt>
      <trkpt lat="48.96066" lon="7.27944">
        <ele>261</ele>
        <time>2025-06-22T08:53:14Z</time>
      </trkpt>
      <trkpt lat="48.96062" lon="7.27936">
        <ele>261</ele>
        <time>2025-06-22T08:53:15Z</time>
      </trkpt>
      <trkpt lat="48.96059" lon="7.27929">
        <ele>261</ele>
        <time>2025-06-22T08:53:16Z</time>
      </trkpt>
      <trkpt lat="48.96053" lon="7.27912">
        <ele>260</ele>
        <time>2025-06-22T08:53:18Z</time>
      </trkpt>
      <trkpt lat="48.96049" lon="7.27896">
        <ele>260</ele>
        <time>2025-06-22T08:53:20Z</time>
      </trkpt>
      <trkpt lat="48.96045" lon="7.27879">
        <ele>260</ele>
        <time>2025-06-22T08:53:22Z</time>
      </trkpt>
      <trkpt lat="48.9604" lon="7.27862">
        <ele>260</ele>
        <time>2025-06-22T08:53:24Z</time>
      </trkpt>
      <trkpt lat="48.96038" lon="7.27846">
        <ele>260</ele>
        <time>2025-06-22T08:53:26Z</time>
      </trkpt>
      <trkpt lat="48.96036" lon="7.27831">
        <ele>260</ele>
        <time>2025-06-22T08:53:28Z</time>
      </trkpt>
      <trkpt lat="48.96037" lon="7.27816">
        <ele>260</ele>
        <time>2025-06-22T08:53:30Z</time>
      </trkpt>
      <trkpt lat="48.96037" lon="7.27808">
        <ele>260</ele>
        <time>2025-06-22T08:53:31Z</time>
      </trkpt>
      <trkpt lat="48.96039" lon="7.27801">
        <ele>260</ele>
        <time>2025-06-22T08:53:32Z</time>
      </trkpt>
      <trkpt lat="48.9604" lon="7.27794">
        <ele>260</ele>
        <time>2025-06-22T08:53:33Z</time>
      </trkpt>
      <trkpt lat="48.96042" lon="7.27788">
        <ele>260</ele>
        <time>2025-06-22T08:53:34Z</time>
      </trkpt>
      <trkpt lat="48.96044" lon="7.27782">
        <ele>260</ele>
        <time>2025-06-22T08:53:35Z</time>
      </trkpt>
      <trkpt lat="48.96047" lon="7.27776">
        <ele>260</ele>
        <time>2025-06-22T08:53:36Z</time>
      </trkpt>
      <trkpt lat="48.96049" lon="7.27771">
        <ele>260</ele>
        <time>2025-06-22T08:53:37Z</time>
      </trkpt>
      <trkpt lat="48.96054" lon="7.2776">
        <ele>261</ele>
        <time>2025-06-22T08:53:39Z</time>
      </trkpt>
      <trkpt lat="48.96055" lon="7.27757">
        <ele>261</ele>
        <time>2025-06-22T08:53:40Z</time>
      </trkpt>
      <trkpt lat="48.96057" lon="7.27756">
        <ele>261</ele>
        <time>2025-06-22T08:53:41Z</time>
      </trkpt>
      <trkpt lat="48.96058" lon="7.27759">
        <ele>262</ele>
        <time>2025-06-22T08:53:43Z</time>
      </trkpt>
      <trkpt lat="48.9606" lon="7.27763">
        <ele>262</ele>
        <time>2025-06-22T08:53:45Z</time>
      </trkpt>
      <trkpt lat="48.96062" lon="7.27767">
        <ele>262</ele>
        <time>2025-06-22T08:53:47Z</time>
      </trkpt>
      <trkpt lat="48.96063" lon="7.2777">
        <ele>262</ele>
        <time>2025-06-22T08:53:50Z</time>
      </trkpt>
      <trkpt lat="48.96065" lon="7.27773">
        <ele>262</ele>
        <time>2025-06-22T08:53:53Z</time>
      </trkpt>
      <trkpt lat="48.96067" lon="7.27774">
        <ele>263</ele>
        <time>2025-06-22T08:53:55Z</time>
      </trkpt>
      <trkpt lat="48.96069" lon="7.27776">
        <ele>263</ele>
        <time>2025-06-22T08:53:57Z</time>
      </trkpt>
      <trkpt lat="48.96071" lon="7.27778">
        <ele>264</ele>
        <time>2025-06-22T08:53:59Z</time>
      </trkpt>
      <trkpt lat="48.96073" lon="7.2778">
        <ele>265</ele>
        <time>2025-06-22T08:54:02Z</time>
      </trkpt>
      <trkpt lat="48.96075" lon="7.27778">
        <ele>266</ele>
        <time>2025-06-22T08:54:07Z</time>
      </trkpt>
      <trkpt lat="48.96078" lon="7.27777">
        <ele>267</ele>
        <time>2025-06-22T08:54:10Z</time>
      </trkpt>
      <trkpt lat="48.96079" lon="7.27775">
        <ele>267</ele>
        <time>2025-06-22T08:54:12Z</time>
      </trkpt>
      <trkpt lat="48.96081" lon="7.27773">
        <ele>267</ele>
        <time>2025-06-22T08:54:14Z</time>
      </trkpt>
      <trkpt lat="48.96082" lon="7.27771">
        <ele>267</ele>
        <time>2025-06-22T08:54:16Z</time>
      </trkpt>
      <trkpt lat="48.96083" lon="7.27768">
        <ele>267</ele>
        <time>2025-06-22T08:54:18Z</time>
      </trkpt>
      <trkpt lat="48.96084" lon="7.27765">
        <ele>268</ele>
        <time>2025-06-22T08:54:20Z</time>
      </trkpt>
      <trkpt lat="48.96086" lon="7.27762">
        <ele>268</ele>
        <time>2025-06-22T08:54:22Z</time>
      </trkpt>
      <trkpt lat="48.96088" lon="7.2776">
        <ele>268</ele>
        <time>2025-06-22T08:54:24Z</time>
      </trkpt>
      <trkpt lat="48.9609" lon="7.27758">
        <ele>268</ele>
        <time>2025-06-22T08:54:26Z</time>
      </trkpt>
      <trkpt lat="48.96091" lon="7.27756">
        <ele>268</ele>
        <time>2025-06-22T08:54:28Z</time>
      </trkpt>
      <trkpt lat="48.96093" lon="7.27756">
        <ele>269</ele>
        <time>2025-06-22T08:54:31Z</time>
      </trkpt>
      <trkpt lat="48.96091" lon="7.27755">
        <ele>268</ele>
        <time>2025-06-22T08:54:41Z</time>
      </trkpt>
      <trkpt lat="48.96091" lon="7.27758">
        <ele>268</ele>
        <time>2025-06-22T08:54:44Z</time>
      </trkpt>
      <trkpt lat="48.96092" lon="7.27763">
        <ele>268</ele>
        <time>2025-06-22T08:54:46Z</time>
      </trkpt>
      <trkpt lat="48.96095" lon="7.27767">
        <ele>269</ele>
        <time>2025-06-22T08:54:49Z</time>
      </trkpt>
      <trkpt lat="48.96097" lon="7.27767">
        <ele>269</ele>
        <time>2025-06-22T08:54:50Z</time>
      </trkpt>
      <trkpt lat="48.96101" lon="7.27759">
        <ele>272</ele>
        <time>2025-06-22T08:54:59Z</time>
      </trkpt>
      <trkpt lat="48.96097" lon="7.27763">
        <ele>273</ele>
        <time>2025-06-22T08:55:09Z</time>
      </trkpt>
      <trkpt lat="48.96091" lon="7.27774">
        <ele>270</ele>
        <time>2025-06-22T08:55:19Z</time>
      </trkpt>
      <trkpt lat="48.96092" lon="7.27769">
        <ele>269</ele>
        <time>2025-06-22T08:55:22Z</time>
      </trkpt>
      <trkpt lat="48.96092" lon="7.27765">
        <ele>269</ele>
        <time>2025-06-22T08:55:23Z</time>
      </trkpt>
      <trkpt lat="48.96092" lon="7.27762">
        <ele>269</ele>
        <time>2025-06-22T08:55:25Z</time>
      </trkpt>
      <trkpt lat="48.96092" lon="7.27758">
        <ele>269</ele>
        <time>2025-06-22T08:55:27Z</time>
      </trkpt>
      <trkpt lat="48.96093" lon="7.27755">
        <ele>269</ele>
        <time>2025-06-22T08:55:28Z</time>
      </trkpt>
      <trkpt lat="48.96093" lon="7.2775">
        <ele>269</ele>
        <time>2025-06-22T08:55:30Z</time>
      </trkpt>
      <trkpt lat="48.96094" lon="7.27747">
        <ele>269</ele>
        <time>2025-06-22T08:55:31Z</time>
      </trkpt>
      <trkpt lat="48.96095" lon="7.27743">
        <ele>269</ele>
        <time>2025-06-22T08:55:32Z</time>
      </trkpt>
      <trkpt lat="48.96095" lon="7.2774">
        <ele>269</ele>
        <time>2025-06-22T08:55:33Z</time>
      </trkpt>
      <trkpt lat="48.96096" lon="7.27738">
        <ele>269</ele>
        <time>2025-06-22T08:55:34Z</time>
      </trkpt>
      <trkpt lat="48.96097" lon="7.27729">
        <ele>268</ele>
        <time>2025-06-22T08:55:37Z</time>
      </trkpt>
      <trkpt lat="48.96101" lon="7.27716">
        <ele>267</ele>
        <time>2025-06-22T08:55:41Z</time>
      </trkpt>
      <trkpt lat="48.96109" lon="7.27708">
        <ele>264</ele>
        <time>2025-06-22T08:55:45Z</time>
      </trkpt>
      <trkpt lat="48.9612" lon="7.2771">
        <ele>262</ele>
        <time>2025-06-22T08:55:49Z</time>
      </trkpt>
      <trkpt lat="48.96129" lon="7.27713">
        <ele>262</ele>
        <time>2025-06-22T08:55:54Z</time>
      </trkpt>
      <trkpt lat="48.96137" lon="7.27718">
        <ele>263</ele>
        <time>2025-06-22T08:55:58Z</time>
      </trkpt>
      <trkpt lat="48.96148" lon="7.27724">
        <ele>264</ele>
        <time>2025-06-22T08:56:03Z</time>
      </trkpt>
      <trkpt lat="48.96159" lon="7.27727">
        <ele>264</ele>
        <time>2025-06-22T08:56:07Z</time>
      </trkpt>
      <trkpt lat="48.96168" lon="7.27734">
        <ele>267</ele>
        <time>2025-06-22T08:56:13Z</time>
      </trkpt>
      <trkpt lat="48.96178" lon="7.27737">
        <ele>267</ele>
        <time>2025-06-22T08:56:17Z</time>
      </trkpt>
      <trkpt lat="48.96187" lon="7.27742">
        <ele>269</ele>
        <time>2025-06-22T08:56:21Z</time>
      </trkpt>
      <trkpt lat="48.96196" lon="7.27748">
        <ele>269</ele>
        <time>2025-06-22T08:56:24Z</time>
      </trkpt>
      <trkpt lat="48.96207" lon="7.27749">
        <ele>270</ele>
        <time>2025-06-22T08:56:28Z</time>
      </trkpt>
      <trkpt lat="48.96218" lon="7.27747">
        <ele>271</ele>
        <time>2025-06-22T08:56:32Z</time>
      </trkpt>
      <trkpt lat="48.96228" lon="7.27747">
        <ele>271</ele>
        <time>2025-06-22T08:56:35Z</time>
      </trkpt>
      <trkpt lat="48.96237" lon="7.27746">
        <ele>272</ele>
        <time>2025-06-22T08:56:39Z</time>
      </trkpt>
      <trkpt lat="48.9625" lon="7.27742">
        <ele>272</ele>
        <time>2025-06-22T08:56:43Z</time>
      </trkpt>
      <trkpt lat="48.96259" lon="7.2774">
        <ele>272</ele>
        <time>2025-06-22T08:56:45Z</time>
      </trkpt>
      <trkpt lat="48.96269" lon="7.27739">
        <ele>272</ele>
        <time>2025-06-22T08:56:48Z</time>
      </trkpt>
      <trkpt lat="48.96278" lon="7.27739">
        <ele>272</ele>
        <time>2025-06-22T08:56:56Z</time>
      </trkpt>
      <trkpt lat="48.96287" lon="7.27734">
        <ele>273</ele>
        <time>2025-06-22T08:57:03Z</time>
      </trkpt>
      <trkpt lat="48.96296" lon="7.27728">
        <ele>273</ele>
        <time>2025-06-22T08:57:06Z</time>
      </trkpt>
      <trkpt lat="48.96309" lon="7.27722">
        <ele>273</ele>
        <time>2025-06-22T08:57:09Z</time>
      </trkpt>
      <trkpt lat="48.96321" lon="7.27719">
        <ele>273</ele>
        <time>2025-06-22T08:57:12Z</time>
      </trkpt>
      <trkpt lat="48.96331" lon="7.27712">
        <ele>274</ele>
        <time>2025-06-22T08:57:15Z</time>
      </trkpt>
      <trkpt lat="48.9634" lon="7.27708">
        <ele>274</ele>
        <time>2025-06-22T08:57:18Z</time>
      </trkpt>
      <trkpt lat="48.96349" lon="7.277">
        <ele>274</ele>
        <time>2025-06-22T08:57:22Z</time>
      </trkpt>
      <trkpt lat="48.9636" lon="7.27692">
        <ele>274</ele>
        <time>2025-06-22T08:57:26Z</time>
      </trkpt>
      <trkpt lat="48.96365" lon="7.27677">
        <ele>274</ele>
        <time>2025-06-22T08:57:30Z</time>
      </trkpt>
      <trkpt lat="48.96367" lon="7.27664">
        <ele>276</ele>
        <time>2025-06-22T08:57:34Z</time>
      </trkpt>
      <trkpt lat="48.96375" lon="7.27653">
        <ele>276</ele>
        <time>2025-06-22T08:57:39Z</time>
      </trkpt>
      <trkpt lat="48.96386" lon="7.27641">
        <ele>276</ele>
        <time>2025-06-22T08:57:42Z</time>
      </trkpt>
      <trkpt lat="48.96396" lon="7.27635">
        <ele>277</ele>
        <time>2025-06-22T08:57:45Z</time>
      </trkpt>
      <trkpt lat="48.96405" lon="7.27633">
        <ele>277</ele>
        <time>2025-06-22T08:57:47Z</time>
      </trkpt>
      <trkpt lat="48.96417" lon="7.27631">
        <ele>277</ele>
        <time>2025-06-22T08:57:50Z</time>
      </trkpt>
      <trkpt lat="48.96426" lon="7.27627">
        <ele>277</ele>
        <time>2025-06-22T08:57:52Z</time>
      </trkpt>
      <trkpt lat="48.96438" lon="7.27626">
        <ele>277</ele>
        <time>2025-06-22T08:57:55Z</time>
      </trkpt>
      <trkpt lat="48.96448" lon="7.27624">
        <ele>277</ele>
        <time>2025-06-22T08:57:57Z</time>
      </trkpt>
      <trkpt lat="48.96459" lon="7.27621">
        <ele>278</ele>
        <time>2025-06-22T08:58:00Z</time>
      </trkpt>
      <trkpt lat="48.96471" lon="7.2762">
        <ele>279</ele>
        <time>2025-06-22T08:58:03Z</time>
      </trkpt>
      <trkpt lat="48.96482" lon="7.27617">
        <ele>279</ele>
        <time>2025-06-22T08:58:06Z</time>
      </trkpt>
      <trkpt lat="48.96494" lon="7.27611">
        <ele>279</ele>
        <time>2025-06-22T08:58:10Z</time>
      </trkpt>
      <trkpt lat="48.96505" lon="7.27609">
        <ele>279</ele>
        <time>2025-06-22T08:58:14Z</time>
      </trkpt>
      <trkpt lat="48.96515" lon="7.27609">
        <ele>279</ele>
        <time>2025-06-22T08:58:16Z</time>
      </trkpt>
      <trkpt lat="48.96524" lon="7.27607">
        <ele>279</ele>
        <time>2025-06-22T08:58:18Z</time>
      </trkpt>
      <trkpt lat="48.96536" lon="7.27602">
        <ele>279</ele>
        <time>2025-06-22T08:58:20Z</time>
      </trkpt>
      <trkpt lat="48.96548" lon="7.27601">
        <ele>279</ele>
        <time>2025-06-22T08:58:22Z</time>
      </trkpt>
      <trkpt lat="48.96558" lon="7.27597">
        <ele>279</ele>
        <time>2025-06-22T08:58:24Z</time>
      </trkpt>
      <trkpt lat="48.96569" lon="7.27598">
        <ele>280</ele>
        <time>2025-06-22T08:58:26Z</time>
      </trkpt>
      <trkpt lat="48.96582" lon="7.276">
        <ele>280</ele>
        <time>2025-06-22T08:58:29Z</time>
      </trkpt>
      <trkpt lat="48.96592" lon="7.27601">
        <ele>280</ele>
        <time>2025-06-22T08:58:32Z</time>
      </trkpt>
      <trkpt lat="48.96603" lon="7.27597">
        <ele>280</ele>
        <time>2025-06-22T08:58:35Z</time>
      </trkpt>
      <trkpt lat="48.96615" lon="7.27596">
        <ele>280</ele>
        <time>2025-06-22T08:58:39Z</time>
      </trkpt>
      <trkpt lat="48.96625" lon="7.2759">
        <ele>282</ele>
        <time>2025-06-22T08:58:45Z</time>
      </trkpt>
      <trkpt lat="48.96635" lon="7.2759">
        <ele>282</ele>
        <time>2025-06-22T08:58:48Z</time>
      </trkpt>
      <trkpt lat="48.96645" lon="7.2759">
        <ele>282</ele>
        <time>2025-06-22T08:58:51Z</time>
      </trkpt>
      <trkpt lat="48.96656" lon="7.27593">
        <ele>283</ele>
        <time>2025-06-22T08:58:55Z</time>
      </trkpt>
      <trkpt lat="48.96669" lon="7.27595">
        <ele>283</ele>
        <time>2025-06-22T08:58:58Z</time>
      </trkpt>
      <trkpt lat="48.96679" lon="7.27589">
        <ele>284</ele>
        <time>2025-06-22T08:59:05Z</time>
      </trkpt>
      <trkpt lat="48.96691" lon="7.27585">
        <ele>284</ele>
        <time>2025-06-22T08:59:09Z</time>
      </trkpt>
      <trkpt lat="48.967" lon="7.27586">
        <ele>284</ele>
        <time>2025-06-22T08:59:15Z</time>
      </trkpt>
      <trkpt lat="48.9671" lon="7.27584">
        <ele>286</ele>
        <time>2025-06-22T08:59:20Z</time>
      </trkpt>
      <trkpt lat="48.9672" lon="7.27582">
        <ele>286</ele>
        <time>2025-06-22T08:59:24Z</time>
      </trkpt>
      <trkpt lat="48.9673" lon="7.27578">
        <ele>287</ele>
        <time>2025-06-22T08:59:29Z</time>
      </trkpt>
      <trkpt lat="48.9674" lon="7.27576">
        <ele>287</ele>
        <time>2025-06-22T08:59:33Z</time>
      </trkpt>
      <trkpt lat="48.9675" lon="7.27577">
        <ele>289</ele>
        <time>2025-06-22T08:59:37Z</time>
      </trkpt>
      <trkpt lat="48.96759" lon="7.27577">
        <ele>290</ele>
        <time>2025-06-22T08:59:43Z</time>
      </trkpt>
      <trkpt lat="48.96769" lon="7.27574">
        <ele>291</ele>
        <time>2025-06-22T08:59:48Z</time>
      </trkpt>
      <trkpt lat="48.96779" lon="7.27572">
        <ele>292</ele>
        <time>2025-06-22T08:59:53Z</time>
      </trkpt>
      <trkpt lat="48.96788" lon="7.27569">
        <ele>292</ele>
        <time>2025-06-22T08:59:58Z</time>
      </trkpt>
      <trkpt lat="48.96798" lon="7.27572">
        <ele>292</ele>
        <time>2025-06-22T09:00:04Z</time>
      </trkpt>
      <trkpt lat="48.96808" lon="7.2757">
        <ele>293</ele>
        <time>2025-06-22T09:00:09Z</time>
      </trkpt>
      <trkpt lat="48.96818" lon="7.27568">
        <ele>293</ele>
        <time>2025-06-22T09:00:13Z</time>
      </trkpt>
      <trkpt lat="48.96827" lon="7.27565">
        <ele>294</ele>
        <time>2025-06-22T09:00:17Z</time>
      </trkpt>
      <trkpt lat="48.96838" lon="7.27563">
        <ele>294</ele>
        <time>2025-06-22T09:00:22Z</time>
      </trkpt>
      <trkpt lat="48.96849" lon="7.27561">
        <ele>294</ele>
        <time>2025-06-22T09:00:28Z</time>
      </trkpt>
      <trkpt lat="48.96859" lon="7.2756">
        <ele>297</ele>
        <time>2025-06-22T09:00:32Z</time>
      </trkpt>
      <trkpt lat="48.96869" lon="7.2756">
        <ele>297</ele>
        <time>2025-06-22T09:00:36Z</time>
      </trkpt>
      <trkpt lat="48.96879" lon="7.27556">
        <ele>298</ele>
        <time>2025-06-22T09:00:41Z</time>
      </trkpt>
      <trkpt lat="48.9689" lon="7.27552">
        <ele>298</ele>
        <time>2025-06-22T09:00:45Z</time>
      </trkpt>
      <trkpt lat="48.96899" lon="7.27546">
        <ele>299</ele>
        <time>2025-06-22T09:00:50Z</time>
      </trkpt>
      <trkpt lat="48.96906" lon="7.27544">
        <ele>300</ele>
        <time>2025-06-22T09:00:53Z</time>
      </trkpt>
      <trkpt lat="48.96908" lon="7.27543">
        <ele>300</ele>
        <time>2025-06-22T09:00:54Z</time>
      </trkpt>
      <trkpt lat="48.9691" lon="7.27542">
        <ele>300</ele>
        <time>2025-06-22T09:00:55Z</time>
      </trkpt>
      <trkpt lat="48.96911" lon="7.27541">
        <ele>300</ele>
        <time>2025-06-22T09:00:56Z</time>
      </trkpt>
      <trkpt lat="48.96913" lon="7.2754">
        <ele>300</ele>
        <time>2025-06-22T09:00:57Z</time>
      </trkpt>
      <trkpt lat="48.96915" lon="7.27539">
        <ele>300</ele>
        <time>2025-06-22T09:00:58Z</time>
      </trkpt>
      <trkpt lat="48.96917" lon="7.27537">
        <ele>300</ele>
        <time>2025-06-22T09:00:59Z</time>
      </trkpt>
      <trkpt lat="48.96925" lon="7.27532">
        <ele>302</ele>
        <time>2025-06-22T09:01:03Z</time>
      </trkpt>
      <trkpt lat="48.96934" lon="7.27529">
        <ele>302</ele>
        <time>2025-06-22T09:01:06Z</time>
      </trkpt>
      <trkpt lat="48.96944" lon="7.27527">
        <ele>302</ele>
        <time>2025-06-22T09:01:10Z</time>
      </trkpt>
      <trkpt lat="48.96954" lon="7.27522">
        <ele>304</ele>
        <time>2025-06-22T09:01:14Z</time>
      </trkpt>
      <trkpt lat="48.96963" lon="7.27518">
        <ele>304</ele>
        <time>2025-06-22T09:01:18Z</time>
      </trkpt>
      <trkpt lat="48.96972" lon="7.27514">
        <ele>304</ele>
        <time>2025-06-22T09:01:22Z</time>
      </trkpt>
      <trkpt lat="48.96982" lon="7.27508">
        <ele>305</ele>
        <time>2025-06-22T09:01:27Z</time>
      </trkpt>
      <trkpt lat="48.96993" lon="7.27505">
        <ele>306</ele>
        <time>2025-06-22T09:01:31Z</time>
      </trkpt>
      <trkpt lat="48.97002" lon="7.27502">
        <ele>308</ele>
        <time>2025-06-22T09:01:35Z</time>
      </trkpt>
      <trkpt lat="48.97012" lon="7.27498">
        <ele>309</ele>
        <time>2025-06-22T09:01:39Z</time>
      </trkpt>
      <trkpt lat="48.97022" lon="7.27491">
        <ele>310</ele>
        <time>2025-06-22T09:01:44Z</time>
      </trkpt>
      <trkpt lat="48.97032" lon="7.27489">
        <ele>310</ele>
        <time>2025-06-22T09:01:48Z</time>
      </trkpt>
      <trkpt lat="48.97044" lon="7.27484">
        <ele>311</ele>
        <time>2025-06-22T09:01:52Z</time>
      </trkpt>
      <trkpt lat="48.97052" lon="7.2748">
        <ele>313</ele>
        <time>2025-06-22T09:01:56Z</time>
      </trkpt>
      <trkpt lat="48.97062" lon="7.27475">
        <ele>315</ele>
        <time>2025-06-22T09:02:01Z</time>
      </trkpt>
      <trkpt lat="48.97071" lon="7.27469">
        <ele>316</ele>
        <time>2025-06-22T09:02:05Z</time>
      </trkpt>
      <trkpt lat="48.97081" lon="7.27464">
        <ele>316</ele>
        <time>2025-06-22T09:02:09Z</time>
      </trkpt>
      <trkpt lat="48.97091" lon="7.2746">
        <ele>316</ele>
        <time>2025-06-22T09:02:13Z</time>
      </trkpt>
      <trkpt lat="48.97099" lon="7.27457">
        <ele>316</ele>
        <time>2025-06-22T09:02:16Z</time>
      </trkpt>
      <trkpt lat="48.97108" lon="7.2745">
        <ele>318</ele>
        <time>2025-06-22T09:02:20Z</time>
      </trkpt>
      <trkpt lat="48.97117" lon="7.27444">
        <ele>319</ele>
        <time>2025-06-22T09:02:24Z</time>
      </trkpt>
      <trkpt lat="48.97127" lon="7.27438">
        <ele>319</ele>
        <time>2025-06-22T09:02:27Z</time>
      </trkpt>
      <trkpt lat="48.97137" lon="7.27433">
        <ele>319</ele>
        <time>2025-06-22T09:02:31Z</time>
      </trkpt>
      <trkpt lat="48.97147" lon="7.27429">
        <ele>320</ele>
        <time>2025-06-22T09:02:35Z</time>
      </trkpt>
      <trkpt lat="48.97158" lon="7.27424">
        <ele>321</ele>
        <time>2025-06-22T09:02:39Z</time>
      </trkpt>
      <trkpt lat="48.97166" lon="7.2742">
        <ele>322</ele>
        <time>2025-06-22T09:02:43Z</time>
      </trkpt>
      <trkpt lat="48.97176" lon="7.27413">
        <ele>322</ele>
        <time>2025-06-22T09:02:48Z</time>
      </trkpt>
      <trkpt lat="48.97186" lon="7.27409">
        <ele>324</ele>
        <time>2025-06-22T09:02:51Z</time>
      </trkpt>
      <trkpt lat="48.97196" lon="7.27407">
        <ele>325</ele>
        <time>2025-06-22T09:02:54Z</time>
      </trkpt>
      <trkpt lat="48.97206" lon="7.27403">
        <ele>325</ele>
        <time>2025-06-22T09:02:58Z</time>
      </trkpt>
      <trkpt lat="48.97218" lon="7.27396">
        <ele>326</ele>
        <time>2025-06-22T09:03:02Z</time>
      </trkpt>
      <trkpt lat="48.97228" lon="7.27392">
        <ele>326</ele>
        <time>2025-06-22T09:03:07Z</time>
      </trkpt>
      <trkpt lat="48.97238" lon="7.27389">
        <ele>328</ele>
        <time>2025-06-22T09:03:11Z</time>
      </trkpt>
      <trkpt lat="48.97248" lon="7.27388">
        <ele>329</ele>
        <time>2025-06-22T09:03:15Z</time>
      </trkpt>
      <trkpt lat="48.9726" lon="7.27385">
        <ele>329</ele>
        <time>2025-06-22T09:03:19Z</time>
      </trkpt>
      <trkpt lat="48.97271" lon="7.27383">
        <ele>329</ele>
        <time>2025-06-22T09:03:23Z</time>
      </trkpt>
      <trkpt lat="48.97281" lon="7.27381">
        <ele>331</ele>
        <time>2025-06-22T09:03:26Z</time>
      </trkpt>
      <trkpt lat="48.9729" lon="7.27381">
        <ele>331</ele>
        <time>2025-06-22T09:03:29Z</time>
      </trkpt>
      <trkpt lat="48.97297" lon="7.27379">
        <ele>333</ele>
        <time>2025-06-22T09:03:32Z</time>
      </trkpt>
      <trkpt lat="48.97299" lon="7.27379">
        <ele>333</ele>
        <time>2025-06-22T09:03:33Z</time>
      </trkpt>
      <trkpt lat="48.97301" lon="7.27378">
        <ele>333</ele>
        <time>2025-06-22T09:03:34Z</time>
      </trkpt>
      <trkpt lat="48.97303" lon="7.27378">
        <ele>333</ele>
        <time>2025-06-22T09:03:35Z</time>
      </trkpt>
      <trkpt lat="48.97313" lon="7.27382">
        <ele>335</ele>
        <time>2025-06-22T09:03:40Z</time>
      </trkpt>
      <trkpt lat="48.97323" lon="7.27385">
        <ele>335</ele>
        <time>2025-06-22T09:03:44Z</time>
      </trkpt>
      <trkpt lat="48.97326" lon="7.27385">
        <ele>335</ele>
        <time>2025-06-22T09:03:46Z</time>
      </trkpt>
      <trkpt lat="48.97329" lon="7.27386">
        <ele>336</ele>
        <time>2025-06-22T09:03:48Z</time>
      </trkpt>
      <trkpt lat="48.97338" lon="7.27386">
        <ele>336</ele>
        <time>2025-06-22T09:03:54Z</time>
      </trkpt>
      <trkpt lat="48.97343" lon="7.27384">
        <ele>337</ele>
        <time>2025-06-22T09:05:34Z</time>
      </trkpt>
      <trkpt lat="48.97343" lon="7.2738">
        <ele>337</ele>
        <time>2025-06-22T09:05:36Z</time>
      </trkpt>
      <trkpt lat="48.97345" lon="7.27377">
        <ele>337</ele>
        <time>2025-06-22T09:05:38Z</time>
      </trkpt>
      <trkpt lat="48.97348" lon="7.27375">
        <ele>337</ele>
        <time>2025-06-22T09:05:40Z</time>
      </trkpt>
      <trkpt lat="48.9735" lon="7.27374">
        <ele>337</ele>
        <time>2025-06-22T09:05:41Z</time>
      </trkpt>
      <trkpt lat="48.97351" lon="7.27371">
        <ele>337</ele>
        <time>2025-06-22T09:05:42Z</time>
      </trkpt>
      <trkpt lat="48.97353" lon="7.2737">
        <ele>337</ele>
        <time>2025-06-22T09:05:43Z</time>
      </trkpt>
      <trkpt lat="48.97356" lon="7.27369">
        <ele>337</ele>
        <time>2025-06-22T09:05:44Z</time>
      </trkpt>
      <trkpt lat="48.97359" lon="7.27368">
        <ele>337</ele>
        <time>2025-06-22T09:05:45Z</time>
      </trkpt>
      <trkpt lat="48.97361" lon="7.27367">
        <ele>337</ele>
        <time>2025-06-22T09:05:46Z</time>
      </trkpt>
      <trkpt lat="48.97363" lon="7.27366">
        <ele>336</ele>
        <time>2025-06-22T09:05:47Z</time>
      </trkpt>
      <trkpt lat="48.97366" lon="7.27364">
        <ele>336</ele>
        <time>2025-06-22T09:05:48Z</time>
      </trkpt>
      <trkpt lat="48.97368" lon="7.27363">
        <ele>336</ele>
        <time>2025-06-22T09:05:49Z</time>
      </trkpt>
      <trkpt lat="48.9737" lon="7.27361">
        <ele>336</ele>
        <time>2025-06-22T09:05:50Z</time>
      </trkpt>
      <trkpt lat="48.97378" lon="7.27348">
        <ele>335</ele>
        <time>2025-06-22T09:05:53Z</time>
      </trkpt>
      <trkpt lat="48.97386" lon="7.27339">
        <ele>335</ele>
        <time>2025-06-22T09:05:55Z</time>
      </trkpt>
      <trkpt lat="48.97394" lon="7.27331">
        <ele>335</ele>
        <time>2025-06-22T09:05:57Z</time>
      </trkpt>
      <trkpt lat="48.97403" lon="7.27323">
        <ele>335</ele>
        <time>2025-06-22T09:05:59Z</time>
      </trkpt>
      <trkpt lat="48.97412" lon="7.27317">
        <ele>335</ele>
        <time>2025-06-22T09:06:02Z</time>
      </trkpt>
      <trkpt lat="48.9742" lon="7.27306">
        <ele>335</ele>
        <time>2025-06-22T09:06:05Z</time>
      </trkpt>
      <trkpt lat="48.97432" lon="7.27302">
        <ele>335</ele>
        <time>2025-06-22T09:06:08Z</time>
      </trkpt>
      <trkpt lat="48.97441" lon="7.27292">
        <ele>334</ele>
        <time>2025-06-22T09:06:11Z</time>
      </trkpt>
      <trkpt lat="48.97448" lon="7.27282">
        <ele>334</ele>
        <time>2025-06-22T09:06:17Z</time>
      </trkpt>
      <trkpt lat="48.9745" lon="7.27277">
        <ele>334</ele>
        <time>2025-06-22T09:06:23Z</time>
      </trkpt>
      <trkpt lat="48.9745" lon="7.27274">
        <ele>334</ele>
        <time>2025-06-22T09:06:25Z</time>
      </trkpt>
      <trkpt lat="48.97451" lon="7.2727">
        <ele>335</ele>
        <time>2025-06-22T09:06:27Z</time>
      </trkpt>
      <trkpt lat="48.97451" lon="7.27267">
        <ele>335</ele>
        <time>2025-06-22T09:06:29Z</time>
      </trkpt>
      <trkpt lat="48.97452" lon="7.27263">
        <ele>335</ele>
        <time>2025-06-22T09:06:31Z</time>
      </trkpt>
      <trkpt lat="48.97462" lon="7.27257">
        <ele>335</ele>
        <time>2025-06-22T09:06:36Z</time>
      </trkpt>
      <trkpt lat="48.97472" lon="7.27251">
        <ele>337</ele>
        <time>2025-06-22T09:06:40Z</time>
      </trkpt>
      <trkpt lat="48.97481" lon="7.2725">
        <ele>339</ele>
        <time>2025-06-22T09:06:43Z</time>
      </trkpt>
      <trkpt lat="48.97492" lon="7.27253">
        <ele>339</ele>
        <time>2025-06-22T09:06:47Z</time>
      </trkpt>
      <trkpt lat="48.97501" lon="7.27251">
        <ele>342</ele>
        <time>2025-06-22T09:06:51Z</time>
      </trkpt>
      <trkpt lat="48.9751" lon="7.27249">
        <ele>343</ele>
        <time>2025-06-22T09:06:55Z</time>
      </trkpt>
      <trkpt lat="48.9752" lon="7.27245">
        <ele>344</ele>
        <time>2025-06-22T09:07:00Z</time>
      </trkpt>
      <trkpt lat="48.97525" lon="7.27241">
        <ele>345</ele>
        <time>2025-06-22T09:07:03Z</time>
      </trkpt>
      <trkpt lat="48.97527" lon="7.2724">
        <ele>345</ele>
        <time>2025-06-22T09:07:17Z</time>
      </trkpt>
      <trkpt lat="48.97524" lon="7.27242">
        <ele>344</ele>
        <time>2025-06-22T09:07:41Z</time>
      </trkpt>
      <trkpt lat="48.97523" lon="7.27244">
        <ele>345</ele>
        <time>2025-06-22T09:07:44Z</time>
      </trkpt>
      <trkpt lat="48.97521" lon="7.27243">
        <ele>345</ele>
        <time>2025-06-22T09:08:22Z</time>
      </trkpt>
      <trkpt lat="48.97519" lon="7.27245">
        <ele>345</ele>
        <time>2025-06-22T09:08:26Z</time>
      </trkpt>
      <trkpt lat="48.9752" lon="7.27244">
        <ele>345</ele>
        <time>2025-06-22T09:08:44Z</time>
      </trkpt>
      <trkpt lat="48.97518" lon="7.27237">
        <ele>345</ele>
        <time>2025-06-22T09:09:07Z</time>
      </trkpt>
      <trkpt lat="48.9752" lon="7.27238">
        <ele>345</ele>
        <time>2025-06-22T09:09:25Z</time>
      </trkpt>
      <trkpt lat="48.97522" lon="7.27239">
        <ele>345</ele>
        <time>2025-06-22T09:09:36Z</time>
      </trkpt>
      <trkpt lat="48.97521" lon="7.27243">
        <ele>344</ele>
        <time>2025-06-22T09:09:39Z</time>
      </trkpt>
      <trkpt lat="48.97522" lon="7.2724">
        <ele>344</ele>
        <time>2025-06-22T09:09:53Z</time>
      </trkpt>
      <trkpt lat="48.9752" lon="7.27238">
        <ele>344</ele>
        <time>2025-06-22T09:09:55Z</time>
      </trkpt>
      <trkpt lat="48.97521" lon="7.27241">
        <ele>345</ele>
        <time>2025-06-22T09:10:17Z</time>
      </trkpt>
      <trkpt lat="48.97521" lon="7.27245">
        <ele>345</ele>
        <time>2025-06-22T09:10:20Z</time>
      </trkpt>
      <trkpt lat="48.9752" lon="7.27249">
        <ele>345</ele>
        <time>2025-06-22T09:10:23Z</time>
      </trkpt>
      <trkpt lat="48.97521" lon="7.27243">
        <ele>345</ele>
        <time>2025-06-22T09:10:43Z</time>
      </trkpt>
      <trkpt lat="48.97523" lon="7.27242">
        <ele>345</ele>
        <time>2025-06-22T09:10:47Z</time>
      </trkpt>
      <trkpt lat="48.97524" lon="7.27244">
        <ele>345</ele>
        <time>2025-06-22T09:11:00Z</time>
      </trkpt>
      <trkpt lat="48.97524" lon="7.27247">
        <ele>345</ele>
        <time>2025-06-22T09:11:09Z</time>
      </trkpt>
      <trkpt lat="48.97527" lon="7.27243">
        <ele>345</ele>
        <time>2025-06-22T09:11:13Z</time>
      </trkpt>
      <trkpt lat="48.97528" lon="7.27239">
        <ele>345</ele>
        <time>2025-06-22T09:11:15Z</time>
      </trkpt>
      <trkpt lat="48.9753" lon="7.27235">
        <ele>345</ele>
        <time>2025-06-22T09:11:17Z</time>
      </trkpt>
      <trkpt lat="48.97533" lon="7.2723">
        <ele>345</ele>
        <time>2025-06-22T09:11:19Z</time>
      </trkpt>
      <trkpt lat="48.97539" lon="7.27218">
        <ele>346</ele>
        <time>2025-06-22T09:11:22Z</time>
      </trkpt>
      <trkpt lat="48.97547" lon="7.27202">
        <ele>347</ele>
        <time>2025-06-22T09:11:25Z</time>
      </trkpt>
      <trkpt lat="48.97553" lon="7.27185">
        <ele>347</ele>
        <time>2025-06-22T09:11:28Z</time>
      </trkpt>
      <trkpt lat="48.97557" lon="7.27172">
        <ele>348</ele>
        <time>2025-06-22T09:11:30Z</time>
      </trkpt>
      <trkpt lat="48.97561" lon="7.27155">
        <ele>348</ele>
        <time>2025-06-22T09:11:33Z</time>
      </trkpt>
      <trkpt lat="48.97567" lon="7.27139">
        <ele>350</ele>
        <time>2025-06-22T09:11:36Z</time>
      </trkpt>
      <trkpt lat="48.97575" lon="7.27127">
        <ele>351</ele>
        <time>2025-06-22T09:11:39Z</time>
      </trkpt>
      <trkpt lat="48.97583" lon="7.27115">
        <ele>351</ele>
        <time>2025-06-22T09:11:42Z</time>
      </trkpt>
      <trkpt lat="48.97591" lon="7.27104">
        <ele>351</ele>
        <time>2025-06-22T09:11:47Z</time>
      </trkpt>
      <trkpt lat="48.97599" lon="7.27093">
        <ele>353</ele>
        <time>2025-06-22T09:11:52Z</time>
      </trkpt>
      <trkpt lat="48.97608" lon="7.27084">
        <ele>354</ele>
        <time>2025-06-22T09:11:56Z</time>
      </trkpt>
      <trkpt lat="48.97616" lon="7.27072">
        <ele>355</ele>
        <time>2025-06-22T09:11:59Z</time>
      </trkpt>
      <trkpt lat="48.97619" lon="7.27059">
        <ele>356</ele>
        <time>2025-06-22T09:12:02Z</time>
      </trkpt>
      <trkpt lat="48.97618" lon="7.27043">
        <ele>356</ele>
        <time>2025-06-22T09:12:06Z</time>
      </trkpt>
      <trkpt lat="48.97612" lon="7.2703">
        <ele>356</ele>
        <time>2025-06-22T09:12:09Z</time>
      </trkpt>
      <trkpt lat="48.97604" lon="7.27017">
        <ele>356</ele>
        <time>2025-06-22T09:12:12Z</time>
      </trkpt>
      <trkpt lat="48.97597" lon="7.27007">
        <ele>356</ele>
        <time>2025-06-22T09:12:14Z</time>
      </trkpt>
      <trkpt lat="48.97592" lon="7.26991">
        <ele>356</ele>
        <time>2025-06-22T09:12:17Z</time>
      </trkpt>
      <trkpt lat="48.97591" lon="7.26984">
        <ele>356</ele>
        <time>2025-06-22T09:12:19Z</time>
      </trkpt>
      <trkpt lat="48.97592" lon="7.26981">
        <ele>356</ele>
        <time>2025-06-22T09:12:20Z</time>
      </trkpt>
      <trkpt lat="48.97594" lon="7.2698">
        <ele>356</ele>
        <time>2025-06-22T09:12:21Z</time>
      </trkpt>
      <trkpt lat="48.97596" lon="7.26978">
        <ele>356</ele>
        <time>2025-06-22T09:12:23Z</time>
      </trkpt>
      <trkpt lat="48.97598" lon="7.26976">
        <ele>356</ele>
        <time>2025-06-22T09:12:25Z</time>
      </trkpt>
      <trkpt lat="48.97599" lon="7.26972">
        <ele>356</ele>
        <time>2025-06-22T09:12:27Z</time>
      </trkpt>
      <trkpt lat="48.97601" lon="7.2697">
        <ele>356</ele>
        <time>2025-06-22T09:12:28Z</time>
      </trkpt>
      <trkpt lat="48.97603" lon="7.26967">
        <ele>356</ele>
        <time>2025-06-22T09:12:30Z</time>
      </trkpt>
      <trkpt lat="48.97603" lon="7.2697">
        <ele>356</ele>
        <time>2025-06-22T09:12:37Z</time>
      </trkpt>
      <trkpt lat="48.97606" lon="7.26966">
        <ele>356</ele>
        <time>2025-06-22T09:12:44Z</time>
      </trkpt>
      <trkpt lat="48.97607" lon="7.26962">
        <ele>356</ele>
        <time>2025-06-22T09:12:45Z</time>
      </trkpt>
      <trkpt lat="48.97608" lon="7.26959">
        <ele>356</ele>
        <time>2025-06-22T09:12:46Z</time>
      </trkpt>
      <trkpt lat="48.97609" lon="7.26955">
        <ele>356</ele>
        <time>2025-06-22T09:12:47Z</time>
      </trkpt>
      <trkpt lat="48.9761" lon="7.26952">
        <ele>356</ele>
        <time>2025-06-22T09:12:48Z</time>
      </trkpt>
      <trkpt lat="48.97611" lon="7.26948">
        <ele>356</ele>
        <time>2025-06-22T09:12:49Z</time>
      </trkpt>
      <trkpt lat="48.97614" lon="7.26942">
        <ele>356</ele>
        <time>2025-06-22T09:12:51Z</time>
      </trkpt>
      <trkpt lat="48.97621" lon="7.26931">
        <ele>356</ele>
        <time>2025-06-22T09:12:55Z</time>
      </trkpt>
      <trkpt lat="48.97629" lon="7.26917">
        <ele>355</ele>
        <time>2025-06-22T09:12:58Z</time>
      </trkpt>
      <trkpt lat="48.97635" lon="7.26906">
        <ele>355</ele>
        <time>2025-06-22T09:13:01Z</time>
      </trkpt>
      <trkpt lat="48.97642" lon="7.26897">
        <ele>355</ele>
        <time>2025-06-22T09:13:04Z</time>
      </trkpt>
      <trkpt lat="48.9765" lon="7.26884">
        <ele>355</ele>
        <time>2025-06-22T09:13:07Z</time>
      </trkpt>
      <trkpt lat="48.97657" lon="7.26869">
        <ele>355</ele>
        <time>2025-06-22T09:13:10Z</time>
      </trkpt>
      <trkpt lat="48.97663" lon="7.26856">
        <ele>354</ele>
        <time>2025-06-22T09:13:12Z</time>
      </trkpt>
      <trkpt lat="48.97673" lon="7.26845">
        <ele>353</ele>
        <time>2025-06-22T09:13:14Z</time>
      </trkpt>
      <trkpt lat="48.97682" lon="7.26833">
        <ele>353</ele>
        <time>2025-06-22T09:13:16Z</time>
      </trkpt>
      <trkpt lat="48.97689" lon="7.26821">
        <ele>353</ele>
        <time>2025-06-22T09:13:18Z</time>
      </trkpt>
      <trkpt lat="48.97697" lon="7.26809">
        <ele>353</ele>
        <time>2025-06-22T09:13:20Z</time>
      </trkpt>
      <trkpt lat="48.97704" lon="7.26796">
        <ele>352</ele>
        <time>2025-06-22T09:13:22Z</time>
      </trkpt>
      <trkpt lat="48.9771" lon="7.26779">
        <ele>351</ele>
        <time>2025-06-22T09:13:24Z</time>
      </trkpt>
      <trkpt lat="48.97718" lon="7.26763">
        <ele>351</ele>
        <time>2025-06-22T09:13:26Z</time>
      </trkpt>
      <trkpt lat="48.97726" lon="7.26749">
        <ele>351</ele>
        <time>2025-06-22T09:13:28Z</time>
      </trkpt>
      <trkpt lat="48.97736" lon="7.26735">
        <ele>350</ele>
        <time>2025-06-22T09:13:30Z</time>
      </trkpt>
      <trkpt lat="48.97745" lon="7.26719">
        <ele>350</ele>
        <time>2025-06-22T09:13:32Z</time>
      </trkpt>
      <trkpt lat="48.97753" lon="7.26705">
        <ele>350</ele>
        <time>2025-06-22T09:13:34Z</time>
      </trkpt>
      <trkpt lat="48.97759" lon="7.26691">
        <ele>349</ele>
        <time>2025-06-22T09:13:36Z</time>
      </trkpt>
      <trkpt lat="48.97766" lon="7.26676">
        <ele>348</ele>
        <time>2025-06-22T09:13:38Z</time>
      </trkpt>
      <trkpt lat="48.97774" lon="7.26662">
        <ele>347</ele>
        <time>2025-06-22T09:13:40Z</time>
      </trkpt>
      <trkpt lat="48.97783" lon="7.26647">
        <ele>347</ele>
        <time>2025-06-22T09:13:42Z</time>
      </trkpt>
      <trkpt lat="48.97792" lon="7.2663">
        <ele>345</ele>
        <time>2025-06-22T09:13:44Z</time>
      </trkpt>
      <trkpt lat="48.97802" lon="7.26614">
        <ele>345</ele>
        <time>2025-06-22T09:13:46Z</time>
      </trkpt>
      <trkpt lat="48.97812" lon="7.26599">
        <ele>345</ele>
        <time>2025-06-22T09:13:48Z</time>
      </trkpt>
      <trkpt lat="48.97822" lon="7.26584">
        <ele>345</ele>
        <time>2025-06-22T09:13:50Z</time>
      </trkpt>
      <trkpt lat="48.97833" lon="7.26569">
        <ele>345</ele>
        <time>2025-06-22T09:13:52Z</time>
      </trkpt>
      <trkpt lat="48.97843" lon="7.26553">
        <ele>343</ele>
        <time>2025-06-22T09:13:54Z</time>
      </trkpt>
      <trkpt lat="48.97852" lon="7.26537">
        <ele>343</ele>
        <time>2025-06-22T09:13:56Z</time>
      </trkpt>
      <trkpt lat="48.9786" lon="7.26522">
        <ele>343</ele>
        <time>2025-06-22T09:13:58Z</time>
      </trkpt>
      <trkpt lat="48.9787" lon="7.26504">
        <ele>341</ele>
        <time>2025-06-22T09:14:00Z</time>
      </trkpt>
      <trkpt lat="48.9788" lon="7.26486">
        <ele>341</ele>
        <time>2025-06-22T09:14:02Z</time>
      </trkpt>
      <trkpt lat="48.97891" lon="7.26469">
        <ele>341</ele>
        <time>2025-06-22T09:14:04Z</time>
      </trkpt>
      <trkpt lat="48.97891" lon="7.26451">
        <ele>337</ele>
        <time>2025-06-22T09:14:07Z</time>
      </trkpt>
      <trkpt lat="48.97883" lon="7.26434">
        <ele>337</ele>
        <time>2025-06-22T09:14:10Z</time>
      </trkpt>
      <trkpt lat="48.97878" lon="7.26423">
        <ele>336</ele>
        <time>2025-06-22T09:14:12Z</time>
      </trkpt>
      <trkpt lat="48.97869" lon="7.26406">
        <ele>336</ele>
        <time>2025-06-22T09:14:15Z</time>
      </trkpt>
      <trkpt lat="48.97862" lon="7.26396">
        <ele>336</ele>
        <time>2025-06-22T09:14:17Z</time>
      </trkpt>
      <trkpt lat="48.97854" lon="7.26384">
        <ele>336</ele>
        <time>2025-06-22T09:14:20Z</time>
      </trkpt>
      <trkpt lat="48.97849" lon="7.26372">
        <ele>335</ele>
        <time>2025-06-22T09:14:22Z</time>
      </trkpt>
      <trkpt lat="48.97843" lon="7.26361">
        <ele>335</ele>
        <time>2025-06-22T09:14:24Z</time>
      </trkpt>
      <trkpt lat="48.97838" lon="7.26348">
        <ele>335</ele>
        <time>2025-06-22T09:14:26Z</time>
      </trkpt>
      <trkpt lat="48.97832" lon="7.26335">
        <ele>335</ele>
        <time>2025-06-22T09:14:28Z</time>
      </trkpt>
      <trkpt lat="48.97825" lon="7.26322">
        <ele>335</ele>
        <time>2025-06-22T09:14:30Z</time>
      </trkpt>
      <trkpt lat="48.97816" lon="7.26305">
        <ele>334</ele>
        <time>2025-06-22T09:14:33Z</time>
      </trkpt>
      <trkpt lat="48.97809" lon="7.2629">
        <ele>334</ele>
        <time>2025-06-22T09:14:35Z</time>
      </trkpt>
      <trkpt lat="48.97801" lon="7.26276">
        <ele>333</ele>
        <time>2025-06-22T09:14:37Z</time>
      </trkpt>
      <trkpt lat="48.97794" lon="7.26261">
        <ele>333</ele>
        <time>2025-06-22T09:14:39Z</time>
      </trkpt>
      <trkpt lat="48.97786" lon="7.26245">
        <ele>333</ele>
        <time>2025-06-22T09:14:41Z</time>
      </trkpt>
      <trkpt lat="48.97779" lon="7.26229">
        <ele>333</ele>
        <time>2025-06-22T09:14:43Z</time>
      </trkpt>
      <trkpt lat="48.97772" lon="7.26213">
        <ele>332</ele>
        <time>2025-06-22T09:14:45Z</time>
      </trkpt>
      <trkpt lat="48.97764" lon="7.26198">
        <ele>332</ele>
        <time>2025-06-22T09:14:47Z</time>
      </trkpt>
      <trkpt lat="48.97757" lon="7.26184">
        <ele>331</ele>
        <time>2025-06-22T09:14:49Z</time>
      </trkpt>
      <trkpt lat="48.97752" lon="7.26169">
        <ele>331</ele>
        <time>2025-06-22T09:14:51Z</time>
      </trkpt>
      <trkpt lat="48.97745" lon="7.26151">
        <ele>329</ele>
        <time>2025-06-22T09:14:54Z</time>
      </trkpt>
      <trkpt lat="48.97736" lon="7.26136">
        <ele>328</ele>
        <time>2025-06-22T09:14:56Z</time>
      </trkpt>
      <trkpt lat="48.97727" lon="7.26118">
        <ele>328</ele>
        <time>2025-06-22T09:14:58Z</time>
      </trkpt>
      <trkpt lat="48.97718" lon="7.26103">
        <ele>328</ele>
        <time>2025-06-22T09:15:00Z</time>
      </trkpt>
      <trkpt lat="48.97711" lon="7.26089">
        <ele>328</ele>
        <time>2025-06-22T09:15:02Z</time>
      </trkpt>
      <trkpt lat="48.97701" lon="7.26073">
        <ele>327</ele>
        <time>2025-06-22T09:15:04Z</time>
      </trkpt>
      <trkpt lat="48.97691" lon="7.26056">
        <ele>327</ele>
        <time>2025-06-22T09:15:06Z</time>
      </trkpt>
      <trkpt lat="48.97682" lon="7.2604">
        <ele>326</ele>
        <time>2025-06-22T09:15:08Z</time>
      </trkpt>
      <trkpt lat="48.97676" lon="7.26022">
        <ele>324</ele>
        <time>2025-06-22T09:15:10Z</time>
      </trkpt>
      <trkpt lat="48.97677" lon="7.26005">
        <ele>323</ele>
        <time>2025-06-22T09:15:12Z</time>
      </trkpt>
      <trkpt lat="48.97678" lon="7.25998">
        <ele>322</ele>
        <time>2025-06-22T09:15:13Z</time>
      </trkpt>
      <trkpt lat="48.97681" lon="7.25982">
        <ele>322</ele>
        <time>2025-06-22T09:15:15Z</time>
      </trkpt>
      <trkpt lat="48.97686" lon="7.25968">
        <ele>321</ele>
        <time>2025-06-22T09:15:17Z</time>
      </trkpt>
      <trkpt lat="48.97694" lon="7.25955">
        <ele>321</ele>
        <time>2025-06-22T09:15:19Z</time>
      </trkpt>
      <trkpt lat="48.97702" lon="7.25942">
        <ele>321</ele>
        <time>2025-06-22T09:15:21Z</time>
      </trkpt>
      <trkpt lat="48.97713" lon="7.25928">
        <ele>321</ele>
        <time>2025-06-22T09:15:23Z</time>
      </trkpt>
      <trkpt lat="48.97726" lon="7.25914">
        <ele>321</ele>
        <time>2025-06-22T09:15:25Z</time>
      </trkpt>
      <trkpt lat="48.97737" lon="7.25899">
        <ele>320</ele>
        <time>2025-06-22T09:15:27Z</time>
      </trkpt>
      <trkpt lat="48.97748" lon="7.25886">
        <ele>320</ele>
        <time>2025-06-22T09:15:29Z</time>
      </trkpt>
      <trkpt lat="48.97755" lon="7.25873">
        <ele>319</ele>
        <time>2025-06-22T09:15:31Z</time>
      </trkpt>
      <trkpt lat="48.97763" lon="7.2586">
        <ele>318</ele>
        <time>2025-06-22T09:15:33Z</time>
      </trkpt>
      <trkpt lat="48.97771" lon="7.25846">
        <ele>317</ele>
        <time>2025-06-22T09:15:35Z</time>
      </trkpt>
      <trkpt lat="48.9778" lon="7.25832">
        <ele>317</ele>
        <time>2025-06-22T09:15:37Z</time>
      </trkpt>
      <trkpt lat="48.97787" lon="7.25818">
        <ele>317</ele>
        <time>2025-06-22T09:15:39Z</time>
      </trkpt>
      <trkpt lat="48.97794" lon="7.25804">
        <ele>317</ele>
        <time>2025-06-22T09:15:41Z</time>
      </trkpt>
      <trkpt lat="48.97803" lon="7.25789">
        <ele>316</ele>
        <time>2025-06-22T09:15:43Z</time>
      </trkpt>
      <trkpt lat="48.97813" lon="7.25772">
        <ele>316</ele>
        <time>2025-06-22T09:15:45Z</time>
      </trkpt>
      <trkpt lat="48.97829" lon="7.2576">
        <ele>315</ele>
        <time>2025-06-22T09:15:47Z</time>
      </trkpt>
      <trkpt lat="48.97844" lon="7.25754">
        <ele>314</ele>
        <time>2025-06-22T09:15:49Z</time>
      </trkpt>
      <trkpt lat="48.9786" lon="7.2575">
        <ele>314</ele>
        <time>2025-06-22T09:15:51Z</time>
      </trkpt>
      <trkpt lat="48.97875" lon="7.2574">
        <ele>311</ele>
        <time>2025-06-22T09:15:53Z</time>
      </trkpt>
      <trkpt lat="48.97888" lon="7.25731">
        <ele>310</ele>
        <time>2025-06-22T09:15:55Z</time>
      </trkpt>
      <trkpt lat="48.97902" lon="7.25722">
        <ele>309</ele>
        <time>2025-06-22T09:15:57Z</time>
      </trkpt>
      <trkpt lat="48.97914" lon="7.25713">
        <ele>309</ele>
        <time>2025-06-22T09:15:59Z</time>
      </trkpt>
      <trkpt lat="48.97928" lon="7.25705">
        <ele>305</ele>
        <time>2025-06-22T09:16:01Z</time>
      </trkpt>
      <trkpt lat="48.9794" lon="7.25703">
        <ele>302</ele>
        <time>2025-06-22T09:16:03Z</time>
      </trkpt>
      <trkpt lat="48.97955" lon="7.25706">
        <ele>302</ele>
        <time>2025-06-22T09:16:05Z</time>
      </trkpt>
      <trkpt lat="48.97967" lon="7.25707">
        <ele>296</ele>
        <time>2025-06-22T09:16:07Z</time>
      </trkpt>
      <trkpt lat="48.97974" lon="7.25699">
        <ele>296</ele>
        <time>2025-06-22T09:16:09Z</time>
      </trkpt>
      <trkpt lat="48.97985" lon="7.25698">
        <ele>294</ele>
        <time>2025-06-22T09:16:12Z</time>
      </trkpt>
      <trkpt lat="48.97995" lon="7.25707">
        <ele>291</ele>
        <time>2025-06-22T09:16:15Z</time>
      </trkpt>
      <trkpt lat="48.97998" lon="7.25706">
        <ele>290</ele>
        <time>2025-06-22T09:16:29Z</time>
      </trkpt>
      <trkpt lat="48.97999" lon="7.25702">
        <ele>290</ele>
        <time>2025-06-22T09:16:31Z</time>
      </trkpt>
      <trkpt lat="48.97998" lon="7.25698">
        <ele>291</ele>
        <time>2025-06-22T09:16:33Z</time>
      </trkpt>
      <trkpt lat="48.97997" lon="7.25695">
        <ele>292</ele>
        <time>2025-06-22T09:16:35Z</time>
      </trkpt>
      <trkpt lat="48.97997" lon="7.25691">
        <ele>293</ele>
        <time>2025-06-22T09:16:38Z</time>
      </trkpt>
      <trkpt lat="48.97998" lon="7.25687">
        <ele>293</ele>
        <time>2025-06-22T09:16:41Z</time>
      </trkpt>
      <trkpt lat="48.98" lon="7.25673">
        <ele>293</ele>
        <time>2025-06-22T09:16:45Z</time>
      </trkpt>
      <trkpt lat="48.97999" lon="7.25668">
        <ele>293</ele>
        <time>2025-06-22T09:16:46Z</time>
      </trkpt>
      <trkpt lat="48.97997" lon="7.25662">
        <ele>293</ele>
        <time>2025-06-22T09:16:47Z</time>
      </trkpt>
      <trkpt lat="48.97995" lon="7.25657">
        <ele>293</ele>
        <time>2025-06-22T09:16:48Z</time>
      </trkpt>
      <trkpt lat="48.97987" lon="7.25635">
        <ele>293</ele>
        <time>2025-06-22T09:16:51Z</time>
      </trkpt>
      <trkpt lat="48.97981" lon="7.25611">
        <ele>289</ele>
        <time>2025-06-22T09:16:53Z</time>
      </trkpt>
      <trkpt lat="48.97977" lon="7.25586">
        <ele>287</ele>
        <time>2025-06-22T09:16:55Z</time>
      </trkpt>
      <trkpt lat="48.97972" lon="7.25571">
        <ele>285</ele>
        <time>2025-06-22T09:16:57Z</time>
      </trkpt>
      <trkpt lat="48.97967" lon="7.25558">
        <ele>285</ele>
        <time>2025-06-22T09:17:01Z</time>
      </trkpt>
      <trkpt lat="48.97964" lon="7.25544">
        <ele>281</ele>
        <time>2025-06-22T09:17:05Z</time>
      </trkpt>
      <trkpt lat="48.97964" lon="7.25528">
        <ele>281</ele>
        <time>2025-06-22T09:17:08Z</time>
      </trkpt>
      <trkpt lat="48.97964" lon="7.25512">
        <ele>280</ele>
        <time>2025-06-22T09:17:10Z</time>
      </trkpt>
      <trkpt lat="48.97964" lon="7.25492">
        <ele>279</ele>
        <time>2025-06-22T09:17:12Z</time>
      </trkpt>
      <trkpt lat="48.97964" lon="7.25472">
        <ele>279</ele>
        <time>2025-06-22T09:17:14Z</time>
      </trkpt>
      <trkpt lat="48.97963" lon="7.25454">
        <ele>279</ele>
        <time>2025-06-22T09:17:16Z</time>
      </trkpt>
      <trkpt lat="48.97961" lon="7.25434">
        <ele>278</ele>
        <time>2025-06-22T09:17:18Z</time>
      </trkpt>
      <trkpt lat="48.97961" lon="7.25415">
        <ele>278</ele>
        <time>2025-06-22T09:17:20Z</time>
      </trkpt>
      <trkpt lat="48.9796" lon="7.25393">
        <ele>278</ele>
        <time>2025-06-22T09:17:22Z</time>
      </trkpt>
      <trkpt lat="48.97962" lon="7.25375">
        <ele>275</ele>
        <time>2025-06-22T09:17:24Z</time>
      </trkpt>
      <trkpt lat="48.97967" lon="7.25362">
        <ele>274</ele>
        <time>2025-06-22T09:17:26Z</time>
      </trkpt>
      <trkpt lat="48.97978" lon="7.25354">
        <ele>274</ele>
        <time>2025-06-22T09:17:29Z</time>
      </trkpt>
      <trkpt lat="48.9799" lon="7.25343">
        <ele>274</ele>
        <time>2025-06-22T09:17:31Z</time>
      </trkpt>
      <trkpt lat="48.98001" lon="7.25334">
        <ele>273</ele>
        <time>2025-06-22T09:17:33Z</time>
      </trkpt>
      <trkpt lat="48.98011" lon="7.25323">
        <ele>272</ele>
        <time>2025-06-22T09:17:35Z</time>
      </trkpt>
      <trkpt lat="48.9802" lon="7.25311">
        <ele>272</ele>
        <time>2025-06-22T09:17:37Z</time>
      </trkpt>
      <trkpt lat="48.98033" lon="7.25298">
        <ele>272</ele>
        <time>2025-06-22T09:17:39Z</time>
      </trkpt>
      <trkpt lat="48.98051" lon="7.25288">
        <ele>269</ele>
        <time>2025-06-22T09:17:41Z</time>
      </trkpt>
      <trkpt lat="48.98059" lon="7.25281">
        <ele>268</ele>
        <time>2025-06-22T09:17:42Z</time>
      </trkpt>
      <trkpt lat="48.98067" lon="7.25274">
        <ele>268</ele>
        <time>2025-06-22T09:17:43Z</time>
      </trkpt>
      <trkpt lat="48.98076" lon="7.25268">
        <ele>267</ele>
        <time>2025-06-22T09:17:44Z</time>
      </trkpt>
      <trkpt lat="48.98085" lon="7.25262">
        <ele>266</ele>
        <time>2025-06-22T09:17:45Z</time>
      </trkpt>
      <trkpt lat="48.98103" lon="7.25255">
        <ele>265</ele>
        <time>2025-06-22T09:17:47Z</time>
      </trkpt>
      <trkpt lat="48.98112" lon="7.25249">
        <ele>265</ele>
        <time>2025-06-22T09:17:48Z</time>
      </trkpt>
      <trkpt lat="48.9812" lon="7.25239">
        <ele>263</ele>
        <time>2025-06-22T09:17:49Z</time>
      </trkpt>
      <trkpt lat="48.98129" lon="7.25231">
        <ele>262</ele>
        <time>2025-06-22T09:17:50Z</time>
      </trkpt>
      <trkpt lat="48.98139" lon="7.25225">
        <ele>261</ele>
        <time>2025-06-22T09:17:51Z</time>
      </trkpt>
      <trkpt lat="48.98149" lon="7.25217">
        <ele>261</ele>
        <time>2025-06-22T09:17:52Z</time>
      </trkpt>
      <trkpt lat="48.98158" lon="7.2521">
        <ele>261</ele>
        <time>2025-06-22T09:17:53Z</time>
      </trkpt>
      <trkpt lat="48.98166" lon="7.25202">
        <ele>259</ele>
        <time>2025-06-22T09:17:54Z</time>
      </trkpt>
      <trkpt lat="48.9818" lon="7.25189">
        <ele>259</ele>
        <time>2025-06-22T09:17:56Z</time>
      </trkpt>
      <trkpt lat="48.98189" lon="7.25182">
        <ele>259</ele>
        <time>2025-06-22T09:17:57Z</time>
      </trkpt>
      <trkpt lat="48.98203" lon="7.25165">
        <ele>259</ele>
        <time>2025-06-22T09:17:59Z</time>
      </trkpt>
      <trkpt lat="48.98214" lon="7.25149">
        <ele>258</ele>
        <time>2025-06-22T09:18:01Z</time>
      </trkpt>
      <trkpt lat="48.98227" lon="7.25136">
        <ele>257</ele>
        <time>2025-06-22T09:18:03Z</time>
      </trkpt>
      <trkpt lat="48.9824" lon="7.25124">
        <ele>257</ele>
        <time>2025-06-22T09:18:05Z</time>
      </trkpt>
      <trkpt lat="48.98252" lon="7.25111">
        <ele>256</ele>
        <time>2025-06-22T09:18:07Z</time>
      </trkpt>
      <trkpt lat="48.98264" lon="7.25101">
        <ele>256</ele>
        <time>2025-06-22T09:18:09Z</time>
      </trkpt>
      <trkpt lat="48.98275" lon="7.25092">
        <ele>255</ele>
        <time>2025-06-22T09:18:11Z</time>
      </trkpt>
      <trkpt lat="48.98285" lon="7.25082">
        <ele>255</ele>
        <time>2025-06-22T09:18:13Z</time>
      </trkpt>
      <trkpt lat="48.98296" lon="7.25074">
        <ele>255</ele>
        <time>2025-06-22T09:18:15Z</time>
      </trkpt>
      <trkpt lat="48.98306" lon="7.25066">
        <ele>255</ele>
        <time>2025-06-22T09:18:17Z</time>
      </trkpt>
      <trkpt lat="48.98317" lon="7.25056">
        <ele>254</ele>
        <time>2025-06-22T09:18:19Z</time>
      </trkpt>
      <trkpt lat="48.98324" lon="7.25046">
        <ele>254</ele>
        <time>2025-06-22T09:18:21Z</time>
      </trkpt>
      <trkpt lat="48.98333" lon="7.25036">
        <ele>253</ele>
        <time>2025-06-22T09:18:23Z</time>
      </trkpt>
      <trkpt lat="48.98342" lon="7.25025">
        <ele>253</ele>
        <time>2025-06-22T09:18:25Z</time>
      </trkpt>
      <trkpt lat="48.9835" lon="7.25015">
        <ele>253</ele>
        <time>2025-06-22T09:18:27Z</time>
      </trkpt>
      <trkpt lat="48.9836" lon="7.25008">
        <ele>253</ele>
        <time>2025-06-22T09:18:29Z</time>
      </trkpt>
      <trkpt lat="48.9837" lon="7.25001">
        <ele>253</ele>
        <time>2025-06-22T09:18:31Z</time>
      </trkpt>
      <trkpt lat="48.98375" lon="7.24998">
        <ele>253</ele>
        <time>2025-06-22T09:18:32Z</time>
      </trkpt>
      <trkpt lat="48.9838" lon="7.24994">
        <ele>253</ele>
        <time>2025-06-22T09:18:33Z</time>
      </trkpt>
      <trkpt lat="48.98384" lon="7.2499">
        <ele>253</ele>
        <time>2025-06-22T09:18:34Z</time>
      </trkpt>
      <trkpt lat="48.98389" lon="7.24986">
        <ele>253</ele>
        <time>2025-06-22T09:18:35Z</time>
      </trkpt>
      <trkpt lat="48.98393" lon="7.24983">
        <ele>253</ele>
        <time>2025-06-22T09:18:36Z</time>
      </trkpt>
      <trkpt lat="48.98397" lon="7.2498">
        <ele>253</ele>
        <time>2025-06-22T09:18:37Z</time>
      </trkpt>
      <trkpt lat="48.98401" lon="7.24976">
        <ele>253</ele>
        <time>2025-06-22T09:18:38Z</time>
      </trkpt>
      <trkpt lat="48.98405" lon="7.24972">
        <ele>253</ele>
        <time>2025-06-22T09:18:39Z</time>
      </trkpt>
      <trkpt lat="48.98407" lon="7.24966">
        <ele>253</ele>
        <time>2025-06-22T09:18:40Z</time>
      </trkpt>
      <trkpt lat="48.98409" lon="7.2496">
        <ele>252</ele>
        <time>2025-06-22T09:18:41Z</time>
      </trkpt>
      <trkpt lat="48.98409" lon="7.24955">
        <ele>252</ele>
        <time>2025-06-22T09:18:42Z</time>
      </trkpt>
      <trkpt lat="48.98407" lon="7.24949">
        <ele>253</ele>
        <time>2025-06-22T09:18:43Z</time>
      </trkpt>
      <trkpt lat="48.984" lon="7.24937">
        <ele>253</ele>
        <time>2025-06-22T09:18:45Z</time>
      </trkpt>
      <trkpt lat="48.98391" lon="7.24925">
        <ele>253</ele>
        <time>2025-06-22T09:18:48Z</time>
      </trkpt>
      <trkpt lat="48.98382" lon="7.24933">
        <ele>253</ele>
        <time>2025-06-22T09:18:53Z</time>
      </trkpt>
      <trkpt lat="48.98372" lon="7.24943">
        <ele>254</ele>
        <time>2025-06-22T09:18:56Z</time>
      </trkpt>
      <trkpt lat="48.98365" lon="7.24952">
        <ele>254</ele>
        <time>2025-06-22T09:18:58Z</time>
      </trkpt>
      <trkpt lat="48.98355" lon="7.24962">
        <ele>255</ele>
        <time>2025-06-22T09:19:01Z</time>
      </trkpt>
      <trkpt lat="48.98347" lon="7.24971">
        <ele>255</ele>
        <time>2025-06-22T09:19:04Z</time>
      </trkpt>
      <trkpt lat="48.9834" lon="7.2498">
        <ele>256</ele>
        <time>2025-06-22T09:19:07Z</time>
      </trkpt>
      <trkpt lat="48.98331" lon="7.24987">
        <ele>256</ele>
        <time>2025-06-22T09:19:10Z</time>
      </trkpt>
      <trkpt lat="48.98322" lon="7.24995">
        <ele>257</ele>
        <time>2025-06-22T09:19:13Z</time>
      </trkpt>
      <trkpt lat="48.98313" lon="7.25002">
        <ele>257</ele>
        <time>2025-06-22T09:19:16Z</time>
      </trkpt>
      <trkpt lat="48.98305" lon="7.25013">
        <ele>258</ele>
        <time>2025-06-22T09:19:19Z</time>
      </trkpt>
      <trkpt lat="48.98296" lon="7.25024">
        <ele>258</ele>
        <time>2025-06-22T09:19:22Z</time>
      </trkpt>
      <trkpt lat="48.98285" lon="7.25034">
        <ele>258</ele>
        <time>2025-06-22T09:19:25Z</time>
      </trkpt>
      <trkpt lat="48.98277" lon="7.2504">
        <ele>258</ele>
        <time>2025-06-22T09:19:27Z</time>
      </trkpt>
      <trkpt lat="48.98268" lon="7.25048">
        <ele>259</ele>
        <time>2025-06-22T09:19:31Z</time>
      </trkpt>
      <trkpt lat="48.98259" lon="7.25055">
        <ele>259</ele>
        <time>2025-06-22T09:19:34Z</time>
      </trkpt>
      <trkpt lat="48.98249" lon="7.25064">
        <ele>259</ele>
        <time>2025-06-22T09:19:38Z</time>
      </trkpt>
      <trkpt lat="48.98241" lon="7.25073">
        <ele>260</ele>
        <time>2025-06-22T09:19:42Z</time>
      </trkpt>
      <trkpt lat="48.98231" lon="7.25081">
        <ele>261</ele>
        <time>2025-06-22T09:19:46Z</time>
      </trkpt>
      <trkpt lat="48.98224" lon="7.25092">
        <ele>262</ele>
        <time>2025-06-22T09:19:50Z</time>
      </trkpt>
      <trkpt lat="48.98217" lon="7.25102">
        <ele>263</ele>
        <time>2025-06-22T09:19:53Z</time>
      </trkpt>
      <trkpt lat="48.98209" lon="7.25115">
        <ele>263</ele>
        <time>2025-06-22T09:19:56Z</time>
      </trkpt>
      <trkpt lat="48.98201" lon="7.25126">
        <ele>263</ele>
        <time>2025-06-22T09:20:00Z</time>
      </trkpt>
      <trkpt lat="48.98192" lon="7.25133">
        <ele>263</ele>
        <time>2025-06-22T09:20:03Z</time>
      </trkpt>
      <trkpt lat="48.98183" lon="7.25138">
        <ele>264</ele>
        <time>2025-06-22T09:20:07Z</time>
      </trkpt>
      <trkpt lat="48.98174" lon="7.25147">
        <ele>264</ele>
        <time>2025-06-22T09:20:10Z</time>
      </trkpt>
      <trkpt lat="48.98165" lon="7.25164">
        <ele>264</ele>
        <time>2025-06-22T09:20:13Z</time>
      </trkpt>
      <trkpt lat="48.98156" lon="7.25176">
        <ele>264</ele>
        <time>2025-06-22T09:20:16Z</time>
      </trkpt>
      <trkpt lat="48.98148" lon="7.25184">
        <ele>264</ele>
        <time>2025-06-22T09:20:19Z</time>
      </trkpt>
      <trkpt lat="48.98138" lon="7.25191">
        <ele>264</ele>
        <time>2025-06-22T09:20:23Z</time>
      </trkpt>
      <trkpt lat="48.98125" lon="7.25195">
        <ele>264</ele>
        <time>2025-06-22T09:20:26Z</time>
      </trkpt>
      <trkpt lat="48.98114" lon="7.25198">
        <ele>265</ele>
        <time>2025-06-22T09:20:29Z</time>
      </trkpt>
      <trkpt lat="48.98102" lon="7.25203">
        <ele>265</ele>
        <time>2025-06-22T09:20:33Z</time>
      </trkpt>
      <trkpt lat="48.98093" lon="7.25213">
        <ele>266</ele>
        <time>2025-06-22T09:20:36Z</time>
      </trkpt>
      <trkpt lat="48.98084" lon="7.25223">
        <ele>266</ele>
        <time>2025-06-22T09:20:41Z</time>
      </trkpt>
      <trkpt lat="48.98074" lon="7.25228">
        <ele>268</ele>
        <time>2025-06-22T09:20:45Z</time>
      </trkpt>
      <trkpt lat="48.98064" lon="7.25233">
        <ele>269</ele>
        <time>2025-06-22T09:20:48Z</time>
      </trkpt>
      <trkpt lat="48.98056" lon="7.25243">
        <ele>269</ele>
        <time>2025-06-22T09:20:52Z</time>
      </trkpt>
      <trkpt lat="48.98047" lon="7.25246">
        <ele>269</ele>
        <time>2025-06-22T09:20:56Z</time>
      </trkpt>
      <trkpt lat="48.98037" lon="7.25251">
        <ele>269</ele>
        <time>2025-06-22T09:21:00Z</time>
      </trkpt>
      <trkpt lat="48.98027" lon="7.25256">
        <ele>272</ele>
        <time>2025-06-22T09:21:04Z</time>
      </trkpt>
      <trkpt lat="48.98018" lon="7.25258">
        <ele>272</ele>
        <time>2025-06-22T09:21:08Z</time>
      </trkpt>
      <trkpt lat="48.98009" lon="7.25266">
        <ele>273</ele>
        <time>2025-06-22T09:21:15Z</time>
      </trkpt>
      <trkpt lat="48.98" lon="7.25275">
        <ele>273</ele>
        <time>2025-06-22T09:21:20Z</time>
      </trkpt>
      <trkpt lat="48.97993" lon="7.25281">
        <ele>273</ele>
        <time>2025-06-22T09:21:23Z</time>
      </trkpt>
      <trkpt lat="48.97984" lon="7.25286">
        <ele>273</ele>
        <time>2025-06-22T09:21:25Z</time>
      </trkpt>
      <trkpt lat="48.97975" lon="7.25292">
        <ele>273</ele>
        <time>2025-06-22T09:21:27Z</time>
      </trkpt>
      <trkpt lat="48.97964" lon="7.25293">
        <ele>272</ele>
        <time>2025-06-22T09:21:29Z</time>
      </trkpt>
      <trkpt lat="48.97955" lon="7.25302">
        <ele>271</ele>
        <time>2025-06-22T09:21:31Z</time>
      </trkpt>
      <trkpt lat="48.97947" lon="7.25312">
        <ele>271</ele>
        <time>2025-06-22T09:21:33Z</time>
      </trkpt>
      <trkpt lat="48.97937" lon="7.25323">
        <ele>272</ele>
        <time>2025-06-22T09:21:36Z</time>
      </trkpt>
      <trkpt lat="48.9793" lon="7.25333">
        <ele>272</ele>
        <time>2025-06-22T09:21:39Z</time>
      </trkpt>
      <trkpt lat="48.97926" lon="7.25348">
        <ele>272</ele>
        <time>2025-06-22T09:21:43Z</time>
      </trkpt>
      <trkpt lat="48.97926" lon="7.25355">
        <ele>273</ele>
        <time>2025-06-22T09:21:45Z</time>
      </trkpt>
      <trkpt lat="48.97926" lon="7.25358">
        <ele>273</ele>
        <time>2025-06-22T09:21:46Z</time>
      </trkpt>
      <trkpt lat="48.97932" lon="7.25366">
        <ele>273</ele>
        <time>2025-06-22T09:21:50Z</time>
      </trkpt>
      <trkpt lat="48.97934" lon="7.25369">
        <ele>273</ele>
        <time>2025-06-22T09:21:51Z</time>
      </trkpt>
      <trkpt lat="48.97942" lon="7.25379">
        <ele>273</ele>
        <time>2025-06-22T09:21:54Z</time>
      </trkpt>
      <trkpt lat="48.97948" lon="7.25396">
        <ele>273</ele>
        <time>2025-06-22T09:21:57Z</time>
      </trkpt>
      <trkpt lat="48.97952" lon="7.25413">
        <ele>273</ele>
        <time>2025-06-22T09:22:00Z</time>
      </trkpt>
      <trkpt lat="48.97952" lon="7.2543">
        <ele>273</ele>
        <time>2025-06-22T09:22:03Z</time>
      </trkpt>
      <trkpt lat="48.97948" lon="7.25443">
        <ele>274</ele>
        <time>2025-06-22T09:22:06Z</time>
      </trkpt>
      <trkpt lat="48.97942" lon="7.25454">
        <ele>274</ele>
        <time>2025-06-22T09:22:09Z</time>
      </trkpt>
      <trkpt lat="48.97938" lon="7.25466">
        <ele>275</ele>
        <time>2025-06-22T09:22:13Z</time>
      </trkpt>
      <trkpt lat="48.97932" lon="7.25482">
        <ele>276</ele>
        <time>2025-06-22T09:22:19Z</time>
      </trkpt>
      <trkpt lat="48.97926" lon="7.25493">
        <ele>276</ele>
        <time>2025-06-22T09:22:23Z</time>
      </trkpt>
      <trkpt lat="48.97919" lon="7.25503">
        <ele>277</ele>
        <time>2025-06-22T09:22:27Z</time>
      </trkpt>
      <trkpt lat="48.97914" lon="7.25515">
        <ele>278</ele>
        <time>2025-06-22T09:22:30Z</time>
      </trkpt>
      <trkpt lat="48.97905" lon="7.25526">
        <ele>280</ele>
        <time>2025-06-22T09:22:34Z</time>
      </trkpt>
      <trkpt lat="48.97897" lon="7.25533">
        <ele>280</ele>
        <time>2025-06-22T09:22:38Z</time>
      </trkpt>
      <trkpt lat="48.97889" lon="7.25541">
        <ele>280</ele>
        <time>2025-06-22T09:22:45Z</time>
      </trkpt>
      <trkpt lat="48.97882" lon="7.25553">
        <ele>283</ele>
        <time>2025-06-22T09:22:51Z</time>
      </trkpt>
      <trkpt lat="48.97872" lon="7.25558">
        <ele>284</ele>
        <time>2025-06-22T09:22:55Z</time>
      </trkpt>
      <trkpt lat="48.97864" lon="7.25564">
        <ele>286</ele>
        <time>2025-06-22T09:22:59Z</time>
      </trkpt>
      <trkpt lat="48.97855" lon="7.25571">
        <ele>287</ele>
        <time>2025-06-22T09:23:03Z</time>
      </trkpt>
      <trkpt lat="48.97846" lon="7.25579">
        <ele>287</ele>
        <time>2025-06-22T09:23:12Z</time>
      </trkpt>
      <trkpt lat="48.97839" lon="7.25586">
        <ele>290</ele>
        <time>2025-06-22T09:23:18Z</time>
      </trkpt>
      <trkpt lat="48.9783" lon="7.25595">
        <ele>292</ele>
        <time>2025-06-22T09:23:24Z</time>
      </trkpt>
      <trkpt lat="48.97823" lon="7.25607">
        <ele>293</ele>
        <time>2025-06-22T09:23:29Z</time>
      </trkpt>
      <trkpt lat="48.97814" lon="7.25615">
        <ele>295</ele>
        <time>2025-06-22T09:23:35Z</time>
      </trkpt>
      <trkpt lat="48.97805" lon="7.25624">
        <ele>295</ele>
        <time>2025-06-22T09:23:40Z</time>
      </trkpt>
      <trkpt lat="48.97801" lon="7.25632">
        <ele>296</ele>
        <time>2025-06-22T09:23:44Z</time>
      </trkpt>
      <trkpt lat="48.97799" lon="7.25637">
        <ele>296</ele>
        <time>2025-06-22T09:23:46Z</time>
      </trkpt>
      <trkpt lat="48.97793" lon="7.25648">
        <ele>296</ele>
        <time>2025-06-22T09:23:52Z</time>
      </trkpt>
      <trkpt lat="48.97787" lon="7.2566">
        <ele>299</ele>
        <time>2025-06-22T09:23:58Z</time>
      </trkpt>
      <trkpt lat="48.97779" lon="7.25669">
        <ele>300</ele>
        <time>2025-06-22T09:24:03Z</time>
      </trkpt>
      <trkpt lat="48.97774" lon="7.25678">
        <ele>300</ele>
        <time>2025-06-22T09:24:06Z</time>
      </trkpt>
      <trkpt lat="48.97772" lon="7.25681">
        <ele>301</ele>
        <time>2025-06-22T09:24:07Z</time>
      </trkpt>
      <trkpt lat="48.9777" lon="7.25683">
        <ele>301</ele>
        <time>2025-06-22T09:24:08Z</time>
      </trkpt>
      <trkpt lat="48.97768" lon="7.25686">
        <ele>302</ele>
        <time>2025-06-22T09:24:09Z</time>
      </trkpt>
      <trkpt lat="48.97761" lon="7.25696">
        <ele>302</ele>
        <time>2025-06-22T09:24:15Z</time>
      </trkpt>
      <trkpt lat="48.97754" lon="7.25706">
        <ele>304</ele>
        <time>2025-06-22T09:24:19Z</time>
      </trkpt>
      <trkpt lat="48.97747" lon="7.25717">
        <ele>304</ele>
        <time>2025-06-22T09:24:23Z</time>
      </trkpt>
      <trkpt lat="48.97739" lon="7.25728">
        <ele>306</ele>
        <time>2025-06-22T09:24:28Z</time>
      </trkpt>
      <trkpt lat="48.97731" lon="7.25736">
        <ele>306</ele>
        <time>2025-06-22T09:24:32Z</time>
      </trkpt>
      <trkpt lat="48.97724" lon="7.25748">
        <ele>308</ele>
        <time>2025-06-22T09:24:36Z</time>
      </trkpt>
      <trkpt lat="48.97715" lon="7.25758">
        <ele>309</ele>
        <time>2025-06-22T09:24:41Z</time>
      </trkpt>
      <trkpt lat="48.97709" lon="7.25769">
        <ele>309</ele>
        <time>2025-06-22T09:24:45Z</time>
      </trkpt>
      <trkpt lat="48.97708" lon="7.25772">
        <ele>310</ele>
        <time>2025-06-22T09:24:46Z</time>
      </trkpt>
      <trkpt lat="48.97706" lon="7.25775">
        <ele>310</ele>
        <time>2025-06-22T09:24:47Z</time>
      </trkpt>
      <trkpt lat="48.97705" lon="7.25778">
        <ele>310</ele>
        <time>2025-06-22T09:24:48Z</time>
      </trkpt>
      <trkpt lat="48.97705" lon="7.25781">
        <ele>310</ele>
        <time>2025-06-22T09:24:49Z</time>
      </trkpt>
      <trkpt lat="48.97703" lon="7.25784">
        <ele>310</ele>
        <time>2025-06-22T09:24:50Z</time>
      </trkpt>
      <trkpt lat="48.97702" lon="7.25786">
        <ele>310</ele>
        <time>2025-06-22T09:24:51Z</time>
      </trkpt>
      <trkpt lat="48.97698" lon="7.2579">
        <ele>310</ele>
        <time>2025-06-22T09:24:52Z</time>
      </trkpt>
      <trkpt lat="48.97697" lon="7.25792">
        <ele>310</ele>
        <time>2025-06-22T09:24:54Z</time>
      </trkpt>
      <trkpt lat="48.97695" lon="7.25794">
        <ele>310</ele>
        <time>2025-06-22T09:24:55Z</time>
      </trkpt>
      <trkpt lat="48.97694" lon="7.25797">
        <ele>310</ele>
        <time>2025-06-22T09:24:56Z</time>
      </trkpt>
      <trkpt lat="48.97687" lon="7.2581">
        <ele>313</ele>
        <time>2025-06-22T09:25:03Z</time>
      </trkpt>
      <trkpt lat="48.97678" lon="7.2582">
        <ele>314</ele>
        <time>2025-06-22T09:25:07Z</time>
      </trkpt>
      <trkpt lat="48.97677" lon="7.25822">
        <ele>314</ele>
        <time>2025-06-22T09:25:08Z</time>
      </trkpt>
      <trkpt lat="48.97671" lon="7.25834">
        <ele>316</ele>
        <time>2025-06-22T09:25:12Z</time>
      </trkpt>
      <trkpt lat="48.97662" lon="7.25844">
        <ele>316</ele>
        <time>2025-06-22T09:25:16Z</time>
      </trkpt>
      <trkpt lat="48.97653" lon="7.25849">
        <ele>317</ele>
        <time>2025-06-22T09:25:21Z</time>
      </trkpt>
      <trkpt lat="48.97644" lon="7.25854">
        <ele>318</ele>
        <time>2025-06-22T09:25:24Z</time>
      </trkpt>
      <trkpt lat="48.97635" lon="7.25859">
        <ele>320</ele>
        <time>2025-06-22T09:25:27Z</time>
      </trkpt>
      <trkpt lat="48.97626" lon="7.25861">
        <ele>321</ele>
        <time>2025-06-22T09:25:33Z</time>
      </trkpt>
      <trkpt lat="48.97616" lon="7.25862">
        <ele>321</ele>
        <time>2025-06-22T09:25:40Z</time>
      </trkpt>
      <trkpt lat="48.97612" lon="7.25863">
        <ele>323</ele>
        <time>2025-06-22T09:25:42Z</time>
      </trkpt>
      <trkpt lat="48.97608" lon="7.25864">
        <ele>323</ele>
        <time>2025-06-22T09:25:44Z</time>
      </trkpt>
      <trkpt lat="48.97604" lon="7.25863">
        <ele>323</ele>
        <time>2025-06-22T09:25:46Z</time>
      </trkpt>
      <trkpt lat="48.97602" lon="7.25861">
        <ele>323</ele>
        <time>2025-06-22T09:25:47Z</time>
      </trkpt>
      <trkpt lat="48.97601" lon="7.25859">
        <ele>323</ele>
        <time>2025-06-22T09:25:48Z</time>
      </trkpt>
      <trkpt lat="48.97598" lon="7.25853">
        <ele>323</ele>
        <time>2025-06-22T09:25:50Z</time>
      </trkpt>
      <trkpt lat="48.97594" lon="7.2584">
        <ele>323</ele>
        <time>2025-06-22T09:25:57Z</time>
      </trkpt>
      <trkpt lat="48.97593" lon="7.25843">
        <ele>323</ele>
        <time>2025-06-22T09:26:11Z</time>
      </trkpt>
      <trkpt lat="48.97591" lon="7.25845">
        <ele>323</ele>
        <time>2025-06-22T09:26:29Z</time>
      </trkpt>
      <trkpt lat="48.97589" lon="7.25848">
        <ele>323</ele>
        <time>2025-06-22T09:26:34Z</time>
      </trkpt>
      <trkpt lat="48.97591" lon="7.25846">
        <ele>323</ele>
        <time>2025-06-22T09:26:37Z</time>
      </trkpt>
      <trkpt lat="48.97598" lon="7.25857">
        <ele>323</ele>
        <time>2025-06-22T09:26:41Z</time>
      </trkpt>
      <trkpt lat="48.97604" lon="7.25864">
        <ele>323</ele>
        <time>2025-06-22T09:26:44Z</time>
      </trkpt>
      <trkpt lat="48.97608" lon="7.25872">
        <ele>323</ele>
        <time>2025-06-22T09:26:52Z</time>
      </trkpt>
      <trkpt lat="48.97602" lon="7.25862">
        <ele>323</ele>
        <time>2025-06-22T09:26:58Z</time>
      </trkpt>
      <trkpt lat="48.97596" lon="7.25849">
        <ele>323</ele>
        <time>2025-06-22T09:27:05Z</time>
      </trkpt>
      <trkpt lat="48.97595" lon="7.25845">
        <ele>323</ele>
        <time>2025-06-22T09:27:10Z</time>
      </trkpt>
      <trkpt lat="48.97594" lon="7.25841">
        <ele>323</ele>
        <time>2025-06-22T09:27:22Z</time>
      </trkpt>
      <trkpt lat="48.97593" lon="7.25838">
        <ele>323</ele>
        <time>2025-06-22T09:27:23Z</time>
      </trkpt>
      <trkpt lat="48.97591" lon="7.25836">
        <ele>323</ele>
        <time>2025-06-22T09:27:24Z</time>
      </trkpt>
      <trkpt lat="48.97589" lon="7.25833">
        <ele>323</ele>
        <time>2025-06-22T09:27:25Z</time>
      </trkpt>
      <trkpt lat="48.97588" lon="7.25831">
        <ele>323</ele>
        <time>2025-06-22T09:27:26Z</time>
      </trkpt>
      <trkpt lat="48.97581" lon="7.2582">
        <ele>323</ele>
        <time>2025-06-22T09:27:32Z</time>
      </trkpt>
      <trkpt lat="48.97579" lon="7.25816">
        <ele>323</ele>
        <time>2025-06-22T09:27:34Z</time>
      </trkpt>
      <trkpt lat="48.97577" lon="7.25812">
        <ele>324</ele>
        <time>2025-06-22T09:27:36Z</time>
      </trkpt>
      <trkpt lat="48.97574" lon="7.25808">
        <ele>324</ele>
        <time>2025-06-22T09:27:38Z</time>
      </trkpt>
      <trkpt lat="48.97572" lon="7.25803">
        <ele>324</ele>
        <time>2025-06-22T09:27:40Z</time>
      </trkpt>
      <trkpt lat="48.97571" lon="7.25799">
        <ele>324</ele>
        <time>2025-06-22T09:27:41Z</time>
      </trkpt>
      <trkpt lat="48.97569" lon="7.25796">
        <ele>325</ele>
        <time>2025-06-22T09:27:42Z</time>
      </trkpt>
      <trkpt lat="48.97567" lon="7.25793">
        <ele>325</ele>
        <time>2025-06-22T09:27:43Z</time>
      </trkpt>
      <trkpt lat="48.97565" lon="7.25789">
        <ele>325</ele>
        <time>2025-06-22T09:27:44Z</time>
      </trkpt>
      <trkpt lat="48.97563" lon="7.25786">
        <ele>325</ele>
        <time>2025-06-22T09:27:45Z</time>
      </trkpt>
      <trkpt lat="48.97562" lon="7.25782">
        <ele>325</ele>
        <time>2025-06-22T09:27:46Z</time>
      </trkpt>
      <trkpt lat="48.97561" lon="7.25779">
        <ele>325</ele>
        <time>2025-06-22T09:27:47Z</time>
      </trkpt>
      <trkpt lat="48.97556" lon="7.2577">
        <ele>325</ele>
        <time>2025-06-22T09:27:50Z</time>
      </trkpt>
      <trkpt lat="48.97555" lon="7.25767">
        <ele>325</ele>
        <time>2025-06-22T09:27:51Z</time>
      </trkpt>
      <trkpt lat="48.97551" lon="7.25759">
        <ele>325</ele>
        <time>2025-06-22T09:27:53Z</time>
      </trkpt>
      <trkpt lat="48.9755" lon="7.25756">
        <ele>325</ele>
        <time>2025-06-22T09:27:54Z</time>
      </trkpt>
      <trkpt lat="48.97549" lon="7.25753">
        <ele>325</ele>
        <time>2025-06-22T09:27:55Z</time>
      </trkpt>
      <trkpt lat="48.97546" lon="7.25749">
        <ele>325</ele>
        <time>2025-06-22T09:27:57Z</time>
      </trkpt>
      <trkpt lat="48.97545" lon="7.25746">
        <ele>325</ele>
        <time>2025-06-22T09:27:58Z</time>
      </trkpt>
      <trkpt lat="48.97543" lon="7.25743">
        <ele>324</ele>
        <time>2025-06-22T09:27:59Z</time>
      </trkpt>
      <trkpt lat="48.97541" lon="7.25739">
        <ele>324</ele>
        <time>2025-06-22T09:28:00Z</time>
      </trkpt>
      <trkpt lat="48.97539" lon="7.25736">
        <ele>324</ele>
        <time>2025-06-22T09:28:01Z</time>
      </trkpt>
      <trkpt lat="48.97538" lon="7.25732">
        <ele>324</ele>
        <time>2025-06-22T09:28:02Z</time>
      </trkpt>
      <trkpt lat="48.97536" lon="7.25728">
        <ele>324</ele>
        <time>2025-06-22T09:28:03Z</time>
      </trkpt>
      <trkpt lat="48.97534" lon="7.25725">
        <ele>324</ele>
        <time>2025-06-22T09:28:04Z</time>
      </trkpt>
      <trkpt lat="48.97532" lon="7.25721">
        <ele>324</ele>
        <time>2025-06-22T09:28:05Z</time>
      </trkpt>
      <trkpt lat="48.9753" lon="7.25717">
        <ele>324</ele>
        <time>2025-06-22T09:28:06Z</time>
      </trkpt>
      <trkpt lat="48.97528" lon="7.25713">
        <ele>324</ele>
        <time>2025-06-22T09:28:07Z</time>
      </trkpt>
      <trkpt lat="48.97526" lon="7.2571">
        <ele>323</ele>
        <time>2025-06-22T09:28:08Z</time>
      </trkpt>
      <trkpt lat="48.97525" lon="7.25706">
        <ele>323</ele>
        <time>2025-06-22T09:28:09Z</time>
      </trkpt>
      <trkpt lat="48.97524" lon="7.25703">
        <ele>323</ele>
        <time>2025-06-22T09:28:10Z</time>
      </trkpt>
      <trkpt lat="48.97522" lon="7.257">
        <ele>323</ele>
        <time>2025-06-22T09:28:11Z</time>
      </trkpt>
      <trkpt lat="48.97514" lon="7.25687">
        <ele>323</ele>
        <time>2025-06-22T09:28:14Z</time>
      </trkpt>
      <trkpt lat="48.97507" lon="7.25668">
        <ele>323</ele>
        <time>2025-06-22T09:28:17Z</time>
      </trkpt>
      <trkpt lat="48.975" lon="7.25654">
        <ele>323</ele>
        <time>2025-06-22T09:28:19Z</time>
      </trkpt>
      <trkpt lat="48.97492" lon="7.25638">
        <ele>323</ele>
        <time>2025-06-22T09:28:21Z</time>
      </trkpt>
      <trkpt lat="48.97487" lon="7.25622">
        <ele>323</ele>
        <time>2025-06-22T09:28:23Z</time>
      </trkpt>
      <trkpt lat="48.9748" lon="7.25608">
        <ele>323</ele>
        <time>2025-06-22T09:28:25Z</time>
      </trkpt>
      <trkpt lat="48.97474" lon="7.25595">
        <ele>322</ele>
        <time>2025-06-22T09:28:27Z</time>
      </trkpt>
      <trkpt lat="48.97468" lon="7.25579">
        <ele>322</ele>
        <time>2025-06-22T09:28:30Z</time>
      </trkpt>
      <trkpt lat="48.97463" lon="7.25564">
        <ele>323</ele>
        <time>2025-06-22T09:28:33Z</time>
      </trkpt>
      <trkpt lat="48.97456" lon="7.25554">
        <ele>323</ele>
        <time>2025-06-22T09:28:35Z</time>
      </trkpt>
      <trkpt lat="48.97448" lon="7.25542">
        <ele>323</ele>
        <time>2025-06-22T09:28:38Z</time>
      </trkpt>
      <trkpt lat="48.9744" lon="7.25529">
        <ele>323</ele>
        <time>2025-06-22T09:28:41Z</time>
      </trkpt>
      <trkpt lat="48.97434" lon="7.25514">
        <ele>323</ele>
        <time>2025-06-22T09:28:44Z</time>
      </trkpt>
      <trkpt lat="48.97427" lon="7.255">
        <ele>323</ele>
        <time>2025-06-22T09:28:47Z</time>
      </trkpt>
      <trkpt lat="48.97421" lon="7.25487">
        <ele>324</ele>
        <time>2025-06-22T09:28:50Z</time>
      </trkpt>
      <trkpt lat="48.97416" lon="7.25475">
        <ele>324</ele>
        <time>2025-06-22T09:28:53Z</time>
      </trkpt>
      <trkpt lat="48.97406" lon="7.25471">
        <ele>324</ele>
        <time>2025-06-22T09:28:56Z</time>
      </trkpt>
      <trkpt lat="48.97398" lon="7.25479">
        <ele>325</ele>
        <time>2025-06-22T09:28:59Z</time>
      </trkpt>
      <trkpt lat="48.97393" lon="7.25485">
        <ele>325</ele>
        <time>2025-06-22T09:29:01Z</time>
      </trkpt>
      <trkpt lat="48.97391" lon="7.25489">
        <ele>325</ele>
        <time>2025-06-22T09:29:02Z</time>
      </trkpt>
      <trkpt lat="48.97388" lon="7.25492">
        <ele>325</ele>
        <time>2025-06-22T09:29:03Z</time>
      </trkpt>
      <trkpt lat="48.97386" lon="7.25495">
        <ele>325</ele>
        <time>2025-06-22T09:29:04Z</time>
      </trkpt>
      <trkpt lat="48.97384" lon="7.25498">
        <ele>326</ele>
        <time>2025-06-22T09:29:05Z</time>
      </trkpt>
      <trkpt lat="48.97382" lon="7.255">
        <ele>326</ele>
        <time>2025-06-22T09:29:06Z</time>
      </trkpt>
      <trkpt lat="48.9738" lon="7.25503">
        <ele>326</ele>
        <time>2025-06-22T09:29:07Z</time>
      </trkpt>
      <trkpt lat="48.97378" lon="7.25505">
        <ele>326</ele>
        <time>2025-06-22T09:29:08Z</time>
      </trkpt>
      <trkpt lat="48.97377" lon="7.25508">
        <ele>326</ele>
        <time>2025-06-22T09:29:09Z</time>
      </trkpt>
      <trkpt lat="48.97375" lon="7.2551">
        <ele>326</ele>
        <time>2025-06-22T09:29:10Z</time>
      </trkpt>
      <trkpt lat="48.97374" lon="7.25513">
        <ele>326</ele>
        <time>2025-06-22T09:29:11Z</time>
      </trkpt>
      <trkpt lat="48.97367" lon="7.25525">
        <ele>326</ele>
        <time>2025-06-22T09:29:16Z</time>
      </trkpt>
      <trkpt lat="48.97364" lon="7.25529">
        <ele>328</ele>
        <time>2025-06-22T09:29:18Z</time>
      </trkpt>
      <trkpt lat="48.97362" lon="7.25534">
        <ele>328</ele>
        <time>2025-06-22T09:29:19Z</time>
      </trkpt>
      <trkpt lat="48.97361" lon="7.25536">
        <ele>328</ele>
        <time>2025-06-22T09:29:21Z</time>
      </trkpt>
      <trkpt lat="48.9736" lon="7.25539">
        <ele>328</ele>
        <time>2025-06-22T09:29:22Z</time>
      </trkpt>
      <trkpt lat="48.97358" lon="7.25541">
        <ele>329</ele>
        <time>2025-06-22T09:29:23Z</time>
      </trkpt>
      <trkpt lat="48.97357" lon="7.25543">
        <ele>329</ele>
        <time>2025-06-22T09:29:24Z</time>
      </trkpt>
      <trkpt lat="48.97355" lon="7.25545">
        <ele>329</ele>
        <time>2025-06-22T09:29:25Z</time>
      </trkpt>
      <trkpt lat="48.97353" lon="7.25547">
        <ele>330</ele>
        <time>2025-06-22T09:29:26Z</time>
      </trkpt>
      <trkpt lat="48.97351" lon="7.25552">
        <ele>330</ele>
        <time>2025-06-22T09:29:28Z</time>
      </trkpt>
      <trkpt lat="48.97349" lon="7.25554">
        <ele>330</ele>
        <time>2025-06-22T09:29:29Z</time>
      </trkpt>
      <trkpt lat="48.97348" lon="7.25556">
        <ele>330</ele>
        <time>2025-06-22T09:29:30Z</time>
      </trkpt>
      <trkpt lat="48.97347" lon="7.25558">
        <ele>330</ele>
        <time>2025-06-22T09:29:31Z</time>
      </trkpt>
      <trkpt lat="48.97345" lon="7.25561">
        <ele>330</ele>
        <time>2025-06-22T09:29:32Z</time>
      </trkpt>
      <trkpt lat="48.97343" lon="7.25563">
        <ele>330</ele>
        <time>2025-06-22T09:29:33Z</time>
      </trkpt>
      <trkpt lat="48.97342" lon="7.25565">
        <ele>330</ele>
        <time>2025-06-22T09:29:34Z</time>
      </trkpt>
      <trkpt lat="48.9734" lon="7.25568">
        <ele>330</ele>
        <time>2025-06-22T09:29:35Z</time>
      </trkpt>
      <trkpt lat="48.97339" lon="7.2557">
        <ele>330</ele>
        <time>2025-06-22T09:29:36Z</time>
      </trkpt>
      <trkpt lat="48.97337" lon="7.25572">
        <ele>331</ele>
        <time>2025-06-22T09:29:37Z</time>
      </trkpt>
      <trkpt lat="48.97335" lon="7.25574">
        <ele>331</ele>
        <time>2025-06-22T09:29:38Z</time>
      </trkpt>
      <trkpt lat="48.97334" lon="7.25576">
        <ele>331</ele>
        <time>2025-06-22T09:29:39Z</time>
      </trkpt>
      <trkpt lat="48.9733" lon="7.25583">
        <ele>331</ele>
        <time>2025-06-22T09:29:42Z</time>
      </trkpt>
      <trkpt lat="48.97328" lon="7.25586">
        <ele>331</ele>
        <time>2025-06-22T09:29:43Z</time>
      </trkpt>
      <trkpt lat="48.97326" lon="7.25588">
        <ele>331</ele>
        <time>2025-06-22T09:29:44Z</time>
      </trkpt>
      <trkpt lat="48.97324" lon="7.25591">
        <ele>331</ele>
        <time>2025-06-22T09:29:45Z</time>
      </trkpt>
      <trkpt lat="48.97323" lon="7.25593">
        <ele>331</ele>
        <time>2025-06-22T09:29:46Z</time>
      </trkpt>
      <trkpt lat="48.97322" lon="7.25596">
        <ele>331</ele>
        <time>2025-06-22T09:29:47Z</time>
      </trkpt>
      <trkpt lat="48.97319" lon="7.25599">
        <ele>331</ele>
        <time>2025-06-22T09:29:49Z</time>
      </trkpt>
      <trkpt lat="48.97316" lon="7.25602">
        <ele>332</ele>
        <time>2025-06-22T09:29:51Z</time>
      </trkpt>
      <trkpt lat="48.97315" lon="7.25604">
        <ele>332</ele>
        <time>2025-06-22T09:29:52Z</time>
      </trkpt>
      <trkpt lat="48.97313" lon="7.25606">
        <ele>332</ele>
        <time>2025-06-22T09:29:53Z</time>
      </trkpt>
      <trkpt lat="48.97311" lon="7.25608">
        <ele>333</ele>
        <time>2025-06-22T09:29:54Z</time>
      </trkpt>
      <trkpt lat="48.9731" lon="7.2561">
        <ele>333</ele>
        <time>2025-06-22T09:29:55Z</time>
      </trkpt>
      <trkpt lat="48.97308" lon="7.25612">
        <ele>333</ele>
        <time>2025-06-22T09:29:56Z</time>
      </trkpt>
      <trkpt lat="48.97307" lon="7.25614">
        <ele>333</ele>
        <time>2025-06-22T09:29:57Z</time>
      </trkpt>
      <trkpt lat="48.97305" lon="7.25616">
        <ele>333</ele>
        <time>2025-06-22T09:29:58Z</time>
      </trkpt>
      <trkpt lat="48.97304" lon="7.25617">
        <ele>333</ele>
        <time>2025-06-22T09:29:59Z</time>
      </trkpt>
      <trkpt lat="48.97302" lon="7.25619">
        <ele>333</ele>
        <time>2025-06-22T09:30:00Z</time>
      </trkpt>
      <trkpt lat="48.97301" lon="7.25621">
        <ele>333</ele>
        <time>2025-06-22T09:30:01Z</time>
      </trkpt>
      <trkpt lat="48.97299" lon="7.25623">
        <ele>333</ele>
        <time>2025-06-22T09:30:02Z</time>
      </trkpt>
      <trkpt lat="48.97298" lon="7.25625">
        <ele>334</ele>
        <time>2025-06-22T09:30:03Z</time>
      </trkpt>
      <trkpt lat="48.97296" lon="7.25627">
        <ele>334</ele>
        <time>2025-06-22T09:30:04Z</time>
      </trkpt>
      <trkpt lat="48.97295" lon="7.25628">
        <ele>334</ele>
        <time>2025-06-22T09:30:05Z</time>
      </trkpt>
      <trkpt lat="48.97294" lon="7.25631">
        <ele>334</ele>
        <time>2025-06-22T09:30:06Z</time>
      </trkpt>
      <trkpt lat="48.97292" lon="7.25633">
        <ele>334</ele>
        <time>2025-06-22T09:30:07Z</time>
      </trkpt>
      <trkpt lat="48.97291" lon="7.25636">
        <ele>334</ele>
        <time>2025-06-22T09:30:08Z</time>
      </trkpt>
      <trkpt lat="48.9729" lon="7.25638">
        <ele>334</ele>
        <time>2025-06-22T09:30:09Z</time>
      </trkpt>
      <trkpt lat="48.97288" lon="7.2564">
        <ele>334</ele>
        <time>2025-06-22T09:30:10Z</time>
      </trkpt>
      <trkpt lat="48.97286" lon="7.25642">
        <ele>334</ele>
        <time>2025-06-22T09:30:11Z</time>
      </trkpt>
      <trkpt lat="48.97285" lon="7.25644">
        <ele>335</ele>
        <time>2025-06-22T09:30:12Z</time>
      </trkpt>
      <trkpt lat="48.97284" lon="7.25646">
        <ele>335</ele>
        <time>2025-06-22T09:30:13Z</time>
      </trkpt>
      <trkpt lat="48.97283" lon="7.25648">
        <ele>335</ele>
        <time>2025-06-22T09:30:14Z</time>
      </trkpt>
      <trkpt lat="48.97281" lon="7.25649">
        <ele>335</ele>
        <time>2025-06-22T09:30:15Z</time>
      </trkpt>
      <trkpt lat="48.97279" lon="7.25651">
        <ele>335</ele>
        <time>2025-06-22T09:30:16Z</time>
      </trkpt>
      <trkpt lat="48.97278" lon="7.25654">
        <ele>335</ele>
        <time>2025-06-22T09:30:17Z</time>
      </trkpt>
      <trkpt lat="48.97276" lon="7.25656">
        <ele>336</ele>
        <time>2025-06-22T09:30:18Z</time>
      </trkpt>
      <trkpt lat="48.97275" lon="7.25658">
        <ele>336</ele>
        <time>2025-06-22T09:30:19Z</time>
      </trkpt>
      <trkpt lat="48.97273" lon="7.2566">
        <ele>336</ele>
        <time>2025-06-22T09:30:20Z</time>
      </trkpt>
      <trkpt lat="48.97272" lon="7.25662">
        <ele>336</ele>
        <time>2025-06-22T09:30:21Z</time>
      </trkpt>
      <trkpt lat="48.97271" lon="7.25664">
        <ele>336</ele>
        <time>2025-06-22T09:30:22Z</time>
      </trkpt>
      <trkpt lat="48.9727" lon="7.25666">
        <ele>336</ele>
        <time>2025-06-22T09:30:23Z</time>
      </trkpt>
      <trkpt lat="48.97268" lon="7.25669">
        <ele>336</ele>
        <time>2025-06-22T09:30:24Z</time>
      </trkpt>
      <trkpt lat="48.97267" lon="7.25671">
        <ele>336</ele>
        <time>2025-06-22T09:30:25Z</time>
      </trkpt>
      <trkpt lat="48.97266" lon="7.25673">
        <ele>336</ele>
        <time>2025-06-22T09:30:26Z</time>
      </trkpt>
      <trkpt lat="48.97264" lon="7.25675">
        <ele>337</ele>
        <time>2025-06-22T09:30:27Z</time>
      </trkpt>
      <trkpt lat="48.97263" lon="7.25677">
        <ele>337</ele>
        <time>2025-06-22T09:30:28Z</time>
      </trkpt>
      <trkpt lat="48.9726" lon="7.25681">
        <ele>337</ele>
        <time>2025-06-22T09:30:30Z</time>
      </trkpt>
      <trkpt lat="48.97258" lon="7.25684">
        <ele>337</ele>
        <time>2025-06-22T09:30:32Z</time>
      </trkpt>
      <trkpt lat="48.97255" lon="7.25688">
        <ele>337</ele>
        <time>2025-06-22T09:30:34Z</time>
      </trkpt>
      <trkpt lat="48.97253" lon="7.25689">
        <ele>337</ele>
        <time>2025-06-22T09:30:35Z</time>
      </trkpt>
      <trkpt lat="48.97252" lon="7.25691">
        <ele>338</ele>
        <time>2025-06-22T09:30:36Z</time>
      </trkpt>
      <trkpt lat="48.9725" lon="7.25693">
        <ele>338</ele>
        <time>2025-06-22T09:30:37Z</time>
      </trkpt>
      <trkpt lat="48.97249" lon="7.25695">
        <ele>338</ele>
        <time>2025-06-22T09:30:38Z</time>
      </trkpt>
      <trkpt lat="48.97247" lon="7.25697">
        <ele>338</ele>
        <time>2025-06-22T09:30:39Z</time>
      </trkpt>
      <trkpt lat="48.97246" lon="7.25698">
        <ele>338</ele>
        <time>2025-06-22T09:30:40Z</time>
      </trkpt>
      <trkpt lat="48.97243" lon="7.25702">
        <ele>338</ele>
        <time>2025-06-22T09:30:42Z</time>
      </trkpt>
      <trkpt lat="48.97241" lon="7.25703">
        <ele>338</ele>
        <time>2025-06-22T09:30:43Z</time>
      </trkpt>
      <trkpt lat="48.97239" lon="7.25706">
        <ele>339</ele>
        <time>2025-06-22T09:30:45Z</time>
      </trkpt>
      <trkpt lat="48.97236" lon="7.2571">
        <ele>339</ele>
        <time>2025-06-22T09:30:47Z</time>
      </trkpt>
      <trkpt lat="48.97235" lon="7.25712">
        <ele>339</ele>
        <time>2025-06-22T09:30:48Z</time>
      </trkpt>
      <trkpt lat="48.97233" lon="7.25714">
        <ele>339</ele>
        <time>2025-06-22T09:30:49Z</time>
      </trkpt>
      <trkpt lat="48.97232" lon="7.25716">
        <ele>339</ele>
        <time>2025-06-22T09:30:50Z</time>
      </trkpt>
      <trkpt lat="48.97231" lon="7.25718">
        <ele>339</ele>
        <time>2025-06-22T09:30:51Z</time>
      </trkpt>
      <trkpt lat="48.97229" lon="7.2572">
        <ele>339</ele>
        <time>2025-06-22T09:30:52Z</time>
      </trkpt>
      <trkpt lat="48.97227" lon="7.25722">
        <ele>339</ele>
        <time>2025-06-22T09:30:53Z</time>
      </trkpt>
      <trkpt lat="48.97223" lon="7.25725">
        <ele>340</ele>
        <time>2025-06-22T09:30:55Z</time>
      </trkpt>
      <trkpt lat="48.97221" lon="7.25728">
        <ele>340</ele>
        <time>2025-06-22T09:30:57Z</time>
      </trkpt>
      <trkpt lat="48.97219" lon="7.25732">
        <ele>341</ele>
        <time>2025-06-22T09:30:59Z</time>
      </trkpt>
      <trkpt lat="48.97217" lon="7.25736">
        <ele>341</ele>
        <time>2025-06-22T09:31:01Z</time>
      </trkpt>
      <trkpt lat="48.97214" lon="7.25739">
        <ele>341</ele>
        <time>2025-06-22T09:31:03Z</time>
      </trkpt>
      <trkpt lat="48.97207" lon="7.25752">
        <ele>342</ele>
        <time>2025-06-22T09:31:07Z</time>
      </trkpt>
      <trkpt lat="48.97205" lon="7.25754">
        <ele>342</ele>
        <time>2025-06-22T09:31:09Z</time>
      </trkpt>
      <trkpt lat="48.97204" lon="7.25756">
        <ele>342</ele>
        <time>2025-06-22T09:31:10Z</time>
      </trkpt>
      <trkpt lat="48.97203" lon="7.25758">
        <ele>342</ele>
        <time>2025-06-22T09:31:11Z</time>
      </trkpt>
      <trkpt lat="48.97201" lon="7.2576">
        <ele>342</ele>
        <time>2025-06-22T09:31:12Z</time>
      </trkpt>
      <trkpt lat="48.97198" lon="7.25764">
        <ele>342</ele>
        <time>2025-06-22T09:31:14Z</time>
      </trkpt>
      <trkpt lat="48.97194" lon="7.25769">
        <ele>343</ele>
        <time>2025-06-22T09:31:17Z</time>
      </trkpt>
      <trkpt lat="48.97191" lon="7.25772">
        <ele>343</ele>
        <time>2025-06-22T09:31:19Z</time>
      </trkpt>
      <trkpt lat="48.97183" lon="7.25779">
        <ele>343</ele>
        <time>2025-06-22T09:31:24Z</time>
      </trkpt>
      <trkpt lat="48.97181" lon="7.25782">
        <ele>343</ele>
        <time>2025-06-22T09:31:26Z</time>
      </trkpt>
      <trkpt lat="48.97178" lon="7.25786">
        <ele>344</ele>
        <time>2025-06-22T09:31:28Z</time>
      </trkpt>
      <trkpt lat="48.97177" lon="7.25788">
        <ele>344</ele>
        <time>2025-06-22T09:31:29Z</time>
      </trkpt>
      <trkpt lat="48.97174" lon="7.25792">
        <ele>344</ele>
        <time>2025-06-22T09:31:31Z</time>
      </trkpt>
      <trkpt lat="48.97173" lon="7.25794">
        <ele>344</ele>
        <time>2025-06-22T09:31:32Z</time>
      </trkpt>
      <trkpt lat="48.97171" lon="7.25796">
        <ele>344</ele>
        <time>2025-06-22T09:31:33Z</time>
      </trkpt>
      <trkpt lat="48.9717" lon="7.25798">
        <ele>345</ele>
        <time>2025-06-22T09:31:34Z</time>
      </trkpt>
      <trkpt lat="48.97168" lon="7.25801">
        <ele>345</ele>
        <time>2025-06-22T09:31:36Z</time>
      </trkpt>
      <trkpt lat="48.97165" lon="7.25804">
        <ele>346</ele>
        <time>2025-06-22T09:31:38Z</time>
      </trkpt>
      <trkpt lat="48.97156" lon="7.25814">
        <ele>346</ele>
        <time>2025-06-22T09:31:44Z</time>
      </trkpt>
      <trkpt lat="48.97153" lon="7.25822">
        <ele>346</ele>
        <time>2025-06-22T09:31:48Z</time>
      </trkpt>
      <trkpt lat="48.97152" lon="7.25824">
        <ele>347</ele>
        <time>2025-06-22T09:31:49Z</time>
      </trkpt>
      <trkpt lat="48.9715" lon="7.25826">
        <ele>347</ele>
        <time>2025-06-22T09:31:50Z</time>
      </trkpt>
      <trkpt lat="48.97149" lon="7.25827">
        <ele>348</ele>
        <time>2025-06-22T09:31:51Z</time>
      </trkpt>
      <trkpt lat="48.97147" lon="7.25832">
        <ele>348</ele>
        <time>2025-06-22T09:31:53Z</time>
      </trkpt>
      <trkpt lat="48.97146" lon="7.25834">
        <ele>348</ele>
        <time>2025-06-22T09:31:54Z</time>
      </trkpt>
      <trkpt lat="48.97145" lon="7.25837">
        <ele>348</ele>
        <time>2025-06-22T09:31:55Z</time>
      </trkpt>
      <trkpt lat="48.97144" lon="7.25839">
        <ele>348</ele>
        <time>2025-06-22T09:31:56Z</time>
      </trkpt>
      <trkpt lat="48.97143" lon="7.25853">
        <ele>348</ele>
        <time>2025-06-22T09:32:00Z</time>
      </trkpt>
      <trkpt lat="48.97144" lon="7.2587">
        <ele>348</ele>
        <time>2025-06-22T09:32:04Z</time>
      </trkpt>
      <trkpt lat="48.97146" lon="7.25887">
        <ele>349</ele>
        <time>2025-06-22T09:32:08Z</time>
      </trkpt>
      <trkpt lat="48.97148" lon="7.25902">
        <ele>349</ele>
        <time>2025-06-22T09:32:12Z</time>
      </trkpt>
      <trkpt lat="48.9715" lon="7.25917">
        <ele>349</ele>
        <time>2025-06-22T09:32:16Z</time>
      </trkpt>
      <trkpt lat="48.97153" lon="7.25933">
        <ele>349</ele>
        <time>2025-06-22T09:32:21Z</time>
      </trkpt>
      <trkpt lat="48.97155" lon="7.2595">
        <ele>350</ele>
        <time>2025-06-22T09:32:25Z</time>
      </trkpt>
      <trkpt lat="48.97158" lon="7.25965">
        <ele>350</ele>
        <time>2025-06-22T09:32:28Z</time>
      </trkpt>
      <trkpt lat="48.9716" lon="7.25979">
        <ele>350</ele>
        <time>2025-06-22T09:32:32Z</time>
      </trkpt>
      <trkpt lat="48.97164" lon="7.25994">
        <ele>351</ele>
        <time>2025-06-22T09:32:36Z</time>
      </trkpt>
      <trkpt lat="48.97164" lon="7.25998">
        <ele>351</ele>
        <time>2025-06-22T09:32:37Z</time>
      </trkpt>
      <trkpt lat="48.97164" lon="7.26001">
        <ele>351</ele>
        <time>2025-06-22T09:32:38Z</time>
      </trkpt>
      <trkpt lat="48.97165" lon="7.26004">
        <ele>351</ele>
        <time>2025-06-22T09:32:39Z</time>
      </trkpt>
      <trkpt lat="48.97165" lon="7.26007">
        <ele>351</ele>
        <time>2025-06-22T09:32:40Z</time>
      </trkpt>
      <trkpt lat="48.97165" lon="7.2601">
        <ele>351</ele>
        <time>2025-06-22T09:32:41Z</time>
      </trkpt>
      <trkpt lat="48.97165" lon="7.26013">
        <ele>351</ele>
        <time>2025-06-22T09:32:42Z</time>
      </trkpt>
      <trkpt lat="48.97165" lon="7.26017">
        <ele>351</ele>
        <time>2025-06-22T09:32:43Z</time>
      </trkpt>
      <trkpt lat="48.97165" lon="7.26021">
        <ele>351</ele>
        <time>2025-06-22T09:32:44Z</time>
      </trkpt>
      <trkpt lat="48.97164" lon="7.26024">
        <ele>351</ele>
        <time>2025-06-22T09:32:45Z</time>
      </trkpt>
      <trkpt lat="48.97164" lon="7.26028">
        <ele>351</ele>
        <time>2025-06-22T09:32:46Z</time>
      </trkpt>
      <trkpt lat="48.97164" lon="7.26032">
        <ele>351</ele>
        <time>2025-06-22T09:32:47Z</time>
      </trkpt>
      <trkpt lat="48.97164" lon="7.26036">
        <ele>351</ele>
        <time>2025-06-22T09:32:48Z</time>
      </trkpt>
      <trkpt lat="48.97164" lon="7.2604">
        <ele>351</ele>
        <time>2025-06-22T09:32:49Z</time>
      </trkpt>
      <trkpt lat="48.97164" lon="7.26045">
        <ele>352</ele>
        <time>2025-06-22T09:32:50Z</time>
      </trkpt>
      <trkpt lat="48.97163" lon="7.26049">
        <ele>352</ele>
        <time>2025-06-22T09:32:51Z</time>
      </trkpt>
      <trkpt lat="48.97163" lon="7.26053">
        <ele>353</ele>
        <time>2025-06-22T09:32:52Z</time>
      </trkpt>
      <trkpt lat="48.97163" lon="7.26058">
        <ele>353</ele>
        <time>2025-06-22T09:32:53Z</time>
      </trkpt>
      <trkpt lat="48.97162" lon="7.26062">
        <ele>353</ele>
        <time>2025-06-22T09:32:54Z</time>
      </trkpt>
      <trkpt lat="48.97162" lon="7.26066">
        <ele>353</ele>
        <time>2025-06-22T09:32:55Z</time>
      </trkpt>
      <trkpt lat="48.97162" lon="7.26071">
        <ele>353</ele>
        <time>2025-06-22T09:32:56Z</time>
      </trkpt>
      <trkpt lat="48.97162" lon="7.26075">
        <ele>353</ele>
        <time>2025-06-22T09:32:57Z</time>
      </trkpt>
      <trkpt lat="48.97162" lon="7.26078">
        <ele>353</ele>
        <time>2025-06-22T09:32:58Z</time>
      </trkpt>
      <trkpt lat="48.97161" lon="7.26083">
        <ele>353</ele>
        <time>2025-06-22T09:33:00Z</time>
      </trkpt>
      <trkpt lat="48.97161" lon="7.26087">
        <ele>354</ele>
        <time>2025-06-22T09:33:02Z</time>
      </trkpt>
      <trkpt lat="48.9716" lon="7.2609">
        <ele>354</ele>
        <time>2025-06-22T09:33:03Z</time>
      </trkpt>
      <trkpt lat="48.97159" lon="7.26094">
        <ele>354</ele>
        <time>2025-06-22T09:33:04Z</time>
      </trkpt>
      <trkpt lat="48.97159" lon="7.26098">
        <ele>354</ele>
        <time>2025-06-22T09:33:05Z</time>
      </trkpt>
      <trkpt lat="48.97158" lon="7.26104">
        <ele>354</ele>
        <time>2025-06-22T09:33:07Z</time>
      </trkpt>
      <trkpt lat="48.97158" lon="7.26107">
        <ele>354</ele>
        <time>2025-06-22T09:33:08Z</time>
      </trkpt>
      <trkpt lat="48.97158" lon="7.2611">
        <ele>354</ele>
        <time>2025-06-22T09:33:09Z</time>
      </trkpt>
      <trkpt lat="48.97158" lon="7.26126">
        <ele>354</ele>
        <time>2025-06-22T09:33:13Z</time>
      </trkpt>
      <trkpt lat="48.97158" lon="7.2613">
        <ele>355</ele>
        <time>2025-06-22T09:33:14Z</time>
      </trkpt>
      <trkpt lat="48.97157" lon="7.26145">
        <ele>355</ele>
        <time>2025-06-22T09:33:18Z</time>
      </trkpt>
      <trkpt lat="48.97158" lon="7.2616">
        <ele>355</ele>
        <time>2025-06-22T09:33:22Z</time>
      </trkpt>
      <trkpt lat="48.97159" lon="7.26177">
        <ele>355</ele>
        <time>2025-06-22T09:33:26Z</time>
      </trkpt>
      <trkpt lat="48.97162" lon="7.26194">
        <ele>356</ele>
        <time>2025-06-22T09:33:30Z</time>
      </trkpt>
      <trkpt lat="48.97165" lon="7.26207">
        <ele>356</ele>
        <time>2025-06-22T09:33:33Z</time>
      </trkpt>
      <trkpt lat="48.97167" lon="7.26224">
        <ele>356</ele>
        <time>2025-06-22T09:33:37Z</time>
      </trkpt>
      <trkpt lat="48.97169" lon="7.26238">
        <ele>357</ele>
        <time>2025-06-22T09:33:40Z</time>
      </trkpt>
      <trkpt lat="48.97172" lon="7.26253">
        <ele>357</ele>
        <time>2025-06-22T09:33:44Z</time>
      </trkpt>
      <trkpt lat="48.97176" lon="7.2627">
        <ele>357</ele>
        <time>2025-06-22T09:33:47Z</time>
      </trkpt>
      <trkpt lat="48.97181" lon="7.26286">
        <ele>358</ele>
        <time>2025-06-22T09:33:50Z</time>
      </trkpt>
      <trkpt lat="48.97183" lon="7.26291">
        <ele>358</ele>
        <time>2025-06-22T09:33:51Z</time>
      </trkpt>
      <trkpt lat="48.97184" lon="7.26296">
        <ele>358</ele>
        <time>2025-06-22T09:33:52Z</time>
      </trkpt>
      <trkpt lat="48.97186" lon="7.26301">
        <ele>358</ele>
        <time>2025-06-22T09:33:53Z</time>
      </trkpt>
      <trkpt lat="48.97187" lon="7.26306">
        <ele>358</ele>
        <time>2025-06-22T09:33:54Z</time>
      </trkpt>
      <trkpt lat="48.97188" lon="7.26311">
        <ele>358</ele>
        <time>2025-06-22T09:33:55Z</time>
      </trkpt>
      <trkpt lat="48.97191" lon="7.26328">
        <ele>358</ele>
        <time>2025-06-22T09:33:58Z</time>
      </trkpt>
      <trkpt lat="48.97193" lon="7.26334">
        <ele>358</ele>
        <time>2025-06-22T09:33:59Z</time>
      </trkpt>
      <trkpt lat="48.97194" lon="7.2634">
        <ele>358</ele>
        <time>2025-06-22T09:34:00Z</time>
      </trkpt>
      <trkpt lat="48.97195" lon="7.26345">
        <ele>358</ele>
        <time>2025-06-22T09:34:01Z</time>
      </trkpt>
      <trkpt lat="48.97196" lon="7.2635">
        <ele>358</ele>
        <time>2025-06-22T09:34:02Z</time>
      </trkpt>
      <trkpt lat="48.97198" lon="7.26355">
        <ele>358</ele>
        <time>2025-06-22T09:34:03Z</time>
      </trkpt>
      <trkpt lat="48.97199" lon="7.26359">
        <ele>358</ele>
        <time>2025-06-22T09:34:04Z</time>
      </trkpt>
      <trkpt lat="48.972" lon="7.26364">
        <ele>358</ele>
        <time>2025-06-22T09:34:05Z</time>
      </trkpt>
      <trkpt lat="48.97202" lon="7.2637">
        <ele>359</ele>
        <time>2025-06-22T09:34:06Z</time>
      </trkpt>
      <trkpt lat="48.97203" lon="7.26375">
        <ele>359</ele>
        <time>2025-06-22T09:34:07Z</time>
      </trkpt>
      <trkpt lat="48.97204" lon="7.2638">
        <ele>359</ele>
        <time>2025-06-22T09:34:08Z</time>
      </trkpt>
      <trkpt lat="48.97206" lon="7.26385">
        <ele>359</ele>
        <time>2025-06-22T09:34:09Z</time>
      </trkpt>
      <trkpt lat="48.97207" lon="7.2639">
        <ele>359</ele>
        <time>2025-06-22T09:34:10Z</time>
      </trkpt>
      <trkpt lat="48.97209" lon="7.26395">
        <ele>359</ele>
        <time>2025-06-22T09:34:11Z</time>
      </trkpt>
      <trkpt lat="48.9721" lon="7.26401">
        <ele>359</ele>
        <time>2025-06-22T09:34:12Z</time>
      </trkpt>
      <trkpt lat="48.97211" lon="7.26406">
        <ele>359</ele>
        <time>2025-06-22T09:34:13Z</time>
      </trkpt>
      <trkpt lat="48.97212" lon="7.26412">
        <ele>359</ele>
        <time>2025-06-22T09:34:14Z</time>
      </trkpt>
      <trkpt lat="48.97213" lon="7.26417">
        <ele>359</ele>
        <time>2025-06-22T09:34:15Z</time>
      </trkpt>
      <trkpt lat="48.97215" lon="7.26423">
        <ele>359</ele>
        <time>2025-06-22T09:34:16Z</time>
      </trkpt>
      <trkpt lat="48.97216" lon="7.26428">
        <ele>359</ele>
        <time>2025-06-22T09:34:17Z</time>
      </trkpt>
      <trkpt lat="48.97217" lon="7.26433">
        <ele>359</ele>
        <time>2025-06-22T09:34:18Z</time>
      </trkpt>
      <trkpt lat="48.97219" lon="7.26438">
        <ele>359</ele>
        <time>2025-06-22T09:34:19Z</time>
      </trkpt>
      <trkpt lat="48.9722" lon="7.26444">
        <ele>359</ele>
        <time>2025-06-22T09:34:20Z</time>
      </trkpt>
      <trkpt lat="48.97222" lon="7.26449">
        <ele>359</ele>
        <time>2025-06-22T09:34:21Z</time>
      </trkpt>
      <trkpt lat="48.97224" lon="7.26454">
        <ele>359</ele>
        <time>2025-06-22T09:34:22Z</time>
      </trkpt>
      <trkpt lat="48.97226" lon="7.2646">
        <ele>359</ele>
        <time>2025-06-22T09:34:23Z</time>
      </trkpt>
      <trkpt lat="48.97228" lon="7.26464">
        <ele>359</ele>
        <time>2025-06-22T09:34:24Z</time>
      </trkpt>
      <trkpt lat="48.9723" lon="7.26469">
        <ele>360</ele>
        <time>2025-06-22T09:34:25Z</time>
      </trkpt>
      <trkpt lat="48.97233" lon="7.26474">
        <ele>360</ele>
        <time>2025-06-22T09:34:26Z</time>
      </trkpt>
      <trkpt lat="48.97235" lon="7.2648">
        <ele>360</ele>
        <time>2025-06-22T09:34:27Z</time>
      </trkpt>
      <trkpt lat="48.97238" lon="7.26486">
        <ele>359</ele>
        <time>2025-06-22T09:34:28Z</time>
      </trkpt>
      <trkpt lat="48.9724" lon="7.26492">
        <ele>359</ele>
        <time>2025-06-22T09:34:29Z</time>
      </trkpt>
      <trkpt lat="48.97243" lon="7.26497">
        <ele>359</ele>
        <time>2025-06-22T09:34:30Z</time>
      </trkpt>
      <trkpt lat="48.97246" lon="7.26503">
        <ele>359</ele>
        <time>2025-06-22T09:34:31Z</time>
      </trkpt>
      <trkpt lat="48.97249" lon="7.26508">
        <ele>359</ele>
        <time>2025-06-22T09:34:32Z</time>
      </trkpt>
      <trkpt lat="48.97252" lon="7.26513">
        <ele>359</ele>
        <time>2025-06-22T09:34:33Z</time>
      </trkpt>
      <trkpt lat="48.97254" lon="7.26519">
        <ele>359</ele>
        <time>2025-06-22T09:34:34Z</time>
      </trkpt>
      <trkpt lat="48.97257" lon="7.26524">
        <ele>359</ele>
        <time>2025-06-22T09:34:35Z</time>
      </trkpt>
      <trkpt lat="48.9726" lon="7.26529">
        <ele>359</ele>
        <time>2025-06-22T09:34:36Z</time>
      </trkpt>
      <trkpt lat="48.97266" lon="7.26539">
        <ele>359</ele>
        <time>2025-06-22T09:34:38Z</time>
      </trkpt>
      <trkpt lat="48.97269" lon="7.26545">
        <ele>359</ele>
        <time>2025-06-22T09:34:39Z</time>
      </trkpt>
      <trkpt lat="48.97272" lon="7.2655">
        <ele>359</ele>
        <time>2025-06-22T09:34:40Z</time>
      </trkpt>
      <trkpt lat="48.97274" lon="7.26555">
        <ele>359</ele>
        <time>2025-06-22T09:34:41Z</time>
      </trkpt>
      <trkpt lat="48.97277" lon="7.2656">
        <ele>359</ele>
        <time>2025-06-22T09:34:42Z</time>
      </trkpt>
      <trkpt lat="48.9728" lon="7.26565">
        <ele>359</ele>
        <time>2025-06-22T09:34:43Z</time>
      </trkpt>
      <trkpt lat="48.97283" lon="7.2657">
        <ele>359</ele>
        <time>2025-06-22T09:34:44Z</time>
      </trkpt>
      <trkpt lat="48.97286" lon="7.26575">
        <ele>359</ele>
        <time>2025-06-22T09:34:45Z</time>
      </trkpt>
      <trkpt lat="48.97288" lon="7.2658">
        <ele>359</ele>
        <time>2025-06-22T09:34:46Z</time>
      </trkpt>
      <trkpt lat="48.97291" lon="7.26585">
        <ele>359</ele>
        <time>2025-06-22T09:34:47Z</time>
      </trkpt>
      <trkpt lat="48.97294" lon="7.2659">
        <ele>359</ele>
        <time>2025-06-22T09:34:48Z</time>
      </trkpt>
      <trkpt lat="48.97297" lon="7.26594">
        <ele>359</ele>
        <time>2025-06-22T09:34:49Z</time>
      </trkpt>
      <trkpt lat="48.973" lon="7.26599">
        <ele>359</ele>
        <time>2025-06-22T09:34:50Z</time>
      </trkpt>
      <trkpt lat="48.97302" lon="7.26604">
        <ele>359</ele>
        <time>2025-06-22T09:34:51Z</time>
      </trkpt>
      <trkpt lat="48.97305" lon="7.26608">
        <ele>359</ele>
        <time>2025-06-22T09:34:52Z</time>
      </trkpt>
      <trkpt lat="48.97308" lon="7.26613">
        <ele>359</ele>
        <time>2025-06-22T09:34:53Z</time>
      </trkpt>
      <trkpt lat="48.97311" lon="7.26618">
        <ele>358</ele>
        <time>2025-06-22T09:34:54Z</time>
      </trkpt>
      <trkpt lat="48.97314" lon="7.26622">
        <ele>358</ele>
        <time>2025-06-22T09:34:55Z</time>
      </trkpt>
      <trkpt lat="48.97317" lon="7.26626">
        <ele>358</ele>
        <time>2025-06-22T09:34:56Z</time>
      </trkpt>
      <trkpt lat="48.97321" lon="7.26631">
        <ele>358</ele>
        <time>2025-06-22T09:34:57Z</time>
      </trkpt>
      <trkpt lat="48.97324" lon="7.26635">
        <ele>358</ele>
        <time>2025-06-22T09:34:58Z</time>
      </trkpt>
      <trkpt lat="48.97327" lon="7.26639">
        <ele>358</ele>
        <time>2025-06-22T09:34:59Z</time>
      </trkpt>
      <trkpt lat="48.9733" lon="7.26643">
        <ele>358</ele>
        <time>2025-06-22T09:35:00Z</time>
      </trkpt>
      <trkpt lat="48.97333" lon="7.26647">
        <ele>358</ele>
        <time>2025-06-22T09:35:01Z</time>
      </trkpt>
      <trkpt lat="48.97336" lon="7.26651">
        <ele>358</ele>
        <time>2025-06-22T09:35:02Z</time>
      </trkpt>
      <trkpt lat="48.97339" lon="7.26655">
        <ele>358</ele>
        <time>2025-06-22T09:35:03Z</time>
      </trkpt>
      <trkpt lat="48.97346" lon="7.26663">
        <ele>358</ele>
        <time>2025-06-22T09:35:04Z</time>
      </trkpt>
      <trkpt lat="48.97349" lon="7.26667">
        <ele>358</ele>
        <time>2025-06-22T09:35:06Z</time>
      </trkpt>
      <trkpt lat="48.97353" lon="7.26671">
        <ele>358</ele>
        <time>2025-06-22T09:35:07Z</time>
      </trkpt>
      <trkpt lat="48.97356" lon="7.26676">
        <ele>358</ele>
        <time>2025-06-22T09:35:08Z</time>
      </trkpt>
      <trkpt lat="48.9736" lon="7.2668">
        <ele>358</ele>
        <time>2025-06-22T09:35:09Z</time>
      </trkpt>
      <trkpt lat="48.97363" lon="7.26684">
        <ele>358</ele>
        <time>2025-06-22T09:35:10Z</time>
      </trkpt>
      <trkpt lat="48.97367" lon="7.26688">
        <ele>357</ele>
        <time>2025-06-22T09:35:11Z</time>
      </trkpt>
      <trkpt lat="48.97371" lon="7.26693">
        <ele>357</ele>
        <time>2025-06-22T09:35:12Z</time>
      </trkpt>
      <trkpt lat="48.97375" lon="7.26697">
        <ele>357</ele>
        <time>2025-06-22T09:35:13Z</time>
      </trkpt>
      <trkpt lat="48.97378" lon="7.26701">
        <ele>357</ele>
        <time>2025-06-22T09:35:14Z</time>
      </trkpt>
      <trkpt lat="48.97382" lon="7.26705">
        <ele>357</ele>
        <time>2025-06-22T09:35:15Z</time>
      </trkpt>
      <trkpt lat="48.97386" lon="7.26709">
        <ele>357</ele>
        <time>2025-06-22T09:35:16Z</time>
      </trkpt>
      <trkpt lat="48.97389" lon="7.26714">
        <ele>357</ele>
        <time>2025-06-22T09:35:17Z</time>
      </trkpt>
      <trkpt lat="48.97393" lon="7.26718">
        <ele>357</ele>
        <time>2025-06-22T09:35:18Z</time>
      </trkpt>
      <trkpt lat="48.97397" lon="7.26722">
        <ele>357</ele>
        <time>2025-06-22T09:35:19Z</time>
      </trkpt>
      <trkpt lat="48.97401" lon="7.26726">
        <ele>357</ele>
        <time>2025-06-22T09:35:20Z</time>
      </trkpt>
      <trkpt lat="48.97404" lon="7.2673">
        <ele>357</ele>
        <time>2025-06-22T09:35:21Z</time>
      </trkpt>
      <trkpt lat="48.97408" lon="7.26734">
        <ele>357</ele>
        <time>2025-06-22T09:35:22Z</time>
      </trkpt>
      <trkpt lat="48.97411" lon="7.26738">
        <ele>357</ele>
        <time>2025-06-22T09:35:23Z</time>
      </trkpt>
      <trkpt lat="48.97415" lon="7.26742">
        <ele>357</ele>
        <time>2025-06-22T09:35:24Z</time>
      </trkpt>
      <trkpt lat="48.97419" lon="7.26747">
        <ele>357</ele>
        <time>2025-06-22T09:35:25Z</time>
      </trkpt>
      <trkpt lat="48.97423" lon="7.26751">
        <ele>356</ele>
        <time>2025-06-22T09:35:26Z</time>
      </trkpt>
      <trkpt lat="48.97427" lon="7.26755">
        <ele>356</ele>
        <time>2025-06-22T09:35:27Z</time>
      </trkpt>
      <trkpt lat="48.97431" lon="7.2676">
        <ele>356</ele>
        <time>2025-06-22T09:35:28Z</time>
      </trkpt>
      <trkpt lat="48.97435" lon="7.26765">
        <ele>356</ele>
        <time>2025-06-22T09:35:29Z</time>
      </trkpt>
      <trkpt lat="48.97439" lon="7.26769">
        <ele>356</ele>
        <time>2025-06-22T09:35:30Z</time>
      </trkpt>
      <trkpt lat="48.97443" lon="7.26773">
        <ele>356</ele>
        <time>2025-06-22T09:35:31Z</time>
      </trkpt>
      <trkpt lat="48.97447" lon="7.26778">
        <ele>356</ele>
        <time>2025-06-22T09:35:32Z</time>
      </trkpt>
      <trkpt lat="48.97452" lon="7.26782">
        <ele>356</ele>
        <time>2025-06-22T09:35:33Z</time>
      </trkpt>
      <trkpt lat="48.97455" lon="7.26787">
        <ele>356</ele>
        <time>2025-06-22T09:35:34Z</time>
      </trkpt>
      <trkpt lat="48.9746" lon="7.26791">
        <ele>356</ele>
        <time>2025-06-22T09:35:35Z</time>
      </trkpt>
      <trkpt lat="48.97464" lon="7.26795">
        <ele>356</ele>
        <time>2025-06-22T09:35:36Z</time>
      </trkpt>
      <trkpt lat="48.97468" lon="7.268">
        <ele>356</ele>
        <time>2025-06-22T09:35:37Z</time>
      </trkpt>
      <trkpt lat="48.97472" lon="7.26804">
        <ele>355</ele>
        <time>2025-06-22T09:35:38Z</time>
      </trkpt>
      <trkpt lat="48.97481" lon="7.26812">
        <ele>355</ele>
        <time>2025-06-22T09:35:40Z</time>
      </trkpt>
      <trkpt lat="48.97485" lon="7.26816">
        <ele>355</ele>
        <time>2025-06-22T09:35:41Z</time>
      </trkpt>
      <trkpt lat="48.9749" lon="7.26821">
        <ele>355</ele>
        <time>2025-06-22T09:35:42Z</time>
      </trkpt>
      <trkpt lat="48.97494" lon="7.26825">
        <ele>355</ele>
        <time>2025-06-22T09:35:43Z</time>
      </trkpt>
      <trkpt lat="48.97497" lon="7.2683">
        <ele>355</ele>
        <time>2025-06-22T09:35:44Z</time>
      </trkpt>
      <trkpt lat="48.97501" lon="7.26834">
        <ele>355</ele>
        <time>2025-06-22T09:35:45Z</time>
      </trkpt>
      <trkpt lat="48.97505" lon="7.26839">
        <ele>355</ele>
        <time>2025-06-22T09:35:46Z</time>
      </trkpt>
      <trkpt lat="48.97509" lon="7.26843">
        <ele>355</ele>
        <time>2025-06-22T09:35:47Z</time>
      </trkpt>
      <trkpt lat="48.97513" lon="7.26847">
        <ele>355</ele>
        <time>2025-06-22T09:35:48Z</time>
      </trkpt>
      <trkpt lat="48.97521" lon="7.26856">
        <ele>355</ele>
        <time>2025-06-22T09:35:50Z</time>
      </trkpt>
      <trkpt lat="48.97528" lon="7.26866">
        <ele>355</ele>
        <time>2025-06-22T09:35:52Z</time>
      </trkpt>
      <trkpt lat="48.97532" lon="7.2687">
        <ele>355</ele>
        <time>2025-06-22T09:35:53Z</time>
      </trkpt>
      <trkpt lat="48.97536" lon="7.26875">
        <ele>355</ele>
        <time>2025-06-22T09:35:54Z</time>
      </trkpt>
      <trkpt lat="48.97539" lon="7.2688">
        <ele>355</ele>
        <time>2025-06-22T09:35:55Z</time>
      </trkpt>
      <trkpt lat="48.97543" lon="7.26885">
        <ele>355</ele>
        <time>2025-06-22T09:35:56Z</time>
      </trkpt>
      <trkpt lat="48.97547" lon="7.26889">
        <ele>355</ele>
        <time>2025-06-22T09:35:57Z</time>
      </trkpt>
      <trkpt lat="48.97554" lon="7.26899">
        <ele>355</ele>
        <time>2025-06-22T09:35:59Z</time>
      </trkpt>
      <trkpt lat="48.97558" lon="7.26903">
        <ele>355</ele>
        <time>2025-06-22T09:36:00Z</time>
      </trkpt>
      <trkpt lat="48.97562" lon="7.26908">
        <ele>355</ele>
        <time>2025-06-22T09:36:01Z</time>
      </trkpt>
      <trkpt lat="48.97566" lon="7.26913">
        <ele>356</ele>
        <time>2025-06-22T09:36:02Z</time>
      </trkpt>
      <trkpt lat="48.97569" lon="7.26918">
        <ele>356</ele>
        <time>2025-06-22T09:36:03Z</time>
      </trkpt>
      <trkpt lat="48.97573" lon="7.26923">
        <ele>356</ele>
        <time>2025-06-22T09:36:04Z</time>
      </trkpt>
      <trkpt lat="48.97577" lon="7.26928">
        <ele>356</ele>
        <time>2025-06-22T09:36:05Z</time>
      </trkpt>
      <trkpt lat="48.9758" lon="7.26933">
        <ele>356</ele>
        <time>2025-06-22T09:36:06Z</time>
      </trkpt>
      <trkpt lat="48.97583" lon="7.26938">
        <ele>356</ele>
        <time>2025-06-22T09:36:07Z</time>
      </trkpt>
      <trkpt lat="48.97587" lon="7.26943">
        <ele>356</ele>
        <time>2025-06-22T09:36:08Z</time>
      </trkpt>
      <trkpt lat="48.9759" lon="7.26948">
        <ele>356</ele>
        <time>2025-06-22T09:36:09Z</time>
      </trkpt>
      <trkpt lat="48.97593" lon="7.26953">
        <ele>356</ele>
        <time>2025-06-22T09:36:10Z</time>
      </trkpt>
      <trkpt lat="48.97597" lon="7.26957">
        <ele>356</ele>
        <time>2025-06-22T09:36:11Z</time>
      </trkpt>
      <trkpt lat="48.976" lon="7.26963">
        <ele>356</ele>
        <time>2025-06-22T09:36:12Z</time>
      </trkpt>
      <trkpt lat="48.97603" lon="7.26968">
        <ele>356</ele>
        <time>2025-06-22T09:36:13Z</time>
      </trkpt>
      <trkpt lat="48.97606" lon="7.26972">
        <ele>356</ele>
        <time>2025-06-22T09:36:14Z</time>
      </trkpt>
      <trkpt lat="48.97609" lon="7.26976">
        <ele>358</ele>
        <time>2025-06-22T09:36:15Z</time>
      </trkpt>
      <trkpt lat="48.97611" lon="7.26977">
        <ele>358</ele>
        <time>2025-06-22T09:36:16Z</time>
      </trkpt>
      <trkpt lat="48.97609" lon="7.26973">
        <ele>358</ele>
        <time>2025-06-22T09:36:18Z</time>
      </trkpt>
      <trkpt lat="48.97607" lon="7.26971">
        <ele>357</ele>
        <time>2025-06-22T09:36:19Z</time>
      </trkpt>
      <trkpt lat="48.97605" lon="7.2697">
        <ele>357</ele>
        <time>2025-06-22T09:36:20Z</time>
      </trkpt>
      <trkpt lat="48.97603" lon="7.26969">
        <ele>357</ele>
        <time>2025-06-22T09:36:21Z</time>
      </trkpt>
      <trkpt lat="48.97602" lon="7.26973">
        <ele>357</ele>
        <time>2025-06-22T09:36:24Z</time>
      </trkpt>
      <trkpt lat="48.97604" lon="7.26976">
        <ele>357</ele>
        <time>2025-06-22T09:36:25Z</time>
      </trkpt>
      <trkpt lat="48.97605" lon="7.26979">
        <ele>357</ele>
        <time>2025-06-22T09:36:26Z</time>
      </trkpt>
      <trkpt lat="48.97606" lon="7.26982">
        <ele>357</ele>
        <time>2025-06-22T09:36:27Z</time>
      </trkpt>
      <trkpt lat="48.97609" lon="7.26984">
        <ele>357</ele>
        <time>2025-06-22T09:36:28Z</time>
      </trkpt>
      <trkpt lat="48.9761" lon="7.26987">
        <ele>358</ele>
        <time>2025-06-22T09:36:29Z</time>
      </trkpt>
      <trkpt lat="48.97612" lon="7.26991">
        <ele>358</ele>
        <time>2025-06-22T09:36:30Z</time>
      </trkpt>
      <trkpt lat="48.97614" lon="7.26995">
        <ele>358</ele>
        <time>2025-06-22T09:36:31Z</time>
      </trkpt>
      <trkpt lat="48.97617" lon="7.27">
        <ele>357</ele>
        <time>2025-06-22T09:36:32Z</time>
      </trkpt>
      <trkpt lat="48.9762" lon="7.27005">
        <ele>357</ele>
        <time>2025-06-22T09:36:33Z</time>
      </trkpt>
      <trkpt lat="48.97623" lon="7.2701">
        <ele>357</ele>
        <time>2025-06-22T09:36:34Z</time>
      </trkpt>
      <trkpt lat="48.97626" lon="7.27014">
        <ele>358</ele>
        <time>2025-06-22T09:36:35Z</time>
      </trkpt>
      <trkpt lat="48.97629" lon="7.27019">
        <ele>358</ele>
        <time>2025-06-22T09:36:36Z</time>
      </trkpt>
      <trkpt lat="48.97632" lon="7.27024">
        <ele>358</ele>
        <time>2025-06-22T09:36:37Z</time>
      </trkpt>
      <trkpt lat="48.97636" lon="7.27029">
        <ele>357</ele>
        <time>2025-06-22T09:36:38Z</time>
      </trkpt>
      <trkpt lat="48.97639" lon="7.27034">
        <ele>357</ele>
        <time>2025-06-22T09:36:39Z</time>
      </trkpt>
      <trkpt lat="48.97642" lon="7.27039">
        <ele>357</ele>
        <time>2025-06-22T09:36:40Z</time>
      </trkpt>
      <trkpt lat="48.97645" lon="7.27044">
        <ele>358</ele>
        <time>2025-06-22T09:36:41Z</time>
      </trkpt>
      <trkpt lat="48.97649" lon="7.27048">
        <ele>358</ele>
        <time>2025-06-22T09:36:42Z</time>
      </trkpt>
      <trkpt lat="48.97652" lon="7.27053">
        <ele>359</ele>
        <time>2025-06-22T09:36:43Z</time>
      </trkpt>
      <trkpt lat="48.97655" lon="7.27058">
        <ele>359</ele>
        <time>2025-06-22T09:36:44Z</time>
      </trkpt>
      <trkpt lat="48.97657" lon="7.27063">
        <ele>359</ele>
        <time>2025-06-22T09:36:45Z</time>
      </trkpt>
      <trkpt lat="48.97659" lon="7.27068">
        <ele>359</ele>
        <time>2025-06-22T09:36:46Z</time>
      </trkpt>
      <trkpt lat="48.97662" lon="7.27073">
        <ele>359</ele>
        <time>2025-06-22T09:36:47Z</time>
      </trkpt>
      <trkpt lat="48.97665" lon="7.27078">
        <ele>359</ele>
        <time>2025-06-22T09:36:48Z</time>
      </trkpt>
      <trkpt lat="48.9767" lon="7.27087">
        <ele>359</ele>
        <time>2025-06-22T09:36:49Z</time>
      </trkpt>
      <trkpt lat="48.97672" lon="7.27093">
        <ele>359</ele>
        <time>2025-06-22T09:36:51Z</time>
      </trkpt>
      <trkpt lat="48.97675" lon="7.27098">
        <ele>359</ele>
        <time>2025-06-22T09:36:52Z</time>
      </trkpt>
      <trkpt lat="48.97678" lon="7.27103">
        <ele>359</ele>
        <time>2025-06-22T09:36:53Z</time>
      </trkpt>
      <trkpt lat="48.97681" lon="7.27108">
        <ele>359</ele>
        <time>2025-06-22T09:36:54Z</time>
      </trkpt>
      <trkpt lat="48.97683" lon="7.27113">
        <ele>359</ele>
        <time>2025-06-22T09:36:55Z</time>
      </trkpt>
      <trkpt lat="48.97686" lon="7.27117">
        <ele>359</ele>
        <time>2025-06-22T09:36:56Z</time>
      </trkpt>
      <trkpt lat="48.97689" lon="7.27122">
        <ele>359</ele>
        <time>2025-06-22T09:36:57Z</time>
      </trkpt>
      <trkpt lat="48.97692" lon="7.27127">
        <ele>359</ele>
        <time>2025-06-22T09:36:58Z</time>
      </trkpt>
      <trkpt lat="48.97695" lon="7.27132">
        <ele>359</ele>
        <time>2025-06-22T09:36:59Z</time>
      </trkpt>
      <trkpt lat="48.97698" lon="7.27137">
        <ele>359</ele>
        <time>2025-06-22T09:37:00Z</time>
      </trkpt>
      <trkpt lat="48.97701" lon="7.27142">
        <ele>359</ele>
        <time>2025-06-22T09:37:01Z</time>
      </trkpt>
      <trkpt lat="48.97704" lon="7.27147">
        <ele>359</ele>
        <time>2025-06-22T09:37:02Z</time>
      </trkpt>
      <trkpt lat="48.97706" lon="7.27152">
        <ele>359</ele>
        <time>2025-06-22T09:37:03Z</time>
      </trkpt>
      <trkpt lat="48.97709" lon="7.27157">
        <ele>359</ele>
        <time>2025-06-22T09:37:04Z</time>
      </trkpt>
      <trkpt lat="48.97712" lon="7.27162">
        <ele>360</ele>
        <time>2025-06-22T09:37:05Z</time>
      </trkpt>
      <trkpt lat="48.97715" lon="7.27167">
        <ele>360</ele>
        <time>2025-06-22T09:37:06Z</time>
      </trkpt>
      <trkpt lat="48.97718" lon="7.27171">
        <ele>360</ele>
        <time>2025-06-22T09:37:07Z</time>
      </trkpt>
      <trkpt lat="48.9772" lon="7.27176">
        <ele>360</ele>
        <time>2025-06-22T09:37:08Z</time>
      </trkpt>
      <trkpt lat="48.97723" lon="7.2718">
        <ele>360</ele>
        <time>2025-06-22T09:37:09Z</time>
      </trkpt>
      <trkpt lat="48.97726" lon="7.27184">
        <ele>360</ele>
        <time>2025-06-22T09:37:10Z</time>
      </trkpt>
      <trkpt lat="48.97729" lon="7.27193">
        <ele>360</ele>
        <time>2025-06-22T09:37:12Z</time>
      </trkpt>
      <trkpt lat="48.9773" lon="7.27197">
        <ele>360</ele>
        <time>2025-06-22T09:37:13Z</time>
      </trkpt>
      <trkpt lat="48.97731" lon="7.27201">
        <ele>360</ele>
        <time>2025-06-22T09:37:14Z</time>
      </trkpt>
      <trkpt lat="48.97732" lon="7.27204">
        <ele>360</ele>
        <time>2025-06-22T09:37:15Z</time>
      </trkpt>
      <trkpt lat="48.97735" lon="7.27206">
        <ele>360</ele>
        <time>2025-06-22T09:37:17Z</time>
      </trkpt>
      <trkpt lat="48.97736" lon="7.27203">
        <ele>359</ele>
        <time>2025-06-22T09:37:54Z</time>
      </trkpt>
      <trkpt lat="48.97736" lon="7.27199">
        <ele>359</ele>
        <time>2025-06-22T09:37:58Z</time>
      </trkpt>
      <trkpt lat="48.97742" lon="7.27186">
        <ele>359</ele>
        <time>2025-06-22T09:38:05Z</time>
      </trkpt>
      <trkpt lat="48.9775" lon="7.27192">
        <ele>360</ele>
        <time>2025-06-22T09:38:20Z</time>
      </trkpt>
      <trkpt lat="48.97746" lon="7.27194">
        <ele>360</ele>
        <time>2025-06-22T09:38:29Z</time>
      </trkpt>
      <trkpt lat="48.97744" lon="7.27195">
        <ele>360</ele>
        <time>2025-06-22T09:39:23Z</time>
      </trkpt>
      <trkpt lat="48.97744" lon="7.27191">
        <ele>360</ele>
        <time>2025-06-22T09:39:50Z</time>
      </trkpt>
      <trkpt lat="48.97745" lon="7.27195">
        <ele>359</ele>
        <time>2025-06-22T09:40:01Z</time>
      </trkpt>
      <trkpt lat="48.97746" lon="7.27198">
        <ele>360</ele>
        <time>2025-06-22T09:40:02Z</time>
      </trkpt>
      <trkpt lat="48.97751" lon="7.27213">
        <ele>360</ele>
        <time>2025-06-22T09:40:06Z</time>
      </trkpt>
      <trkpt lat="48.97758" lon="7.27225">
        <ele>360</ele>
        <time>2025-06-22T09:40:09Z</time>
      </trkpt>
      <trkpt lat="48.97767" lon="7.27238">
        <ele>360</ele>
        <time>2025-06-22T09:40:12Z</time>
      </trkpt>
      <trkpt lat="48.97774" lon="7.27252">
        <ele>360</ele>
        <time>2025-06-22T09:40:15Z</time>
      </trkpt>
      <trkpt lat="48.97781" lon="7.27263">
        <ele>360</ele>
        <time>2025-06-22T09:40:17Z</time>
      </trkpt>
      <trkpt lat="48.97786" lon="7.27274">
        <ele>360</ele>
        <time>2025-06-22T09:40:19Z</time>
      </trkpt>
      <trkpt lat="48.97794" lon="7.2729">
        <ele>360</ele>
        <time>2025-06-22T09:40:22Z</time>
      </trkpt>
      <trkpt lat="48.97801" lon="7.27306">
        <ele>360</ele>
        <time>2025-06-22T09:40:25Z</time>
      </trkpt>
      <trkpt lat="48.97807" lon="7.27322">
        <ele>360</ele>
        <time>2025-06-22T09:40:28Z</time>
      </trkpt>
      <trkpt lat="48.97814" lon="7.27337">
        <ele>360</ele>
        <time>2025-06-22T09:40:31Z</time>
      </trkpt>
      <trkpt lat="48.97821" lon="7.27354">
        <ele>360</ele>
        <time>2025-06-22T09:40:34Z</time>
      </trkpt>
      <trkpt lat="48.97827" lon="7.27367">
        <ele>360</ele>
        <time>2025-06-22T09:40:37Z</time>
      </trkpt>
      <trkpt lat="48.9783" lon="7.27381">
        <ele>360</ele>
        <time>2025-06-22T09:40:40Z</time>
      </trkpt>
      <trkpt lat="48.9783" lon="7.27395">
        <ele>361</ele>
        <time>2025-06-22T09:40:42Z</time>
      </trkpt>
      <trkpt lat="48.97826" lon="7.27411">
        <ele>361</ele>
        <time>2025-06-22T09:40:44Z</time>
      </trkpt>
      <trkpt lat="48.97825" lon="7.27424">
        <ele>361</ele>
        <time>2025-06-22T09:40:46Z</time>
      </trkpt>
      <trkpt lat="48.97825" lon="7.2743">
        <ele>361</ele>
        <time>2025-06-22T09:40:47Z</time>
      </trkpt>
      <trkpt lat="48.97824" lon="7.27437">
        <ele>361</ele>
        <time>2025-06-22T09:40:48Z</time>
      </trkpt>
      <trkpt lat="48.97824" lon="7.27443">
        <ele>361</ele>
        <time>2025-06-22T09:40:49Z</time>
      </trkpt>
      <trkpt lat="48.97824" lon="7.27448">
        <ele>361</ele>
        <time>2025-06-22T09:40:50Z</time>
      </trkpt>
      <trkpt lat="48.97824" lon="7.27454">
        <ele>361</ele>
        <time>2025-06-22T09:40:51Z</time>
      </trkpt>
      <trkpt lat="48.97824" lon="7.27459">
        <ele>362</ele>
        <time>2025-06-22T09:40:52Z</time>
      </trkpt>
      <trkpt lat="48.97824" lon="7.27464">
        <ele>362</ele>
        <time>2025-06-22T09:40:53Z</time>
      </trkpt>
      <trkpt lat="48.97825" lon="7.27469">
        <ele>362</ele>
        <time>2025-06-22T09:40:54Z</time>
      </trkpt>
      <trkpt lat="48.97826" lon="7.27473">
        <ele>361</ele>
        <time>2025-06-22T09:40:55Z</time>
      </trkpt>
      <trkpt lat="48.97827" lon="7.27478">
        <ele>361</ele>
        <time>2025-06-22T09:40:56Z</time>
      </trkpt>
      <trkpt lat="48.97828" lon="7.27483">
        <ele>361</ele>
        <time>2025-06-22T09:40:57Z</time>
      </trkpt>
      <trkpt lat="48.97829" lon="7.27488">
        <ele>361</ele>
        <time>2025-06-22T09:40:58Z</time>
      </trkpt>
      <trkpt lat="48.97829" lon="7.27493">
        <ele>361</ele>
        <time>2025-06-22T09:40:59Z</time>
      </trkpt>
      <trkpt lat="48.97829" lon="7.27498">
        <ele>361</ele>
        <time>2025-06-22T09:41:00Z</time>
      </trkpt>
      <trkpt lat="48.9783" lon="7.27503">
        <ele>362</ele>
        <time>2025-06-22T09:41:01Z</time>
      </trkpt>
      <trkpt lat="48.97831" lon="7.27508">
        <ele>362</ele>
        <time>2025-06-22T09:41:02Z</time>
      </trkpt>
      <trkpt lat="48.97832" lon="7.27513">
        <ele>362</ele>
        <time>2025-06-22T09:41:03Z</time>
      </trkpt>
      <trkpt lat="48.97833" lon="7.27518">
        <ele>362</ele>
        <time>2025-06-22T09:41:04Z</time>
      </trkpt>
      <trkpt lat="48.97832" lon="7.27524">
        <ele>362</ele>
        <time>2025-06-22T09:41:05Z</time>
      </trkpt>
      <trkpt lat="48.97833" lon="7.2753">
        <ele>363</ele>
        <time>2025-06-22T09:41:06Z</time>
      </trkpt>
      <trkpt lat="48.97832" lon="7.27536">
        <ele>363</ele>
        <time>2025-06-22T09:41:07Z</time>
      </trkpt>
      <trkpt lat="48.97832" lon="7.27542">
        <ele>363</ele>
        <time>2025-06-22T09:41:08Z</time>
      </trkpt>
      <trkpt lat="48.97831" lon="7.27548">
        <ele>363</ele>
        <time>2025-06-22T09:41:09Z</time>
      </trkpt>
      <trkpt lat="48.97831" lon="7.27554">
        <ele>363</ele>
        <time>2025-06-22T09:41:10Z</time>
      </trkpt>
      <trkpt lat="48.97831" lon="7.27559">
        <ele>363</ele>
        <time>2025-06-22T09:41:11Z</time>
      </trkpt>
      <trkpt lat="48.97831" lon="7.27565">
        <ele>363</ele>
        <time>2025-06-22T09:41:12Z</time>
      </trkpt>
      <trkpt lat="48.97831" lon="7.27571">
        <ele>362</ele>
        <time>2025-06-22T09:41:13Z</time>
      </trkpt>
      <trkpt lat="48.97831" lon="7.27577">
        <ele>362</ele>
        <time>2025-06-22T09:41:14Z</time>
      </trkpt>
      <trkpt lat="48.97831" lon="7.27583">
        <ele>362</ele>
        <time>2025-06-22T09:41:15Z</time>
      </trkpt>
      <trkpt lat="48.97831" lon="7.27589">
        <ele>362</ele>
        <time>2025-06-22T09:41:16Z</time>
      </trkpt>
      <trkpt lat="48.97832" lon="7.27595">
        <ele>362</ele>
        <time>2025-06-22T09:41:17Z</time>
      </trkpt>
      <trkpt lat="48.97833" lon="7.27601">
        <ele>362</ele>
        <time>2025-06-22T09:41:18Z</time>
      </trkpt>
      <trkpt lat="48.97832" lon="7.27608">
        <ele>363</ele>
        <time>2025-06-22T09:41:19Z</time>
      </trkpt>
      <trkpt lat="48.97831" lon="7.27615">
        <ele>363</ele>
        <time>2025-06-22T09:41:20Z</time>
      </trkpt>
      <trkpt lat="48.97831" lon="7.27621">
        <ele>363</ele>
        <time>2025-06-22T09:41:21Z</time>
      </trkpt>
      <trkpt lat="48.97831" lon="7.27626">
        <ele>363</ele>
        <time>2025-06-22T09:41:22Z</time>
      </trkpt>
      <trkpt lat="48.97831" lon="7.27632">
        <ele>363</ele>
        <time>2025-06-22T09:41:23Z</time>
      </trkpt>
      <trkpt lat="48.97832" lon="7.27638">
        <ele>363</ele>
        <time>2025-06-22T09:41:24Z</time>
      </trkpt>
      <trkpt lat="48.97832" lon="7.27645">
        <ele>363</ele>
        <time>2025-06-22T09:41:25Z</time>
      </trkpt>
      <trkpt lat="48.97832" lon="7.27651">
        <ele>363</ele>
        <time>2025-06-22T09:41:26Z</time>
      </trkpt>
      <trkpt lat="48.97832" lon="7.27657">
        <ele>363</ele>
        <time>2025-06-22T09:41:27Z</time>
      </trkpt>
      <trkpt lat="48.97832" lon="7.27662">
        <ele>364</ele>
        <time>2025-06-22T09:41:28Z</time>
      </trkpt>
      <trkpt lat="48.97832" lon="7.27668">
        <ele>364</ele>
        <time>2025-06-22T09:41:29Z</time>
      </trkpt>
      <trkpt lat="48.97833" lon="7.27673">
        <ele>364</ele>
        <time>2025-06-22T09:41:30Z</time>
      </trkpt>
      <trkpt lat="48.97834" lon="7.27679">
        <ele>364</ele>
        <time>2025-06-22T09:41:31Z</time>
      </trkpt>
      <trkpt lat="48.97834" lon="7.27685">
        <ele>364</ele>
        <time>2025-06-22T09:41:32Z</time>
      </trkpt>
      <trkpt lat="48.97834" lon="7.27691">
        <ele>364</ele>
        <time>2025-06-22T09:41:33Z</time>
      </trkpt>
      <trkpt lat="48.97833" lon="7.27697">
        <ele>364</ele>
        <time>2025-06-22T09:41:34Z</time>
      </trkpt>
      <trkpt lat="48.97833" lon="7.27703">
        <ele>364</ele>
        <time>2025-06-22T09:41:35Z</time>
      </trkpt>
      <trkpt lat="48.97834" lon="7.27709">
        <ele>364</ele>
        <time>2025-06-22T09:41:36Z</time>
      </trkpt>
      <trkpt lat="48.97834" lon="7.27715">
        <ele>364</ele>
        <time>2025-06-22T09:41:37Z</time>
      </trkpt>
      <trkpt lat="48.97834" lon="7.27721">
        <ele>364</ele>
        <time>2025-06-22T09:41:38Z</time>
      </trkpt>
      <trkpt lat="48.97834" lon="7.27727">
        <ele>364</ele>
        <time>2025-06-22T09:41:39Z</time>
      </trkpt>
      <trkpt lat="48.97835" lon="7.27733">
        <ele>363</ele>
        <time>2025-06-22T09:41:40Z</time>
      </trkpt>
      <trkpt lat="48.97835" lon="7.27739">
        <ele>364</ele>
        <time>2025-06-22T09:41:41Z</time>
      </trkpt>
      <trkpt lat="48.97836" lon="7.27745">
        <ele>364</ele>
        <time>2025-06-22T09:41:42Z</time>
      </trkpt>
      <trkpt lat="48.97836" lon="7.27751">
        <ele>364</ele>
        <time>2025-06-22T09:41:43Z</time>
      </trkpt>
      <trkpt lat="48.97836" lon="7.27757">
        <ele>364</ele>
        <time>2025-06-22T09:41:44Z</time>
      </trkpt>
      <trkpt lat="48.97837" lon="7.27763">
        <ele>364</ele>
        <time>2025-06-22T09:41:45Z</time>
      </trkpt>
      <trkpt lat="48.97837" lon="7.27768">
        <ele>364</ele>
        <time>2025-06-22T09:41:46Z</time>
      </trkpt>
      <trkpt lat="48.97837" lon="7.27774">
        <ele>364</ele>
        <time>2025-06-22T09:41:47Z</time>
      </trkpt>
      <trkpt lat="48.97837" lon="7.2778">
        <ele>364</ele>
        <time>2025-06-22T09:41:48Z</time>
      </trkpt>
      <trkpt lat="48.97837" lon="7.27785">
        <ele>365</ele>
        <time>2025-06-22T09:41:49Z</time>
      </trkpt>
      <trkpt lat="48.97838" lon="7.27791">
        <ele>365</ele>
        <time>2025-06-22T09:41:50Z</time>
      </trkpt>
      <trkpt lat="48.97838" lon="7.27796">
        <ele>365</ele>
        <time>2025-06-22T09:41:51Z</time>
      </trkpt>
      <trkpt lat="48.97838" lon="7.27801">
        <ele>366</ele>
        <time>2025-06-22T09:41:52Z</time>
      </trkpt>
      <trkpt lat="48.97838" lon="7.27807">
        <ele>367</ele>
        <time>2025-06-22T09:41:53Z</time>
      </trkpt>
      <trkpt lat="48.97839" lon="7.27812">
        <ele>367</ele>
        <time>2025-06-22T09:41:54Z</time>
      </trkpt>
      <trkpt lat="48.97839" lon="7.27818">
        <ele>367</ele>
        <time>2025-06-22T09:41:55Z</time>
      </trkpt>
      <trkpt lat="48.97839" lon="7.27823">
        <ele>367</ele>
        <time>2025-06-22T09:41:56Z</time>
      </trkpt>
      <trkpt lat="48.97839" lon="7.27829">
        <ele>367</ele>
        <time>2025-06-22T09:41:57Z</time>
      </trkpt>
      <trkpt lat="48.97839" lon="7.27834">
        <ele>367</ele>
        <time>2025-06-22T09:41:58Z</time>
      </trkpt>
      <trkpt lat="48.9784" lon="7.2784">
        <ele>367</ele>
        <time>2025-06-22T09:41:59Z</time>
      </trkpt>
      <trkpt lat="48.9784" lon="7.27845">
        <ele>367</ele>
        <time>2025-06-22T09:42:00Z</time>
      </trkpt>
      <trkpt lat="48.97841" lon="7.2785">
        <ele>367</ele>
        <time>2025-06-22T09:42:01Z</time>
      </trkpt>
      <trkpt lat="48.97841" lon="7.27856">
        <ele>367</ele>
        <time>2025-06-22T09:42:02Z</time>
      </trkpt>
      <trkpt lat="48.97842" lon="7.27862">
        <ele>367</ele>
        <time>2025-06-22T09:42:03Z</time>
      </trkpt>
      <trkpt lat="48.97843" lon="7.27867">
        <ele>367</ele>
        <time>2025-06-22T09:42:04Z</time>
      </trkpt>
      <trkpt lat="48.97844" lon="7.27873">
        <ele>367</ele>
        <time>2025-06-22T09:42:05Z</time>
      </trkpt>
      <trkpt lat="48.97845" lon="7.27878">
        <ele>367</ele>
        <time>2025-06-22T09:42:06Z</time>
      </trkpt>
      <trkpt lat="48.97846" lon="7.27883">
        <ele>367</ele>
        <time>2025-06-22T09:42:07Z</time>
      </trkpt>
      <trkpt lat="48.97847" lon="7.27889">
        <ele>367</ele>
        <time>2025-06-22T09:42:08Z</time>
      </trkpt>
      <trkpt lat="48.97848" lon="7.27894">
        <ele>367</ele>
        <time>2025-06-22T09:42:09Z</time>
      </trkpt>
      <trkpt lat="48.97849" lon="7.27899">
        <ele>367</ele>
        <time>2025-06-22T09:42:10Z</time>
      </trkpt>
      <trkpt lat="48.97851" lon="7.27904">
        <ele>367</ele>
        <time>2025-06-22T09:42:11Z</time>
      </trkpt>
      <trkpt lat="48.97852" lon="7.27909">
        <ele>367</ele>
        <time>2025-06-22T09:42:12Z</time>
      </trkpt>
      <trkpt lat="48.97854" lon="7.27915">
        <ele>368</ele>
        <time>2025-06-22T09:42:13Z</time>
      </trkpt>
      <trkpt lat="48.97856" lon="7.2792">
        <ele>368</ele>
        <time>2025-06-22T09:42:14Z</time>
      </trkpt>
      <trkpt lat="48.97857" lon="7.27925">
        <ele>368</ele>
        <time>2025-06-22T09:42:15Z</time>
      </trkpt>
      <trkpt lat="48.97859" lon="7.2793">
        <ele>368</ele>
        <time>2025-06-22T09:42:16Z</time>
      </trkpt>
      <trkpt lat="48.97859" lon="7.27934">
        <ele>368</ele>
        <time>2025-06-22T09:42:17Z</time>
      </trkpt>
      <trkpt lat="48.97861" lon="7.27938">
        <ele>368</ele>
        <time>2025-06-22T09:42:18Z</time>
      </trkpt>
      <trkpt lat="48.97862" lon="7.27943">
        <ele>368</ele>
        <time>2025-06-22T09:42:19Z</time>
      </trkpt>
      <trkpt lat="48.97863" lon="7.27947">
        <ele>368</ele>
        <time>2025-06-22T09:42:20Z</time>
      </trkpt>
      <trkpt lat="48.97864" lon="7.27952">
        <ele>368</ele>
        <time>2025-06-22T09:42:21Z</time>
      </trkpt>
      <trkpt lat="48.97865" lon="7.27956">
        <ele>368</ele>
        <time>2025-06-22T09:42:22Z</time>
      </trkpt>
      <trkpt lat="48.97866" lon="7.27961">
        <ele>368</ele>
        <time>2025-06-22T09:42:23Z</time>
      </trkpt>
      <trkpt lat="48.97867" lon="7.27965">
        <ele>368</ele>
        <time>2025-06-22T09:42:24Z</time>
      </trkpt>
      <trkpt lat="48.97869" lon="7.27969">
        <ele>370</ele>
        <time>2025-06-22T09:42:25Z</time>
      </trkpt>
      <trkpt lat="48.9787" lon="7.27974">
        <ele>370</ele>
        <time>2025-06-22T09:42:26Z</time>
      </trkpt>
      <trkpt lat="48.97871" lon="7.27979">
        <ele>370</ele>
        <time>2025-06-22T09:42:27Z</time>
      </trkpt>
      <trkpt lat="48.97871" lon="7.27983">
        <ele>370</ele>
        <time>2025-06-22T09:42:28Z</time>
      </trkpt>
      <trkpt lat="48.97873" lon="7.27988">
        <ele>370</ele>
        <time>2025-06-22T09:42:29Z</time>
      </trkpt>
      <trkpt lat="48.97874" lon="7.27993">
        <ele>370</ele>
        <time>2025-06-22T09:42:30Z</time>
      </trkpt>
      <trkpt lat="48.97875" lon="7.27998">
        <ele>370</ele>
        <time>2025-06-22T09:42:31Z</time>
      </trkpt>
      <trkpt lat="48.97877" lon="7.28002">
        <ele>370</ele>
        <time>2025-06-22T09:42:32Z</time>
      </trkpt>
      <trkpt lat="48.97878" lon="7.28007">
        <ele>370</ele>
        <time>2025-06-22T09:42:33Z</time>
      </trkpt>
      <trkpt lat="48.97879" lon="7.28012">
        <ele>371</ele>
        <time>2025-06-22T09:42:34Z</time>
      </trkpt>
      <trkpt lat="48.97881" lon="7.28017">
        <ele>371</ele>
        <time>2025-06-22T09:42:35Z</time>
      </trkpt>
      <trkpt lat="48.97882" lon="7.28021">
        <ele>371</ele>
        <time>2025-06-22T09:42:36Z</time>
      </trkpt>
      <trkpt lat="48.97884" lon="7.28026">
        <ele>370</ele>
        <time>2025-06-22T09:42:37Z</time>
      </trkpt>
      <trkpt lat="48.97885" lon="7.28031">
        <ele>370</ele>
        <time>2025-06-22T09:42:38Z</time>
      </trkpt>
      <trkpt lat="48.97886" lon="7.28036">
        <ele>370</ele>
        <time>2025-06-22T09:42:39Z</time>
      </trkpt>
      <trkpt lat="48.97888" lon="7.28041">
        <ele>370</ele>
        <time>2025-06-22T09:42:40Z</time>
      </trkpt>
      <trkpt lat="48.97889" lon="7.28045">
        <ele>370</ele>
        <time>2025-06-22T09:42:41Z</time>
      </trkpt>
      <trkpt lat="48.9789" lon="7.2805">
        <ele>370</ele>
        <time>2025-06-22T09:42:42Z</time>
      </trkpt>
      <trkpt lat="48.97892" lon="7.28055">
        <ele>370</ele>
        <time>2025-06-22T09:42:43Z</time>
      </trkpt>
      <trkpt lat="48.97893" lon="7.28059">
        <ele>370</ele>
        <time>2025-06-22T09:42:44Z</time>
      </trkpt>
      <trkpt lat="48.97894" lon="7.28064">
        <ele>370</ele>
        <time>2025-06-22T09:42:45Z</time>
      </trkpt>
      <trkpt lat="48.97896" lon="7.28069">
        <ele>370</ele>
        <time>2025-06-22T09:42:46Z</time>
      </trkpt>
      <trkpt lat="48.97897" lon="7.28074">
        <ele>370</ele>
        <time>2025-06-22T09:42:47Z</time>
      </trkpt>
      <trkpt lat="48.97898" lon="7.28079">
        <ele>371</ele>
        <time>2025-06-22T09:42:48Z</time>
      </trkpt>
      <trkpt lat="48.979" lon="7.28085">
        <ele>371</ele>
        <time>2025-06-22T09:42:49Z</time>
      </trkpt>
      <trkpt lat="48.97901" lon="7.2809">
        <ele>371</ele>
        <time>2025-06-22T09:42:50Z</time>
      </trkpt>
      <trkpt lat="48.97903" lon="7.28095">
        <ele>371</ele>
        <time>2025-06-22T09:42:51Z</time>
      </trkpt>
      <trkpt lat="48.97904" lon="7.28101">
        <ele>371</ele>
        <time>2025-06-22T09:42:52Z</time>
      </trkpt>
      <trkpt lat="48.97906" lon="7.28106">
        <ele>371</ele>
        <time>2025-06-22T09:42:53Z</time>
      </trkpt>
      <trkpt lat="48.97907" lon="7.28111">
        <ele>371</ele>
        <time>2025-06-22T09:42:54Z</time>
      </trkpt>
      <trkpt lat="48.97909" lon="7.28116">
        <ele>372</ele>
        <time>2025-06-22T09:42:55Z</time>
      </trkpt>
      <trkpt lat="48.9791" lon="7.28122">
        <ele>372</ele>
        <time>2025-06-22T09:42:56Z</time>
      </trkpt>
      <trkpt lat="48.97912" lon="7.28127">
        <ele>372</ele>
        <time>2025-06-22T09:42:57Z</time>
      </trkpt>
      <trkpt lat="48.97913" lon="7.28132">
        <ele>372</ele>
        <time>2025-06-22T09:42:58Z</time>
      </trkpt>
      <trkpt lat="48.97915" lon="7.28138">
        <ele>372</ele>
        <time>2025-06-22T09:42:59Z</time>
      </trkpt>
      <trkpt lat="48.97916" lon="7.28143">
        <ele>372</ele>
        <time>2025-06-22T09:43:00Z</time>
      </trkpt>
      <trkpt lat="48.97918" lon="7.28148">
        <ele>372</ele>
        <time>2025-06-22T09:43:01Z</time>
      </trkpt>
      <trkpt lat="48.9792" lon="7.28154">
        <ele>372</ele>
        <time>2025-06-22T09:43:02Z</time>
      </trkpt>
      <trkpt lat="48.97921" lon="7.28159">
        <ele>372</ele>
        <time>2025-06-22T09:43:03Z</time>
      </trkpt>
      <trkpt lat="48.97922" lon="7.28165">
        <ele>372</ele>
        <time>2025-06-22T09:43:04Z</time>
      </trkpt>
      <trkpt lat="48.97924" lon="7.2817">
        <ele>372</ele>
        <time>2025-06-22T09:43:05Z</time>
      </trkpt>
      <trkpt lat="48.97925" lon="7.28175">
        <ele>372</ele>
        <time>2025-06-22T09:43:06Z</time>
      </trkpt>
      <trkpt lat="48.97927" lon="7.2818">
        <ele>372</ele>
        <time>2025-06-22T09:43:07Z</time>
      </trkpt>
      <trkpt lat="48.97928" lon="7.28185">
        <ele>372</ele>
        <time>2025-06-22T09:43:08Z</time>
      </trkpt>
      <trkpt lat="48.9793" lon="7.2819">
        <ele>372</ele>
        <time>2025-06-22T09:43:09Z</time>
      </trkpt>
      <trkpt lat="48.97931" lon="7.28195">
        <ele>372</ele>
        <time>2025-06-22T09:43:10Z</time>
      </trkpt>
      <trkpt lat="48.97933" lon="7.282">
        <ele>373</ele>
        <time>2025-06-22T09:43:11Z</time>
      </trkpt>
      <trkpt lat="48.97935" lon="7.28205">
        <ele>373</ele>
        <time>2025-06-22T09:43:12Z</time>
      </trkpt>
      <trkpt lat="48.97937" lon="7.2821">
        <ele>373</ele>
        <time>2025-06-22T09:43:13Z</time>
      </trkpt>
      <trkpt lat="48.97939" lon="7.28215">
        <ele>373</ele>
        <time>2025-06-22T09:43:14Z</time>
      </trkpt>
      <trkpt lat="48.97941" lon="7.2822">
        <ele>373</ele>
        <time>2025-06-22T09:43:15Z</time>
      </trkpt>
      <trkpt lat="48.97942" lon="7.28225">
        <ele>373</ele>
        <time>2025-06-22T09:43:16Z</time>
      </trkpt>
      <trkpt lat="48.97945" lon="7.28229">
        <ele>373</ele>
        <time>2025-06-22T09:43:17Z</time>
      </trkpt>
      <trkpt lat="48.97947" lon="7.28234">
        <ele>373</ele>
        <time>2025-06-22T09:43:18Z</time>
      </trkpt>
      <trkpt lat="48.97949" lon="7.28239">
        <ele>373</ele>
        <time>2025-06-22T09:43:19Z</time>
      </trkpt>
      <trkpt lat="48.97951" lon="7.28243">
        <ele>373</ele>
        <time>2025-06-22T09:43:20Z</time>
      </trkpt>
      <trkpt lat="48.97953" lon="7.28248">
        <ele>372</ele>
        <time>2025-06-22T09:43:21Z</time>
      </trkpt>
      <trkpt lat="48.97956" lon="7.28252">
        <ele>372</ele>
        <time>2025-06-22T09:43:22Z</time>
      </trkpt>
      <trkpt lat="48.97959" lon="7.28257">
        <ele>372</ele>
        <time>2025-06-22T09:43:23Z</time>
      </trkpt>
      <trkpt lat="48.97962" lon="7.28262">
        <ele>372</ele>
        <time>2025-06-22T09:43:24Z</time>
      </trkpt>
      <trkpt lat="48.97965" lon="7.28267">
        <ele>372</ele>
        <time>2025-06-22T09:43:25Z</time>
      </trkpt>
      <trkpt lat="48.97968" lon="7.28272">
        <ele>372</ele>
        <time>2025-06-22T09:43:26Z</time>
      </trkpt>
      <trkpt lat="48.97971" lon="7.28277">
        <ele>372</ele>
        <time>2025-06-22T09:43:27Z</time>
      </trkpt>
      <trkpt lat="48.97974" lon="7.28282">
        <ele>372</ele>
        <time>2025-06-22T09:43:28Z</time>
      </trkpt>
      <trkpt lat="48.97977" lon="7.28288">
        <ele>372</ele>
        <time>2025-06-22T09:43:29Z</time>
      </trkpt>
      <trkpt lat="48.97981" lon="7.28293">
        <ele>372</ele>
        <time>2025-06-22T09:43:30Z</time>
      </trkpt>
      <trkpt lat="48.97984" lon="7.28299">
        <ele>372</ele>
        <time>2025-06-22T09:43:31Z</time>
      </trkpt>
      <trkpt lat="48.97987" lon="7.28304">
        <ele>372</ele>
        <time>2025-06-22T09:43:32Z</time>
      </trkpt>
      <trkpt lat="48.9799" lon="7.28309">
        <ele>372</ele>
        <time>2025-06-22T09:43:33Z</time>
      </trkpt>
      <trkpt lat="48.97993" lon="7.28315">
        <ele>372</ele>
        <time>2025-06-22T09:43:34Z</time>
      </trkpt>
      <trkpt lat="48.97996" lon="7.2832">
        <ele>372</ele>
        <time>2025-06-22T09:43:35Z</time>
      </trkpt>
      <trkpt lat="48.98" lon="7.28326">
        <ele>372</ele>
        <time>2025-06-22T09:43:36Z</time>
      </trkpt>
      <trkpt lat="48.98003" lon="7.28331">
        <ele>372</ele>
        <time>2025-06-22T09:43:37Z</time>
      </trkpt>
      <trkpt lat="48.98006" lon="7.28337">
        <ele>372</ele>
        <time>2025-06-22T09:43:38Z</time>
      </trkpt>
      <trkpt lat="48.98009" lon="7.28342">
        <ele>372</ele>
        <time>2025-06-22T09:43:39Z</time>
      </trkpt>
      <trkpt lat="48.98012" lon="7.28348">
        <ele>372</ele>
        <time>2025-06-22T09:43:40Z</time>
      </trkpt>
      <trkpt lat="48.98016" lon="7.28353">
        <ele>372</ele>
        <time>2025-06-22T09:43:41Z</time>
      </trkpt>
      <trkpt lat="48.98019" lon="7.28358">
        <ele>372</ele>
        <time>2025-06-22T09:43:42Z</time>
      </trkpt>
      <trkpt lat="48.98022" lon="7.28363">
        <ele>372</ele>
        <time>2025-06-22T09:43:43Z</time>
      </trkpt>
      <trkpt lat="48.98025" lon="7.28369">
        <ele>372</ele>
        <time>2025-06-22T09:43:44Z</time>
      </trkpt>
      <trkpt lat="48.98028" lon="7.28374">
        <ele>371</ele>
        <time>2025-06-22T09:43:45Z</time>
      </trkpt>
      <trkpt lat="48.98032" lon="7.28379">
        <ele>371</ele>
        <time>2025-06-22T09:43:46Z</time>
      </trkpt>
      <trkpt lat="48.98035" lon="7.28385">
        <ele>371</ele>
        <time>2025-06-22T09:43:47Z</time>
      </trkpt>
      <trkpt lat="48.98038" lon="7.28391">
        <ele>371</ele>
        <time>2025-06-22T09:43:48Z</time>
      </trkpt>
      <trkpt lat="48.98042" lon="7.28397">
        <ele>371</ele>
        <time>2025-06-22T09:43:49Z</time>
      </trkpt>
      <trkpt lat="48.98046" lon="7.28403">
        <ele>371</ele>
        <time>2025-06-22T09:43:50Z</time>
      </trkpt>
      <trkpt lat="48.98049" lon="7.28409">
        <ele>371</ele>
        <time>2025-06-22T09:43:51Z</time>
      </trkpt>
      <trkpt lat="48.98053" lon="7.28415">
        <ele>371</ele>
        <time>2025-06-22T09:43:52Z</time>
      </trkpt>
      <trkpt lat="48.98057" lon="7.28422">
        <ele>371</ele>
        <time>2025-06-22T09:43:53Z</time>
      </trkpt>
      <trkpt lat="48.9806" lon="7.28428">
        <ele>371</ele>
        <time>2025-06-22T09:43:54Z</time>
      </trkpt>
      <trkpt lat="48.98064" lon="7.28434">
        <ele>371</ele>
        <time>2025-06-22T09:43:55Z</time>
      </trkpt>
      <trkpt lat="48.98067" lon="7.28441">
        <ele>371</ele>
        <time>2025-06-22T09:43:56Z</time>
      </trkpt>
      <trkpt lat="48.98071" lon="7.28447">
        <ele>371</ele>
        <time>2025-06-22T09:43:57Z</time>
      </trkpt>
      <trkpt lat="48.98075" lon="7.28452">
        <ele>371</ele>
        <time>2025-06-22T09:43:58Z</time>
      </trkpt>
      <trkpt lat="48.98078" lon="7.28458">
        <ele>371</ele>
        <time>2025-06-22T09:43:59Z</time>
      </trkpt>
      <trkpt lat="48.98082" lon="7.28464">
        <ele>371</ele>
        <time>2025-06-22T09:44:00Z</time>
      </trkpt>
      <trkpt lat="48.98085" lon="7.2847">
        <ele>371</ele>
        <time>2025-06-22T09:44:01Z</time>
      </trkpt>
      <trkpt lat="48.98089" lon="7.28476">
        <ele>371</ele>
        <time>2025-06-22T09:44:02Z</time>
      </trkpt>
      <trkpt lat="48.98092" lon="7.28482">
        <ele>370</ele>
        <time>2025-06-22T09:44:03Z</time>
      </trkpt>
      <trkpt lat="48.98096" lon="7.28487">
        <ele>370</ele>
        <time>2025-06-22T09:44:04Z</time>
      </trkpt>
      <trkpt lat="48.981" lon="7.28493">
        <ele>370</ele>
        <time>2025-06-22T09:44:05Z</time>
      </trkpt>
      <trkpt lat="48.98104" lon="7.28498">
        <ele>370</ele>
        <time>2025-06-22T09:44:06Z</time>
      </trkpt>
      <trkpt lat="48.98108" lon="7.28503">
        <ele>370</ele>
        <time>2025-06-22T09:44:07Z</time>
      </trkpt>
      <trkpt lat="48.98113" lon="7.28508">
        <ele>370</ele>
        <time>2025-06-22T09:44:08Z</time>
      </trkpt>
      <trkpt lat="48.98117" lon="7.28514">
        <ele>370</ele>
        <time>2025-06-22T09:44:09Z</time>
      </trkpt>
      <trkpt lat="48.98122" lon="7.28518">
        <ele>370</ele>
        <time>2025-06-22T09:44:10Z</time>
      </trkpt>
      <trkpt lat="48.98126" lon="7.28523">
        <ele>370</ele>
        <time>2025-06-22T09:44:11Z</time>
      </trkpt>
      <trkpt lat="48.9813" lon="7.28527">
        <ele>370</ele>
        <time>2025-06-22T09:44:12Z</time>
      </trkpt>
      <trkpt lat="48.98135" lon="7.28531">
        <ele>370</ele>
        <time>2025-06-22T09:44:13Z</time>
      </trkpt>
      <trkpt lat="48.9814" lon="7.28536">
        <ele>370</ele>
        <time>2025-06-22T09:44:14Z</time>
      </trkpt>
      <trkpt lat="48.98144" lon="7.28541">
        <ele>370</ele>
        <time>2025-06-22T09:44:15Z</time>
      </trkpt>
      <trkpt lat="48.98149" lon="7.28545">
        <ele>370</ele>
        <time>2025-06-22T09:44:16Z</time>
      </trkpt>
      <trkpt lat="48.98153" lon="7.28549">
        <ele>369</ele>
        <time>2025-06-22T09:44:17Z</time>
      </trkpt>
      <trkpt lat="48.98158" lon="7.28554">
        <ele>369</ele>
        <time>2025-06-22T09:44:18Z</time>
      </trkpt>
      <trkpt lat="48.98162" lon="7.28558">
        <ele>369</ele>
        <time>2025-06-22T09:44:19Z</time>
      </trkpt>
      <trkpt lat="48.98167" lon="7.28562">
        <ele>369</ele>
        <time>2025-06-22T09:44:20Z</time>
      </trkpt>
      <trkpt lat="48.98171" lon="7.28566">
        <ele>369</ele>
        <time>2025-06-22T09:44:21Z</time>
      </trkpt>
      <trkpt lat="48.98175" lon="7.28571">
        <ele>369</ele>
        <time>2025-06-22T09:44:22Z</time>
      </trkpt>
      <trkpt lat="48.9818" lon="7.28576">
        <ele>369</ele>
        <time>2025-06-22T09:44:23Z</time>
      </trkpt>
      <trkpt lat="48.98188" lon="7.28584">
        <ele>369</ele>
        <time>2025-06-22T09:44:25Z</time>
      </trkpt>
      <trkpt lat="48.98192" lon="7.28589">
        <ele>369</ele>
        <time>2025-06-22T09:44:26Z</time>
      </trkpt>
      <trkpt lat="48.98196" lon="7.28593">
        <ele>369</ele>
        <time>2025-06-22T09:44:27Z</time>
      </trkpt>
      <trkpt lat="48.98201" lon="7.28598">
        <ele>369</ele>
        <time>2025-06-22T09:44:28Z</time>
      </trkpt>
      <trkpt lat="48.98206" lon="7.28602">
        <ele>369</ele>
        <time>2025-06-22T09:44:29Z</time>
      </trkpt>
      <trkpt lat="48.98211" lon="7.28606">
        <ele>369</ele>
        <time>2025-06-22T09:44:30Z</time>
      </trkpt>
      <trkpt lat="48.98216" lon="7.2861">
        <ele>369</ele>
        <time>2025-06-22T09:44:31Z</time>
      </trkpt>
      <trkpt lat="48.98221" lon="7.28614">
        <ele>368</ele>
        <time>2025-06-22T09:44:32Z</time>
      </trkpt>
      <trkpt lat="48.98227" lon="7.28618">
        <ele>368</ele>
        <time>2025-06-22T09:44:33Z</time>
      </trkpt>
      <trkpt lat="48.98233" lon="7.28621">
        <ele>368</ele>
        <time>2025-06-22T09:44:34Z</time>
      </trkpt>
      <trkpt lat="48.98239" lon="7.28624">
        <ele>368</ele>
        <time>2025-06-22T09:44:35Z</time>
      </trkpt>
      <trkpt lat="48.98245" lon="7.28627">
        <ele>368</ele>
        <time>2025-06-22T09:44:36Z</time>
      </trkpt>
      <trkpt lat="48.98252" lon="7.2863">
        <ele>368</ele>
        <time>2025-06-22T09:44:37Z</time>
      </trkpt>
      <trkpt lat="48.98258" lon="7.28634">
        <ele>367</ele>
        <time>2025-06-22T09:44:38Z</time>
      </trkpt>
      <trkpt lat="48.98265" lon="7.28637">
        <ele>367</ele>
        <time>2025-06-22T09:44:39Z</time>
      </trkpt>
      <trkpt lat="48.98271" lon="7.28641">
        <ele>366</ele>
        <time>2025-06-22T09:44:40Z</time>
      </trkpt>
      <trkpt lat="48.98278" lon="7.28644">
        <ele>366</ele>
        <time>2025-06-22T09:44:41Z</time>
      </trkpt>
      <trkpt lat="48.98285" lon="7.28647">
        <ele>366</ele>
        <time>2025-06-22T09:44:42Z</time>
      </trkpt>
      <trkpt lat="48.98292" lon="7.2865">
        <ele>366</ele>
        <time>2025-06-22T09:44:43Z</time>
      </trkpt>
      <trkpt lat="48.98298" lon="7.28654">
        <ele>366</ele>
        <time>2025-06-22T09:44:44Z</time>
      </trkpt>
      <trkpt lat="48.98305" lon="7.28657">
        <ele>365</ele>
        <time>2025-06-22T09:44:45Z</time>
      </trkpt>
      <trkpt lat="48.98312" lon="7.28661">
        <ele>364</ele>
        <time>2025-06-22T09:44:46Z</time>
      </trkpt>
      <trkpt lat="48.9832" lon="7.28664">
        <ele>364</ele>
        <time>2025-06-22T09:44:47Z</time>
      </trkpt>
      <trkpt lat="48.98327" lon="7.28668">
        <ele>363</ele>
        <time>2025-06-22T09:44:48Z</time>
      </trkpt>
      <trkpt lat="48.98334" lon="7.28671">
        <ele>363</ele>
        <time>2025-06-22T09:44:49Z</time>
      </trkpt>
      <trkpt lat="48.98341" lon="7.28675">
        <ele>363</ele>
        <time>2025-06-22T09:44:50Z</time>
      </trkpt>
      <trkpt lat="48.98348" lon="7.28678">
        <ele>363</ele>
        <time>2025-06-22T09:44:51Z</time>
      </trkpt>
      <trkpt lat="48.98355" lon="7.28682">
        <ele>363</ele>
        <time>2025-06-22T09:44:52Z</time>
      </trkpt>
      <trkpt lat="48.98363" lon="7.28685">
        <ele>363</ele>
        <time>2025-06-22T09:44:53Z</time>
      </trkpt>
      <trkpt lat="48.9837" lon="7.28689">
        <ele>363</ele>
        <time>2025-06-22T09:44:54Z</time>
      </trkpt>
      <trkpt lat="48.98377" lon="7.28693">
        <ele>363</ele>
        <time>2025-06-22T09:44:55Z</time>
      </trkpt>
      <trkpt lat="48.98385" lon="7.28697">
        <ele>363</ele>
        <time>2025-06-22T09:44:56Z</time>
      </trkpt>
      <trkpt lat="48.98392" lon="7.287">
        <ele>363</ele>
        <time>2025-06-22T09:44:57Z</time>
      </trkpt>
      <trkpt lat="48.984" lon="7.28704">
        <ele>362</ele>
        <time>2025-06-22T09:44:58Z</time>
      </trkpt>
      <trkpt lat="48.98407" lon="7.28708">
        <ele>362</ele>
        <time>2025-06-22T09:44:59Z</time>
      </trkpt>
      <trkpt lat="48.98414" lon="7.28712">
        <ele>362</ele>
        <time>2025-06-22T09:45:00Z</time>
      </trkpt>
      <trkpt lat="48.98421" lon="7.28715">
        <ele>362</ele>
        <time>2025-06-22T09:45:01Z</time>
      </trkpt>
      <trkpt lat="48.98429" lon="7.28718">
        <ele>362</ele>
        <time>2025-06-22T09:45:02Z</time>
      </trkpt>
      <trkpt lat="48.98436" lon="7.28722">
        <ele>361</ele>
        <time>2025-06-22T09:45:03Z</time>
      </trkpt>
      <trkpt lat="48.98443" lon="7.28725">
        <ele>361</ele>
        <time>2025-06-22T09:45:04Z</time>
      </trkpt>
      <trkpt lat="48.9845" lon="7.28729">
        <ele>361</ele>
        <time>2025-06-22T09:45:05Z</time>
      </trkpt>
      <trkpt lat="48.98456" lon="7.28732">
        <ele>361</ele>
        <time>2025-06-22T09:45:06Z</time>
      </trkpt>
      <trkpt lat="48.98463" lon="7.28736">
        <ele>361</ele>
        <time>2025-06-22T09:45:07Z</time>
      </trkpt>
      <trkpt lat="48.9847" lon="7.28739">
        <ele>361</ele>
        <time>2025-06-22T09:45:08Z</time>
      </trkpt>
      <trkpt lat="48.98477" lon="7.28742">
        <ele>360</ele>
        <time>2025-06-22T09:45:09Z</time>
      </trkpt>
      <trkpt lat="48.98484" lon="7.28746">
        <ele>360</ele>
        <time>2025-06-22T09:45:10Z</time>
      </trkpt>
      <trkpt lat="48.98491" lon="7.28749">
        <ele>360</ele>
        <time>2025-06-22T09:45:11Z</time>
      </trkpt>
      <trkpt lat="48.98498" lon="7.28752">
        <ele>360</ele>
        <time>2025-06-22T09:45:12Z</time>
      </trkpt>
      <trkpt lat="48.98504" lon="7.28755">
        <ele>360</ele>
        <time>2025-06-22T09:45:13Z</time>
      </trkpt>
      <trkpt lat="48.98511" lon="7.28758">
        <ele>360</ele>
        <time>2025-06-22T09:45:14Z</time>
      </trkpt>
      <trkpt lat="48.98517" lon="7.28761">
        <ele>360</ele>
        <time>2025-06-22T09:45:15Z</time>
      </trkpt>
      <trkpt lat="48.98523" lon="7.28765">
        <ele>360</ele>
        <time>2025-06-22T09:45:16Z</time>
      </trkpt>
      <trkpt lat="48.98529" lon="7.28768">
        <ele>360</ele>
        <time>2025-06-22T09:45:17Z</time>
      </trkpt>
      <trkpt lat="48.98536" lon="7.28771">
        <ele>360</ele>
        <time>2025-06-22T09:45:18Z</time>
      </trkpt>
      <trkpt lat="48.98542" lon="7.28774">
        <ele>360</ele>
        <time>2025-06-22T09:45:19Z</time>
      </trkpt>
      <trkpt lat="48.98548" lon="7.28777">
        <ele>360</ele>
        <time>2025-06-22T09:45:20Z</time>
      </trkpt>
      <trkpt lat="48.98554" lon="7.2878">
        <ele>360</ele>
        <time>2025-06-22T09:45:21Z</time>
      </trkpt>
      <trkpt lat="48.9856" lon="7.28783">
        <ele>360</ele>
        <time>2025-06-22T09:45:22Z</time>
      </trkpt>
      <trkpt lat="48.98566" lon="7.28786">
        <ele>360</ele>
        <time>2025-06-22T09:45:23Z</time>
      </trkpt>
      <trkpt lat="48.98572" lon="7.28789">
        <ele>360</ele>
        <time>2025-06-22T09:45:24Z</time>
      </trkpt>
      <trkpt lat="48.98577" lon="7.28792">
        <ele>360</ele>
        <time>2025-06-22T09:45:25Z</time>
      </trkpt>
      <trkpt lat="48.98583" lon="7.28795">
        <ele>360</ele>
        <time>2025-06-22T09:45:26Z</time>
      </trkpt>
      <trkpt lat="48.98589" lon="7.28798">
        <ele>359</ele>
        <time>2025-06-22T09:45:27Z</time>
      </trkpt>
      <trkpt lat="48.98594" lon="7.28801">
        <ele>359</ele>
        <time>2025-06-22T09:45:28Z</time>
      </trkpt>
      <trkpt lat="48.986" lon="7.28804">
        <ele>359</ele>
        <time>2025-06-22T09:45:29Z</time>
      </trkpt>
      <trkpt lat="48.98605" lon="7.28807">
        <ele>359</ele>
        <time>2025-06-22T09:45:30Z</time>
      </trkpt>
      <trkpt lat="48.9861" lon="7.28809">
        <ele>359</ele>
        <time>2025-06-22T09:45:31Z</time>
      </trkpt>
      <trkpt lat="48.98616" lon="7.28812">
        <ele>359</ele>
        <time>2025-06-22T09:45:32Z</time>
      </trkpt>
      <trkpt lat="48.98621" lon="7.28815">
        <ele>359</ele>
        <time>2025-06-22T09:45:33Z</time>
      </trkpt>
      <trkpt lat="48.98626" lon="7.28817">
        <ele>359</ele>
        <time>2025-06-22T09:45:34Z</time>
      </trkpt>
      <trkpt lat="48.98631" lon="7.2882">
        <ele>359</ele>
        <time>2025-06-22T09:45:35Z</time>
      </trkpt>
      <trkpt lat="48.98636" lon="7.28823">
        <ele>359</ele>
        <time>2025-06-22T09:45:36Z</time>
      </trkpt>
      <trkpt lat="48.98641" lon="7.28825">
        <ele>359</ele>
        <time>2025-06-22T09:45:37Z</time>
      </trkpt>
      <trkpt lat="48.98645" lon="7.28828">
        <ele>359</ele>
        <time>2025-06-22T09:45:38Z</time>
      </trkpt>
      <trkpt lat="48.9865" lon="7.28831">
        <ele>359</ele>
        <time>2025-06-22T09:45:39Z</time>
      </trkpt>
      <trkpt lat="48.98655" lon="7.28833">
        <ele>359</ele>
        <time>2025-06-22T09:45:40Z</time>
      </trkpt>
      <trkpt lat="48.9866" lon="7.28836">
        <ele>359</ele>
        <time>2025-06-22T09:45:41Z</time>
      </trkpt>
      <trkpt lat="48.98665" lon="7.28838">
        <ele>359</ele>
        <time>2025-06-22T09:45:42Z</time>
      </trkpt>
      <trkpt lat="48.9867" lon="7.28841">
        <ele>359</ele>
        <time>2025-06-22T09:45:43Z</time>
      </trkpt>
      <trkpt lat="48.98675" lon="7.28844">
        <ele>359</ele>
        <time>2025-06-22T09:45:44Z</time>
      </trkpt>
      <trkpt lat="48.9868" lon="7.28847">
        <ele>359</ele>
        <time>2025-06-22T09:45:45Z</time>
      </trkpt>
      <trkpt lat="48.98684" lon="7.2885">
        <ele>358</ele>
        <time>2025-06-22T09:45:46Z</time>
      </trkpt>
      <trkpt lat="48.98689" lon="7.28853">
        <ele>358</ele>
        <time>2025-06-22T09:45:47Z</time>
      </trkpt>
      <trkpt lat="48.98694" lon="7.28856">
        <ele>358</ele>
        <time>2025-06-22T09:45:48Z</time>
      </trkpt>
      <trkpt lat="48.98699" lon="7.2886">
        <ele>358</ele>
        <time>2025-06-22T09:45:49Z</time>
      </trkpt>
      <trkpt lat="48.98704" lon="7.28864">
        <ele>358</ele>
        <time>2025-06-22T09:45:50Z</time>
      </trkpt>
      <trkpt lat="48.98708" lon="7.28868">
        <ele>358</ele>
        <time>2025-06-22T09:45:51Z</time>
      </trkpt>
      <trkpt lat="48.98713" lon="7.28872">
        <ele>358</ele>
        <time>2025-06-22T09:45:52Z</time>
      </trkpt>
      <trkpt lat="48.98718" lon="7.28876">
        <ele>358</ele>
        <time>2025-06-22T09:45:53Z</time>
      </trkpt>
      <trkpt lat="48.98723" lon="7.2888">
        <ele>358</ele>
        <time>2025-06-22T09:45:54Z</time>
      </trkpt>
      <trkpt lat="48.98728" lon="7.28884">
        <ele>358</ele>
        <time>2025-06-22T09:45:55Z</time>
      </trkpt>
      <trkpt lat="48.98732" lon="7.28888">
        <ele>358</ele>
        <time>2025-06-22T09:45:56Z</time>
      </trkpt>
      <trkpt lat="48.98737" lon="7.28892">
        <ele>358</ele>
        <time>2025-06-22T09:45:57Z</time>
      </trkpt>
      <trkpt lat="48.98742" lon="7.28896">
        <ele>358</ele>
        <time>2025-06-22T09:45:58Z</time>
      </trkpt>
      <trkpt lat="48.98746" lon="7.289">
        <ele>358</ele>
        <time>2025-06-22T09:45:59Z</time>
      </trkpt>
      <trkpt lat="48.9875" lon="7.28905">
        <ele>358</ele>
        <time>2025-06-22T09:46:00Z</time>
      </trkpt>
      <trkpt lat="48.98755" lon="7.28909">
        <ele>358</ele>
        <time>2025-06-22T09:46:01Z</time>
      </trkpt>
      <trkpt lat="48.98759" lon="7.28913">
        <ele>358</ele>
        <time>2025-06-22T09:46:02Z</time>
      </trkpt>
      <trkpt lat="48.98764" lon="7.28917">
        <ele>358</ele>
        <time>2025-06-22T09:46:03Z</time>
      </trkpt>
      <trkpt lat="48.98768" lon="7.28921">
        <ele>358</ele>
        <time>2025-06-22T09:46:04Z</time>
      </trkpt>
      <trkpt lat="48.98772" lon="7.28925">
        <ele>358</ele>
        <time>2025-06-22T09:46:05Z</time>
      </trkpt>
      <trkpt lat="48.98777" lon="7.28929">
        <ele>358</ele>
        <time>2025-06-22T09:46:06Z</time>
      </trkpt>
      <trkpt lat="48.98781" lon="7.28933">
        <ele>358</ele>
        <time>2025-06-22T09:46:07Z</time>
      </trkpt>
      <trkpt lat="48.98786" lon="7.28938">
        <ele>358</ele>
        <time>2025-06-22T09:46:08Z</time>
      </trkpt>
      <trkpt lat="48.9879" lon="7.28943">
        <ele>358</ele>
        <time>2025-06-22T09:46:09Z</time>
      </trkpt>
      <trkpt lat="48.98794" lon="7.28948">
        <ele>358</ele>
        <time>2025-06-22T09:46:10Z</time>
      </trkpt>
      <trkpt lat="48.98798" lon="7.28953">
        <ele>358</ele>
        <time>2025-06-22T09:46:11Z</time>
      </trkpt>
      <trkpt lat="48.98802" lon="7.28958">
        <ele>358</ele>
        <time>2025-06-22T09:46:12Z</time>
      </trkpt>
      <trkpt lat="48.98806" lon="7.28963">
        <ele>358</ele>
        <time>2025-06-22T09:46:13Z</time>
      </trkpt>
      <trkpt lat="48.98809" lon="7.28969">
        <ele>358</ele>
        <time>2025-06-22T09:46:14Z</time>
      </trkpt>
      <trkpt lat="48.98813" lon="7.28974">
        <ele>358</ele>
        <time>2025-06-22T09:46:15Z</time>
      </trkpt>
      <trkpt lat="48.98816" lon="7.2898">
        <ele>358</ele>
        <time>2025-06-22T09:46:16Z</time>
      </trkpt>
      <trkpt lat="48.98819" lon="7.28986">
        <ele>358</ele>
        <time>2025-06-22T09:46:17Z</time>
      </trkpt>
      <trkpt lat="48.98822" lon="7.28992">
        <ele>358</ele>
        <time>2025-06-22T09:46:18Z</time>
      </trkpt>
      <trkpt lat="48.98825" lon="7.28998">
        <ele>358</ele>
        <time>2025-06-22T09:46:19Z</time>
      </trkpt>
      <trkpt lat="48.98829" lon="7.29004">
        <ele>358</ele>
        <time>2025-06-22T09:46:20Z</time>
      </trkpt>
      <trkpt lat="48.98832" lon="7.2901">
        <ele>358</ele>
        <time>2025-06-22T09:46:21Z</time>
      </trkpt>
      <trkpt lat="48.98835" lon="7.29016">
        <ele>358</ele>
        <time>2025-06-22T09:46:22Z</time>
      </trkpt>
      <trkpt lat="48.98838" lon="7.29022">
        <ele>358</ele>
        <time>2025-06-22T09:46:23Z</time>
      </trkpt>
      <trkpt lat="48.98841" lon="7.29029">
        <ele>358</ele>
        <time>2025-06-22T09:46:24Z</time>
      </trkpt>
      <trkpt lat="48.98844" lon="7.29035">
        <ele>358</ele>
        <time>2025-06-22T09:46:25Z</time>
      </trkpt>
      <trkpt lat="48.98847" lon="7.29042">
        <ele>358</ele>
        <time>2025-06-22T09:46:26Z</time>
      </trkpt>
      <trkpt lat="48.98849" lon="7.29048">
        <ele>358</ele>
        <time>2025-06-22T09:46:27Z</time>
      </trkpt>
      <trkpt lat="48.98852" lon="7.29055">
        <ele>358</ele>
        <time>2025-06-22T09:46:28Z</time>
      </trkpt>
      <trkpt lat="48.98854" lon="7.29062">
        <ele>358</ele>
        <time>2025-06-22T09:46:29Z</time>
      </trkpt>
      <trkpt lat="48.98856" lon="7.29069">
        <ele>358</ele>
        <time>2025-06-22T09:46:30Z</time>
      </trkpt>
      <trkpt lat="48.98858" lon="7.29077">
        <ele>358</ele>
        <time>2025-06-22T09:46:31Z</time>
      </trkpt>
      <trkpt lat="48.98859" lon="7.29085">
        <ele>358</ele>
        <time>2025-06-22T09:46:32Z</time>
      </trkpt>
      <trkpt lat="48.98861" lon="7.29093">
        <ele>358</ele>
        <time>2025-06-22T09:46:33Z</time>
      </trkpt>
      <trkpt lat="48.98863" lon="7.291">
        <ele>358</ele>
        <time>2025-06-22T09:46:34Z</time>
      </trkpt>
      <trkpt lat="48.98866" lon="7.29106">
        <ele>358</ele>
        <time>2025-06-22T09:46:35Z</time>
      </trkpt>
      <trkpt lat="48.9887" lon="7.29111">
        <ele>358</ele>
        <time>2025-06-22T09:46:36Z</time>
      </trkpt>
      <trkpt lat="48.98874" lon="7.29116">
        <ele>358</ele>
        <time>2025-06-22T09:46:37Z</time>
      </trkpt>
      <trkpt lat="48.98877" lon="7.29121">
        <ele>358</ele>
        <time>2025-06-22T09:46:38Z</time>
      </trkpt>
      <trkpt lat="48.98881" lon="7.29127">
        <ele>358</ele>
        <time>2025-06-22T09:46:39Z</time>
      </trkpt>
      <trkpt lat="48.98883" lon="7.29134">
        <ele>358</ele>
        <time>2025-06-22T09:46:40Z</time>
      </trkpt>
      <trkpt lat="48.98885" lon="7.29141">
        <ele>358</ele>
        <time>2025-06-22T09:46:41Z</time>
      </trkpt>
      <trkpt lat="48.98887" lon="7.29149">
        <ele>358</ele>
        <time>2025-06-22T09:46:42Z</time>
      </trkpt>
      <trkpt lat="48.98888" lon="7.29156">
        <ele>358</ele>
        <time>2025-06-22T09:46:43Z</time>
      </trkpt>
      <trkpt lat="48.9889" lon="7.29164">
        <ele>358</ele>
        <time>2025-06-22T09:46:44Z</time>
      </trkpt>
      <trkpt lat="48.98892" lon="7.29171">
        <ele>358</ele>
        <time>2025-06-22T09:46:45Z</time>
      </trkpt>
      <trkpt lat="48.98894" lon="7.29179">
        <ele>358</ele>
        <time>2025-06-22T09:46:46Z</time>
      </trkpt>
      <trkpt lat="48.98895" lon="7.29187">
        <ele>358</ele>
        <time>2025-06-22T09:46:47Z</time>
      </trkpt>
      <trkpt lat="48.98897" lon="7.29194">
        <ele>358</ele>
        <time>2025-06-22T09:46:48Z</time>
      </trkpt>
      <trkpt lat="48.98899" lon="7.29202">
        <ele>358</ele>
        <time>2025-06-22T09:46:49Z</time>
      </trkpt>
      <trkpt lat="48.989" lon="7.29209">
        <ele>358</ele>
        <time>2025-06-22T09:46:50Z</time>
      </trkpt>
      <trkpt lat="48.98902" lon="7.29217">
        <ele>358</ele>
        <time>2025-06-22T09:46:51Z</time>
      </trkpt>
      <trkpt lat="48.98903" lon="7.29224">
        <ele>358</ele>
        <time>2025-06-22T09:46:52Z</time>
      </trkpt>
      <trkpt lat="48.98905" lon="7.29231">
        <ele>358</ele>
        <time>2025-06-22T09:46:53Z</time>
      </trkpt>
      <trkpt lat="48.98907" lon="7.29237">
        <ele>358</ele>
        <time>2025-06-22T09:46:54Z</time>
      </trkpt>
      <trkpt lat="48.98909" lon="7.29244">
        <ele>358</ele>
        <time>2025-06-22T09:46:55Z</time>
      </trkpt>
      <trkpt lat="48.98912" lon="7.2925">
        <ele>358</ele>
        <time>2025-06-22T09:46:56Z</time>
      </trkpt>
      <trkpt lat="48.98914" lon="7.29256">
        <ele>358</ele>
        <time>2025-06-22T09:46:57Z</time>
      </trkpt>
      <trkpt lat="48.98916" lon="7.29262">
        <ele>358</ele>
        <time>2025-06-22T09:46:58Z</time>
      </trkpt>
      <trkpt lat="48.98919" lon="7.29268">
        <ele>358</ele>
        <time>2025-06-22T09:46:59Z</time>
      </trkpt>
      <trkpt lat="48.98921" lon="7.29274">
        <ele>358</ele>
        <time>2025-06-22T09:47:00Z</time>
      </trkpt>
      <trkpt lat="48.98923" lon="7.2928">
        <ele>358</ele>
        <time>2025-06-22T09:47:01Z</time>
      </trkpt>
      <trkpt lat="48.98926" lon="7.29286">
        <ele>358</ele>
        <time>2025-06-22T09:47:02Z</time>
      </trkpt>
      <trkpt lat="48.98928" lon="7.29291">
        <ele>358</ele>
        <time>2025-06-22T09:47:03Z</time>
      </trkpt>
      <trkpt lat="48.9893" lon="7.29297">
        <ele>358</ele>
        <time>2025-06-22T09:47:04Z</time>
      </trkpt>
      <trkpt lat="48.98933" lon="7.29303">
        <ele>359</ele>
        <time>2025-06-22T09:47:05Z</time>
      </trkpt>
      <trkpt lat="48.98935" lon="7.29308">
        <ele>359</ele>
        <time>2025-06-22T09:47:06Z</time>
      </trkpt>
      <trkpt lat="48.98937" lon="7.29314">
        <ele>359</ele>
        <time>2025-06-22T09:47:07Z</time>
      </trkpt>
      <trkpt lat="48.98939" lon="7.2932">
        <ele>359</ele>
        <time>2025-06-22T09:47:08Z</time>
      </trkpt>
      <trkpt lat="48.98942" lon="7.29325">
        <ele>359</ele>
        <time>2025-06-22T09:47:09Z</time>
      </trkpt>
      <trkpt lat="48.98944" lon="7.29331">
        <ele>359</ele>
        <time>2025-06-22T09:47:10Z</time>
      </trkpt>
      <trkpt lat="48.98946" lon="7.29336">
        <ele>359</ele>
        <time>2025-06-22T09:47:11Z</time>
      </trkpt>
      <trkpt lat="48.98949" lon="7.29342">
        <ele>359</ele>
        <time>2025-06-22T09:47:12Z</time>
      </trkpt>
      <trkpt lat="48.98951" lon="7.29347">
        <ele>359</ele>
        <time>2025-06-22T09:47:13Z</time>
      </trkpt>
      <trkpt lat="48.98953" lon="7.29353">
        <ele>360</ele>
        <time>2025-06-22T09:47:14Z</time>
      </trkpt>
      <trkpt lat="48.98956" lon="7.29358">
        <ele>360</ele>
        <time>2025-06-22T09:47:15Z</time>
      </trkpt>
      <trkpt lat="48.98958" lon="7.29364">
        <ele>360</ele>
        <time>2025-06-22T09:47:16Z</time>
      </trkpt>
      <trkpt lat="48.9896" lon="7.29369">
        <ele>360</ele>
        <time>2025-06-22T09:47:17Z</time>
      </trkpt>
      <trkpt lat="48.98962" lon="7.29375">
        <ele>360</ele>
        <time>2025-06-22T09:47:18Z</time>
      </trkpt>
      <trkpt lat="48.98964" lon="7.2938">
        <ele>361</ele>
        <time>2025-06-22T09:47:19Z</time>
      </trkpt>
      <trkpt lat="48.98966" lon="7.29385">
        <ele>361</ele>
        <time>2025-06-22T09:47:20Z</time>
      </trkpt>
      <trkpt lat="48.98968" lon="7.2939">
        <ele>361</ele>
        <time>2025-06-22T09:47:21Z</time>
      </trkpt>
      <trkpt lat="48.9897" lon="7.29395">
        <ele>361</ele>
        <time>2025-06-22T09:47:22Z</time>
      </trkpt>
      <trkpt lat="48.98972" lon="7.294">
        <ele>361</ele>
        <time>2025-06-22T09:47:23Z</time>
      </trkpt>
      <trkpt lat="48.98974" lon="7.29405">
        <ele>361</ele>
        <time>2025-06-22T09:47:24Z</time>
      </trkpt>
      <trkpt lat="48.98976" lon="7.2941">
        <ele>361</ele>
        <time>2025-06-22T09:47:25Z</time>
      </trkpt>
      <trkpt lat="48.98977" lon="7.29415">
        <ele>361</ele>
        <time>2025-06-22T09:47:26Z</time>
      </trkpt>
      <trkpt lat="48.98979" lon="7.29421">
        <ele>361</ele>
        <time>2025-06-22T09:47:27Z</time>
      </trkpt>
      <trkpt lat="48.98981" lon="7.29426">
        <ele>361</ele>
        <time>2025-06-22T09:47:28Z</time>
      </trkpt>
      <trkpt lat="48.98984" lon="7.29431">
        <ele>361</ele>
        <time>2025-06-22T09:47:29Z</time>
      </trkpt>
      <trkpt lat="48.98986" lon="7.29436">
        <ele>361</ele>
        <time>2025-06-22T09:47:30Z</time>
      </trkpt>
      <trkpt lat="48.98988" lon="7.29442">
        <ele>361</ele>
        <time>2025-06-22T09:47:31Z</time>
      </trkpt>
      <trkpt lat="48.9899" lon="7.29447">
        <ele>361</ele>
        <time>2025-06-22T09:47:32Z</time>
      </trkpt>
      <trkpt lat="48.98992" lon="7.29452">
        <ele>361</ele>
        <time>2025-06-22T09:47:33Z</time>
      </trkpt>
      <trkpt lat="48.98994" lon="7.29457">
        <ele>361</ele>
        <time>2025-06-22T09:47:34Z</time>
      </trkpt>
      <trkpt lat="48.98997" lon="7.29462">
        <ele>361</ele>
        <time>2025-06-22T09:47:35Z</time>
      </trkpt>
      <trkpt lat="48.98999" lon="7.29467">
        <ele>361</ele>
        <time>2025-06-22T09:47:36Z</time>
      </trkpt>
      <trkpt lat="48.99001" lon="7.29472">
        <ele>361</ele>
        <time>2025-06-22T09:47:37Z</time>
      </trkpt>
      <trkpt lat="48.99003" lon="7.29477">
        <ele>362</ele>
        <time>2025-06-22T09:47:38Z</time>
      </trkpt>
      <trkpt lat="48.99005" lon="7.29482">
        <ele>362</ele>
        <time>2025-06-22T09:47:39Z</time>
      </trkpt>
      <trkpt lat="48.99008" lon="7.29487">
        <ele>362</ele>
        <time>2025-06-22T09:47:40Z</time>
      </trkpt>
      <trkpt lat="48.9901" lon="7.29492">
        <ele>362</ele>
        <time>2025-06-22T09:47:41Z</time>
      </trkpt>
      <trkpt lat="48.99012" lon="7.29497">
        <ele>362</ele>
        <time>2025-06-22T09:47:42Z</time>
      </trkpt>
      <trkpt lat="48.99015" lon="7.29502">
        <ele>363</ele>
        <time>2025-06-22T09:47:43Z</time>
      </trkpt>
      <trkpt lat="48.99017" lon="7.29508">
        <ele>363</ele>
        <time>2025-06-22T09:47:44Z</time>
      </trkpt>
      <trkpt lat="48.99019" lon="7.29513">
        <ele>363</ele>
        <time>2025-06-22T09:47:45Z</time>
      </trkpt>
      <trkpt lat="48.99021" lon="7.29518">
        <ele>363</ele>
        <time>2025-06-22T09:47:46Z</time>
      </trkpt>
      <trkpt lat="48.99023" lon="7.29523">
        <ele>363</ele>
        <time>2025-06-22T09:47:47Z</time>
      </trkpt>
      <trkpt lat="48.99026" lon="7.29528">
        <ele>363</ele>
        <time>2025-06-22T09:47:48Z</time>
      </trkpt>
      <trkpt lat="48.99028" lon="7.29533">
        <ele>363</ele>
        <time>2025-06-22T09:47:49Z</time>
      </trkpt>
      <trkpt lat="48.9903" lon="7.29539">
        <ele>363</ele>
        <time>2025-06-22T09:47:50Z</time>
      </trkpt>
      <trkpt lat="48.99032" lon="7.29544">
        <ele>363</ele>
        <time>2025-06-22T09:47:51Z</time>
      </trkpt>
      <trkpt lat="48.99034" lon="7.29549">
        <ele>363</ele>
        <time>2025-06-22T09:47:52Z</time>
      </trkpt>
      <trkpt lat="48.99036" lon="7.29555">
        <ele>364</ele>
        <time>2025-06-22T09:47:53Z</time>
      </trkpt>
      <trkpt lat="48.99038" lon="7.2956">
        <ele>364</ele>
        <time>2025-06-22T09:47:54Z</time>
      </trkpt>
      <trkpt lat="48.9904" lon="7.29566">
        <ele>364</ele>
        <time>2025-06-22T09:47:55Z</time>
      </trkpt>
      <trkpt lat="48.99042" lon="7.29572">
        <ele>364</ele>
        <time>2025-06-22T09:47:56Z</time>
      </trkpt>
      <trkpt lat="48.99044" lon="7.29577">
        <ele>364</ele>
        <time>2025-06-22T09:47:57Z</time>
      </trkpt>
      <trkpt lat="48.99046" lon="7.29583">
        <ele>365</ele>
        <time>2025-06-22T09:47:58Z</time>
      </trkpt>
      <trkpt lat="48.99047" lon="7.29589">
        <ele>365</ele>
        <time>2025-06-22T09:47:59Z</time>
      </trkpt>
      <trkpt lat="48.99049" lon="7.29595">
        <ele>365</ele>
        <time>2025-06-22T09:48:00Z</time>
      </trkpt>
      <trkpt lat="48.99051" lon="7.296">
        <ele>365</ele>
        <time>2025-06-22T09:48:01Z</time>
      </trkpt>
      <trkpt lat="48.99053" lon="7.29606">
        <ele>365</ele>
        <time>2025-06-22T09:48:02Z</time>
      </trkpt>
      <trkpt lat="48.99054" lon="7.29612">
        <ele>365</ele>
        <time>2025-06-22T09:48:03Z</time>
      </trkpt>
      <trkpt lat="48.99056" lon="7.29618">
        <ele>365</ele>
        <time>2025-06-22T09:48:04Z</time>
      </trkpt>
      <trkpt lat="48.99058" lon="7.29623">
        <ele>364</ele>
        <time>2025-06-22T09:48:05Z</time>
      </trkpt>
      <trkpt lat="48.99059" lon="7.29629">
        <ele>364</ele>
        <time>2025-06-22T09:48:06Z</time>
      </trkpt>
      <trkpt lat="48.99061" lon="7.29636">
        <ele>364</ele>
        <time>2025-06-22T09:48:07Z</time>
      </trkpt>
      <trkpt lat="48.99062" lon="7.29641">
        <ele>364</ele>
        <time>2025-06-22T09:48:08Z</time>
      </trkpt>
      <trkpt lat="48.99064" lon="7.29647">
        <ele>364</ele>
        <time>2025-06-22T09:48:09Z</time>
      </trkpt>
      <trkpt lat="48.99065" lon="7.29653">
        <ele>364</ele>
        <time>2025-06-22T09:48:10Z</time>
      </trkpt>
      <trkpt lat="48.99067" lon="7.29659">
        <ele>364</ele>
        <time>2025-06-22T09:48:11Z</time>
      </trkpt>
      <trkpt lat="48.99068" lon="7.29665">
        <ele>364</ele>
        <time>2025-06-22T09:48:12Z</time>
      </trkpt>
      <trkpt lat="48.9907" lon="7.29671">
        <ele>364</ele>
        <time>2025-06-22T09:48:13Z</time>
      </trkpt>
      <trkpt lat="48.99071" lon="7.29678">
        <ele>364</ele>
        <time>2025-06-22T09:48:14Z</time>
      </trkpt>
      <trkpt lat="48.99072" lon="7.29684">
        <ele>364</ele>
        <time>2025-06-22T09:48:15Z</time>
      </trkpt>
      <trkpt lat="48.99073" lon="7.2969">
        <ele>364</ele>
        <time>2025-06-22T09:48:16Z</time>
      </trkpt>
      <trkpt lat="48.99075" lon="7.29695">
        <ele>364</ele>
        <time>2025-06-22T09:48:17Z</time>
      </trkpt>
      <trkpt lat="48.99076" lon="7.29702">
        <ele>364</ele>
        <time>2025-06-22T09:48:18Z</time>
      </trkpt>
      <trkpt lat="48.99077" lon="7.29709">
        <ele>364</ele>
        <time>2025-06-22T09:48:19Z</time>
      </trkpt>
      <trkpt lat="48.99077" lon="7.29715">
        <ele>364</ele>
        <time>2025-06-22T09:48:20Z</time>
      </trkpt>
      <trkpt lat="48.99077" lon="7.29722">
        <ele>364</ele>
        <time>2025-06-22T09:48:21Z</time>
      </trkpt>
      <trkpt lat="48.99078" lon="7.29729">
        <ele>364</ele>
        <time>2025-06-22T09:48:22Z</time>
      </trkpt>
      <trkpt lat="48.99078" lon="7.29735">
        <ele>365</ele>
        <time>2025-06-22T09:48:23Z</time>
      </trkpt>
      <trkpt lat="48.99078" lon="7.29742">
        <ele>365</ele>
        <time>2025-06-22T09:48:24Z</time>
      </trkpt>
      <trkpt lat="48.99078" lon="7.29748">
        <ele>365</ele>
        <time>2025-06-22T09:48:25Z</time>
      </trkpt>
      <trkpt lat="48.99078" lon="7.29754">
        <ele>365</ele>
        <time>2025-06-22T09:48:26Z</time>
      </trkpt>
      <trkpt lat="48.99078" lon="7.29761">
        <ele>365</ele>
        <time>2025-06-22T09:48:27Z</time>
      </trkpt>
      <trkpt lat="48.99078" lon="7.29766">
        <ele>366</ele>
        <time>2025-06-22T09:48:28Z</time>
      </trkpt>
      <trkpt lat="48.99077" lon="7.29773">
        <ele>366</ele>
        <time>2025-06-22T09:48:29Z</time>
      </trkpt>
      <trkpt lat="48.99076" lon="7.29779">
        <ele>366</ele>
        <time>2025-06-22T09:48:30Z</time>
      </trkpt>
      <trkpt lat="48.99075" lon="7.29785">
        <ele>366</ele>
        <time>2025-06-22T09:48:31Z</time>
      </trkpt>
      <trkpt lat="48.99075" lon="7.29792">
        <ele>366</ele>
        <time>2025-06-22T09:48:32Z</time>
      </trkpt>
      <trkpt lat="48.99074" lon="7.29798">
        <ele>366</ele>
        <time>2025-06-22T09:48:33Z</time>
      </trkpt>
      <trkpt lat="48.99075" lon="7.29805">
        <ele>366</ele>
        <time>2025-06-22T09:48:34Z</time>
      </trkpt>
      <trkpt lat="48.99075" lon="7.29811">
        <ele>366</ele>
        <time>2025-06-22T09:48:35Z</time>
      </trkpt>
      <trkpt lat="48.99076" lon="7.29818">
        <ele>366</ele>
        <time>2025-06-22T09:48:36Z</time>
      </trkpt>
      <trkpt lat="48.99077" lon="7.29824">
        <ele>366</ele>
        <time>2025-06-22T09:48:37Z</time>
      </trkpt>
      <trkpt lat="48.99078" lon="7.2983">
        <ele>366</ele>
        <time>2025-06-22T09:48:38Z</time>
      </trkpt>
      <trkpt lat="48.99079" lon="7.29837">
        <ele>366</ele>
        <time>2025-06-22T09:48:39Z</time>
      </trkpt>
      <trkpt lat="48.99079" lon="7.29843">
        <ele>366</ele>
        <time>2025-06-22T09:48:40Z</time>
      </trkpt>
      <trkpt lat="48.9908" lon="7.2985">
        <ele>366</ele>
        <time>2025-06-22T09:48:41Z</time>
      </trkpt>
      <trkpt lat="48.99081" lon="7.29856">
        <ele>366</ele>
        <time>2025-06-22T09:48:42Z</time>
      </trkpt>
      <trkpt lat="48.99081" lon="7.29863">
        <ele>366</ele>
        <time>2025-06-22T09:48:43Z</time>
      </trkpt>
      <trkpt lat="48.99082" lon="7.29869">
        <ele>366</ele>
        <time>2025-06-22T09:48:44Z</time>
      </trkpt>
      <trkpt lat="48.99083" lon="7.29876">
        <ele>366</ele>
        <time>2025-06-22T09:48:45Z</time>
      </trkpt>
      <trkpt lat="48.99083" lon="7.29882">
        <ele>366</ele>
        <time>2025-06-22T09:48:46Z</time>
      </trkpt>
      <trkpt lat="48.99084" lon="7.29889">
        <ele>366</ele>
        <time>2025-06-22T09:48:47Z</time>
      </trkpt>
      <trkpt lat="48.99085" lon="7.29896">
        <ele>366</ele>
        <time>2025-06-22T09:48:48Z</time>
      </trkpt>
      <trkpt lat="48.99086" lon="7.29902">
        <ele>366</ele>
        <time>2025-06-22T09:48:49Z</time>
      </trkpt>
      <trkpt lat="48.99087" lon="7.29909">
        <ele>366</ele>
        <time>2025-06-22T09:48:50Z</time>
      </trkpt>
      <trkpt lat="48.99088" lon="7.29915">
        <ele>366</ele>
        <time>2025-06-22T09:48:51Z</time>
      </trkpt>
      <trkpt lat="48.9909" lon="7.29922">
        <ele>366</ele>
        <time>2025-06-22T09:48:52Z</time>
      </trkpt>
      <trkpt lat="48.99091" lon="7.29928">
        <ele>366</ele>
        <time>2025-06-22T09:48:53Z</time>
      </trkpt>
      <trkpt lat="48.99093" lon="7.29935">
        <ele>366</ele>
        <time>2025-06-22T09:48:54Z</time>
      </trkpt>
      <trkpt lat="48.99095" lon="7.29941">
        <ele>366</ele>
        <time>2025-06-22T09:48:55Z</time>
      </trkpt>
      <trkpt lat="48.99098" lon="7.29947">
        <ele>366</ele>
        <time>2025-06-22T09:48:56Z</time>
      </trkpt>
      <trkpt lat="48.991" lon="7.29952">
        <ele>366</ele>
        <time>2025-06-22T09:48:57Z</time>
      </trkpt>
      <trkpt lat="48.99103" lon="7.29958">
        <ele>366</ele>
        <time>2025-06-22T09:48:58Z</time>
      </trkpt>
      <trkpt lat="48.99106" lon="7.29963">
        <ele>366</ele>
        <time>2025-06-22T09:48:59Z</time>
      </trkpt>
      <trkpt lat="48.99109" lon="7.29968">
        <ele>366</ele>
        <time>2025-06-22T09:49:00Z</time>
      </trkpt>
      <trkpt lat="48.99112" lon="7.29974">
        <ele>366</ele>
        <time>2025-06-22T09:49:01Z</time>
      </trkpt>
      <trkpt lat="48.99115" lon="7.2998">
        <ele>366</ele>
        <time>2025-06-22T09:49:02Z</time>
      </trkpt>
      <trkpt lat="48.99118" lon="7.29986">
        <ele>366</ele>
        <time>2025-06-22T09:49:03Z</time>
      </trkpt>
      <trkpt lat="48.99122" lon="7.29992">
        <ele>366</ele>
        <time>2025-06-22T09:49:04Z</time>
      </trkpt>
      <trkpt lat="48.99125" lon="7.29998">
        <ele>365</ele>
        <time>2025-06-22T09:49:05Z</time>
      </trkpt>
      <trkpt lat="48.99129" lon="7.30005">
        <ele>364</ele>
        <time>2025-06-22T09:49:06Z</time>
      </trkpt>
      <trkpt lat="48.99133" lon="7.30011">
        <ele>363</ele>
        <time>2025-06-22T09:49:07Z</time>
      </trkpt>
      <trkpt lat="48.99137" lon="7.30019">
        <ele>362</ele>
        <time>2025-06-22T09:49:08Z</time>
      </trkpt>
      <trkpt lat="48.99141" lon="7.30026">
        <ele>362</ele>
        <time>2025-06-22T09:49:09Z</time>
      </trkpt>
      <trkpt lat="48.99146" lon="7.30034">
        <ele>362</ele>
        <time>2025-06-22T09:49:10Z</time>
      </trkpt>
      <trkpt lat="48.99151" lon="7.30041">
        <ele>362</ele>
        <time>2025-06-22T09:49:11Z</time>
      </trkpt>
      <trkpt lat="48.99156" lon="7.3005">
        <ele>362</ele>
        <time>2025-06-22T09:49:12Z</time>
      </trkpt>
      <trkpt lat="48.99161" lon="7.30058">
        <ele>361</ele>
        <time>2025-06-22T09:49:13Z</time>
      </trkpt>
      <trkpt lat="48.99166" lon="7.30066">
        <ele>360</ele>
        <time>2025-06-22T09:49:14Z</time>
      </trkpt>
      <trkpt lat="48.99172" lon="7.30075">
        <ele>360</ele>
        <time>2025-06-22T09:49:15Z</time>
      </trkpt>
      <trkpt lat="48.99177" lon="7.30085">
        <ele>359</ele>
        <time>2025-06-22T09:49:16Z</time>
      </trkpt>
      <trkpt lat="48.99182" lon="7.30094">
        <ele>359</ele>
        <time>2025-06-22T09:49:17Z</time>
      </trkpt>
      <trkpt lat="48.99188" lon="7.30104">
        <ele>358</ele>
        <time>2025-06-22T09:49:18Z</time>
      </trkpt>
      <trkpt lat="48.99194" lon="7.30114">
        <ele>358</ele>
        <time>2025-06-22T09:49:19Z</time>
      </trkpt>
      <trkpt lat="48.99199" lon="7.30124">
        <ele>357</ele>
        <time>2025-06-22T09:49:20Z</time>
      </trkpt>
      <trkpt lat="48.99204" lon="7.30134">
        <ele>357</ele>
        <time>2025-06-22T09:49:21Z</time>
      </trkpt>
      <trkpt lat="48.9921" lon="7.30145">
        <ele>356</ele>
        <time>2025-06-22T09:49:22Z</time>
      </trkpt>
      <trkpt lat="48.99215" lon="7.30155">
        <ele>356</ele>
        <time>2025-06-22T09:49:23Z</time>
      </trkpt>
      <trkpt lat="48.9922" lon="7.30167">
        <ele>356</ele>
        <time>2025-06-22T09:49:24Z</time>
      </trkpt>
      <trkpt lat="48.99225" lon="7.30178">
        <ele>356</ele>
        <time>2025-06-22T09:49:25Z</time>
      </trkpt>
      <trkpt lat="48.9923" lon="7.30189">
        <ele>356</ele>
        <time>2025-06-22T09:49:26Z</time>
      </trkpt>
      <trkpt lat="48.99235" lon="7.30201">
        <ele>356</ele>
        <time>2025-06-22T09:49:27Z</time>
      </trkpt>
      <trkpt lat="48.99241" lon="7.30212">
        <ele>356</ele>
        <time>2025-06-22T09:49:28Z</time>
      </trkpt>
      <trkpt lat="48.99246" lon="7.30222">
        <ele>356</ele>
        <time>2025-06-22T09:49:29Z</time>
      </trkpt>
      <trkpt lat="48.99251" lon="7.30233">
        <ele>356</ele>
        <time>2025-06-22T09:49:30Z</time>
      </trkpt>
      <trkpt lat="48.99256" lon="7.30243">
        <ele>356</ele>
        <time>2025-06-22T09:49:31Z</time>
      </trkpt>
      <trkpt lat="48.99261" lon="7.30254">
        <ele>356</ele>
        <time>2025-06-22T09:49:32Z</time>
      </trkpt>
      <trkpt lat="48.99266" lon="7.30265">
        <ele>355</ele>
        <time>2025-06-22T09:49:33Z</time>
      </trkpt>
      <trkpt lat="48.9927" lon="7.30275">
        <ele>355</ele>
        <time>2025-06-22T09:49:34Z</time>
      </trkpt>
      <trkpt lat="48.99274" lon="7.30286">
        <ele>355</ele>
        <time>2025-06-22T09:49:35Z</time>
      </trkpt>
      <trkpt lat="48.99278" lon="7.30296">
        <ele>355</ele>
        <time>2025-06-22T09:49:36Z</time>
      </trkpt>
      <trkpt lat="48.99282" lon="7.30306">
        <ele>355</ele>
        <time>2025-06-22T09:49:37Z</time>
      </trkpt>
      <trkpt lat="48.99285" lon="7.30316">
        <ele>355</ele>
        <time>2025-06-22T09:49:38Z</time>
      </trkpt>
      <trkpt lat="48.99289" lon="7.30325">
        <ele>355</ele>
        <time>2025-06-22T09:49:39Z</time>
      </trkpt>
      <trkpt lat="48.99293" lon="7.30334">
        <ele>354</ele>
        <time>2025-06-22T09:49:40Z</time>
      </trkpt>
      <trkpt lat="48.99297" lon="7.30343">
        <ele>354</ele>
        <time>2025-06-22T09:49:41Z</time>
      </trkpt>
      <trkpt lat="48.99301" lon="7.30351">
        <ele>354</ele>
        <time>2025-06-22T09:49:42Z</time>
      </trkpt>
      <trkpt lat="48.99305" lon="7.30359">
        <ele>354</ele>
        <time>2025-06-22T09:49:43Z</time>
      </trkpt>
      <trkpt lat="48.99308" lon="7.30366">
        <ele>354</ele>
        <time>2025-06-22T09:49:44Z</time>
      </trkpt>
      <trkpt lat="48.99312" lon="7.30374">
        <ele>354</ele>
        <time>2025-06-22T09:49:45Z</time>
      </trkpt>
      <trkpt lat="48.99315" lon="7.30381">
        <ele>354</ele>
        <time>2025-06-22T09:49:46Z</time>
      </trkpt>
      <trkpt lat="48.99318" lon="7.30387">
        <ele>354</ele>
        <time>2025-06-22T09:49:47Z</time>
      </trkpt>
      <trkpt lat="48.99321" lon="7.30394">
        <ele>354</ele>
        <time>2025-06-22T09:49:48Z</time>
      </trkpt>
      <trkpt lat="48.99324" lon="7.30401">
        <ele>354</ele>
        <time>2025-06-22T09:49:49Z</time>
      </trkpt>
      <trkpt lat="48.99327" lon="7.30407">
        <ele>354</ele>
        <time>2025-06-22T09:49:50Z</time>
      </trkpt>
      <trkpt lat="48.99329" lon="7.30413">
        <ele>354</ele>
        <time>2025-06-22T09:49:51Z</time>
      </trkpt>
      <trkpt lat="48.99332" lon="7.30419">
        <ele>354</ele>
        <time>2025-06-22T09:49:52Z</time>
      </trkpt>
      <trkpt lat="48.99334" lon="7.30424">
        <ele>354</ele>
        <time>2025-06-22T09:49:53Z</time>
      </trkpt>
      <trkpt lat="48.99336" lon="7.3043">
        <ele>354</ele>
        <time>2025-06-22T09:49:54Z</time>
      </trkpt>
      <trkpt lat="48.99339" lon="7.30435">
        <ele>355</ele>
        <time>2025-06-22T09:49:55Z</time>
      </trkpt>
      <trkpt lat="48.99341" lon="7.30441">
        <ele>355</ele>
        <time>2025-06-22T09:49:56Z</time>
      </trkpt>
      <trkpt lat="48.99344" lon="7.30446">
        <ele>355</ele>
        <time>2025-06-22T09:49:57Z</time>
      </trkpt>
      <trkpt lat="48.99346" lon="7.30452">
        <ele>355</ele>
        <time>2025-06-22T09:49:58Z</time>
      </trkpt>
      <trkpt lat="48.99347" lon="7.30458">
        <ele>355</ele>
        <time>2025-06-22T09:49:59Z</time>
      </trkpt>
      <trkpt lat="48.99349" lon="7.30464">
        <ele>355</ele>
        <time>2025-06-22T09:50:00Z</time>
      </trkpt>
      <trkpt lat="48.99351" lon="7.30469">
        <ele>355</ele>
        <time>2025-06-22T09:50:01Z</time>
      </trkpt>
      <trkpt lat="48.99353" lon="7.30475">
        <ele>355</ele>
        <time>2025-06-22T09:50:02Z</time>
      </trkpt>
      <trkpt lat="48.99355" lon="7.30481">
        <ele>355</ele>
        <time>2025-06-22T09:50:03Z</time>
      </trkpt>
      <trkpt lat="48.99356" lon="7.30486">
        <ele>356</ele>
        <time>2025-06-22T09:50:04Z</time>
      </trkpt>
      <trkpt lat="48.99356" lon="7.30492">
        <ele>356</ele>
        <time>2025-06-22T09:50:05Z</time>
      </trkpt>
      <trkpt lat="48.99355" lon="7.30498">
        <ele>356</ele>
        <time>2025-06-22T09:50:06Z</time>
      </trkpt>
      <trkpt lat="48.99353" lon="7.30502">
        <ele>356</ele>
        <time>2025-06-22T09:50:07Z</time>
      </trkpt>
      <trkpt lat="48.99349" lon="7.30504">
        <ele>357</ele>
        <time>2025-06-22T09:50:08Z</time>
      </trkpt>
      <trkpt lat="48.99345" lon="7.30504">
        <ele>357</ele>
        <time>2025-06-22T09:50:09Z</time>
      </trkpt>
      <trkpt lat="48.99342" lon="7.30503">
        <ele>357</ele>
        <time>2025-06-22T09:50:10Z</time>
      </trkpt>
      <trkpt lat="48.99339" lon="7.30502">
        <ele>357</ele>
        <time>2025-06-22T09:50:11Z</time>
      </trkpt>
      <trkpt lat="48.99335" lon="7.30502">
        <ele>357</ele>
        <time>2025-06-22T09:50:12Z</time>
      </trkpt>
      <trkpt lat="48.99333" lon="7.30503">
        <ele>357</ele>
        <time>2025-06-22T09:50:13Z</time>
      </trkpt>
      <trkpt lat="48.99331" lon="7.30506">
        <ele>357</ele>
        <time>2025-06-22T09:50:14Z</time>
      </trkpt>
      <trkpt lat="48.99329" lon="7.30509">
        <ele>357</ele>
        <time>2025-06-22T09:50:15Z</time>
      </trkpt>
      <trkpt lat="48.99328" lon="7.30512">
        <ele>357</ele>
        <time>2025-06-22T09:50:16Z</time>
      </trkpt>
      <trkpt lat="48.99327" lon="7.30516">
        <ele>357</ele>
        <time>2025-06-22T09:50:17Z</time>
      </trkpt>
      <trkpt lat="48.99326" lon="7.3052">
        <ele>357</ele>
        <time>2025-06-22T09:50:18Z</time>
      </trkpt>
      <trkpt lat="48.99325" lon="7.30524">
        <ele>357</ele>
        <time>2025-06-22T09:50:19Z</time>
      </trkpt>
      <trkpt lat="48.99323" lon="7.30528">
        <ele>357</ele>
        <time>2025-06-22T09:50:20Z</time>
      </trkpt>
      <trkpt lat="48.99322" lon="7.30531">
        <ele>357</ele>
        <time>2025-06-22T09:50:21Z</time>
      </trkpt>
      <trkpt lat="48.99321" lon="7.30535">
        <ele>357</ele>
        <time>2025-06-22T09:50:22Z</time>
      </trkpt>
      <trkpt lat="48.9932" lon="7.30539">
        <ele>357</ele>
        <time>2025-06-22T09:50:23Z</time>
      </trkpt>
      <trkpt lat="48.99319" lon="7.30543">
        <ele>357</ele>
        <time>2025-06-22T09:50:24Z</time>
      </trkpt>
      <trkpt lat="48.99319" lon="7.30547">
        <ele>357</ele>
        <time>2025-06-22T09:50:25Z</time>
      </trkpt>
      <trkpt lat="48.99318" lon="7.30551">
        <ele>357</ele>
        <time>2025-06-22T09:50:26Z</time>
      </trkpt>
      <trkpt lat="48.99317" lon="7.30555">
        <ele>357</ele>
        <time>2025-06-22T09:50:27Z</time>
      </trkpt>
      <trkpt lat="48.99316" lon="7.30559">
        <ele>357</ele>
        <time>2025-06-22T09:50:28Z</time>
      </trkpt>
      <trkpt lat="48.99316" lon="7.30562">
        <ele>357</ele>
        <time>2025-06-22T09:50:29Z</time>
      </trkpt>
      <trkpt lat="48.99316" lon="7.30566">
        <ele>357</ele>
        <time>2025-06-22T09:50:30Z</time>
      </trkpt>
      <trkpt lat="48.99315" lon="7.30569">
        <ele>357</ele>
        <time>2025-06-22T09:50:31Z</time>
      </trkpt>
      <trkpt lat="48.99315" lon="7.30574">
        <ele>357</ele>
        <time>2025-06-22T09:50:33Z</time>
      </trkpt>
      <trkpt lat="48.99316" lon="7.30578">
        <ele>357</ele>
        <time>2025-06-22T09:50:35Z</time>
      </trkpt>
      <trkpt lat="48.99317" lon="7.30582">
        <ele>357</ele>
        <time>2025-06-22T09:50:37Z</time>
      </trkpt>
      <trkpt lat="48.99319" lon="7.30586">
        <ele>357</ele>
        <time>2025-06-22T09:50:39Z</time>
      </trkpt>
      <trkpt lat="48.9932" lon="7.30588">
        <ele>357</ele>
        <time>2025-06-22T09:50:40Z</time>
      </trkpt>
      <trkpt lat="48.99322" lon="7.30591">
        <ele>357</ele>
        <time>2025-06-22T09:50:41Z</time>
      </trkpt>
      <trkpt lat="48.99323" lon="7.30594">
        <ele>357</ele>
        <time>2025-06-22T09:50:42Z</time>
      </trkpt>
      <trkpt lat="48.99324" lon="7.30596">
        <ele>357</ele>
        <time>2025-06-22T09:50:43Z</time>
      </trkpt>
      <trkpt lat="48.99326" lon="7.30596">
        <ele>356</ele>
        <time>2025-06-22T09:50:46Z</time>
      </trkpt>
      <trkpt lat="48.99325" lon="7.30594">
        <ele>356</ele>
        <time>2025-06-22T09:50:50Z</time>
      </trkpt>
      <trkpt lat="48.99323" lon="7.30594">
        <ele>356</ele>
        <time>2025-06-22T09:50:54Z</time>
      </trkpt>
      <trkpt lat="48.99321" lon="7.30593">
        <ele>356</ele>
        <time>2025-06-22T09:51:07Z</time>
      </trkpt>
      <trkpt lat="48.99323" lon="7.30592">
        <ele>356</ele>
        <time>2025-06-22T09:51:11Z</time>
      </trkpt>
      <trkpt lat="48.99325" lon="7.30591">
        <ele>356</ele>
        <time>2025-06-22T09:51:14Z</time>
      </trkpt>
      <trkpt lat="48.99325" lon="7.30588">
        <ele>356</ele>
        <time>2025-06-22T09:51:19Z</time>
      </trkpt>
      <trkpt lat="48.99323" lon="7.30588">
        <ele>356</ele>
        <time>2025-06-22T09:51:57Z</time>
      </trkpt>
      <trkpt lat="48.99324" lon="7.3059">
        <ele>356</ele>
        <time>2025-06-22T09:52:36Z</time>
      </trkpt>
      <trkpt lat="48.99322" lon="7.30588">
        <ele>356</ele>
        <time>2025-06-22T09:52:46Z</time>
      </trkpt>
      <trkpt lat="48.9932" lon="7.30591">
        <ele>357</ele>
        <time>2025-06-22T09:53:20Z</time>
      </trkpt>
      <trkpt lat="48.99319" lon="7.30594">
        <ele>357</ele>
        <time>2025-06-22T09:53:23Z</time>
      </trkpt>
      <trkpt lat="48.99319" lon="7.30598">
        <ele>357</ele>
        <time>2025-06-22T09:53:26Z</time>
      </trkpt>
      <trkpt lat="48.99319" lon="7.30601">
        <ele>356</ele>
        <time>2025-06-22T09:53:50Z</time>
      </trkpt>
      <trkpt lat="48.99319" lon="7.30604">
        <ele>356</ele>
        <time>2025-06-22T09:53:52Z</time>
      </trkpt>
      <trkpt lat="48.99319" lon="7.30608">
        <ele>356</ele>
        <time>2025-06-22T09:53:56Z</time>
      </trkpt>
      <trkpt lat="48.99318" lon="7.3061">
        <ele>356</ele>
        <time>2025-06-22T09:53:58Z</time>
      </trkpt>
      <trkpt lat="48.99317" lon="7.30613">
        <ele>356</ele>
        <time>2025-06-22T09:54:00Z</time>
      </trkpt>
      <trkpt lat="48.99316" lon="7.30615">
        <ele>356</ele>
        <time>2025-06-22T09:54:02Z</time>
      </trkpt>
      <trkpt lat="48.99315" lon="7.30618">
        <ele>356</ele>
        <time>2025-06-22T09:54:05Z</time>
      </trkpt>
      <trkpt lat="48.99317" lon="7.30617">
        <ele>356</ele>
        <time>2025-06-22T09:54:17Z</time>
      </trkpt>
      <trkpt lat="48.99318" lon="7.30617">
        <ele>357</ele>
        <time>2025-06-22T09:54:46Z</time>
      </trkpt>
    </trkseg>
  </trk>
</gpx>